<?xml version="1.0" encoding="UTF-8"?>
<gpx creator="Garmin Connect" version="1.1"
  xsi:schemaLocation="http://www.topografix.com/GPX/1/1 http://www.topografix.com/GPX/11.xsd"
  xmlns:ns3="http://www.garmin.com/xmlschemas/TrackPointExtension/v1"
  xmlns="http://www.topografix.com/GPX/1/1"
  xmlns:xsi="http://www.w3.org/2001/XMLSchema-instance" xmlns:ns2="http://www.garmin.com/xmlschemas/GpxExtensions/v3">
  <metadata>
    <name>Tøserunden 2023</name>
    <link href="connect.garmin.com">
      <text>Garmin Connect</text>
    </link>
    <time>2023-06-10T16:06:27.000Z</time>
  </metadata>
  <trk>
    <name>Tøserunden 2023</name>
    <desc></desc>
    <trkseg>
      <trkpt lat="55.45322994701564" lon="12.185589959844947">
        <ele>0.46</ele>
        <time>2023-06-10T16:06:27.000Z</time>
      </trkpt>
      <trkpt lat="55.45311796478927" lon="12.18555978499353">
        <ele>0.52</ele>
        <time>2023-06-10T16:06:27.002Z</time>
      </trkpt>
      <trkpt lat="55.452899280935526" lon="12.185500944033265">
        <ele>0.56</ele>
        <time>2023-06-10T16:06:27.007Z</time>
      </trkpt>
      <trkpt lat="55.45270993374288" lon="12.185449982061982">
        <ele>0.57</ele>
        <time>2023-06-10T16:06:27.015Z</time>
      </trkpt>
      <trkpt lat="55.45270993374288" lon="12.185449982061982">
        <ele>0.57</ele>
        <time>2023-06-10T16:06:27.023Z</time>
      </trkpt>
      <trkpt lat="55.45253399759531" lon="12.185429278761148">
        <ele>0.52</ele>
        <time>2023-06-10T16:06:27.034Z</time>
      </trkpt>
      <trkpt lat="55.45236996375024" lon="12.185409916564822">
        <ele>0.5</ele>
        <time>2023-06-10T16:06:27.048Z</time>
      </trkpt>
      <trkpt lat="55.452179946005344" lon="12.185439923778176">
        <ele>0.48</ele>
        <time>2023-06-10T16:06:27.065Z</time>
      </trkpt>
      <trkpt lat="55.45199998654425" lon="12.18548996374011">
        <ele>0.46</ele>
        <time>2023-06-10T16:06:27.085Z</time>
      </trkpt>
      <trkpt lat="55.45199998654425" lon="12.18548996374011">
        <ele>0.46</ele>
        <time>2023-06-10T16:06:27.105Z</time>
      </trkpt>
      <trkpt lat="55.451689939945936" lon="12.18565994873643">
        <ele>0.46</ele>
        <time>2023-06-10T16:06:27.130Z</time>
      </trkpt>
      <trkpt lat="55.45159103348851" lon="12.185755586251616">
        <ele>0.46</ele>
        <time>2023-06-10T16:06:27.157Z</time>
      </trkpt>
      <trkpt lat="55.451365476474166" lon="12.185973599553108">
        <ele>0.54</ele>
        <time>2023-06-10T16:06:27.188Z</time>
      </trkpt>
      <trkpt lat="55.45131107792258" lon="12.186026237905025">
        <ele>0.59</ele>
        <time>2023-06-10T16:06:27.220Z</time>
      </trkpt>
      <trkpt lat="55.45108996331692" lon="12.1862399764359">
        <ele>0.66</ele>
        <time>2023-06-10T16:06:27.256Z</time>
      </trkpt>
      <trkpt lat="55.45108996331692" lon="12.1862399764359">
        <ele>0.66</ele>
        <time>2023-06-10T16:06:27.292Z</time>
      </trkpt>
      <trkpt lat="55.45090866275132" lon="12.186468048021197">
        <ele>0.63</ele>
        <time>2023-06-10T16:06:27.332Z</time>
      </trkpt>
      <trkpt lat="55.45070154592395" lon="12.186728725209832">
        <ele>0.66</ele>
        <time>2023-06-10T16:06:27.376Z</time>
      </trkpt>
      <trkpt lat="55.45048554427922" lon="12.187000466510653">
        <ele>0.78</ele>
        <time>2023-06-10T16:06:27.424Z</time>
      </trkpt>
      <trkpt lat="55.450197122991085" lon="12.187363402917981">
        <ele>0.83</ele>
        <time>2023-06-10T16:06:27.478Z</time>
      </trkpt>
      <trkpt lat="55.44987282715738" lon="12.187771433964372">
        <ele>0.97</ele>
        <time>2023-06-10T16:06:27.538Z</time>
      </trkpt>
      <trkpt lat="55.449579963460565" lon="12.188139986246824">
        <ele>1.14</ele>
        <time>2023-06-10T16:06:27.604Z</time>
      </trkpt>
      <trkpt lat="55.449579963460565" lon="12.188139986246824">
        <ele>1.14</ele>
        <time>2023-06-10T16:06:27.670Z</time>
      </trkpt>
      <trkpt lat="55.4492605291307" lon="12.188535192981362">
        <ele>1.25</ele>
        <time>2023-06-10T16:06:27.742Z</time>
      </trkpt>
      <trkpt lat="55.44897043146193" lon="12.188894022256136">
        <ele>1.45</ele>
        <time>2023-06-10T16:06:27.820Z</time>
      </trkpt>
      <trkpt lat="55.44869885779917" lon="12.189230052754283">
        <ele>1.59</ele>
        <time>2023-06-10T16:06:27.903Z</time>
      </trkpt>
      <trkpt lat="55.44853096827865" lon="12.189437756314874">
        <ele>1.66</ele>
        <time>2023-06-10T16:06:27.989Z</time>
      </trkpt>
      <trkpt lat="55.44839627109468" lon="12.189604388549924">
        <ele>1.74</ele>
        <time>2023-06-10T16:06:28.078Z</time>
      </trkpt>
      <trkpt lat="55.448123859241605" lon="12.189941424876451">
        <ele>1.95</ele>
        <time>2023-06-10T16:06:28.172Z</time>
      </trkpt>
      <trkpt lat="55.44801992364228" lon="12.190069919452071">
        <ele>2.5</ele>
        <time>2023-06-10T16:06:28.268Z</time>
      </trkpt>
      <trkpt lat="55.44801992364228" lon="12.190069919452071">
        <ele>2.5</ele>
        <time>2023-06-10T16:06:28.364Z</time>
      </trkpt>
      <trkpt lat="55.44797994196415" lon="12.190099926665425">
        <ele>2.44</ele>
        <time>2023-06-10T16:06:28.461Z</time>
      </trkpt>
      <trkpt lat="55.44790048152208" lon="12.190092718228698">
        <ele>2.34</ele>
        <time>2023-06-10T16:06:28.559Z</time>
      </trkpt>
      <trkpt lat="55.44786997139454" lon="12.190089952200651">
        <ele>2.28</ele>
        <time>2023-06-10T16:06:28.658Z</time>
      </trkpt>
      <trkpt lat="55.44778992421925" lon="12.189989956095815">
        <ele>2.13</ele>
        <time>2023-06-10T16:06:28.758Z</time>
      </trkpt>
      <trkpt lat="55.44778992421925" lon="12.189989956095815">
        <ele>2.13</ele>
        <time>2023-06-10T16:06:28.858Z</time>
      </trkpt>
      <trkpt lat="55.44769546017051" lon="12.190185505896807">
        <ele>2.1</ele>
        <time>2023-06-10T16:06:28.961Z</time>
      </trkpt>
      <trkpt lat="55.44749999418855" lon="12.190589932724833">
        <ele>2.08</ele>
        <time>2023-06-10T16:06:29.069Z</time>
      </trkpt>
      <trkpt lat="55.447406116873026" lon="12.190725468099117">
        <ele>2.08</ele>
        <time>2023-06-10T16:06:29.179Z</time>
      </trkpt>
      <trkpt lat="55.44731995090842" lon="12.190849939361215">
        <ele>2.06</ele>
        <time>2023-06-10T16:06:29.290Z</time>
      </trkpt>
      <trkpt lat="55.44731995090842" lon="12.190849939361215">
        <ele>2.06</ele>
        <time>2023-06-10T16:06:29.401Z</time>
      </trkpt>
      <trkpt lat="55.44718776829541" lon="12.191023025661707">
        <ele>2.09</ele>
        <time>2023-06-10T16:06:29.515Z</time>
      </trkpt>
      <trkpt lat="55.447084503248334" lon="12.191158225759864">
        <ele>2.09</ele>
        <time>2023-06-10T16:06:29.631Z</time>
      </trkpt>
      <trkpt lat="55.446769930422306" lon="12.19156994484365">
        <ele>1.96</ele>
        <time>2023-06-10T16:06:29.753Z</time>
      </trkpt>
      <trkpt lat="55.446690302342176" lon="12.19166616909206">
        <ele>1.94</ele>
        <time>2023-06-10T16:06:29.877Z</time>
      </trkpt>
      <trkpt lat="55.44649885967374" lon="12.19189734198153">
        <ele>1.88</ele>
        <time>2023-06-10T16:06:30.005Z</time>
      </trkpt>
      <trkpt lat="55.44635930098593" lon="12.192065734416246">
        <ele>1.86</ele>
        <time>2023-06-10T16:06:30.135Z</time>
      </trkpt>
      <trkpt lat="55.44568338431418" lon="12.19288188032806">
        <ele>1.63</ele>
        <time>2023-06-10T16:06:30.278Z</time>
      </trkpt>
      <trkpt lat="55.44524861499667" lon="12.193406838923693">
        <ele>1.59</ele>
        <time>2023-06-10T16:06:30.430Z</time>
      </trkpt>
      <trkpt lat="55.444583762437105" lon="12.194209573790431">
        <ele>1.66</ele>
        <time>2023-06-10T16:06:30.595Z</time>
      </trkpt>
      <trkpt lat="55.44421353377402" lon="12.194656664505601">
        <ele>1.79</ele>
        <time>2023-06-10T16:06:30.767Z</time>
      </trkpt>
      <trkpt lat="55.444102976471186" lon="12.194790104404092">
        <ele>1.78</ele>
        <time>2023-06-10T16:06:30.941Z</time>
      </trkpt>
      <trkpt lat="55.44395453296602" lon="12.1949693094939">
        <ele>1.7</ele>
        <time>2023-06-10T16:06:31.118Z</time>
      </trkpt>
      <trkpt lat="55.44388035312295" lon="12.195058912038803">
        <ele>1.69</ele>
        <time>2023-06-10T16:06:31.297Z</time>
      </trkpt>
      <trkpt lat="55.44369561597705" lon="12.195281954482198">
        <ele>1.7</ele>
        <time>2023-06-10T16:06:31.479Z</time>
      </trkpt>
      <trkpt lat="55.44351012445986" lon="12.195505918934941">
        <ele>1.75</ele>
        <time>2023-06-10T16:06:31.665Z</time>
      </trkpt>
      <trkpt lat="55.44332530349493" lon="12.195729045197368">
        <ele>1.73</ele>
        <time>2023-06-10T16:06:31.854Z</time>
      </trkpt>
      <trkpt lat="55.443176943808794" lon="12.195908166468143">
        <ele>1.75</ele>
        <time>2023-06-10T16:06:32.046Z</time>
      </trkpt>
      <trkpt lat="55.442880894988775" lon="12.19626565463841">
        <ele>1.86</ele>
        <time>2023-06-10T16:06:32.244Z</time>
      </trkpt>
      <trkpt lat="55.442659026011825" lon="12.196533540263772">
        <ele>1.99</ele>
        <time>2023-06-10T16:06:32.446Z</time>
      </trkpt>
      <trkpt lat="55.44225166551769" lon="12.197025390341878">
        <ele>2.1</ele>
        <time>2023-06-10T16:06:32.656Z</time>
      </trkpt>
      <trkpt lat="55.44214035384357" lon="12.197159752249718">
        <ele>2.17</ele>
        <time>2023-06-10T16:06:32.868Z</time>
      </trkpt>
      <trkpt lat="55.44199274852872" lon="12.197338035330176">
        <ele>2.33</ele>
        <time>2023-06-10T16:06:33.083Z</time>
      </trkpt>
      <trkpt lat="55.4418814368546" lon="12.197472397238016">
        <ele>2.41</ele>
        <time>2023-06-10T16:06:33.300Z</time>
      </trkpt>
      <trkpt lat="55.44173374772072" lon="12.197650680318475">
        <ele>2.48</ele>
        <time>2023-06-10T16:06:33.520Z</time>
      </trkpt>
      <trkpt lat="55.441474076360464" lon="12.197964247316122">
        <ele>2.57</ele>
        <time>2023-06-10T16:06:33.745Z</time>
      </trkpt>
      <trkpt lat="55.44140065088868" lon="12.198052927851677">
        <ele>2.61</ele>
        <time>2023-06-10T16:06:33.972Z</time>
      </trkpt>
      <trkpt lat="55.44125220738351" lon="12.198232132941484">
        <ele>2.73</ele>
        <time>2023-06-10T16:06:34.202Z</time>
      </trkpt>
      <trkpt lat="55.44110460206866" lon="12.198410416021943">
        <ele>2.78</ele>
        <time>2023-06-10T16:06:34.434Z</time>
      </trkpt>
      <trkpt lat="55.440993290394545" lon="12.198544777929783">
        <ele>2.76</ele>
        <time>2023-06-10T16:06:34.669Z</time>
      </trkpt>
      <trkpt lat="55.44080779887736" lon="12.198768742382526">
        <ele>2.63</ele>
        <time>2023-06-10T16:06:34.907Z</time>
      </trkpt>
      <trkpt lat="55.440697241574526" lon="12.198902266100049">
        <ele>2.59</ele>
        <time>2023-06-10T16:06:35.147Z</time>
      </trkpt>
      <trkpt lat="55.44014143757522" lon="12.19957323744893">
        <ele>2.65</ele>
        <time>2023-06-10T16:06:35.398Z</time>
      </trkpt>
      <trkpt lat="55.440019983798265" lon="12.199719920754433">
        <ele>2.62</ele>
        <time>2023-06-10T16:06:35.652Z</time>
      </trkpt>
      <trkpt lat="55.43995720334351" lon="12.199797537177801">
        <ele>2.61</ele>
        <time>2023-06-10T16:06:35.907Z</time>
      </trkpt>
      <trkpt lat="55.43966341763735" lon="12.200160808861256">
        <ele>2.5</ele>
        <time>2023-06-10T16:06:36.168Z</time>
      </trkpt>
      <trkpt lat="55.4394793510437" lon="12.200388377532363">
        <ele>2.47</ele>
        <time>2023-06-10T16:06:36.432Z</time>
      </trkpt>
      <trkpt lat="55.43922244571149" lon="12.200706051662564">
        <ele>2.54</ele>
        <time>2023-06-10T16:06:36.701Z</time>
      </trkpt>
      <trkpt lat="55.43911197222769" lon="12.20084267668426">
        <ele>2.55</ele>
        <time>2023-06-10T16:06:36.972Z</time>
      </trkpt>
      <trkpt lat="55.438965456560254" lon="12.201023809611797">
        <ele>2.51</ele>
        <time>2023-06-10T16:06:37.246Z</time>
      </trkpt>
      <trkpt lat="55.43874534778297" lon="12.201295970007777">
        <ele>2.42</ele>
        <time>2023-06-10T16:06:37.525Z</time>
      </trkpt>
      <trkpt lat="55.43845089152455" lon="12.20166016370058">
        <ele>2.4</ele>
        <time>2023-06-10T16:06:37.809Z</time>
      </trkpt>
      <trkpt lat="55.438193902373314" lon="12.201977837830782">
        <ele>2.25</ele>
        <time>2023-06-10T16:06:38.098Z</time>
      </trkpt>
      <trkpt lat="55.4380841832608" lon="12.202113457024097">
        <ele>2.23</ele>
        <time>2023-06-10T16:06:38.390Z</time>
      </trkpt>
      <trkpt lat="55.43790011666715" lon="12.202341109514236">
        <ele>2.26</ele>
        <time>2023-06-10T16:06:38.685Z</time>
      </trkpt>
      <trkpt lat="55.43775360099971" lon="12.202522242441773">
        <ele>2.33</ele>
        <time>2023-06-10T16:06:38.983Z</time>
      </trkpt>
      <trkpt lat="55.437643211334944" lon="12.202658783644438">
        <ele>2.41</ele>
        <time>2023-06-10T16:06:39.283Z</time>
      </trkpt>
      <trkpt lat="55.437569534406066" lon="12.20274981111288">
        <ele>2.51</ele>
        <time>2023-06-10T16:06:39.585Z</time>
      </trkpt>
      <trkpt lat="55.43709981255233" lon="12.203330593183637">
        <ele>2.51</ele>
        <time>2023-06-10T16:06:39.896Z</time>
      </trkpt>
      <trkpt lat="55.436847349628806" lon="12.203642902895808">
        <ele>2.39</ele>
        <time>2023-06-10T16:06:40.212Z</time>
      </trkpt>
      <trkpt lat="55.4365212097764" lon="12.204046156257391">
        <ele>2.31</ele>
        <time>2023-06-10T16:06:40.534Z</time>
      </trkpt>
      <trkpt lat="55.436412915587425" lon="12.20418001525104">
        <ele>2.33</ele>
        <time>2023-06-10T16:06:40.858Z</time>
      </trkpt>
      <trkpt lat="55.43634083122015" lon="12.204269198700786">
        <ele>2.37</ele>
        <time>2023-06-10T16:06:41.184Z</time>
      </trkpt>
      <trkpt lat="55.436231112107635" lon="12.204404817894101">
        <ele>2.38</ele>
        <time>2023-06-10T16:06:41.512Z</time>
      </trkpt>
      <trkpt lat="55.43597336858511" lon="12.204723497852683">
        <ele>2.31</ele>
        <time>2023-06-10T16:06:41.845Z</time>
      </trkpt>
      <trkpt lat="55.435899775475264" lon="12.204814525321126">
        <ele>2.26</ele>
        <time>2023-06-10T16:06:42.179Z</time>
      </trkpt>
      <trkpt lat="55.43567966669798" lon="12.205086685717106">
        <ele>2.06</ele>
        <time>2023-06-10T16:06:42.518Z</time>
      </trkpt>
      <trkpt lat="55.4356059897691" lon="12.205177713185549">
        <ele>2.01</ele>
        <time>2023-06-10T16:06:42.858Z</time>
      </trkpt>
      <trkpt lat="55.435532396659255" lon="12.205268740653992">
        <ele>1.99</ele>
        <time>2023-06-10T16:06:43.200Z</time>
      </trkpt>
      <trkpt lat="55.435201060026884" lon="12.205678448081017">
        <ele>1.97</ele>
        <time>2023-06-10T16:06:43.548Z</time>
      </trkpt>
      <trkpt lat="55.4349809512496" lon="12.205950608476996">
        <ele>1.89</ele>
        <time>2023-06-10T16:06:43.900Z</time>
      </trkpt>
      <trkpt lat="55.43479688465595" lon="12.206178177148104">
        <ele>1.89</ele>
        <time>2023-06-10T16:06:44.256Z</time>
      </trkpt>
      <trkpt lat="55.434612818062305" lon="12.206405829638243">
        <ele>1.85</ele>
        <time>2023-06-10T16:06:44.616Z</time>
      </trkpt>
      <trkpt lat="55.43439270928502" lon="12.206677990034223">
        <ele>1.89</ele>
        <time>2023-06-10T16:06:44.980Z</time>
      </trkpt>
      <trkpt lat="55.43428223580122" lon="12.206814531236887">
        <ele>1.87</ele>
        <time>2023-06-10T16:06:45.346Z</time>
      </trkpt>
      <trkpt lat="55.43395098298788" lon="12.20722415484488">
        <ele>1.76</ele>
        <time>2023-06-10T16:06:45.719Z</time>
      </trkpt>
      <trkpt lat="55.433620400726795" lon="12.207632940262556">
        <ele>1.72</ele>
        <time>2023-06-10T16:06:46.098Z</time>
      </trkpt>
      <trkpt lat="55.4333627410233" lon="12.207951536402106">
        <ele>1.65</ele>
        <time>2023-06-10T16:06:46.482Z</time>
      </trkpt>
      <trkpt lat="55.433178674429655" lon="12.208179188892245">
        <ele>1.65</ele>
        <time>2023-06-10T16:06:46.870Z</time>
      </trkpt>
      <trkpt lat="55.43310575187206" lon="12.20826929435134">
        <ele>1.62</ele>
        <time>2023-06-10T16:06:47.259Z</time>
      </trkpt>
      <trkpt lat="55.43295848183334" lon="12.208451349288225">
        <ele>1.52</ele>
        <time>2023-06-10T16:06:47.651Z</time>
      </trkpt>
      <trkpt lat="55.43284809216857" lon="12.20858789049089">
        <ele>1.49</ele>
        <time>2023-06-10T16:06:48.045Z</time>
      </trkpt>
      <trkpt lat="55.43273761868477" lon="12.208724431693554">
        <ele>1.49</ele>
        <time>2023-06-10T16:06:48.441Z</time>
      </trkpt>
      <trkpt lat="55.43261993676424" lon="12.208869941532612">
        <ele>1.61</ele>
        <time>2023-06-10T16:06:48.840Z</time>
      </trkpt>
      <trkpt lat="55.43261993676424" lon="12.208869941532612">
        <ele>1.61</ele>
        <time>2023-06-10T16:06:49.239Z</time>
      </trkpt>
      <trkpt lat="55.43229606002569" lon="12.209268249571323">
        <ele>1.48</ele>
        <time>2023-06-10T16:06:49.644Z</time>
      </trkpt>
      <trkpt lat="55.43203789740801" lon="12.209585756063461">
        <ele>1.47</ele>
        <time>2023-06-10T16:06:50.054Z</time>
      </trkpt>
      <trkpt lat="55.43189045973122" lon="12.209767140448093">
        <ele>1.38</ele>
        <time>2023-06-10T16:06:50.467Z</time>
      </trkpt>
      <trkpt lat="55.4317429382354" lon="12.209948524832726">
        <ele>1.32</ele>
        <time>2023-06-10T16:06:50.883Z</time>
      </trkpt>
      <trkpt lat="55.4313372541219" lon="12.210447415709496">
        <ele>1.31</ele>
        <time>2023-06-10T16:06:51.307Z</time>
      </trkpt>
      <trkpt lat="55.43122669681907" lon="12.21058345399797">
        <ele>1.35</ele>
        <time>2023-06-10T16:06:51.733Z</time>
      </trkpt>
      <trkpt lat="55.430699307471514" lon="12.211231961846352">
        <ele>1.33</ele>
        <time>2023-06-10T16:06:52.169Z</time>
      </trkpt>
      <trkpt lat="55.430625630542636" lon="12.211322654038668">
        <ele>1.34</ele>
        <time>2023-06-10T16:06:52.607Z</time>
      </trkpt>
      <trkpt lat="55.43036746792495" lon="12.211640076711774">
        <ele>1.46</ele>
        <time>2023-06-10T16:06:53.050Z</time>
      </trkpt>
      <trkpt lat="55.4300731793046" lon="12.212002007290721">
        <ele>1.41</ele>
        <time>2023-06-10T16:06:53.498Z</time>
      </trkpt>
      <trkpt lat="55.429929345846176" lon="12.21217886544764">
        <ele>1.45</ele>
        <time>2023-06-10T16:06:53.949Z</time>
      </trkpt>
      <trkpt lat="55.42974871583283" lon="12.212401069700718">
        <ele>1.46</ele>
        <time>2023-06-10T16:06:54.404Z</time>
      </trkpt>
      <trkpt lat="55.42913583107293" lon="12.213154770433903">
        <ele>1.4</ele>
        <time>2023-06-10T16:06:54.871Z</time>
      </trkpt>
      <trkpt lat="55.42895511724055" lon="12.21337697468698">
        <ele>1.33</ele>
        <time>2023-06-10T16:06:55.341Z</time>
      </trkpt>
      <trkpt lat="55.42865999042988" lon="12.21373999491334">
        <ele>1.38</ele>
        <time>2023-06-10T16:06:55.817Z</time>
      </trkpt>
      <trkpt lat="55.42865999042988" lon="12.21373999491334">
        <ele>1.38</ele>
        <time>2023-06-10T16:06:56.293Z</time>
      </trkpt>
      <trkpt lat="55.42859519831836" lon="12.213553749024868">
        <ele>1.35</ele>
        <time>2023-06-10T16:06:56.771Z</time>
      </trkpt>
      <trkpt lat="55.42857994325459" lon="12.213509995490313">
        <ele>1.32</ele>
        <time>2023-06-10T16:06:57.250Z</time>
      </trkpt>
      <trkpt lat="55.428549936041236" lon="12.213489962741733">
        <ele>1.29</ele>
        <time>2023-06-10T16:06:57.729Z</time>
      </trkpt>
      <trkpt lat="55.42846997268498" lon="12.213489962741733">
        <ele>1.24</ele>
        <time>2023-06-10T16:06:58.209Z</time>
      </trkpt>
      <trkpt lat="55.42846997268498" lon="12.213489962741733">
        <ele>1.24</ele>
        <time>2023-06-10T16:06:58.689Z</time>
      </trkpt>
      <trkpt lat="55.428439965471625" lon="12.213459955528378">
        <ele>1.22</ele>
        <time>2023-06-10T16:06:59.170Z</time>
      </trkpt>
      <trkpt lat="55.428438959643245" lon="12.213456267490983">
        <ele>1.22</ele>
        <time>2023-06-10T16:06:59.651Z</time>
      </trkpt>
      <trkpt lat="55.42840023525059" lon="12.213316624984145">
        <ele>1.22</ele>
        <time>2023-06-10T16:07:00.133Z</time>
      </trkpt>
      <trkpt lat="55.428361259400845" lon="12.2131756413728">
        <ele>1.26</ele>
        <time>2023-06-10T16:07:00.617Z</time>
      </trkpt>
      <trkpt lat="55.428283559158444" lon="12.212895099073648">
        <ele>1.46</ele>
        <time>2023-06-10T16:07:01.104Z</time>
      </trkpt>
      <trkpt lat="55.4282599221915" lon="12.212809938937426">
        <ele>1.53</ele>
        <time>2023-06-10T16:07:01.591Z</time>
      </trkpt>
      <trkpt lat="55.428249863907695" lon="12.21275201998651">
        <ele>1.59</ele>
        <time>2023-06-10T16:07:02.079Z</time>
      </trkpt>
      <trkpt lat="55.428210720419884" lon="12.212527804076672">
        <ele>1.85</ele>
        <time>2023-06-10T16:07:02.569Z</time>
      </trkpt>
      <trkpt lat="55.42817157693207" lon="12.212303671985865">
        <ele>2.14</ele>
        <time>2023-06-10T16:07:03.061Z</time>
      </trkpt>
      <trkpt lat="55.428002094849944" lon="12.211332628503442">
        <ele>3.62</ele>
        <time>2023-06-10T16:07:03.563Z</time>
      </trkpt>
      <trkpt lat="55.42796320281923" lon="12.211110005155206">
        <ele>3.94</ele>
        <time>2023-06-10T16:07:04.067Z</time>
      </trkpt>
      <trkpt lat="55.427819872274995" lon="12.210288913920522">
        <ele>4.97</ele>
        <time>2023-06-10T16:07:04.579Z</time>
      </trkpt>
      <trkpt lat="55.42778047733009" lon="12.210063273087144">
        <ele>5.2</ele>
        <time>2023-06-10T16:07:05.093Z</time>
      </trkpt>
      <trkpt lat="55.42775432579219" lon="12.209913320839405">
        <ele>5.33</ele>
        <time>2023-06-10T16:07:05.608Z</time>
      </trkpt>
      <trkpt lat="55.42758375406265" lon="12.208936242386699">
        <ele>6.1</ele>
        <time>2023-06-10T16:07:06.132Z</time>
      </trkpt>
      <trkpt lat="55.42753145098686" lon="12.208636337891221">
        <ele>6.37</ele>
        <time>2023-06-10T16:07:06.659Z</time>
      </trkpt>
      <trkpt lat="55.42746582068503" lon="12.208260660991073">
        <ele>6.65</ele>
        <time>2023-06-10T16:07:07.190Z</time>
      </trkpt>
      <trkpt lat="55.42740052565932" lon="12.207886492833495">
        <ele>7.04</ele>
        <time>2023-06-10T16:07:07.724Z</time>
      </trkpt>
      <trkpt lat="55.42733497917652" lon="12.207510815933347">
        <ele>7.37</ele>
        <time>2023-06-10T16:07:08.262Z</time>
      </trkpt>
      <trkpt lat="55.42720380239189" lon="12.20675946213305">
        <ele>7.94</ele>
        <time>2023-06-10T16:07:08.807Z</time>
      </trkpt>
      <trkpt lat="55.42716440744698" lon="12.20653373748064">
        <ele>8.06</ele>
        <time>2023-06-10T16:07:09.354Z</time>
      </trkpt>
      <trkpt lat="55.42702032253146" lon="12.205708203837276">
        <ele>8.37</ele>
        <time>2023-06-10T16:07:09.909Z</time>
      </trkpt>
      <trkpt lat="55.426941784098744" lon="12.205258263275027">
        <ele>8.45</ele>
        <time>2023-06-10T16:07:10.468Z</time>
      </trkpt>
      <trkpt lat="55.42687623761594" lon="12.20488267019391">
        <ele>8.54</ele>
        <time>2023-06-10T16:07:11.031Z</time>
      </trkpt>
      <trkpt lat="55.42683684267104" lon="12.204656945541501">
        <ele>8.57</ele>
        <time>2023-06-10T16:07:11.596Z</time>
      </trkpt>
      <trkpt lat="55.42681060731411" lon="12.204506993293762">
        <ele>8.62</ele>
        <time>2023-06-10T16:07:12.163Z</time>
      </trkpt>
      <trkpt lat="55.42674506083131" lon="12.204131316393614">
        <ele>8.81</ele>
        <time>2023-06-10T16:07:12.733Z</time>
      </trkpt>
      <trkpt lat="55.42666652239859" lon="12.203681375831366">
        <ele>9.12</ele>
        <time>2023-06-10T16:07:13.308Z</time>
      </trkpt>
      <trkpt lat="55.426627127453685" lon="12.203455651178956">
        <ele>9.24</ele>
        <time>2023-06-10T16:07:13.885Z</time>
      </trkpt>
      <trkpt lat="55.42659997008741" lon="12.20329999923706">
        <ele>9.28</ele>
        <time>2023-06-10T16:07:14.463Z</time>
      </trkpt>
      <trkpt lat="55.42659997008741" lon="12.20329999923706">
        <ele>9.28</ele>
        <time>2023-06-10T16:07:15.041Z</time>
      </trkpt>
      <trkpt lat="55.42658622376621" lon="12.203230848535895">
        <ele>9.28</ele>
        <time>2023-06-10T16:07:15.620Z</time>
      </trkpt>
      <trkpt lat="55.426542134955525" lon="12.203009566292167">
        <ele>9.21</ele>
        <time>2023-06-10T16:07:16.201Z</time>
      </trkpt>
      <trkpt lat="55.42651271447539" lon="12.202861541882157">
        <ele>9.09</ele>
        <time>2023-06-10T16:07:16.783Z</time>
      </trkpt>
      <trkpt lat="55.42642395012081" lon="12.202415876090527">
        <ele>8.56</ele>
        <time>2023-06-10T16:07:17.370Z</time>
      </trkpt>
      <trkpt lat="55.42639444582164" lon="12.202267767861485">
        <ele>8.42</ele>
        <time>2023-06-10T16:07:17.958Z</time>
      </trkpt>
      <trkpt lat="55.42636502534151" lon="12.202119743451476">
        <ele>8.34</ele>
        <time>2023-06-10T16:07:18.548Z</time>
      </trkpt>
      <trkpt lat="55.42627659626305" lon="12.201675586402416">
        <ele>8.19</ele>
        <time>2023-06-10T16:07:19.142Z</time>
      </trkpt>
      <trkpt lat="55.42622362263501" lon="12.201409377157688">
        <ele>8.26</ele>
        <time>2023-06-10T16:07:19.738Z</time>
      </trkpt>
      <trkpt lat="55.42616997845471" lon="12.201139982789755">
        <ele>8.37</ele>
        <time>2023-06-10T16:07:20.337Z</time>
      </trkpt>
      <trkpt lat="55.42616997845471" lon="12.201139982789755">
        <ele>8.37</ele>
        <time>2023-06-10T16:07:20.936Z</time>
      </trkpt>
      <trkpt lat="55.426109628751874" lon="12.201188765466213">
        <ele>8.54</ele>
        <time>2023-06-10T16:07:21.536Z</time>
      </trkpt>
      <trkpt lat="55.42595992796123" lon="12.201309967786074">
        <ele>8.48</ele>
        <time>2023-06-10T16:07:22.139Z</time>
      </trkpt>
      <trkpt lat="55.42590670287609" lon="12.20135916955769">
        <ele>8.46</ele>
        <time>2023-06-10T16:07:22.743Z</time>
      </trkpt>
      <trkpt lat="55.42582707479596" lon="12.201432762667537">
        <ele>8.45</ele>
        <time>2023-06-10T16:07:23.348Z</time>
      </trkpt>
      <trkpt lat="55.42546950280666" lon="12.201763344928622">
        <ele>8.58</ele>
        <time>2023-06-10T16:07:23.960Z</time>
      </trkpt>
      <trkpt lat="55.42535006068647" lon="12.201873818412423">
        <ele>8.67</ele>
        <time>2023-06-10T16:07:24.574Z</time>
      </trkpt>
      <trkpt lat="55.425150990486145" lon="12.20205788500607">
        <ele>8.87</ele>
        <time>2023-06-10T16:07:25.191Z</time>
      </trkpt>
      <trkpt lat="55.42491126805544" lon="12.202279502525926">
        <ele>9.07</ele>
        <time>2023-06-10T16:07:25.813Z</time>
      </trkpt>
      <trkpt lat="55.4247129522264" lon="12.202462814748287">
        <ele>9.26</ele>
        <time>2023-06-10T16:07:26.438Z</time>
      </trkpt>
      <trkpt lat="55.424513882026076" lon="12.202646881341934">
        <ele>9.41</ele>
        <time>2023-06-10T16:07:27.067Z</time>
      </trkpt>
      <trkpt lat="55.42443425394595" lon="12.202720558270812">
        <ele>9.49</ele>
        <time>2023-06-10T16:07:27.697Z</time>
      </trkpt>
      <trkpt lat="55.424195285886526" lon="12.202941421419382">
        <ele>9.81</ele>
        <time>2023-06-10T16:07:28.332Z</time>
      </trkpt>
      <trkpt lat="55.42379714548588" lon="12.203309554606676">
        <ele>10.4</ele>
        <time>2023-06-10T16:07:28.974Z</time>
      </trkpt>
      <trkpt lat="55.4233989212662" lon="12.20367768779397">
        <ele>10.89</ele>
        <time>2023-06-10T16:07:29.623Z</time>
      </trkpt>
      <trkpt lat="55.42330998927355" lon="12.203759998083115">
        <ele>11.02</ele>
        <time>2023-06-10T16:07:30.274Z</time>
      </trkpt>
      <trkpt lat="55.42320152744651" lon="12.20387022010982">
        <ele>11.2</ele>
        <time>2023-06-10T16:07:30.927Z</time>
      </trkpt>
      <trkpt lat="55.42300748638809" lon="12.204067362472415">
        <ele>11.54</ele>
        <time>2023-06-10T16:07:31.583Z</time>
      </trkpt>
      <trkpt lat="55.422773798927665" lon="12.204304905608296">
        <ele>11.84</ele>
        <time>2023-06-10T16:07:32.244Z</time>
      </trkpt>
      <trkpt lat="55.42269995436072" lon="12.204379923641682">
        <ele>11.96</ele>
        <time>2023-06-10T16:07:32.906Z</time>
      </trkpt>
      <trkpt lat="55.42269668541849" lon="12.204383192583919">
        <ele>11.96</ele>
        <time>2023-06-10T16:07:33.568Z</time>
      </trkpt>
      <trkpt lat="55.422501219436526" lon="12.2045758087188">
        <ele>11.86</ele>
        <time>2023-06-10T16:07:34.234Z</time>
      </trkpt>
      <trkpt lat="55.42222729884088" lon="12.204845706000924">
        <ele>11.94</ele>
        <time>2023-06-10T16:07:34.905Z</time>
      </trkpt>
      <trkpt lat="55.422110287472606" lon="12.204960873350501">
        <ele>11.93</ele>
        <time>2023-06-10T16:07:35.578Z</time>
      </trkpt>
      <trkpt lat="55.42199260555208" lon="12.205076878890395">
        <ele>11.85</ele>
        <time>2023-06-10T16:07:36.253Z</time>
      </trkpt>
      <trkpt lat="55.4218755941838" lon="12.205192130059004">
        <ele>11.75</ele>
        <time>2023-06-10T16:07:36.930Z</time>
      </trkpt>
      <trkpt lat="55.421757912263274" lon="12.205308135598898">
        <ele>11.63</ele>
        <time>2023-06-10T16:07:37.609Z</time>
      </trkpt>
      <trkpt lat="55.421602511778474" lon="12.205461272969842">
        <ele>11.43</ele>
        <time>2023-06-10T16:07:38.291Z</time>
      </trkpt>
      <trkpt lat="55.42152397334576" lon="12.205538637936115">
        <ele>11.37</ele>
        <time>2023-06-10T16:07:38.975Z</time>
      </trkpt>
      <trkpt lat="55.42121082544327" lon="12.20584717579186">
        <ele>11.35</ele>
        <time>2023-06-10T16:07:39.664Z</time>
      </trkpt>
      <trkpt lat="55.42105458676815" lon="12.206001067534089">
        <ele>11.31</ele>
        <time>2023-06-10T16:07:40.356Z</time>
      </trkpt>
      <trkpt lat="55.420898431912065" lon="12.206154959276319">
        <ele>11.24</ele>
        <time>2023-06-10T16:07:41.051Z</time>
      </trkpt>
      <trkpt lat="55.42074143886566" lon="12.206309689208865">
        <ele>11.23</ele>
        <time>2023-06-10T16:07:41.749Z</time>
      </trkpt>
      <trkpt lat="55.420585200190544" lon="12.206463580951095">
        <ele>11.18</ele>
        <time>2023-06-10T16:07:42.450Z</time>
      </trkpt>
      <trkpt lat="55.4204682726413" lon="12.206578832119703">
        <ele>11.17</ele>
        <time>2023-06-10T16:07:43.153Z</time>
      </trkpt>
      <trkpt lat="55.420312033966184" lon="12.206732723861933">
        <ele>11.21</ele>
        <time>2023-06-10T16:07:43.859Z</time>
      </trkpt>
      <trkpt lat="55.42011656798422" lon="12.206925256177783">
        <ele>11.34</ele>
        <time>2023-06-10T16:07:44.569Z</time>
      </trkpt>
      <trkpt lat="55.419998886063695" lon="12.207041261717677">
        <ele>11.39</ele>
        <time>2023-06-10T16:07:45.281Z</time>
      </trkpt>
      <trkpt lat="55.41968649253249" lon="12.207349045202136">
        <ele>11.42</ele>
        <time>2023-06-10T16:07:45.998Z</time>
      </trkpt>
      <trkpt lat="55.41945179924369" lon="12.207580301910639">
        <ele>11.48</ele>
        <time>2023-06-10T16:07:46.720Z</time>
      </trkpt>
      <trkpt lat="55.419217105954885" lon="12.207811558619142">
        <ele>11.49</ele>
        <time>2023-06-10T16:07:47.446Z</time>
      </trkpt>
      <trkpt lat="55.419139405712485" lon="12.207888085395098">
        <ele>11.54</ele>
        <time>2023-06-10T16:07:48.173Z</time>
      </trkpt>
      <trkpt lat="55.418943939730525" lon="12.20808070152998">
        <ele>11.72</ele>
        <time>2023-06-10T16:07:48.904Z</time>
      </trkpt>
      <trkpt lat="55.418748473748565" lon="12.20827323384583">
        <ele>11.97</ele>
        <time>2023-06-10T16:07:49.639Z</time>
      </trkpt>
      <trkpt lat="55.418630708009005" lon="12.208389239385724">
        <ele>12.07</ele>
        <time>2023-06-10T16:07:50.376Z</time>
      </trkpt>
      <trkpt lat="55.41851378045976" lon="12.208504490554333">
        <ele>12.13</ele>
        <time>2023-06-10T16:07:51.115Z</time>
      </trkpt>
      <trkpt lat="55.4183183144778" lon="12.208697022870183">
        <ele>12.19</ele>
        <time>2023-06-10T16:07:51.858Z</time>
      </trkpt>
      <trkpt lat="55.41820063255727" lon="12.208813028410077">
        <ele>12.18</ele>
        <time>2023-06-10T16:07:52.603Z</time>
      </trkpt>
      <trkpt lat="55.41792746633291" lon="12.209082171320915">
        <ele>12.04</ele>
        <time>2023-06-10T16:07:53.353Z</time>
      </trkpt>
      <trkpt lat="55.417848927900195" lon="12.209159536287189">
        <ele>11.97</ele>
        <time>2023-06-10T16:07:54.104Z</time>
      </trkpt>
      <trkpt lat="55.417771227657795" lon="12.209236063063145">
        <ele>11.84</ele>
        <time>2023-06-10T16:07:54.857Z</time>
      </trkpt>
      <trkpt lat="55.41773200035095" lon="12.209274787455797">
        <ele>11.75</ele>
        <time>2023-06-10T16:07:55.610Z</time>
      </trkpt>
      <trkpt lat="55.417653461918235" lon="12.209352068603039">
        <ele>11.53</ele>
        <time>2023-06-10T16:07:56.365Z</time>
      </trkpt>
      <trkpt lat="55.417575761675835" lon="12.209428679198027">
        <ele>11.25</ele>
        <time>2023-06-10T16:07:57.121Z</time>
      </trkpt>
      <trkpt lat="55.41749730706215" lon="12.209505960345268">
        <ele>10.93</ele>
        <time>2023-06-10T16:07:57.879Z</time>
      </trkpt>
      <trkpt lat="55.41734106838703" lon="12.20965993590653">
        <ele>10.23</ele>
        <time>2023-06-10T16:07:58.640Z</time>
      </trkpt>
      <trkpt lat="55.4172233864665" lon="12.209775941446424">
        <ele>9.64</ele>
        <time>2023-06-10T16:07:59.403Z</time>
      </trkpt>
      <trkpt lat="55.41702792048454" lon="12.209968473762274">
        <ele>8.61</ele>
        <time>2023-06-10T16:08:00.169Z</time>
      </trkpt>
      <trkpt lat="55.4169109929353" lon="12.210083724930882">
        <ele>8.04</ele>
        <time>2023-06-10T16:08:00.937Z</time>
      </trkpt>
      <trkpt lat="55.41683245450258" lon="12.210161006078124">
        <ele>7.7</ele>
        <time>2023-06-10T16:08:01.707Z</time>
      </trkpt>
      <trkpt lat="55.41675475426018" lon="12.210237616673112">
        <ele>7.4</ele>
        <time>2023-06-10T16:08:02.478Z</time>
      </trkpt>
      <trkpt lat="55.41671552695334" lon="12.210276257246733">
        <ele>7.28</ele>
        <time>2023-06-10T16:08:03.250Z</time>
      </trkpt>
      <trkpt lat="55.41663698852062" lon="12.210353622213006">
        <ele>7.09</ele>
        <time>2023-06-10T16:08:04.023Z</time>
      </trkpt>
      <trkpt lat="55.41655928827822" lon="12.210430148988962">
        <ele>6.97</ele>
        <time>2023-06-10T16:08:04.798Z</time>
      </trkpt>
      <trkpt lat="55.41648083366454" lon="12.210507513955235">
        <ele>6.9</ele>
        <time>2023-06-10T16:08:05.574Z</time>
      </trkpt>
      <trkpt lat="55.416403133422136" lon="12.210584040731192">
        <ele>6.87</ele>
        <time>2023-06-10T16:08:06.352Z</time>
      </trkpt>
      <trkpt lat="55.41632459498942" lon="12.210661405697465">
        <ele>6.89</ele>
        <time>2023-06-10T16:08:07.131Z</time>
      </trkpt>
      <trkpt lat="55.416285367682576" lon="12.210700046271086">
        <ele>6.93</ele>
        <time>2023-06-10T16:08:07.911Z</time>
      </trkpt>
      <trkpt lat="55.416207667440176" lon="12.210776656866074">
        <ele>7.07</ele>
        <time>2023-06-10T16:08:08.692Z</time>
      </trkpt>
      <trkpt lat="55.41593374684453" lon="12.211046554148197">
        <ele>7.8</ele>
        <time>2023-06-10T16:08:09.478Z</time>
      </trkpt>
      <trkpt lat="55.41585520841181" lon="12.21112391911447">
        <ele>7.98</ele>
        <time>2023-06-10T16:08:10.266Z</time>
      </trkpt>
      <trkpt lat="55.41577750816941" lon="12.211200445890427">
        <ele>8.13</ele>
        <time>2023-06-10T16:08:11.055Z</time>
      </trkpt>
      <trkpt lat="55.415659826248884" lon="12.21131645143032">
        <ele>8.26</ele>
        <time>2023-06-10T16:08:11.846Z</time>
      </trkpt>
      <trkpt lat="55.41534734889865" lon="12.21162423491478">
        <ele>8.45</ele>
        <time>2023-06-10T16:08:12.643Z</time>
      </trkpt>
      <trkpt lat="55.415229918435216" lon="12.211739988997579">
        <ele>8.56</ele>
        <time>2023-06-10T16:08:13.442Z</time>
      </trkpt>
      <trkpt lat="55.415229918435216" lon="12.211739988997579">
        <ele>8.56</ele>
        <time>2023-06-10T16:08:14.241Z</time>
      </trkpt>
      <trkpt lat="55.41514568030834" lon="12.211792627349496">
        <ele>8.67</ele>
        <time>2023-06-10T16:08:15.042Z</time>
      </trkpt>
      <trkpt lat="55.415103351697326" lon="12.211819114163518">
        <ele>8.75</ele>
        <time>2023-06-10T16:08:15.843Z</time>
      </trkpt>
      <trkpt lat="55.41501944884658" lon="12.21187150105834">
        <ele>8.96</ele>
        <time>2023-06-10T16:08:16.646Z</time>
      </trkpt>
      <trkpt lat="55.414989944547415" lon="12.211889941245317">
        <ele>9.04</ele>
        <time>2023-06-10T16:08:17.449Z</time>
      </trkpt>
      <trkpt lat="55.41489061899483" lon="12.21194182522595">
        <ele>9.31</ele>
        <time>2023-06-10T16:08:18.254Z</time>
      </trkpt>
      <trkpt lat="55.414805207401514" lon="12.21198633313179">
        <ele>9.49</ele>
        <time>2023-06-10T16:08:19.060Z</time>
      </trkpt>
      <trkpt lat="55.41475994512439" lon="12.212009970098734">
        <ele>9.54</ele>
        <time>2023-06-10T16:08:19.867Z</time>
      </trkpt>
      <trkpt lat="55.4147177003324" lon="12.212020782753825">
        <ele>9.59</ele>
        <time>2023-06-10T16:08:20.675Z</time>
      </trkpt>
      <trkpt lat="55.41454059071839" lon="12.212066212669015">
        <ele>9.68</ele>
        <time>2023-06-10T16:08:21.486Z</time>
      </trkpt>
      <trkpt lat="55.41422995738685" lon="12.212145756930113">
        <ele>9.92</ele>
        <time>2023-06-10T16:08:22.302Z</time>
      </trkpt>
      <trkpt lat="55.41409651748836" lon="12.212180038914084">
        <ele>10.05</ele>
        <time>2023-06-10T16:08:23.120Z</time>
      </trkpt>
      <trkpt lat="55.413919407874346" lon="12.212225385010242">
        <ele>10.25</ele>
        <time>2023-06-10T16:08:23.941Z</time>
      </trkpt>
      <trkpt lat="55.413830392062664" lon="12.212248183786869">
        <ele>10.37</ele>
        <time>2023-06-10T16:08:24.763Z</time>
      </trkpt>
      <trkpt lat="55.41378680616617" lon="12.212259415537119">
        <ele>10.45</ele>
        <time>2023-06-10T16:08:25.586Z</time>
      </trkpt>
      <trkpt lat="55.41356426663697" lon="12.212316412478685">
        <ele>10.96</ele>
        <time>2023-06-10T16:08:26.413Z</time>
      </trkpt>
      <trkpt lat="55.41325463913381" lon="12.21239578910172">
        <ele>11.5</ele>
        <time>2023-06-10T16:08:27.245Z</time>
      </trkpt>
      <trkpt lat="55.413033021613955" lon="12.212452618405223">
        <ele>11.83</ele>
        <time>2023-06-10T16:08:28.080Z</time>
      </trkpt>
      <trkpt lat="55.41272238828242" lon="12.21253216266632">
        <ele>12.22</ele>
        <time>2023-06-10T16:08:28.920Z</time>
      </trkpt>
      <trkpt lat="55.41241183876991" lon="12.21261179074645">
        <ele>12.71</ele>
        <time>2023-06-10T16:08:29.765Z</time>
      </trkpt>
      <trkpt lat="55.4122347291559" lon="12.21265722066164">
        <ele>12.93</ele>
        <time>2023-06-10T16:08:30.613Z</time>
      </trkpt>
      <trkpt lat="55.41183516383171" lon="12.212759563699365">
        <ele>13.34</ele>
        <time>2023-06-10T16:08:31.468Z</time>
      </trkpt>
      <trkpt lat="55.411569038406014" lon="12.212827792391181">
        <ele>13.68</ele>
        <time>2023-06-10T16:08:32.327Z</time>
      </trkpt>
      <trkpt lat="55.41130291298032" lon="12.212896021082997">
        <ele>13.92</ele>
        <time>2023-06-10T16:08:33.190Z</time>
      </trkpt>
      <trkpt lat="55.411214819177985" lon="12.212918568402529">
        <ele>13.96</ele>
        <time>2023-06-10T16:08:34.055Z</time>
      </trkpt>
      <trkpt lat="55.411081379279494" lon="12.212952766567469">
        <ele>13.94</ele>
        <time>2023-06-10T16:08:34.922Z</time>
      </trkpt>
      <trkpt lat="55.41094869375229" lon="12.212986797094345">
        <ele>13.86</ele>
        <time>2023-06-10T16:08:35.791Z</time>
      </trkpt>
      <trkpt lat="55.4108152538538" lon="12.213020995259285">
        <ele>13.72</ele>
        <time>2023-06-10T16:08:36.662Z</time>
      </trkpt>
      <trkpt lat="55.410726238042116" lon="12.213043794035912">
        <ele>13.55</ele>
        <time>2023-06-10T16:08:37.535Z</time>
      </trkpt>
      <trkpt lat="55.41063814423978" lon="12.213066425174475">
        <ele>13.35</ele>
        <time>2023-06-10T16:08:38.409Z</time>
      </trkpt>
      <trkpt lat="55.41041652671993" lon="12.213123170658946">
        <ele>12.81</ele>
        <time>2023-06-10T16:08:39.287Z</time>
      </trkpt>
      <trkpt lat="55.410238578915596" lon="12.2131687682122">
        <ele>12.45</ele>
        <time>2023-06-10T16:08:40.167Z</time>
      </trkpt>
      <trkpt lat="55.41010597720742" lon="12.213202798739076">
        <ele>12.22</ele>
        <time>2023-06-10T16:08:41.050Z</time>
      </trkpt>
      <trkpt lat="55.4099999461323" lon="12.213229956105351">
        <ele>12.1</ele>
        <time>2023-06-10T16:08:41.934Z</time>
      </trkpt>
      <trkpt lat="55.40992995724082" lon="12.213229956105351">
        <ele>12.02</ele>
        <time>2023-06-10T16:08:42.819Z</time>
      </trkpt>
      <trkpt lat="55.40992811322212" lon="12.213229704648256">
        <ele>12.02</ele>
        <time>2023-06-10T16:08:43.705Z</time>
      </trkpt>
      <trkpt lat="55.40972996503115" lon="12.213199948891997">
        <ele>11.97</ele>
        <time>2023-06-10T16:08:44.594Z</time>
      </trkpt>
      <trkpt lat="55.40968998335302" lon="12.213189974427223">
        <ele>11.97</ele>
        <time>2023-06-10T16:08:45.483Z</time>
      </trkpt>
      <trkpt lat="55.4096891451627" lon="12.213189555332065">
        <ele>11.97</ele>
        <time>2023-06-10T16:08:46.372Z</time>
      </trkpt>
      <trkpt lat="55.40956014767289" lon="12.213125517591834">
        <ele>12.11</ele>
        <time>2023-06-10T16:08:47.264Z</time>
      </trkpt>
      <trkpt lat="55.40947448462248" lon="12.213083021342754">
        <ele>12.15</ele>
        <time>2023-06-10T16:08:48.157Z</time>
      </trkpt>
      <trkpt lat="55.40938789956272" lon="12.213040105998516">
        <ele>12.13</ele>
        <time>2023-06-10T16:08:49.051Z</time>
      </trkpt>
      <trkpt lat="55.4093022365123" lon="12.212997609749436">
        <ele>12.07</ele>
        <time>2023-06-10T16:08:49.947Z</time>
      </trkpt>
      <trkpt lat="55.40921565145254" lon="12.212954610586166">
        <ele>11.96</ele>
        <time>2023-06-10T16:08:50.844Z</time>
      </trkpt>
      <trkpt lat="55.4091299045831" lon="12.212912114337087">
        <ele>11.83</ele>
        <time>2023-06-10T16:08:51.743Z</time>
      </trkpt>
      <trkpt lat="55.40904424153268" lon="12.212869618088007">
        <ele>11.67</ele>
        <time>2023-06-10T16:08:52.643Z</time>
      </trkpt>
      <trkpt lat="55.40895765647292" lon="12.212826618924737">
        <ele>11.47</ele>
        <time>2023-06-10T16:08:53.545Z</time>
      </trkpt>
      <trkpt lat="55.408657332882285" lon="12.212677588686347">
        <ele>10.69</ele>
        <time>2023-06-10T16:08:54.452Z</time>
      </trkpt>
      <trkpt lat="55.40857074782252" lon="12.212634673342109">
        <ele>10.49</ele>
        <time>2023-06-10T16:08:55.360Z</time>
      </trkpt>
      <trkpt lat="55.4083560872823" lon="12.212528139352798">
        <ele>10.1</ele>
        <time>2023-06-10T16:08:56.272Z</time>
      </trkpt>
      <trkpt lat="55.40809809230268" lon="12.212400147691369">
        <ele>9.59</ele>
        <time>2023-06-10T16:08:57.188Z</time>
      </trkpt>
      <trkpt lat="55.40762459859252" lon="12.21216520294547">
        <ele>8.39</ele>
        <time>2023-06-10T16:08:58.112Z</time>
      </trkpt>
      <trkpt lat="55.40753893554211" lon="12.212122706696391">
        <ele>8.2</ele>
        <time>2023-06-10T16:08:59.037Z</time>
      </trkpt>
      <trkpt lat="55.40745318867266" lon="12.212080210447311">
        <ele>8.05</ele>
        <time>2023-06-10T16:08:59.964Z</time>
      </trkpt>
      <trkpt lat="55.4074099380523" lon="12.21205866895616">
        <ele>8.01</ele>
        <time>2023-06-10T16:09:00.891Z</time>
      </trkpt>
      <trkpt lat="55.40732419118285" lon="12.21201617270708">
        <ele>7.99</ele>
        <time>2023-06-10T16:09:01.820Z</time>
      </trkpt>
      <trkpt lat="55.40723768994212" lon="12.211973257362843">
        <ele>8.04</ele>
        <time>2023-06-10T16:09:02.750Z</time>
      </trkpt>
      <trkpt lat="55.40719527751207" lon="12.211952218785882">
        <ele>8.08</ele>
        <time>2023-06-10T16:09:03.681Z</time>
      </trkpt>
      <trkpt lat="55.40710869245231" lon="12.211909219622612">
        <ele>8.2</ele>
        <time>2023-06-10T16:09:04.613Z</time>
      </trkpt>
      <trkpt lat="55.40708991698921" lon="12.211899999529123">
        <ele>8.23</ele>
        <time>2023-06-10T16:09:05.546Z</time>
      </trkpt>
      <trkpt lat="55.40697801858187" lon="12.211856916546822">
        <ele>8.47</ele>
        <time>2023-06-10T16:09:06.480Z</time>
      </trkpt>
      <trkpt lat="55.40695999749005" lon="12.21184995956719">
        <ele>8.51</ele>
        <time>2023-06-10T16:09:07.415Z</time>
      </trkpt>
      <trkpt lat="55.406889505684376" lon="12.21184409223497">
        <ele>8.7</ele>
        <time>2023-06-10T16:09:08.351Z</time>
      </trkpt>
      <trkpt lat="55.40683996863663" lon="12.211839985102415">
        <ele>8.83</ele>
        <time>2023-06-10T16:09:09.288Z</time>
      </trkpt>
      <trkpt lat="55.40683996863663" lon="12.211839985102415">
        <ele>8.83</ele>
        <time>2023-06-10T16:09:10.225Z</time>
      </trkpt>
      <trkpt lat="55.40675623342395" lon="12.211858928203583">
        <ele>9.15</ele>
        <time>2023-06-10T16:09:11.163Z</time>
      </trkpt>
      <trkpt lat="55.40649044327438" lon="12.211919110268354">
        <ele>10.27</ele>
        <time>2023-06-10T16:09:12.105Z</time>
      </trkpt>
      <trkpt lat="55.40635750629008" lon="12.21194920130074">
        <ele>10.76</ele>
        <time>2023-06-10T16:09:13.050Z</time>
      </trkpt>
      <trkpt lat="55.40626832284033" lon="12.211969401687384">
        <ele>11.05</ele>
        <time>2023-06-10T16:09:13.996Z</time>
      </trkpt>
      <trkpt lat="55.406135469675064" lon="12.21199949271977">
        <ele>11.42</ele>
        <time>2023-06-10T16:09:14.944Z</time>
      </trkpt>
      <trkpt lat="55.406047124415636" lon="12.212019441649318">
        <ele>11.63</ele>
        <time>2023-06-10T16:09:15.894Z</time>
      </trkpt>
      <trkpt lat="55.40595886297524" lon="12.212039474397898">
        <ele>11.79</ele>
        <time>2023-06-10T16:09:16.845Z</time>
      </trkpt>
      <trkpt lat="55.40586959570646" lon="12.212059674784541">
        <ele>11.88</ele>
        <time>2023-06-10T16:09:17.797Z</time>
      </trkpt>
      <trkpt lat="55.40569298900664" lon="12.21209965646267">
        <ele>11.96</ele>
        <time>2023-06-10T16:09:18.752Z</time>
      </trkpt>
      <trkpt lat="55.405338015407324" lon="12.212180038914084">
        <ele>12.17</ele>
        <time>2023-06-10T16:09:19.713Z</time>
      </trkpt>
      <trkpt lat="55.40524992160499" lon="12.212199987843633">
        <ele>12.24</ele>
        <time>2023-06-10T16:09:20.675Z</time>
      </trkpt>
      <trkpt lat="55.405149925500154" lon="12.212249943986535">
        <ele>12.34</ele>
        <time>2023-06-10T16:09:21.639Z</time>
      </trkpt>
      <trkpt lat="55.405084462836385" lon="12.212315406650305">
        <ele>12.41</ele>
        <time>2023-06-10T16:09:22.604Z</time>
      </trkpt>
      <trkpt lat="55.4050699621439" lon="12.212329991161823">
        <ele>12.41</ele>
        <time>2023-06-10T16:09:23.570Z</time>
      </trkpt>
      <trkpt lat="55.40501246228814" lon="12.212407188490033">
        <ele>12.46</ele>
        <time>2023-06-10T16:09:24.537Z</time>
      </trkpt>
      <trkpt lat="55.40487022139132" lon="12.212598463520408">
        <ele>12.49</ele>
        <time>2023-06-10T16:09:25.507Z</time>
      </trkpt>
      <trkpt lat="55.40462136268616" lon="12.21293281763792">
        <ele>12.57</ele>
        <time>2023-06-10T16:09:26.482Z</time>
      </trkpt>
      <trkpt lat="55.40455061942339" lon="12.213027952238917">
        <ele>12.57</ele>
        <time>2023-06-10T16:09:27.458Z</time>
      </trkpt>
      <trkpt lat="55.40437334217131" lon="12.213266249746084">
        <ele>12.51</ele>
        <time>2023-06-10T16:09:28.438Z</time>
      </trkpt>
      <trkpt lat="55.404266808182" lon="12.213409412652254">
        <ele>12.53</ele>
        <time>2023-06-10T16:09:29.420Z</time>
      </trkpt>
      <trkpt lat="55.40395651012659" lon="12.213826412335038">
        <ele>12.71</ele>
        <time>2023-06-10T16:09:30.408Z</time>
      </trkpt>
      <trkpt lat="55.403819968923926" lon="12.214009976014495">
        <ele>12.81</ele>
        <time>2023-06-10T16:09:31.399Z</time>
      </trkpt>
      <trkpt lat="55.40381921455264" lon="12.214010814204812">
        <ele>12.81</ele>
        <time>2023-06-10T16:09:32.390Z</time>
      </trkpt>
      <trkpt lat="55.40370723232627" lon="12.214137632399797">
        <ele>12.94</ele>
        <time>2023-06-10T16:09:33.383Z</time>
      </trkpt>
      <trkpt lat="55.403669932857156" lon="12.214179961010814">
        <ele>12.97</ele>
        <time>2023-06-10T16:09:34.377Z</time>
      </trkpt>
      <trkpt lat="55.403587790206075" lon="12.214234694838524">
        <ele>13.03</ele>
        <time>2023-06-10T16:09:35.372Z</time>
      </trkpt>
      <trkpt lat="55.4035053960979" lon="12.21428968012333">
        <ele>13.06</ele>
        <time>2023-06-10T16:09:36.368Z</time>
      </trkpt>
      <trkpt lat="55.40348997339606" lon="12.21429998986423">
        <ele>13.06</ele>
        <time>2023-06-10T16:09:37.365Z</time>
      </trkpt>
      <trkpt lat="55.40337991900742" lon="12.214339971542358">
        <ele>13.07</ele>
        <time>2023-06-10T16:09:38.364Z</time>
      </trkpt>
      <trkpt lat="55.403376650065184" lon="12.214340809732676">
        <ele>13.07</ele>
        <time>2023-06-10T16:09:39.363Z</time>
      </trkpt>
      <trkpt lat="55.403299955651164" lon="12.214359920471907">
        <ele>13.1</ele>
        <time>2023-06-10T16:09:40.363Z</time>
      </trkpt>
      <trkpt lat="55.4032064974308" lon="12.214359920471907">
        <ele>13.14</ele>
        <time>2023-06-10T16:09:41.364Z</time>
      </trkpt>
      <trkpt lat="55.40264993906021" lon="12.214359920471907">
        <ele>13.28</ele>
        <time>2023-06-10T16:09:42.374Z</time>
      </trkpt>
      <trkpt lat="55.40246997959912" lon="12.214319938793778">
        <ele>13.33</ele>
        <time>2023-06-10T16:09:43.387Z</time>
      </trkpt>
      <trkpt lat="55.402441481128335" lon="12.214295044541359">
        <ele>13.34</ele>
        <time>2023-06-10T16:09:44.401Z</time>
      </trkpt>
      <trkpt lat="55.40230996906757" lon="12.214179961010814">
        <ele>13.33</ele>
        <time>2023-06-10T16:09:45.417Z</time>
      </trkpt>
      <trkpt lat="55.402229921892285" lon="12.214049957692623">
        <ele>13.33</ele>
        <time>2023-06-10T16:09:46.435Z</time>
      </trkpt>
      <trkpt lat="55.40222832933068" lon="12.214046772569418">
        <ele>13.33</ele>
        <time>2023-06-10T16:09:47.453Z</time>
      </trkpt>
      <trkpt lat="55.40208994410932" lon="12.213769918307662">
        <ele>13.27</ele>
        <time>2023-06-10T16:09:48.474Z</time>
      </trkpt>
      <trkpt lat="55.40188995189965" lon="12.213629940524697">
        <ele>13.21</ele>
        <time>2023-06-10T16:09:49.499Z</time>
      </trkpt>
      <trkpt lat="55.4018787201494" lon="12.213625498116016">
        <ele>13.21</ele>
        <time>2023-06-10T16:09:50.524Z</time>
      </trkpt>
      <trkpt lat="55.401708483695984" lon="12.213557856157422">
        <ele>13.22</ele>
        <time>2023-06-10T16:09:51.552Z</time>
      </trkpt>
      <trkpt lat="55.40162340737879" lon="12.21352407708764">
        <ele>13.26</ele>
        <time>2023-06-10T16:09:52.581Z</time>
      </trkpt>
      <trkpt lat="55.40153916925192" lon="12.213490633293986">
        <ele>13.33</ele>
        <time>2023-06-10T16:09:53.611Z</time>
      </trkpt>
      <trkpt lat="55.401240941137075" lon="12.21337211318314">
        <ele>13.64</ele>
        <time>2023-06-10T16:09:54.646Z</time>
      </trkpt>
      <trkpt lat="55.40115997195244" lon="12.213339926674962">
        <ele>13.7</ele>
        <time>2023-06-10T16:09:55.683Z</time>
      </trkpt>
      <trkpt lat="55.40115997195244" lon="12.212732238695025">
        <ele>13.96</ele>
        <time>2023-06-10T16:09:56.725Z</time>
      </trkpt>
      <trkpt lat="55.40115997195244" lon="12.21228246577084">
        <ele>14.19</ele>
        <time>2023-06-10T16:09:57.771Z</time>
      </trkpt>
      <trkpt lat="55.40115997195244" lon="12.211911818012595">
        <ele>14.31</ele>
        <time>2023-06-10T16:09:58.821Z</time>
      </trkpt>
      <trkpt lat="55.40115997195244" lon="12.211764547973871">
        <ele>14.34</ele>
        <time>2023-06-10T16:09:59.872Z</time>
      </trkpt>
      <trkpt lat="55.40115997195244" lon="12.211468331515789">
        <ele>14.37</ele>
        <time>2023-06-10T16:10:00.926Z</time>
      </trkpt>
      <trkpt lat="55.40115997195244" lon="12.21068998798728">
        <ele>14.37</ele>
        <time>2023-06-10T16:10:01.987Z</time>
      </trkpt>
      <trkpt lat="55.40113993920386" lon="12.210629973560572">
        <ele>14.38</ele>
        <time>2023-06-10T16:10:03.048Z</time>
      </trkpt>
      <trkpt lat="55.40113993920386" lon="12.210629973560572">
        <ele>14.38</ele>
        <time>2023-06-10T16:10:04.109Z</time>
      </trkpt>
      <trkpt lat="55.401069950312376" lon="12.210589991882443">
        <ele>14.35</ele>
        <time>2023-06-10T16:10:05.172Z</time>
      </trkpt>
      <trkpt lat="55.40096936747432" lon="12.21055705100298">
        <ele>14.33</ele>
        <time>2023-06-10T16:10:06.236Z</time>
      </trkpt>
      <trkpt lat="55.400751857087016" lon="12.210485888645053">
        <ele>14.4</ele>
        <time>2023-06-10T16:10:07.304Z</time>
      </trkpt>
      <trkpt lat="55.400534346699715" lon="12.210414642468095">
        <ele>14.4</ele>
        <time>2023-06-10T16:10:08.375Z</time>
      </trkpt>
      <trkpt lat="55.400273501873016" lon="12.210329314693809">
        <ele>14.5</ele>
        <time>2023-06-10T16:10:09.451Z</time>
      </trkpt>
      <trkpt lat="55.40009932592511" lon="12.210272317752242">
        <ele>14.61</ele>
        <time>2023-06-10T16:10:10.529Z</time>
      </trkpt>
      <trkpt lat="55.399969993159175" lon="12.210229989141226">
        <ele>14.67</ele>
        <time>2023-06-10T16:10:11.610Z</time>
      </trkpt>
      <trkpt lat="55.39997024461627" lon="12.210227306932211">
        <ele>14.67</ele>
        <time>2023-06-10T16:10:12.691Z</time>
      </trkpt>
      <trkpt lat="55.40000117383897" lon="12.209924971684813">
        <ele>14.49</ele>
        <time>2023-06-10T16:10:13.774Z</time>
      </trkpt>
      <trkpt lat="55.40002447552979" lon="12.209697403013706">
        <ele>14.43</ele>
        <time>2023-06-10T16:10:14.859Z</time>
      </trkpt>
      <trkpt lat="55.400078957900405" lon="12.209165906533599">
        <ele>14.47</ele>
        <time>2023-06-10T16:10:15.949Z</time>
      </trkpt>
      <trkpt lat="55.40011776611209" lon="12.208787212148309">
        <ele>14.46</ele>
        <time>2023-06-10T16:10:17.043Z</time>
      </trkpt>
      <trkpt lat="55.400141067802906" lon="12.208559643477201">
        <ele>14.49</ele>
        <time>2023-06-10T16:10:18.139Z</time>
      </trkpt>
      <trkpt lat="55.40016470476985" lon="12.20832897350192">
        <ele>14.36</ele>
        <time>2023-06-10T16:10:19.237Z</time>
      </trkpt>
      <trkpt lat="55.40018046274781" lon="12.208174662664533">
        <ele>14.31</ele>
        <time>2023-06-10T16:10:20.337Z</time>
      </trkpt>
      <trkpt lat="55.400188425555825" lon="12.208096710965037">
        <ele>14.31</ele>
        <time>2023-06-10T16:10:21.437Z</time>
      </trkpt>
      <trkpt lat="55.40021206252277" lon="12.207866040989757">
        <ele>14.37</ele>
        <time>2023-06-10T16:10:22.539Z</time>
      </trkpt>
      <trkpt lat="55.40022790431976" lon="12.207711730152369">
        <ele>14.46</ele>
        <time>2023-06-10T16:10:23.643Z</time>
      </trkpt>
      <trkpt lat="55.400243662297726" lon="12.20755741931498">
        <ele>14.58</ele>
        <time>2023-06-10T16:10:24.748Z</time>
      </trkpt>
      <trkpt lat="55.40027526207268" lon="12.207248881459236">
        <ele>14.89</ele>
        <time>2023-06-10T16:10:25.856Z</time>
      </trkpt>
      <trkpt lat="55.40029906667769" lon="12.207016618922353">
        <ele>15.17</ele>
        <time>2023-06-10T16:10:26.966Z</time>
      </trkpt>
      <trkpt lat="55.40034994482994" lon="12.206519991159439">
        <ele>15.88</ele>
        <time>2023-06-10T16:10:28.081Z</time>
      </trkpt>
      <trkpt lat="55.400358410552144" lon="12.20624104142189">
        <ele>16.28</ele>
        <time>2023-06-10T16:10:29.198Z</time>
      </trkpt>
      <trkpt lat="55.400375006720424" lon="12.205693870782852">
        <ele>17.02</ele>
        <time>2023-06-10T16:10:30.320Z</time>
      </trkpt>
      <trkpt lat="55.40038690902293" lon="12.205301681533456">
        <ele>17.44</ele>
        <time>2023-06-10T16:10:31.446Z</time>
      </trkpt>
      <trkpt lat="55.4003916028887" lon="12.205145107582211">
        <ele>17.57</ele>
        <time>2023-06-10T16:10:32.573Z</time>
      </trkpt>
      <trkpt lat="55.40040107443929" lon="12.204831959679723">
        <ele>17.72</ele>
        <time>2023-06-10T16:10:33.703Z</time>
      </trkpt>
      <trkpt lat="55.400405852124095" lon="12.204675385728478">
        <ele>17.75</ele>
        <time>2023-06-10T16:10:34.835Z</time>
      </trkpt>
      <trkpt lat="55.400408282876015" lon="12.204596260562539">
        <ele>17.74</ele>
        <time>2023-06-10T16:10:35.968Z</time>
      </trkpt>
      <trkpt lat="55.40041297674179" lon="12.204439770430326">
        <ele>17.68</ele>
        <time>2023-06-10T16:10:37.102Z</time>
      </trkpt>
      <trkpt lat="55.40041993372142" lon="12.204209938645363">
        <ele>17.52</ele>
        <time>2023-06-10T16:10:38.238Z</time>
      </trkpt>
      <trkpt lat="55.4004175029695" lon="12.204209519550204">
        <ele>17.52</ele>
        <time>2023-06-10T16:10:39.374Z</time>
      </trkpt>
      <trkpt lat="55.40024056099355" lon="12.20417465083301">
        <ele>17.15</ele>
        <time>2023-06-10T16:10:40.513Z</time>
      </trkpt>
      <trkpt lat="55.400151209905744" lon="12.20415704883635">
        <ele>17.02</ele>
        <time>2023-06-10T16:10:41.653Z</time>
      </trkpt>
      <trkpt lat="55.40010653436184" lon="12.20414824783802">
        <ele>16.98</ele>
        <time>2023-06-10T16:10:42.794Z</time>
      </trkpt>
      <trkpt lat="55.40001802146435" lon="12.204130813479424">
        <ele>16.96</ele>
        <time>2023-06-10T16:10:43.937Z</time>
      </trkpt>
      <trkpt lat="55.399929508566856" lon="12.204113379120827">
        <ele>17.0</ele>
        <time>2023-06-10T16:10:45.081Z</time>
      </trkpt>
      <trkpt lat="55.39984015747905" lon="12.204095777124166">
        <ele>17.1</ele>
        <time>2023-06-10T16:10:46.226Z</time>
      </trkpt>
      <trkpt lat="55.39975172840059" lon="12.204078426584601">
        <ele>17.27</ele>
        <time>2023-06-10T16:10:47.373Z</time>
      </trkpt>
      <trkpt lat="55.39966229349375" lon="12.204060824587941">
        <ele>17.51</ele>
        <time>2023-06-10T16:10:48.521Z</time>
      </trkpt>
      <trkpt lat="55.39944067597389" lon="12.204017154872417">
        <ele>18.19</ele>
        <time>2023-06-10T16:10:49.673Z</time>
      </trkpt>
      <trkpt lat="55.3993074875325" lon="12.20399091951549">
        <ele>18.5</ele>
        <time>2023-06-10T16:10:50.827Z</time>
      </trkpt>
      <trkpt lat="55.39904027245939" lon="12.203938281163573">
        <ele>18.97</ele>
        <time>2023-06-10T16:10:51.985Z</time>
      </trkpt>
      <trkpt lat="55.398951759561896" lon="12.203920930624008">
        <ele>19.07</ele>
        <time>2023-06-10T16:10:53.145Z</time>
      </trkpt>
      <trkpt lat="55.39886240847409" lon="12.203903328627348">
        <ele>19.11</ele>
        <time>2023-06-10T16:10:54.306Z</time>
      </trkpt>
      <trkpt lat="55.398773895576596" lon="12.203885894268751">
        <ele>19.08</ele>
        <time>2023-06-10T16:10:55.469Z</time>
      </trkpt>
      <trkpt lat="55.39868546649814" lon="12.203868459910154">
        <ele>18.99</ele>
        <time>2023-06-10T16:10:56.633Z</time>
      </trkpt>
      <trkpt lat="55.398596031591296" lon="12.203850857913494">
        <ele>18.85</ele>
        <time>2023-06-10T16:10:57.798Z</time>
      </trkpt>
      <trkpt lat="55.398329738527536" lon="12.20379838719964">
        <ele>18.35</ele>
        <time>2023-06-10T16:10:58.968Z</time>
      </trkpt>
      <trkpt lat="55.39824038743973" lon="12.203780869022012">
        <ele>18.22</ele>
        <time>2023-06-10T16:11:00.139Z</time>
      </trkpt>
      <trkpt lat="55.398151874542236" lon="12.203763434663415">
        <ele>18.13</ele>
        <time>2023-06-10T16:11:01.312Z</time>
      </trkpt>
      <trkpt lat="55.39784082211554" lon="12.203702162951231">
        <ele>17.9</ele>
        <time>2023-06-10T16:11:02.490Z</time>
      </trkpt>
      <trkpt lat="55.39748509414494" lon="12.203632174059749">
        <ele>17.59</ele>
        <time>2023-06-10T16:11:03.673Z</time>
      </trkpt>
      <trkpt lat="55.397351989522576" lon="12.203605938702822">
        <ele>17.49</ele>
        <time>2023-06-10T16:11:04.859Z</time>
      </trkpt>
      <trkpt lat="55.39704093709588" lon="12.203544666990638">
        <ele>17.32</ele>
        <time>2023-06-10T16:11:06.050Z</time>
      </trkpt>
      <trkpt lat="55.396819319576025" lon="12.203501081094146">
        <ele>17.24</ele>
        <time>2023-06-10T16:11:07.244Z</time>
      </trkpt>
      <trkpt lat="55.396729884669185" lon="12.203483479097486">
        <ele>17.18</ele>
        <time>2023-06-10T16:11:08.440Z</time>
      </trkpt>
      <trkpt lat="55.396463591605425" lon="12.203431008383632">
        <ele>16.88</ele>
        <time>2023-06-10T16:11:09.640Z</time>
      </trkpt>
      <trkpt lat="55.39633040316403" lon="12.203404773026705">
        <ele>16.79</ele>
        <time>2023-06-10T16:11:10.842Z</time>
      </trkpt>
      <trkpt lat="55.39624105207622" lon="12.203387171030045">
        <ele>16.79</ele>
        <time>2023-06-10T16:11:12.045Z</time>
      </trkpt>
      <trkpt lat="55.39615253917873" lon="12.203369736671448">
        <ele>16.85</ele>
        <time>2023-06-10T16:11:13.250Z</time>
      </trkpt>
      <trkpt lat="55.39606318809092" lon="12.203352134674788">
        <ele>16.99</ele>
        <time>2023-06-10T16:11:14.456Z</time>
      </trkpt>
      <trkpt lat="55.395929999649525" lon="12.203325983136892">
        <ele>17.27</ele>
        <time>2023-06-10T16:11:15.664Z</time>
      </trkpt>
      <trkpt lat="55.39584148675203" lon="12.203308548778296">
        <ele>17.43</ele>
        <time>2023-06-10T16:11:16.874Z</time>
      </trkpt>
      <trkpt lat="55.395752135664225" lon="12.203290946781635">
        <ele>17.54</ele>
        <time>2023-06-10T16:11:18.085Z</time>
      </trkpt>
      <trkpt lat="55.39566362276673" lon="12.203273512423038">
        <ele>17.59</ele>
        <time>2023-06-10T16:11:19.298Z</time>
      </trkpt>
      <trkpt lat="55.39544108323753" lon="12.203229675069451">
        <ele>17.61</ele>
        <time>2023-06-10T16:11:20.514Z</time>
      </trkpt>
      <trkpt lat="55.39499692618847" lon="12.203142251819372">
        <ele>17.54</ele>
        <time>2023-06-10T16:11:21.738Z</time>
      </trkpt>
      <trkpt lat="55.39486373774707" lon="12.203116016462445">
        <ele>17.46</ele>
        <time>2023-06-10T16:11:22.964Z</time>
      </trkpt>
      <trkpt lat="55.39468587376177" lon="12.203080980107188">
        <ele>17.28</ele>
        <time>2023-06-10T16:11:24.193Z</time>
      </trkpt>
      <trkpt lat="55.39459744468331" lon="12.203063629567623">
        <ele>17.24</ele>
        <time>2023-06-10T16:11:25.423Z</time>
      </trkpt>
      <trkpt lat="55.39450800977647" lon="12.203046027570963">
        <ele>17.24</ele>
        <time>2023-06-10T16:11:26.654Z</time>
      </trkpt>
      <trkpt lat="55.39410852827132" lon="12.202967321500182">
        <ele>17.39</ele>
        <time>2023-06-10T16:11:27.892Z</time>
      </trkpt>
      <trkpt lat="55.394020015373826" lon="12.202949887141585">
        <ele>17.46</ele>
        <time>2023-06-10T16:11:29.131Z</time>
      </trkpt>
      <trkpt lat="55.39393066428602" lon="12.202932285144925">
        <ele>17.59</ele>
        <time>2023-06-10T16:11:30.372Z</time>
      </trkpt>
      <trkpt lat="55.39388598874211" lon="12.202923484146595">
        <ele>17.69</ele>
        <time>2023-06-10T16:11:31.613Z</time>
      </trkpt>
      <trkpt lat="55.393842151388526" lon="12.20291493460536">
        <ele>17.81</ele>
        <time>2023-06-10T16:11:32.855Z</time>
      </trkpt>
      <trkpt lat="55.39375280030072" lon="12.2028973326087">
        <ele>18.11</ele>
        <time>2023-06-10T16:11:34.099Z</time>
      </trkpt>
      <trkpt lat="55.39370988495648" lon="12.202888866886497">
        <ele>18.28</ele>
        <time>2023-06-10T16:11:35.343Z</time>
      </trkpt>
      <trkpt lat="55.39362053386867" lon="12.202871264889836">
        <ele>18.67</ele>
        <time>2023-06-10T16:11:36.589Z</time>
      </trkpt>
      <trkpt lat="55.39353118278086" lon="12.202853662893176">
        <ele>19.1</ele>
        <time>2023-06-10T16:11:37.836Z</time>
      </trkpt>
      <trkpt lat="55.393487345427275" lon="12.20284502953291">
        <ele>19.34</ele>
        <time>2023-06-10T16:11:39.084Z</time>
      </trkpt>
      <trkpt lat="55.39335994049907" lon="12.202819967642426">
        <ele>20.13</ele>
        <time>2023-06-10T16:11:40.334Z</time>
      </trkpt>
      <trkpt lat="55.39335331879556" lon="12.202818877995014">
        <ele>20.13</ele>
        <time>2023-06-10T16:11:41.584Z</time>
      </trkpt>
      <trkpt lat="55.39322080090642" lon="12.202796833589673">
        <ele>20.5</ele>
        <time>2023-06-10T16:11:42.836Z</time>
      </trkpt>
      <trkpt lat="55.39308736100793" lon="12.202774621546268">
        <ele>20.85</ele>
        <time>2023-06-10T16:11:44.090Z</time>
      </trkpt>
      <trkpt lat="55.39295400492847" lon="12.202752493321896">
        <ele>21.17</ele>
        <time>2023-06-10T16:11:45.346Z</time>
      </trkpt>
      <trkpt lat="55.392731968313456" lon="12.202715529128909">
        <ele>21.67</ele>
        <time>2023-06-10T16:11:46.606Z</time>
      </trkpt>
      <trkpt lat="55.39255376905203" lon="12.202685941010714">
        <ele>22.1</ele>
        <time>2023-06-10T16:11:47.869Z</time>
      </trkpt>
      <trkpt lat="55.392465088516474" lon="12.202671188861132">
        <ele>22.28</ele>
        <time>2023-06-10T16:11:49.133Z</time>
      </trkpt>
      <trkpt lat="55.39242032915354" lon="12.202663728967309">
        <ele>22.34</ele>
        <time>2023-06-10T16:11:50.398Z</time>
      </trkpt>
      <trkpt lat="55.39237649179995" lon="12.20265643671155">
        <ele>22.38</ele>
        <time>2023-06-10T16:11:51.664Z</time>
      </trkpt>
      <trkpt lat="55.39228697307408" lon="12.202641600742936">
        <ele>22.42</ele>
        <time>2023-06-10T16:11:52.931Z</time>
      </trkpt>
      <trkpt lat="55.39202017709613" lon="12.202597176656127">
        <ele>22.43</ele>
        <time>2023-06-10T16:11:54.203Z</time>
      </trkpt>
      <trkpt lat="55.39170945994556" lon="12.20254554413259">
        <ele>22.52</ele>
        <time>2023-06-10T16:11:55.480Z</time>
      </trkpt>
      <trkpt lat="55.39157602004707" lon="12.202523332089186">
        <ele>22.53</ele>
        <time>2023-06-10T16:11:56.759Z</time>
      </trkpt>
      <trkpt lat="55.391353983432055" lon="12.202486451715231">
        <ele>22.49</ele>
        <time>2023-06-10T16:11:58.041Z</time>
      </trkpt>
      <trkpt lat="55.39126538671553" lon="12.202471699565649">
        <ele>22.43</ele>
        <time>2023-06-10T16:11:59.325Z</time>
      </trkpt>
      <trkpt lat="55.391220627352595" lon="12.202464239671826">
        <ele>22.38</ele>
        <time>2023-06-10T16:12:00.609Z</time>
      </trkpt>
      <trkpt lat="55.39117586798966" lon="12.202456863597035">
        <ele>22.3</ele>
        <time>2023-06-10T16:12:01.894Z</time>
      </trkpt>
      <trkpt lat="55.39113194681704" lon="12.202449571341276">
        <ele>22.2</ele>
        <time>2023-06-10T16:12:03.180Z</time>
      </trkpt>
      <trkpt lat="55.391087187454104" lon="12.202442111447453">
        <ele>22.07</ele>
        <time>2023-06-10T16:12:04.467Z</time>
      </trkpt>
      <trkpt lat="55.39104242809117" lon="12.20243465155363">
        <ele>21.9</ele>
        <time>2023-06-10T16:12:05.754Z</time>
      </trkpt>
      <trkpt lat="55.390909910202026" lon="12.20241260714829">
        <ele>21.31</ele>
        <time>2023-06-10T16:12:07.043Z</time>
      </trkpt>
      <trkpt lat="55.390820391476154" lon="12.202397771179676">
        <ele>20.93</ele>
        <time>2023-06-10T16:12:08.334Z</time>
      </trkpt>
      <trkpt lat="55.3907317109406" lon="12.202383019030094">
        <ele>20.61</ele>
        <time>2023-06-10T16:12:09.626Z</time>
      </trkpt>
      <trkpt lat="55.39068695157766" lon="12.202375559136271">
        <ele>20.48</ele>
        <time>2023-06-10T16:12:10.919Z</time>
      </trkpt>
      <trkpt lat="55.390644036233425" lon="12.202368434518576">
        <ele>20.38</ele>
        <time>2023-06-10T16:12:12.213Z</time>
      </trkpt>
      <trkpt lat="55.39055443368852" lon="12.20235351473093">
        <ele>20.22</ele>
        <time>2023-06-10T16:12:13.508Z</time>
      </trkpt>
      <trkpt lat="55.390510596334934" lon="12.202346222475171">
        <ele>20.17</ele>
        <time>2023-06-10T16:12:14.804Z</time>
      </trkpt>
      <trkpt lat="55.39042107760906" lon="12.202331302687526">
        <ele>20.11</ele>
        <time>2023-06-10T16:12:16.101Z</time>
      </trkpt>
      <trkpt lat="55.39033155888319" lon="12.202316466718912">
        <ele>20.1</ele>
        <time>2023-06-10T16:12:17.400Z</time>
      </trkpt>
      <trkpt lat="55.390242878347635" lon="12.20230171456933">
        <ele>20.14</ele>
        <time>2023-06-10T16:12:18.700Z</time>
      </trkpt>
      <trkpt lat="55.39015428163111" lon="12.202286962419748">
        <ele>20.25</ele>
        <time>2023-06-10T16:12:20.002Z</time>
      </trkpt>
      <trkpt lat="55.390109522268176" lon="12.202279502525926">
        <ele>20.33</ele>
        <time>2023-06-10T16:12:21.304Z</time>
      </trkpt>
      <trkpt lat="55.39006467908621" lon="12.202272126451135">
        <ele>20.43</ele>
        <time>2023-06-10T16:12:22.607Z</time>
      </trkpt>
      <trkpt lat="55.389976082369685" lon="12.202257374301553">
        <ele>20.7</ele>
        <time>2023-06-10T16:12:23.911Z</time>
      </trkpt>
      <trkpt lat="55.38979880511761" lon="12.202227870002389">
        <ele>21.35</ele>
        <time>2023-06-10T16:12:25.218Z</time>
      </trkpt>
      <trkpt lat="55.389709286391735" lon="12.202213034033775">
        <ele>21.63</ele>
        <time>2023-06-10T16:12:26.527Z</time>
      </trkpt>
      <trkpt lat="55.389665365219116" lon="12.202205741778016">
        <ele>21.73</ele>
        <time>2023-06-10T16:12:27.836Z</time>
      </trkpt>
      <trkpt lat="55.38962060585618" lon="12.202198281884193">
        <ele>21.81</ele>
        <time>2023-06-10T16:12:29.146Z</time>
      </trkpt>
      <trkpt lat="55.389575846493244" lon="12.20219082199037">
        <ele>21.86</ele>
        <time>2023-06-10T16:12:30.457Z</time>
      </trkpt>
      <trkpt lat="55.38953200913966" lon="12.202183529734612">
        <ele>21.88</ele>
        <time>2023-06-10T16:12:31.769Z</time>
      </trkpt>
      <trkpt lat="55.38948724977672" lon="12.202176069840789">
        <ele>21.86</ele>
        <time>2023-06-10T16:12:33.081Z</time>
      </trkpt>
      <trkpt lat="55.3894433286041" lon="12.20216877758503">
        <ele>21.82</ele>
        <time>2023-06-10T16:12:34.394Z</time>
      </trkpt>
      <trkpt lat="55.389269990846515" lon="12.20213994383812">
        <ele>21.52</ele>
        <time>2023-06-10T16:12:35.710Z</time>
      </trkpt>
      <trkpt lat="55.38917611353099" lon="12.20214388333261">
        <ele>21.37</ele>
        <time>2023-06-10T16:12:37.027Z</time>
      </trkpt>
      <trkpt lat="55.38899724371731" lon="12.202151510864496">
        <ele>21.13</ele>
        <time>2023-06-10T16:12:38.347Z</time>
      </trkpt>
      <trkpt lat="55.38890822790563" lon="12.202155282720923">
        <ele>21.08</ele>
        <time>2023-06-10T16:12:39.669Z</time>
      </trkpt>
      <trkpt lat="55.38868526928127" lon="12.202164670452476">
        <ele>21.07</ele>
        <time>2023-06-10T16:12:40.994Z</time>
      </trkpt>
      <trkpt lat="55.38864034228027" lon="12.202166598290205">
        <ele>21.05</ele>
        <time>2023-06-10T16:12:42.320Z</time>
      </trkpt>
      <trkpt lat="55.388559959828854" lon="12.202169951051474">
        <ele>20.98</ele>
        <time>2023-06-10T16:12:43.647Z</time>
      </trkpt>
      <trkpt lat="55.38855132646859" lon="12.202171459794044">
        <ele>20.98</ele>
        <time>2023-06-10T16:12:44.974Z</time>
      </trkpt>
      <trkpt lat="55.388462729752064" lon="12.202186547219753">
        <ele>20.82</ele>
        <time>2023-06-10T16:12:46.303Z</time>
      </trkpt>
      <trkpt lat="55.38828369230032" lon="12.20221714116633">
        <ele>20.45</ele>
        <time>2023-06-10T16:12:47.635Z</time>
      </trkpt>
      <trkpt lat="55.38819417357445" lon="12.202232480049133">
        <ele>20.33</ele>
        <time>2023-06-10T16:12:48.968Z</time>
      </trkpt>
      <trkpt lat="55.38814941421151" lon="12.20224010758102">
        <ele>20.29</ele>
        <time>2023-06-10T16:12:50.302Z</time>
      </trkpt>
      <trkpt lat="55.38805989548564" lon="12.202255446463823">
        <ele>20.27</ele>
        <time>2023-06-10T16:12:51.637Z</time>
      </trkpt>
      <trkpt lat="55.387880858033895" lon="12.2022860404104">
        <ele>20.29</ele>
        <time>2023-06-10T16:12:52.975Z</time>
      </trkpt>
      <trkpt lat="55.38770190440118" lon="12.202316634356976">
        <ele>20.26</ele>
        <time>2023-06-10T16:12:54.316Z</time>
      </trkpt>
      <trkpt lat="55.387567626312375" lon="12.202339600771666">
        <ele>20.3</ele>
        <time>2023-06-10T16:12:55.659Z</time>
      </trkpt>
      <trkpt lat="55.38738858886063" lon="12.202370194718242">
        <ele>20.44</ele>
        <time>2023-06-10T16:12:57.005Z</time>
      </trkpt>
      <trkpt lat="55.38725431077182" lon="12.2023930773139">
        <ele>20.59</ele>
        <time>2023-06-10T16:12:58.353Z</time>
      </trkpt>
      <trkpt lat="55.38698575459421" lon="12.20243901014328">
        <ele>21.01</ele>
        <time>2023-06-10T16:12:59.706Z</time>
      </trkpt>
      <trkpt lat="55.38640396669507" lon="12.202538419514894">
        <ele>21.83</ele>
        <time>2023-06-10T16:13:01.068Z</time>
      </trkpt>
      <trkpt lat="55.3863144479692" lon="12.202553758397698">
        <ele>21.92</ele>
        <time>2023-06-10T16:13:02.431Z</time>
      </trkpt>
      <trkpt lat="55.38604681380093" lon="12.202599439769983">
        <ele>21.98</ele>
        <time>2023-06-10T16:13:03.799Z</time>
      </trkpt>
      <trkpt lat="55.385911613702774" lon="12.202622573822737">
        <ele>22.08</ele>
        <time>2023-06-10T16:13:05.169Z</time>
      </trkpt>
      <trkpt lat="55.3858220949769" lon="12.20263791270554">
        <ele>22.18</ele>
        <time>2023-06-10T16:13:06.540Z</time>
      </trkpt>
      <trkpt lat="55.3858099412173" lon="12.202639924362302">
        <ele>22.19</ele>
        <time>2023-06-10T16:13:07.911Z</time>
      </trkpt>
      <trkpt lat="55.385779179632664" lon="12.202620226889849">
        <ele>22.25</ele>
        <time>2023-06-10T16:13:09.283Z</time>
      </trkpt>
      <trkpt lat="55.385610200464725" lon="12.202511681243777">
        <ele>22.61</ele>
        <time>2023-06-10T16:13:10.658Z</time>
      </trkpt>
      <trkpt lat="55.3854835499078" lon="12.202430292963982">
        <ele>22.8</ele>
        <time>2023-06-10T16:13:12.035Z</time>
      </trkpt>
      <trkpt lat="55.38535681553185" lon="12.202348904684186">
        <ele>22.93</ele>
        <time>2023-06-10T16:13:13.414Z</time>
      </trkpt>
      <trkpt lat="55.385314570739865" lon="12.20232174731791">
        <ele>22.95</ele>
        <time>2023-06-10T16:13:14.794Z</time>
      </trkpt>
      <trkpt lat="55.385230081155896" lon="12.20226751640439">
        <ele>22.95</ele>
        <time>2023-06-10T16:13:16.175Z</time>
      </trkpt>
      <trkpt lat="55.38506110198796" lon="12.202158970758319">
        <ele>22.86</ele>
        <time>2023-06-10T16:13:17.559Z</time>
      </trkpt>
      <trkpt lat="55.38472314365208" lon="12.201941879466176">
        <ele>22.57</ele>
        <time>2023-06-10T16:13:18.949Z</time>
      </trkpt>
      <trkpt lat="55.38463865406811" lon="12.201887648552656">
        <ele>22.41</ele>
        <time>2023-06-10T16:13:20.340Z</time>
      </trkpt>
      <trkpt lat="55.38459640927613" lon="12.20186049118638">
        <ele>22.3</ele>
        <time>2023-06-10T16:13:21.732Z</time>
      </trkpt>
      <trkpt lat="55.38451191969216" lon="12.20180626027286">
        <ele>22.0</ele>
        <time>2023-06-10T16:13:23.126Z</time>
      </trkpt>
      <trkpt lat="55.38442743010819" lon="12.201751945540309">
        <ele>21.58</ele>
        <time>2023-06-10T16:13:24.521Z</time>
      </trkpt>
      <trkpt lat="55.384300695732236" lon="12.201670557260513">
        <ele>20.89</ele>
        <time>2023-06-10T16:13:25.918Z</time>
      </trkpt>
      <trkpt lat="55.3842162899673" lon="12.201616326346993">
        <ele>20.46</ele>
        <time>2023-06-10T16:13:27.317Z</time>
      </trkpt>
      <trkpt lat="55.38413180038333" lon="12.201562011614442">
        <ele>20.09</ele>
        <time>2023-06-10T16:13:28.717Z</time>
      </trkpt>
      <trkpt lat="55.38404731079936" lon="12.201507780700922">
        <ele>19.79</ele>
        <time>2023-06-10T16:13:30.119Z</time>
      </trkpt>
      <trkpt lat="55.38396282121539" lon="12.201453549787402">
        <ele>19.57</ele>
        <time>2023-06-10T16:13:31.522Z</time>
      </trkpt>
      <trkpt lat="55.38392057642341" lon="12.201426392421126">
        <ele>19.48</ele>
        <time>2023-06-10T16:13:32.926Z</time>
      </trkpt>
      <trkpt lat="55.38383608683944" lon="12.201372077688575">
        <ele>19.38</ele>
        <time>2023-06-10T16:13:34.331Z</time>
      </trkpt>
      <trkpt lat="55.38379384204745" lon="12.20134500414133">
        <ele>19.37</ele>
        <time>2023-06-10T16:13:35.737Z</time>
      </trkpt>
      <trkpt lat="55.3836671076715" lon="12.201263615861535">
        <ele>19.4</ele>
        <time>2023-06-10T16:13:37.145Z</time>
      </trkpt>
      <trkpt lat="55.383624862879515" lon="12.20123645849526">
        <ele>19.43</ele>
        <time>2023-06-10T16:13:38.554Z</time>
      </trkpt>
      <trkpt lat="55.383540373295546" lon="12.20118222758174">
        <ele>19.55</ele>
        <time>2023-06-10T16:13:39.964Z</time>
      </trkpt>
      <trkpt lat="55.38341363891959" lon="12.201100755482912">
        <ele>19.79</ele>
        <time>2023-06-10T16:13:41.376Z</time>
      </trkpt>
      <trkpt lat="55.38332914933562" lon="12.201046524569392">
        <ele>19.93</ele>
        <time>2023-06-10T16:13:42.790Z</time>
      </trkpt>
      <trkpt lat="55.383244659751654" lon="12.200992293655872">
        <ele>20.02</ele>
        <time>2023-06-10T16:13:44.205Z</time>
      </trkpt>
      <trkpt lat="55.38320995867252" lon="12.200969997793436">
        <ele>20.04</ele>
        <time>2023-06-10T16:13:45.621Z</time>
      </trkpt>
      <trkpt lat="55.38320191204548" lon="12.200963208451867">
        <ele>20.04</ele>
        <time>2023-06-10T16:13:47.037Z</time>
      </trkpt>
      <trkpt lat="55.38304039277136" lon="12.200827756896615">
        <ele>20.16</ele>
        <time>2023-06-10T16:13:48.456Z</time>
      </trkpt>
      <trkpt lat="55.38283738307655" lon="12.200657520443201">
        <ele>20.4</ele>
        <time>2023-06-10T16:13:49.878Z</time>
      </trkpt>
      <trkpt lat="55.382756162434816" lon="12.200589459389448">
        <ele>20.54</ele>
        <time>2023-06-10T16:13:51.302Z</time>
      </trkpt>
      <trkpt lat="55.382634373381734" lon="12.200487367808819">
        <ele>20.83</ele>
        <time>2023-06-10T16:13:52.728Z</time>
      </trkpt>
      <trkpt lat="55.38251258432865" lon="12.20038527622819">
        <ele>21.22</ele>
        <time>2023-06-10T16:13:54.156Z</time>
      </trkpt>
      <trkpt lat="55.38243144750595" lon="12.200317215174437">
        <ele>21.54</ele>
        <time>2023-06-10T16:13:55.586Z</time>
      </trkpt>
      <trkpt lat="55.38230965845287" lon="12.200215039774776">
        <ele>22.1</ele>
        <time>2023-06-10T16:13:57.018Z</time>
      </trkpt>
      <trkpt lat="55.382228437811136" lon="12.200146978721023">
        <ele>22.52</ele>
        <time>2023-06-10T16:13:58.451Z</time>
      </trkpt>
      <trkpt lat="55.382187869399786" lon="12.200112948194146">
        <ele>22.76</ele>
        <time>2023-06-10T16:13:59.885Z</time>
      </trkpt>
      <trkpt lat="55.382106648758054" lon="12.200044887140393">
        <ele>23.32</ele>
        <time>2023-06-10T16:14:01.320Z</time>
      </trkpt>
      <trkpt lat="55.38198485970497" lon="12.199942795559764">
        <ele>24.26</ele>
        <time>2023-06-10T16:14:02.758Z</time>
      </trkpt>
      <trkpt lat="55.38190992549062" lon="12.199879931285977">
        <ele>24.82</ele>
        <time>2023-06-10T16:14:04.197Z</time>
      </trkpt>
      <trkpt lat="55.38191101513803" lon="12.19986786134541">
        <ele>24.82</ele>
        <time>2023-06-10T16:14:05.636Z</time>
      </trkpt>
      <trkpt lat="55.38193062879145" lon="12.199639286845922">
        <ele>25.01</ele>
        <time>2023-06-10T16:14:07.077Z</time>
      </trkpt>
      <trkpt lat="55.38195015862584" lon="12.199412388727069">
        <ele>25.16</ele>
        <time>2023-06-10T16:14:08.520Z</time>
      </trkpt>
      <trkpt lat="55.38196323439479" lon="12.1992605086416">
        <ele>25.23</ele>
        <time>2023-06-10T16:14:09.965Z</time>
      </trkpt>
      <trkpt lat="55.38198293186724" lon="12.199032017961144">
        <ele>25.24</ele>
        <time>2023-06-10T16:14:11.412Z</time>
      </trkpt>
      <trkpt lat="55.38201562128961" lon="12.19865164719522">
        <ele>25.11</ele>
        <time>2023-06-10T16:14:12.862Z</time>
      </trkpt>
      <trkpt lat="55.382035318762064" lon="12.198423156514764">
        <ele>25.07</ele>
        <time>2023-06-10T16:14:14.314Z</time>
      </trkpt>
      <trkpt lat="55.38204839453101" lon="12.198271360248327">
        <ele>25.09</ele>
        <time>2023-06-10T16:14:15.768Z</time>
      </trkpt>
      <trkpt lat="55.38208100013435" lon="12.197892582044005">
        <ele>25.18</ele>
        <time>2023-06-10T16:14:17.225Z</time>
      </trkpt>
      <trkpt lat="55.38211436010897" lon="12.197504416108131">
        <ele>24.9</ele>
        <time>2023-06-10T16:14:18.686Z</time>
      </trkpt>
      <trkpt lat="55.38212760351598" lon="12.197351027280092">
        <ele>24.82</ele>
        <time>2023-06-10T16:14:20.148Z</time>
      </trkpt>
      <trkpt lat="55.382140930742025" lon="12.19719604589045">
        <ele>24.79</ele>
        <time>2023-06-10T16:14:21.612Z</time>
      </trkpt>
      <trkpt lat="55.382180912420154" lon="12.196731185540557">
        <ele>24.82</ele>
        <time>2023-06-10T16:14:23.080Z</time>
      </trkpt>
      <trkpt lat="55.38219993934035" lon="12.19650998711586">
        <ele>24.79</ele>
        <time>2023-06-10T16:14:24.550Z</time>
      </trkpt>
      <trkpt lat="55.3821939881891" lon="12.19650998711586">
        <ele>24.79</ele>
        <time>2023-06-10T16:14:26.020Z</time>
      </trkpt>
      <trkpt lat="55.382139924913645" lon="12.19650998711586">
        <ele>24.5</ele>
        <time>2023-06-10T16:14:27.491Z</time>
      </trkpt>
      <trkpt lat="55.38210891187191" lon="12.19648509286344">
        <ele>24.32</ele>
        <time>2023-06-10T16:14:28.963Z</time>
      </trkpt>
      <trkpt lat="55.38203992880881" lon="12.196429939940572">
        <ele>23.89</ele>
        <time>2023-06-10T16:14:30.436Z</time>
      </trkpt>
      <trkpt lat="55.382029954344034" lon="12.196414517238736">
        <ele>23.82</ele>
        <time>2023-06-10T16:14:31.909Z</time>
      </trkpt>
      <trkpt lat="55.381929371505976" lon="12.196258697658777">
        <ele>23.04</ele>
        <time>2023-06-10T16:14:33.384Z</time>
      </trkpt>
      <trkpt lat="55.381762655451894" lon="12.19600036740303">
        <ele>21.66</ele>
        <time>2023-06-10T16:14:34.863Z</time>
      </trkpt>
      <trkpt lat="55.381695767864585" lon="12.195896850898862">
        <ele>21.16</ele>
        <time>2023-06-10T16:14:36.343Z</time>
      </trkpt>
      <trkpt lat="55.381662072613835" lon="12.195844547823071">
        <ele>20.93</ele>
        <time>2023-06-10T16:14:37.824Z</time>
      </trkpt>
      <trkpt lat="55.38159518502653" lon="12.195741031318903">
        <ele>20.52</ele>
        <time>2023-06-10T16:14:39.306Z</time>
      </trkpt>
      <trkpt lat="55.381562076509" lon="12.195689734071493">
        <ele>20.34</ele>
        <time>2023-06-10T16:14:40.789Z</time>
      </trkpt>
      <trkpt lat="55.38149527274072" lon="12.195586217567325">
        <ele>20.04</ele>
        <time>2023-06-10T16:14:42.273Z</time>
      </trkpt>
      <trkpt lat="55.381428468972445" lon="12.195482701063156">
        <ele>19.82</ele>
        <time>2023-06-10T16:14:43.759Z</time>
      </trkpt>
      <trkpt lat="55.381361581385136" lon="12.195379184558988">
        <ele>19.65</ele>
        <time>2023-06-10T16:14:45.246Z</time>
      </trkpt>
      <trkpt lat="55.38126099854708" lon="12.195223364979029">
        <ele>19.47</ele>
        <time>2023-06-10T16:14:46.735Z</time>
      </trkpt>
      <trkpt lat="55.38112730719149" lon="12.19501624815166">
        <ele>19.29</ele>
        <time>2023-06-10T16:14:48.227Z</time>
      </trkpt>
      <trkpt lat="55.381019935011864" lon="12.194849951192737">
        <ele>19.17</ele>
        <time>2023-06-10T16:14:49.722Z</time>
      </trkpt>
      <trkpt lat="55.38089998997748" lon="12.194699998944998">
        <ele>19.05</ele>
        <time>2023-06-10T16:14:51.219Z</time>
      </trkpt>
      <trkpt lat="55.38088113069534" lon="12.194683821871877">
        <ele>19.04</ele>
        <time>2023-06-10T16:14:52.716Z</time>
      </trkpt>
      <trkpt lat="55.380801083520055" lon="12.194615174084902">
        <ele>18.91</ele>
        <time>2023-06-10T16:14:54.215Z</time>
      </trkpt>
      <trkpt lat="55.38075992837548" lon="12.194579970091581">
        <ele>18.82</ele>
        <time>2023-06-10T16:14:55.714Z</time>
      </trkpt>
      <trkpt lat="55.380546944215894" lon="12.194473939016461">
        <ele>18.44</ele>
        <time>2023-06-10T16:14:57.217Z</time>
      </trkpt>
      <trkpt lat="55.38046128116548" lon="12.194431275129318">
        <ele>18.34</ele>
        <time>2023-06-10T16:14:58.721Z</time>
      </trkpt>
      <trkpt lat="55.380418030545115" lon="12.194409733638167">
        <ele>18.31</ele>
        <time>2023-06-10T16:15:00.226Z</time>
      </trkpt>
      <trkpt lat="55.3803323674947" lon="12.194367153570056">
        <ele>18.31</ele>
        <time>2023-06-10T16:15:01.733Z</time>
      </trkpt>
      <trkpt lat="55.38007529452443" lon="12.194239161908627">
        <ele>18.45</ele>
        <time>2023-06-10T16:15:03.244Z</time>
      </trkpt>
      <trkpt lat="55.379903968423605" lon="12.194153917953372">
        <ele>18.48</ele>
        <time>2023-06-10T16:15:04.758Z</time>
      </trkpt>
      <trkpt lat="55.379775892943144" lon="12.194090131670237">
        <ele>18.55</ele>
        <time>2023-06-10T16:15:06.274Z</time>
      </trkpt>
      <trkpt lat="55.37964781746268" lon="12.194026429206133">
        <ele>18.5</ele>
        <time>2023-06-10T16:15:07.792Z</time>
      </trkpt>
      <trkpt lat="55.37956123240292" lon="12.193983346223831">
        <ele>18.49</ele>
        <time>2023-06-10T16:15:09.311Z</time>
      </trkpt>
      <trkpt lat="55.37947556935251" lon="12.193940682336688">
        <ele>18.52</ele>
        <time>2023-06-10T16:15:10.832Z</time>
      </trkpt>
      <trkpt lat="55.379389906302094" lon="12.193898018449545">
        <ele>18.58</ele>
        <time>2023-06-10T16:15:12.354Z</time>
      </trkpt>
      <trkpt lat="55.379260992631316" lon="12.193833896890283">
        <ele>18.75</ele>
        <time>2023-06-10T16:15:13.878Z</time>
      </trkpt>
      <trkpt lat="55.379174407571554" lon="12.193790813907981">
        <ele>18.83</ele>
        <time>2023-06-10T16:15:15.404Z</time>
      </trkpt>
      <trkpt lat="55.378830917179585" lon="12.193619823083282">
        <ele>19.05</ele>
        <time>2023-06-10T16:15:16.936Z</time>
      </trkpt>
      <trkpt lat="55.378701919689775" lon="12.193555617704988">
        <ele>19.11</ele>
        <time>2023-06-10T16:15:18.470Z</time>
      </trkpt>
      <trkpt lat="55.37831509485841" lon="12.193363085389137">
        <ele>19.16</ele>
        <time>2023-06-10T16:15:20.010Z</time>
      </trkpt>
      <trkpt lat="55.377885019406676" lon="12.193149011582136">
        <ele>19.33</ele>
        <time>2023-06-10T16:15:21.557Z</time>
      </trkpt>
      <trkpt lat="55.37762710824609" lon="12.19302068464458">
        <ele>19.36</ele>
        <time>2023-06-10T16:15:23.109Z</time>
      </trkpt>
      <trkpt lat="55.3774125315249" lon="12.192913815379143">
        <ele>19.41</ele>
        <time>2023-06-10T16:15:24.664Z</time>
      </trkpt>
      <trkpt lat="55.377068957313895" lon="12.192742824554443">
        <ele>19.54</ele>
        <time>2023-06-10T16:15:26.225Z</time>
      </trkpt>
      <trkpt lat="55.37694004364312" lon="12.19267861917615">
        <ele>19.54</ele>
        <time>2023-06-10T16:15:27.788Z</time>
      </trkpt>
      <trkpt lat="55.376853458583355" lon="12.19263562001288">
        <ele>19.52</ele>
        <time>2023-06-10T16:15:29.353Z</time>
      </trkpt>
      <trkpt lat="55.37668213248253" lon="12.192550292238593">
        <ele>19.36</ele>
        <time>2023-06-10T16:15:30.920Z</time>
      </trkpt>
      <trkpt lat="55.37642422132194" lon="12.192421965301037">
        <ele>19.0</ele>
        <time>2023-06-10T16:15:32.492Z</time>
      </trkpt>
      <trkpt lat="55.37633772008121" lon="12.192378882318735">
        <ele>18.9</ele>
        <time>2023-06-10T16:15:34.065Z</time>
      </trkpt>
      <trkpt lat="55.37599414587021" lon="12.192207891494036">
        <ele>18.62</ele>
        <time>2023-06-10T16:15:35.644Z</time>
      </trkpt>
      <trkpt lat="55.37586523219943" lon="12.192143686115742">
        <ele>18.47</ele>
        <time>2023-06-10T16:15:37.225Z</time>
      </trkpt>
      <trkpt lat="55.37573715671897" lon="12.192079983651638">
        <ele>18.25</ele>
        <time>2023-06-10T16:15:38.808Z</time>
      </trkpt>
      <trkpt lat="55.37523005157709" lon="12.191827520728111">
        <ele>17.14</ele>
        <time>2023-06-10T16:15:40.400Z</time>
      </trkpt>
      <trkpt lat="55.375148663297296" lon="12.191787036135793">
        <ele>16.98</ele>
        <time>2023-06-10T16:15:41.993Z</time>
      </trkpt>
      <trkpt lat="55.37506643682718" lon="12.191746132448316">
        <ele>16.86</ele>
        <time>2023-06-10T16:15:43.587Z</time>
      </trkpt>
      <trkpt lat="55.37494448013604" lon="12.191685363650322">
        <ele>16.74</ele>
        <time>2023-06-10T16:15:45.183Z</time>
      </trkpt>
      <trkpt lat="55.37464499473572" lon="12.191536333411932">
        <ele>16.34</ele>
        <time>2023-06-10T16:15:46.784Z</time>
      </trkpt>
      <trkpt lat="55.374559331685305" lon="12.19149375334382">
        <ele>16.21</ele>
        <time>2023-06-10T16:15:48.387Z</time>
      </trkpt>
      <trkpt lat="55.37421751767397" lon="12.191323600709438">
        <ele>15.54</ele>
        <time>2023-06-10T16:15:49.995Z</time>
      </trkpt>
      <trkpt lat="55.37414995953441" lon="12.19128998927772">
        <ele>15.43</ele>
        <time>2023-06-10T16:15:51.605Z</time>
      </trkpt>
      <trkpt lat="55.37409095093608" lon="12.19124749302864">
        <ele>15.33</ele>
        <time>2023-06-10T16:15:53.216Z</time>
      </trkpt>
      <trkpt lat="55.37396773695946" lon="12.191158728674054">
        <ele>15.17</ele>
        <time>2023-06-10T16:15:54.829Z</time>
      </trkpt>
      <trkpt lat="55.3738999273628" lon="12.191109945997596">
        <ele>15.1</ele>
        <time>2023-06-10T16:15:56.443Z</time>
      </trkpt>
      <trkpt lat="55.37388735450804" lon="12.191093098372221">
        <ele>15.09</ele>
        <time>2023-06-10T16:15:58.057Z</time>
      </trkpt>
      <trkpt lat="55.37381644360721" lon="12.190998382866383">
        <ele>15.05</ele>
        <time>2023-06-10T16:15:59.673Z</time>
      </trkpt>
      <trkpt lat="55.37363958545029" lon="12.190761929377913">
        <ele>15.0</ele>
        <time>2023-06-10T16:16:01.292Z</time>
      </trkpt>
      <trkpt lat="55.37349776364863" lon="12.190572414547205">
        <ele>14.94</ele>
        <time>2023-06-10T16:16:02.914Z</time>
      </trkpt>
      <trkpt lat="55.37321847863495" lon="12.190199168398976">
        <ele>14.91</ele>
        <time>2023-06-10T16:16:04.542Z</time>
      </trkpt>
      <trkpt lat="55.37304438650608" lon="12.189966570585966">
        <ele>14.82</ele>
        <time>2023-06-10T16:16:06.173Z</time>
      </trkpt>
      <trkpt lat="55.37262403406203" lon="12.189404731616378">
        <ele>14.67</ele>
        <time>2023-06-10T16:16:07.813Z</time>
      </trkpt>
      <trkpt lat="55.372459245845675" lon="12.189184539020061">
        <ele>14.65</ele>
        <time>2023-06-10T16:16:09.456Z</time>
      </trkpt>
      <trkpt lat="55.372388334944844" lon="12.189089823514223">
        <ele>14.62</ele>
        <time>2023-06-10T16:16:11.100Z</time>
      </trkpt>
      <trkpt lat="55.372210051864386" lon="12.188851442188025">
        <ele>14.59</ele>
        <time>2023-06-10T16:16:12.748Z</time>
      </trkpt>
      <trkpt lat="55.37185340188444" lon="12.188374763354659">
        <ele>14.39</ele>
        <time>2023-06-10T16:16:14.403Z</time>
      </trkpt>
      <trkpt lat="55.37178173661232" lon="12.188279125839472">
        <ele>14.37</ele>
        <time>2023-06-10T16:16:16.060Z</time>
      </trkpt>
      <trkpt lat="55.371639244258404" lon="12.188088605180383">
        <ele>14.43</ele>
        <time>2023-06-10T16:16:17.719Z</time>
      </trkpt>
      <trkpt lat="55.371496668085456" lon="12.187898168340325">
        <ele>14.61</ele>
        <time>2023-06-10T16:16:19.381Z</time>
      </trkpt>
      <trkpt lat="55.37142508663237" lon="12.187802447006106">
        <ele>14.74</ele>
        <time>2023-06-10T16:16:21.045Z</time>
      </trkpt>
      <trkpt lat="55.371318385005" lon="12.187659787014127">
        <ele>15.01</ele>
        <time>2023-06-10T16:16:22.711Z</time>
      </trkpt>
      <trkpt lat="55.37124671973288" lon="12.187564065679908">
        <ele>15.22</ele>
        <time>2023-06-10T16:16:24.378Z</time>
      </trkpt>
      <trkpt lat="55.37106843665242" lon="12.187325768172741">
        <ele>15.84</ele>
        <time>2023-06-10T16:16:26.049Z</time>
      </trkpt>
      <trkpt lat="55.37096173502505" lon="12.187183108180761">
        <ele>16.19</ele>
        <time>2023-06-10T16:16:27.722Z</time>
      </trkpt>
      <trkpt lat="55.37060500122607" lon="12.186706429347396">
        <ele>17.21</ele>
        <time>2023-06-10T16:16:29.402Z</time>
      </trkpt>
      <trkpt lat="55.370498299598694" lon="12.186563853174448">
        <ele>17.48</ele>
        <time>2023-06-10T16:16:31.084Z</time>
      </trkpt>
      <trkpt lat="55.370390927419066" lon="12.18642027117312">
        <ele>17.68</ele>
        <time>2023-06-10T16:16:32.769Z</time>
      </trkpt>
      <trkpt lat="55.370320016518235" lon="12.186325555667281">
        <ele>17.78</ele>
        <time>2023-06-10T16:16:34.455Z</time>
      </trkpt>
      <trkpt lat="55.37024835124612" lon="12.186229834333062">
        <ele>17.83</ele>
        <time>2023-06-10T16:16:36.142Z</time>
      </trkpt>
      <trkpt lat="55.370034193620086" lon="12.185943592339754">
        <ele>17.88</ele>
        <time>2023-06-10T16:16:37.834Z</time>
      </trkpt>
      <trkpt lat="55.369963366538286" lon="12.185848876833916">
        <ele>17.94</ele>
        <time>2023-06-10T16:16:39.527Z</time>
      </trkpt>
      <trkpt lat="55.36985591053963" lon="12.185705294832587">
        <ele>18.09</ele>
        <time>2023-06-10T16:16:41.222Z</time>
      </trkpt>
      <trkpt lat="55.369784999638796" lon="12.185610495507717">
        <ele>18.22</ele>
        <time>2023-06-10T16:16:42.919Z</time>
      </trkpt>
      <trkpt lat="55.36971333436668" lon="12.185514774173498">
        <ele>18.39</ele>
        <time>2023-06-10T16:16:44.617Z</time>
      </trkpt>
      <trkpt lat="55.369606632739305" lon="12.18537219800055">
        <ele>18.7</ele>
        <time>2023-06-10T16:16:46.317Z</time>
      </trkpt>
      <trkpt lat="55.36946414038539" lon="12.185181677341461">
        <ele>19.15</ele>
        <time>2023-06-10T16:16:48.020Z</time>
      </trkpt>
      <trkpt lat="55.369392558932304" lon="12.185085956007242">
        <ele>19.35</ele>
        <time>2023-06-10T16:16:49.725Z</time>
      </trkpt>
      <trkpt lat="55.36935668438673" lon="12.185038179159164">
        <ele>19.43</ele>
        <time>2023-06-10T16:16:51.430Z</time>
      </trkpt>
      <trkpt lat="55.36932089366019" lon="12.184990318492055">
        <ele>19.48</ele>
        <time>2023-06-10T16:16:53.136Z</time>
      </trkpt>
      <trkpt lat="55.36924998275936" lon="12.184895519167185">
        <ele>19.54</ele>
        <time>2023-06-10T16:16:54.844Z</time>
      </trkpt>
      <trkpt lat="55.36910749040544" lon="12.184705082327127">
        <ele>19.59</ele>
        <time>2023-06-10T16:16:56.554Z</time>
      </trkpt>
      <trkpt lat="55.369035825133324" lon="12.184609360992908">
        <ele>19.59</ele>
        <time>2023-06-10T16:16:58.266Z</time>
      </trkpt>
      <trkpt lat="55.36896424368024" lon="12.18451363965869">
        <ele>19.56</ele>
        <time>2023-06-10T16:16:59.979Z</time>
      </trkpt>
      <trkpt lat="55.36868344992399" lon="12.1841383818537">
        <ele>19.34</ele>
        <time>2023-06-10T16:17:01.698Z</time>
      </trkpt>
      <trkpt lat="55.36854992620647" lon="12.183959931135178">
        <ele>19.26</ele>
        <time>2023-06-10T16:17:03.420Z</time>
      </trkpt>
      <trkpt lat="55.36838999949396" lon="12.183819953352213">
        <ele>19.18</ele>
        <time>2023-06-10T16:17:05.145Z</time>
      </trkpt>
      <trkpt lat="55.36838999949396" lon="12.183819953352213">
        <ele>19.18</ele>
        <time>2023-06-10T16:17:06.870Z</time>
      </trkpt>
      <trkpt lat="55.368239963427186" lon="12.183809978887439">
        <ele>19.2</ele>
        <time>2023-06-10T16:17:08.597Z</time>
      </trkpt>
      <trkpt lat="55.368089927360415" lon="12.183839986100793">
        <ele>19.23</ele>
        <time>2023-06-10T16:17:10.326Z</time>
      </trkpt>
      <trkpt lat="55.3680872451514" lon="12.1838413272053">
        <ele>19.23</ele>
        <time>2023-06-10T16:17:12.055Z</time>
      </trkpt>
      <trkpt lat="55.36790996789932" lon="12.183929923921824">
        <ele>19.23</ele>
        <time>2023-06-10T16:17:13.787Z</time>
      </trkpt>
      <trkpt lat="55.36779882386327" lon="12.184016089886427">
        <ele>19.23</ele>
        <time>2023-06-10T16:17:15.521Z</time>
      </trkpt>
      <trkpt lat="55.36763831041753" lon="12.184140477329493">
        <ele>19.26</ele>
        <time>2023-06-10T16:17:17.258Z</time>
      </trkpt>
      <trkpt lat="55.3675190359354" lon="12.184232929721475">
        <ele>19.31</ele>
        <time>2023-06-10T16:17:18.997Z</time>
      </trkpt>
      <trkpt lat="55.36750998347998" lon="12.184239970520139">
        <ele>19.3</ele>
        <time>2023-06-10T16:17:20.736Z</time>
      </trkpt>
      <trkpt lat="55.36732390522957" lon="12.184426048770547">
        <ele>19.24</ele>
        <time>2023-06-10T16:17:22.479Z</time>
      </trkpt>
      <trkpt lat="55.36724570207298" lon="12.184504251927137">
        <ele>19.25</ele>
        <time>2023-06-10T16:17:24.223Z</time>
      </trkpt>
      <trkpt lat="55.36709005013108" lon="12.184659820050001">
        <ele>19.4</ele>
        <time>2023-06-10T16:17:25.970Z</time>
      </trkpt>
      <trkpt lat="55.36697999574244" lon="12.184769958257675">
        <ele>19.55</ele>
        <time>2023-06-10T16:17:27.719Z</time>
      </trkpt>
      <trkpt lat="55.36687673069537" lon="12.184942038729787">
        <ele>19.72</ele>
        <time>2023-06-10T16:17:29.470Z</time>
      </trkpt>
      <trkpt lat="55.366859966889024" lon="12.184969950467348">
        <ele>19.74</ele>
        <time>2023-06-10T16:17:31.222Z</time>
      </trkpt>
      <trkpt lat="55.36679609678686" lon="12.185131469741464">
        <ele>19.85</ele>
        <time>2023-06-10T16:17:32.976Z</time>
      </trkpt>
      <trkpt lat="55.366745218634605" lon="12.185260131955147">
        <ele>19.9</ele>
        <time>2023-06-10T16:17:34.731Z</time>
      </trkpt>
      <trkpt lat="55.366689981892705" lon="12.185399942100048">
        <ele>19.9</ele>
        <time>2023-06-10T16:17:36.488Z</time>
      </trkpt>
      <trkpt lat="55.366689981892705" lon="12.185399942100048">
        <ele>19.9</ele>
        <time>2023-06-10T16:17:38.245Z</time>
      </trkpt>
      <trkpt lat="55.36662619560957" lon="12.185308746993542">
        <ele>19.93</ele>
        <time>2023-06-10T16:17:40.003Z</time>
      </trkpt>
      <trkpt lat="55.36655779927969" lon="12.18521093018353">
        <ele>19.9</ele>
        <time>2023-06-10T16:17:41.762Z</time>
      </trkpt>
      <trkpt lat="55.366522930562496" lon="12.18516105785966">
        <ele>19.85</ele>
        <time>2023-06-10T16:17:43.522Z</time>
      </trkpt>
      <trkpt lat="55.36641966551542" lon="12.185013284906745">
        <ele>19.62</ele>
        <time>2023-06-10T16:17:45.284Z</time>
      </trkpt>
      <trkpt lat="55.36617818288505" lon="12.184667950496078">
        <ele>18.94</ele>
        <time>2023-06-10T16:17:47.051Z</time>
      </trkpt>
      <trkpt lat="55.36610911600292" lon="12.184569127857685">
        <ele>18.8</ele>
        <time>2023-06-10T16:17:48.820Z</time>
      </trkpt>
      <trkpt lat="55.36607491783798" lon="12.184520261362195">
        <ele>18.76</ele>
        <time>2023-06-10T16:17:50.589Z</time>
      </trkpt>
      <trkpt lat="55.366005850955844" lon="12.184421438723803">
        <ele>18.71</ele>
        <time>2023-06-10T16:17:52.360Z</time>
      </trkpt>
      <trkpt lat="55.36589998751879" lon="12.184269977733493">
        <ele>18.72</ele>
        <time>2023-06-10T16:17:54.133Z</time>
      </trkpt>
      <trkpt lat="55.36589998751879" lon="12.184269977733493">
        <ele>18.72</ele>
        <time>2023-06-10T16:17:55.906Z</time>
      </trkpt>
      <trkpt lat="55.36583519540727" lon="12.184171322733164">
        <ele>18.46</ele>
        <time>2023-06-10T16:17:57.680Z</time>
      </trkpt>
      <trkpt lat="55.36576780490577" lon="12.184068812057376">
        <ele>18.24</ele>
        <time>2023-06-10T16:17:59.456Z</time>
      </trkpt>
      <trkpt lat="55.36569982767105" lon="12.183965295553207">
        <ele>18.06</ele>
        <time>2023-06-10T16:18:01.233Z</time>
      </trkpt>
      <trkpt lat="55.36559849046171" lon="12.18381098471582">
        <ele>17.82</ele>
        <time>2023-06-10T16:18:03.012Z</time>
      </trkpt>
      <trkpt lat="55.36546387709677" lon="12.183606047183275">
        <ele>17.58</ele>
        <time>2023-06-10T16:18:04.794Z</time>
      </trkpt>
      <trkpt lat="55.36539581604302" lon="12.183502446860075">
        <ele>17.52</ele>
        <time>2023-06-10T16:18:06.578Z</time>
      </trkpt>
      <trkpt lat="55.36532850936055" lon="12.183399936184287">
        <ele>17.51</ele>
        <time>2023-06-10T16:18:08.363Z</time>
      </trkpt>
      <trkpt lat="55.36519314162433" lon="12.18319390900433">
        <ele>17.59</ele>
        <time>2023-06-10T16:18:10.151Z</time>
      </trkpt>
      <trkpt lat="55.36509188823402" lon="12.183039681985974">
        <ele>17.74</ele>
        <time>2023-06-10T16:18:11.941Z</time>
      </trkpt>
      <trkpt lat="55.36488921381533" lon="12.18273114413023">
        <ele>18.14</ele>
        <time>2023-06-10T16:18:13.735Z</time>
      </trkpt>
      <trkpt lat="55.36482182331383" lon="12.182628633454442">
        <ele>18.3</ele>
        <time>2023-06-10T16:18:15.531Z</time>
      </trkpt>
      <trkpt lat="55.364754516631365" lon="12.182526122778654">
        <ele>18.48</ele>
        <time>2023-06-10T16:18:17.328Z</time>
      </trkpt>
      <trkpt lat="55.36465317942202" lon="12.182371811941266">
        <ele>18.79</ele>
        <time>2023-06-10T16:18:19.127Z</time>
      </trkpt>
      <trkpt lat="55.36455871537328" lon="12.18222789466381">
        <ele>18.9</ele>
        <time>2023-06-10T16:18:20.928Z</time>
      </trkpt>
      <trkpt lat="55.36446349695325" lon="12.182082971557975">
        <ele>18.96</ele>
        <time>2023-06-10T16:18:22.731Z</time>
      </trkpt>
      <trkpt lat="55.364368949085474" lon="12.18193905428052">
        <ele>18.95</ele>
        <time>2023-06-10T16:18:24.536Z</time>
      </trkpt>
      <trkpt lat="55.3642744012177" lon="12.181795137003064">
        <ele>18.89</ele>
        <time>2023-06-10T16:18:26.343Z</time>
      </trkpt>
      <trkpt lat="55.36414381116629" lon="12.181596318259835">
        <ele>18.91</ele>
        <time>2023-06-10T16:18:28.153Z</time>
      </trkpt>
      <trkpt lat="55.36384868435562" lon="12.181146964430809">
        <ele>18.75</ele>
        <time>2023-06-10T16:18:29.969Z</time>
      </trkpt>
      <trkpt lat="55.36378338932991" lon="12.181047555059195">
        <ele>18.75</ele>
        <time>2023-06-10T16:18:31.787Z</time>
      </trkpt>
      <trkpt lat="55.36368548870087" lon="12.180898524820805">
        <ele>18.78</ele>
        <time>2023-06-10T16:18:33.607Z</time>
      </trkpt>
      <trkpt lat="55.363449957221746" lon="12.180539947003126">
        <ele>18.65</ele>
        <time>2023-06-10T16:18:35.432Z</time>
      </trkpt>
      <trkpt lat="55.363449957221746" lon="12.180539947003126">
        <ele>18.65</ele>
        <time>2023-06-10T16:18:37.257Z</time>
      </trkpt>
      <trkpt lat="55.36322984844446" lon="12.180074416100979">
        <ele>18.6</ele>
        <time>2023-06-10T16:18:39.087Z</time>
      </trkpt>
      <trkpt lat="55.363189950585365" lon="12.17998992651701">
        <ele>18.62</ele>
        <time>2023-06-10T16:18:40.918Z</time>
      </trkpt>
      <trkpt lat="55.36297218874097" lon="12.179652722552419">
        <ele>18.75</ele>
        <time>2023-06-10T16:18:42.754Z</time>
      </trkpt>
      <trkpt lat="55.36290597170591" lon="12.179550295695662">
        <ele>18.76</ele>
        <time>2023-06-10T16:18:44.592Z</time>
      </trkpt>
      <trkpt lat="55.36287998780608" lon="12.179509978741407">
        <ele>18.74</ele>
        <time>2023-06-10T16:18:46.430Z</time>
      </trkpt>
      <trkpt lat="55.362873282283545" lon="12.179500758647919">
        <ele>18.74</ele>
        <time>2023-06-10T16:18:48.268Z</time>
      </trkpt>
      <trkpt lat="55.362803963944316" lon="12.1794050373137">
        <ele>18.66</ele>
        <time>2023-06-10T16:18:50.108Z</time>
      </trkpt>
      <trkpt lat="55.36263062618673" lon="12.179165817797184">
        <ele>18.31</ele>
        <time>2023-06-10T16:18:51.951Z</time>
      </trkpt>
      <trkpt lat="55.36256122402847" lon="12.179070096462965">
        <ele>18.19</ele>
        <time>2023-06-10T16:18:53.796Z</time>
      </trkpt>
      <trkpt lat="55.36249190568924" lon="12.178974375128746">
        <ele>18.11</ele>
        <time>2023-06-10T16:18:55.642Z</time>
      </trkpt>
      <trkpt lat="55.3620588965714" lon="12.178376745432615">
        <ele>17.86</ele>
        <time>2023-06-10T16:18:57.497Z</time>
      </trkpt>
      <trkpt lat="55.361954206600785" lon="12.178232157602906">
        <ele>17.91</ele>
        <time>2023-06-10T16:18:59.354Z</time>
      </trkpt>
      <trkpt lat="55.36188413389027" lon="12.178135514259338">
        <ele>17.86</ele>
        <time>2023-06-10T16:19:01.212Z</time>
      </trkpt>
      <trkpt lat="55.36181481555104" lon="12.17803979292512">
        <ele>17.72</ele>
        <time>2023-06-10T16:19:03.072Z</time>
      </trkpt>
      <trkpt lat="55.361639969050884" lon="12.177798561751842">
        <ele>17.3</ele>
        <time>2023-06-10T16:19:04.935Z</time>
      </trkpt>
      <trkpt lat="55.36153527908027" lon="12.177654057741165">
        <ele>17.14</ele>
        <time>2023-06-10T16:19:06.801Z</time>
      </trkpt>
      <trkpt lat="55.3613611869514" lon="12.177413832396269">
        <ele>16.96</ele>
        <time>2023-06-10T16:19:08.670Z</time>
      </trkpt>
      <trkpt lat="55.36083689890802" lon="12.176690138876438">
        <ele>16.49</ele>
        <time>2023-06-10T16:19:10.550Z</time>
      </trkpt>
      <trkpt lat="55.36066356115043" lon="12.176450919359922">
        <ele>16.41</ele>
        <time>2023-06-10T16:19:12.433Z</time>
      </trkpt>
      <trkpt lat="55.360419480130076" lon="12.176113966852427">
        <ele>16.19</ele>
        <time>2023-06-10T16:19:14.321Z</time>
      </trkpt>
      <trkpt lat="55.36034940741956" lon="12.176017323508859">
        <ele>16.12</ele>
        <time>2023-06-10T16:19:16.211Z</time>
      </trkpt>
      <trkpt lat="55.36021001636982" lon="12.17582487501204">
        <ele>15.9</ele>
        <time>2023-06-10T16:19:18.104Z</time>
      </trkpt>
      <trkpt lat="55.360105242580175" lon="12.175680371001363">
        <ele>15.78</ele>
        <time>2023-06-10T16:19:19.999Z</time>
      </trkpt>
      <trkpt lat="55.36003592424095" lon="12.175584649667144">
        <ele>15.73</ele>
        <time>2023-06-10T16:19:21.895Z</time>
      </trkpt>
      <trkpt lat="55.359931234270334" lon="12.175440145656466">
        <ele>15.7</ele>
        <time>2023-06-10T16:19:23.793Z</time>
      </trkpt>
      <trkpt lat="55.35986116155982" lon="12.175343418493867">
        <ele>15.71</ele>
        <time>2023-06-10T16:19:25.693Z</time>
      </trkpt>
      <trkpt lat="55.35975714214146" lon="12.17519992031157">
        <ele>15.78</ele>
        <time>2023-06-10T16:19:27.595Z</time>
      </trkpt>
      <trkpt lat="55.359749933704734" lon="12.175189945846796">
        <ele>15.78</ele>
        <time>2023-06-10T16:19:29.497Z</time>
      </trkpt>
      <trkpt lat="55.35954826511443" lon="12.174914851784706">
        <ele>15.83</ele>
        <time>2023-06-10T16:19:31.403Z</time>
      </trkpt>
      <trkpt lat="55.35926889628172" lon="12.174533810466528">
        <ele>15.78</ele>
        <time>2023-06-10T16:19:33.315Z</time>
      </trkpt>
      <trkpt lat="55.35898961126804" lon="12.174152852967381">
        <ele>15.84</ele>
        <time>2023-06-10T16:19:35.232Z</time>
      </trkpt>
      <trkpt lat="55.35888441838324" lon="12.174009354785085">
        <ele>15.92</ele>
        <time>2023-06-10T16:19:37.151Z</time>
      </trkpt>
      <trkpt lat="55.35864067263901" lon="12.17367684468627">
        <ele>16.22</ele>
        <time>2023-06-10T16:19:39.075Z</time>
      </trkpt>
      <trkpt lat="55.35839759744704" lon="12.173345340415835">
        <ele>16.37</ele>
        <time>2023-06-10T16:19:41.004Z</time>
      </trkpt>
      <trkpt lat="55.358229875564575" lon="12.173116514459252">
        <ele>16.5</ele>
        <time>2023-06-10T16:19:42.937Z</time>
      </trkpt>
      <trkpt lat="55.35792854614556" lon="12.172705549746752">
        <ele>16.6</ele>
        <time>2023-06-10T16:19:44.876Z</time>
      </trkpt>
      <trkpt lat="55.35782259888947" lon="12.172561045736074">
        <ele>16.67</ele>
        <time>2023-06-10T16:19:46.817Z</time>
      </trkpt>
      <trkpt lat="55.357716735452414" lon="12.172416625544429">
        <ele>16.69</ele>
        <time>2023-06-10T16:19:48.760Z</time>
      </trkpt>
      <trkpt lat="55.3572597540915" lon="12.171793263405561">
        <ele>16.6</ele>
        <time>2023-06-10T16:19:50.712Z</time>
      </trkpt>
      <trkpt lat="55.35724994726479" lon="12.171779936179519">
        <ele>16.59</ele>
        <time>2023-06-10T16:19:52.665Z</time>
      </trkpt>
      <trkpt lat="55.35701441578567" lon="12.171461759135127">
        <ele>16.52</ele>
        <time>2023-06-10T16:19:54.622Z</time>
      </trkpt>
      <trkpt lat="55.356846107169986" lon="12.171234274283051">
        <ele>16.44</ele>
        <time>2023-06-10T16:19:56.583Z</time>
      </trkpt>
      <trkpt lat="55.35632190294564" lon="12.170526003465056">
        <ele>16.28</ele>
        <time>2023-06-10T16:19:58.554Z</time>
      </trkpt>
      <trkpt lat="55.3563099168241" lon="12.170509994029999">
        <ele>16.27</ele>
        <time>2023-06-10T16:20:00.526Z</time>
      </trkpt>
      <trkpt lat="55.356106152758" lon="12.170249065384269">
        <ele>16.25</ele>
        <time>2023-06-10T16:20:02.502Z</time>
      </trkpt>
      <trkpt lat="55.355962151661515" lon="12.170064747333527">
        <ele>16.18</ele>
        <time>2023-06-10T16:20:04.481Z</time>
      </trkpt>
      <trkpt lat="55.35585301928222" lon="12.169925104826689">
        <ele>16.16</ele>
        <time>2023-06-10T16:20:06.462Z</time>
      </trkpt>
      <trkpt lat="55.35570834763348" lon="12.169739864766598">
        <ele>16.22</ele>
        <time>2023-06-10T16:20:08.446Z</time>
      </trkpt>
      <trkpt lat="55.355564346536994" lon="12.169555630534887">
        <ele>16.34</ele>
        <time>2023-06-10T16:20:10.432Z</time>
      </trkpt>
      <trkpt lat="55.35531934350729" lon="12.169241895899177">
        <ele>16.4</ele>
        <time>2023-06-10T16:20:12.423Z</time>
      </trkpt>
      <trkpt lat="55.35530995577574" lon="12.169229993596673">
        <ele>16.39</ele>
        <time>2023-06-10T16:20:14.415Z</time>
      </trkpt>
      <trkpt lat="55.35516704432666" lon="12.168993540108204">
        <ele>16.37</ele>
        <time>2023-06-10T16:20:16.410Z</time>
      </trkpt>
      <trkpt lat="55.35490695387125" lon="12.16856338083744">
        <ele>16.37</ele>
        <time>2023-06-10T16:20:18.410Z</time>
      </trkpt>
      <trkpt lat="55.35484140738845" lon="12.168455002829432">
        <ele>16.33</ele>
        <time>2023-06-10T16:20:20.412Z</time>
      </trkpt>
      <trkpt lat="55.3546782117337" lon="12.16818518936634">
        <ele>16.16</ele>
        <time>2023-06-10T16:20:22.417Z</time>
      </trkpt>
      <trkpt lat="55.35454787313938" lon="12.167969606816769">
        <ele>16.05</ele>
        <time>2023-06-10T16:20:24.425Z</time>
      </trkpt>
      <trkpt lat="55.35441745072603" lon="12.167753940448165">
        <ele>16.0</ele>
        <time>2023-06-10T16:20:26.436Z</time>
      </trkpt>
      <trkpt lat="55.35428778268397" lon="12.167539363726974">
        <ele>16.0</ele>
        <time>2023-06-10T16:20:28.450Z</time>
      </trkpt>
      <trkpt lat="55.35414034500718" lon="12.167295534163713">
        <ele>15.91</ele>
        <time>2023-06-10T16:20:30.467Z</time>
      </trkpt>
      <trkpt lat="55.35400992259383" lon="12.167079951614141">
        <ele>15.85</ele>
        <time>2023-06-10T16:20:32.487Z</time>
      </trkpt>
      <trkpt lat="55.35383189097047" lon="12.166777951642871">
        <ele>15.78</ele>
        <time>2023-06-10T16:20:34.511Z</time>
      </trkpt>
      <trkpt lat="55.35354648716748" lon="12.16629364527762">
        <ele>15.74</ele>
        <time>2023-06-10T16:20:36.542Z</time>
      </trkpt>
      <trkpt lat="55.353328976780176" lon="12.165924673900008">
        <ele>15.72</ele>
        <time>2023-06-10T16:20:38.577Z</time>
      </trkpt>
      <trkpt lat="55.35317424684763" lon="12.165662236511707">
        <ele>15.75</ele>
        <time>2023-06-10T16:20:40.616Z</time>
      </trkpt>
      <trkpt lat="55.353019600734115" lon="12.165399715304375">
        <ele>15.81</ele>
        <time>2023-06-10T16:20:42.658Z</time>
      </trkpt>
      <trkpt lat="55.352956149727106" lon="12.165292091667652">
        <ele>15.77</ele>
        <time>2023-06-10T16:20:44.702Z</time>
      </trkpt>
      <trkpt lat="55.35286160185933" lon="12.165131829679012">
        <ele>15.75</ele>
        <time>2023-06-10T16:20:46.748Z</time>
      </trkpt>
      <trkpt lat="55.35254577174783" lon="12.164595890790224">
        <ele>15.79</ele>
        <time>2023-06-10T16:20:48.801Z</time>
      </trkpt>
      <trkpt lat="55.35241886973381" lon="12.164380643516779">
        <ele>15.86</ele>
        <time>2023-06-10T16:20:50.857Z</time>
      </trkpt>
      <trkpt lat="55.35219750367105" lon="12.164005050435662">
        <ele>16.08</ele>
        <time>2023-06-10T16:20:52.918Z</time>
      </trkpt>
      <trkpt lat="55.352102955803275" lon="12.163844788447022">
        <ele>16.14</ele>
        <time>2023-06-10T16:20:54.981Z</time>
      </trkpt>
      <trkpt lat="55.35200849175453" lon="12.163684442639351">
        <ele>16.17</ele>
        <time>2023-06-10T16:20:57.046Z</time>
      </trkpt>
      <trkpt lat="55.3519999422133" lon="12.163669941946864">
        <ele>16.16</ele>
        <time>2023-06-10T16:20:59.111Z</time>
      </trkpt>
      <trkpt lat="55.351889971643686" lon="12.163559971377254">
        <ele>16.13</ele>
        <time>2023-06-10T16:21:01.178Z</time>
      </trkpt>
      <trkpt lat="55.351889971643686" lon="12.163559971377254">
        <ele>16.13</ele>
        <time>2023-06-10T16:21:03.245Z</time>
      </trkpt>
      <trkpt lat="55.35185191780329" lon="12.16353490948677">
        <ele>16.1</ele>
        <time>2023-06-10T16:21:05.313Z</time>
      </trkpt>
      <trkpt lat="55.35168436355889" lon="12.16342443600297">
        <ele>15.92</ele>
        <time>2023-06-10T16:21:07.384Z</time>
      </trkpt>
      <trkpt lat="55.351475486531854" lon="12.163286805152893">
        <ele>15.76</ele>
        <time>2023-06-10T16:21:09.458Z</time>
      </trkpt>
      <trkpt lat="55.35109905526042" lon="12.163038700819016">
        <ele>15.25</ele>
        <time>2023-06-10T16:21:11.539Z</time>
      </trkpt>
      <trkpt lat="55.350638469681144" lon="12.162735108286142">
        <ele>14.58</ele>
        <time>2023-06-10T16:21:13.627Z</time>
      </trkpt>
      <trkpt lat="55.35030411556363" lon="12.162514748051763">
        <ele>14.26</ele>
        <time>2023-06-10T16:21:15.721Z</time>
      </trkpt>
      <trkpt lat="55.350220715627074" lon="12.162459762766957">
        <ele>14.21</ele>
        <time>2023-06-10T16:21:17.817Z</time>
      </trkpt>
      <trkpt lat="55.35013656131923" lon="12.162404274567962">
        <ele>14.19</ele>
        <time>2023-06-10T16:21:19.914Z</time>
      </trkpt>
      <trkpt lat="55.3499689232558" lon="12.16229380108416">
        <ele>14.2</ele>
        <time>2023-06-10T16:21:22.014Z</time>
      </trkpt>
      <trkpt lat="55.34967673011124" lon="12.16210126876831">
        <ele>14.35</ele>
        <time>2023-06-10T16:21:24.119Z</time>
      </trkpt>
      <trkpt lat="55.34934153780341" lon="12.161880321800709">
        <ele>14.37</ele>
        <time>2023-06-10T16:21:26.230Z</time>
      </trkpt>
      <trkpt lat="55.3490071836859" lon="12.161659961566329">
        <ele>14.45</ele>
        <time>2023-06-10T16:21:28.346Z</time>
      </trkpt>
      <trkpt lat="55.34837979823351" lon="12.161246482282877">
        <ele>14.8</ele>
        <time>2023-06-10T16:21:30.473Z</time>
      </trkpt>
      <trkpt lat="55.3483699914068" lon="12.161239944398403">
        <ele>14.8</ele>
        <time>2023-06-10T16:21:32.600Z</time>
      </trkpt>
      <trkpt lat="55.34829514101148" lon="12.161193089559674">
        <ele>14.87</ele>
        <time>2023-06-10T16:21:34.729Z</time>
      </trkpt>
      <trkpt lat="55.348085090518" lon="12.161061326041818">
        <ele>15.08</ele>
        <time>2023-06-10T16:21:36.861Z</time>
      </trkpt>
      <trkpt lat="55.34791653044522" lon="12.160955546423793">
        <ele>15.19</ele>
        <time>2023-06-10T16:21:38.996Z</time>
      </trkpt>
      <trkpt lat="55.3478327114135" lon="12.160902991890907">
        <ele>15.22</ele>
        <time>2023-06-10T16:21:41.132Z</time>
      </trkpt>
      <trkpt lat="55.34774797037244" lon="12.1608498506248">
        <ele>15.24</ele>
        <time>2023-06-10T16:21:43.270Z</time>
      </trkpt>
      <trkpt lat="55.347621738910675" lon="12.160770641639829">
        <ele>15.23</ele>
        <time>2023-06-10T16:21:45.410Z</time>
      </trkpt>
      <trkpt lat="55.34736935980618" lon="12.160612307488918">
        <ele>15.16</ele>
        <time>2023-06-10T16:21:47.554Z</time>
      </trkpt>
      <trkpt lat="55.34724312834442" lon="12.160533182322979">
        <ele>15.15</ele>
        <time>2023-06-10T16:21:49.700Z</time>
      </trkpt>
      <trkpt lat="55.34694917500019" lon="12.160348864272237">
        <ele>15.23</ele>
        <time>2023-06-10T16:21:51.851Z</time>
      </trkpt>
      <trkpt lat="55.346696795895696" lon="12.160190530121326">
        <ele>15.33</ele>
        <time>2023-06-10T16:21:54.007Z</time>
      </trkpt>
      <trkpt lat="55.34667994827032" lon="12.16017996892333">
        <ele>15.3</ele>
        <time>2023-06-10T16:21:56.163Z</time>
      </trkpt>
      <trkpt lat="55.34657542593777" lon="12.160106459632516">
        <ele>15.18</ele>
        <time>2023-06-10T16:21:58.321Z</time>
      </trkpt>
      <trkpt lat="55.34649361856282" lon="12.160048875957727">
        <ele>15.13</ele>
        <time>2023-06-10T16:22:00.480Z</time>
      </trkpt>
      <trkpt lat="55.34637258388102" lon="12.159963632002473">
        <ele>15.11</ele>
        <time>2023-06-10T16:22:02.641Z</time>
      </trkpt>
      <trkpt lat="55.34629153087735" lon="12.159906635060906">
        <ele>15.12</ele>
        <time>2023-06-10T16:22:04.804Z</time>
      </trkpt>
      <trkpt lat="55.3462097235024" lon="12.159849051386118">
        <ele>15.17</ele>
        <time>2023-06-10T16:22:06.968Z</time>
      </trkpt>
      <trkpt lat="55.34600771963596" lon="12.159706894308329">
        <ele>15.34</ele>
        <time>2023-06-10T16:22:09.136Z</time>
      </trkpt>
      <trkpt lat="55.34586992114782" lon="12.159609999507666">
        <ele>15.42</ele>
        <time>2023-06-10T16:22:11.306Z</time>
      </trkpt>
      <trkpt lat="55.34579976461828" lon="12.159607233479619">
        <ele>15.47</ele>
        <time>2023-06-10T16:22:13.477Z</time>
      </trkpt>
      <trkpt lat="55.34562533721328" lon="12.159600527957082">
        <ele>15.64</ele>
        <time>2023-06-10T16:22:15.651Z</time>
      </trkpt>
      <trkpt lat="55.345609998330474" lon="12.15959994122386">
        <ele>15.64</ele>
        <time>2023-06-10T16:22:17.825Z</time>
      </trkpt>
      <trkpt lat="55.34544873051345" lon="12.159622991457582">
        <ele>15.74</ele>
        <time>2023-06-10T16:22:20.002Z</time>
      </trkpt>
      <trkpt lat="55.345399947836995" lon="12.159629948437214">
        <ele>15.79</ele>
        <time>2023-06-10T16:22:22.180Z</time>
      </trkpt>
      <trkpt lat="55.34536197781563" lon="12.159646796062589">
        <ele>15.83</ele>
        <time>2023-06-10T16:22:24.358Z</time>
      </trkpt>
      <trkpt lat="55.34510465338826" lon="12.159760789945722">
        <ele>16.15</ele>
        <time>2023-06-10T16:22:26.540Z</time>
      </trkpt>
      <trkpt lat="55.34463291987777" lon="12.15996983461082">
        <ele>16.56</ele>
        <time>2023-06-10T16:22:28.730Z</time>
      </trkpt>
      <trkpt lat="55.34460995346308" lon="12.159979976713657">
        <ele>16.56</ele>
        <time>2023-06-10T16:22:30.921Z</time>
      </trkpt>
      <trkpt lat="55.3442928660661" lon="12.160166138783097">
        <ele>16.6</ele>
        <time>2023-06-10T16:22:33.117Z</time>
      </trkpt>
      <trkpt lat="55.34420753829181" lon="12.160216178745031">
        <ele>16.56</ele>
        <time>2023-06-10T16:22:35.314Z</time>
      </trkpt>
      <trkpt lat="55.34403780475259" lon="12.160315839573741">
        <ele>16.44</ele>
        <time>2023-06-10T16:22:37.514Z</time>
      </trkpt>
      <trkpt lat="55.3439524769783" lon="12.160365879535675">
        <ele>16.4</ele>
        <time>2023-06-10T16:22:39.716Z</time>
      </trkpt>
      <trkpt lat="55.343868071213365" lon="12.16041550040245">
        <ele>16.39</ele>
        <time>2023-06-10T16:22:41.919Z</time>
      </trkpt>
      <trkpt lat="55.34369833767414" lon="12.16051516123116">
        <ele>16.41</ele>
        <time>2023-06-10T16:22:44.125Z</time>
      </trkpt>
      <trkpt lat="55.34306106157601" lon="12.160889245569706">
        <ele>16.64</ele>
        <time>2023-06-10T16:22:46.342Z</time>
      </trkpt>
      <trkpt lat="55.34272159449756" lon="12.161088567227125">
        <ele>16.72</ele>
        <time>2023-06-10T16:22:48.565Z</time>
      </trkpt>
      <trkpt lat="55.34259360283613" lon="12.161163669079542">
        <ele>16.8</ele>
        <time>2023-06-10T16:22:50.790Z</time>
      </trkpt>
      <trkpt lat="55.34233937971294" lon="12.161312866955996">
        <ele>17.02</ele>
        <time>2023-06-10T16:22:53.019Z</time>
      </trkpt>
      <trkpt lat="55.34199991263449" lon="12.161512188613415">
        <ele>17.17</ele>
        <time>2023-06-10T16:22:55.254Z</time>
      </trkpt>
      <trkpt lat="55.34191626124084" lon="12.161561222746968">
        <ele>17.13</ele>
        <time>2023-06-10T16:22:57.490Z</time>
      </trkpt>
      <trkpt lat="55.34178919158876" lon="12.161635905504227">
        <ele>17.11</ele>
        <time>2023-06-10T16:22:59.728Z</time>
      </trkpt>
      <trkpt lat="55.34170470200479" lon="12.16168544255197">
        <ele>17.12</ele>
        <time>2023-06-10T16:23:01.968Z</time>
      </trkpt>
      <trkpt lat="55.34162113443017" lon="12.161734560504556">
        <ele>17.16</ele>
        <time>2023-06-10T16:23:04.209Z</time>
      </trkpt>
      <trkpt lat="55.34149406477809" lon="12.161809159442782">
        <ele>17.27</ele>
        <time>2023-06-10T16:23:06.452Z</time>
      </trkpt>
      <trkpt lat="55.341072622686625" lon="12.162056509405375">
        <ele>17.74</ele>
        <time>2023-06-10T16:23:08.702Z</time>
      </trkpt>
      <trkpt lat="55.34098821692169" lon="12.16210613027215">
        <ele>17.76</ele>
        <time>2023-06-10T16:23:10.954Z</time>
      </trkpt>
      <trkpt lat="55.34086190164089" lon="12.162180226296186">
        <ele>17.72</ele>
        <time>2023-06-10T16:23:13.208Z</time>
      </trkpt>
      <trkpt lat="55.340777495875955" lon="12.16222976334393">
        <ele>17.66</ele>
        <time>2023-06-10T16:23:15.463Z</time>
      </trkpt>
      <trkpt lat="55.34060860052705" lon="12.16232892125845">
        <ele>17.49</ele>
        <time>2023-06-10T16:23:17.721Z</time>
      </trkpt>
      <trkpt lat="55.340482369065285" lon="12.162403101101518">
        <ele>17.4</ele>
        <time>2023-06-10T16:23:19.981Z</time>
      </trkpt>
      <trkpt lat="55.340397879481316" lon="12.162452638149261">
        <ele>17.36</ele>
        <time>2023-06-10T16:23:22.243Z</time>
      </trkpt>
      <trkpt lat="55.34022898413241" lon="12.16255179606378">
        <ele>17.36</ele>
        <time>2023-06-10T16:23:24.508Z</time>
      </trkpt>
      <trkpt lat="55.33997643738985" lon="12.162699988111854">
        <ele>17.43</ele>
        <time>2023-06-10T16:23:26.777Z</time>
      </trkpt>
      <trkpt lat="55.33976496197283" lon="12.162824207916856">
        <ele>17.41</ele>
        <time>2023-06-10T16:23:29.050Z</time>
      </trkpt>
      <trkpt lat="55.3396699950099" lon="12.162879947572947">
        <ele>17.42</ele>
        <time>2023-06-10T16:23:31.324Z</time>
      </trkpt>
      <trkpt lat="55.339552564546466" lon="12.162938620895147">
        <ele>17.44</ele>
        <time>2023-06-10T16:23:33.600Z</time>
      </trkpt>
      <trkpt lat="55.33942457288504" lon="12.163002658635378">
        <ele>17.42</ele>
        <time>2023-06-10T16:23:35.878Z</time>
      </trkpt>
      <trkpt lat="55.33936992287636" lon="12.163029983639717">
        <ele>17.38</ele>
        <time>2023-06-10T16:23:38.157Z</time>
      </trkpt>
      <trkpt lat="55.33933823928237" lon="12.163040293380618">
        <ele>17.37</ele>
        <time>2023-06-10T16:23:40.437Z</time>
      </trkpt>
      <trkpt lat="55.33911980688572" lon="12.163111288100481">
        <ele>17.12</ele>
        <time>2023-06-10T16:23:42.720Z</time>
      </trkpt>
      <trkpt lat="55.33898888155818" lon="12.16315378434956">
        <ele>17.01</ele>
        <time>2023-06-10T16:23:45.005Z</time>
      </trkpt>
      <trkpt lat="55.33896993845701" lon="12.163159986957908">
        <ele>17.01</ele>
        <time>2023-06-10T16:23:47.291Z</time>
      </trkpt>
      <trkpt lat="55.33890095539391" lon="12.163141965866089">
        <ele>17.03</ele>
        <time>2023-06-10T16:23:49.578Z</time>
      </trkpt>
      <trkpt lat="55.338813783600926" lon="12.163119250908494">
        <ele>17.02</ele>
        <time>2023-06-10T16:23:51.866Z</time>
      </trkpt>
      <trkpt lat="55.338739939033985" lon="12.1630999725312">
        <ele>16.98</ele>
        <time>2023-06-10T16:23:54.155Z</time>
      </trkpt>
      <trkpt lat="55.33864136785269" lon="12.16305068694055">
        <ele>16.93</ele>
        <time>2023-06-10T16:23:56.446Z</time>
      </trkpt>
      <trkpt lat="55.33857992850244" lon="12.163019925355911">
        <ele>16.86</ele>
        <time>2023-06-10T16:23:58.738Z</time>
      </trkpt>
      <trkpt lat="55.338516142219305" lon="12.162976590916514">
        <ele>16.8</ele>
        <time>2023-06-10T16:24:01.031Z</time>
      </trkpt>
      <trkpt lat="55.33843316137791" lon="12.162920096889138">
        <ele>16.64</ele>
        <time>2023-06-10T16:24:03.326Z</time>
      </trkpt>
      <trkpt lat="55.338350934907794" lon="12.162864189594984">
        <ele>16.42</ele>
        <time>2023-06-10T16:24:05.622Z</time>
      </trkpt>
      <trkpt lat="55.33810350112617" lon="12.162695964798331">
        <ele>15.7</ele>
        <time>2023-06-10T16:24:07.922Z</time>
      </trkpt>
      <trkpt lat="55.33802127465606" lon="12.162640057504177">
        <ele>15.44</ele>
        <time>2023-06-10T16:24:10.224Z</time>
      </trkpt>
      <trkpt lat="55.33789713867009" lon="12.16255565173924">
        <ele>15.0</ele>
        <time>2023-06-10T16:24:12.528Z</time>
      </trkpt>
      <trkpt lat="55.33782999962568" lon="12.162509970366955">
        <ele>14.74</ele>
        <time>2023-06-10T16:24:14.833Z</time>
      </trkpt>
      <trkpt lat="55.33768516033888" lon="12.162446603178978">
        <ele>14.21</ele>
        <time>2023-06-10T16:24:17.140Z</time>
      </trkpt>
      <trkpt lat="55.33766998909414" lon="12.162439981475472">
        <ele>14.16</ele>
        <time>2023-06-10T16:24:19.448Z</time>
      </trkpt>
      <trkpt lat="55.33755431883037" lon="12.162415171042085">
        <ele>13.8</ele>
        <time>2023-06-10T16:24:21.758Z</time>
      </trkpt>
      <trkpt lat="55.33752992749214" lon="12.162409974262118">
        <ele>13.74</ele>
        <time>2023-06-10T16:24:24.068Z</time>
      </trkpt>
      <trkpt lat="55.33742230385542" lon="12.162407459691167">
        <ele>13.49</ele>
        <time>2023-06-10T16:24:26.380Z</time>
      </trkpt>
      <trkpt lat="55.33737729303539" lon="12.162406370043755">
        <ele>13.4</ele>
        <time>2023-06-10T16:24:28.692Z</time>
      </trkpt>
      <trkpt lat="55.337289199233055" lon="12.162404358386993">
        <ele>13.27</ele>
        <time>2023-06-10T16:24:31.006Z</time>
      </trkpt>
      <trkpt lat="55.33711208961904" lon="12.16240025125444">
        <ele>13.08</ele>
        <time>2023-06-10T16:24:33.323Z</time>
      </trkpt>
      <trkpt lat="55.336979907006025" lon="12.162397149950266">
        <ele>12.88</ele>
        <time>2023-06-10T16:24:35.642Z</time>
      </trkpt>
      <trkpt lat="55.33689172938466" lon="12.162395138293505">
        <ele>12.77</ele>
        <time>2023-06-10T16:24:37.962Z</time>
      </trkpt>
      <trkpt lat="55.33680271357298" lon="12.162393042817712">
        <ele>12.69</ele>
        <time>2023-06-10T16:24:40.284Z</time>
      </trkpt>
      <trkpt lat="55.336670530959964" lon="12.162389941513538">
        <ele>12.62</ele>
        <time>2023-06-10T16:24:42.608Z</time>
      </trkpt>
      <trkpt lat="55.33658151514828" lon="12.162387929856777">
        <ele>12.62</ele>
        <time>2023-06-10T16:24:44.933Z</time>
      </trkpt>
      <trkpt lat="55.33649333752692" lon="12.162385834380984">
        <ele>12.65</ele>
        <time>2023-06-10T16:24:47.260Z</time>
      </trkpt>
      <trkpt lat="55.3363162279129" lon="12.16238172724843">
        <ele>12.79</ele>
        <time>2023-06-10T16:24:49.589Z</time>
      </trkpt>
      <trkpt lat="55.33618404529989" lon="12.162378625944257">
        <ele>12.94</ele>
        <time>2023-06-10T16:24:51.920Z</time>
      </trkpt>
      <trkpt lat="55.335830664262176" lon="12.162370411679149">
        <ele>13.44</ele>
        <time>2023-06-10T16:24:54.257Z</time>
      </trkpt>
      <trkpt lat="55.33580996096134" lon="12.16236999258399">
        <ele>13.5</ele>
        <time>2023-06-10T16:24:56.594Z</time>
      </trkpt>
      <trkpt lat="55.335696721449494" lon="12.16236362233758">
        <ele>13.83</ele>
        <time>2023-06-10T16:24:58.933Z</time>
      </trkpt>
      <trkpt lat="55.335472002625465" lon="12.162351049482822">
        <ele>14.68</ele>
        <time>2023-06-10T16:25:01.276Z</time>
      </trkpt>
      <trkpt lat="55.335426991805434" lon="12.162348534911871">
        <ele>14.82</ele>
        <time>2023-06-10T16:25:03.620Z</time>
      </trkpt>
      <trkpt lat="55.335337137803435" lon="12.162343505769968">
        <ele>15.02</ele>
        <time>2023-06-10T16:25:05.965Z</time>
      </trkpt>
      <trkpt lat="55.335247283801436" lon="12.162338476628065">
        <ele>15.14</ele>
        <time>2023-06-10T16:25:08.312Z</time>
      </trkpt>
      <trkpt lat="55.334978476166725" lon="12.162323473021388">
        <ele>15.38</ele>
        <time>2023-06-10T16:25:10.663Z</time>
      </trkpt>
      <trkpt lat="55.334888622164726" lon="12.162318443879485">
        <ele>15.44</ele>
        <time>2023-06-10T16:25:13.015Z</time>
      </trkpt>
      <trkpt lat="55.334798684343696" lon="12.162313414737582">
        <ele>15.47</ele>
        <time>2023-06-10T16:25:15.369Z</time>
      </trkpt>
      <trkpt lat="55.3346189763397" lon="12.162303356453776">
        <ele>15.48</ele>
        <time>2023-06-10T16:25:17.726Z</time>
      </trkpt>
      <trkpt lat="55.334379924461246" lon="12.162289945408702">
        <ele>15.57</ele>
        <time>2023-06-10T16:25:20.086Z</time>
      </trkpt>
      <trkpt lat="55.33435042016208" lon="12.162282820791006">
        <ele>15.59</ele>
        <time>2023-06-10T16:25:22.447Z</time>
      </trkpt>
      <trkpt lat="55.33408999443054" lon="12.16221995651722">
        <ele>15.61</ele>
        <time>2023-06-10T16:25:24.812Z</time>
      </trkpt>
      <trkpt lat="55.33373024314642" lon="12.162104370072484">
        <ele>15.66</ele>
        <time>2023-06-10T16:25:27.183Z</time>
      </trkpt>
      <trkpt lat="55.33342061564326" lon="12.162004793062806">
        <ele>15.6</ele>
        <time>2023-06-10T16:25:29.559Z</time>
      </trkpt>
      <trkpt lat="55.33324996009469" lon="12.161949975416064">
        <ele>15.58</ele>
        <time>2023-06-10T16:25:31.938Z</time>
      </trkpt>
      <trkpt lat="55.33288534730673" lon="12.16191259212792">
        <ele>15.55</ele>
        <time>2023-06-10T16:25:34.323Z</time>
      </trkpt>
      <trkpt lat="55.33285995014012" lon="12.161909993737936">
        <ele>15.53</ele>
        <time>2023-06-10T16:25:36.708Z</time>
      </trkpt>
      <trkpt lat="55.33279549330473" lon="12.161908065900207">
        <ele>15.51</ele>
        <time>2023-06-10T16:25:39.094Z</time>
      </trkpt>
      <trkpt lat="55.33251998014748" lon="12.16189993545413">
        <ele>15.3</ele>
        <time>2023-06-10T16:25:41.485Z</time>
      </trkpt>
      <trkpt lat="55.33251998014748" lon="12.16189993545413">
        <ele>15.3</ele>
        <time>2023-06-10T16:25:43.876Z</time>
      </trkpt>
      <trkpt lat="55.33243674784899" lon="12.161904210224748">
        <ele>15.26</ele>
        <time>2023-06-10T16:25:46.268Z</time>
      </trkpt>
      <trkpt lat="55.33234681002796" lon="12.161908820271492">
        <ele>15.25</ele>
        <time>2023-06-10T16:25:48.661Z</time>
      </trkpt>
      <trkpt lat="55.33212301321328" lon="12.161920303478837">
        <ele>15.24</ele>
        <time>2023-06-10T16:25:51.058Z</time>
      </trkpt>
      <trkpt lat="55.33198814839125" lon="12.16192726045847">
        <ele>15.26</ele>
        <time>2023-06-10T16:25:53.457Z</time>
      </trkpt>
      <trkpt lat="55.33173996023834" lon="12.161939917132258">
        <ele>15.38</ele>
        <time>2023-06-10T16:25:55.860Z</time>
      </trkpt>
      <trkpt lat="55.33163711428642" lon="12.161868754774332">
        <ele>15.44</ele>
        <time>2023-06-10T16:25:58.265Z</time>
      </trkpt>
      <trkpt lat="55.33160995692015" lon="12.161849979311228">
        <ele>15.38</ele>
        <time>2023-06-10T16:26:00.670Z</time>
      </trkpt>
      <trkpt lat="55.33155991695821" lon="12.161689968779683">
        <ele>15.2</ele>
        <time>2023-06-10T16:26:03.077Z</time>
      </trkpt>
      <trkpt lat="55.331539968028665" lon="12.161509925499558">
        <ele>15.01</ele>
        <time>2023-06-10T16:26:05.486Z</time>
      </trkpt>
      <trkpt lat="55.3315363638103" lon="12.161373971030116">
        <ele>14.88</ele>
        <time>2023-06-10T16:26:07.896Z</time>
      </trkpt>
      <trkpt lat="55.331530161201954" lon="12.161137098446488">
        <ele>14.72</ele>
        <time>2023-06-10T16:26:10.308Z</time>
      </trkpt>
      <trkpt lat="55.331505350768566" lon="12.160191116854548">
        <ele>14.42</ele>
        <time>2023-06-10T16:26:12.729Z</time>
      </trkpt>
      <trkpt lat="55.33149286173284" lon="12.159717287868261">
        <ele>14.32</ele>
        <time>2023-06-10T16:26:15.154Z</time>
      </trkpt>
      <trkpt lat="55.33146796748042" lon="12.158769713714719">
        <ele>14.34</ele>
        <time>2023-06-10T16:26:17.588Z</time>
      </trkpt>
      <trkpt lat="55.33144315704703" lon="12.157823648303747">
        <ele>14.33</ele>
        <time>2023-06-10T16:26:20.030Z</time>
      </trkpt>
      <trkpt lat="55.331436954438686" lon="12.15758677572012">
        <ele>14.35</ele>
        <time>2023-06-10T16:26:22.474Z</time>
      </trkpt>
      <trkpt lat="55.3314327634871" lon="12.157428860664368">
        <ele>14.41</ele>
        <time>2023-06-10T16:26:24.920Z</time>
      </trkpt>
      <trkpt lat="55.33143075183034" lon="12.157349903136492">
        <ele>14.46</ele>
        <time>2023-06-10T16:26:27.367Z</time>
      </trkpt>
      <trkpt lat="55.331426560878754" lon="12.15719198808074">
        <ele>14.59</ele>
        <time>2023-06-10T16:26:29.815Z</time>
      </trkpt>
      <trkpt lat="55.33141993917525" lon="12.156939944252372">
        <ele>14.83</ele>
        <time>2023-06-10T16:26:32.265Z</time>
      </trkpt>
      <trkpt lat="55.33140535466373" lon="12.156881438568234">
        <ele>14.9</ele>
        <time>2023-06-10T16:26:34.716Z</time>
      </trkpt>
      <trkpt lat="55.331389931961894" lon="12.156819999217987">
        <ele>14.92</ele>
        <time>2023-06-10T16:26:37.168Z</time>
      </trkpt>
      <trkpt lat="55.331355817615986" lon="12.156751602888107">
        <ele>14.96</ele>
        <time>2023-06-10T16:26:39.620Z</time>
      </trkpt>
      <trkpt lat="55.33133997581899" lon="12.156719919294119">
        <ele>14.95</ele>
        <time>2023-06-10T16:26:42.073Z</time>
      </trkpt>
      <trkpt lat="55.33132120035589" lon="12.156703490763903">
        <ele>14.95</ele>
        <time>2023-06-10T16:26:44.526Z</time>
      </trkpt>
      <trkpt lat="55.3312599286437" lon="12.156649930402637">
        <ele>14.88</ele>
        <time>2023-06-10T16:26:46.980Z</time>
      </trkpt>
      <trkpt lat="55.331061612814665" lon="12.156588239595294">
        <ele>14.68</ele>
        <time>2023-06-10T16:26:49.437Z</time>
      </trkpt>
      <trkpt lat="55.330929681658745" lon="12.156547168269753">
        <ele>14.59</ele>
        <time>2023-06-10T16:26:51.897Z</time>
      </trkpt>
      <trkpt lat="55.33061971887946" lon="12.15645077638328">
        <ele>14.5</ele>
        <time>2023-06-10T16:26:54.362Z</time>
      </trkpt>
      <trkpt lat="55.33053120598197" lon="12.156423199921846">
        <ele>14.51</ele>
        <time>2023-06-10T16:26:56.828Z</time>
      </trkpt>
      <trkpt lat="55.330354096367955" lon="12.156368046998978">
        <ele>14.58</ele>
        <time>2023-06-10T16:26:59.297Z</time>
      </trkpt>
      <trkpt lat="55.33026549965143" lon="12.156340554356575">
        <ele>14.64</ele>
        <time>2023-06-10T16:27:01.767Z</time>
      </trkpt>
      <trkpt lat="55.33017698675394" lon="12.15631297789514">
        <ele>14.74</ele>
        <time>2023-06-10T16:27:04.239Z</time>
      </trkpt>
      <trkpt lat="55.3299112804234" lon="12.15623033232987">
        <ele>15.12</ele>
        <time>2023-06-10T16:27:06.715Z</time>
      </trkpt>
      <trkpt lat="55.329867945984006" lon="12.156216753646731">
        <ele>15.17</ele>
        <time>2023-06-10T16:27:09.192Z</time>
      </trkpt>
      <trkpt lat="55.32982360571623" lon="12.15620300732553">
        <ele>15.19</ele>
        <time>2023-06-10T16:27:11.670Z</time>
      </trkpt>
      <trkpt lat="55.32973509281874" lon="12.156175430864096">
        <ele>15.17</ele>
        <time>2023-06-10T16:27:14.149Z</time>
      </trkpt>
      <trkpt lat="55.329513642936945" lon="12.156106531620026">
        <ele>14.92</ele>
        <time>2023-06-10T16:27:16.632Z</time>
      </trkpt>
      <trkpt lat="55.32942513003945" lon="12.156079038977623">
        <ele>14.86</ele>
        <time>2023-06-10T16:27:19.116Z</time>
      </trkpt>
      <trkpt lat="55.32911516726017" lon="12.155982563272119">
        <ele>14.8</ele>
        <time>2023-06-10T16:27:21.605Z</time>
      </trkpt>
      <trkpt lat="55.32902665436268" lon="12.155954986810684">
        <ele>14.81</ele>
        <time>2023-06-10T16:27:24.096Z</time>
      </trkpt>
      <trkpt lat="55.328673273324966" lon="12.155845100060105">
        <ele>14.95</ele>
        <time>2023-06-10T16:27:26.592Z</time>
      </trkpt>
      <trkpt lat="55.328584760427475" lon="12.155817523598671">
        <ele>15.0</ele>
        <time>2023-06-10T16:27:29.090Z</time>
      </trkpt>
      <trkpt lat="55.32836331054568" lon="12.155748624354601">
        <ele>15.25</ele>
        <time>2023-06-10T16:27:31.591Z</time>
      </trkpt>
      <trkpt lat="55.32805343158543" lon="12.155652148649096">
        <ele>15.52</ele>
        <time>2023-06-10T16:27:34.097Z</time>
      </trkpt>
      <trkpt lat="55.32796483486891" lon="12.155624656006694">
        <ele>15.62</ele>
        <time>2023-06-10T16:27:36.605Z</time>
      </trkpt>
      <trkpt lat="55.32792057842016" lon="12.15561082586646">
        <ele>15.69</ele>
        <time>2023-06-10T16:27:39.114Z</time>
      </trkpt>
      <trkpt lat="55.32783198170364" lon="12.155583249405026">
        <ele>15.92</ele>
        <time>2023-06-10T16:27:41.624Z</time>
      </trkpt>
      <trkpt lat="55.327654872089624" lon="12.15552818030119">
        <ele>16.58</ele>
        <time>2023-06-10T16:27:44.137Z</time>
      </trkpt>
      <trkpt lat="55.32761061564088" lon="12.155514433979988">
        <ele>16.73</ele>
        <time>2023-06-10T16:27:46.651Z</time>
      </trkpt>
      <trkpt lat="55.327522940933704" lon="12.155487108975649">
        <ele>16.99</ele>
        <time>2023-06-10T16:27:49.166Z</time>
      </trkpt>
      <trkpt lat="55.327499974519014" lon="12.155479984357953">
        <ele>16.94</ele>
        <time>2023-06-10T16:27:51.681Z</time>
      </trkpt>
      <trkpt lat="55.32754121348262" lon="12.154974471777678">
        <ele>16.36</ele>
        <time>2023-06-10T16:27:54.201Z</time>
      </trkpt>
      <trkpt lat="55.32757306471467" lon="12.154584797099233">
        <ele>16.0</ele>
        <time>2023-06-10T16:27:56.725Z</time>
      </trkpt>
      <trkpt lat="55.3275921754539" lon="12.15435010381043">
        <ele>15.84</ele>
        <time>2023-06-10T16:27:59.251Z</time>
      </trkpt>
      <trkpt lat="55.3276112023741" lon="12.154116919264197">
        <ele>15.71</ele>
        <time>2023-06-10T16:28:01.779Z</time>
      </trkpt>
      <trkpt lat="55.3276199195534" lon="12.154009966179729">
        <ele>15.68</ele>
        <time>2023-06-10T16:28:04.308Z</time>
      </trkpt>
      <trkpt lat="55.3276199195534" lon="12.15380184352398">
        <ele>15.63</ele>
        <time>2023-06-10T16:28:06.839Z</time>
      </trkpt>
      <trkpt lat="55.3276199195534" lon="12.153579974547029">
        <ele>15.64</ele>
        <time>2023-06-10T16:28:09.372Z</time>
      </trkpt>
      <trkpt lat="55.32761514186859" lon="12.153408480808139">
        <ele>15.66</ele>
        <time>2023-06-10T16:28:11.907Z</time>
      </trkpt>
      <trkpt lat="55.32759737223387" lon="12.152778496965766">
        <ele>15.79</ele>
        <time>2023-06-10T16:28:14.447Z</time>
      </trkpt>
      <trkpt lat="55.32758412882686" lon="12.152306344360113">
        <ele>15.85</ele>
        <time>2023-06-10T16:28:16.992Z</time>
      </trkpt>
      <trkpt lat="55.32756417989731" lon="12.151598995551467">
        <ele>16.05</ele>
        <time>2023-06-10T16:28:19.543Z</time>
      </trkpt>
      <trkpt lat="55.32755973748863" lon="12.151441080495715">
        <ele>16.08</ele>
        <time>2023-06-10T16:28:22.096Z</time>
      </trkpt>
      <trkpt lat="55.32755311578512" lon="12.15120429173112">
        <ele>16.06</ele>
        <time>2023-06-10T16:28:24.651Z</time>
      </trkpt>
      <trkpt lat="55.32753978855908" lon="12.150732139125466">
        <ele>15.99</ele>
        <time>2023-06-10T16:28:27.210Z</time>
      </trkpt>
      <trkpt lat="55.32752654515207" lon="12.150260070338845">
        <ele>15.82</ele>
        <time>2023-06-10T16:28:29.773Z</time>
      </trkpt>
      <trkpt lat="55.32752210274339" lon="12.150103747844696">
        <ele>15.8</ele>
        <time>2023-06-10T16:28:32.338Z</time>
      </trkpt>
      <trkpt lat="55.32751992344856" lon="12.15002479031682">
        <ele>15.81</ele>
        <time>2023-06-10T16:28:34.904Z</time>
      </trkpt>
      <trkpt lat="55.327513217926025" lon="12.149788001552224">
        <ele>15.9</ele>
        <time>2023-06-10T16:28:37.472Z</time>
      </trkpt>
      <trkpt lat="55.327508775517344" lon="12.149630086496472">
        <ele>16.0</ele>
        <time>2023-06-10T16:28:40.041Z</time>
      </trkpt>
      <trkpt lat="55.32750215381384" lon="12.149394806474447">
        <ele>16.18</ele>
        <time>2023-06-10T16:28:42.612Z</time>
      </trkpt>
      <trkpt lat="55.32749771140516" lon="12.149236975237727">
        <ele>16.27</ele>
        <time>2023-06-10T16:28:45.185Z</time>
      </trkpt>
      <trkpt lat="55.32748891040683" lon="12.148922737687826">
        <ele>16.34</ele>
        <time>2023-06-10T16:28:47.761Z</time>
      </trkpt>
      <trkpt lat="55.32747340388596" lon="12.14837171137333">
        <ele>16.39</ele>
        <time>2023-06-10T16:28:50.342Z</time>
      </trkpt>
      <trkpt lat="55.3274645190686" lon="12.148057473823428">
        <ele>16.45</ele>
        <time>2023-06-10T16:28:52.926Z</time>
      </trkpt>
      <trkpt lat="55.32745789736509" lon="12.147820685058832">
        <ele>16.56</ele>
        <time>2023-06-10T16:28:55.512Z</time>
      </trkpt>
      <trkpt lat="55.32745127566159" lon="12.147585405036807">
        <ele>16.76</ele>
        <time>2023-06-10T16:28:58.100Z</time>
      </trkpt>
      <trkpt lat="55.32744993455708" lon="12.147539975121617">
        <ele>16.72</ele>
        <time>2023-06-10T16:29:00.688Z</time>
      </trkpt>
      <trkpt lat="55.327344574034214" lon="12.14751516468823">
        <ele>16.57</ele>
        <time>2023-06-10T16:29:03.278Z</time>
      </trkpt>
      <trkpt lat="55.32727994956076" lon="12.147499993443489">
        <ele>16.45</ele>
        <time>2023-06-10T16:29:05.869Z</time>
      </trkpt>
      <trkpt lat="55.32717341557145" lon="12.147439308464527">
        <ele>16.25</ele>
        <time>2023-06-10T16:29:08.462Z</time>
      </trkpt>
      <trkpt lat="55.327089596539736" lon="12.147391615435481">
        <ele>16.11</ele>
        <time>2023-06-10T16:29:11.056Z</time>
      </trkpt>
      <trkpt lat="55.326711405068636" lon="12.147176284343004">
        <ele>15.59</ele>
        <time>2023-06-10T16:29:13.657Z</time>
      </trkpt>
      <trkpt lat="55.326543767005205" lon="12.14708081446588">
        <ele>15.41</ele>
        <time>2023-06-10T16:29:16.260Z</time>
      </trkpt>
      <trkpt lat="55.32641711644828" lon="12.147008730098605">
        <ele>15.35</ele>
        <time>2023-06-10T16:29:18.866Z</time>
      </trkpt>
      <trkpt lat="55.32633329741657" lon="12.146961037069559">
        <ele>15.36</ele>
        <time>2023-06-10T16:29:21.473Z</time>
      </trkpt>
      <trkpt lat="55.32608083449304" lon="12.146817287430167">
        <ele>15.48</ele>
        <time>2023-06-10T16:29:24.084Z</time>
      </trkpt>
      <trkpt lat="55.325997015461326" lon="12.146769594401121">
        <ele>15.54</ele>
        <time>2023-06-10T16:29:26.697Z</time>
      </trkpt>
      <trkpt lat="55.32570356503129" lon="12.146602543070912">
        <ele>15.83</ele>
        <time>2023-06-10T16:29:29.315Z</time>
      </trkpt>
      <trkpt lat="55.325410114601254" lon="12.146435407921672">
        <ele>16.31</ele>
        <time>2023-06-10T16:29:31.938Z</time>
      </trkpt>
      <trkpt lat="55.32528346404433" lon="12.146363323554397">
        <ele>16.54</ele>
        <time>2023-06-10T16:29:34.563Z</time>
      </trkpt>
      <trkpt lat="55.32525999471545" lon="12.146349996328354">
        <ele>16.56</ele>
        <time>2023-06-10T16:29:37.188Z</time>
      </trkpt>
      <trkpt lat="55.32511632889509" lon="12.14626525528729">
        <ele>16.7</ele>
        <time>2023-06-10T16:29:39.815Z</time>
      </trkpt>
      <trkpt lat="55.32503276132047" lon="12.146215969696641">
        <ele>16.82</ele>
        <time>2023-06-10T16:29:42.444Z</time>
      </trkpt>
      <trkpt lat="55.324907368049026" lon="12.1461421251297">
        <ele>17.05</ele>
        <time>2023-06-10T16:29:45.075Z</time>
      </trkpt>
      <trkpt lat="55.32469849102199" lon="12.146018911153078">
        <ele>17.48</ele>
        <time>2023-06-10T16:29:47.710Z</time>
      </trkpt>
      <trkpt lat="55.32461492344737" lon="12.145969709381461">
        <ele>17.63</ele>
        <time>2023-06-10T16:29:50.346Z</time>
      </trkpt>
      <trkpt lat="55.324489613994956" lon="12.145895780995488">
        <ele>17.83</ele>
        <time>2023-06-10T16:29:52.984Z</time>
      </trkpt>
      <trkpt lat="55.32436422072351" lon="12.145821936428547">
        <ele>18.0</ele>
        <time>2023-06-10T16:29:55.624Z</time>
      </trkpt>
      <trkpt lat="55.32428073696792" lon="12.145772650837898">
        <ele>18.09</ele>
        <time>2023-06-10T16:29:58.266Z</time>
      </trkpt>
      <trkpt lat="55.3241971693933" lon="12.14572336524725">
        <ele>18.15</ele>
        <time>2023-06-10T16:30:00.909Z</time>
      </trkpt>
      <trkpt lat="55.32394730485976" lon="12.145576095208526">
        <ele>18.17</ele>
        <time>2023-06-10T16:30:03.556Z</time>
      </trkpt>
      <trkpt lat="55.32391997985542" lon="12.145559918135405">
        <ele>18.15</ele>
        <time>2023-06-10T16:30:06.204Z</time>
      </trkpt>
      <trkpt lat="55.32381981611252" lon="12.145503675565124">
        <ele>18.12</ele>
        <time>2023-06-10T16:30:08.853Z</time>
      </trkpt>
      <trkpt lat="55.32352175563574" lon="12.145336121320724">
        <ele>18.13</ele>
        <time>2023-06-10T16:30:11.507Z</time>
      </trkpt>
      <trkpt lat="55.32313878647983" lon="12.145120957866311">
        <ele>18.07</ele>
        <time>2023-06-10T16:30:14.168Z</time>
      </trkpt>
      <trkpt lat="55.322797894477844" lon="12.14492934755981">
        <ele>17.92</ele>
        <time>2023-06-10T16:30:16.835Z</time>
      </trkpt>
      <trkpt lat="55.322627406567335" lon="12.144833542406559">
        <ele>17.96</ele>
        <time>2023-06-10T16:30:19.504Z</time>
      </trkpt>
      <trkpt lat="55.322499834001064" lon="12.14476179331541">
        <ele>18.07</ele>
        <time>2023-06-10T16:30:22.176Z</time>
      </trkpt>
      <trkpt lat="55.32220252789557" lon="12.144594741985202">
        <ele>18.39</ele>
        <time>2023-06-10T16:30:24.853Z</time>
      </trkpt>
      <trkpt lat="55.32203212380409" lon="12.144498936831951">
        <ele>18.62</ele>
        <time>2023-06-10T16:30:27.532Z</time>
      </trkpt>
      <trkpt lat="55.32164923846722" lon="12.144283773377538">
        <ele>19.2</ele>
        <time>2023-06-10T16:30:30.218Z</time>
      </trkpt>
      <trkpt lat="55.32133994624019" lon="12.14410993270576">
        <ele>19.58</ele>
        <time>2023-06-10T16:30:32.909Z</time>
      </trkpt>
      <trkpt lat="55.321223102509975" lon="12.14404639787972">
        <ele>19.73</ele>
        <time>2023-06-10T16:30:35.602Z</time>
      </trkpt>
      <trkpt lat="55.321095110848546" lon="12.143976744264364">
        <ele>19.86</ele>
        <time>2023-06-10T16:30:38.297Z</time>
      </trkpt>
      <trkpt lat="55.32071113586426" lon="12.143767783418298">
        <ele>20.16</ele>
        <time>2023-06-10T16:30:40.999Z</time>
      </trkpt>
      <trkpt lat="55.32049722969532" lon="12.143651358783245">
        <ele>20.27</ele>
        <time>2023-06-10T16:30:43.704Z</time>
      </trkpt>
      <trkpt lat="55.32019824720919" lon="12.143488666042686">
        <ele>20.37</ele>
        <time>2023-06-10T16:30:46.414Z</time>
      </trkpt>
      <trkpt lat="55.31994226388633" lon="12.143349358811975">
        <ele>20.48</ele>
        <time>2023-06-10T16:30:49.129Z</time>
      </trkpt>
      <trkpt lat="55.319387298077345" lon="12.143047358840704">
        <ele>20.55</ele>
        <time>2023-06-10T16:30:51.853Z</time>
      </trkpt>
      <trkpt lat="55.31921714544296" lon="12.142954738810658">
        <ele>20.55</ele>
        <time>2023-06-10T16:30:54.580Z</time>
      </trkpt>
      <trkpt lat="55.31918998807669" lon="12.142939986661077">
        <ele>20.49</ele>
        <time>2023-06-10T16:30:57.307Z</time>
      </trkpt>
      <trkpt lat="55.3191324044019" lon="12.142907129600644">
        <ele>20.37</ele>
        <time>2023-06-10T16:31:00.035Z</time>
      </trkpt>
      <trkpt lat="55.31908957287669" lon="12.142882738262415">
        <ele>20.31</ele>
        <time>2023-06-10T16:31:02.764Z</time>
      </trkpt>
      <trkpt lat="55.319047663360834" lon="12.142858849838376">
        <ele>20.28</ele>
        <time>2023-06-10T16:31:05.494Z</time>
      </trkpt>
      <trkpt lat="55.31879276968539" lon="12.142713507637382">
        <ele>20.21</ele>
        <time>2023-06-10T16:31:08.228Z</time>
      </trkpt>
      <trkpt lat="55.318495044484735" lon="12.142543774098158">
        <ele>20.22</ele>
        <time>2023-06-10T16:31:10.967Z</time>
      </trkpt>
      <trkpt lat="55.31802884303033" lon="12.142277983948588">
        <ele>20.29</ele>
        <time>2023-06-10T16:31:13.714Z</time>
      </trkpt>
      <trkpt lat="55.3173915669322" lon="12.141914712265134">
        <ele>20.53</ele>
        <time>2023-06-10T16:31:16.472Z</time>
      </trkpt>
      <trkpt lat="55.31730690971017" lon="12.141866432502866">
        <ele>20.55</ele>
        <time>2023-06-10T16:31:19.231Z</time>
      </trkpt>
      <trkpt lat="55.31704992055893" lon="12.141719916835427">
        <ele>20.49</ele>
        <time>2023-06-10T16:31:21.994Z</time>
      </trkpt>
      <trkpt lat="55.31686996109784" lon="12.141579939052463">
        <ele>20.45</ele>
        <time>2023-06-10T16:31:24.760Z</time>
      </trkpt>
      <trkpt lat="55.316737527027726" lon="12.141428226605058">
        <ele>20.42</ele>
        <time>2023-06-10T16:31:27.529Z</time>
      </trkpt>
      <trkpt lat="55.316400742158294" lon="12.141042491421103">
        <ele>20.43</ele>
        <time>2023-06-10T16:31:30.304Z</time>
      </trkpt>
      <trkpt lat="55.31631994061172" lon="12.14094995521009">
        <ele>20.39</ele>
        <time>2023-06-10T16:31:33.081Z</time>
      </trkpt>
      <trkpt lat="55.31631994061172" lon="12.14094995521009">
        <ele>20.39</ele>
        <time>2023-06-10T16:31:35.858Z</time>
      </trkpt>
      <trkpt lat="55.31616160646081" lon="12.140838140621781">
        <ele>20.25</ele>
        <time>2023-06-10T16:31:38.638Z</time>
      </trkpt>
      <trkpt lat="55.3161499556154" lon="12.140829926356673">
        <ele>20.24</ele>
        <time>2023-06-10T16:31:41.418Z</time>
      </trkpt>
      <trkpt lat="55.316030429676175" lon="12.140791788697243">
        <ele>20.18</ele>
        <time>2023-06-10T16:31:44.200Z</time>
      </trkpt>
      <trkpt lat="55.3157667350024" lon="12.1407076343894">
        <ele>20.1</ele>
        <time>2023-06-10T16:31:46.986Z</time>
      </trkpt>
      <trkpt lat="55.31563488766551" lon="12.14066555723548">
        <ele>20.09</ele>
        <time>2023-06-10T16:31:49.774Z</time>
      </trkpt>
      <trkpt lat="55.315371276810765" lon="12.140581319108605">
        <ele>20.14</ele>
        <time>2023-06-10T16:31:52.567Z</time>
      </trkpt>
      <trkpt lat="55.31523942947388" lon="12.140539241954684">
        <ele>20.2</ele>
        <time>2023-06-10T16:31:55.362Z</time>
      </trkpt>
      <trkpt lat="55.315019991248846" lon="12.14046916924417">
        <ele>20.36</ele>
        <time>2023-06-10T16:31:58.160Z</time>
      </trkpt>
      <trkpt lat="55.314800553023815" lon="12.140399180352688">
        <ele>20.56</ele>
        <time>2023-06-10T16:32:00.962Z</time>
      </trkpt>
      <trkpt lat="55.314581114798784" lon="12.140329107642174">
        <ele>20.71</ele>
        <time>2023-06-10T16:32:03.768Z</time>
      </trkpt>
      <trkpt lat="55.31449344009161" lon="12.14030111208558">
        <ele>20.8</ele>
        <time>2023-06-10T16:32:06.575Z</time>
      </trkpt>
      <trkpt lat="55.31440584920347" lon="12.14027320034802">
        <ele>20.92</ele>
        <time>2023-06-10T16:32:09.383Z</time>
      </trkpt>
      <trkpt lat="55.31418557278812" lon="12.140202792361379">
        <ele>21.31</ele>
        <time>2023-06-10T16:32:12.195Z</time>
      </trkpt>
      <trkpt lat="55.31405456364155" lon="12.140161050483584">
        <ele>21.5</ele>
        <time>2023-06-10T16:32:15.009Z</time>
      </trkpt>
      <trkpt lat="55.31401994638145" lon="12.140149986371398">
        <ele>21.47</ele>
        <time>2023-06-10T16:32:17.824Z</time>
      </trkpt>
      <trkpt lat="55.31403704546392" lon="12.139980588108301">
        <ele>21.42</ele>
        <time>2023-06-10T16:32:20.640Z</time>
      </trkpt>
      <trkpt lat="55.31406034715474" lon="12.139750337228179">
        <ele>21.37</ele>
        <time>2023-06-10T16:32:23.458Z</time>
      </trkpt>
      <trkpt lat="55.31410996802151" lon="12.139259995892644">
        <ele>21.29</ele>
        <time>2023-06-10T16:32:26.281Z</time>
      </trkpt>
      <trkpt lat="55.31411633826792" lon="12.139210877940059">
        <ele>21.29</ele>
        <time>2023-06-10T16:32:29.104Z</time>
      </trkpt>
      <trkpt lat="55.314176101237535" lon="12.138753477483988">
        <ele>21.27</ele>
        <time>2023-06-10T16:32:31.932Z</time>
      </trkpt>
      <trkpt lat="55.31431557610631" lon="12.137686042115092">
        <ele>21.3</ele>
        <time>2023-06-10T16:32:34.770Z</time>
      </trkpt>
      <trkpt lat="55.31439998187125" lon="12.13703996501863">
        <ele>21.27</ele>
        <time>2023-06-10T16:32:37.614Z</time>
      </trkpt>
      <trkpt lat="55.31442906707525" lon="12.136770570650697">
        <ele>21.27</ele>
        <time>2023-06-10T16:32:40.460Z</time>
      </trkpt>
      <trkpt lat="55.31451213173568" lon="12.136002033948898">
        <ele>21.07</ele>
        <time>2023-06-10T16:32:43.313Z</time>
      </trkpt>
      <trkpt lat="55.31451992690563" lon="12.135929949581623">
        <ele>21.06</ele>
        <time>2023-06-10T16:32:46.167Z</time>
      </trkpt>
      <trkpt lat="55.31458673067391" lon="12.135150851681828">
        <ele>20.97</ele>
        <time>2023-06-10T16:32:49.028Z</time>
      </trkpt>
      <trkpt lat="55.314609948545694" lon="12.134879948571324">
        <ele>20.94</ele>
        <time>2023-06-10T16:32:51.892Z</time>
      </trkpt>
      <trkpt lat="55.314628556370735" lon="12.134531177580357">
        <ele>20.92</ele>
        <time>2023-06-10T16:32:54.759Z</time>
      </trkpt>
      <trkpt lat="55.31465764157474" lon="12.133985180407763">
        <ele>20.78</ele>
        <time>2023-06-10T16:32:57.631Z</time>
      </trkpt>
      <trkpt lat="55.31467432156205" lon="12.133673625066876">
        <ele>20.8</ele>
        <time>2023-06-10T16:33:00.506Z</time>
      </trkpt>
      <trkpt lat="55.314686726778746" lon="12.133440775796771">
        <ele>20.91</ele>
        <time>2023-06-10T16:33:03.383Z</time>
      </trkpt>
      <trkpt lat="55.31468999572098" lon="12.133379923179746">
        <ele>20.9</ele>
        <time>2023-06-10T16:33:06.261Z</time>
      </trkpt>
      <trkpt lat="55.314714051783085" lon="12.13258565403521">
        <ele>20.79</ele>
        <time>2023-06-10T16:33:09.146Z</time>
      </trkpt>
      <trkpt lat="55.314728217199445" lon="12.13211853057146">
        <ele>20.67</ele>
        <time>2023-06-10T16:33:12.035Z</time>
      </trkpt>
      <trkpt lat="55.31472997739911" lon="12.132059941068292">
        <ele>20.64</ele>
        <time>2023-06-10T16:33:14.925Z</time>
      </trkpt>
      <trkpt lat="55.31472830101848" lon="12.131731370463967">
        <ele>20.52</ele>
        <time>2023-06-10T16:33:17.818Z</time>
      </trkpt>
      <trkpt lat="55.31472511589527" lon="12.131110355257988">
        <ele>20.38</ele>
        <time>2023-06-10T16:33:20.716Z</time>
      </trkpt>
      <trkpt lat="55.31472276896238" lon="12.130644153803587">
        <ele>20.31</ele>
        <time>2023-06-10T16:33:23.619Z</time>
      </trkpt>
      <trkpt lat="55.314719919115305" lon="12.130089942365885">
        <ele>20.17</ele>
        <time>2023-06-10T16:33:26.527Z</time>
      </trkpt>
      <trkpt lat="55.31470223329961" lon="12.129713091999292">
        <ele>20.08</ele>
        <time>2023-06-10T16:33:29.438Z</time>
      </trkpt>
      <trkpt lat="55.314694941043854" lon="12.129558781161904">
        <ele>20.06</ele>
        <time>2023-06-10T16:33:32.351Z</time>
      </trkpt>
      <trkpt lat="55.31467666849494" lon="12.129171285778284">
        <ele>20.1</ele>
        <time>2023-06-10T16:33:35.267Z</time>
      </trkpt>
      <trkpt lat="55.31464389525354" lon="12.128475168719888">
        <ele>20.07</ele>
        <time>2023-06-10T16:33:38.189Z</time>
      </trkpt>
      <trkpt lat="55.314632998779416" lon="12.12824366055429">
        <ele>20.09</ele>
        <time>2023-06-10T16:33:41.114Z</time>
      </trkpt>
      <trkpt lat="55.314629981294274" lon="12.128179958090186">
        <ele>20.08</ele>
        <time>2023-06-10T16:33:44.039Z</time>
      </trkpt>
      <trkpt lat="55.3146131336689" lon="12.12799496948719">
        <ele>20.08</ele>
        <time>2023-06-10T16:33:46.966Z</time>
      </trkpt>
      <trkpt lat="55.314572313800454" lon="12.127545531839132">
        <ele>20.0</ele>
        <time>2023-06-10T16:33:49.897Z</time>
      </trkpt>
      <trkpt lat="55.314538115635514" lon="12.127169435843825">
        <ele>19.98</ele>
        <time>2023-06-10T16:33:52.832Z</time>
      </trkpt>
      <trkpt lat="55.314490254968405" lon="12.126643555238843">
        <ele>20.01</ele>
        <time>2023-06-10T16:33:55.771Z</time>
      </trkpt>
      <trkpt lat="55.314456056803465" lon="12.126267459243536">
        <ele>20.1</ele>
        <time>2023-06-10T16:33:58.714Z</time>
      </trkpt>
      <trkpt lat="55.314435521140695" lon="12.126041147857904">
        <ele>20.2</ele>
        <time>2023-06-10T16:34:01.659Z</time>
      </trkpt>
      <trkpt lat="55.3144299890846" lon="12.125979959964752">
        <ele>20.19</ele>
        <time>2023-06-10T16:34:04.605Z</time>
      </trkpt>
      <trkpt lat="55.31436645425856" lon="12.125440165400505">
        <ele>20.11</ele>
        <time>2023-06-10T16:34:07.556Z</time>
      </trkpt>
      <trkpt lat="55.31432236544788" lon="12.1250656619668">
        <ele>20.1</ele>
        <time>2023-06-10T16:34:10.510Z</time>
      </trkpt>
      <trkpt lat="55.314309960231185" lon="12.124959966167808">
        <ele>20.1</ele>
        <time>2023-06-10T16:34:13.465Z</time>
      </trkpt>
      <trkpt lat="55.314293364062905" lon="12.124840691685677">
        <ele>20.12</ele>
        <time>2023-06-10T16:34:16.421Z</time>
      </trkpt>
      <trkpt lat="55.314251873642206" lon="12.124542882665992">
        <ele>20.2</ele>
        <time>2023-06-10T16:34:19.380Z</time>
      </trkpt>
      <trkpt lat="55.31417911872268" lon="12.124021025374532">
        <ele>20.47</ele>
        <time>2023-06-10T16:34:22.344Z</time>
      </trkpt>
      <trkpt lat="55.31414810568094" lon="12.123798402026296">
        <ele>20.54</ele>
        <time>2023-06-10T16:34:25.310Z</time>
      </trkpt>
      <trkpt lat="55.314139975234866" lon="12.12373998016119">
        <ele>20.5</ele>
        <time>2023-06-10T16:34:28.277Z</time>
      </trkpt>
      <trkpt lat="55.31387041322887" lon="12.123857997357845">
        <ele>20.23</ele>
        <time>2023-06-10T16:34:31.248Z</time>
      </trkpt>
      <trkpt lat="55.313783157616854" lon="12.123896135017276">
        <ele>20.16</ele>
        <time>2023-06-10T16:34:34.220Z</time>
      </trkpt>
      <trkpt lat="55.313696740195155" lon="12.123934021219611">
        <ele>20.12</ele>
        <time>2023-06-10T16:34:37.194Z</time>
      </trkpt>
      <trkpt lat="55.31361032277346" lon="12.123971823602915">
        <ele>20.11</ele>
        <time>2023-06-10T16:34:40.169Z</time>
      </trkpt>
      <trkpt lat="55.31352398917079" lon="12.124009625986218">
        <ele>20.13</ele>
        <time>2023-06-10T16:34:43.146Z</time>
      </trkpt>
      <trkpt lat="55.313436733558774" lon="12.12404784746468">
        <ele>20.18</ele>
        <time>2023-06-10T16:34:46.124Z</time>
      </trkpt>
      <trkpt lat="55.3133075684309" lon="12.124104341492057">
        <ele>20.3</ele>
        <time>2023-06-10T16:34:49.104Z</time>
      </trkpt>
      <trkpt lat="55.3132211510092" lon="12.124142227694392">
        <ele>20.21</ele>
        <time>2023-06-10T16:34:52.086Z</time>
      </trkpt>
      <trkpt lat="55.313133895397186" lon="12.124180365353823">
        <ele>20.18</ele>
        <time>2023-06-10T16:34:55.069Z</time>
      </trkpt>
      <trkpt lat="55.312959384173155" lon="12.124256808310747">
        <ele>20.21</ele>
        <time>2023-06-10T16:34:58.055Z</time>
      </trkpt>
      <trkpt lat="55.312828458845615" lon="12.12431414052844">
        <ele>20.27</ele>
        <time>2023-06-10T16:35:01.043Z</time>
      </trkpt>
      <trkpt lat="55.312567530199885" lon="12.124428385868669">
        <ele>20.49</ele>
        <time>2023-06-10T16:35:04.036Z</time>
      </trkpt>
      <trkpt lat="55.31221934594214" lon="12.124580768868327">
        <ele>20.75</ele>
        <time>2023-06-10T16:35:07.034Z</time>
      </trkpt>
      <trkpt lat="55.31204483471811" lon="12.124657211825252">
        <ele>20.93</ele>
        <time>2023-06-10T16:35:10.035Z</time>
      </trkpt>
      <trkpt lat="55.31178390607238" lon="12.124771373346448">
        <ele>21.3</ele>
        <time>2023-06-10T16:35:13.040Z</time>
      </trkpt>
      <trkpt lat="55.31169665046036" lon="12.12480959482491">
        <ele>21.37</ele>
        <time>2023-06-10T16:35:16.047Z</time>
      </trkpt>
      <trkpt lat="55.31156572513282" lon="12.124866927042603">
        <ele>21.42</ele>
        <time>2023-06-10T16:35:19.056Z</time>
      </trkpt>
      <trkpt lat="55.31139205209911" lon="12.12494295090437">
        <ele>21.45</ele>
        <time>2023-06-10T16:35:22.068Z</time>
      </trkpt>
      <trkpt lat="55.3112612105906" lon="12.125000283122063">
        <ele>21.44</ele>
        <time>2023-06-10T16:35:25.082Z</time>
      </trkpt>
      <trkpt lat="55.310607589781284" lon="12.125286357477307">
        <ele>21.15</ele>
        <time>2023-06-10T16:35:28.107Z</time>
      </trkpt>
      <trkpt lat="55.310390247032046" lon="12.125381492078304">
        <ele>21.11</ele>
        <time>2023-06-10T16:35:31.135Z</time>
      </trkpt>
      <trkpt lat="55.31025940552354" lon="12.125438824295998">
        <ele>21.12</ele>
        <time>2023-06-10T16:35:34.166Z</time>
      </trkpt>
      <trkpt lat="55.310171227902174" lon="12.125477381050587">
        <ele>21.16</ele>
        <time>2023-06-10T16:35:37.198Z</time>
      </trkpt>
      <trkpt lat="55.31008489429951" lon="12.125515267252922">
        <ele>21.24</ele>
        <time>2023-06-10T16:35:40.232Z</time>
      </trkpt>
      <trkpt lat="55.30999847687781" lon="12.125553069636226">
        <ele>21.39</ele>
        <time>2023-06-10T16:35:43.267Z</time>
      </trkpt>
      <trkpt lat="55.30986755155027" lon="12.125610318034887">
        <ele>21.69</ele>
        <time>2023-06-10T16:35:46.304Z</time>
      </trkpt>
      <trkpt lat="55.30982396565378" lon="12.125629428774118">
        <ele>21.77</ele>
        <time>2023-06-10T16:35:49.342Z</time>
      </trkpt>
      <trkpt lat="55.30979999341071" lon="12.125639989972115">
        <ele>21.8</ele>
        <time>2023-06-10T16:35:52.380Z</time>
      </trkpt>
      <trkpt lat="55.30977970920503" lon="12.125639989972115">
        <ele>21.83</ele>
        <time>2023-06-10T16:35:55.419Z</time>
      </trkpt>
      <trkpt lat="55.30974995344877" lon="12.125639989972115">
        <ele>21.84</ele>
        <time>2023-06-10T16:35:58.458Z</time>
      </trkpt>
      <trkpt lat="55.309735452756286" lon="12.125631691887975">
        <ele>21.85</ele>
        <time>2023-06-10T16:36:01.497Z</time>
      </trkpt>
      <trkpt lat="55.30967996455729" lon="12.125599924474955">
        <ele>21.81</ele>
        <time>2023-06-10T16:36:04.537Z</time>
      </trkpt>
      <trkpt lat="55.30966051854193" lon="12.12555625475943">
        <ele>21.79</ele>
        <time>2023-06-10T16:36:07.578Z</time>
      </trkpt>
      <trkpt lat="55.30963998287916" lon="12.125509986653924">
        <ele>21.73</ele>
        <time>2023-06-10T16:36:10.619Z</time>
      </trkpt>
      <trkpt lat="55.309598157182336" lon="12.125265067443252">
        <ele>21.48</ele>
        <time>2023-06-10T16:36:13.663Z</time>
      </trkpt>
      <trkpt lat="55.309572257101536" lon="12.125113774091005">
        <ele>21.37</ele>
        <time>2023-06-10T16:36:16.708Z</time>
      </trkpt>
      <trkpt lat="55.30955934897065" lon="12.125038085505366">
        <ele>21.35</ele>
        <time>2023-06-10T16:36:19.754Z</time>
      </trkpt>
      <trkpt lat="55.30953344888985" lon="12.124886708334088">
        <ele>21.36</ele>
        <time>2023-06-10T16:36:22.801Z</time>
      </trkpt>
      <trkpt lat="55.30950763262808" lon="12.124735414981842">
        <ele>21.43</ele>
        <time>2023-06-10T16:36:25.850Z</time>
      </trkpt>
      <trkpt lat="55.30945616774261" lon="12.124434253200889">
        <ele>21.61</ele>
        <time>2023-06-10T16:36:28.902Z</time>
      </trkpt>
      <trkpt lat="55.30937855131924" lon="12.123980205506086">
        <ele>21.84</ele>
        <time>2023-06-10T16:36:31.958Z</time>
      </trkpt>
      <trkpt lat="55.30935298651457" lon="12.12383033707738">
        <ele>21.96</ele>
        <time>2023-06-10T16:36:35.015Z</time>
      </trkpt>
      <trkpt lat="55.30929992906749" lon="12.123519955202937">
        <ele>22.3</ele>
        <time>2023-06-10T16:36:38.075Z</time>
      </trkpt>
      <trkpt lat="55.30929992906749" lon="12.123519955202937">
        <ele>22.3</ele>
        <time>2023-06-10T16:36:41.135Z</time>
      </trkpt>
      <trkpt lat="55.30924997292459" lon="12.123379977419972">
        <ele>22.44</ele>
        <time>2023-06-10T16:36:44.197Z</time>
      </trkpt>
      <trkpt lat="55.30924997292459" lon="12.123379977419972">
        <ele>22.44</ele>
        <time>2023-06-10T16:36:47.259Z</time>
      </trkpt>
      <trkpt lat="55.30917998403311" lon="12.12330998852849">
        <ele>22.53</ele>
        <time>2023-06-10T16:36:50.322Z</time>
      </trkpt>
      <trkpt lat="55.309179313480854" lon="12.123309737071395">
        <ele>22.53</ele>
        <time>2023-06-10T16:36:53.385Z</time>
      </trkpt>
      <trkpt lat="55.3091353084892" lon="12.123293224722147">
        <ele>22.55</ele>
        <time>2023-06-10T16:36:56.449Z</time>
      </trkpt>
      <trkpt lat="55.30909993685782" lon="12.123279981315136">
        <ele>22.54</ele>
        <time>2023-06-10T16:36:59.513Z</time>
      </trkpt>
      <trkpt lat="55.3090472985059" lon="12.12328802794218">
        <ele>22.54</ele>
        <time>2023-06-10T16:37:02.578Z</time>
      </trkpt>
      <trkpt lat="55.308868093416095" lon="12.123315436765552">
        <ele>22.43</ele>
        <time>2023-06-10T16:37:05.646Z</time>
      </trkpt>
      <trkpt lat="55.308555448427796" lon="12.123363297432661">
        <ele>22.38</ele>
        <time>2023-06-10T16:37:08.719Z</time>
      </trkpt>
      <trkpt lat="55.30819703824818" lon="12.123418115079403">
        <ele>22.4</ele>
        <time>2023-06-10T16:37:11.798Z</time>
      </trkpt>
      <trkpt lat="55.30797399580479" lon="12.123452229425311">
        <ele>22.48</ele>
        <time>2023-06-10T16:37:14.881Z</time>
      </trkpt>
      <trkpt lat="55.30788439325988" lon="12.123465975746512">
        <ele>22.48</ele>
        <time>2023-06-10T16:37:17.965Z</time>
      </trkpt>
      <trkpt lat="55.30743730254471" lon="12.123534372076392">
        <ele>22.28</ele>
        <time>2023-06-10T16:37:21.056Z</time>
      </trkpt>
      <trkpt lat="55.30721333809197" lon="12.123568654060364">
        <ele>22.14</ele>
        <time>2023-06-10T16:37:24.151Z</time>
      </trkpt>
      <trkpt lat="55.307124657556415" lon="12.123582232743502">
        <ele>22.13</ele>
        <time>2023-06-10T16:37:27.247Z</time>
      </trkpt>
      <trkpt lat="55.30703505501151" lon="12.123595895245671">
        <ele>22.15</ele>
        <time>2023-06-10T16:37:30.345Z</time>
      </trkpt>
      <trkpt lat="55.30690060928464" lon="12.123616430908442">
        <ele>22.24</ele>
        <time>2023-06-10T16:37:33.445Z</time>
      </trkpt>
      <trkpt lat="55.30672232620418" lon="12.12364375591278">
        <ele>22.44</ele>
        <time>2023-06-10T16:37:36.548Z</time>
      </trkpt>
      <trkpt lat="55.30618571676314" lon="12.12372581474483">
        <ele>23.0</ele>
        <time>2023-06-10T16:37:39.659Z</time>
      </trkpt>
      <trkpt lat="55.30600651167333" lon="12.123753307387233">
        <ele>23.28</ele>
        <time>2023-06-10T16:37:42.773Z</time>
      </trkpt>
      <trkpt lat="55.305783385410905" lon="12.123787421733141">
        <ele>23.73</ele>
        <time>2023-06-10T16:37:45.891Z</time>
      </trkpt>
      <trkpt lat="55.30552178621292" lon="12.12382740341127">
        <ele>23.99</ele>
        <time>2023-06-10T16:37:49.013Z</time>
      </trkpt>
      <trkpt lat="55.305483313277364" lon="12.123833354562521">
        <ele>24.04</ele>
        <time>2023-06-10T16:37:52.136Z</time>
      </trkpt>
      <trkpt lat="55.30543997883797" lon="12.123839976266026">
        <ele>24.05</ele>
        <time>2023-06-10T16:37:55.259Z</time>
      </trkpt>
      <trkpt lat="55.305307041853666" lon="12.12386503815651">
        <ele>24.12</ele>
        <time>2023-06-10T16:37:58.384Z</time>
      </trkpt>
      <trkpt lat="55.305086178705096" lon="12.123906780034304">
        <ele>24.3</ele>
        <time>2023-06-10T16:38:01.513Z</time>
      </trkpt>
      <trkpt lat="55.30482147820294" lon="12.123956736177206">
        <ele>24.4</ele>
        <time>2023-06-10T16:38:04.646Z</time>
      </trkpt>
      <trkpt lat="55.30455769971013" lon="12.124006524682045">
        <ele>24.54</ele>
        <time>2023-06-10T16:38:07.784Z</time>
      </trkpt>
      <trkpt lat="55.304425433278084" lon="12.124031502753496">
        <ele>24.54</ele>
        <time>2023-06-10T16:38:10.924Z</time>
      </trkpt>
      <trkpt lat="55.30416073277593" lon="12.124081458896399">
        <ele>24.44</ele>
        <time>2023-06-10T16:38:14.068Z</time>
      </trkpt>
      <trkpt lat="55.304072219878435" lon="12.12409813888371">
        <ele>24.43</ele>
        <time>2023-06-10T16:38:17.213Z</time>
      </trkpt>
      <trkpt lat="55.30393986962736" lon="12.124123200774193">
        <ele>24.45</ele>
        <time>2023-06-10T16:38:20.360Z</time>
      </trkpt>
      <trkpt lat="55.30345522798598" lon="12.124214647337794">
        <ele>24.57</ele>
        <time>2023-06-10T16:38:23.515Z</time>
      </trkpt>
      <trkpt lat="55.303188767284155" lon="12.124264938756824">
        <ele>24.13</ele>
        <time>2023-06-10T16:38:26.675Z</time>
      </trkpt>
      <trkpt lat="55.303099332377315" lon="12.12428187020123">
        <ele>24.02</ele>
        <time>2023-06-10T16:38:29.836Z</time>
      </trkpt>
      <trkpt lat="55.30301081947982" lon="12.124298550188541">
        <ele>23.96</ele>
        <time>2023-06-10T16:38:32.998Z</time>
      </trkpt>
      <trkpt lat="55.30265492387116" lon="12.124365773051977">
        <ele>23.81</ele>
        <time>2023-06-10T16:38:36.166Z</time>
      </trkpt>
      <trkpt lat="55.30234286561608" lon="12.124424697831273">
        <ele>23.72</ele>
        <time>2023-06-10T16:38:39.339Z</time>
      </trkpt>
      <trkpt lat="55.30225435271859" lon="12.124441377818584">
        <ele>23.73</ele>
        <time>2023-06-10T16:38:42.514Z</time>
      </trkpt>
      <trkpt lat="55.30207640491426" lon="12.124474989250302">
        <ele>23.79</ele>
        <time>2023-06-10T16:38:45.692Z</time>
      </trkpt>
      <trkpt lat="55.30204991810024" lon="12.124479934573174">
        <ele>23.78</ele>
        <time>2023-06-10T16:38:48.870Z</time>
      </trkpt>
      <trkpt lat="55.30190994031727" lon="12.1244699601084">
        <ele>23.78</ele>
        <time>2023-06-10T16:38:52.050Z</time>
      </trkpt>
      <trkpt lat="55.301897870376706" lon="12.12446610443294">
        <ele>23.78</ele>
        <time>2023-06-10T16:38:55.230Z</time>
      </trkpt>
      <trkpt lat="55.301809441298246" lon="12.12443777360022">
        <ele>23.81</ele>
        <time>2023-06-10T16:38:58.412Z</time>
      </trkpt>
      <trkpt lat="55.301721850410104" lon="12.124409694224596">
        <ele>23.88</ele>
        <time>2023-06-10T16:39:01.595Z</time>
      </trkpt>
      <trkpt lat="55.30163333751261" lon="12.124381279572845">
        <ele>23.99</ele>
        <time>2023-06-10T16:39:04.780Z</time>
      </trkpt>
      <trkpt lat="55.30154574662447" lon="12.12435320019722">
        <ele>24.15</ele>
        <time>2023-06-10T16:39:07.966Z</time>
      </trkpt>
      <trkpt lat="55.301413061097264" lon="12.12431070394814">
        <ele>24.45</ele>
        <time>2023-06-10T16:39:11.154Z</time>
      </trkpt>
      <trkpt lat="55.30136972665787" lon="12.124296789988875">
        <ele>24.56</ele>
        <time>2023-06-10T16:39:14.343Z</time>
      </trkpt>
      <trkpt lat="55.301281213760376" lon="12.124268459156156">
        <ele>24.83</ele>
        <time>2023-06-10T16:39:17.533Z</time>
      </trkpt>
      <trkpt lat="55.30101760290563" lon="12.124183969572186">
        <ele>25.73</ele>
        <time>2023-06-10T16:39:20.728Z</time>
      </trkpt>
      <trkpt lat="55.300973346456885" lon="12.124169804155827">
        <ele>25.86</ele>
        <time>2023-06-10T16:39:23.923Z</time>
      </trkpt>
      <trkpt lat="55.30092917382717" lon="12.124155554920435">
        <ele>25.96</ele>
        <time>2023-06-10T16:39:27.119Z</time>
      </trkpt>
      <trkpt lat="55.30084158293903" lon="12.124127559363842">
        <ele>26.06</ele>
        <time>2023-06-10T16:39:30.317Z</time>
      </trkpt>
      <trkpt lat="55.30079732649028" lon="12.12411331012845">
        <ele>26.07</ele>
        <time>2023-06-10T16:39:33.515Z</time>
      </trkpt>
      <trkpt lat="55.300665479153395" lon="12.124071065336466">
        <ele>26.02</ele>
        <time>2023-06-10T16:39:36.715Z</time>
      </trkpt>
      <trkpt lat="55.3005027025938" lon="12.124018929898739">
        <ele>26.11</ele>
        <time>2023-06-10T16:39:39.918Z</time>
      </trkpt>
      <trkpt lat="55.30034998431802" lon="12.123969979584217">
        <ele>26.15</ele>
        <time>2023-06-10T16:39:43.124Z</time>
      </trkpt>
      <trkpt lat="55.300269182771444" lon="12.123889178037643">
        <ele>26.18</ele>
        <time>2023-06-10T16:39:46.331Z</time>
      </trkpt>
      <trkpt lat="55.300259962677956" lon="12.123879957944155">
        <ele>26.17</ele>
        <time>2023-06-10T16:39:49.538Z</time>
      </trkpt>
      <trkpt lat="55.30020992271602" lon="12.123769987374544">
        <ele>26.14</ele>
        <time>2023-06-10T16:39:52.747Z</time>
      </trkpt>
      <trkpt lat="55.30019994825125" lon="12.123619951307774">
        <ele>26.11</ele>
        <time>2023-06-10T16:39:55.957Z</time>
      </trkpt>
      <trkpt lat="55.3002058994025" lon="12.123259110376239">
        <ele>26.03</ele>
        <time>2023-06-10T16:39:59.170Z</time>
      </trkpt>
      <trkpt lat="55.300209587439895" lon="12.1230348944664">
        <ele>26.03</ele>
        <time>2023-06-10T16:40:02.385Z</time>
      </trkpt>
      <trkpt lat="55.30020992271602" lon="12.123009916394949">
        <ele>26.03</ele>
        <time>2023-06-10T16:40:05.601Z</time>
      </trkpt>
      <trkpt lat="55.3001815918833" lon="12.122818557545543">
        <ele>26.06</ele>
        <time>2023-06-10T16:40:08.818Z</time>
      </trkpt>
      <trkpt lat="55.30016994103789" lon="12.122739935293794">
        <ele>25.96</ele>
        <time>2023-06-10T16:40:12.036Z</time>
      </trkpt>
      <trkpt lat="55.30011998489499" lon="12.122629964724183">
        <ele>25.8</ele>
        <time>2023-06-10T16:40:15.255Z</time>
      </trkpt>
      <trkpt lat="55.30011554248631" lon="12.122623175382614">
        <ele>25.8</ele>
        <time>2023-06-10T16:40:18.474Z</time>
      </trkpt>
      <trkpt lat="55.30001630075276" lon="12.122469870373607">
        <ele>25.63</ele>
        <time>2023-06-10T16:40:21.696Z</time>
      </trkpt>
      <trkpt lat="55.29988386668265" lon="12.122265435755253">
        <ele>25.48</ele>
        <time>2023-06-10T16:40:24.920Z</time>
      </trkpt>
      <trkpt lat="55.29978529550135" lon="12.122113136574626">
        <ele>25.45</ele>
        <time>2023-06-10T16:40:28.147Z</time>
      </trkpt>
      <trkpt lat="55.29952051118016" lon="12.12170435115695">
        <ele>25.51</ele>
        <time>2023-06-10T16:40:31.379Z</time>
      </trkpt>
      <trkpt lat="55.29945496469736" lon="12.12160318158567">
        <ele>25.51</ele>
        <time>2023-06-10T16:40:34.613Z</time>
      </trkpt>
      <trkpt lat="55.299439961090684" lon="12.121579963713884">
        <ele>25.5</ele>
        <time>2023-06-10T16:40:37.847Z</time>
      </trkpt>
      <trkpt lat="55.299361338838935" lon="12.121439315378666">
        <ele>25.47</ele>
        <time>2023-06-10T16:40:41.083Z</time>
      </trkpt>
      <trkpt lat="55.29929964803159" lon="12.121328841894865">
        <ele>25.48</ele>
        <time>2023-06-10T16:40:44.320Z</time>
      </trkpt>
      <trkpt lat="55.299249943345785" lon="12.121239993721247">
        <ele>25.53</ele>
        <time>2023-06-10T16:40:47.558Z</time>
      </trkpt>
      <trkpt lat="55.29923946596682" lon="12.121215937659144">
        <ele>25.55</ele>
        <time>2023-06-10T16:40:50.797Z</time>
      </trkpt>
      <trkpt lat="55.299132596701384" lon="12.120971689000726">
        <ele>25.75</ele>
        <time>2023-06-10T16:40:54.038Z</time>
      </trkpt>
      <trkpt lat="55.299052046611905" lon="12.120787538588047">
        <ele>25.88</ele>
        <time>2023-06-10T16:40:57.281Z</time>
      </trkpt>
      <trkpt lat="55.29897149652243" lon="12.1206034719944">
        <ele>25.96</ele>
        <time>2023-06-10T16:41:00.527Z</time>
      </trkpt>
      <trkpt lat="55.29889144934714" lon="12.120420578867197">
        <ele>26.01</ele>
        <time>2023-06-10T16:41:03.775Z</time>
      </trkpt>
      <trkpt lat="55.2987018506974" lon="12.119987150654197">
        <ele>25.9</ele>
        <time>2023-06-10T16:41:07.028Z</time>
      </trkpt>
      <trkpt lat="55.29847998172045" lon="12.119479961693287">
        <ele>25.64</ele>
        <time>2023-06-10T16:41:10.287Z</time>
      </trkpt>
      <trkpt lat="55.29839993454516" lon="12.119339983910322">
        <ele>25.56</ele>
        <time>2023-06-10T16:41:13.547Z</time>
      </trkpt>
      <trkpt lat="55.298279989510775" lon="12.119219955056906">
        <ele>25.47</ele>
        <time>2023-06-10T16:41:16.810Z</time>
      </trkpt>
      <trkpt lat="55.29806189239025" lon="12.119090538471937">
        <ele>25.31</ele>
        <time>2023-06-10T16:41:20.076Z</time>
      </trkpt>
      <trkpt lat="55.2976827789098" lon="12.118865484371781">
        <ele>25.19</ele>
        <time>2023-06-10T16:41:23.349Z</time>
      </trkpt>
      <trkpt lat="55.29755663126707" lon="12.118790717795491">
        <ele>25.19</ele>
        <time>2023-06-10T16:41:26.624Z</time>
      </trkpt>
      <trkpt lat="55.297429729253054" lon="12.118715364485979">
        <ele>25.28</ele>
        <time>2023-06-10T16:41:29.901Z</time>
      </trkpt>
      <trkpt lat="55.297345323488116" lon="12.118665240705013">
        <ele>25.37</ele>
        <time>2023-06-10T16:41:33.179Z</time>
      </trkpt>
      <trkpt lat="55.297093195840716" lon="12.118515623733401">
        <ele>25.69</ele>
        <time>2023-06-10T16:41:36.462Z</time>
      </trkpt>
      <trkpt lat="55.29704994522035" lon="12.118489975109696">
        <ele>25.67</ele>
        <time>2023-06-10T16:41:39.745Z</time>
      </trkpt>
      <trkpt lat="55.29694483615458" lon="12.118433313444257">
        <ele>25.65</ele>
        <time>2023-06-10T16:41:43.030Z</time>
      </trkpt>
      <trkpt lat="55.29683394357562" lon="12.118373634293675">
        <ele>25.59</ele>
        <time>2023-06-10T16:41:46.317Z</time>
      </trkpt>
      <trkpt lat="55.29678993858397" lon="12.118349997326732">
        <ele>25.5</ele>
        <time>2023-06-10T16:41:49.605Z</time>
      </trkpt>
      <trkpt lat="55.29656714759767" lon="12.11833574809134">
        <ele>25.1</ele>
        <time>2023-06-10T16:41:52.896Z</time>
      </trkpt>
      <trkpt lat="55.29647821560502" lon="12.118330048397183">
        <ele>24.99</ele>
        <time>2023-06-10T16:41:56.189Z</time>
      </trkpt>
      <trkpt lat="55.29638836160302" lon="12.118324348703027">
        <ele>24.91</ele>
        <time>2023-06-10T16:41:59.483Z</time>
      </trkpt>
      <trkpt lat="55.29631996527314" lon="12.118319990113378">
        <ele>24.9</ele>
        <time>2023-06-10T16:42:02.778Z</time>
      </trkpt>
      <trkpt lat="55.29625534079969" lon="12.11830004118383">
        <ele>24.9</ele>
        <time>2023-06-10T16:42:06.074Z</time>
      </trkpt>
      <trkpt lat="55.29618996195495" lon="12.118279924616218">
        <ele>24.91</ele>
        <time>2023-06-10T16:42:09.371Z</time>
      </trkpt>
      <trkpt lat="55.2960370760411" lon="12.118207002058625">
        <ele>24.96</ele>
        <time>2023-06-10T16:42:12.671Z</time>
      </trkpt>
      <trkpt lat="55.295907743275166" lon="12.118145311251283">
        <ele>25.03</ele>
        <time>2023-06-10T16:42:15.973Z</time>
      </trkpt>
      <trkpt lat="55.29582099057734" lon="12.118103904649615">
        <ele>25.1</ele>
        <time>2023-06-10T16:42:19.277Z</time>
      </trkpt>
      <trkpt lat="55.2956916578114" lon="12.118042213842273">
        <ele>25.26</ele>
        <time>2023-06-10T16:42:22.583Z</time>
      </trkpt>
      <trkpt lat="55.29556148685515" lon="12.117980103939772">
        <ele>25.49</ele>
        <time>2023-06-10T16:42:25.891Z</time>
      </trkpt>
      <trkpt lat="55.29534540139139" lon="12.11787692271173">
        <ele>25.95</ele>
        <time>2023-06-10T16:42:29.202Z</time>
      </trkpt>
      <trkpt lat="55.29512923210859" lon="12.11777382530272">
        <ele>26.49</ele>
        <time>2023-06-10T16:42:32.517Z</time>
      </trkpt>
      <trkpt lat="55.29499998316169" lon="12.117712134495378">
        <ele>26.78</ele>
        <time>2023-06-10T16:42:35.834Z</time>
      </trkpt>
      <trkpt lat="55.2947404794395" lon="12.117588333785534">
        <ele>27.24</ele>
        <time>2023-06-10T16:42:39.155Z</time>
      </trkpt>
      <trkpt lat="55.29443755745888" lon="12.117443829774857">
        <ele>27.87</ele>
        <time>2023-06-10T16:42:42.482Z</time>
      </trkpt>
      <trkpt lat="55.29435080476105" lon="12.11740242317319">
        <ele>28.01</ele>
        <time>2023-06-10T16:42:45.810Z</time>
      </trkpt>
      <trkpt lat="55.294219963252544" lon="12.117339977994561">
        <ele>28.18</ele>
        <time>2023-06-10T16:42:49.140Z</time>
      </trkpt>
      <trkpt lat="55.293875467032194" lon="12.117173932492733">
        <ele>28.65</ele>
        <time>2023-06-10T16:42:52.476Z</time>
      </trkpt>
      <trkpt lat="55.29374621808529" lon="12.1171117387712">
        <ele>28.8</ele>
        <time>2023-06-10T16:42:55.814Z</time>
      </trkpt>
      <trkpt lat="55.29361613094807" lon="12.117049042135477">
        <ele>28.92</ele>
        <time>2023-06-10T16:42:59.154Z</time>
      </trkpt>
      <trkpt lat="55.29331346042454" lon="12.116903197020292">
        <ele>29.08</ele>
        <time>2023-06-10T16:43:02.499Z</time>
      </trkpt>
      <trkpt lat="55.29313995502889" lon="12.116819629445672">
        <ele>29.23</ele>
        <time>2023-06-10T16:43:05.847Z</time>
      </trkpt>
      <trkpt lat="55.293054124340415" lon="12.116778222844005">
        <ele>29.34</ele>
        <time>2023-06-10T16:43:09.197Z</time>
      </trkpt>
      <trkpt lat="55.292838206514716" lon="12.116674203425646">
        <ele>29.66</ele>
        <time>2023-06-10T16:43:12.550Z</time>
      </trkpt>
      <trkpt lat="55.292622204869986" lon="12.116570100188255">
        <ele>30.01</ele>
        <time>2023-06-10T16:43:15.907Z</time>
      </trkpt>
      <trkpt lat="55.29253545217216" lon="12.116528358310461">
        <ele>30.11</ele>
        <time>2023-06-10T16:43:19.265Z</time>
      </trkpt>
      <trkpt lat="55.29236286878586" lon="12.116445209831">
        <ele>30.26</ele>
        <time>2023-06-10T16:43:22.626Z</time>
      </trkpt>
      <trkpt lat="55.292232781648636" lon="12.116382513195276">
        <ele>30.42</ele>
        <time>2023-06-10T16:43:25.989Z</time>
      </trkpt>
      <trkpt lat="55.29210361652076" lon="12.116320235654712">
        <ele>30.63</ele>
        <time>2023-06-10T16:43:29.354Z</time>
      </trkpt>
      <trkpt lat="55.29201996512711" lon="12.116279918700457">
        <ele>30.78</ele>
        <time>2023-06-10T16:43:32.721Z</time>
      </trkpt>
      <trkpt lat="55.29188811779022" lon="12.116213031113148">
        <ele>31.03</ele>
        <time>2023-06-10T16:43:36.090Z</time>
      </trkpt>
      <trkpt lat="55.29141386970878" lon="12.115972302854061">
        <ele>31.79</ele>
        <time>2023-06-10T16:43:39.467Z</time>
      </trkpt>
      <trkpt lat="55.29085395857692" lon="12.115688072517514">
        <ele>32.55</ele>
        <time>2023-06-10T16:43:42.853Z</time>
      </trkpt>
      <trkpt lat="55.290725296363235" lon="12.115622693672776">
        <ele>32.68</ele>
        <time>2023-06-10T16:43:46.241Z</time>
      </trkpt>
      <trkpt lat="55.290638878941536" lon="12.115578856319189">
        <ele>32.74</ele>
        <time>2023-06-10T16:43:49.631Z</time>
      </trkpt>
      <trkpt lat="55.29029413126409" lon="12.115403842180967">
        <ele>32.9</ele>
        <time>2023-06-10T16:43:53.027Z</time>
      </trkpt>
      <trkpt lat="55.28990713879466" lon="12.115207370370626">
        <ele>33.11</ele>
        <time>2023-06-10T16:43:56.429Z</time>
      </trkpt>
      <trkpt lat="55.28951922431588" lon="12.115010479465127">
        <ele>33.44</ele>
        <time>2023-06-10T16:43:59.837Z</time>
      </trkpt>
      <trkpt lat="55.28943280689418" lon="12.114966558292508">
        <ele>33.54</ele>
        <time>2023-06-10T16:44:03.247Z</time>
      </trkpt>
      <trkpt lat="55.28908898122609" lon="12.114792047068477">
        <ele>34.06</ele>
        <time>2023-06-10T16:44:06.663Z</time>
      </trkpt>
      <trkpt lat="55.288872979581356" lon="12.114682411774993">
        <ele>34.46</ele>
        <time>2023-06-10T16:44:10.082Z</time>
      </trkpt>
      <trkpt lat="55.2887499332428" lon="12.114619966596365">
        <ele>34.66</ele>
        <time>2023-06-10T16:44:13.503Z</time>
      </trkpt>
      <trkpt lat="55.288569973781705" lon="12.114499937742949">
        <ele>34.96</ele>
        <time>2023-06-10T16:44:16.927Z</time>
      </trkpt>
      <trkpt lat="55.288569973781705" lon="12.114499937742949">
        <ele>34.96</ele>
        <time>2023-06-10T16:44:20.351Z</time>
      </trkpt>
      <trkpt lat="55.288564106449485" lon="12.11450144648552">
        <ele>35.05</ele>
        <time>2023-06-10T16:44:23.775Z</time>
      </trkpt>
      <trkpt lat="55.28852999210358" lon="12.114509996026754">
        <ele>35.11</ele>
        <time>2023-06-10T16:44:27.200Z</time>
      </trkpt>
      <trkpt lat="55.28852378949523" lon="12.114394158124924">
        <ele>35.23</ele>
        <time>2023-06-10T16:44:30.626Z</time>
      </trkpt>
      <trkpt lat="55.288494788110256" lon="12.113845394924283">
        <ele>35.45</ele>
        <time>2023-06-10T16:44:34.057Z</time>
      </trkpt>
      <trkpt lat="55.28846570290625" lon="12.11329654790461">
        <ele>35.52</ele>
        <time>2023-06-10T16:44:37.493Z</time>
      </trkpt>
      <trkpt lat="55.28845732100308" lon="12.113139303401113">
        <ele>35.56</ele>
        <time>2023-06-10T16:44:40.931Z</time>
      </trkpt>
      <trkpt lat="55.28844994492829" lon="12.112999996170402">
        <ele>35.61</ele>
        <time>2023-06-10T16:44:44.370Z</time>
      </trkpt>
      <trkpt lat="55.28840996325016" lon="12.112799920141697">
        <ele>35.69</ele>
        <time>2023-06-10T16:44:47.811Z</time>
      </trkpt>
      <trkpt lat="55.28839529491961" lon="12.112765721976757">
        <ele>35.71</ele>
        <time>2023-06-10T16:44:51.252Z</time>
      </trkpt>
      <trkpt lat="55.28834994882345" lon="12.112659942358732">
        <ele>35.73</ele>
        <time>2023-06-10T16:44:54.694Z</time>
      </trkpt>
      <trkpt lat="55.28833804652095" lon="12.112648040056229">
        <ele>35.74</ele>
        <time>2023-06-10T16:44:58.137Z</time>
      </trkpt>
      <trkpt lat="55.28825992718339" lon="12.11256992071867">
        <ele>35.72</ele>
        <time>2023-06-10T16:45:01.581Z</time>
      </trkpt>
      <trkpt lat="55.288216173648834" lon="12.112551648169756">
        <ele>35.71</ele>
        <time>2023-06-10T16:45:05.026Z</time>
      </trkpt>
      <trkpt lat="55.28804208151996" lon="12.112478893250227">
        <ele>35.55</ele>
        <time>2023-06-10T16:45:08.474Z</time>
      </trkpt>
      <trkpt lat="55.28784175403416" lon="12.112395158037543">
        <ele>35.49</ele>
        <time>2023-06-10T16:45:11.925Z</time>
      </trkpt>
      <trkpt lat="55.28764134272933" lon="12.11231142282486">
        <ele>35.46</ele>
        <time>2023-06-10T16:45:15.379Z</time>
      </trkpt>
      <trkpt lat="55.28758996166289" lon="12.11228996515274">
        <ele>35.42</ele>
        <time>2023-06-10T16:45:18.834Z</time>
      </trkpt>
      <trkpt lat="55.28747194446623" lon="12.11228996515274">
        <ele>35.36</ele>
        <time>2023-06-10T16:45:22.291Z</time>
      </trkpt>
      <trkpt lat="55.287449983879924" lon="12.11228996515274">
        <ele>35.35</ele>
        <time>2023-06-10T16:45:25.748Z</time>
      </trkpt>
      <trkpt lat="55.28733992949128" lon="12.11230999790132">
        <ele>35.31</ele>
        <time>2023-06-10T16:45:29.207Z</time>
      </trkpt>
      <trkpt lat="55.287222834303975" lon="12.112380238249898">
        <ele>35.27</ele>
        <time>2023-06-10T16:45:32.668Z</time>
      </trkpt>
      <trkpt lat="55.287061147391796" lon="12.112477216869593">
        <ele>35.28</ele>
        <time>2023-06-10T16:45:36.132Z</time>
      </trkpt>
      <trkpt lat="55.28703994117677" lon="12.112489957362413">
        <ele>35.29</ele>
        <time>2023-06-10T16:45:39.596Z</time>
      </trkpt>
      <trkpt lat="55.28697741217911" lon="12.112503368407488">
        <ele>35.32</ele>
        <time>2023-06-10T16:45:43.061Z</time>
      </trkpt>
      <trkpt lat="55.28689258731902" lon="12.11252155713737">
        <ele>35.39</ele>
        <time>2023-06-10T16:45:46.528Z</time>
      </trkpt>
      <trkpt lat="55.28680776245892" lon="12.112539745867252">
        <ele>35.49</ele>
        <time>2023-06-10T16:45:49.996Z</time>
      </trkpt>
      <trkpt lat="55.28675998561084" lon="12.112549971789122">
        <ele>35.49</ele>
        <time>2023-06-10T16:45:53.465Z</time>
      </trkpt>
      <trkpt lat="55.286639956757426" lon="12.112539997324347">
        <ele>35.51</ele>
        <time>2023-06-10T16:45:56.936Z</time>
      </trkpt>
      <trkpt lat="55.286189932376146" lon="12.11230999790132">
        <ele>35.57</ele>
        <time>2023-06-10T16:46:00.414Z</time>
      </trkpt>
      <trkpt lat="55.28611868619919" lon="12.112254509702325">
        <ele>35.59</ele>
        <time>2023-06-10T16:46:03.893Z</time>
      </trkpt>
      <trkpt lat="55.28600997291505" lon="12.112169936299324">
        <ele>35.59</ele>
        <time>2023-06-10T16:46:07.374Z</time>
      </trkpt>
      <trkpt lat="55.28593537397683" lon="12.11208812892437">
        <ele>35.59</ele>
        <time>2023-06-10T16:46:10.857Z</time>
      </trkpt>
      <trkpt lat="55.28579581528902" lon="12.111934991553426">
        <ele>35.55</ele>
        <time>2023-06-10T16:46:14.342Z</time>
      </trkpt>
      <trkpt lat="55.2856501378119" lon="12.111775148659945">
        <ele>35.47</ele>
        <time>2023-06-10T16:46:17.830Z</time>
      </trkpt>
      <trkpt lat="55.28546707704663" lon="12.111574318259954">
        <ele>35.32</ele>
        <time>2023-06-10T16:46:21.322Z</time>
      </trkpt>
      <trkpt lat="55.285393903031945" lon="12.111494019627571">
        <ele>35.29</ele>
        <time>2023-06-10T16:46:24.815Z</time>
      </trkpt>
      <trkpt lat="55.285248225554824" lon="12.11133417673409">
        <ele>35.26</ele>
        <time>2023-06-10T16:46:28.311Z</time>
      </trkpt>
      <trkpt lat="55.284956116229296" lon="12.11101365275681">
        <ele>35.28</ele>
        <time>2023-06-10T16:46:31.812Z</time>
      </trkpt>
      <trkpt lat="55.28477079235017" lon="12.110810307785869">
        <ele>35.12</ele>
        <time>2023-06-10T16:46:35.317Z</time>
      </trkpt>
      <trkpt lat="55.284548085182905" lon="12.110565975308418">
        <ele>34.98</ele>
        <time>2023-06-10T16:46:38.826Z</time>
      </trkpt>
      <trkpt lat="55.284473318606615" lon="12.110483916476369">
        <ele>34.98</ele>
        <time>2023-06-10T16:46:42.336Z</time>
      </trkpt>
      <trkpt lat="55.2843620069325" lon="12.11036179214716">
        <ele>35.04</ele>
        <time>2023-06-10T16:46:45.849Z</time>
      </trkpt>
      <trkpt lat="55.28413929976523" lon="12.11011745966971">
        <ele>35.26</ele>
        <time>2023-06-10T16:46:49.366Z</time>
      </trkpt>
      <trkpt lat="55.28395322151482" lon="12.10991327650845">
        <ele>35.41</ele>
        <time>2023-06-10T16:46:52.886Z</time>
      </trkpt>
      <trkpt lat="55.28389069251716" lon="12.109844628721476">
        <ele>35.44</ele>
        <time>2023-06-10T16:46:56.407Z</time>
      </trkpt>
      <trkpt lat="55.28384995646775" lon="12.109799953177571">
        <ele>35.46</ele>
        <time>2023-06-10T16:46:59.929Z</time>
      </trkpt>
      <trkpt lat="55.28372992761433" lon="12.109639942646027">
        <ele>35.54</ele>
        <time>2023-06-10T16:47:03.454Z</time>
      </trkpt>
      <trkpt lat="55.28368290513754" lon="12.10953407920897">
        <ele>35.58</ele>
        <time>2023-06-10T16:47:06.980Z</time>
      </trkpt>
      <trkpt lat="55.283649964258075" lon="12.109459983184934">
        <ele>35.67</ele>
        <time>2023-06-10T16:47:10.507Z</time>
      </trkpt>
      <trkpt lat="55.28357997536659" lon="12.109159994870424">
        <ele>35.98</ele>
        <time>2023-06-10T16:47:14.037Z</time>
      </trkpt>
      <trkpt lat="55.28355047106743" lon="12.108888253569603">
        <ele>36.26</ele>
        <time>2023-06-10T16:47:17.569Z</time>
      </trkpt>
      <trkpt lat="55.28350956737995" lon="12.108511319383979">
        <ele>36.54</ele>
        <time>2023-06-10T16:47:21.105Z</time>
      </trkpt>
      <trkpt lat="55.28349271975458" lon="12.108356170356274">
        <ele>36.62</ele>
        <time>2023-06-10T16:47:24.642Z</time>
      </trkpt>
      <trkpt lat="55.28348450548947" lon="12.108280146494508">
        <ele>36.68</ele>
        <time>2023-06-10T16:47:28.180Z</time>
      </trkpt>
      <trkpt lat="55.283467657864094" lon="12.108125081285834">
        <ele>36.84</ele>
        <time>2023-06-10T16:47:31.719Z</time>
      </trkpt>
      <trkpt lat="55.283425748348236" lon="12.107738759368658">
        <ele>37.3</ele>
        <time>2023-06-10T16:47:35.262Z</time>
      </trkpt>
      <trkpt lat="55.28340051881969" lon="12.107506077736616">
        <ele>37.51</ele>
        <time>2023-06-10T16:47:38.807Z</time>
      </trkpt>
      <trkpt lat="55.283383671194315" lon="12.107351012527943">
        <ele>37.62</ele>
        <time>2023-06-10T16:47:42.354Z</time>
      </trkpt>
      <trkpt lat="55.283367075026035" lon="12.10719745606184">
        <ele>37.68</ele>
        <time>2023-06-10T16:47:45.902Z</time>
      </trkpt>
      <trkpt lat="55.28335022740066" lon="12.107042307034135">
        <ele>37.7</ele>
        <time>2023-06-10T16:47:49.451Z</time>
      </trkpt>
      <trkpt lat="55.283333379775286" lon="12.10688715800643">
        <ele>37.68</ele>
        <time>2023-06-10T16:47:53.002Z</time>
      </trkpt>
      <trkpt lat="55.283316699787974" lon="12.106733601540327">
        <ele>37.61</ele>
        <time>2023-06-10T16:47:56.554Z</time>
      </trkpt>
      <trkpt lat="55.2832998521626" lon="12.106578536331654">
        <ele>37.5</ele>
        <time>2023-06-10T16:48:00.108Z</time>
      </trkpt>
      <trkpt lat="55.283266408368945" lon="12.106269830837846">
        <ele>37.25</ele>
        <time>2023-06-10T16:48:03.665Z</time>
      </trkpt>
      <trkpt lat="55.28324956074357" lon="12.10611468181014">
        <ele>37.1</ele>
        <time>2023-06-10T16:48:07.223Z</time>
      </trkpt>
      <trkpt lat="55.283232713118196" lon="12.105959616601467">
        <ele>36.92</ele>
        <time>2023-06-10T16:48:10.782Z</time>
      </trkpt>
      <trkpt lat="55.283216033130884" lon="12.105806060135365">
        <ele>36.71</ele>
        <time>2023-06-10T16:48:14.343Z</time>
      </trkpt>
      <trkpt lat="55.283174039795995" lon="12.105418229475617">
        <ele>36.13</ele>
        <time>2023-06-10T16:48:17.908Z</time>
      </trkpt>
      <trkpt lat="55.28313213028014" lon="12.105031991377473">
        <ele>35.62</ele>
        <time>2023-06-10T16:48:21.476Z</time>
      </trkpt>
      <trkpt lat="55.28305669315159" lon="12.10433704778552">
        <ele>34.5</ele>
        <time>2023-06-10T16:48:25.051Z</time>
      </trkpt>
      <trkpt lat="55.28303984552622" lon="12.104181982576847">
        <ele>34.29</ele>
        <time>2023-06-10T16:48:28.627Z</time>
      </trkpt>
      <trkpt lat="55.28303129598498" lon="12.104102857410908">
        <ele>34.21</ele>
        <time>2023-06-10T16:48:32.204Z</time>
      </trkpt>
      <trkpt lat="55.28295585885644" lon="12.103407913818955">
        <ele>33.61</ele>
        <time>2023-06-10T16:48:35.787Z</time>
      </trkpt>
      <trkpt lat="55.2828973531723" lon="12.102868119254708">
        <ele>33.24</ele>
        <time>2023-06-10T16:48:39.375Z</time>
      </trkpt>
      <trkpt lat="55.28286365792155" lon="12.102557821199298">
        <ele>33.07</ele>
        <time>2023-06-10T16:48:42.966Z</time>
      </trkpt>
      <trkpt lat="55.28284697793424" lon="12.102404264733195">
        <ele>33.02</ele>
        <time>2023-06-10T16:48:46.559Z</time>
      </trkpt>
      <trkpt lat="55.2828302141279" lon="12.102249199524522">
        <ele>32.99</ele>
        <time>2023-06-10T16:48:50.153Z</time>
      </trkpt>
      <trkpt lat="55.28280490078032" lon="12.10201651789248">
        <ele>33.0</ele>
        <time>2023-06-10T16:48:53.749Z</time>
      </trkpt>
      <trkpt lat="55.28278830461204" lon="12.101862961426377">
        <ele>33.05</ele>
        <time>2023-06-10T16:48:57.347Z</time>
      </trkpt>
      <trkpt lat="55.282771456986666" lon="12.101707812398672">
        <ele>33.14</ele>
        <time>2023-06-10T16:49:00.946Z</time>
      </trkpt>
      <trkpt lat="55.28273792937398" lon="12.101399106904864">
        <ele>33.37</ele>
        <time>2023-06-10T16:49:04.548Z</time>
      </trkpt>
      <trkpt lat="55.282721081748605" lon="12.10124404169619">
        <ele>33.42</ele>
        <time>2023-06-10T16:49:08.151Z</time>
      </trkpt>
      <trkpt lat="55.28270431794226" lon="12.101088892668486">
        <ele>33.42</ele>
        <time>2023-06-10T16:49:11.756Z</time>
      </trkpt>
      <trkpt lat="55.282670790329576" lon="12.100780187174678">
        <ele>33.34</ele>
        <time>2023-06-10T16:49:15.364Z</time>
      </trkpt>
      <trkpt lat="55.2826539427042" lon="12.100625121966004">
        <ele>33.32</ele>
        <time>2023-06-10T16:49:18.973Z</time>
      </trkpt>
      <trkpt lat="55.28263717889786" lon="12.1004699729383">
        <ele>33.35</ele>
        <time>2023-06-10T16:49:22.584Z</time>
      </trkpt>
      <trkpt lat="55.282620498910546" lon="12.100316416472197">
        <ele>33.42</ele>
        <time>2023-06-10T16:49:26.196Z</time>
      </trkpt>
      <trkpt lat="55.28260365128517" lon="12.100161267444491">
        <ele>33.51</ele>
        <time>2023-06-10T16:49:29.809Z</time>
      </trkpt>
      <trkpt lat="55.28257858939469" lon="12.099930178374052">
        <ele>33.71</ele>
        <time>2023-06-10T16:49:33.425Z</time>
      </trkpt>
      <trkpt lat="55.282561741769314" lon="12.099775029346347">
        <ele>33.87</ele>
        <time>2023-06-10T16:49:37.042Z</time>
      </trkpt>
      <trkpt lat="55.282511450350285" lon="12.099311258643866">
        <ele>34.43</ele>
        <time>2023-06-10T16:49:40.663Z</time>
      </trkpt>
      <trkpt lat="55.28249460272491" lon="12.09915610961616">
        <ele>34.6</ele>
        <time>2023-06-10T16:49:44.286Z</time>
      </trkpt>
      <trkpt lat="55.282477755099535" lon="12.099001044407487">
        <ele>34.74</ele>
        <time>2023-06-10T16:49:47.910Z</time>
      </trkpt>
      <trkpt lat="55.282427463680506" lon="12.098537189885974">
        <ele>35.07</ele>
        <time>2023-06-10T16:49:51.539Z</time>
      </trkpt>
      <trkpt lat="55.282377088442445" lon="12.098073419183493">
        <ele>35.29</ele>
        <time>2023-06-10T16:49:55.172Z</time>
      </trkpt>
      <trkpt lat="55.282360492274165" lon="12.09791986271739">
        <ele>35.33</ele>
        <time>2023-06-10T16:49:58.806Z</time>
      </trkpt>
      <trkpt lat="55.28234364464879" lon="12.097764713689685">
        <ele>35.34</ele>
        <time>2023-06-10T16:50:02.442Z</time>
      </trkpt>
      <trkpt lat="55.28228991664946" lon="12.097269929945469">
        <ele>35.3</ele>
        <time>2023-06-10T16:50:06.082Z</time>
      </trkpt>
      <trkpt lat="55.28228195384145" lon="12.097224667668343">
        <ele>35.3</ele>
        <time>2023-06-10T16:50:09.723Z</time>
      </trkpt>
      <trkpt lat="55.28224205598235" lon="12.097000032663345">
        <ele>35.24</ele>
        <time>2023-06-10T16:50:13.366Z</time>
      </trkpt>
      <trkpt lat="55.28217994607985" lon="12.09664992056787">
        <ele>35.1</ele>
        <time>2023-06-10T16:50:17.012Z</time>
      </trkpt>
      <trkpt lat="55.2821100410074" lon="12.096416903659701">
        <ele>35.01</ele>
        <time>2023-06-10T16:50:20.661Z</time>
      </trkpt>
      <trkpt lat="55.28208992443979" lon="12.09634993225336">
        <ele>34.99</ele>
        <time>2023-06-10T16:50:24.310Z</time>
      </trkpt>
      <trkpt lat="55.28206218034029" lon="12.096283799037337">
        <ele>34.98</ele>
        <time>2023-06-10T16:50:27.960Z</time>
      </trkpt>
      <trkpt lat="55.281982719898224" lon="12.096094284206629">
        <ele>35.0</ele>
        <time>2023-06-10T16:50:31.612Z</time>
      </trkpt>
      <trkpt lat="55.2819599211216" lon="12.096039969474077">
        <ele>35.02</ele>
        <time>2023-06-10T16:50:35.265Z</time>
      </trkpt>
      <trkpt lat="55.281920274719596" lon="12.095982301980257">
        <ele>35.05</ele>
        <time>2023-06-10T16:50:38.919Z</time>
      </trkpt>
      <trkpt lat="55.2818510401994" lon="12.095881551504135">
        <ele>35.13</ele>
        <time>2023-06-10T16:50:42.574Z</time>
      </trkpt>
      <trkpt lat="55.281782476231456" lon="12.095781806856394">
        <ele>35.25</ele>
        <time>2023-06-10T16:50:46.231Z</time>
      </trkpt>
      <trkpt lat="55.281739979982376" lon="12.095719948410988">
        <ele>35.19</ele>
        <time>2023-06-10T16:50:49.889Z</time>
      </trkpt>
      <trkpt lat="55.28185850009322" lon="12.095332369208336">
        <ele>34.92</ele>
        <time>2023-06-10T16:50:53.551Z</time>
      </trkpt>
      <trkpt lat="55.281899739056826" lon="12.095197504386306">
        <ele>34.85</ele>
        <time>2023-06-10T16:50:57.214Z</time>
      </trkpt>
      <trkpt lat="55.28192060999572" lon="12.09512927569449">
        <ele>34.83</ele>
        <time>2023-06-10T16:51:00.878Z</time>
      </trkpt>
      <trkpt lat="55.28199998661876" lon="12.094869939610362">
        <ele>34.8</ele>
        <time>2023-06-10T16:51:04.544Z</time>
      </trkpt>
      <trkpt lat="55.28207282535732" lon="12.094578500837088">
        <ele>34.77</ele>
        <time>2023-06-10T16:51:08.213Z</time>
      </trkpt>
      <trkpt lat="55.2821256313473" lon="12.094367444515228">
        <ele>34.78</ele>
        <time>2023-06-10T16:51:11.884Z</time>
      </trkpt>
      <trkpt lat="55.28217801824212" lon="12.094157813116908">
        <ele>34.82</ele>
        <time>2023-06-10T16:51:15.558Z</time>
      </trkpt>
      <trkpt lat="55.28219997882843" lon="12.09406997077167">
        <ele>34.77</ele>
        <time>2023-06-10T16:51:19.232Z</time>
      </trkpt>
      <trkpt lat="55.282230069860816" lon="12.09394097328186">
        <ele>34.71</ele>
        <time>2023-06-10T16:51:22.908Z</time>
      </trkpt>
      <trkpt lat="55.28228119947016" lon="12.093721786513925">
        <ele>34.69</ele>
        <time>2023-06-10T16:51:26.586Z</time>
      </trkpt>
      <trkpt lat="55.282519245520234" lon="12.092701960355043">
        <ele>34.81</ele>
        <time>2023-06-10T16:51:30.274Z</time>
      </trkpt>
      <trkpt lat="55.28257045894861" lon="12.092482773587108">
        <ele>34.87</ele>
        <time>2023-06-10T16:51:33.964Z</time>
      </trkpt>
      <trkpt lat="55.28267238289118" lon="12.092045908793807">
        <ele>35.07</ele>
        <time>2023-06-10T16:51:37.658Z</time>
      </trkpt>
      <trkpt lat="55.282791405916214" lon="12.09153595380485">
        <ele>35.18</ele>
        <time>2023-06-10T16:51:41.357Z</time>
      </trkpt>
      <trkpt lat="55.28294454328716" lon="12.090879902243614">
        <ele>35.41</ele>
        <time>2023-06-10T16:51:45.063Z</time>
      </trkpt>
      <trkpt lat="55.28311436064541" lon="12.090152269229293">
        <ele>35.53</ele>
        <time>2023-06-10T16:51:48.776Z</time>
      </trkpt>
      <trkpt lat="55.28314847499132" lon="12.090006172657013">
        <ele>35.6</ele>
        <time>2023-06-10T16:51:52.491Z</time>
      </trkpt>
      <trkpt lat="55.28319926932454" lon="12.089788494631648">
        <ele>35.76</ele>
        <time>2023-06-10T16:51:56.208Z</time>
      </trkpt>
      <trkpt lat="55.283219972625375" lon="12.089699981734157">
        <ele>35.69</ele>
        <time>2023-06-10T16:51:59.926Z</time>
      </trkpt>
      <trkpt lat="55.28305853717029" lon="12.089626556262374">
        <ele>35.51</ele>
        <time>2023-06-10T16:52:03.646Z</time>
      </trkpt>
      <trkpt lat="55.28301587328315" lon="12.089607194066048">
        <ele>35.48</ele>
        <time>2023-06-10T16:52:07.367Z</time>
      </trkpt>
      <trkpt lat="55.28299994766712" lon="12.08959998562932">
        <ele>35.47</ele>
        <time>2023-06-10T16:52:11.088Z</time>
      </trkpt>
      <trkpt lat="55.282929707318544" lon="12.089574756100774">
        <ele>35.46</ele>
        <time>2023-06-10T16:52:14.810Z</time>
      </trkpt>
      <trkpt lat="55.28284245170653" lon="12.089543407782912">
        <ele>35.49</ele>
        <time>2023-06-10T16:52:18.534Z</time>
      </trkpt>
      <trkpt lat="55.282799284905195" lon="12.089527901262045">
        <ele>35.52</ele>
        <time>2023-06-10T16:52:22.259Z</time>
      </trkpt>
      <trkpt lat="55.28271295130253" lon="12.089496972039342">
        <ele>35.62</ele>
        <time>2023-06-10T16:52:25.985Z</time>
      </trkpt>
      <trkpt lat="55.28262661769986" lon="12.089465958997607">
        <ele>35.76</ele>
        <time>2023-06-10T16:52:29.712Z</time>
      </trkpt>
      <trkpt lat="55.282540284097195" lon="12.089434945955873">
        <ele>35.94</ele>
        <time>2023-06-10T16:52:33.441Z</time>
      </trkpt>
      <trkpt lat="55.282409861683846" lon="12.089388091117144">
        <ele>36.29</ele>
        <time>2023-06-10T16:52:37.172Z</time>
      </trkpt>
      <trkpt lat="55.282280361279845" lon="12.089341655373573">
        <ele>36.7</ele>
        <time>2023-06-10T16:52:40.905Z</time>
      </trkpt>
      <trkpt lat="55.282150860875845" lon="12.089295135810971">
        <ele>37.14</ele>
        <time>2023-06-10T16:52:44.640Z</time>
      </trkpt>
      <trkpt lat="55.28182991780341" lon="12.089179968461394">
        <ele>38.34</ele>
        <time>2023-06-10T16:52:48.380Z</time>
      </trkpt>
      <trkpt lat="55.281719444319606" lon="12.089130263775587">
        <ele>38.76</ele>
        <time>2023-06-10T16:52:52.122Z</time>
      </trkpt>
      <trkpt lat="55.28168901801109" lon="12.089116517454386">
        <ele>38.78</ele>
        <time>2023-06-10T16:52:55.865Z</time>
      </trkpt>
      <trkpt lat="55.281629925593734" lon="12.089089946821332">
        <ele>38.88</ele>
        <time>2023-06-10T16:52:59.609Z</time>
      </trkpt>
      <trkpt lat="55.2816023491323" lon="12.089074524119496">
        <ele>38.93</ele>
        <time>2023-06-10T16:53:03.353Z</time>
      </trkpt>
      <trkpt lat="55.281516686081886" lon="12.089026495814323">
        <ele>39.04</ele>
        <time>2023-06-10T16:53:07.099Z</time>
      </trkpt>
      <trkpt lat="55.28147377073765" lon="12.089002523571253">
        <ele>39.07</ele>
        <time>2023-06-10T16:53:10.845Z</time>
      </trkpt>
      <trkpt lat="55.28138894587755" lon="12.08895499818027">
        <ele>39.09</ele>
        <time>2023-06-10T16:53:14.593Z</time>
      </trkpt>
      <trkpt lat="55.28137997724116" lon="12.088949969038367">
        <ele>39.08</ele>
        <time>2023-06-10T16:53:18.341Z</time>
      </trkpt>
      <trkpt lat="55.281308898702264" lon="12.08888366818428">
        <ele>39.05</ele>
        <time>2023-06-10T16:53:22.090Z</time>
      </trkpt>
      <trkpt lat="55.28126916848123" lon="12.088846620172262">
        <ele>39.01</ele>
        <time>2023-06-10T16:53:25.840Z</time>
      </trkpt>
      <trkpt lat="55.28122994117439" lon="12.088809991255403">
        <ele>38.94</ele>
        <time>2023-06-10T16:53:29.591Z</time>
      </trkpt>
      <trkpt lat="55.28119289316237" lon="12.088763639330864">
        <ele>38.88</ele>
        <time>2023-06-10T16:53:33.342Z</time>
      </trkpt>
      <trkpt lat="55.28115626424551" lon="12.088717874139547">
        <ele>38.78</ele>
        <time>2023-06-10T16:53:37.094Z</time>
      </trkpt>
      <trkpt lat="55.281120389699936" lon="12.088672947138548">
        <ele>38.66</ele>
        <time>2023-06-10T16:53:40.847Z</time>
      </trkpt>
      <trkpt lat="55.281083760783076" lon="12.088627181947231">
        <ele>38.51</ele>
        <time>2023-06-10T16:53:44.601Z</time>
      </trkpt>
      <trkpt lat="55.28104713186622" lon="12.088581416755915">
        <ele>38.33</ele>
        <time>2023-06-10T16:53:48.355Z</time>
      </trkpt>
      <trkpt lat="55.2809738740325" lon="12.08848980255425">
        <ele>37.89</ele>
        <time>2023-06-10T16:53:52.111Z</time>
      </trkpt>
      <trkpt lat="55.28086993843317" lon="12.088359966874123">
        <ele>37.14</ele>
        <time>2023-06-10T16:53:55.869Z</time>
      </trkpt>
      <trkpt lat="55.280864322558045" lon="12.088351584970951">
        <ele>37.14</ele>
        <time>2023-06-10T16:53:59.627Z</time>
      </trkpt>
      <trkpt lat="55.280729960650206" lon="12.088149916380644">
        <ele>36.04</ele>
        <time>2023-06-10T16:54:03.388Z</time>
      </trkpt>
      <trkpt lat="55.28067505918443" lon="12.088020080700517">
        <ele>35.47</ele>
        <time>2023-06-10T16:54:07.150Z</time>
      </trkpt>
      <trkpt lat="55.280619990080595" lon="12.087889993563294">
        <ele>34.96</ele>
        <time>2023-06-10T16:54:10.914Z</time>
      </trkpt>
      <trkpt lat="55.280599957332015" lon="12.087825872004032">
        <ele>34.74</ele>
        <time>2023-06-10T16:54:14.678Z</time>
      </trkpt>
      <trkpt lat="55.28055662289262" lon="12.087687402963638">
        <ele>34.35</ele>
        <time>2023-06-10T16:54:18.444Z</time>
      </trkpt>
      <trkpt lat="55.28047012165189" lon="12.087410548701882">
        <ele>33.7</ele>
        <time>2023-06-10T16:54:22.213Z</time>
      </trkpt>
      <trkpt lat="55.28042687103152" lon="12.08727216348052">
        <ele>33.41</ele>
        <time>2023-06-10T16:54:25.983Z</time>
      </trkpt>
      <trkpt lat="55.280384039506316" lon="12.087135035544634">
        <ele>33.18</ele>
        <time>2023-06-10T16:54:29.755Z</time>
      </trkpt>
      <trkpt lat="55.28034078888595" lon="12.086996650323272">
        <ele>32.99</ele>
        <time>2023-06-10T16:54:33.528Z</time>
      </trkpt>
      <trkpt lat="55.280319917947054" lon="12.086929930374026">
        <ele>32.91</ele>
        <time>2023-06-10T16:54:37.302Z</time>
      </trkpt>
      <trkpt lat="55.280292173847556" lon="12.086864300072193">
        <ele>32.83</ele>
        <time>2023-06-10T16:54:41.076Z</time>
      </trkpt>
      <trkpt lat="55.28020994737744" lon="12.086669923737645">
        <ele>32.64</ele>
        <time>2023-06-10T16:54:44.853Z</time>
      </trkpt>
      <trkpt lat="55.28014054521918" lon="12.086580656468868">
        <ele>32.53</ele>
        <time>2023-06-10T16:54:48.631Z</time>
      </trkpt>
      <trkpt lat="55.28006996959448" lon="12.086489964276552">
        <ele>32.4</ele>
        <time>2023-06-10T16:54:52.410Z</time>
      </trkpt>
      <trkpt lat="55.279945749789476" lon="12.086387034505606">
        <ele>32.2</ele>
        <time>2023-06-10T16:54:56.192Z</time>
      </trkpt>
      <trkpt lat="55.2798651997" lon="12.08632031455636">
        <ele>32.11</ele>
        <time>2023-06-10T16:54:59.975Z</time>
      </trkpt>
      <trkpt lat="55.279824547469616" lon="12.08628661930561">
        <ele>32.1</ele>
        <time>2023-06-10T16:55:03.759Z</time>
      </trkpt>
      <trkpt lat="55.279783895239234" lon="12.086252924054861">
        <ele>32.12</ele>
        <time>2023-06-10T16:55:07.543Z</time>
      </trkpt>
      <trkpt lat="55.279719941318035" lon="12.086199950426817">
        <ele>32.19</ele>
        <time>2023-06-10T16:55:11.329Z</time>
      </trkpt>
      <trkpt lat="55.27970217168331" lon="12.086186958476901">
        <ele>32.22</ele>
        <time>2023-06-10T16:55:15.115Z</time>
      </trkpt>
      <trkpt lat="55.2795784547925" lon="12.08609651774168">
        <ele>32.45</ele>
        <time>2023-06-10T16:55:18.903Z</time>
      </trkpt>
      <trkpt lat="55.2794539835304" lon="12.086005406454206">
        <ele>32.72</ele>
        <time>2023-06-10T16:55:22.693Z</time>
      </trkpt>
      <trkpt lat="55.27932942844927" lon="12.085914378985763">
        <ele>33.08</ele>
        <time>2023-06-10T16:55:26.485Z</time>
      </trkpt>
      <trkpt lat="55.279049975797534" lon="12.085709944367409">
        <ele>33.95</ele>
        <time>2023-06-10T16:55:30.282Z</time>
      </trkpt>
      <trkpt lat="55.27903949841857" lon="12.085703322663903">
        <ele>33.99</ele>
        <time>2023-06-10T16:55:34.079Z</time>
      </trkpt>
      <trkpt lat="55.278744203969836" lon="12.08551649004221">
        <ele>34.82</ele>
        <time>2023-06-10T16:55:37.881Z</time>
      </trkpt>
      <trkpt lat="55.278659630566835" lon="12.085463013499975">
        <ele>35.11</ele>
        <time>2023-06-10T16:55:41.685Z</time>
      </trkpt>
      <trkpt lat="55.27857589535415" lon="12.0854099560529">
        <ele>35.45</ele>
        <time>2023-06-10T16:55:45.490Z</time>
      </trkpt>
      <trkpt lat="55.27849123813212" lon="12.085356479510665">
        <ele>35.85</ele>
        <time>2023-06-10T16:55:49.297Z</time>
      </trkpt>
      <trkpt lat="55.27832209132612" lon="12.085249358788133">
        <ele>36.69</ele>
        <time>2023-06-10T16:55:53.107Z</time>
      </trkpt>
      <trkpt lat="55.278237434104085" lon="12.085195882245898">
        <ele>37.07</ele>
        <time>2023-06-10T16:55:56.918Z</time>
      </trkpt>
      <trkpt lat="55.2781536988914" lon="12.085142908617854">
        <ele>37.4</ele>
        <time>2023-06-10T16:56:00.731Z</time>
      </trkpt>
      <trkpt lat="55.2780691254884" lon="12.085089348256588">
        <ele>37.67</ele>
        <time>2023-06-10T16:56:04.545Z</time>
      </trkpt>
      <trkpt lat="55.27798446826637" lon="12.085035787895322">
        <ele>37.87</ele>
        <time>2023-06-10T16:56:08.360Z</time>
      </trkpt>
      <trkpt lat="55.27785840444267" lon="12.08495607599616">
        <ele>38.09</ele>
        <time>2023-06-10T16:56:12.178Z</time>
      </trkpt>
      <trkpt lat="55.27773150242865" lon="12.084875777363777">
        <ele>38.27</ele>
        <time>2023-06-10T16:56:15.998Z</time>
      </trkpt>
      <trkpt lat="55.27756227180362" lon="12.084768656641245">
        <ele>38.47</ele>
        <time>2023-06-10T16:56:19.821Z</time>
      </trkpt>
      <trkpt lat="55.27747937478125" lon="12.084716185927391">
        <ele>38.6</ele>
        <time>2023-06-10T16:56:23.645Z</time>
      </trkpt>
      <trkpt lat="55.27726789936423" lon="12.084582410752773">
        <ele>39.09</ele>
        <time>2023-06-10T16:56:27.473Z</time>
      </trkpt>
      <trkpt lat="55.2771832421422" lon="12.084528850391507">
        <ele>39.26</ele>
        <time>2023-06-10T16:56:31.302Z</time>
      </trkpt>
      <trkpt lat="55.2770986687392" lon="12.084475373849273">
        <ele>39.38</ele>
        <time>2023-06-10T16:56:35.132Z</time>
      </trkpt>
      <trkpt lat="55.2770140953362" lon="12.084421813488007">
        <ele>39.43</ele>
        <time>2023-06-10T16:56:38.964Z</time>
      </trkpt>
      <trkpt lat="55.276929438114166" lon="12.08436825312674">
        <ele>39.43</ele>
        <time>2023-06-10T16:56:42.797Z</time>
      </trkpt>
      <trkpt lat="55.27684570290148" lon="12.084315279498696">
        <ele>39.39</ele>
        <time>2023-06-10T16:56:46.632Z</time>
      </trkpt>
      <trkpt lat="55.276718800887465" lon="12.084234980866313">
        <ele>39.27</ele>
        <time>2023-06-10T16:56:50.469Z</time>
      </trkpt>
      <trkpt lat="55.27633893303573" lon="12.083994587883353">
        <ele>38.85</ele>
        <time>2023-06-10T16:56:54.312Z</time>
      </trkpt>
      <trkpt lat="55.276085967198014" lon="12.083834577351809">
        <ele>38.49</ele>
        <time>2023-06-10T16:56:58.160Z</time>
      </trkpt>
      <trkpt lat="55.275959065184" lon="12.083754278719425">
        <ele>38.35</ele>
        <time>2023-06-10T16:57:02.010Z</time>
      </trkpt>
      <trkpt lat="55.275874407961965" lon="12.083700718358159">
        <ele>38.29</ele>
        <time>2023-06-10T16:57:05.861Z</time>
      </trkpt>
      <trkpt lat="55.27579067274928" lon="12.083647744730115">
        <ele>38.25</ele>
        <time>2023-06-10T16:57:09.714Z</time>
      </trkpt>
      <trkpt lat="55.27536847628653" lon="12.083380613476038">
        <ele>38.19</ele>
        <time>2023-06-10T16:57:13.574Z</time>
      </trkpt>
      <trkpt lat="55.27528390288353" lon="12.083327053114772">
        <ele>38.21</ele>
        <time>2023-06-10T16:57:17.435Z</time>
      </trkpt>
      <trkpt lat="55.274988608434796" lon="12.08314030431211">
        <ele>38.36</ele>
        <time>2023-06-10T16:57:21.301Z</time>
      </trkpt>
      <trkpt lat="55.27486170642078" lon="12.083060005679727">
        <ele>38.47</ele>
        <time>2023-06-10T16:57:25.170Z</time>
      </trkpt>
      <trkpt lat="55.27473564259708" lon="12.082980209961534">
        <ele>38.65</ele>
        <time>2023-06-10T16:57:29.041Z</time>
      </trkpt>
      <trkpt lat="55.27452416718006" lon="12.082846350967884">
        <ele>39.02</ele>
        <time>2023-06-10T16:57:32.915Z</time>
      </trkpt>
      <trkpt lat="55.274440348148346" lon="12.08279337733984">
        <ele>39.13</ele>
        <time>2023-06-10T16:57:36.791Z</time>
      </trkpt>
      <trkpt lat="55.274271201342344" lon="12.08268634043634">
        <ele>39.31</ele>
        <time>2023-06-10T16:57:40.670Z</time>
      </trkpt>
      <trkpt lat="55.27410280890763" lon="12.08257980644703">
        <ele>39.55</ele>
        <time>2023-06-10T16:57:44.552Z</time>
      </trkpt>
      <trkpt lat="55.273937014862895" lon="12.082474865019321">
        <ele>39.73</ele>
        <time>2023-06-10T16:57:48.436Z</time>
      </trkpt>
      <trkpt lat="55.2738540340215" lon="12.082422394305468">
        <ele>39.8</ele>
        <time>2023-06-10T16:57:52.322Z</time>
      </trkpt>
      <trkpt lat="55.27377113699913" lon="12.082369923591614">
        <ele>39.84</ele>
        <time>2023-06-10T16:57:56.209Z</time>
      </trkpt>
      <trkpt lat="55.27368740178645" lon="12.08231694996357">
        <ele>39.84</ele>
        <time>2023-06-10T16:58:00.098Z</time>
      </trkpt>
      <trkpt lat="55.27360450476408" lon="12.082264479249716">
        <ele>39.77</ele>
        <time>2023-06-10T16:58:03.988Z</time>
      </trkpt>
      <trkpt lat="55.27356301434338" lon="12.082238243892789">
        <ele>39.71</ele>
        <time>2023-06-10T16:58:07.879Z</time>
      </trkpt>
      <trkpt lat="55.273438626900315" lon="12.082159537822008">
        <ele>39.47</ele>
        <time>2023-06-10T16:58:11.772Z</time>
      </trkpt>
      <trkpt lat="55.27335572987795" lon="12.082107150927186">
        <ele>39.36</ele>
        <time>2023-06-10T16:58:15.666Z</time>
      </trkpt>
      <trkpt lat="55.273313485085964" lon="12.082080328837037">
        <ele>39.34</ele>
        <time>2023-06-10T16:58:19.561Z</time>
      </trkpt>
      <trkpt lat="55.27323134243488" lon="12.082028444856405">
        <ele>39.35</ele>
        <time>2023-06-10T16:58:23.457Z</time>
      </trkpt>
      <trkpt lat="55.273059932515025" lon="12.081919983029366">
        <ele>39.47</ele>
        <time>2023-06-10T16:58:27.356Z</time>
      </trkpt>
      <trkpt lat="55.273059932515025" lon="12.081919983029366">
        <ele>39.47</ele>
        <time>2023-06-10T16:58:31.255Z</time>
      </trkpt>
      <trkpt lat="55.27297804132104" lon="12.081895843148232">
        <ele>39.58</ele>
        <time>2023-06-10T16:58:35.156Z</time>
      </trkpt>
      <trkpt lat="55.272889947518706" lon="12.081869943067431">
        <ele>39.72</ele>
        <time>2023-06-10T16:58:39.058Z</time>
      </trkpt>
      <trkpt lat="55.27262709103525" lon="12.081894166767597">
        <ele>40.16</ele>
        <time>2023-06-10T16:58:42.964Z</time>
      </trkpt>
      <trkpt lat="55.272494154050946" lon="12.081906404346228">
        <ele>40.34</ele>
        <time>2023-06-10T16:58:46.872Z</time>
      </trkpt>
      <trkpt lat="55.272406144067645" lon="12.081914534792304">
        <ele>40.41</ele>
        <time>2023-06-10T16:58:50.782Z</time>
      </trkpt>
      <trkpt lat="55.27223012410104" lon="12.081930711865425">
        <ele>40.47</ele>
        <time>2023-06-10T16:58:54.695Z</time>
      </trkpt>
      <trkpt lat="55.27212996035814" lon="12.081939931958914">
        <ele>40.53</ele>
        <time>2023-06-10T16:58:58.609Z</time>
      </trkpt>
      <trkpt lat="55.27201001532376" lon="12.081933310255408">
        <ele>40.62</ele>
        <time>2023-06-10T16:59:02.525Z</time>
      </trkpt>
      <trkpt lat="55.27194991707802" lon="12.08192995749414">
        <ele>40.68</ele>
        <time>2023-06-10T16:59:06.442Z</time>
      </trkpt>
      <trkpt lat="55.27183131314814" lon="12.08191679790616">
        <ele>40.8</ele>
        <time>2023-06-10T16:59:10.361Z</time>
      </trkpt>
      <trkpt lat="55.271608689799905" lon="12.081892071291804">
        <ele>40.88</ele>
        <time>2023-06-10T16:59:14.284Z</time>
      </trkpt>
      <trkpt lat="55.27158999815583" lon="12.081889975816011">
        <ele>40.89</ele>
        <time>2023-06-10T16:59:18.207Z</time>
      </trkpt>
      <trkpt lat="55.27152017690241" lon="12.081875391304493">
        <ele>40.94</ele>
        <time>2023-06-10T16:59:22.131Z</time>
      </trkpt>
      <trkpt lat="55.27129872702062" lon="12.081829207018018">
        <ele>41.15</ele>
        <time>2023-06-10T16:59:26.059Z</time>
      </trkpt>
      <trkpt lat="55.27107727713883" lon="12.08178293891251">
        <ele>41.32</ele>
        <time>2023-06-10T16:59:29.990Z</time>
      </trkpt>
      <trkpt lat="55.27063429355621" lon="12.081690486520529">
        <ele>41.76</ele>
        <time>2023-06-10T16:59:33.928Z</time>
      </trkpt>
      <trkpt lat="55.27050127275288" lon="12.081662742421031">
        <ele>41.87</ele>
        <time>2023-06-10T16:59:37.869Z</time>
      </trkpt>
      <trkpt lat="55.27036816813052" lon="12.081634914502501">
        <ele>41.93</ele>
        <time>2023-06-10T16:59:41.812Z</time>
      </trkpt>
      <trkpt lat="55.27019139379263" lon="12.081598034128547">
        <ele>41.97</ele>
        <time>2023-06-10T16:59:45.758Z</time>
      </trkpt>
      <trkpt lat="55.269969860091805" lon="12.08155176602304">
        <ele>41.98</ele>
        <time>2023-06-10T16:59:49.707Z</time>
      </trkpt>
      <trkpt lat="55.26970465667546" lon="12.081496445462108">
        <ele>41.95</ele>
        <time>2023-06-10T16:59:53.660Z</time>
      </trkpt>
      <trkpt lat="55.269669871777296" lon="12.081489153206348">
        <ele>41.96</ele>
        <time>2023-06-10T16:59:57.614Z</time>
      </trkpt>
      <trkpt lat="55.26952997781336" lon="12.081459984183311">
        <ele>42.07</ele>
        <time>2023-06-10T17:00:01.570Z</time>
      </trkpt>
      <trkpt lat="55.26944984681904" lon="12.081427546218038">
        <ele>42.14</ele>
        <time>2023-06-10T17:00:05.528Z</time>
      </trkpt>
      <trkpt lat="55.26927634142339" lon="12.08135730586946">
        <ele>42.33</ele>
        <time>2023-06-10T17:00:09.488Z</time>
      </trkpt>
      <trkpt lat="55.269059082493186" lon="12.08126937970519">
        <ele>42.63</ele>
        <time>2023-06-10T17:00:13.452Z</time>
      </trkpt>
      <trkpt lat="55.26884173974395" lon="12.08118136972189">
        <ele>42.9</ele>
        <time>2023-06-10T17:00:17.420Z</time>
      </trkpt>
      <trkpt lat="55.26875498704612" lon="12.0811462495476">
        <ele>43.04</ele>
        <time>2023-06-10T17:00:21.389Z</time>
      </trkpt>
      <trkpt lat="55.268537644296885" lon="12.081058323383331">
        <ele>43.43</ele>
        <time>2023-06-10T17:00:25.362Z</time>
      </trkpt>
      <trkpt lat="55.2684938069433" lon="12.081040553748608">
        <ele>43.49</ele>
        <time>2023-06-10T17:00:29.335Z</time>
      </trkpt>
      <trkpt lat="55.26845089159906" lon="12.081023203209043">
        <ele>43.52</ele>
        <time>2023-06-10T17:00:33.309Z</time>
      </trkpt>
      <trkpt lat="55.268364138901234" lon="12.080988083034754">
        <ele>43.53</ele>
        <time>2023-06-10T17:00:37.284Z</time>
      </trkpt>
      <trkpt lat="55.26827738620341" lon="12.080952962860465">
        <ele>43.49</ele>
        <time>2023-06-10T17:00:41.261Z</time>
      </trkpt>
      <trkpt lat="55.267973290756345" lon="12.080829832702875">
        <ele>43.22</ele>
        <time>2023-06-10T17:00:45.243Z</time>
      </trkpt>
      <trkpt lat="55.26784999296069" lon="12.080779960379004">
        <ele>43.14</ele>
        <time>2023-06-10T17:00:49.227Z</time>
      </trkpt>
      <trkpt lat="55.2678426168859" lon="12.080777529627085">
        <ele>43.14</ele>
        <time>2023-06-10T17:00:53.211Z</time>
      </trkpt>
      <trkpt lat="55.26771102100611" lon="12.080733608454466">
        <ele>43.16</ele>
        <time>2023-06-10T17:00:57.197Z</time>
      </trkpt>
      <trkpt lat="55.26758026331663" lon="12.080690022557974">
        <ele>43.26</ele>
        <time>2023-06-10T17:01:01.185Z</time>
      </trkpt>
      <trkpt lat="55.26740441098809" lon="12.080631433054805">
        <ele>43.45</ele>
        <time>2023-06-10T17:01:05.176Z</time>
      </trkpt>
      <trkpt lat="55.26714197359979" lon="12.080544009804726">
        <ele>43.81</ele>
        <time>2023-06-10T17:01:09.171Z</time>
      </trkpt>
      <trkpt lat="55.267129987478256" lon="12.080539986491203">
        <ele>43.82</ele>
        <time>2023-06-10T17:01:13.167Z</time>
      </trkpt>
      <trkpt lat="55.266965785995126" lon="12.080498915165663">
        <ele>43.97</ele>
        <time>2023-06-10T17:01:17.165Z</time>
      </trkpt>
      <trkpt lat="55.266876770183444" lon="12.080476703122258">
        <ele>44.07</ele>
        <time>2023-06-10T17:01:21.165Z</time>
      </trkpt>
      <trkpt lat="55.26674500666559" lon="12.080443762242794">
        <ele>44.31</ele>
        <time>2023-06-10T17:01:25.167Z</time>
      </trkpt>
      <trkpt lat="55.26668993756175" lon="12.080429932102561">
        <ele>44.43</ele>
        <time>2023-06-10T17:01:29.170Z</time>
      </trkpt>
      <trkpt lat="55.26652313768864" lon="12.080404283478856">
        <ele>44.81</ele>
        <time>2023-06-10T17:01:33.175Z</time>
      </trkpt>
      <trkpt lat="55.26642993092537" lon="12.080389950424433">
        <ele>44.93</ele>
        <time>2023-06-10T17:01:37.182Z</time>
      </trkpt>
      <trkpt lat="55.26642993092537" lon="12.080389950424433">
        <ele>44.93</ele>
        <time>2023-06-10T17:01:41.189Z</time>
      </trkpt>
      <trkpt lat="55.26638953015208" lon="12.08039179444313">
        <ele>44.96</ele>
        <time>2023-06-10T17:01:45.197Z</time>
      </trkpt>
      <trkpt lat="55.2663005143404" lon="12.080395985394716">
        <ele>44.94</ele>
        <time>2023-06-10T17:01:49.206Z</time>
      </trkpt>
      <trkpt lat="55.2662555873394" lon="12.080397997051477">
        <ele>44.89</ele>
        <time>2023-06-10T17:01:53.216Z</time>
      </trkpt>
      <trkpt lat="55.26621158234775" lon="12.08040009252727">
        <ele>44.82</ele>
        <time>2023-06-10T17:01:57.226Z</time>
      </trkpt>
      <trkpt lat="55.26612256653607" lon="12.080404199659824">
        <ele>44.62</ele>
        <time>2023-06-10T17:02:01.238Z</time>
      </trkpt>
      <trkpt lat="55.26594361290336" lon="12.080412497743964">
        <ele>44.16</ele>
        <time>2023-06-10T17:02:05.253Z</time>
      </trkpt>
      <trkpt lat="55.26567664928734" lon="12.080424819141626">
        <ele>43.58</ele>
        <time>2023-06-10T17:02:09.272Z</time>
      </trkpt>
      <trkpt lat="55.26558763347566" lon="12.08042892627418">
        <ele>43.34</ele>
        <time>2023-06-10T17:02:13.292Z</time>
      </trkpt>
      <trkpt lat="55.26549861766398" lon="12.080433033406734">
        <ele>43.07</ele>
        <time>2023-06-10T17:02:17.314Z</time>
      </trkpt>
      <trkpt lat="55.2654096018523" lon="12.08043722435832">
        <ele>42.75</ele>
        <time>2023-06-10T17:02:21.337Z</time>
      </trkpt>
      <trkpt lat="55.265349922701716" lon="12.080439990386367">
        <ele>42.5</ele>
        <time>2023-06-10T17:02:25.361Z</time>
      </trkpt>
      <trkpt lat="55.26532234624028" lon="12.080422723665833">
        <ele>42.38</ele>
        <time>2023-06-10T17:02:29.386Z</time>
      </trkpt>
      <trkpt lat="55.26526995934546" lon="12.080389950424433">
        <ele>42.18</ele>
        <time>2023-06-10T17:02:33.412Z</time>
      </trkpt>
      <trkpt lat="55.2651799377054" lon="12.080229939892888">
        <ele>41.76</ele>
        <time>2023-06-10T17:02:37.440Z</time>
      </trkpt>
      <trkpt lat="55.2651799377054" lon="12.080229939892888">
        <ele>41.76</ele>
        <time>2023-06-10T17:02:41.468Z</time>
      </trkpt>
      <trkpt lat="55.26514867320657" lon="12.080090884119272">
        <ele>41.5</ele>
        <time>2023-06-10T17:02:45.497Z</time>
      </trkpt>
      <trkpt lat="55.2651159837842" lon="12.079945541918278">
        <ele>41.31</ele>
        <time>2023-06-10T17:02:49.527Z</time>
      </trkpt>
      <trkpt lat="55.26508999988437" lon="12.079829955473542">
        <ele>41.17</ele>
        <time>2023-06-10T17:02:53.559Z</time>
      </trkpt>
      <trkpt lat="55.26504222303629" lon="12.079659551382065">
        <ele>40.98</ele>
        <time>2023-06-10T17:02:57.592Z</time>
      </trkpt>
      <trkpt lat="55.26498313061893" lon="12.079448495060205">
        <ele>40.69</ele>
        <time>2023-06-10T17:03:01.627Z</time>
      </trkpt>
      <trkpt lat="55.26494348421693" lon="12.079306840896606">
        <ele>40.56</ele>
        <time>2023-06-10T17:03:05.664Z</time>
      </trkpt>
      <trkpt lat="55.26492361910641" lon="12.079236013814807">
        <ele>40.52</ele>
        <time>2023-06-10T17:03:09.702Z</time>
      </trkpt>
      <trkpt lat="55.26488439179957" lon="12.079095784574747">
        <ele>40.5</ele>
        <time>2023-06-10T17:03:13.741Z</time>
      </trkpt>
      <trkpt lat="55.26484474539757" lon="12.078954130411148">
        <ele>40.53</ele>
        <time>2023-06-10T17:03:17.782Z</time>
      </trkpt>
      <trkpt lat="55.264809960499406" lon="12.078829994425178">
        <ele>40.59</ele>
        <time>2023-06-10T17:03:21.824Z</time>
      </trkpt>
      <trkpt lat="55.26480434462428" lon="12.0788149908185">
        <ele>40.6</ele>
        <time>2023-06-10T17:03:25.866Z</time>
      </trkpt>
      <trkpt lat="55.26473050005734" lon="12.078618770465255">
        <ele>40.75</ele>
        <time>2023-06-10T17:03:29.910Z</time>
      </trkpt>
      <trkpt lat="55.26460653170943" lon="12.078289529308677">
        <ele>41.05</ele>
        <time>2023-06-10T17:03:33.958Z</time>
      </trkpt>
      <trkpt lat="55.26453319005668" lon="12.078094650059938">
        <ele>41.29</ele>
        <time>2023-06-10T17:03:38.008Z</time>
      </trkpt>
      <trkpt lat="55.264335880056024" lon="12.077570529654622">
        <ele>42.04</ele>
        <time>2023-06-10T17:03:42.064Z</time>
      </trkpt>
      <trkpt lat="55.26428684592247" lon="12.077440107241273">
        <ele>42.2</ele>
        <time>2023-06-10T17:03:46.121Z</time>
      </trkpt>
      <trkpt lat="55.264237225055695" lon="12.077308427542448">
        <ele>42.32</ele>
        <time>2023-06-10T17:03:50.179Z</time>
      </trkpt>
      <trkpt lat="55.26418819092214" lon="12.07717808894813">
        <ele>42.39</ele>
        <time>2023-06-10T17:03:54.239Z</time>
      </trkpt>
      <trkpt lat="55.264139994978905" lon="12.077049929648638">
        <ele>42.42</ele>
        <time>2023-06-10T17:03:58.300Z</time>
      </trkpt>
      <trkpt lat="55.264138486236334" lon="12.07704657688737">
        <ele>42.42</ele>
        <time>2023-06-10T17:04:02.361Z</time>
      </trkpt>
      <trkpt lat="55.26402851566672" lon="12.076798724010587">
        <ele>42.42</ele>
        <time>2023-06-10T17:04:06.425Z</time>
      </trkpt>
      <trkpt lat="55.263918628916144" lon="12.076550871133804">
        <ele>42.39</ele>
        <time>2023-06-10T17:04:10.492Z</time>
      </trkpt>
      <trkpt lat="55.2638915553689" lon="12.076489850878716">
        <ele>42.4</ele>
        <time>2023-06-10T17:04:14.560Z</time>
      </trkpt>
      <trkpt lat="55.263808658346534" lon="12.076303018257022">
        <ele>42.5</ele>
        <time>2023-06-10T17:04:18.630Z</time>
      </trkpt>
      <trkpt lat="55.263698771595955" lon="12.07605516538024">
        <ele>42.69</ele>
        <time>2023-06-10T17:04:22.703Z</time>
      </trkpt>
      <trkpt lat="55.26361637748778" lon="12.075869590044022">
        <ele>42.89</ele>
        <time>2023-06-10T17:04:26.778Z</time>
      </trkpt>
      <trkpt lat="55.26358997449279" lon="12.075809994712472">
        <ele>42.96</ele>
        <time>2023-06-10T17:04:30.854Z</time>
      </trkpt>
      <trkpt lat="55.2634943369776" lon="12.075640512630343">
        <ele>43.21</ele>
        <time>2023-06-10T17:04:34.932Z</time>
      </trkpt>
      <trkpt lat="55.26343172416091" lon="12.07552945241332">
        <ele>43.35</ele>
        <time>2023-06-10T17:04:39.011Z</time>
      </trkpt>
      <trkpt lat="55.263368440791965" lon="12.075417302548885">
        <ele>43.44</ele>
        <time>2023-06-10T17:04:43.092Z</time>
      </trkpt>
      <trkpt lat="55.263242460787296" lon="12.075194176286459">
        <ele>43.55</ele>
        <time>2023-06-10T17:04:47.176Z</time>
      </trkpt>
      <trkpt lat="55.263179847970605" lon="12.075083116069436">
        <ele>43.67</ele>
        <time>2023-06-10T17:04:51.261Z</time>
      </trkpt>
      <trkpt lat="55.26311656460166" lon="12.074971050024033">
        <ele>43.86</ele>
        <time>2023-06-10T17:04:55.347Z</time>
      </trkpt>
      <trkpt lat="55.262991255149245" lon="12.074748929589987">
        <ele>44.35</ele>
        <time>2023-06-10T17:04:59.436Z</time>
      </trkpt>
      <trkpt lat="55.2629279717803" lon="12.074636779725552">
        <ele>44.56</ele>
        <time>2023-06-10T17:05:03.527Z</time>
      </trkpt>
      <trkpt lat="55.26286535896361" lon="12.07452580332756">
        <ele>44.69</ele>
        <time>2023-06-10T17:05:07.619Z</time>
      </trkpt>
      <trkpt lat="55.26283367536962" lon="12.074469728395343">
        <ele>44.73</ele>
        <time>2023-06-10T17:05:11.712Z</time>
      </trkpt>
      <trkpt lat="55.26279998011887" lon="12.07440996542573">
        <ele>44.75</ele>
        <time>2023-06-10T17:05:15.806Z</time>
      </trkpt>
      <trkpt lat="55.262773325666785" lon="12.074352968484163">
        <ele>44.77</ele>
        <time>2023-06-10T17:05:19.900Z</time>
      </trkpt>
      <trkpt lat="55.26271674782038" lon="12.074232269078493">
        <ele>44.76</ele>
        <time>2023-06-10T17:05:23.996Z</time>
      </trkpt>
      <trkpt lat="55.26257995516062" lon="12.073939992114902">
        <ele>44.68</ele>
        <time>2023-06-10T17:05:28.095Z</time>
      </trkpt>
      <trkpt lat="55.26243997737765" lon="12.073489967733622">
        <ele>44.58</ele>
        <time>2023-06-10T17:05:32.199Z</time>
      </trkpt>
      <trkpt lat="55.262427907437086" lon="12.073443280532956">
        <ele>44.57</ele>
        <time>2023-06-10T17:05:36.303Z</time>
      </trkpt>
      <trkpt lat="55.262354062870145" lon="12.073157206177711">
        <ele>44.45</ele>
        <time>2023-06-10T17:05:40.410Z</time>
      </trkpt>
      <trkpt lat="55.26231735013425" lon="12.073014881461859">
        <ele>44.36</ele>
        <time>2023-06-10T17:05:44.519Z</time>
      </trkpt>
      <trkpt lat="55.26227996684611" lon="12.072869958356023">
        <ele>44.24</ele>
        <time>2023-06-10T17:05:48.629Z</time>
      </trkpt>
      <trkpt lat="55.26224493049085" lon="12.072644233703613">
        <ele>44.08</ele>
        <time>2023-06-10T17:05:52.741Z</time>
      </trkpt>
      <trkpt lat="55.26218608953059" lon="12.072265120223165">
        <ele>43.84</ele>
        <time>2023-06-10T17:05:56.857Z</time>
      </trkpt>
      <trkpt lat="55.262099923565984" lon="12.071709986776114">
        <ele>43.43</ele>
        <time>2023-06-10T17:06:00.978Z</time>
      </trkpt>
      <trkpt lat="55.26208743453026" lon="12.071581659838557">
        <ele>43.34</ele>
        <time>2023-06-10T17:06:05.100Z</time>
      </trkpt>
      <trkpt lat="55.262064803391695" lon="12.071349900215864">
        <ele>43.19</ele>
        <time>2023-06-10T17:06:09.225Z</time>
      </trkpt>
      <trkpt lat="55.26202700100839" lon="12.070962572470307">
        <ele>43.04</ele>
        <time>2023-06-10T17:06:13.353Z</time>
      </trkpt>
      <trkpt lat="55.26200445368886" lon="12.070730729028583">
        <ele>43.0</ele>
        <time>2023-06-10T17:06:17.483Z</time>
      </trkpt>
      <trkpt lat="55.2619799785316" lon="12.07047994248569">
        <ele>43.0</ele>
        <time>2023-06-10T17:06:21.616Z</time>
      </trkpt>
      <trkpt lat="55.26195801794529" lon="12.07018774934113">
        <ele>43.0</ele>
        <time>2023-06-10T17:06:25.751Z</time>
      </trkpt>
      <trkpt lat="55.261949971318245" lon="12.070079958066344">
        <ele>42.88</ele>
        <time>2023-06-10T17:06:29.887Z</time>
      </trkpt>
      <trkpt lat="55.26195282116532" lon="12.070032684132457">
        <ele>42.83</ele>
        <time>2023-06-10T17:06:34.024Z</time>
      </trkpt>
      <trkpt lat="55.26196690276265" lon="12.069802014157176">
        <ele>42.64</ele>
        <time>2023-06-10T17:06:38.163Z</time>
      </trkpt>
      <trkpt lat="55.26198106817901" lon="12.069569751620293">
        <ele>42.51</ele>
        <time>2023-06-10T17:06:42.304Z</time>
      </trkpt>
      <trkpt lat="55.26199506595731" lon="12.06933899782598">
        <ele>42.46</ele>
        <time>2023-06-10T17:06:46.447Z</time>
      </trkpt>
      <trkpt lat="55.262023312970996" lon="12.068876065313816">
        <ele>42.47</ele>
        <time>2023-06-10T17:06:50.594Z</time>
      </trkpt>
      <trkpt lat="55.26205147616565" lon="12.068413132801652">
        <ele>42.41</ele>
        <time>2023-06-10T17:06:54.746Z</time>
      </trkpt>
      <trkpt lat="55.26206555776298" lon="12.068182462826371">
        <ele>42.41</ele>
        <time>2023-06-10T17:06:58.900Z</time>
      </trkpt>
      <trkpt lat="55.26206991635263" lon="12.068109959363937">
        <ele>42.41</ele>
        <time>2023-06-10T17:07:03.054Z</time>
      </trkpt>
      <trkpt lat="55.26206664741039" lon="12.067717351019382">
        <ele>42.47</ele>
        <time>2023-06-10T17:07:07.212Z</time>
      </trkpt>
      <trkpt lat="55.262059941887856" lon="12.066909922286868">
        <ele>42.62</ele>
        <time>2023-06-10T17:07:11.377Z</time>
      </trkpt>
      <trkpt lat="55.262023312970996" lon="12.06671948544681">
        <ele>42.66</ele>
        <time>2023-06-10T17:07:15.544Z</time>
      </trkpt>
      <trkpt lat="55.26200998574495" lon="12.066649999469519">
        <ele>42.65</ele>
        <time>2023-06-10T17:07:19.712Z</time>
      </trkpt>
      <trkpt lat="55.26198450475931" lon="12.066582022234797">
        <ele>42.65</ele>
        <time>2023-06-10T17:07:23.881Z</time>
      </trkpt>
      <trkpt lat="55.261949971318245" lon="12.066489988937974">
        <ele>42.62</ele>
        <time>2023-06-10T17:07:28.051Z</time>
      </trkpt>
      <trkpt lat="55.26192926801741" lon="12.0664644241333">
        <ele>42.61</ele>
        <time>2023-06-10T17:07:32.221Z</time>
      </trkpt>
      <trkpt lat="55.261857099831104" lon="12.066375659778714">
        <ele>42.54</ele>
        <time>2023-06-10T17:07:36.393Z</time>
      </trkpt>
      <trkpt lat="55.261819968000054" lon="12.06632997840643">
        <ele>42.48</ele>
        <time>2023-06-10T17:07:40.565Z</time>
      </trkpt>
      <trkpt lat="55.26178082451224" lon="12.066303826868534">
        <ele>42.44</ele>
        <time>2023-06-10T17:07:44.738Z</time>
      </trkpt>
      <trkpt lat="55.261615198105574" lon="12.066193437203765">
        <ele>42.19</ele>
        <time>2023-06-10T17:07:48.914Z</time>
      </trkpt>
      <trkpt lat="55.26149156503379" lon="12.066111043095589">
        <ele>42.03</ele>
        <time>2023-06-10T17:07:53.092Z</time>
      </trkpt>
      <trkpt lat="55.26142995804548" lon="12.066069971770048">
        <ele>41.91</ele>
        <time>2023-06-10T17:07:57.271Z</time>
      </trkpt>
      <trkpt lat="55.26128947734833" lon="12.065982632339">
        <ele>41.64</ele>
        <time>2023-06-10T17:08:01.452Z</time>
      </trkpt>
      <trkpt lat="55.2612098492682" lon="12.065933095291257">
        <ele>41.45</ele>
        <time>2023-06-10T17:08:05.635Z</time>
      </trkpt>
      <trkpt lat="55.26096652261913" lon="12.065781885758042">
        <ele>40.83</ele>
        <time>2023-06-10T17:08:09.822Z</time>
      </trkpt>
      <trkpt lat="55.260724034160376" lon="12.065631179139018">
        <ele>40.33</ele>
        <time>2023-06-10T17:08:14.013Z</time>
      </trkpt>
      <trkpt lat="55.26059688068926" lon="12.06555213779211">
        <ele>40.04</ele>
        <time>2023-06-10T17:08:18.206Z</time>
      </trkpt>
      <trkpt lat="55.26042823679745" lon="12.065447280183434">
        <ele>39.62</ele>
        <time>2023-06-10T17:08:22.402Z</time>
      </trkpt>
      <trkpt lat="55.26030108332634" lon="12.065368238836527">
        <ele>39.36</ele>
        <time>2023-06-10T17:08:26.600Z</time>
      </trkpt>
      <trkpt lat="55.26017392985523" lon="12.06528919748962">
        <ele>39.17</ele>
        <time>2023-06-10T17:08:30.800Z</time>
      </trkpt>
      <trkpt lat="55.260005202144384" lon="12.065184339880943">
        <ele>39.02</ele>
        <time>2023-06-10T17:08:35.003Z</time>
      </trkpt>
      <trkpt lat="55.259835636243224" lon="12.065078979358077">
        <ele>38.97</ele>
        <time>2023-06-10T17:08:39.209Z</time>
      </trkpt>
      <trkpt lat="55.25970848277211" lon="12.06499993801117">
        <ele>38.97</ele>
        <time>2023-06-10T17:08:43.417Z</time>
      </trkpt>
      <trkpt lat="55.259624579921365" lon="12.064947802573442">
        <ele>39.03</ele>
        <time>2023-06-10T17:08:47.627Z</time>
      </trkpt>
      <trkpt lat="55.25941268540919" lon="12.064816039055586">
        <ele>39.28</ele>
        <time>2023-06-10T17:08:51.840Z</time>
      </trkpt>
      <trkpt lat="55.25928637012839" lon="12.0647375844419">
        <ele>39.36</ele>
        <time>2023-06-10T17:08:56.055Z</time>
      </trkpt>
      <trkpt lat="55.25915921665728" lon="12.064658543094993">
        <ele>39.35</ele>
        <time>2023-06-10T17:09:00.273Z</time>
      </trkpt>
      <trkpt lat="55.25894807651639" lon="12.064527282491326">
        <ele>39.28</ele>
        <time>2023-06-10T17:09:04.494Z</time>
      </trkpt>
      <trkpt lat="55.25886417366564" lon="12.0644751470536">
        <ele>39.06</ele>
        <time>2023-06-10T17:09:08.717Z</time>
      </trkpt>
      <trkpt lat="55.258821761235595" lon="12.06444882787764">
        <ele>38.97</ele>
        <time>2023-06-10T17:09:12.940Z</time>
      </trkpt>
      <trkpt lat="55.258738696575165" lon="12.064397195354104">
        <ele>38.82</ele>
        <time>2023-06-10T17:09:17.165Z</time>
      </trkpt>
      <trkpt lat="55.25865479372442" lon="12.064344976097345">
        <ele>38.71</ele>
        <time>2023-06-10T17:09:21.391Z</time>
      </trkpt>
      <trkpt lat="55.25844541378319" lon="12.064214888960123">
        <ele>38.49</ele>
        <time>2023-06-10T17:09:25.621Z</time>
      </trkpt>
      <trkpt lat="55.25810971856117" lon="12.064006179571152">
        <ele>38.25</ele>
        <time>2023-06-10T17:09:29.856Z</time>
      </trkpt>
      <trkpt lat="55.257984241470695" lon="12.063928227871656">
        <ele>38.21</ele>
        <time>2023-06-10T17:09:34.094Z</time>
      </trkpt>
      <trkpt lat="55.25764938443899" lon="12.063720105215907">
        <ele>38.24</ele>
        <time>2023-06-10T17:09:38.337Z</time>
      </trkpt>
      <trkpt lat="55.257523991167545" lon="12.06364206969738">
        <ele>38.29</ele>
        <time>2023-06-10T17:09:42.582Z</time>
      </trkpt>
      <trkpt lat="55.25744000449777" lon="12.063589934259653">
        <ele>38.36</ele>
        <time>2023-06-10T17:09:46.829Z</time>
      </trkpt>
      <trkpt lat="55.25727219879627" lon="12.063485579565167">
        <ele>38.56</ele>
        <time>2023-06-10T17:09:51.079Z</time>
      </trkpt>
      <trkpt lat="55.257146721705794" lon="12.063407627865672">
        <ele>38.78</ele>
        <time>2023-06-10T17:09:55.331Z</time>
      </trkpt>
      <trkpt lat="55.25697883218527" lon="12.063303273171186">
        <ele>39.14</ele>
        <time>2023-06-10T17:09:59.586Z</time>
      </trkpt>
      <trkpt lat="55.25689492933452" lon="12.06325113773346">
        <ele>39.37</ele>
        <time>2023-06-10T17:10:03.842Z</time>
      </trkpt>
      <trkpt lat="55.25681186467409" lon="12.063199505209923">
        <ele>39.62</ele>
        <time>2023-06-10T17:10:08.099Z</time>
      </trkpt>
      <trkpt lat="55.256727961823344" lon="12.063147369772196">
        <ele>39.92</ele>
        <time>2023-06-10T17:10:12.358Z</time>
      </trkpt>
      <trkpt lat="55.256685549393296" lon="12.063120966777205">
        <ele>40.1</ele>
        <time>2023-06-10T17:10:16.618Z</time>
      </trkpt>
      <trkpt lat="55.2566440589726" lon="12.063095150515437">
        <ele>40.3</ele>
        <time>2023-06-10T17:10:20.878Z</time>
      </trkpt>
      <trkpt lat="55.25656007230282" lon="12.06304301507771">
        <ele>40.78</ele>
        <time>2023-06-10T17:10:25.140Z</time>
      </trkpt>
      <trkpt lat="55.25647616945207" lon="12.062990879639983">
        <ele>41.33</ele>
        <time>2023-06-10T17:10:29.403Z</time>
      </trkpt>
      <trkpt lat="55.25639310479164" lon="12.062939247116446">
        <ele>41.84</ele>
        <time>2023-06-10T17:10:33.668Z</time>
      </trkpt>
      <trkpt lat="55.25632998906076" lon="12.062899935990572">
        <ele>41.84</ele>
        <time>2023-06-10T17:10:37.934Z</time>
      </trkpt>
      <trkpt lat="55.25630543008447" lon="12.06289448775351">
        <ele>41.85</ele>
        <time>2023-06-10T17:10:42.200Z</time>
      </trkpt>
      <trkpt lat="55.2562399674207" lon="12.062879987061024">
        <ele>41.72</ele>
        <time>2023-06-10T17:10:46.467Z</time>
      </trkpt>
      <trkpt lat="55.25625136680901" lon="12.062762305140495">
        <ele>41.59</ele>
        <time>2023-06-10T17:10:50.735Z</time>
      </trkpt>
      <trkpt lat="55.256266286596656" lon="12.062608245760202">
        <ele>41.47</ele>
        <time>2023-06-10T17:10:55.005Z</time>
      </trkpt>
      <trkpt lat="55.256288666278124" lon="12.06237648613751">
        <ele>41.4</ele>
        <time>2023-06-10T17:10:59.277Z</time>
      </trkpt>
      <trkpt lat="55.256299981847405" lon="12.062259977683425">
        <ele>41.39</ele>
        <time>2023-06-10T17:11:03.550Z</time>
      </trkpt>
      <trkpt lat="55.25631481781602" lon="12.061987984925508">
        <ele>41.37</ele>
        <time>2023-06-10T17:11:07.825Z</time>
      </trkpt>
      <trkpt lat="55.256336107850075" lon="12.061596885323524">
        <ele>41.3</ele>
        <time>2023-06-10T17:11:12.104Z</time>
      </trkpt>
      <trkpt lat="55.25634457357228" lon="12.061441401019692">
        <ele>41.24</ele>
        <time>2023-06-10T17:11:16.384Z</time>
      </trkpt>
      <trkpt lat="55.25637432932854" lon="12.060896325856447">
        <ele>40.93</ele>
        <time>2023-06-10T17:11:20.669Z</time>
      </trkpt>
      <trkpt lat="55.256389919668436" lon="12.060609916225076">
        <ele>40.7</ele>
        <time>2023-06-10T17:11:24.957Z</time>
      </trkpt>
      <trkpt lat="55.256382040679455" lon="12.060113539919257">
        <ele>40.33</ele>
        <time>2023-06-10T17:11:29.250Z</time>
      </trkpt>
      <trkpt lat="55.2563795261085" lon="12.059957385063171">
        <ele>40.23</ele>
        <time>2023-06-10T17:11:33.544Z</time>
      </trkpt>
      <trkpt lat="55.25636997073889" lon="12.059359923005104">
        <ele>39.91</ele>
        <time>2023-06-10T17:11:37.844Z</time>
      </trkpt>
      <trkpt lat="55.25637734681368" lon="12.05893998965621">
        <ele>39.7</ele>
        <time>2023-06-10T17:11:42.147Z</time>
      </trkpt>
      <trkpt lat="55.256380029022694" lon="12.058783834800124">
        <ele>39.65</ele>
        <time>2023-06-10T17:11:46.452Z</time>
      </trkpt>
      <trkpt lat="55.25638279505074" lon="12.058626087382436">
        <ele>39.63</ele>
        <time>2023-06-10T17:11:50.758Z</time>
      </trkpt>
      <trkpt lat="55.25638556107879" lon="12.05846993252635">
        <ele>39.66</ele>
        <time>2023-06-10T17:11:55.066Z</time>
      </trkpt>
      <trkpt lat="55.25638832710683" lon="12.058313777670264">
        <ele>39.73</ele>
        <time>2023-06-10T17:11:59.375Z</time>
      </trkpt>
      <trkpt lat="55.256389919668436" lon="12.058219984173775">
        <ele>39.79</ele>
        <time>2023-06-10T17:12:03.685Z</time>
      </trkpt>
      <trkpt lat="55.256389919668436" lon="12.058219984173775">
        <ele>39.79</ele>
        <time>2023-06-10T17:12:07.995Z</time>
      </trkpt>
      <trkpt lat="55.25636326521635" lon="12.058086711913347">
        <ele>39.97</ele>
        <time>2023-06-10T17:12:12.306Z</time>
      </trkpt>
      <trkpt lat="55.25632998906076" lon="12.057919995859265">
        <ele>40.24</ele>
        <time>2023-06-10T17:12:16.619Z</time>
      </trkpt>
      <trkpt lat="55.2563245408237" lon="12.057784544304013">
        <ele>40.45</ele>
        <time>2023-06-10T17:12:20.933Z</time>
      </trkpt>
      <trkpt lat="55.256319930776954" lon="12.057669963687658">
        <ele>40.37</ele>
        <time>2023-06-10T17:12:25.248Z</time>
      </trkpt>
      <trkpt lat="55.25625673122704" lon="12.057627802714705">
        <ele>40.3</ele>
        <time>2023-06-10T17:12:29.564Z</time>
      </trkpt>
      <trkpt lat="55.25617349892855" lon="12.05757231451571">
        <ele>40.23</ele>
        <time>2023-06-10T17:12:33.882Z</time>
      </trkpt>
      <trkpt lat="55.25613997131586" lon="12.057549934834242">
        <ele>40.22</ele>
        <time>2023-06-10T17:12:38.200Z</time>
      </trkpt>
      <trkpt lat="55.25613217614591" lon="12.057541804388165">
        <ele>40.22</ele>
        <time>2023-06-10T17:12:42.518Z</time>
      </trkpt>
      <trkpt lat="55.25605573318899" lon="12.057461505755782">
        <ele>40.25</ele>
        <time>2023-06-10T17:12:46.838Z</time>
      </trkpt>
      <trkpt lat="55.255979374051094" lon="12.05738129094243">
        <ele>40.36</ele>
        <time>2023-06-10T17:12:51.159Z</time>
      </trkpt>
      <trkpt lat="55.255902260541916" lon="12.057300237938762">
        <ele>40.55</ele>
        <time>2023-06-10T17:12:55.482Z</time>
      </trkpt>
      <trkpt lat="55.25582581758499" lon="12.05722002312541">
        <ele>40.79</ele>
        <time>2023-06-10T17:12:59.806Z</time>
      </trkpt>
      <trkpt lat="55.2557494584471" lon="12.057139724493027">
        <ele>41.06</ele>
        <time>2023-06-10T17:13:04.132Z</time>
      </trkpt>
      <trkpt lat="55.25555809959769" lon="12.056938726454973">
        <ele>41.8</ele>
        <time>2023-06-10T17:13:08.461Z</time>
      </trkpt>
      <trkpt lat="55.2554817404598" lon="12.056858511641622">
        <ele>42.05</ele>
        <time>2023-06-10T17:13:12.792Z</time>
      </trkpt>
      <trkpt lat="55.255405297502875" lon="12.056778213009238">
        <ele>42.27</ele>
        <time>2023-06-10T17:13:17.124Z</time>
      </trkpt>
      <trkpt lat="55.25521393865347" lon="12.056577214971185">
        <ele>42.76</ele>
        <time>2023-06-10T17:13:21.460Z</time>
      </trkpt>
      <trkpt lat="55.255137579515576" lon="12.056497000157833">
        <ele>42.94</ele>
        <time>2023-06-10T17:13:25.797Z</time>
      </trkpt>
      <trkpt lat="55.25502257980406" lon="12.056376216933131">
        <ele>43.14</ele>
        <time>2023-06-10T17:13:30.136Z</time>
      </trkpt>
      <trkpt lat="55.25490766391158" lon="12.05625543370843">
        <ele>43.27</ele>
        <time>2023-06-10T17:13:34.477Z</time>
      </trkpt>
      <trkpt lat="55.25479266420007" lon="12.056134650483727">
        <ele>43.34</ele>
        <time>2023-06-10T17:13:38.820Z</time>
      </trkpt>
      <trkpt lat="55.25460130535066" lon="12.055933652445674">
        <ele>43.37</ele>
        <time>2023-06-10T17:13:43.167Z</time>
      </trkpt>
      <trkpt lat="55.25448630563915" lon="12.055812869220972">
        <ele>43.34</ele>
        <time>2023-06-10T17:13:47.516Z</time>
      </trkpt>
      <trkpt lat="55.25429494678974" lon="12.055611871182919">
        <ele>43.19</ele>
        <time>2023-06-10T17:13:51.869Z</time>
      </trkpt>
      <trkpt lat="55.25402722880244" lon="12.055330574512482">
        <ele>42.86</ele>
        <time>2023-06-10T17:13:56.227Z</time>
      </trkpt>
      <trkpt lat="55.253874426707625" lon="12.055170061066747">
        <ele>42.69</ele>
        <time>2023-06-10T17:14:00.588Z</time>
      </trkpt>
      <trkpt lat="55.25372087024152" lon="12.055008793249726">
        <ele>42.43</ele>
        <time>2023-06-10T17:14:04.951Z</time>
      </trkpt>
      <trkpt lat="55.25352875702083" lon="12.054806957021356">
        <ele>42.04</ele>
        <time>2023-06-10T17:14:09.318Z</time>
      </trkpt>
      <trkpt lat="55.25345239788294" lon="12.054726742208004">
        <ele>41.92</ele>
        <time>2023-06-10T17:14:13.687Z</time>
      </trkpt>
      <trkpt lat="55.25337520055473" lon="12.054645689204335">
        <ele>41.84</ele>
        <time>2023-06-10T17:14:18.057Z</time>
      </trkpt>
      <trkpt lat="55.253029530867934" lon="12.054282585158944">
        <ele>41.56</ele>
        <time>2023-06-10T17:14:22.433Z</time>
      </trkpt>
      <trkpt lat="55.252969935536385" lon="12.054219972342253">
        <ele>41.52</ele>
        <time>2023-06-10T17:14:26.811Z</time>
      </trkpt>
      <trkpt lat="55.25272250175476" lon="12.053956780582666">
        <ele>41.36</ele>
        <time>2023-06-10T17:14:31.193Z</time>
      </trkpt>
      <trkpt lat="55.25241564027965" lon="12.053630473092198">
        <ele>41.2</ele>
        <time>2023-06-10T17:14:35.581Z</time>
      </trkpt>
      <trkpt lat="55.25218488648534" lon="12.053385050967336">
        <ele>41.13</ele>
        <time>2023-06-10T17:14:39.973Z</time>
      </trkpt>
      <trkpt lat="55.2518396358937" lon="12.05301783978939">
        <ele>41.09</ele>
        <time>2023-06-10T17:14:44.372Z</time>
      </trkpt>
      <trkpt lat="55.25172421708703" lon="12.05289512872696">
        <ele>41.11</ele>
        <time>2023-06-10T17:14:48.773Z</time>
      </trkpt>
      <trkpt lat="55.25161039084196" lon="12.052774094045162">
        <ele>41.03</ele>
        <time>2023-06-10T17:14:53.176Z</time>
      </trkpt>
      <trkpt lat="55.25153428316116" lon="12.052693124860525">
        <ele>41.02</ele>
        <time>2023-06-10T17:14:57.580Z</time>
      </trkpt>
      <trkpt lat="55.25111669674516" lon="12.052249051630497">
        <ele>41.09</ele>
        <time>2023-06-10T17:15:01.992Z</time>
      </trkpt>
      <trkpt lat="55.25104058906436" lon="12.05216808244586">
        <ele>41.13</ele>
        <time>2023-06-10T17:15:06.406Z</time>
      </trkpt>
      <trkpt lat="55.25096439756453" lon="12.052087113261223">
        <ele>41.21</ele>
        <time>2023-06-10T17:15:10.821Z</time>
      </trkpt>
      <trkpt lat="55.25077446363866" lon="12.051885025575757">
        <ele>41.49</ele>
        <time>2023-06-10T17:15:15.240Z</time>
      </trkpt>
      <trkpt lat="55.250584529712796" lon="12.051683021709323">
        <ele>41.74</ele>
        <time>2023-06-10T17:15:19.662Z</time>
      </trkpt>
      <trkpt lat="55.25027993135154" lon="12.051359144970775">
        <ele>42.26</ele>
        <time>2023-06-10T17:15:24.090Z</time>
      </trkpt>
      <trkpt lat="55.25016610510647" lon="12.051238110288978">
        <ele>42.5</ele>
        <time>2023-06-10T17:15:28.520Z</time>
      </trkpt>
      <trkpt lat="55.24990006349981" lon="12.050955137237906">
        <ele>43.14</ele>
        <time>2023-06-10T17:15:32.955Z</time>
      </trkpt>
      <trkpt lat="55.24982387199998" lon="12.05087416805327">
        <ele>43.28</ele>
        <time>2023-06-10T17:15:37.392Z</time>
      </trkpt>
      <trkpt lat="55.249595465138555" lon="12.050631260499358">
        <ele>43.53</ele>
        <time>2023-06-10T17:15:41.833Z</time>
      </trkpt>
      <trkpt lat="55.24951935745776" lon="12.050550291314721">
        <ele>43.63</ele>
        <time>2023-06-10T17:15:46.275Z</time>
      </trkpt>
      <trkpt lat="55.24940553121269" lon="12.050429172813892">
        <ele>43.82</ele>
        <time>2023-06-10T17:15:50.719Z</time>
      </trkpt>
      <trkpt lat="55.24921559728682" lon="12.050227168947458">
        <ele>44.19</ele>
        <time>2023-06-10T17:15:55.167Z</time>
      </trkpt>
      <trkpt lat="55.249189948663116" lon="12.05019992776215">
        <ele>44.23</ele>
        <time>2023-06-10T17:15:59.615Z</time>
      </trkpt>
      <trkpt lat="55.249142507091165" lon="12.050138236954808">
        <ele>44.31</ele>
        <time>2023-06-10T17:16:04.064Z</time>
      </trkpt>
      <trkpt lat="55.24908995255828" lon="12.05006992444396">
        <ele>44.37</ele>
        <time>2023-06-10T17:16:08.514Z</time>
      </trkpt>
      <trkpt lat="55.249073607847095" lon="12.050040001049638">
        <ele>44.4</ele>
        <time>2023-06-10T17:16:12.965Z</time>
      </trkpt>
      <trkpt lat="55.24902993813157" lon="12.04995995387435">
        <ele>44.52</ele>
        <time>2023-06-10T17:16:17.417Z</time>
      </trkpt>
      <trkpt lat="55.24899423122406" lon="12.049859957769513">
        <ele>44.66</ele>
        <time>2023-06-10T17:16:21.870Z</time>
      </trkpt>
      <trkpt lat="55.24897998198867" lon="12.049819976091385">
        <ele>44.71</ele>
        <time>2023-06-10T17:16:26.323Z</time>
      </trkpt>
      <trkpt lat="55.248929942026734" lon="12.04954999499023">
        <ele>45.06</ele>
        <time>2023-06-10T17:16:30.779Z</time>
      </trkpt>
      <trkpt lat="55.248918207362294" lon="12.049425188452005">
        <ele>45.22</ele>
        <time>2023-06-10T17:16:35.236Z</time>
      </trkpt>
      <trkpt lat="55.24889700114727" lon="12.049199463799596">
        <ele>45.54</ele>
        <time>2023-06-10T17:16:39.695Z</time>
      </trkpt>
      <trkpt lat="55.248875711113214" lon="12.048973739147186">
        <ele>45.89</ele>
        <time>2023-06-10T17:16:44.156Z</time>
      </trkpt>
      <trkpt lat="55.24885450489819" lon="12.048748014494777">
        <ele>46.27</ele>
        <time>2023-06-10T17:16:48.619Z</time>
      </trkpt>
      <trkpt lat="55.24884997867048" lon="12.048699986189604">
        <ele>46.36</ele>
        <time>2023-06-10T17:16:53.083Z</time>
      </trkpt>
      <trkpt lat="55.248836148530245" lon="12.048598565161228">
        <ele>46.56</ele>
        <time>2023-06-10T17:16:57.548Z</time>
      </trkpt>
      <trkpt lat="55.248805806040764" lon="12.048376025632024">
        <ele>47.03</ele>
        <time>2023-06-10T17:17:02.015Z</time>
      </trkpt>
      <trkpt lat="55.24877546355128" lon="12.048153569921851">
        <ele>47.54</ele>
        <time>2023-06-10T17:17:06.484Z</time>
      </trkpt>
      <trkpt lat="55.248759957030416" lon="12.048039995133877">
        <ele>47.61</ele>
        <time>2023-06-10T17:17:10.954Z</time>
      </trkpt>
      <trkpt lat="55.24873925372958" lon="12.047915859147906">
        <ele>47.7</ele>
        <time>2023-06-10T17:17:15.425Z</time>
      </trkpt>
      <trkpt lat="55.24871997535229" lon="12.047799937427044">
        <ele>47.94</ele>
        <time>2023-06-10T17:17:19.897Z</time>
      </trkpt>
      <trkpt lat="55.248694410547614" lon="12.047694744542241">
        <ele>48.18</ele>
        <time>2023-06-10T17:17:24.370Z</time>
      </trkpt>
      <trkpt lat="55.248639928177" lon="12.04746994189918">
        <ele>48.73</ele>
        <time>2023-06-10T17:17:28.846Z</time>
      </trkpt>
      <trkpt lat="55.24858091957867" lon="12.047269195318222">
        <ele>49.25</ele>
        <time>2023-06-10T17:17:33.324Z</time>
      </trkpt>
      <trkpt lat="55.24853993207216" lon="12.047129971906543">
        <ele>49.56</ele>
        <time>2023-06-10T17:17:37.803Z</time>
      </trkpt>
      <trkpt lat="55.248401798307896" lon="12.046821350231767">
        <ele>50.36</ele>
        <time>2023-06-10T17:17:42.286Z</time>
      </trkpt>
      <trkpt lat="55.24820909835398" lon="12.046390771865845">
        <ele>51.59</ele>
        <time>2023-06-10T17:17:46.774Z</time>
      </trkpt>
      <trkpt lat="55.248069958761334" lon="12.046079970896244">
        <ele>52.41</ele>
        <time>2023-06-10T17:17:51.265Z</time>
      </trkpt>
      <trkpt lat="55.248069958761334" lon="12.046079970896244">
        <ele>52.41</ele>
        <time>2023-06-10T17:17:55.756Z</time>
      </trkpt>
      <trkpt lat="55.24799779057503" lon="12.045884672552347">
        <ele>52.85</ele>
        <time>2023-06-10T17:18:00.249Z</time>
      </trkpt>
      <trkpt lat="55.247899973765016" lon="12.04561997205019">
        <ele>53.4</ele>
        <time>2023-06-10T17:18:04.745Z</time>
      </trkpt>
      <trkpt lat="55.247837444767356" lon="12.04541377723217">
        <ele>53.82</ele>
        <time>2023-06-10T17:18:09.243Z</time>
      </trkpt>
      <trkpt lat="55.24779570288956" lon="12.045275811105967">
        <ele>54.08</ele>
        <time>2023-06-10T17:18:13.743Z</time>
      </trkpt>
      <trkpt lat="55.24769998155534" lon="12.044959980994463">
        <ele>54.62</ele>
        <time>2023-06-10T17:18:18.246Z</time>
      </trkpt>
      <trkpt lat="55.24769386276603" lon="12.044933242723346">
        <ele>54.67</ele>
        <time>2023-06-10T17:18:22.749Z</time>
      </trkpt>
      <trkpt lat="55.247661927714944" lon="12.044792510569096">
        <ele>54.94</ele>
        <time>2023-06-10T17:18:27.254Z</time>
      </trkpt>
      <trkpt lat="55.247599985450506" lon="12.044519931077957">
        <ele>55.48</ele>
        <time>2023-06-10T17:18:31.762Z</time>
      </trkpt>
      <trkpt lat="55.24755195714533" lon="12.044215835630894">
        <ele>56.08</ele>
        <time>2023-06-10T17:18:36.272Z</time>
      </trkpt>
      <trkpt lat="55.247528655454516" lon="12.044068397954106">
        <ele>56.35</ele>
        <time>2023-06-10T17:18:40.784Z</time>
      </trkpt>
      <trkpt lat="55.247509963810444" lon="12.043949961662292">
        <ele>56.53</ele>
        <time>2023-06-10T17:18:45.297Z</time>
      </trkpt>
      <trkpt lat="55.24747995659709" lon="12.043629940599203">
        <ele>57.01</ele>
        <time>2023-06-10T17:18:49.813Z</time>
      </trkpt>
      <trkpt lat="55.24747886694968" lon="12.043599179014564">
        <ele>57.06</ele>
        <time>2023-06-10T17:18:54.329Z</time>
      </trkpt>
      <trkpt lat="55.247470904141665" lon="12.04337714239955">
        <ele>57.42</ele>
        <time>2023-06-10T17:18:58.847Z</time>
      </trkpt>
      <trkpt lat="55.247462689876556" lon="12.043145718052983">
        <ele>57.95</ele>
        <time>2023-06-10T17:19:03.367Z</time>
      </trkpt>
      <trkpt lat="55.247454307973385" lon="12.042912701144814">
        <ele>58.51</ele>
        <time>2023-06-10T17:19:07.889Z</time>
      </trkpt>
      <trkpt lat="55.24743494577706" lon="12.042369470000267">
        <ele>59.93</ele>
        <time>2023-06-10T17:19:12.416Z</time>
      </trkpt>
      <trkpt lat="55.247429916635156" lon="12.042229995131493">
        <ele>60.3</ele>
        <time>2023-06-10T17:19:16.945Z</time>
      </trkpt>
      <trkpt lat="55.24741114117205" lon="12.042142236605287">
        <ele>60.56</ele>
        <time>2023-06-10T17:19:21.475Z</time>
      </trkpt>
      <trkpt lat="55.24733394384384" lon="12.041781898587942">
        <ele>61.31</ele>
        <time>2023-06-10T17:19:26.008Z</time>
      </trkpt>
      <trkpt lat="55.24730997160077" lon="12.04166991636157">
        <ele>61.57</ele>
        <time>2023-06-10T17:19:30.542Z</time>
      </trkpt>
      <trkpt lat="55.247257836163044" lon="12.04144955612719">
        <ele>62.11</ele>
        <time>2023-06-10T17:19:35.078Z</time>
      </trkpt>
      <trkpt lat="55.247185500338674" lon="12.041143532842398">
        <ele>62.59</ele>
        <time>2023-06-10T17:19:39.617Z</time>
      </trkpt>
      <trkpt lat="55.24711903184652" lon="12.040862319990993">
        <ele>63.23</ele>
        <time>2023-06-10T17:19:44.159Z</time>
      </trkpt>
      <trkpt lat="55.2470856718719" lon="12.040720917284489">
        <ele>63.59</ele>
        <time>2023-06-10T17:19:48.703Z</time>
      </trkpt>
      <trkpt lat="55.247052228078246" lon="12.040579598397017">
        <ele>64.0</ele>
        <time>2023-06-10T17:19:53.248Z</time>
      </trkpt>
      <trkpt lat="55.24701878428459" lon="12.040438195690513">
        <ele>64.46</ele>
        <time>2023-06-10T17:19:57.794Z</time>
      </trkpt>
      <trkpt lat="55.24698542430997" lon="12.04029687680304">
        <ele>64.98</ele>
        <time>2023-06-10T17:20:02.342Z</time>
      </trkpt>
      <trkpt lat="55.246951980516315" lon="12.040155474096537">
        <ele>65.55</ele>
        <time>2023-06-10T17:20:06.891Z</time>
      </trkpt>
      <trkpt lat="55.2469199616462" lon="12.040019938722253">
        <ele>66.19</ele>
        <time>2023-06-10T17:20:11.442Z</time>
      </trkpt>
      <trkpt lat="55.24691887199879" lon="12.04001390375197">
        <ele>66.19</ele>
        <time>2023-06-10T17:20:15.993Z</time>
      </trkpt>
      <trkpt lat="55.246891882270575" lon="12.039868393912911">
        <ele>66.88</ele>
        <time>2023-06-10T17:20:20.545Z</time>
      </trkpt>
      <trkpt lat="55.246869921684265" lon="12.039749957621098">
        <ele>67.3</ele>
        <time>2023-06-10T17:20:25.098Z</time>
      </trkpt>
      <trkpt lat="55.24683144874871" lon="12.03934209421277">
        <ele>68.72</ele>
        <time>2023-06-10T17:20:29.655Z</time>
      </trkpt>
      <trkpt lat="55.24681996554136" lon="12.039219969883561">
        <ele>68.86</ele>
        <time>2023-06-10T17:20:34.213Z</time>
      </trkpt>
      <trkpt lat="55.24666992947459" lon="12.039283085614443">
        <ele>69.18</ele>
        <time>2023-06-10T17:20:38.774Z</time>
      </trkpt>
      <trkpt lat="55.24653967469931" lon="12.039337987080216">
        <ele>69.41</ele>
        <time>2023-06-10T17:20:43.337Z</time>
      </trkpt>
      <trkpt lat="55.24637086316943" lon="12.039409065619111">
        <ele>69.57</ele>
        <time>2023-06-10T17:20:47.903Z</time>
      </trkpt>
      <trkpt lat="55.246015805751085" lon="12.03955851495266">
        <ele>69.61</ele>
        <time>2023-06-10T17:20:52.474Z</time>
      </trkpt>
      <trkpt lat="55.245858393609524" lon="12.039624815806746">
        <ele>69.61</ele>
        <time>2023-06-10T17:20:57.048Z</time>
      </trkpt>
      <trkpt lat="55.24556812830269" lon="12.039747023954988">
        <ele>69.56</ele>
        <time>2023-06-10T17:21:01.627Z</time>
      </trkpt>
      <trkpt lat="55.24554097093642" lon="12.039758507162333">
        <ele>69.52</ele>
        <time>2023-06-10T17:21:06.206Z</time>
      </trkpt>
      <trkpt lat="55.2454899251461" lon="12.039779964834452">
        <ele>69.47</ele>
        <time>2023-06-10T17:21:10.786Z</time>
      </trkpt>
      <trkpt lat="55.2454624325037" lon="12.039797818288207">
        <ele>69.45</ele>
        <time>2023-06-10T17:21:15.367Z</time>
      </trkpt>
      <trkpt lat="55.245386492460966" lon="12.039846936240792">
        <ele>69.36</ele>
        <time>2023-06-10T17:21:19.949Z</time>
      </trkpt>
      <trkpt lat="55.245319940149784" lon="12.039889935404062">
        <ele>69.26</ele>
        <time>2023-06-10T17:21:24.532Z</time>
      </trkpt>
      <trkpt lat="55.24516428820789" lon="12.040025303140283">
        <ele>69.02</ele>
        <time>2023-06-10T17:21:29.118Z</time>
      </trkpt>
      <trkpt lat="55.24508994072676" lon="12.040089927613735">
        <ele>68.88</ele>
        <time>2023-06-10T17:21:33.705Z</time>
      </trkpt>
      <trkpt lat="55.244866563007236" lon="12.040331242606044">
        <ele>68.45</ele>
        <time>2023-06-10T17:21:38.296Z</time>
      </trkpt>
      <trkpt lat="55.244589960202575" lon="12.040629973635077">
        <ele>68.23</ele>
        <time>2023-06-10T17:21:42.892Z</time>
      </trkpt>
      <trkpt lat="55.24444269016385" lon="12.040787637233734">
        <ele>68.12</ele>
        <time>2023-06-10T17:21:47.491Z</time>
      </trkpt>
      <trkpt lat="55.24433607235551" lon="12.040901966392994">
        <ele>68.07</ele>
        <time>2023-06-10T17:21:52.092Z</time>
      </trkpt>
      <trkpt lat="55.24412493221462" lon="12.04112802632153">
        <ele>68.03</ele>
        <time>2023-06-10T17:21:56.697Z</time>
      </trkpt>
      <trkpt lat="55.24376040324569" lon="12.041518539190292">
        <ele>68.08</ele>
        <time>2023-06-10T17:22:01.309Z</time>
      </trkpt>
      <trkpt lat="55.243590753525496" lon="12.041700258851051">
        <ele>68.04</ele>
        <time>2023-06-10T17:22:05.924Z</time>
      </trkpt>
      <trkpt lat="55.243150955066085" lon="12.042171321809292">
        <ele>67.85</ele>
        <time>2023-06-10T17:22:10.548Z</time>
      </trkpt>
      <trkpt lat="55.243004355579615" lon="12.042328314855695">
        <ele>67.73</ele>
        <time>2023-06-10T17:22:15.174Z</time>
      </trkpt>
      <trkpt lat="55.24287468753755" lon="12.042467286810279">
        <ele>67.6</ele>
        <time>2023-06-10T17:22:19.803Z</time>
      </trkpt>
      <trkpt lat="55.24266975000501" lon="12.042686808854342">
        <ele>67.36</ele>
        <time>2023-06-10T17:22:24.436Z</time>
      </trkpt>
      <trkpt lat="55.24256145581603" lon="12.042802730575204">
        <ele>67.17</ele>
        <time>2023-06-10T17:22:29.071Z</time>
      </trkpt>
      <trkpt lat="55.242489371448755" lon="12.042880011722445">
        <ele>67.07</ele>
        <time>2023-06-10T17:22:33.707Z</time>
      </trkpt>
      <trkpt lat="55.24238032288849" lon="12.042996687814593">
        <ele>66.97</ele>
        <time>2023-06-10T17:22:38.345Z</time>
      </trkpt>
      <trkpt lat="55.24227211251855" lon="12.043112609535456">
        <ele>66.9</ele>
        <time>2023-06-10T17:22:42.985Z</time>
      </trkpt>
      <trkpt lat="55.24219994433224" lon="12.043189974501729">
        <ele>66.78</ele>
        <time>2023-06-10T17:22:47.626Z</time>
      </trkpt>
      <trkpt lat="55.242128195241094" lon="12.04298964701593">
        <ele>66.59</ele>
        <time>2023-06-10T17:22:52.270Z</time>
      </trkpt>
      <trkpt lat="55.24208175949752" lon="12.042860146611929">
        <ele>66.52</ele>
        <time>2023-06-10T17:22:56.915Z</time>
      </trkpt>
      <trkpt lat="55.242011435329914" lon="12.04266375862062">
        <ele>66.51</ele>
        <time>2023-06-10T17:23:01.562Z</time>
      </trkpt>
      <trkpt lat="55.241918144747615" lon="12.04240333288908">
        <ele>66.56</ele>
        <time>2023-06-10T17:23:06.212Z</time>
      </trkpt>
      <trkpt lat="55.24176886305213" lon="12.041986668482423">
        <ele>66.39</ele>
        <time>2023-06-10T17:23:10.866Z</time>
      </trkpt>
      <trkpt lat="55.24158027023077" lon="12.041460452601314">
        <ele>66.27</ele>
        <time>2023-06-10T17:23:15.526Z</time>
      </trkpt>
      <trkpt lat="55.24153525941074" lon="12.041334891691804">
        <ele>66.27</ele>
        <time>2023-06-10T17:23:20.187Z</time>
      </trkpt>
      <trkpt lat="55.24152997881174" lon="12.041319971904159">
        <ele>66.27</ele>
        <time>2023-06-10T17:23:24.849Z</time>
      </trkpt>
      <trkpt lat="55.24144993163645" lon="12.041169935837388">
        <ele>66.29</ele>
        <time>2023-06-10T17:23:29.513Z</time>
      </trkpt>
      <trkpt lat="55.24135999381542" lon="12.041059965267777">
        <ele>66.32</ele>
        <time>2023-06-10T17:23:34.178Z</time>
      </trkpt>
      <trkpt lat="55.24130425415933" lon="12.04101713374257">
        <ele>66.34</ele>
        <time>2023-06-10T17:23:38.844Z</time>
      </trkpt>
      <trkpt lat="55.24118145927787" lon="12.040922921150923">
        <ele>66.51</ele>
        <time>2023-06-10T17:23:43.512Z</time>
      </trkpt>
      <trkpt lat="55.24109990336001" lon="12.040860308334231">
        <ele>66.65</ele>
        <time>2023-06-10T17:23:48.182Z</time>
      </trkpt>
      <trkpt lat="55.2406080532819" lon="12.040482619777322">
        <ele>67.61</ele>
        <time>2023-06-10T17:23:52.860Z</time>
      </trkpt>
      <trkpt lat="55.24048618040979" lon="12.040388993918896">
        <ele>67.88</ele>
        <time>2023-06-10T17:23:57.541Z</time>
      </trkpt>
      <trkpt lat="55.24028182961047" lon="12.040232084691525">
        <ele>68.27</ele>
        <time>2023-06-10T17:24:02.225Z</time>
      </trkpt>
      <trkpt lat="55.24023992009461" lon="12.040199982002378">
        <ele>68.33</ele>
        <time>2023-06-10T17:24:06.910Z</time>
      </trkpt>
      <trkpt lat="55.24023992009461" lon="12.040199982002378">
        <ele>68.33</ele>
        <time>2023-06-10T17:24:11.595Z</time>
      </trkpt>
      <trkpt lat="55.24016330949962" lon="12.040123287588358">
        <ele>68.39</ele>
        <time>2023-06-10T17:24:16.281Z</time>
      </trkpt>
      <trkpt lat="55.24008510634303" lon="12.0400451682508">
        <ele>68.37</ele>
        <time>2023-06-10T17:24:20.969Z</time>
      </trkpt>
      <trkpt lat="55.239969519898295" lon="12.039929497987032">
        <ele>68.31</ele>
        <time>2023-06-10T17:24:25.659Z</time>
      </trkpt>
      <trkpt lat="55.23985309526324" lon="12.03981307335198">
        <ele>68.28</ele>
        <time>2023-06-10T17:24:30.351Z</time>
      </trkpt>
      <trkpt lat="55.23973667062819" lon="12.039696732535958">
        <ele>68.27</ele>
        <time>2023-06-10T17:24:35.045Z</time>
      </trkpt>
      <trkpt lat="55.239542964845896" lon="12.039502942934632">
        <ele>68.3</ele>
        <time>2023-06-10T17:24:39.743Z</time>
      </trkpt>
      <trkpt lat="55.23941991850734" lon="12.039379980415106">
        <ele>68.29</ele>
        <time>2023-06-10T17:24:44.443Z</time>
      </trkpt>
      <trkpt lat="55.23941991850734" lon="12.039379980415106">
        <ele>68.29</ele>
        <time>2023-06-10T17:24:49.143Z</time>
      </trkpt>
      <trkpt lat="55.23908967152238" lon="12.039001872763038">
        <ele>68.14</ele>
        <time>2023-06-10T17:24:53.849Z</time>
      </trkpt>
      <trkpt lat="55.238902838900685" lon="12.038788134232163">
        <ele>68.09</ele>
        <time>2023-06-10T17:24:58.559Z</time>
      </trkpt>
      <trkpt lat="55.23871609009802" lon="12.03857439570129">
        <ele>68.07</ele>
        <time>2023-06-10T17:25:03.272Z</time>
      </trkpt>
      <trkpt lat="55.23856773041189" lon="12.038404578343034">
        <ele>67.99</ele>
        <time>2023-06-10T17:25:07.988Z</time>
      </trkpt>
      <trkpt lat="55.23852934129536" lon="12.038360573351383">
        <ele>67.95</ele>
        <time>2023-06-10T17:25:12.705Z</time>
      </trkpt>
      <trkpt lat="55.238454742357135" lon="12.038275245577097">
        <ele>67.84</ele>
        <time>2023-06-10T17:25:17.423Z</time>
      </trkpt>
      <trkpt lat="55.23826799355447" lon="12.038061507046223">
        <ele>67.48</ele>
        <time>2023-06-10T17:25:22.145Z</time>
      </trkpt>
      <trkpt lat="55.23819264024496" lon="12.037975257262588">
        <ele>67.31</ele>
        <time>2023-06-10T17:25:26.869Z</time>
      </trkpt>
      <trkpt lat="55.23808116093278" lon="12.037847684696317">
        <ele>66.96</ele>
        <time>2023-06-10T17:25:31.595Z</time>
      </trkpt>
      <trkpt lat="55.23793129250407" lon="12.037676190957427">
        <ele>66.4</ele>
        <time>2023-06-10T17:25:36.324Z</time>
      </trkpt>
      <trkpt lat="55.23785677738488" lon="12.037590779364109">
        <ele>66.14</ele>
        <time>2023-06-10T17:25:41.054Z</time>
      </trkpt>
      <trkpt lat="55.23778217844665" lon="12.037505451589823">
        <ele>65.92</ele>
        <time>2023-06-10T17:25:45.785Z</time>
      </trkpt>
      <trkpt lat="55.23770690895617" lon="12.03741928562522">
        <ele>65.75</ele>
        <time>2023-06-10T17:25:50.518Z</time>
      </trkpt>
      <trkpt lat="55.23763231001794" lon="12.037333957850933">
        <ele>65.65</ele>
        <time>2023-06-10T17:25:55.252Z</time>
      </trkpt>
      <trkpt lat="55.23755779489875" lon="12.037248630076647">
        <ele>65.61</ele>
        <time>2023-06-10T17:25:59.988Z</time>
      </trkpt>
      <trkpt lat="55.23748319596052" lon="12.03716330230236">
        <ele>65.63</ele>
        <time>2023-06-10T17:26:04.725Z</time>
      </trkpt>
      <trkpt lat="55.23729644715786" lon="12.036949479952455">
        <ele>65.75</ele>
        <time>2023-06-10T17:26:09.466Z</time>
      </trkpt>
      <trkpt lat="55.23725948296487" lon="12.03690723516047">
        <ele>65.75</ele>
        <time>2023-06-10T17:26:14.207Z</time>
      </trkpt>
      <trkpt lat="55.23722109384835" lon="12.036863313987851">
        <ele>65.71</ele>
        <time>2023-06-10T17:26:18.949Z</time>
      </trkpt>
      <trkpt lat="55.23718421347439" lon="12.036821069195867">
        <ele>65.64</ele>
        <time>2023-06-10T17:26:23.692Z</time>
      </trkpt>
      <trkpt lat="55.237147249281406" lon="12.036778824403882">
        <ele>65.53</ele>
        <time>2023-06-10T17:26:28.436Z</time>
      </trkpt>
      <trkpt lat="55.23710886016488" lon="12.036734819412231">
        <ele>65.39</ele>
        <time>2023-06-10T17:26:33.180Z</time>
      </trkpt>
      <trkpt lat="55.2369973808527" lon="12.03660724684596">
        <ele>64.93</ele>
        <time>2023-06-10T17:26:37.926Z</time>
      </trkpt>
      <trkpt lat="55.23692211136222" lon="12.036521080881357">
        <ele>64.67</ele>
        <time>2023-06-10T17:26:42.674Z</time>
      </trkpt>
      <trkpt lat="55.236885230988264" lon="12.036478836089373">
        <ele>64.57</ele>
        <time>2023-06-10T17:26:47.423Z</time>
      </trkpt>
      <trkpt lat="55.236859917640686" lon="12.03644991852343">
        <ele>64.52</ele>
        <time>2023-06-10T17:26:52.172Z</time>
      </trkpt>
      <trkpt lat="55.23680912330747" lon="12.036394849419594">
        <ele>64.43</ele>
        <time>2023-06-10T17:26:56.922Z</time>
      </trkpt>
      <trkpt lat="55.23677157238126" lon="12.036354197189212">
        <ele>64.39</ele>
        <time>2023-06-10T17:27:01.673Z</time>
      </trkpt>
      <trkpt lat="55.23669588379562" lon="12.036272138357162">
        <ele>64.34</ele>
        <time>2023-06-10T17:27:06.425Z</time>
      </trkpt>
      <trkpt lat="55.236619943752885" lon="12.036189995706081">
        <ele>64.34</ele>
        <time>2023-06-10T17:27:11.179Z</time>
      </trkpt>
      <trkpt lat="55.236619943752885" lon="12.036189995706081">
        <ele>64.34</ele>
        <time>2023-06-10T17:27:15.933Z</time>
      </trkpt>
      <trkpt lat="55.23653922602534" lon="12.036132663488388">
        <ele>64.39</ele>
        <time>2023-06-10T17:27:20.688Z</time>
      </trkpt>
      <trkpt lat="55.23645750246942" lon="12.036074744537473">
        <ele>64.49</ele>
        <time>2023-06-10T17:27:25.444Z</time>
      </trkpt>
      <trkpt lat="55.23629330098629" lon="12.035958236083388">
        <ele>64.73</ele>
        <time>2023-06-10T17:27:30.203Z</time>
      </trkpt>
      <trkpt lat="55.23621157743037" lon="12.035900317132473">
        <ele>64.8</ele>
        <time>2023-06-10T17:27:34.964Z</time>
      </trkpt>
      <trkpt lat="55.23604737594724" lon="12.035783808678389">
        <ele>64.9</ele>
        <time>2023-06-10T17:27:39.727Z</time>
      </trkpt>
      <trkpt lat="55.23592399433255" lon="12.035696217790246">
        <ele>65.03</ele>
        <time>2023-06-10T17:27:44.493Z</time>
      </trkpt>
      <trkpt lat="55.23584227077663" lon="12.03563829883933">
        <ele>65.17</ele>
        <time>2023-06-10T17:27:49.260Z</time>
      </trkpt>
      <trkpt lat="55.23576054722071" lon="12.035580296069384">
        <ele>65.39</ele>
        <time>2023-06-10T17:27:54.028Z</time>
      </trkpt>
      <trkpt lat="55.23571972735226" lon="12.035551378503442">
        <ele>65.52</ele>
        <time>2023-06-10T17:27:58.797Z</time>
      </trkpt>
      <trkpt lat="55.235597183927894" lon="12.035464374348521">
        <ele>65.98</ele>
        <time>2023-06-10T17:28:03.568Z</time>
      </trkpt>
      <trkpt lat="55.235514622181654" lon="12.035405868664384">
        <ele>66.26</ele>
        <time>2023-06-10T17:28:08.341Z</time>
      </trkpt>
      <trkpt lat="55.235432060435414" lon="12.035347279161215">
        <ele>66.49</ele>
        <time>2023-06-10T17:28:13.115Z</time>
      </trkpt>
      <trkpt lat="55.23539124056697" lon="12.035318361595273">
        <ele>66.58</ele>
        <time>2023-06-10T17:28:17.890Z</time>
      </trkpt>
      <trkpt lat="55.23535042069852" lon="12.0352893602103">
        <ele>66.65</ele>
        <time>2023-06-10T17:28:22.666Z</time>
      </trkpt>
      <trkpt lat="55.23526953533292" lon="12.035232027992606">
        <ele>66.75</ele>
        <time>2023-06-10T17:28:27.443Z</time>
      </trkpt>
      <trkpt lat="55.23498186841607" lon="12.03502792865038">
        <ele>67.02</ele>
        <time>2023-06-10T17:28:32.225Z</time>
      </trkpt>
      <trkpt lat="55.2348593249917" lon="12.03494100831449">
        <ele>67.23</ele>
        <time>2023-06-10T17:28:37.009Z</time>
      </trkpt>
      <trkpt lat="55.23473594337702" lon="12.03485350124538">
        <ele>67.48</ele>
        <time>2023-06-10T17:28:41.795Z</time>
      </trkpt>
      <trkpt lat="55.234654219821095" lon="12.034795498475432">
        <ele>67.67</ele>
        <time>2023-06-10T17:28:46.583Z</time>
      </trkpt>
      <trkpt lat="55.234572580084205" lon="12.034737579524517">
        <ele>67.89</ele>
        <time>2023-06-10T17:28:51.372Z</time>
      </trkpt>
      <trkpt lat="55.234490018337965" lon="12.034678990021348">
        <ele>68.17</ele>
        <time>2023-06-10T17:28:56.162Z</time>
      </trkpt>
      <trkpt lat="55.23440829478204" lon="12.034621071070433">
        <ele>68.47</ele>
        <time>2023-06-10T17:29:00.954Z</time>
      </trkpt>
      <trkpt lat="55.234203189611435" lon="12.034475561231375">
        <ele>69.34</ele>
        <time>2023-06-10T17:29:05.749Z</time>
      </trkpt>
      <trkpt lat="55.23412071168423" lon="12.034417055547237">
        <ele>69.66</ele>
        <time>2023-06-10T17:29:10.546Z</time>
      </trkpt>
      <trkpt lat="55.234038988128304" lon="12.03435905277729">
        <ele>69.95</ele>
        <time>2023-06-10T17:29:15.344Z</time>
      </trkpt>
      <trkpt lat="55.23399808444083" lon="12.034330051392317">
        <ele>70.07</ele>
        <time>2023-06-10T17:29:20.143Z</time>
      </trkpt>
      <trkpt lat="55.23391560651362" lon="12.03427154570818">
        <ele>70.24</ele>
        <time>2023-06-10T17:29:24.943Z</time>
      </trkpt>
      <trkpt lat="55.23379306308925" lon="12.03418462537229">
        <ele>70.43</ele>
        <time>2023-06-10T17:29:29.745Z</time>
      </trkpt>
      <trkpt lat="55.23371133953333" lon="12.034126622602344">
        <ele>70.52</ele>
        <time>2023-06-10T17:29:34.549Z</time>
      </trkpt>
      <trkpt lat="55.233419984579086" lon="12.033919924870133">
        <ele>70.74</ele>
        <time>2023-06-10T17:29:39.358Z</time>
      </trkpt>
      <trkpt lat="55.233419984579086" lon="12.033919924870133">
        <ele>70.74</ele>
        <time>2023-06-10T17:29:44.167Z</time>
      </trkpt>
      <trkpt lat="55.233341781422496" lon="12.033861335366964">
        <ele>70.76</ele>
        <time>2023-06-10T17:29:48.977Z</time>
      </trkpt>
      <trkpt lat="55.23325997404754" lon="12.033799979835749">
        <ele>70.73</ele>
        <time>2023-06-10T17:29:53.789Z</time>
      </trkpt>
      <trkpt lat="55.23310247808695" lon="12.033650781959295">
        <ele>70.69</ele>
        <time>2023-06-10T17:29:58.604Z</time>
      </trkpt>
      <trkpt lat="55.23306995630264" lon="12.033619936555624">
        <ele>70.68</ele>
        <time>2023-06-10T17:30:03.419Z</time>
      </trkpt>
      <trkpt lat="55.23299225606024" lon="12.033518012613058">
        <ele>70.68</ele>
        <time>2023-06-10T17:30:08.236Z</time>
      </trkpt>
      <trkpt lat="55.232921009883285" lon="12.033424470573664">
        <ele>70.71</ele>
        <time>2023-06-10T17:30:13.054Z</time>
      </trkpt>
      <trkpt lat="55.2329099457711" lon="12.033409969881177">
        <ele>70.72</ele>
        <time>2023-06-10T17:30:17.872Z</time>
      </trkpt>
      <trkpt lat="55.232860995456576" lon="12.033309806138277">
        <ele>70.81</ele>
        <time>2023-06-10T17:30:22.692Z</time>
      </trkpt>
      <trkpt lat="55.23283174261451" lon="12.033249959349632">
        <ele>70.88</ele>
        <time>2023-06-10T17:30:27.512Z</time>
      </trkpt>
      <trkpt lat="55.23277373984456" lon="12.033131439238787">
        <ele>71.09</ele>
        <time>2023-06-10T17:30:32.334Z</time>
      </trkpt>
      <trkpt lat="55.232715820893645" lon="12.033012919127941">
        <ele>71.38</ele>
        <time>2023-06-10T17:30:37.157Z</time>
      </trkpt>
      <trkpt lat="55.23262856528163" lon="12.03283455222845">
        <ele>71.92</ele>
        <time>2023-06-10T17:30:41.982Z</time>
      </trkpt>
      <trkpt lat="55.23259931243956" lon="12.032774705439806">
        <ele>72.12</ele>
        <time>2023-06-10T17:30:46.808Z</time>
      </trkpt>
      <trkpt lat="55.23245464079082" lon="12.032478991895914">
        <ele>73.2</ele>
        <time>2023-06-10T17:30:51.638Z</time>
      </trkpt>
      <trkpt lat="55.23242538794875" lon="12.03241914510727">
        <ele>73.45</ele>
        <time>2023-06-10T17:30:56.468Z</time>
      </trkpt>
      <trkpt lat="55.232396721839905" lon="12.032360471785069">
        <ele>73.72</ele>
        <time>2023-06-10T17:31:01.299Z</time>
      </trkpt>
      <trkpt lat="55.232338132336736" lon="12.032240778207779">
        <ele>74.34</ele>
        <time>2023-06-10T17:31:06.131Z</time>
      </trkpt>
      <trkpt lat="55.232251547276974" lon="12.032063584774733">
        <ele>75.38</ele>
        <time>2023-06-10T17:31:10.966Z</time>
      </trkpt>
      <trkpt lat="55.2322399802506" lon="12.032039947807789">
        <ele>75.5</ele>
        <time>2023-06-10T17:31:15.801Z</time>
      </trkpt>
      <trkpt lat="55.232221372425556" lon="12.032005079090595">
        <ele>75.7</ele>
        <time>2023-06-10T17:31:20.636Z</time>
      </trkpt>
      <trkpt lat="55.2321913652122" lon="12.031948501244187">
        <ele>75.97</ele>
        <time>2023-06-10T17:31:25.472Z</time>
      </trkpt>
      <trkpt lat="55.232160687446594" lon="12.031890833750367">
        <ele>76.2</ele>
        <time>2023-06-10T17:31:30.309Z</time>
      </trkpt>
      <trkpt lat="55.23213009350002" lon="12.031833082437515">
        <ele>76.37</ele>
        <time>2023-06-10T17:31:35.146Z</time>
      </trkpt>
      <trkpt lat="55.23210000246763" lon="12.031776588410139">
        <ele>76.49</ele>
        <time>2023-06-10T17:31:39.984Z</time>
      </trkpt>
      <trkpt lat="55.232069408521056" lon="12.031718920916319">
        <ele>76.56</ele>
        <time>2023-06-10T17:31:44.823Z</time>
      </trkpt>
      <trkpt lat="55.23203931748867" lon="12.031662343069911">
        <ele>76.59</ele>
        <time>2023-06-10T17:31:49.663Z</time>
      </trkpt>
      <trkpt lat="55.231978045776486" lon="12.031546924263239">
        <ele>76.56</ele>
        <time>2023-06-10T17:31:54.504Z</time>
      </trkpt>
      <trkpt lat="55.231917360797524" lon="12.03143267892301">
        <ele>76.47</ele>
        <time>2023-06-10T17:31:59.347Z</time>
      </trkpt>
      <trkpt lat="55.23189992643893" lon="12.031399989500642">
        <ele>76.43</ele>
        <time>2023-06-10T17:32:04.190Z</time>
      </trkpt>
      <trkpt lat="55.23178970441222" lon="12.031215084716678">
        <ele>76.24</ele>
        <time>2023-06-10T17:32:09.035Z</time>
      </trkpt>
      <trkpt lat="55.231725331395864" lon="12.03110720962286">
        <ele>76.15</ele>
        <time>2023-06-10T17:32:13.882Z</time>
      </trkpt>
      <trkpt lat="55.23162852041423" lon="12.030944852158427">
        <ele>76.08</ele>
        <time>2023-06-10T17:32:18.731Z</time>
      </trkpt>
      <trkpt lat="55.23155995644629" lon="12.030829936265945">
        <ele>76.06</ele>
        <time>2023-06-10T17:32:23.581Z</time>
      </trkpt>
      <trkpt lat="55.23153020069003" lon="12.030785260722041">
        <ele>76.06</ele>
        <time>2023-06-10T17:32:28.432Z</time>
      </trkpt>
      <trkpt lat="55.231496673077345" lon="12.030735053122044">
        <ele>76.08</ele>
        <time>2023-06-10T17:32:33.284Z</time>
      </trkpt>
      <trkpt lat="55.23142903111875" lon="12.030633548274636">
        <ele>76.16</ele>
        <time>2023-06-10T17:32:38.137Z</time>
      </trkpt>
      <trkpt lat="55.23125954903662" lon="12.030379325151443">
        <ele>76.49</ele>
        <time>2023-06-10T17:32:42.994Z</time>
      </trkpt>
      <trkpt lat="55.2312399353832" lon="12.030349988490343">
        <ele>76.52</ele>
        <time>2023-06-10T17:32:47.851Z</time>
      </trkpt>
      <trkpt lat="55.23119064979255" lon="12.030280586332083">
        <ele>76.6</ele>
        <time>2023-06-10T17:32:52.709Z</time>
      </trkpt>
      <trkpt lat="55.23115552961826" lon="12.030231216922402">
        <ele>76.64</ele>
        <time>2023-06-10T17:32:57.568Z</time>
      </trkpt>
      <trkpt lat="55.231120409443974" lon="12.030181931331754">
        <ele>76.66</ele>
        <time>2023-06-10T17:33:02.428Z</time>
      </trkpt>
      <trkpt lat="55.231051007285714" lon="12.030084282159805">
        <ele>76.65</ele>
        <time>2023-06-10T17:33:07.289Z</time>
      </trkpt>
      <trkpt lat="55.23091203533113" lon="12.029888899996877">
        <ele>76.56</ele>
        <time>2023-06-10T17:33:12.153Z</time>
      </trkpt>
      <trkpt lat="55.23084263317287" lon="12.029791250824928">
        <ele>76.55</ele>
        <time>2023-06-10T17:33:17.018Z</time>
      </trkpt>
      <trkpt lat="55.23077314719558" lon="12.02969360165298">
        <ele>76.6</ele>
        <time>2023-06-10T17:33:21.885Z</time>
      </trkpt>
      <trkpt lat="55.23063350468874" lon="12.029497297480702">
        <ele>76.74</ele>
        <time>2023-06-10T17:33:26.755Z</time>
      </trkpt>
      <trkpt lat="55.23049461655319" lon="12.029301915317774">
        <ele>76.84</ele>
        <time>2023-06-10T17:33:31.628Z</time>
      </trkpt>
      <trkpt lat="55.230425130575895" lon="12.029204266145825">
        <ele>76.92</ele>
        <time>2023-06-10T17:33:36.502Z</time>
      </trkpt>
      <trkpt lat="55.2303556445986" lon="12.029106616973877">
        <ele>77.06</ele>
        <time>2023-06-10T17:33:41.377Z</time>
      </trkpt>
      <trkpt lat="55.230320608243346" lon="12.029057247564197">
        <ele>77.16</ele>
        <time>2023-06-10T17:33:46.253Z</time>
      </trkpt>
      <trkpt lat="55.23028624244034" lon="12.029008967801929">
        <ele>77.28</ele>
        <time>2023-06-10T17:33:51.130Z</time>
      </trkpt>
      <trkpt lat="55.2302160859108" lon="12.0289103128016">
        <ele>77.58</ele>
        <time>2023-06-10T17:33:56.008Z</time>
      </trkpt>
      <trkpt lat="55.2301122341305" lon="12.028764300048351">
        <ele>78.17</ele>
        <time>2023-06-10T17:34:00.888Z</time>
      </trkpt>
      <trkpt lat="55.229972591623664" lon="12.028567995876074">
        <ele>79.03</ele>
        <time>2023-06-10T17:34:05.771Z</time>
      </trkpt>
      <trkpt lat="55.22990310564637" lon="12.028470262885094">
        <ele>79.41</ele>
        <time>2023-06-10T17:34:10.656Z</time>
      </trkpt>
      <trkpt lat="55.22983370348811" lon="12.028372613713145">
        <ele>79.71</ele>
        <time>2023-06-10T17:34:15.542Z</time>
      </trkpt>
      <trkpt lat="55.22976421751082" lon="12.028274964541197">
        <ele>79.94</ele>
        <time>2023-06-10T17:34:20.430Z</time>
      </trkpt>
      <trkpt lat="55.229660365730524" lon="12.028128951787949">
        <ele>80.22</ele>
        <time>2023-06-10T17:34:25.320Z</time>
      </trkpt>
      <trkpt lat="55.22958995774388" lon="12.028029961511493">
        <ele>80.42</ele>
        <time>2023-06-10T17:34:30.211Z</time>
      </trkpt>
      <trkpt lat="55.22951846010983" lon="12.027948908507824">
        <ele>80.61</ele>
        <time>2023-06-10T17:34:35.104Z</time>
      </trkpt>
      <trkpt lat="55.22943992167711" lon="12.027859976515174">
        <ele>80.43</ele>
        <time>2023-06-10T17:34:39.998Z</time>
      </trkpt>
      <trkpt lat="55.229339925572276" lon="12.027919990941882">
        <ele>80.24</ele>
        <time>2023-06-10T17:34:44.894Z</time>
      </trkpt>
      <trkpt lat="55.229321736842394" lon="12.027946896851063">
        <ele>80.2</ele>
        <time>2023-06-10T17:34:49.790Z</time>
      </trkpt>
      <trkpt lat="55.22925367578864" lon="12.028047563508153">
        <ele>80.06</ele>
        <time>2023-06-10T17:34:54.688Z</time>
      </trkpt>
      <trkpt lat="55.22921930998564" lon="12.028098357841372">
        <ele>80.01</ele>
        <time>2023-06-10T17:34:59.586Z</time>
      </trkpt>
      <trkpt lat="55.22910992614925" lon="12.02825996093452">
        <ele>79.93</ele>
        <time>2023-06-10T17:35:04.487Z</time>
      </trkpt>
      <trkpt lat="55.22910992614925" lon="12.02825996093452">
        <ele>79.93</ele>
        <time>2023-06-10T17:35:09.388Z</time>
      </trkpt>
      <trkpt lat="55.22905577905476" lon="12.028363309800625">
        <ele>79.96</ele>
        <time>2023-06-10T17:35:14.290Z</time>
      </trkpt>
      <trkpt lat="55.22902535274625" lon="12.028421396389604">
        <ele>80.0</ele>
        <time>2023-06-10T17:35:19.193Z</time>
      </trkpt>
      <trkpt lat="55.22899559698999" lon="12.028478309512138">
        <ele>80.06</ele>
        <time>2023-06-10T17:35:24.096Z</time>
      </trkpt>
      <trkpt lat="55.228934744372964" lon="12.028594482690096">
        <ele>80.25</ele>
        <time>2023-06-10T17:35:29.001Z</time>
      </trkpt>
      <trkpt lat="55.22887456230819" lon="12.028709398582578">
        <ele>80.49</ele>
        <time>2023-06-10T17:35:33.907Z</time>
      </trkpt>
      <trkpt lat="55.22881429642439" lon="12.028824398294091">
        <ele>80.76</ele>
        <time>2023-06-10T17:35:38.815Z</time>
      </trkpt>
      <trkpt lat="55.228779930621386" lon="12.028889944776893">
        <ele>80.93</ele>
        <time>2023-06-10T17:35:43.723Z</time>
      </trkpt>
      <trkpt lat="55.22861992008984" lon="12.02926998026669">
        <ele>81.82</ele>
        <time>2023-06-10T17:35:48.636Z</time>
      </trkpt>
      <trkpt lat="55.22861992008984" lon="12.02926998026669">
        <ele>81.82</ele>
        <time>2023-06-10T17:35:53.549Z</time>
      </trkpt>
      <trkpt lat="55.228561498224735" lon="12.029467290267348">
        <ele>82.31</ele>
        <time>2023-06-10T17:35:58.464Z</time>
      </trkpt>
      <trkpt lat="55.228539956733584" lon="12.029539961367846">
        <ele>82.49</ele>
        <time>2023-06-10T17:36:03.379Z</time>
      </trkpt>
      <trkpt lat="55.228525372222066" lon="12.029690835624933">
        <ele>82.83</ele>
        <time>2023-06-10T17:36:08.296Z</time>
      </trkpt>
      <trkpt lat="55.22850994952023" lon="12.029849924147129">
        <ele>82.98</ele>
        <time>2023-06-10T17:36:13.214Z</time>
      </trkpt>
      <trkpt lat="55.22847734391689" lon="12.029991243034601">
        <ele>83.14</ele>
        <time>2023-06-10T17:36:18.134Z</time>
      </trkpt>
      <trkpt lat="55.22844364866614" lon="12.030137423425913">
        <ele>83.24</ele>
        <time>2023-06-10T17:36:23.055Z</time>
      </trkpt>
      <trkpt lat="55.22842671722174" lon="12.030210513621569">
        <ele>83.25</ele>
        <time>2023-06-10T17:36:27.977Z</time>
      </trkpt>
      <trkpt lat="55.22841992788017" lon="12.0302399341017">
        <ele>83.24</ele>
        <time>2023-06-10T17:36:32.899Z</time>
      </trkpt>
      <trkpt lat="55.22838329896331" lon="12.030348312109709">
        <ele>83.23</ele>
        <time>2023-06-10T17:36:37.822Z</time>
      </trkpt>
      <trkpt lat="55.228222869336605" lon="12.030823063105345">
        <ele>83.01</ele>
        <time>2023-06-10T17:36:42.750Z</time>
      </trkpt>
      <trkpt lat="55.22817995399237" lon="12.030949965119362">
        <ele>82.88</ele>
        <time>2023-06-10T17:36:47.680Z</time>
      </trkpt>
      <trkpt lat="55.2281766012311" lon="12.030958263203502">
        <ele>82.88</ele>
        <time>2023-06-10T17:36:52.610Z</time>
      </trkpt>
      <trkpt lat="55.22801977582276" lon="12.031341316178441">
        <ele>82.39</ele>
        <time>2023-06-10T17:36:57.544Z</time>
      </trkpt>
      <trkpt lat="55.22796789184213" lon="12.031468134373426">
        <ele>82.26</ele>
        <time>2023-06-10T17:37:02.480Z</time>
      </trkpt>
      <trkpt lat="55.22791491821408" lon="12.031597550958395">
        <ele>82.17</ele>
        <time>2023-06-10T17:37:07.417Z</time>
      </trkpt>
      <trkpt lat="55.227809976786375" lon="12.031853701919317">
        <ele>82.03</ele>
        <time>2023-06-10T17:37:12.357Z</time>
      </trkpt>
      <trkpt lat="55.22767888382077" lon="12.032173974439502">
        <ele>81.79</ele>
        <time>2023-06-10T17:37:17.301Z</time>
      </trkpt>
      <trkpt lat="55.22762649692595" lon="12.032302133738995">
        <ele>81.73</ele>
        <time>2023-06-10T17:37:22.246Z</time>
      </trkpt>
      <trkpt lat="55.227574026212096" lon="12.032430209219456">
        <ele>81.72</ele>
        <time>2023-06-10T17:37:27.192Z</time>
      </trkpt>
      <trkpt lat="55.22746967151761" lon="12.032685186713934">
        <ele>81.78</ele>
        <time>2023-06-10T17:37:32.141Z</time>
      </trkpt>
      <trkpt lat="55.22741728462279" lon="12.032813262194395">
        <ele>81.78</ele>
        <time>2023-06-10T17:37:37.092Z</time>
      </trkpt>
      <trkpt lat="55.22738995961845" lon="12.03287998214364">
        <ele>81.76</ele>
        <time>2023-06-10T17:37:42.044Z</time>
      </trkpt>
      <trkpt lat="55.22738995961845" lon="12.03287998214364">
        <ele>81.76</ele>
        <time>2023-06-10T17:37:46.996Z</time>
      </trkpt>
      <trkpt lat="55.227343859151006" lon="12.033011578023434">
        <ele>81.67</ele>
        <time>2023-06-10T17:37:51.949Z</time>
      </trkpt>
      <trkpt lat="55.22729675285518" lon="12.033145939931273">
        <ele>81.55</ele>
        <time>2023-06-10T17:37:56.903Z</time>
      </trkpt>
      <trkpt lat="55.22722617723048" lon="12.033347440883517">
        <ele>81.3</ele>
        <time>2023-06-10T17:38:01.860Z</time>
      </trkpt>
      <trkpt lat="55.22717907093465" lon="12.033481802791357">
        <ele>81.12</ele>
        <time>2023-06-10T17:38:06.818Z</time>
      </trkpt>
      <trkpt lat="55.227061389014125" lon="12.03381766565144">
        <ele>80.61</ele>
        <time>2023-06-10T17:38:11.780Z</time>
      </trkpt>
      <trkpt lat="55.22701478563249" lon="12.033950686454773">
        <ele>80.43</ele>
        <time>2023-06-10T17:38:16.743Z</time>
      </trkpt>
      <trkpt lat="55.2269677631557" lon="12.034085048362613">
        <ele>80.28</ele>
        <time>2023-06-10T17:38:21.707Z</time>
      </trkpt>
      <trkpt lat="55.226920656859875" lon="12.034219410270452">
        <ele>80.17</ele>
        <time>2023-06-10T17:38:26.673Z</time>
      </trkpt>
      <trkpt lat="55.226909928023815" lon="12.034249920397997">
        <ele>80.15</ele>
        <time>2023-06-10T17:38:31.639Z</time>
      </trkpt>
      <trkpt lat="55.226841531693935" lon="12.034502467140555">
        <ele>80.04</ele>
        <time>2023-06-10T17:38:36.608Z</time>
      </trkpt>
      <trkpt lat="55.22674513980746" lon="12.034858530387282">
        <ele>79.91</ele>
        <time>2023-06-10T17:38:41.580Z</time>
      </trkpt>
      <trkpt lat="55.22668722085655" lon="12.035072268918157">
        <ele>79.77</ele>
        <time>2023-06-10T17:38:46.555Z</time>
      </trkpt>
      <trkpt lat="55.226649921387434" lon="12.035209983587265">
        <ele>79.81</ele>
        <time>2023-06-10T17:38:51.531Z</time>
      </trkpt>
      <trkpt lat="55.22664891555905" lon="12.035213084891438">
        <ele>79.81</ele>
        <time>2023-06-10T17:38:56.507Z</time>
      </trkpt>
      <trkpt lat="55.22662620060146" lon="12.035279385745525">
        <ele>79.85</ele>
        <time>2023-06-10T17:39:01.484Z</time>
      </trkpt>
      <trkpt lat="55.22658001631498" lon="12.035414585843682">
        <ele>79.97</ele>
        <time>2023-06-10T17:39:06.462Z</time>
      </trkpt>
      <trkpt lat="55.22653425112367" lon="12.035548528656363">
        <ele>80.17</ele>
        <time>2023-06-10T17:39:11.442Z</time>
      </trkpt>
      <trkpt lat="55.22651111707091" lon="12.035616170614958">
        <ele>80.31</ele>
        <time>2023-06-10T17:39:16.422Z</time>
      </trkpt>
      <trkpt lat="55.2264653518796" lon="12.035750029608607">
        <ele>80.67</ele>
        <time>2023-06-10T17:39:21.404Z</time>
      </trkpt>
      <trkpt lat="55.22644221782684" lon="12.035817671567202">
        <ele>80.89</ele>
        <time>2023-06-10T17:39:26.386Z</time>
      </trkpt>
      <trkpt lat="55.22639645263553" lon="12.035951614379883">
        <ele>81.37</ele>
        <time>2023-06-10T17:39:31.370Z</time>
      </trkpt>
      <trkpt lat="55.22637994028628" lon="12.035999977961183">
        <ele>81.56</ele>
        <time>2023-06-10T17:39:36.354Z</time>
      </trkpt>
      <trkpt lat="55.22634532302618" lon="12.03607901930809">
        <ele>81.9</ele>
        <time>2023-06-10T17:39:41.339Z</time>
      </trkpt>
      <trkpt lat="55.22626368328929" lon="12.036265265196562">
        <ele>82.73</ele>
        <time>2023-06-10T17:39:46.326Z</time>
      </trkpt>
      <trkpt lat="55.22620886564255" lon="12.036390323191881">
        <ele>83.24</ele>
        <time>2023-06-10T17:39:51.315Z</time>
      </trkpt>
      <trkpt lat="55.22618195973337" lon="12.036451594904065">
        <ele>83.46</ele>
        <time>2023-06-10T17:39:56.305Z</time>
      </trkpt>
      <trkpt lat="55.226154550909996" lon="12.036514123901725">
        <ele>83.65</ele>
        <time>2023-06-10T17:40:01.295Z</time>
      </trkpt>
      <trkpt lat="55.22612722590566" lon="12.036576569080353">
        <ele>83.81</ele>
        <time>2023-06-10T17:40:06.286Z</time>
      </trkpt>
      <trkpt lat="55.226100319996476" lon="12.036637840792537">
        <ele>83.94</ele>
        <time>2023-06-10T17:40:11.278Z</time>
      </trkpt>
      <trkpt lat="55.226072911173105" lon="12.036700369790196">
        <ele>84.04</ele>
        <time>2023-06-10T17:40:16.271Z</time>
      </trkpt>
      <trkpt lat="55.22596386261284" lon="12.036949144676328">
        <ele>84.35</ele>
        <time>2023-06-10T17:40:21.266Z</time>
      </trkpt>
      <trkpt lat="55.225909631699324" lon="12.037072945386171">
        <ele>84.52</ele>
        <time>2023-06-10T17:40:26.263Z</time>
      </trkpt>
      <trkpt lat="55.22577367722988" lon="12.037382991984487">
        <ele>85.1</ele>
        <time>2023-06-10T17:40:31.263Z</time>
      </trkpt>
      <trkpt lat="55.22574626840651" lon="12.037445520982146">
        <ele>85.2</ele>
        <time>2023-06-10T17:40:36.264Z</time>
      </trkpt>
      <trkpt lat="55.22573998197913" lon="12.037459937855601">
        <ele>85.21</ele>
        <time>2023-06-10T17:40:41.265Z</time>
      </trkpt>
      <trkpt lat="55.22568700835109" lon="12.037561945617199">
        <ele>85.32</ele>
        <time>2023-06-10T17:40:46.268Z</time>
      </trkpt>
      <trkpt lat="55.22565674968064" lon="12.037620199844241">
        <ele>85.34</ele>
        <time>2023-06-10T17:40:51.271Z</time>
      </trkpt>
      <trkpt lat="55.22562649101019" lon="12.037678537890315">
        <ele>85.33</ele>
        <time>2023-06-10T17:40:56.275Z</time>
      </trkpt>
      <trkpt lat="55.22559681907296" lon="12.037735702469945">
        <ele>85.3</ele>
        <time>2023-06-10T17:41:01.280Z</time>
      </trkpt>
      <trkpt lat="55.22556656040251" lon="12.037794040516019">
        <ele>85.24</ele>
        <time>2023-06-10T17:41:06.285Z</time>
      </trkpt>
      <trkpt lat="55.22553630173206" lon="12.037852294743061">
        <ele>85.16</ele>
        <time>2023-06-10T17:41:11.291Z</time>
      </trkpt>
      <trkpt lat="55.22547637112439" lon="12.037967797368765">
        <ele>84.96</ele>
        <time>2023-06-10T17:41:16.299Z</time>
      </trkpt>
      <trkpt lat="55.22541652433574" lon="12.038083216175437">
        <ele>84.7</ele>
        <time>2023-06-10T17:41:21.308Z</time>
      </trkpt>
      <trkpt lat="55.22538626566529" lon="12.03814155422151">
        <ele>84.54</ele>
        <time>2023-06-10T17:41:26.318Z</time>
      </trkpt>
      <trkpt lat="55.225326335057616" lon="12.038256973028183">
        <ele>84.16</ele>
        <time>2023-06-10T17:41:31.329Z</time>
      </trkpt>
      <trkpt lat="55.22529607638717" lon="12.038315311074257">
        <ele>83.94</ele>
        <time>2023-06-10T17:41:36.341Z</time>
      </trkpt>
      <trkpt lat="55.22523673251271" lon="12.038429640233517">
        <ele>83.47</ele>
        <time>2023-06-10T17:41:41.354Z</time>
      </trkpt>
      <trkpt lat="55.22505576722324" lon="12.038778327405453">
        <ele>81.91</ele>
        <time>2023-06-10T17:41:46.372Z</time>
      </trkpt>
      <trkpt lat="55.22491998039186" lon="12.039039926603436">
        <ele>80.82</ele>
        <time>2023-06-10T17:41:51.393Z</time>
      </trkpt>
      <trkpt lat="55.22485837340355" lon="12.03920228406787">
        <ele>80.23</ele>
        <time>2023-06-10T17:41:56.416Z</time>
      </trkpt>
      <trkpt lat="55.22470984607935" lon="12.039593383669853">
        <ele>78.76</ele>
        <time>2023-06-10T17:42:01.443Z</time>
      </trkpt>
      <trkpt lat="55.2246605604887" lon="12.039723386988044">
        <ele>78.31</ele>
        <time>2023-06-10T17:42:06.471Z</time>
      </trkpt>
      <trkpt lat="55.22456131875515" lon="12.039984567090869">
        <ele>77.49</ele>
        <time>2023-06-10T17:42:11.502Z</time>
      </trkpt>
      <trkpt lat="55.22450993768871" lon="12.04011993482709">
        <ele>77.1</ele>
        <time>2023-06-10T17:42:16.535Z</time>
      </trkpt>
      <trkpt lat="55.22447154857218" lon="12.04025530256331">
        <ele>76.74</ele>
        <time>2023-06-10T17:42:21.569Z</time>
      </trkpt>
      <trkpt lat="55.22443190217018" lon="12.04039502888918">
        <ele>76.31</ele>
        <time>2023-06-10T17:42:26.605Z</time>
      </trkpt>
      <trkpt lat="55.22435219027102" lon="12.04067599028349">
        <ele>75.4</ele>
        <time>2023-06-10T17:42:31.643Z</time>
      </trkpt>
      <trkpt lat="55.22431220859289" lon="12.040817141532898">
        <ele>75.0</ele>
        <time>2023-06-10T17:42:36.683Z</time>
      </trkpt>
      <trkpt lat="55.22429251112044" lon="12.040886292234063">
        <ele>74.82</ele>
        <time>2023-06-10T17:42:41.724Z</time>
      </trkpt>
      <trkpt lat="55.22427256219089" lon="12.0409569516778">
        <ele>74.67</ele>
        <time>2023-06-10T17:42:46.765Z</time>
      </trkpt>
      <trkpt lat="55.22423249669373" lon="12.041098102927208">
        <ele>74.42</ele>
        <time>2023-06-10T17:42:51.808Z</time>
      </trkpt>
      <trkpt lat="55.22419285029173" lon="12.041237829253078">
        <ele>74.24</ele>
        <time>2023-06-10T17:42:56.852Z</time>
      </trkpt>
      <trkpt lat="55.22413275204599" lon="12.041449639946222">
        <ele>74.05</ele>
        <time>2023-06-10T17:43:01.898Z</time>
      </trkpt>
      <trkpt lat="55.22409310564399" lon="12.041589366272092">
        <ele>73.97</ele>
        <time>2023-06-10T17:43:06.946Z</time>
      </trkpt>
      <trkpt lat="55.22405304014683" lon="12.0417305175215">
        <ele>73.97</ele>
        <time>2023-06-10T17:43:11.995Z</time>
      </trkpt>
      <trkpt lat="55.224033426493406" lon="12.041799752041698">
        <ele>74.0</ele>
        <time>2023-06-10T17:43:17.045Z</time>
      </trkpt>
      <trkpt lat="55.223993360996246" lon="12.041940903291106">
        <ele>74.12</ele>
        <time>2023-06-10T17:43:22.096Z</time>
      </trkpt>
      <trkpt lat="55.223953295499086" lon="12.042082054540515">
        <ele>74.3</ele>
        <time>2023-06-10T17:43:27.149Z</time>
      </trkpt>
      <trkpt lat="55.22387366741896" lon="12.042363015934825">
        <ele>74.73</ele>
        <time>2023-06-10T17:43:32.205Z</time>
      </trkpt>
      <trkpt lat="55.223853969946504" lon="12.04243216663599">
        <ele>74.8</ele>
        <time>2023-06-10T17:43:37.261Z</time>
      </trkpt>
      <trkpt lat="55.223834021016955" lon="12.042502742260695">
        <ele>74.84</ele>
        <time>2023-06-10T17:43:42.318Z</time>
      </trkpt>
      <trkpt lat="55.223813988268375" lon="12.04257340170443">
        <ele>74.83</ele>
        <time>2023-06-10T17:43:47.376Z</time>
      </trkpt>
      <trkpt lat="55.223793955519795" lon="12.042643977329135">
        <ele>74.78</ele>
        <time>2023-06-10T17:43:52.435Z</time>
      </trkpt>
      <trkpt lat="55.223774341866374" lon="12.0427131280303">
        <ele>74.68</ele>
        <time>2023-06-10T17:43:57.494Z</time>
      </trkpt>
      <trkpt lat="55.223754309117794" lon="12.042783703655005">
        <ele>74.54</ele>
        <time>2023-06-10T17:44:02.554Z</time>
      </trkpt>
      <trkpt lat="55.223734276369214" lon="12.042854279279709">
        <ele>74.36</ele>
        <time>2023-06-10T17:44:07.615Z</time>
      </trkpt>
      <trkpt lat="55.223714243620634" lon="12.042924938723445">
        <ele>74.15</ele>
        <time>2023-06-10T17:44:12.676Z</time>
      </trkpt>
      <trkpt lat="55.22370996885002" lon="12.042939942330122">
        <ele>74.09</ele>
        <time>2023-06-10T17:44:17.738Z</time>
      </trkpt>
      <trkpt lat="55.223677698522806" lon="12.043150663375854">
        <ele>73.45</ele>
        <time>2023-06-10T17:44:22.802Z</time>
      </trkpt>
      <trkpt lat="55.22365448065102" lon="12.04330287873745">
        <ele>73.01</ele>
        <time>2023-06-10T17:44:27.867Z</time>
      </trkpt>
      <trkpt lat="55.22363134659827" lon="12.043453669175506">
        <ele>72.64</ele>
        <time>2023-06-10T17:44:32.933Z</time>
      </trkpt>
      <trkpt lat="55.22360812872648" lon="12.043605968356133">
        <ele>72.33</ele>
        <time>2023-06-10T17:44:38.001Z</time>
      </trkpt>
      <trkpt lat="55.22358507849276" lon="12.043756758794188">
        <ele>72.09</ele>
        <time>2023-06-10T17:44:43.070Z</time>
      </trkpt>
      <trkpt lat="55.223561776801944" lon="12.043909057974815">
        <ele>71.9</ele>
        <time>2023-06-10T17:44:48.141Z</time>
      </trkpt>
      <trkpt lat="55.223527075722814" lon="12.044135956093669">
        <ele>71.69</ele>
        <time>2023-06-10T17:44:53.214Z</time>
      </trkpt>
      <trkpt lat="55.22345742210746" lon="12.044591344892979">
        <ele>71.37</ele>
        <time>2023-06-10T17:44:58.291Z</time>
      </trkpt>
      <trkpt lat="55.223434371873736" lon="12.044742051512003">
        <ele>71.22</ele>
        <time>2023-06-10T17:45:03.370Z</time>
      </trkpt>
      <trkpt lat="55.22341107018292" lon="12.04489435069263">
        <ele>71.01</ele>
        <time>2023-06-10T17:45:08.450Z</time>
      </trkpt>
      <trkpt lat="55.22337636910379" lon="12.045121248811483">
        <ele>70.61</ele>
        <time>2023-06-10T17:45:13.532Z</time>
      </trkpt>
      <trkpt lat="55.22335306741297" lon="12.04527354799211">
        <ele>70.3</ele>
        <time>2023-06-10T17:45:18.616Z</time>
      </trkpt>
      <trkpt lat="55.22333001717925" lon="12.045424338430166">
        <ele>69.93</ele>
        <time>2023-06-10T17:45:23.701Z</time>
      </trkpt>
      <trkpt lat="55.22328366525471" lon="12.045727428048849">
        <ele>69.14</ele>
        <time>2023-06-10T17:45:28.789Z</time>
      </trkpt>
      <trkpt lat="55.223260363563895" lon="12.045879727229476">
        <ele>68.82</ele>
        <time>2023-06-10T17:45:33.878Z</time>
      </trkpt>
      <trkpt lat="55.22324896417558" lon="12.045954326167703">
        <ele>68.69</ele>
        <time>2023-06-10T17:45:38.968Z</time>
      </trkpt>
      <trkpt lat="55.22323731333017" lon="12.0460304338485">
        <ele>68.6</ele>
        <time>2023-06-10T17:45:44.059Z</time>
      </trkpt>
      <trkpt lat="55.22321401163936" lon="12.046182733029127">
        <ele>68.47</ele>
        <time>2023-06-10T17:45:49.151Z</time>
      </trkpt>
      <trkpt lat="55.223189955577254" lon="12.046339977532625">
        <ele>68.39</ele>
        <time>2023-06-10T17:45:54.245Z</time>
      </trkpt>
      <trkpt lat="55.223189955577254" lon="12.046339977532625">
        <ele>68.39</ele>
        <time>2023-06-10T17:45:59.339Z</time>
      </trkpt>
      <trkpt lat="55.223165564239025" lon="12.046479787677526">
        <ele>68.34</ele>
        <time>2023-06-10T17:46:04.434Z</time>
      </trkpt>
      <trkpt lat="55.22306204773486" lon="12.047072304412723">
        <ele>68.23</ele>
        <time>2023-06-10T17:46:09.535Z</time>
      </trkpt>
      <trkpt lat="55.22302365861833" lon="12.047292413190007">
        <ele>68.17</ele>
        <time>2023-06-10T17:46:14.638Z</time>
      </trkpt>
      <trkpt lat="55.222969930619" lon="12.047599945217371">
        <ele>68.02</ele>
        <time>2023-06-10T17:46:19.744Z</time>
      </trkpt>
      <trkpt lat="55.222969930619" lon="12.047599945217371">
        <ele>68.02</ele>
        <time>2023-06-10T17:46:24.850Z</time>
      </trkpt>
      <trkpt lat="55.22295014932752" lon="12.047740845009685">
        <ele>67.92</ele>
        <time>2023-06-10T17:46:29.957Z</time>
      </trkpt>
      <trkpt lat="55.222929110750556" lon="12.047890881076455">
        <ele>67.78</ele>
        <time>2023-06-10T17:46:35.066Z</time>
      </trkpt>
      <trkpt lat="55.222908072173595" lon="12.048040917143226">
        <ele>67.54</ele>
        <time>2023-06-10T17:46:40.176Z</time>
      </trkpt>
      <trkpt lat="55.222889967262745" lon="12.048169998452067">
        <ele>67.23</ele>
        <time>2023-06-10T17:46:45.287Z</time>
      </trkpt>
      <trkpt lat="55.22288770414889" lon="12.048191288486123">
        <ele>67.18</ele>
        <time>2023-06-10T17:46:50.398Z</time>
      </trkpt>
      <trkpt lat="55.22287982515991" lon="12.048267228528857">
        <ele>66.96</ele>
        <time>2023-06-10T17:46:55.510Z</time>
      </trkpt>
      <trkpt lat="55.22286415100098" lon="12.048417683690786">
        <ele>66.45</ele>
        <time>2023-06-10T17:47:00.624Z</time>
      </trkpt>
      <trkpt lat="55.22282433696091" lon="12.048800820484757">
        <ele>65.1</ele>
        <time>2023-06-10T17:47:05.741Z</time>
      </trkpt>
      <trkpt lat="55.22280857898295" lon="12.04895286820829">
        <ele>64.63</ele>
        <time>2023-06-10T17:47:10.860Z</time>
      </trkpt>
      <trkpt lat="55.2227767277509" lon="12.049258388578892">
        <ele>63.77</ele>
        <time>2023-06-10T17:47:15.981Z</time>
      </trkpt>
      <trkpt lat="55.222759963944554" lon="12.049419991672039">
        <ele>63.54</ele>
        <time>2023-06-10T17:47:21.104Z</time>
      </trkpt>
      <trkpt lat="55.22274747490883" lon="12.049526274204254">
        <ele>63.39</ele>
        <time>2023-06-10T17:47:26.228Z</time>
      </trkpt>
      <trkpt lat="55.22272400557995" lon="12.049725512042642">
        <ele>63.05</ele>
        <time>2023-06-10T17:47:31.354Z</time>
      </trkpt>
      <trkpt lat="55.22268880158663" lon="12.050025081261992">
        <ele>61.92</ele>
        <time>2023-06-10T17:47:36.483Z</time>
      </trkpt>
      <trkpt lat="55.22265996783972" lon="12.050269916653633">
        <ele>60.95</ele>
        <time>2023-06-10T17:47:41.614Z</time>
      </trkpt>
      <trkpt lat="55.222625182941556" lon="12.050471249967813">
        <ele>60.15</ele>
        <time>2023-06-10T17:47:46.747Z</time>
      </trkpt>
      <trkpt lat="55.22259986959398" lon="12.050617597997189">
        <ele>59.59</ele>
        <time>2023-06-10T17:47:51.881Z</time>
      </trkpt>
      <trkpt lat="55.22256181575358" lon="12.050837958231568">
        <ele>58.85</ele>
        <time>2023-06-10T17:47:57.017Z</time>
      </trkpt>
      <trkpt lat="55.222536250948906" lon="12.050985815003514">
        <ele>58.44</ele>
        <time>2023-06-10T17:48:02.155Z</time>
      </trkpt>
      <trkpt lat="55.22251093760133" lon="12.05113216303289">
        <ele>58.09</ele>
        <time>2023-06-10T17:48:07.294Z</time>
      </trkpt>
      <trkpt lat="55.22248562425375" lon="12.051278511062264">
        <ele>57.8</ele>
        <time>2023-06-10T17:48:12.435Z</time>
      </trkpt>
      <trkpt lat="55.22247288376093" lon="12.051352439448237">
        <ele>57.68</ele>
        <time>2023-06-10T17:48:17.576Z</time>
      </trkpt>
      <trkpt lat="55.22246031090617" lon="12.05142485909164">
        <ele>57.6</ele>
        <time>2023-06-10T17:48:22.718Z</time>
      </trkpt>
      <trkpt lat="55.22244757041335" lon="12.051498787477612">
        <ele>57.55</ele>
        <time>2023-06-10T17:48:27.861Z</time>
      </trkpt>
      <trkpt lat="55.22242225706577" lon="12.05164521932602">
        <ele>57.53</ele>
        <time>2023-06-10T17:48:33.005Z</time>
      </trkpt>
      <trkpt lat="55.2223966922611" lon="12.051793076097965">
        <ele>57.62</ele>
        <time>2023-06-10T17:48:38.150Z</time>
      </trkpt>
      <trkpt lat="55.22237992845476" lon="12.051889970898628">
        <ele>57.72</ele>
        <time>2023-06-10T17:48:43.296Z</time>
      </trkpt>
      <trkpt lat="55.22236349992454" lon="12.052092561498284">
        <ele>57.95</ele>
        <time>2023-06-10T17:48:48.444Z</time>
      </trkpt>
      <trkpt lat="55.2223499212414" lon="12.05225994810462">
        <ele>57.91</ele>
        <time>2023-06-10T17:48:53.594Z</time>
      </trkpt>
      <trkpt lat="55.222217068076134" lon="12.05226430669427">
        <ele>57.87</ele>
        <time>2023-06-10T17:48:58.746Z</time>
      </trkpt>
      <trkpt lat="55.221861926838756" lon="12.052275957539678">
        <ele>57.51</ele>
        <time>2023-06-10T17:49:03.904Z</time>
      </trkpt>
      <trkpt lat="55.22173997014761" lon="12.0522799808532">
        <ele>57.42</ele>
        <time>2023-06-10T17:49:09.064Z</time>
      </trkpt>
      <trkpt lat="55.22168515250087" lon="12.052269000560045">
        <ele>57.38</ele>
        <time>2023-06-10T17:49:14.224Z</time>
      </trkpt>
      <trkpt lat="55.22158993408084" lon="12.052249973639846">
        <ele>57.33</ele>
        <time>2023-06-10T17:49:19.386Z</time>
      </trkpt>
      <trkpt lat="55.22134132683277" lon="12.052137907594442">
        <ele>57.21</ele>
        <time>2023-06-10T17:49:24.552Z</time>
      </trkpt>
      <trkpt lat="55.221211491152644" lon="12.052079401910305">
        <ele>57.21</ele>
        <time>2023-06-10T17:49:29.720Z</time>
      </trkpt>
      <trkpt lat="55.22112440317869" lon="12.052040174603462">
        <ele>57.14</ele>
        <time>2023-06-10T17:49:34.890Z</time>
      </trkpt>
      <trkpt lat="55.22108173929155" lon="12.052020896226168">
        <ele>57.08</ele>
        <time>2023-06-10T17:49:40.060Z</time>
      </trkpt>
      <trkpt lat="55.220994651317596" lon="12.051981668919325">
        <ele>56.91</ele>
        <time>2023-06-10T17:49:45.232Z</time>
      </trkpt>
      <trkpt lat="55.22087998688221" lon="12.051929952576756">
        <ele>56.6</ele>
        <time>2023-06-10T17:49:50.406Z</time>
      </trkpt>
      <trkpt lat="55.22078996524215" lon="12.051919978111982">
        <ele>56.37</ele>
        <time>2023-06-10T17:49:55.581Z</time>
      </trkpt>
      <trkpt lat="55.22077462635934" lon="12.05192131921649">
        <ele>56.34</ele>
        <time>2023-06-10T17:50:00.756Z</time>
      </trkpt>
      <trkpt lat="55.22068569436669" lon="12.051929030567408">
        <ele>56.14</ele>
        <time>2023-06-10T17:50:05.933Z</time>
      </trkpt>
      <trkpt lat="55.220640851184726" lon="12.051932886242867">
        <ele>56.06</ele>
        <time>2023-06-10T17:50:11.111Z</time>
      </trkpt>
      <trkpt lat="55.22055996581912" lon="12.05193992704153">
        <ele>55.94</ele>
        <time>2023-06-10T17:50:16.290Z</time>
      </trkpt>
      <trkpt lat="55.220327116549015" lon="12.051933137699962">
        <ele>55.61</ele>
        <time>2023-06-10T17:50:21.473Z</time>
      </trkpt>
      <trkpt lat="55.22023810073733" lon="12.051930455490947">
        <ele>55.52</ele>
        <time>2023-06-10T17:50:26.657Z</time>
      </trkpt>
      <trkpt lat="55.22021999582648" lon="12.051929952576756">
        <ele>55.5</ele>
        <time>2023-06-10T17:50:31.841Z</time>
      </trkpt>
      <trkpt lat="55.220119999721646" lon="12.05195995979011">
        <ele>55.42</ele>
        <time>2023-06-10T17:50:37.027Z</time>
      </trkpt>
      <trkpt lat="55.220065265893936" lon="12.052000612020493">
        <ele>55.38</ele>
        <time>2023-06-10T17:50:42.214Z</time>
      </trkpt>
      <trkpt lat="55.2199824526906" lon="12.052062219008803">
        <ele>55.26</ele>
        <time>2023-06-10T17:50:47.402Z</time>
      </trkpt>
      <trkpt lat="55.2198997233063" lon="12.052123825997114">
        <ele>55.07</ele>
        <time>2023-06-10T17:50:52.592Z</time>
      </trkpt>
      <trkpt lat="55.21969445049763" lon="12.052276628091931">
        <ele>54.41</ele>
        <time>2023-06-10T17:50:57.785Z</time>
      </trkpt>
      <trkpt lat="55.21965304389596" lon="12.052307473495603">
        <ele>54.3</ele>
        <time>2023-06-10T17:51:02.979Z</time>
      </trkpt>
      <trkpt lat="55.219570230692625" lon="12.052369080483913">
        <ele>54.14</ele>
        <time>2023-06-10T17:51:08.175Z</time>
      </trkpt>
      <trkpt lat="55.21944693289697" lon="12.052460862323642">
        <ele>54.0</ele>
        <time>2023-06-10T17:51:13.373Z</time>
      </trkpt>
      <trkpt lat="55.21936411969364" lon="12.052522469311953">
        <ele>53.95</ele>
        <time>2023-06-10T17:51:18.572Z</time>
      </trkpt>
      <trkpt lat="55.219259932637215" lon="12.052599918097258">
        <ele>53.92</ele>
        <time>2023-06-10T17:51:23.773Z</time>
      </trkpt>
      <trkpt lat="55.219239396974444" lon="12.052605701610446">
        <ele>53.92</ele>
        <time>2023-06-10T17:51:28.974Z</time>
      </trkpt>
      <trkpt lat="55.219150548800826" lon="12.05263034440577">
        <ele>53.93</ele>
        <time>2023-06-10T17:51:34.177Z</time>
      </trkpt>
      <trkpt lat="55.21907997317612" lon="12.052649958059192">
        <ele>53.97</ele>
        <time>2023-06-10T17:51:39.381Z</time>
      </trkpt>
      <trkpt lat="55.21906245499849" lon="12.05264744348824">
        <ele>53.98</ele>
        <time>2023-06-10T17:51:44.585Z</time>
      </trkpt>
      <trkpt lat="55.21897285245359" lon="12.052634619176388">
        <ele>54.12</ele>
        <time>2023-06-10T17:51:49.791Z</time>
      </trkpt>
      <trkpt lat="55.21893999539316" lon="12.052629925310612">
        <ele>54.2</ele>
        <time>2023-06-10T17:51:54.997Z</time>
      </trkpt>
      <trkpt lat="55.21892935037613" lon="12.052624309435487">
        <ele>54.23</ele>
        <time>2023-06-10T17:52:00.203Z</time>
      </trkpt>
      <trkpt lat="55.21884326823056" lon="12.052578711882234">
        <ele>54.53</ele>
        <time>2023-06-10T17:52:05.411Z</time>
      </trkpt>
      <trkpt lat="55.218757186084986" lon="12.052533198148012">
        <ele>54.94</ele>
        <time>2023-06-10T17:52:10.620Z</time>
      </trkpt>
      <trkpt lat="55.21867194212973" lon="12.052488019689918">
        <ele>55.46</ele>
        <time>2023-06-10T17:52:15.831Z</time>
      </trkpt>
      <trkpt lat="55.21858585998416" lon="12.052442505955696">
        <ele>56.03</ele>
        <time>2023-06-10T17:52:21.043Z</time>
      </trkpt>
      <trkpt lat="55.21841453388333" lon="12.05235181376338">
        <ele>57.21</ele>
        <time>2023-06-10T17:52:26.258Z</time>
      </trkpt>
      <trkpt lat="55.21828620694578" lon="12.052283836528659">
        <ele>58.04</ele>
        <time>2023-06-10T17:52:31.475Z</time>
      </trkpt>
      <trkpt lat="55.218200124800205" lon="12.052238322794437">
        <ele>58.56</ele>
        <time>2023-06-10T17:52:36.694Z</time>
      </trkpt>
      <trkpt lat="55.21811488084495" lon="12.052193144336343">
        <ele>59.02</ele>
        <time>2023-06-10T17:52:41.914Z</time>
      </trkpt>
      <trkpt lat="55.21808998659253" lon="12.052179984748363">
        <ele>59.13</ele>
        <time>2023-06-10T17:52:47.134Z</time>
      </trkpt>
      <trkpt lat="55.21802804432809" lon="12.052152156829834">
        <ele>59.42</ele>
        <time>2023-06-10T17:52:52.355Z</time>
      </trkpt>
      <trkpt lat="55.21794187836349" lon="12.05211334861815">
        <ele>59.77</ele>
        <time>2023-06-10T17:52:57.578Z</time>
      </trkpt>
      <trkpt lat="55.217898292467" lon="12.052093734964728">
        <ele>59.92</ele>
        <time>2023-06-10T17:53:02.802Z</time>
      </trkpt>
      <trkpt lat="55.217854706570506" lon="12.052074121311307">
        <ele>60.04</ele>
        <time>2023-06-10T17:53:08.026Z</time>
      </trkpt>
      <trkpt lat="55.217811204493046" lon="12.052054507657886">
        <ele>60.13</ele>
        <time>2023-06-10T17:53:13.251Z</time>
      </trkpt>
      <trkpt lat="55.217767618596554" lon="12.052034894004464">
        <ele>60.19</ele>
        <time>2023-06-10T17:53:18.477Z</time>
      </trkpt>
      <trkpt lat="55.21772495470941" lon="12.052015699446201">
        <ele>60.22</ele>
        <time>2023-06-10T17:53:23.703Z</time>
      </trkpt>
      <trkpt lat="55.21768136881292" lon="12.05199608579278">
        <ele>60.23</ele>
        <time>2023-06-10T17:53:28.930Z</time>
      </trkpt>
      <trkpt lat="55.21748992614448" lon="12.051909919828176">
        <ele>60.18</ele>
        <time>2023-06-10T17:53:34.160Z</time>
      </trkpt>
      <trkpt lat="55.21698131226003" lon="12.05172828398645">
        <ele>60.08</ele>
        <time>2023-06-10T17:53:39.399Z</time>
      </trkpt>
      <trkpt lat="55.216894056648016" lon="12.051697103306651">
        <ele>60.12</ele>
        <time>2023-06-10T17:53:44.639Z</time>
      </trkpt>
      <trkpt lat="55.216849967837334" lon="12.05168142914772">
        <ele>60.17</ele>
        <time>2023-06-10T17:53:49.880Z</time>
      </trkpt>
      <trkpt lat="55.216789953410625" lon="12.051659971475601">
        <ele>60.26</ele>
        <time>2023-06-10T17:53:55.122Z</time>
      </trkpt>
      <trkpt lat="55.21676246076822" lon="12.051645554602146">
        <ele>60.31</ele>
        <time>2023-06-10T17:54:00.364Z</time>
      </trkpt>
      <trkpt lat="55.21657998673618" lon="12.051549917086959">
        <ele>60.77</ele>
        <time>2023-06-10T17:54:05.609Z</time>
      </trkpt>
      <trkpt lat="55.21650932729244" lon="12.0514942612499">
        <ele>60.96</ele>
        <time>2023-06-10T17:54:10.856Z</time>
      </trkpt>
      <trkpt lat="55.216386280953884" lon="12.051397282630205">
        <ele>61.23</ele>
        <time>2023-06-10T17:54:16.105Z</time>
      </trkpt>
      <trkpt lat="55.21630506031215" lon="12.051333244889975">
        <ele>61.37</ele>
        <time>2023-06-10T17:54:21.355Z</time>
      </trkpt>
      <trkpt lat="55.21626407280564" lon="12.051300974562764">
        <ele>61.42</ele>
        <time>2023-06-10T17:54:26.606Z</time>
      </trkpt>
      <trkpt lat="55.21618285216391" lon="12.051236936822534">
        <ele>61.47</ele>
        <time>2023-06-10T17:54:31.858Z</time>
      </trkpt>
      <trkpt lat="55.21610079333186" lon="12.051172312349081">
        <ele>61.46</ele>
        <time>2023-06-10T17:54:37.112Z</time>
      </trkpt>
      <trkpt lat="55.21605980582535" lon="12.051139958202839">
        <ele>61.42</ele>
        <time>2023-06-10T17:54:42.366Z</time>
      </trkpt>
      <trkpt lat="55.21597858518362" lon="12.051075920462608">
        <ele>61.28</ele>
        <time>2023-06-10T17:54:47.622Z</time>
      </trkpt>
      <trkpt lat="55.21593759767711" lon="12.051043650135398">
        <ele>61.18</ele>
        <time>2023-06-10T17:54:52.879Z</time>
      </trkpt>
      <trkpt lat="55.2158966101706" lon="12.051011295989156">
        <ele>61.05</ele>
        <time>2023-06-10T17:54:58.136Z</time>
      </trkpt>
      <trkpt lat="55.21581538952887" lon="12.050947258248925">
        <ele>60.74</ele>
        <time>2023-06-10T17:55:03.395Z</time>
      </trkpt>
      <trkpt lat="55.21572997793555" lon="12.050879951566458">
        <ele>60.32</ele>
        <time>2023-06-10T17:55:08.655Z</time>
      </trkpt>
      <trkpt lat="55.21569175645709" lon="12.050852794200182">
        <ele>60.14</ele>
        <time>2023-06-10T17:55:13.916Z</time>
      </trkpt>
      <trkpt lat="55.21552512422204" lon="12.050734190270305">
        <ele>59.44</ele>
        <time>2023-06-10T17:55:19.180Z</time>
      </trkpt>
      <trkpt lat="55.2154425624758" lon="12.050675516948104">
        <ele>59.15</ele>
        <time>2023-06-10T17:55:24.445Z</time>
      </trkpt>
      <trkpt lat="55.21531758829951" lon="12.050586584955454">
        <ele>58.81</ele>
        <time>2023-06-10T17:55:29.712Z</time>
      </trkpt>
      <trkpt lat="55.21523427218199" lon="12.050527241081">
        <ele>58.63</ele>
        <time>2023-06-10T17:55:34.981Z</time>
      </trkpt>
      <trkpt lat="55.21520996466279" lon="12.050509974360466">
        <ele>58.58</ele>
        <time>2023-06-10T17:55:40.250Z</time>
      </trkpt>
      <trkpt lat="55.215147100389004" lon="12.050492456182837">
        <ele>58.49</ele>
        <time>2023-06-10T17:55:45.520Z</time>
      </trkpt>
      <trkpt lat="55.215029921382666" lon="12.050459934398532">
        <ele>58.33</ele>
        <time>2023-06-10T17:55:50.792Z</time>
      </trkpt>
      <trkpt lat="55.21492372266948" lon="12.050466556102037">
        <ele>58.19</ele>
        <time>2023-06-10T17:55:56.066Z</time>
      </trkpt>
      <trkpt lat="55.21486999467015" lon="12.050469992682338">
        <ele>58.15</ele>
        <time>2023-06-10T17:56:01.341Z</time>
      </trkpt>
      <trkpt lat="55.2147897798568" lon="12.050491366535425">
        <ele>58.1</ele>
        <time>2023-06-10T17:56:06.617Z</time>
      </trkpt>
      <trkpt lat="55.21474535576999" lon="12.050503185018897">
        <ele>58.1</ele>
        <time>2023-06-10T17:56:11.894Z</time>
      </trkpt>
      <trkpt lat="55.21470093168318" lon="12.050515003502369">
        <ele>58.13</ele>
        <time>2023-06-10T17:56:17.171Z</time>
      </trkpt>
      <trkpt lat="55.21465642377734" lon="12.050526905804873">
        <ele>58.2</ele>
        <time>2023-06-10T17:56:22.449Z</time>
      </trkpt>
      <trkpt lat="55.21461199969053" lon="12.050538724288344">
        <ele>58.3</ele>
        <time>2023-06-10T17:56:27.728Z</time>
      </trkpt>
      <trkpt lat="55.21456992253661" lon="12.050549956038594">
        <ele>58.43</ele>
        <time>2023-06-10T17:56:33.008Z</time>
      </trkpt>
      <trkpt lat="55.21452256478369" lon="12.050546603277326">
        <ele>58.58</ele>
        <time>2023-06-10T17:56:38.288Z</time>
      </trkpt>
      <trkpt lat="55.21442994475365" lon="12.05053998157382">
        <ele>58.93</ele>
        <time>2023-06-10T17:56:43.570Z</time>
      </trkpt>
      <trkpt lat="55.21425995975733" lon="12.050469992682338">
        <ele>59.6</ele>
        <time>2023-06-10T17:56:48.855Z</time>
      </trkpt>
      <trkpt lat="55.21421545185149" lon="12.05044124275446">
        <ele>59.79</ele>
        <time>2023-06-10T17:56:54.140Z</time>
      </trkpt>
      <trkpt lat="55.21413104608655" lon="12.050386928021908">
        <ele>60.15</ele>
        <time>2023-06-10T17:56:59.427Z</time>
      </trkpt>
      <trkpt lat="55.21400439552963" lon="12.050305372104049">
        <ele>60.81</ele>
        <time>2023-06-10T17:57:04.716Z</time>
      </trkpt>
      <trkpt lat="55.2137934230268" lon="12.050169417634606">
        <ele>62.07</ele>
        <time>2023-06-10T17:57:10.009Z</time>
      </trkpt>
      <trkpt lat="55.21366677246988" lon="12.050087777897716">
        <ele>62.77</ele>
        <time>2023-06-10T17:57:15.304Z</time>
      </trkpt>
      <trkpt lat="55.21358236670494" lon="12.050033463165164">
        <ele>63.18</ele>
        <time>2023-06-10T17:57:20.600Z</time>
      </trkpt>
      <trkpt lat="55.21349796094" lon="12.04997906461358">
        <ele>63.5</ele>
        <time>2023-06-10T17:57:25.898Z</time>
      </trkpt>
      <trkpt lat="55.21345571614802" lon="12.049951823428273">
        <ele>63.64</ele>
        <time>2023-06-10T17:57:31.196Z</time>
      </trkpt>
      <trkpt lat="55.21337131038308" lon="12.049897508695722">
        <ele>63.87</ele>
        <time>2023-06-10T17:57:36.496Z</time>
      </trkpt>
      <trkpt lat="55.2132199332118" lon="12.049799943342805">
        <ele>64.22</ele>
        <time>2023-06-10T17:57:41.798Z</time>
      </trkpt>
      <trkpt lat="55.21289714612067" lon="12.049653930589557">
        <ele>64.95</ele>
        <time>2023-06-10T17:57:47.106Z</time>
      </trkpt>
      <trkpt lat="55.21279999986291" lon="12.049609925597906">
        <ele>65.13</ele>
        <time>2023-06-10T17:57:52.415Z</time>
      </trkpt>
      <trkpt lat="55.21276630461216" lon="12.049596514552832">
        <ele>65.2</ele>
        <time>2023-06-10T17:57:57.725Z</time>
      </trkpt>
      <trkpt lat="55.212678629904985" lon="12.049561478197575">
        <ele>65.32</ele>
        <time>2023-06-10T17:58:03.036Z</time>
      </trkpt>
      <trkpt lat="55.21259095519781" lon="12.049526358023286">
        <ele>65.37</ele>
        <time>2023-06-10T17:58:08.349Z</time>
      </trkpt>
      <trkpt lat="55.212547117844224" lon="12.049508839845657">
        <ele>65.36</ele>
        <time>2023-06-10T17:58:13.662Z</time>
      </trkpt>
      <trkpt lat="55.21245944313705" lon="12.049473719671369">
        <ele>65.26</ele>
        <time>2023-06-10T17:58:18.977Z</time>
      </trkpt>
      <trkpt lat="55.21241560578346" lon="12.04945620149374">
        <ele>65.18</ele>
        <time>2023-06-10T17:58:24.293Z</time>
      </trkpt>
      <trkpt lat="55.21234997548163" lon="12.049429966136813">
        <ele>65.0</ele>
        <time>2023-06-10T17:58:29.610Z</time>
      </trkpt>
      <trkpt lat="55.2123274281621" lon="12.049427283927798">
        <ele>64.95</ele>
        <time>2023-06-10T17:58:34.927Z</time>
      </trkpt>
      <trkpt lat="55.21223774179816" lon="12.049416471272707">
        <ele>64.64</ele>
        <time>2023-06-10T17:58:40.246Z</time>
      </trkpt>
      <trkpt lat="55.21209994331002" lon="12.049399958923459">
        <ele>64.11</ele>
        <time>2023-06-10T17:58:45.567Z</time>
      </trkpt>
      <trkpt lat="55.21196968853474" lon="12.04943424090743">
        <ele>63.61</ele>
        <time>2023-06-10T17:58:50.890Z</time>
      </trkpt>
      <trkpt lat="55.21188075654209" lon="12.04945762641728">
        <ele>63.31</ele>
        <time>2023-06-10T17:58:56.214Z</time>
      </trkpt>
      <trkpt lat="55.21179182454944" lon="12.049481011927128">
        <ele>63.06</ele>
        <time>2023-06-10T17:59:01.540Z</time>
      </trkpt>
      <trkpt lat="55.211569452658296" lon="12.049539517611265">
        <ele>62.56</ele>
        <time>2023-06-10T17:59:06.869Z</time>
      </trkpt>
      <trkpt lat="55.211436934769154" lon="12.049574386328459">
        <ele>62.21</ele>
        <time>2023-06-10T17:59:12.200Z</time>
      </trkpt>
      <trkpt lat="55.21133995614946" lon="12.049599951133132">
        <ele>61.96</ele>
        <time>2023-06-10T17:59:17.533Z</time>
      </trkpt>
      <trkpt lat="55.21126334555447" lon="12.04961696639657">
        <ele>61.78</ele>
        <time>2023-06-10T17:59:22.867Z</time>
      </trkpt>
      <trkpt lat="55.211159996688366" lon="12.04963993281126">
        <ele>61.57</ele>
        <time>2023-06-10T17:59:28.203Z</time>
      </trkpt>
      <trkpt lat="55.21108967252076" lon="12.049635825678706">
        <ele>61.44</ele>
        <time>2023-06-10T17:59:33.540Z</time>
      </trkpt>
      <trkpt lat="55.210989927873015" lon="12.049629958346486">
        <ele>61.46</ele>
        <time>2023-06-10T17:59:38.879Z</time>
      </trkpt>
      <trkpt lat="55.21096025593579" lon="12.049616798758507">
        <ele>61.47</ele>
        <time>2023-06-10T17:59:44.218Z</time>
      </trkpt>
      <trkpt lat="55.21075020544231" lon="12.049523675814271">
        <ele>61.62</ele>
        <time>2023-06-10T17:59:49.561Z</time>
      </trkpt>
      <trkpt lat="55.21062372252345" lon="12.049467600882053">
        <ele>61.64</ele>
        <time>2023-06-10T17:59:54.906Z</time>
      </trkpt>
      <trkpt lat="55.21049824543297" lon="12.049411945044994">
        <ele>61.6</ele>
        <time>2023-06-10T18:00:00.253Z</time>
      </trkpt>
      <trkpt lat="55.21011980250478" lon="12.049244223162532">
        <ele>61.33</ele>
        <time>2023-06-10T18:00:05.606Z</time>
      </trkpt>
      <trkpt lat="55.210019974038005" lon="12.049199966713786">
        <ele>61.42</ele>
        <time>2023-06-10T18:00:10.961Z</time>
      </trkpt>
      <trkpt lat="55.209990134462714" lon="12.049184963107109">
        <ele>61.45</ele>
        <time>2023-06-10T18:00:16.316Z</time>
      </trkpt>
      <trkpt lat="55.2097749710083" lon="12.04907650128007">
        <ele>61.76</ele>
        <time>2023-06-10T18:00:21.675Z</time>
      </trkpt>
      <trkpt lat="55.20968939177692" lon="12.049033418297768">
        <ele>61.8</ele>
        <time>2023-06-10T18:00:27.035Z</time>
      </trkpt>
      <trkpt lat="55.209646141156554" lon="12.049011625349522">
        <ele>61.79</ele>
        <time>2023-06-10T18:00:32.396Z</time>
      </trkpt>
      <trkpt lat="55.209559723734856" lon="12.04896803945303">
        <ele>61.72</ele>
        <time>2023-06-10T18:00:37.758Z</time>
      </trkpt>
      <trkpt lat="55.209474144503474" lon="12.048924956470728">
        <ele>61.58</ele>
        <time>2023-06-10T18:00:43.122Z</time>
      </trkpt>
      <trkpt lat="55.209387727081776" lon="12.048881370574236">
        <ele>61.38</ele>
        <time>2023-06-10T18:00:48.487Z</time>
      </trkpt>
      <trkpt lat="55.209302147850394" lon="12.048838287591934">
        <ele>61.13</ele>
        <time>2023-06-10T18:00:53.854Z</time>
      </trkpt>
      <trkpt lat="55.209215730428696" lon="12.048794701695442">
        <ele>60.83</ele>
        <time>2023-06-10T18:00:59.222Z</time>
      </trkpt>
      <trkpt lat="55.209130151197314" lon="12.04875161871314">
        <ele>60.48</ele>
        <time>2023-06-10T18:01:04.592Z</time>
      </trkpt>
      <trkpt lat="55.209043733775616" lon="12.048708032816648">
        <ele>60.08</ele>
        <time>2023-06-10T18:01:09.963Z</time>
      </trkpt>
      <trkpt lat="55.2089149877429" lon="12.0486431568861">
        <ele>59.34</ele>
        <time>2023-06-10T18:01:15.336Z</time>
      </trkpt>
      <trkpt lat="55.20874299108982" lon="12.048556488007307">
        <ele>58.25</ele>
        <time>2023-06-10T18:01:20.712Z</time>
      </trkpt>
      <trkpt lat="55.208729999139905" lon="12.048549950122833">
        <ele>58.17</ele>
        <time>2023-06-10T18:01:26.088Z</time>
      </trkpt>
      <trkpt lat="55.20866042934358" lon="12.048494378104806">
        <ele>57.73</ele>
        <time>2023-06-10T18:01:31.465Z</time>
      </trkpt>
      <trkpt lat="55.20862036384642" lon="12.048462275415659">
        <ele>57.5</ele>
        <time>2023-06-10T18:01:36.843Z</time>
      </trkpt>
      <trkpt lat="55.208579963073134" lon="12.048429921269417">
        <ele>57.29</ele>
        <time>2023-06-10T18:01:42.222Z</time>
      </trkpt>
      <trkpt lat="55.20854266360402" lon="12.048384323716164">
        <ele>57.09</ele>
        <time>2023-06-10T18:01:47.602Z</time>
      </trkpt>
      <trkpt lat="55.208505783230066" lon="12.0483392290771">
        <ele>56.91</ele>
        <time>2023-06-10T18:01:52.982Z</time>
      </trkpt>
      <trkpt lat="55.20848994143307" lon="12.048319950699806">
        <ele>56.84</ele>
        <time>2023-06-10T18:01:58.363Z</time>
      </trkpt>
      <trkpt lat="55.20847192034125" lon="12.048290111124516">
        <ele>56.76</ele>
        <time>2023-06-10T18:02:03.744Z</time>
      </trkpt>
      <trkpt lat="55.20843914709985" lon="12.048236047849059">
        <ele>56.63</ele>
        <time>2023-06-10T18:02:09.126Z</time>
      </trkpt>
      <trkpt lat="55.208406457677484" lon="12.048182068392634">
        <ele>56.53</ele>
        <time>2023-06-10T18:02:14.509Z</time>
      </trkpt>
      <trkpt lat="55.20837368443608" lon="12.048128005117178">
        <ele>56.46</ele>
        <time>2023-06-10T18:02:19.892Z</time>
      </trkpt>
      <trkpt lat="55.20830889232457" lon="12.048020968213677">
        <ele>56.39</ele>
        <time>2023-06-10T18:02:25.277Z</time>
      </trkpt>
      <trkpt lat="55.20824351347983" lon="12.047912925481796">
        <ele>56.4</ele>
        <time>2023-06-10T18:02:30.663Z</time>
      </trkpt>
      <trkpt lat="55.20821074023843" lon="12.04785886220634">
        <ele>56.43</ele>
        <time>2023-06-10T18:02:36.050Z</time>
      </trkpt>
      <trkpt lat="55.20814594812691" lon="12.04775182530284">
        <ele>56.53</ele>
        <time>2023-06-10T18:02:41.438Z</time>
      </trkpt>
      <trkpt lat="55.20808048546314" lon="12.047643698751926">
        <ele>56.71</ele>
        <time>2023-06-10T18:02:46.828Z</time>
      </trkpt>
      <trkpt lat="55.20804846659303" lon="12.047590808942914">
        <ele>56.83</ele>
        <time>2023-06-10T18:02:52.218Z</time>
      </trkpt>
      <trkpt lat="55.20791821181774" lon="12.0473756454885">
        <ele>57.39</ele>
        <time>2023-06-10T18:02:57.611Z</time>
      </trkpt>
      <trkpt lat="55.20785274915397" lon="12.04726760275662">
        <ele>57.59</ele>
        <time>2023-06-10T18:03:03.006Z</time>
      </trkpt>
      <trkpt lat="55.207829950377345" lon="12.04722996801138">
        <ele>57.62</ele>
        <time>2023-06-10T18:03:08.401Z</time>
      </trkpt>
      <trkpt lat="55.20778192207217" lon="12.047171043232083">
        <ele>57.7</ele>
        <time>2023-06-10T18:03:13.797Z</time>
      </trkpt>
      <trkpt lat="55.2076353225857" lon="12.04699108377099">
        <ele>57.85</ele>
        <time>2023-06-10T18:03:19.196Z</time>
      </trkpt>
      <trkpt lat="55.20756240002811" lon="12.046901565045118">
        <ele>57.96</ele>
        <time>2023-06-10T18:03:24.596Z</time>
      </trkpt>
      <trkpt lat="55.20748880691826" lon="12.046811124309897">
        <ele>58.13</ele>
        <time>2023-06-10T18:03:29.998Z</time>
      </trkpt>
      <trkpt lat="55.207379003986716" lon="12.046676343306899">
        <ele>58.45</ele>
        <time>2023-06-10T18:03:35.402Z</time>
      </trkpt>
      <trkpt lat="55.207306081429124" lon="12.046586824581027">
        <ele>58.63</ele>
        <time>2023-06-10T18:03:40.807Z</time>
      </trkpt>
      <trkpt lat="55.20708588883281" lon="12.046316508203745">
        <ele>59.05</ele>
        <time>2023-06-10T18:03:46.217Z</time>
      </trkpt>
      <trkpt lat="55.20686561241746" lon="12.046046108007431">
        <ele>59.52</ele>
        <time>2023-06-10T18:03:51.631Z</time>
      </trkpt>
      <trkpt lat="55.206755893304944" lon="12.045911410823464">
        <ele>59.8</ele>
        <time>2023-06-10T18:03:57.047Z</time>
      </trkpt>
      <trkpt lat="55.20668297074735" lon="12.045821892097592">
        <ele>60.02</ele>
        <time>2023-06-10T18:04:02.465Z</time>
      </trkpt>
      <trkpt lat="55.20659998990595" lon="12.045719968155026">
        <ele>60.32</ele>
        <time>2023-06-10T18:04:07.884Z</time>
      </trkpt>
      <trkpt lat="55.20657643675804" lon="12.045680237933993">
        <ele>60.42</ele>
        <time>2023-06-10T18:04:13.304Z</time>
      </trkpt>
      <trkpt lat="55.206447606906295" lon="12.04546264372766">
        <ele>60.9</ele>
        <time>2023-06-10T18:04:18.727Z</time>
      </trkpt>
      <trkpt lat="55.20638281479478" lon="12.045353259891272">
        <ele>61.1</ele>
        <time>2023-06-10T18:04:24.151Z</time>
      </trkpt>
      <trkpt lat="55.20631869323552" lon="12.045244965702295">
        <ele>61.26</ele>
        <time>2023-06-10T18:04:29.577Z</time>
      </trkpt>
      <trkpt lat="55.206157425418496" lon="12.044972721487284">
        <ele>61.6</ele>
        <time>2023-06-10T18:04:35.006Z</time>
      </trkpt>
      <trkpt lat="55.206125071272254" lon="12.044917987659574">
        <ele>61.63</ele>
        <time>2023-06-10T18:04:40.436Z</time>
      </trkpt>
      <trkpt lat="55.20609271712601" lon="12.044863337650895">
        <ele>61.63</ele>
        <time>2023-06-10T18:04:45.867Z</time>
      </trkpt>
      <trkpt lat="55.20606027916074" lon="12.044808687642217">
        <ele>61.59</ele>
        <time>2023-06-10T18:04:51.298Z</time>
      </trkpt>
      <trkpt lat="55.20599624142051" lon="12.04470039345324">
        <ele>61.41</ele>
        <time>2023-06-10T18:04:56.731Z</time>
      </trkpt>
      <trkpt lat="55.205963803455234" lon="12.044645743444562">
        <ele>61.28</ele>
        <time>2023-06-10T18:05:02.164Z</time>
      </trkpt>
      <trkpt lat="55.20589909516275" lon="12.044536359608173">
        <ele>60.98</ele>
        <time>2023-06-10T18:05:07.599Z</time>
      </trkpt>
      <trkpt lat="55.20567370578647" lon="12.044155821204185">
        <ele>59.73</ele>
        <time>2023-06-10T18:05:13.039Z</time>
      </trkpt>
      <trkpt lat="55.20560891367495" lon="12.044046437367797">
        <ele>59.4</ele>
        <time>2023-06-10T18:05:18.480Z</time>
      </trkpt>
      <trkpt lat="55.20553993061185" lon="12.043929928913713">
        <ele>59.13</ele>
        <time>2023-06-10T18:05:23.923Z</time>
      </trkpt>
      <trkpt lat="55.20553993061185" lon="12.043929928913713">
        <ele>59.13</ele>
        <time>2023-06-10T18:05:29.366Z</time>
      </trkpt>
      <trkpt lat="55.205399952828884" lon="12.04374996945262">
        <ele>58.7</ele>
        <time>2023-06-10T18:05:34.812Z</time>
      </trkpt>
      <trkpt lat="55.205399952828884" lon="12.04374996945262">
        <ele>58.7</ele>
        <time>2023-06-10T18:05:40.258Z</time>
      </trkpt>
      <trkpt lat="55.205361396074295" lon="12.043714597821236">
        <ele>58.57</ele>
        <time>2023-06-10T18:05:45.704Z</time>
      </trkpt>
      <trkpt lat="55.20532158203423" lon="12.043678052723408">
        <ele>58.41</ele>
        <time>2023-06-10T18:05:51.151Z</time>
      </trkpt>
      <trkpt lat="55.20527992397547" lon="12.043639998883009">
        <ele>58.22</ele>
        <time>2023-06-10T18:05:56.599Z</time>
      </trkpt>
      <trkpt lat="55.20527992397547" lon="12.043639998883009">
        <ele>58.22</ele>
        <time>2023-06-10T18:06:02.047Z</time>
      </trkpt>
      <trkpt lat="55.20519551821053" lon="12.043603034690022">
        <ele>57.76</ele>
        <time>2023-06-10T18:06:07.496Z</time>
      </trkpt>
      <trkpt lat="55.205021845176816" lon="12.043527010828257">
        <ele>56.7</ele>
        <time>2023-06-10T18:06:12.948Z</time>
      </trkpt>
      <trkpt lat="55.2049345895648" lon="12.043488873168826">
        <ele>56.21</ele>
        <time>2023-06-10T18:06:18.402Z</time>
      </trkpt>
      <trkpt lat="55.2048481721431" lon="12.043451070785522">
        <ele>55.8</ele>
        <time>2023-06-10T18:06:23.857Z</time>
      </trkpt>
      <trkpt lat="55.20480458624661" lon="12.043431960046291">
        <ele>55.63</ele>
        <time>2023-06-10T18:06:29.313Z</time>
      </trkpt>
      <trkpt lat="55.204717330634594" lon="12.04339382238686">
        <ele>55.36</ele>
        <time>2023-06-10T18:06:34.770Z</time>
      </trkpt>
      <trkpt lat="55.20467458292842" lon="12.043375130742788">
        <ele>55.27</ele>
        <time>2023-06-10T18:06:40.228Z</time>
      </trkpt>
      <trkpt lat="55.2045873273164" lon="12.043336909264326">
        <ele>55.13</ele>
        <time>2023-06-10T18:06:45.687Z</time>
      </trkpt>
      <trkpt lat="55.204479955136776" lon="12.043289970606565">
        <ele>55.03</ele>
        <time>2023-06-10T18:06:51.148Z</time>
      </trkpt>
      <trkpt lat="55.20445866510272" lon="12.043273206800222">
        <ele>55.02</ele>
        <time>2023-06-10T18:06:56.609Z</time>
      </trkpt>
      <trkpt lat="55.20433997735381" lon="12.043179916217923">
        <ele>54.98</ele>
        <time>2023-06-10T18:07:02.073Z</time>
      </trkpt>
      <trkpt lat="55.20433612167835" lon="12.04317488707602">
        <ele>54.98</ele>
        <time>2023-06-10T18:07:07.537Z</time>
      </trkpt>
      <trkpt lat="55.20426529459655" lon="12.043080339208245">
        <ele>55.01</ele>
        <time>2023-06-10T18:07:13.002Z</time>
      </trkpt>
      <trkpt lat="55.20424995571375" lon="12.043059971183538">
        <ele>55.03</ele>
        <time>2023-06-10T18:07:18.467Z</time>
      </trkpt>
      <trkpt lat="55.204232688993216" lon="12.043026527389884">
        <ele>55.07</ele>
        <time>2023-06-10T18:07:23.933Z</time>
      </trkpt>
      <trkpt lat="55.2042025141418" lon="12.04296818934381">
        <ele>55.17</ele>
        <time>2023-06-10T18:07:29.400Z</time>
      </trkpt>
      <trkpt lat="55.20417225547135" lon="12.042909767478704">
        <ele>55.3</ele>
        <time>2023-06-10T18:07:34.867Z</time>
      </trkpt>
      <trkpt lat="55.204112492501736" lon="12.042794181033969">
        <ele>55.66</ele>
        <time>2023-06-10T18:07:40.336Z</time>
      </trkpt>
      <trkpt lat="55.203992296010256" lon="12.042561834678054">
        <ele>56.48</ele>
        <time>2023-06-10T18:07:45.808Z</time>
      </trkpt>
      <trkpt lat="55.20394996739924" lon="12.042479943484068">
        <ele>56.73</ele>
        <time>2023-06-10T18:07:51.281Z</time>
      </trkpt>
      <trkpt lat="55.203927755355835" lon="12.042453372851014">
        <ele>56.84</ele>
        <time>2023-06-10T18:07:56.754Z</time>
      </trkpt>
      <trkpt lat="55.20385432988405" lon="12.04236519522965">
        <ele>57.15</ele>
        <time>2023-06-10T18:08:02.228Z</time>
      </trkpt>
      <trkpt lat="55.20379993133247" lon="12.042299984022975">
        <ele>57.35</ele>
        <time>2023-06-10T18:08:07.703Z</time>
      </trkpt>
      <trkpt lat="55.20369431935251" lon="12.04222496598959">
        <ele>57.72</ele>
        <time>2023-06-10T18:08:13.180Z</time>
      </trkpt>
      <trkpt lat="55.2034876216203" lon="12.042078282684088">
        <ele>58.53</ele>
        <time>2023-06-10T18:08:18.661Z</time>
      </trkpt>
      <trkpt lat="55.2034458797425" lon="12.042048694565892">
        <ele>58.65</ele>
        <time>2023-06-10T18:08:24.143Z</time>
      </trkpt>
      <trkpt lat="55.20340422168374" lon="12.042019106447697">
        <ele>58.75</ele>
        <time>2023-06-10T18:08:29.625Z</time>
      </trkpt>
      <trkpt lat="55.203320905566216" lon="12.041959930211306">
        <ele>58.91</ele>
        <time>2023-06-10T18:08:35.109Z</time>
      </trkpt>
      <trkpt lat="55.203238343819976" lon="12.041901424527168">
        <ele>59.02</ele>
        <time>2023-06-10T18:08:40.594Z</time>
      </trkpt>
      <trkpt lat="55.20317992195487" lon="12.04185993410647">
        <ele>59.07</ele>
        <time>2023-06-10T18:08:46.080Z</time>
      </trkpt>
      <trkpt lat="55.20312015898526" lon="12.041792962700129">
        <ele>59.14</ele>
        <time>2023-06-10T18:08:51.567Z</time>
      </trkpt>
      <trkpt lat="55.203044386580586" lon="12.041708137840033">
        <ele>59.26</ele>
        <time>2023-06-10T18:08:57.056Z</time>
      </trkpt>
      <trkpt lat="55.20300650037825" lon="12.041665641590953">
        <ele>59.34</ele>
        <time>2023-06-10T18:09:02.546Z</time>
      </trkpt>
      <trkpt lat="55.20289359614253" lon="12.041539242491126">
        <ele>59.62</ele>
        <time>2023-06-10T18:09:08.038Z</time>
      </trkpt>
      <trkpt lat="55.20278069190681" lon="12.041412759572268">
        <ele>59.99</ele>
        <time>2023-06-10T18:09:13.532Z</time>
      </trkpt>
      <trkpt lat="55.202648090198636" lon="12.041264232248068">
        <ele>60.03</ele>
        <time>2023-06-10T18:09:19.028Z</time>
      </trkpt>
      <trkpt lat="55.20251548849046" lon="12.041115704923868">
        <ele>60.13</ele>
        <time>2023-06-10T18:09:24.527Z</time>
      </trkpt>
      <trkpt lat="55.20242999307811" lon="12.04101998358965">
        <ele>60.28</ele>
        <time>2023-06-10T18:09:30.027Z</time>
      </trkpt>
      <trkpt lat="55.20242999307811" lon="12.040972374379635">
        <ele>60.33</ele>
        <time>2023-06-10T18:09:35.528Z</time>
      </trkpt>
      <trkpt lat="55.20242999307811" lon="12.04067456535995">
        <ele>60.48</ele>
        <time>2023-06-10T18:09:41.032Z</time>
      </trkpt>
      <trkpt lat="55.20242999307811" lon="12.040499970316887">
        <ele>60.26</ele>
        <time>2023-06-10T18:09:46.537Z</time>
      </trkpt>
      <trkpt lat="55.20239923149347" lon="12.04049862921238">
        <ele>60.2</ele>
        <time>2023-06-10T18:09:52.043Z</time>
      </trkpt>
      <trkpt lat="55.20231197588146" lon="12.040494941174984">
        <ele>60.04</ele>
        <time>2023-06-10T18:09:57.550Z</time>
      </trkpt>
      <trkpt lat="55.20222480408847" lon="12.040491253137589">
        <ele>59.94</ele>
        <time>2023-06-10T18:10:03.059Z</time>
      </trkpt>
      <trkpt lat="55.20218071527779" lon="12.040489325299859">
        <ele>59.92</ele>
        <time>2023-06-10T18:10:08.568Z</time>
      </trkpt>
      <trkpt lat="55.20209354348481" lon="12.040485637262464">
        <ele>59.95</ele>
        <time>2023-06-10T18:10:14.079Z</time>
      </trkpt>
      <trkpt lat="55.20200628787279" lon="12.040481949225068">
        <ele>60.05</ele>
        <time>2023-06-10T18:10:19.591Z</time>
      </trkpt>
      <trkpt lat="55.20195993594825" lon="12.040479937568307">
        <ele>60.11</ele>
        <time>2023-06-10T18:10:25.104Z</time>
      </trkpt>
      <trkpt lat="55.20183328539133" lon="12.040446158498526">
        <ele>60.29</ele>
        <time>2023-06-10T18:10:30.619Z</time>
      </trkpt>
      <trkpt lat="55.201809983700514" lon="12.040439955890179">
        <ele>60.31</ele>
        <time>2023-06-10T18:10:36.134Z</time>
      </trkpt>
      <trkpt lat="55.20179229788482" lon="12.04042931087315">
        <ele>60.33</ele>
        <time>2023-06-10T18:10:41.650Z</time>
      </trkpt>
      <trkpt lat="55.2017089817673" lon="12.040379019454122">
        <ele>60.38</ele>
        <time>2023-06-10T18:10:47.167Z</time>
      </trkpt>
      <trkpt lat="55.201584845781326" lon="12.040304085239768">
        <ele>60.37</ele>
        <time>2023-06-10T18:10:52.686Z</time>
      </trkpt>
      <trkpt lat="55.2013374119997" lon="12.04015463590622">
        <ele>60.26</ele>
        <time>2023-06-10T18:10:58.209Z</time>
      </trkpt>
      <trkpt lat="55.20127999596298" lon="12.04011993482709">
        <ele>60.21</ele>
        <time>2023-06-10T18:11:03.733Z</time>
      </trkpt>
      <trkpt lat="55.20125376060605" lon="12.040113732218742">
        <ele>60.19</ele>
        <time>2023-06-10T18:11:09.258Z</time>
      </trkpt>
      <trkpt lat="55.20116910338402" lon="12.040093531832099">
        <ele>60.07</ele>
        <time>2023-06-10T18:11:14.784Z</time>
      </trkpt>
      <trkpt lat="55.2010699454695" lon="12.040069978684187">
        <ele>59.9</ele>
        <time>2023-06-10T18:11:20.312Z</time>
      </trkpt>
      <trkpt lat="55.20094991661608" lon="12.040109960362315">
        <ele>59.71</ele>
        <time>2023-06-10T18:11:25.842Z</time>
      </trkpt>
      <trkpt lat="55.2008299715817" lon="12.040209956467152">
        <ele>59.49</ele>
        <time>2023-06-10T18:11:31.374Z</time>
      </trkpt>
      <trkpt lat="55.20073173567653" lon="12.04034322872758">
        <ele>59.3</ele>
        <time>2023-06-10T18:11:36.908Z</time>
      </trkpt>
      <trkpt lat="55.20066065713763" lon="12.040439788252115">
        <ele>58.97</ele>
        <time>2023-06-10T18:11:42.443Z</time>
      </trkpt>
      <trkpt lat="55.200589494779706" lon="12.04053626395762">
        <ele>58.69</ele>
        <time>2023-06-10T18:11:47.980Z</time>
      </trkpt>
      <trkpt lat="55.20051841624081" lon="12.040632739663124">
        <ele>58.45</ele>
        <time>2023-06-10T18:11:53.518Z</time>
      </trkpt>
      <trkpt lat="55.200340719893575" lon="12.040873970836401">
        <ele>57.9</ele>
        <time>2023-06-10T18:11:59.060Z</time>
      </trkpt>
      <trkpt lat="55.20016361027956" lon="12.041114280000329">
        <ele>57.26</ele>
        <time>2023-06-10T18:12:04.605Z</time>
      </trkpt>
      <trkpt lat="55.20012999884784" lon="12.041159961372614">
        <ele>57.12</ele>
        <time>2023-06-10T18:12:10.151Z</time>
      </trkpt>
      <trkpt lat="55.199942076578736" lon="12.041380992159247">
        <ele>56.41</ele>
        <time>2023-06-10T18:12:15.701Z</time>
      </trkpt>
      <trkpt lat="55.19971886649728" lon="12.041643597185612">
        <ele>55.52</ele>
        <time>2023-06-10T18:12:21.255Z</time>
      </trkpt>
      <trkpt lat="55.19960688427091" lon="12.041775360703468">
        <ele>55.14</ele>
        <time>2023-06-10T18:12:26.811Z</time>
      </trkpt>
      <trkpt lat="55.199458273127675" lon="12.041950207203627">
        <ele>54.75</ele>
        <time>2023-06-10T18:12:32.370Z</time>
      </trkpt>
      <trkpt lat="55.199449975043535" lon="12.041959930211306">
        <ele>54.73</ele>
        <time>2023-06-10T18:12:37.929Z</time>
      </trkpt>
      <trkpt lat="55.19933816045523" lon="12.042057579383254">
        <ele>54.49</ele>
        <time>2023-06-10T18:12:43.490Z</time>
      </trkpt>
      <trkpt lat="55.19925769418478" lon="12.042127819731832">
        <ele>54.34</ele>
        <time>2023-06-10T18:12:49.052Z</time>
      </trkpt>
      <trkpt lat="55.19917722791433" lon="12.04219814389944">
        <ele>54.21</ele>
        <time>2023-06-10T18:12:54.616Z</time>
      </trkpt>
      <trkpt lat="55.1989768166095" lon="12.042373158037663">
        <ele>54.05</ele>
        <time>2023-06-10T18:13:00.184Z</time>
      </trkpt>
      <trkpt lat="55.19889626652002" lon="12.04244339838624">
        <ele>53.94</ele>
        <time>2023-06-10T18:13:05.753Z</time>
      </trkpt>
      <trkpt lat="55.198816638439894" lon="12.042513052001595">
        <ele>53.76</ele>
        <time>2023-06-10T18:13:11.323Z</time>
      </trkpt>
      <trkpt lat="55.198739944025874" lon="12.042579939588904">
        <ele>53.52</ele>
        <time>2023-06-10T18:13:16.895Z</time>
      </trkpt>
      <trkpt lat="55.19873600453138" lon="12.042582873255014">
        <ele>53.52</ele>
        <time>2023-06-10T18:13:22.467Z</time>
      </trkpt>
      <trkpt lat="55.19852905534208" lon="12.042736764997244">
        <ele>52.88</ele>
        <time>2023-06-10T18:13:28.042Z</time>
      </trkpt>
      <trkpt lat="55.19844708032906" lon="12.042797701433301">
        <ele>52.69</ele>
        <time>2023-06-10T18:13:33.619Z</time>
      </trkpt>
      <trkpt lat="55.1983499340713" lon="12.04286995343864">
        <ele>52.5</ele>
        <time>2023-06-10T18:13:39.198Z</time>
      </trkpt>
      <trkpt lat="55.19827692769468" lon="12.042894344776869">
        <ele>52.37</ele>
        <time>2023-06-10T18:13:44.778Z</time>
      </trkpt>
      <trkpt lat="55.198199981823564" lon="12.042919993400574">
        <ele>52.26</ele>
        <time>2023-06-10T18:13:50.359Z</time>
      </trkpt>
      <trkpt lat="55.19803997129202" lon="12.042899960651994">
        <ele>52.04</ele>
        <time>2023-06-10T18:13:55.943Z</time>
      </trkpt>
      <trkpt lat="55.19796880893409" lon="12.04285771586001">
        <ele>51.94</ele>
        <time>2023-06-10T18:14:01.528Z</time>
      </trkpt>
      <trkpt lat="55.19788364879787" lon="12.042807089164853">
        <ele>51.78</ele>
        <time>2023-06-10T18:14:07.114Z</time>
      </trkpt>
      <trkpt lat="55.197799326851964" lon="12.042756965383887">
        <ele>51.56</ele>
        <time>2023-06-10T18:14:12.702Z</time>
      </trkpt>
      <trkpt lat="55.19771416671574" lon="12.042706338688731">
        <ele>51.28</ele>
        <time>2023-06-10T18:14:18.291Z</time>
      </trkpt>
      <trkpt lat="55.1975021045655" lon="12.042580358684063">
        <ele>50.46</ele>
        <time>2023-06-10T18:14:23.884Z</time>
      </trkpt>
      <trkpt lat="55.19737436436117" lon="12.042504418641329">
        <ele>50.02</ele>
        <time>2023-06-10T18:14:29.479Z</time>
      </trkpt>
      <trkpt lat="55.19734997302294" lon="12.042489917948842">
        <ele>49.95</ele>
        <time>2023-06-10T18:14:35.074Z</time>
      </trkpt>
      <trkpt lat="55.19715207628906" lon="12.042471142485738">
        <ele>49.42</ele>
        <time>2023-06-10T18:14:40.672Z</time>
      </trkpt>
      <trkpt lat="55.19713992252946" lon="12.042469969019294">
        <ele>49.38</ele>
        <time>2023-06-10T18:14:46.271Z</time>
      </trkpt>
      <trkpt lat="55.19694998860359" lon="12.042469969019294">
        <ele>48.83</ele>
        <time>2023-06-10T18:14:51.873Z</time>
      </trkpt>
      <trkpt lat="55.19684127531946" lon="12.04251523129642">
        <ele>48.51</ele>
        <time>2023-06-10T18:14:57.476Z</time>
      </trkpt>
      <trkpt lat="55.19670993089676" lon="12.04256996512413">
        <ele>48.17</ele>
        <time>2023-06-10T18:15:03.082Z</time>
      </trkpt>
      <trkpt lat="55.19670993089676" lon="12.04256996512413">
        <ele>48.17</ele>
        <time>2023-06-10T18:15:08.688Z</time>
      </trkpt>
      <trkpt lat="55.19647993147373" lon="12.042749924585223">
        <ele>47.58</ele>
        <time>2023-06-10T18:15:14.298Z</time>
      </trkpt>
      <trkpt lat="55.19642662256956" lon="12.042805077508092">
        <ele>47.44</ele>
        <time>2023-06-10T18:15:19.909Z</time>
      </trkpt>
      <trkpt lat="55.196078857406974" lon="12.043164409697056">
        <ele>46.61</ele>
        <time>2023-06-10T18:15:25.526Z</time>
      </trkpt>
      <trkpt lat="55.19600132480264" lon="12.043244456872344">
        <ele>46.44</ele>
        <time>2023-06-10T18:15:31.145Z</time>
      </trkpt>
      <trkpt lat="55.195962600409985" lon="12.043284438550472">
        <ele>46.38</ele>
        <time>2023-06-10T18:15:36.764Z</time>
      </trkpt>
      <trkpt lat="55.195885905995965" lon="12.043363647535443">
        <ele>46.32</ele>
        <time>2023-06-10T18:15:42.385Z</time>
      </trkpt>
      <trkpt lat="55.19580845721066" lon="12.043443694710732">
        <ele>46.36</ele>
        <time>2023-06-10T18:15:48.007Z</time>
      </trkpt>
      <trkpt lat="55.19576973281801" lon="12.043483760207891">
        <ele>46.42</ele>
        <time>2023-06-10T18:15:53.630Z</time>
      </trkpt>
      <trkpt lat="55.195731008425355" lon="12.04352374188602">
        <ele>46.5</ele>
        <time>2023-06-10T18:15:59.254Z</time>
      </trkpt>
      <trkpt lat="55.1956922840327" lon="12.04356380738318">
        <ele>46.61</ele>
        <time>2023-06-10T18:16:04.878Z</time>
      </trkpt>
      <trkpt lat="55.19565355964005" lon="12.043603789061308">
        <ele>46.74</ele>
        <time>2023-06-10T18:16:10.503Z</time>
      </trkpt>
      <trkpt lat="55.195499416440725" lon="12.043763045221567">
        <ele>47.32</ele>
        <time>2023-06-10T18:16:16.131Z</time>
      </trkpt>
      <trkpt lat="55.19546069204807" lon="12.043803110718727">
        <ele>47.43</ele>
        <time>2023-06-10T18:16:21.760Z</time>
      </trkpt>
      <trkpt lat="55.19542196765542" lon="12.043843092396855">
        <ele>47.51</ele>
        <time>2023-06-10T18:16:27.389Z</time>
      </trkpt>
      <trkpt lat="55.195383159443736" lon="12.043883074074984">
        <ele>47.56</ele>
        <time>2023-06-10T18:16:33.019Z</time>
      </trkpt>
      <trkpt lat="55.19530654884875" lon="12.043962366878986">
        <ele>47.58</ele>
        <time>2023-06-10T18:16:38.651Z</time>
      </trkpt>
      <trkpt lat="55.19519029185176" lon="12.044082395732403">
        <ele>47.52</ele>
        <time>2023-06-10T18:16:44.285Z</time>
      </trkpt>
      <trkpt lat="55.1950741186738" lon="12.04420242458582">
        <ele>47.43</ele>
        <time>2023-06-10T18:16:49.921Z</time>
      </trkpt>
      <trkpt lat="55.194764994084835" lon="12.044521775096655">
        <ele>47.04</ele>
        <time>2023-06-10T18:16:55.563Z</time>
      </trkpt>
      <trkpt lat="55.194688299670815" lon="12.044601067900658">
        <ele>46.96</ele>
        <time>2023-06-10T18:17:01.206Z</time>
      </trkpt>
      <trkpt lat="55.19461085088551" lon="12.044681031256914">
        <ele>46.9</ele>
        <time>2023-06-10T18:17:06.850Z</time>
      </trkpt>
      <trkpt lat="55.19437925890088" lon="12.044920334592462">
        <ele>46.77</ele>
        <time>2023-06-10T18:17:12.499Z</time>
      </trkpt>
      <trkpt lat="55.19426308572292" lon="12.04504044726491">
        <ele>46.66</ele>
        <time>2023-06-10T18:17:18.150Z</time>
      </trkpt>
      <trkpt lat="55.19403140991926" lon="12.045279750600457">
        <ele>46.39</ele>
        <time>2023-06-10T18:17:23.805Z</time>
      </trkpt>
      <trkpt lat="55.193837787956" lon="12.045479826629162">
        <ele>46.25</ele>
        <time>2023-06-10T18:17:29.464Z</time>
      </trkpt>
      <trkpt lat="55.19364492036402" lon="12.045679148286581">
        <ele>46.05</ele>
        <time>2023-06-10T18:17:35.126Z</time>
      </trkpt>
      <trkpt lat="55.19352950155735" lon="12.04579833894968">
        <ele>45.99</ele>
        <time>2023-06-10T18:17:40.791Z</time>
      </trkpt>
      <trkpt lat="55.19330092705786" lon="12.046034457162023">
        <ele>45.81</ele>
        <time>2023-06-10T18:17:46.460Z</time>
      </trkpt>
      <trkpt lat="55.19318710081279" lon="12.046152139082551">
        <ele>45.67</ele>
        <time>2023-06-10T18:17:52.131Z</time>
      </trkpt>
      <trkpt lat="55.19311116077006" lon="12.046230593696237">
        <ele>45.55</ele>
        <time>2023-06-10T18:17:57.803Z</time>
      </trkpt>
      <trkpt lat="55.19307319074869" lon="12.046269737184048">
        <ele>45.47</ele>
        <time>2023-06-10T18:18:03.476Z</time>
      </trkpt>
      <trkpt lat="55.19299649633467" lon="12.04634902998805">
        <ele>45.27</ele>
        <time>2023-06-10T18:18:09.151Z</time>
      </trkpt>
      <trkpt lat="55.19269206561148" lon="12.046663518995047">
        <ele>44.34</ele>
        <time>2023-06-10T18:18:14.831Z</time>
      </trkpt>
      <trkpt lat="55.192540269345045" lon="12.046820428222418">
        <ele>43.94</ele>
        <time>2023-06-10T18:18:20.514Z</time>
      </trkpt>
      <trkpt lat="55.19246432930231" lon="12.046898882836103">
        <ele>43.77</ele>
        <time>2023-06-10T18:18:26.198Z</time>
      </trkpt>
      <trkpt lat="55.19238838925958" lon="12.046977253630757">
        <ele>43.63</ele>
        <time>2023-06-10T18:18:31.884Z</time>
      </trkpt>
      <trkpt lat="55.19231169484556" lon="12.04705654643476">
        <ele>43.51</ele>
        <time>2023-06-10T18:18:37.571Z</time>
      </trkpt>
      <trkpt lat="55.19215989857912" lon="12.0472133718431">
        <ele>43.31</ele>
        <time>2023-06-10T18:18:43.261Z</time>
      </trkpt>
      <trkpt lat="55.19204598851502" lon="12.047331053763628">
        <ele>43.11</ele>
        <time>2023-06-10T18:18:48.953Z</time>
      </trkpt>
      <trkpt lat="55.19195999018848" lon="12.047419985756278">
        <ele>42.8</ele>
        <time>2023-06-10T18:18:54.647Z</time>
      </trkpt>
      <trkpt lat="55.19200491718948" lon="12.04762240871787">
        <ele>42.42</ele>
        <time>2023-06-10T18:19:00.343Z</time>
      </trkpt>
      <trkpt lat="55.192019920796156" lon="12.047689966857433">
        <ele>42.3</ele>
        <time>2023-06-10T18:19:06.040Z</time>
      </trkpt>
      <trkpt lat="55.19204615615308" lon="12.047761548310518">
        <ele>42.17</ele>
        <time>2023-06-10T18:19:11.737Z</time>
      </trkpt>
      <trkpt lat="55.192094184458256" lon="12.047892892733216">
        <ele>41.94</ele>
        <time>2023-06-10T18:19:17.436Z</time>
      </trkpt>
      <trkpt lat="55.19219124689698" lon="12.048158179968596">
        <ele>41.52</ele>
        <time>2023-06-10T18:19:23.138Z</time>
      </trkpt>
      <trkpt lat="55.19226349890232" lon="12.048355909064412">
        <ele>41.15</ele>
        <time>2023-06-10T18:19:28.842Z</time>
      </trkpt>
      <trkpt lat="55.192312030121684" lon="12.048488510772586">
        <ele>40.86</ele>
        <time>2023-06-10T18:19:34.547Z</time>
      </trkpt>
      <trkpt lat="55.19245712086558" lon="12.048885142430663">
        <ele>39.91</ele>
        <time>2023-06-10T18:19:40.257Z</time>
      </trkpt>
      <trkpt lat="55.19250565208495" lon="12.049017827957869">
        <ele>39.63</ele>
        <time>2023-06-10T18:19:45.968Z</time>
      </trkpt>
      <trkpt lat="55.192577904090285" lon="12.049215473234653">
        <ele>39.25</ele>
        <time>2023-06-10T18:19:51.681Z</time>
      </trkpt>
      <trkpt lat="55.19269877113402" lon="12.049545720219612">
        <ele>38.48</ele>
        <time>2023-06-10T18:19:57.398Z</time>
      </trkpt>
      <trkpt lat="55.19274730235338" lon="12.049678405746818">
        <ele>38.25</ele>
        <time>2023-06-10T18:20:03.116Z</time>
      </trkpt>
      <trkpt lat="55.19277152605355" lon="12.049744706600904">
        <ele>38.17</ele>
        <time>2023-06-10T18:20:08.835Z</time>
      </trkpt>
      <trkpt lat="55.192795833572745" lon="12.049811091274023">
        <ele>38.11</ele>
        <time>2023-06-10T18:20:14.555Z</time>
      </trkpt>
      <trkpt lat="55.19284386187792" lon="12.04994235187769">
        <ele>38.03</ele>
        <time>2023-06-10T18:20:20.276Z</time>
      </trkpt>
      <trkpt lat="55.19291368313134" lon="12.050133375450969">
        <ele>37.72</ele>
        <time>2023-06-10T18:20:25.999Z</time>
      </trkpt>
      <trkpt lat="55.19300730898976" lon="12.05038944259286">
        <ele>37.33</ele>
        <time>2023-06-10T18:20:31.725Z</time>
      </trkpt>
      <trkpt lat="55.1930539123714" lon="12.050516763702035">
        <ele>37.11</ele>
        <time>2023-06-10T18:20:37.452Z</time>
      </trkpt>
      <trkpt lat="55.193109987303615" lon="12.05066998489201">
        <ele>36.48</ele>
        <time>2023-06-10T18:20:43.181Z</time>
      </trkpt>
      <trkpt lat="55.19308743998408" lon="12.0507051050663">
        <ele>36.3</ele>
        <time>2023-06-10T18:20:48.910Z</time>
      </trkpt>
      <trkpt lat="55.193053828552365" lon="12.05075740814209">
        <ele>36.05</ele>
        <time>2023-06-10T18:20:54.640Z</time>
      </trkpt>
      <trkpt lat="55.192987360060215" lon="12.050861176103354">
        <ele>35.63</ele>
        <time>2023-06-10T18:21:00.372Z</time>
      </trkpt>
      <trkpt lat="55.1929537486285" lon="12.050913562998176">
        <ele>35.47</ele>
        <time>2023-06-10T18:21:06.104Z</time>
      </trkpt>
      <trkpt lat="55.19292022101581" lon="12.050965866073966">
        <ele>35.35</ele>
        <time>2023-06-10T18:21:11.837Z</time>
      </trkpt>
      <trkpt lat="55.19288660958409" lon="12.051018252968788">
        <ele>35.25</ele>
        <time>2023-06-10T18:21:17.571Z</time>
      </trkpt>
      <trkpt lat="55.19282005727291" lon="12.05112193711102">
        <ele>35.14</ele>
        <time>2023-06-10T18:21:23.306Z</time>
      </trkpt>
      <trkpt lat="55.19265283830464" lon="12.051382781937718">
        <ele>34.96</ele>
        <time>2023-06-10T18:21:29.045Z</time>
      </trkpt>
      <trkpt lat="55.1925184763968" lon="12.051592329517007">
        <ele>34.76</ele>
        <time>2023-06-10T18:21:34.787Z</time>
      </trkpt>
      <trkpt lat="55.19231764599681" lon="12.051905561238527">
        <ele>34.32</ele>
        <time>2023-06-10T18:21:40.533Z</time>
      </trkpt>
      <trkpt lat="55.19225109368563" lon="12.05200924538076">
        <ele>34.11</ele>
        <time>2023-06-10T18:21:46.280Z</time>
      </trkpt>
      <trkpt lat="55.19218395464122" lon="12.052113935351372">
        <ele>33.81</ele>
        <time>2023-06-10T18:21:52.029Z</time>
      </trkpt>
      <trkpt lat="55.19211748614907" lon="12.052217703312635">
        <ele>33.44</ele>
        <time>2023-06-10T18:21:57.779Z</time>
      </trkpt>
      <trkpt lat="55.19198312424123" lon="12.052427167072892">
        <ele>32.6</ele>
        <time>2023-06-10T18:22:03.532Z</time>
      </trkpt>
      <trkpt lat="55.19191657193005" lon="12.052530851215124">
        <ele>32.23</ele>
        <time>2023-06-10T18:22:09.287Z</time>
      </trkpt>
      <trkpt lat="55.19174935296178" lon="12.052791696041822">
        <ele>31.42</ele>
        <time>2023-06-10T18:22:15.045Z</time>
      </trkpt>
      <trkpt lat="55.19164860248566" lon="12.052948856726289">
        <ele>30.91</ele>
        <time>2023-06-10T18:22:20.805Z</time>
      </trkpt>
      <trkpt lat="55.1914148312062" lon="12.053313385695219">
        <ele>29.51</ele>
        <time>2023-06-10T18:22:26.570Z</time>
      </trkpt>
      <trkpt lat="55.19134827889502" lon="12.053417069837451">
        <ele>29.14</ele>
        <time>2023-06-10T18:22:32.337Z</time>
      </trkpt>
      <trkpt lat="55.19128046929836" lon="12.053522849455476">
        <ele>28.81</ele>
        <time>2023-06-10T18:22:38.105Z</time>
      </trkpt>
      <trkpt lat="55.19111316651106" lon="12.053783694282174">
        <ele>28.06</ele>
        <time>2023-06-10T18:22:43.877Z</time>
      </trkpt>
      <trkpt lat="55.191089948639274" lon="12.053819987922907">
        <ele>27.94</ele>
        <time>2023-06-10T18:22:49.649Z</time>
      </trkpt>
      <trkpt lat="55.190940499305725" lon="12.054033391177654">
        <ele>27.25</ele>
        <time>2023-06-10T18:22:55.424Z</time>
      </trkpt>
      <trkpt lat="55.19083664752543" lon="12.05418175086379">
        <ele>26.82</ele>
        <time>2023-06-10T18:23:01.202Z</time>
      </trkpt>
      <trkpt lat="55.190732795745134" lon="12.054330110549927">
        <ele>26.45</ele>
        <time>2023-06-10T18:23:06.982Z</time>
      </trkpt>
      <trkpt lat="55.1904599647969" lon="12.054719952866435">
        <ele>25.61</ele>
        <time>2023-06-10T18:23:12.767Z</time>
      </trkpt>
      <trkpt lat="55.19045510329306" lon="12.054728167131543">
        <ele>25.61</ele>
        <time>2023-06-10T18:23:18.552Z</time>
      </trkpt>
      <trkpt lat="55.19022971391678" lon="12.055110717192292">
        <ele>24.82</ele>
        <time>2023-06-10T18:23:24.343Z</time>
      </trkpt>
      <trkpt lat="55.19016575999558" lon="12.055219179019332">
        <ele>24.65</ele>
        <time>2023-06-10T18:23:30.135Z</time>
      </trkpt>
      <trkpt lat="55.19012996926904" lon="12.055279947817326">
        <ele>24.58</ele>
        <time>2023-06-10T18:23:35.928Z</time>
      </trkpt>
      <trkpt lat="55.19000994041562" lon="12.055409951135516">
        <ele>24.41</ele>
        <time>2023-06-10T18:23:41.723Z</time>
      </trkpt>
      <trkpt lat="55.18997800536454" lon="12.055424703285098">
        <ele>24.37</ele>
        <time>2023-06-10T18:23:47.519Z</time>
      </trkpt>
      <trkpt lat="55.18989108502865" lon="12.05546485260129">
        <ele>24.2</ele>
        <time>2023-06-10T18:23:53.316Z</time>
      </trkpt>
      <trkpt lat="55.18987993709743" lon="12.055469965562224">
        <ele>24.17</ele>
        <time>2023-06-10T18:23:59.113Z</time>
      </trkpt>
      <trkpt lat="55.18984674476087" lon="12.055476754903793">
        <ele>24.09</ele>
        <time>2023-06-10T18:24:04.911Z</time>
      </trkpt>
      <trkpt lat="55.18980206921697" lon="12.055485807359219">
        <ele>23.95</ele>
        <time>2023-06-10T18:24:10.709Z</time>
      </trkpt>
      <trkpt lat="55.1896689645946" lon="12.055512880906463">
        <ele>23.49</ele>
        <time>2023-06-10T18:24:16.510Z</time>
      </trkpt>
      <trkpt lat="55.189579613506794" lon="12.055530985817313">
        <ele>23.23</ele>
        <time>2023-06-10T18:24:22.312Z</time>
      </trkpt>
      <trkpt lat="55.189401833340526" lon="12.055567111819983">
        <ele>22.78</ele>
        <time>2023-06-10T18:24:28.117Z</time>
      </trkpt>
      <trkpt lat="55.18922405317426" lon="12.055603237822652">
        <ele>22.29</ele>
        <time>2023-06-10T18:24:33.925Z</time>
      </trkpt>
      <trkpt lat="55.189001597464085" lon="12.055648416280746">
        <ele>21.73</ele>
        <time>2023-06-10T18:24:39.736Z</time>
      </trkpt>
      <trkpt lat="55.18891233019531" lon="12.055666605010629">
        <ele>21.49</ele>
        <time>2023-06-10T18:24:45.549Z</time>
      </trkpt>
      <trkpt lat="55.18851209431887" lon="12.055747909471393">
        <ele>20.22</ele>
        <time>2023-06-10T18:24:51.368Z</time>
      </trkpt>
      <trkpt lat="55.188200287520885" lon="12.05581127665937">
        <ele>19.09</ele>
        <time>2023-06-10T18:24:57.192Z</time>
      </trkpt>
      <trkpt lat="55.18797783181071" lon="12.055856538936496">
        <ele>18.4</ele>
        <time>2023-06-10T18:25:03.020Z</time>
      </trkpt>
      <trkpt lat="55.18788940273225" lon="12.055874476209283">
        <ele>18.09</ele>
        <time>2023-06-10T18:25:08.849Z</time>
      </trkpt>
      <trkpt lat="55.187800135463476" lon="12.055892664939165">
        <ele>17.76</ele>
        <time>2023-06-10T18:25:14.680Z</time>
      </trkpt>
      <trkpt lat="55.1875776797533" lon="12.05593784339726">
        <ele>16.84</ele>
        <time>2023-06-10T18:25:20.514Z</time>
      </trkpt>
      <trkpt lat="55.18744457513094" lon="12.055964916944504">
        <ele>16.32</ele>
        <time>2023-06-10T18:25:26.350Z</time>
      </trkpt>
      <trkpt lat="55.18704341724515" lon="12.056046389043331">
        <ele>14.91</ele>
        <time>2023-06-10T18:25:32.193Z</time>
      </trkpt>
      <trkpt lat="55.18695498816669" lon="12.05606441013515">
        <ele>14.62</ele>
        <time>2023-06-10T18:25:38.037Z</time>
      </trkpt>
      <trkpt lat="55.18682104535401" lon="12.056091651320457">
        <ele>14.23</ele>
        <time>2023-06-10T18:25:43.884Z</time>
      </trkpt>
      <trkpt lat="55.18677997402847" lon="12.056099949404597">
        <ele>14.12</ele>
        <time>2023-06-10T18:25:49.731Z</time>
      </trkpt>
      <trkpt lat="55.18673228099942" lon="12.05610305070877">
        <ele>14.0</ele>
        <time>2023-06-10T18:25:55.579Z</time>
      </trkpt>
      <trkpt lat="55.18664242699742" lon="12.05610891804099">
        <ele>13.8</ele>
        <time>2023-06-10T18:26:01.428Z</time>
      </trkpt>
      <trkpt lat="55.18646355718374" lon="12.0561205688864">
        <ele>13.47</ele>
        <time>2023-06-10T18:26:07.280Z</time>
      </trkpt>
      <trkpt lat="55.186373703181744" lon="12.05612643621862">
        <ele>13.26</ele>
        <time>2023-06-10T18:26:13.134Z</time>
      </trkpt>
      <trkpt lat="55.186319975182414" lon="12.056129956617951">
        <ele>13.14</ele>
        <time>2023-06-10T18:26:18.989Z</time>
      </trkpt>
      <trkpt lat="55.186319975182414" lon="12.056129956617951">
        <ele>13.14</ele>
        <time>2023-06-10T18:26:24.844Z</time>
      </trkpt>
      <trkpt lat="55.18624654971063" lon="12.056186450645328">
        <ele>12.86</ele>
        <time>2023-06-10T18:26:30.700Z</time>
      </trkpt>
      <trkpt lat="55.18618997186422" lon="12.056229952722788">
        <ele>12.63</ele>
        <time>2023-06-10T18:26:36.557Z</time>
      </trkpt>
      <trkpt lat="55.1860495749861" lon="12.056372025981545">
        <ele>12.06</ele>
        <time>2023-06-10T18:26:42.416Z</time>
      </trkpt>
      <trkpt lat="55.185971623286605" lon="12.056450815871358">
        <ele>11.77</ele>
        <time>2023-06-10T18:26:48.277Z</time>
      </trkpt>
      <trkpt lat="55.18558387644589" lon="12.056843172758818">
        <ele>10.61</ele>
        <time>2023-06-10T18:26:54.145Z</time>
      </trkpt>
      <trkpt lat="55.185506008565426" lon="12.05692196264863">
        <ele>10.4</ele>
        <time>2023-06-10T18:27:00.015Z</time>
      </trkpt>
      <trkpt lat="55.18542889505625" lon="12.056999998167157">
        <ele>10.24</ele>
        <time>2023-06-10T18:27:05.886Z</time>
      </trkpt>
      <trkpt lat="55.1853399630636" lon="12.057089935988188">
        <ele>9.91</ele>
        <time>2023-06-10T18:27:11.759Z</time>
      </trkpt>
      <trkpt lat="55.18528673797846" lon="12.057185741141438">
        <ele>9.68</ele>
        <time>2023-06-10T18:27:17.633Z</time>
      </trkpt>
      <trkpt lat="55.18518992699683" lon="12.057359917089343">
        <ele>9.28</ele>
        <time>2023-06-10T18:27:23.509Z</time>
      </trkpt>
      <trkpt lat="55.18512513488531" lon="12.057559322565794">
        <ele>8.91</ele>
        <time>2023-06-10T18:27:29.387Z</time>
      </trkpt>
      <trkpt lat="55.18508062697947" lon="12.057696199044585">
        <ele>8.69</ele>
        <time>2023-06-10T18:27:35.267Z</time>
      </trkpt>
      <trkpt lat="55.18503620289266" lon="12.057833159342408">
        <ele>8.53</ele>
        <time>2023-06-10T18:27:41.148Z</time>
      </trkpt>
      <trkpt lat="55.18499211408198" lon="12.05796861089766">
        <ele>8.43</ele>
        <time>2023-06-10T18:27:47.030Z</time>
      </trkpt>
      <trkpt lat="55.184969902038574" lon="12.058037091046572">
        <ele>8.41</ele>
        <time>2023-06-10T18:27:52.913Z</time>
      </trkpt>
      <trkpt lat="55.184929920360446" lon="12.058159969747066">
        <ele>8.41</ele>
        <time>2023-06-10T18:27:58.797Z</time>
      </trkpt>
      <trkpt lat="55.1849271543324" lon="12.05817530862987">
        <ele>8.42</ele>
        <time>2023-06-10T18:28:04.682Z</time>
      </trkpt>
      <trkpt lat="55.18488993868232" lon="12.05837999470532">
        <ele>8.45</ele>
        <time>2023-06-10T18:28:10.569Z</time>
      </trkpt>
      <trkpt lat="55.18487837165594" lon="12.05855785869062">
        <ele>8.49</ele>
        <time>2023-06-10T18:28:16.457Z</time>
      </trkpt>
      <trkpt lat="55.1848682295531" lon="12.05871275626123">
        <ele>8.45</ele>
        <time>2023-06-10T18:28:22.347Z</time>
      </trkpt>
      <trkpt lat="55.18486303277314" lon="12.058792635798454">
        <ele>8.41</ele>
        <time>2023-06-10T18:28:28.237Z</time>
      </trkpt>
      <trkpt lat="55.184859931468964" lon="12.058839993551373">
        <ele>8.36</ele>
        <time>2023-06-10T18:28:34.128Z</time>
      </trkpt>
      <trkpt lat="55.184839982539415" lon="12.05893998965621">
        <ele>8.26</ele>
        <time>2023-06-10T18:28:40.020Z</time>
      </trkpt>
      <trkpt lat="55.18483838997781" lon="12.058942755684257">
        <ele>8.26</ele>
        <time>2023-06-10T18:28:45.912Z</time>
      </trkpt>
      <trkpt lat="55.18478994257748" lon="12.05902992747724">
        <ele>8.09</ele>
        <time>2023-06-10T18:28:51.805Z</time>
      </trkpt>
      <trkpt lat="55.184680642560124" lon="12.05904166214168">
        <ele>7.83</ele>
        <time>2023-06-10T18:28:57.700Z</time>
      </trkpt>
      <trkpt lat="55.18459087237716" lon="12.059051301330328">
        <ele>7.66</ele>
        <time>2023-06-10T18:29:03.596Z</time>
      </trkpt>
      <trkpt lat="55.18450998701155" lon="12.059059934690595">
        <ele>7.54</ele>
        <time>2023-06-10T18:29:09.493Z</time>
      </trkpt>
      <trkpt lat="55.18437998369336" lon="12.059139981865883">
        <ele>7.35</ele>
        <time>2023-06-10T18:29:15.393Z</time>
      </trkpt>
      <trkpt lat="55.1842899620533" lon="12.059269985184073">
        <ele>7.19</ele>
        <time>2023-06-10T18:29:21.295Z</time>
      </trkpt>
      <trkpt lat="55.184244364500046" lon="12.059361096471548">
        <ele>7.1</ele>
        <time>2023-06-10T18:29:27.198Z</time>
      </trkpt>
      <trkpt lat="55.184185188263655" lon="12.059479616582394">
        <ele>7.0</ele>
        <time>2023-06-10T18:29:33.102Z</time>
      </trkpt>
      <trkpt lat="55.18413992598653" lon="12.059569973498583">
        <ele>6.95</ele>
        <time>2023-06-10T18:29:39.007Z</time>
      </trkpt>
      <trkpt lat="55.184129029512405" lon="12.059600232169032">
        <ele>6.94</ele>
        <time>2023-06-10T18:29:44.913Z</time>
      </trkpt>
      <trkpt lat="55.1840809173882" lon="12.059733336791396">
        <ele>6.93</ele>
        <time>2023-06-10T18:29:50.820Z</time>
      </trkpt>
      <trkpt lat="55.18400992266834" lon="12.0599299762398">
        <ele>6.95</ele>
        <time>2023-06-10T18:29:56.729Z</time>
      </trkpt>
      <trkpt lat="55.18400916829705" lon="12.059933329001069">
        <ele>6.95</ele>
        <time>2023-06-10T18:30:02.638Z</time>
      </trkpt>
      <trkpt lat="55.18392300233245" lon="12.060297019779682">
        <ele>7.03</ele>
        <time>2023-06-10T18:30:08.551Z</time>
      </trkpt>
      <trkpt lat="55.18387136980891" lon="12.060515284538269">
        <ele>7.0</ele>
        <time>2023-06-10T18:30:14.466Z</time>
      </trkpt>
      <trkpt lat="55.183836836367846" lon="12.060660794377327">
        <ele>6.91</ele>
        <time>2023-06-10T18:30:20.382Z</time>
      </trkpt>
      <trkpt lat="55.183829963207245" lon="12.060689963400364">
        <ele>6.88</ele>
        <time>2023-06-10T18:30:26.299Z</time>
      </trkpt>
      <trkpt lat="55.18376994878054" lon="12.060849973931909">
        <ele>6.7</ele>
        <time>2023-06-10T18:30:32.217Z</time>
      </trkpt>
      <trkpt lat="55.18369543366134" lon="12.060957597568631">
        <ele>6.55</ele>
        <time>2023-06-10T18:30:38.137Z</time>
      </trkpt>
      <trkpt lat="55.183679927140474" lon="12.0609799772501">
        <ele>6.52</ele>
        <time>2023-06-10T18:30:44.057Z</time>
      </trkpt>
      <trkpt lat="55.18361672759056" lon="12.061031945049763">
        <ele>6.45</ele>
        <time>2023-06-10T18:30:49.978Z</time>
      </trkpt>
      <trkpt lat="55.183535339310765" lon="12.061098916456103">
        <ele>6.42</ele>
        <time>2023-06-10T18:30:55.901Z</time>
      </trkpt>
      <trkpt lat="55.18345386721194" lon="12.061165887862444">
        <ele>6.43</ele>
        <time>2023-06-10T18:31:01.825Z</time>
      </trkpt>
      <trkpt lat="55.183059917762876" lon="12.061489932239056">
        <ele>6.55</ele>
        <time>2023-06-10T18:31:07.756Z</time>
      </trkpt>
      <trkpt lat="55.18298137933016" lon="12.06160786561668">
        <ele>6.59</ele>
        <time>2023-06-10T18:31:13.689Z</time>
      </trkpt>
      <trkpt lat="55.18289999105036" lon="12.061729989945889">
        <ele>6.44</ele>
        <time>2023-06-10T18:31:19.624Z</time>
      </trkpt>
      <trkpt lat="55.18286311067641" lon="12.061824705451727">
        <ele>6.36</ele>
        <time>2023-06-10T18:31:25.560Z</time>
      </trkpt>
      <trkpt lat="55.182790188118815" lon="12.062012208625674">
        <ele>6.22</ele>
        <time>2023-06-10T18:31:31.498Z</time>
      </trkpt>
      <trkpt lat="55.182759929448366" lon="12.062089992687106">
        <ele>6.18</ele>
        <time>2023-06-10T18:31:37.437Z</time>
      </trkpt>
      <trkpt lat="55.18274676986039" lon="12.0621438883245">
        <ele>6.16</ele>
        <time>2023-06-10T18:31:43.376Z</time>
      </trkpt>
      <trkpt lat="55.18269572407007" lon="12.062352346256375">
        <ele>6.12</ele>
        <time>2023-06-10T18:31:49.317Z</time>
      </trkpt>
      <trkpt lat="55.182661693543196" lon="12.06249131821096">
        <ele>6.13</ele>
        <time>2023-06-10T18:31:55.260Z</time>
      </trkpt>
      <trkpt lat="55.18263998441398" lon="12.062579998746514">
        <ele>6.16</ele>
        <time>2023-06-10T18:32:01.204Z</time>
      </trkpt>
      <trkpt lat="55.182631351053715" lon="12.062634229660034">
        <ele>6.18</ele>
        <time>2023-06-10T18:32:07.148Z</time>
      </trkpt>
      <trkpt lat="55.18257996998727" lon="12.06295995041728">
        <ele>6.37</ele>
        <time>2023-06-10T18:32:13.095Z</time>
      </trkpt>
      <trkpt lat="55.18254845403135" lon="12.063061706721783">
        <ele>6.44</ele>
        <time>2023-06-10T18:32:19.043Z</time>
      </trkpt>
      <trkpt lat="55.18244996666908" lon="12.063379967585206">
        <ele>5.45</ele>
        <time>2023-06-10T18:32:24.995Z</time>
      </trkpt>
      <trkpt lat="55.182429598644376" lon="12.06347786821425">
        <ele>5.17</ele>
        <time>2023-06-10T18:32:30.947Z</time>
      </trkpt>
      <trkpt lat="55.18241451121867" lon="12.063550371676683">
        <ele>5.0</ele>
        <time>2023-06-10T18:32:36.900Z</time>
      </trkpt>
      <trkpt lat="55.18239917233586" lon="12.063624383881688">
        <ele>4.86</ele>
        <time>2023-06-10T18:32:42.854Z</time>
      </trkpt>
      <trkpt lat="55.182384084910154" lon="12.063696887344122">
        <ele>4.76</ele>
        <time>2023-06-10T18:32:48.809Z</time>
      </trkpt>
      <trkpt lat="55.18236874602735" lon="12.063770899549127">
        <ele>4.7</ele>
        <time>2023-06-10T18:32:54.764Z</time>
      </trkpt>
      <trkpt lat="55.18235365860164" lon="12.06384340301156">
        <ele>4.67</ele>
        <time>2023-06-10T18:33:00.720Z</time>
      </trkpt>
      <trkpt lat="55.18233857117593" lon="12.063915990293026">
        <ele>4.68</ele>
        <time>2023-06-10T18:33:06.677Z</time>
      </trkpt>
      <trkpt lat="55.18227771855891" lon="12.064209021627903">
        <ele>4.81</ele>
        <time>2023-06-10T18:33:12.637Z</time>
      </trkpt>
      <trkpt lat="55.1822626311332" lon="12.064281525090337">
        <ele>4.83</ele>
        <time>2023-06-10T18:33:18.597Z</time>
      </trkpt>
      <trkpt lat="55.18224720843136" lon="12.064355537295341">
        <ele>4.82</ele>
        <time>2023-06-10T18:33:24.558Z</time>
      </trkpt>
      <trkpt lat="55.18221678212285" lon="12.06450205296278">
        <ele>4.76</ele>
        <time>2023-06-10T18:33:30.520Z</time>
      </trkpt>
      <trkpt lat="55.18215618096292" lon="12.064793659374118">
        <ele>4.57</ele>
        <time>2023-06-10T18:33:36.485Z</time>
      </trkpt>
      <trkpt lat="55.18212994560599" lon="12.064919974654913">
        <ele>4.5</ele>
        <time>2023-06-10T18:33:42.452Z</time>
      </trkpt>
      <trkpt lat="55.18212248571217" lon="12.064937073737383">
        <ele>4.5</ele>
        <time>2023-06-10T18:33:48.419Z</time>
      </trkpt>
      <trkpt lat="55.18201444298029" lon="12.065185010433197">
        <ele>4.44</ele>
        <time>2023-06-10T18:33:54.389Z</time>
      </trkpt>
      <trkpt lat="55.181959960609674" lon="12.065309984609485">
        <ele>4.44</ele>
        <time>2023-06-10T18:34:00.360Z</time>
      </trkpt>
      <trkpt lat="55.181927774101496" lon="12.065360695123672">
        <ele>4.45</ele>
        <time>2023-06-10T18:34:06.332Z</time>
      </trkpt>
      <trkpt lat="55.18182878382504" lon="12.065516598522663">
        <ele>4.51</ele>
        <time>2023-06-10T18:34:12.306Z</time>
      </trkpt>
      <trkpt lat="55.181729877367616" lon="12.065672501921654">
        <ele>4.61</ele>
        <time>2023-06-10T18:34:18.282Z</time>
      </trkpt>
      <trkpt lat="55.18149845302105" lon="12.06603686325252">
        <ele>4.91</ele>
        <time>2023-06-10T18:34:24.263Z</time>
      </trkpt>
      <trkpt lat="55.181399546563625" lon="12.066192766651511">
        <ele>4.98</ele>
        <time>2023-06-10T18:34:30.246Z</time>
      </trkpt>
      <trkpt lat="55.18133332952857" lon="12.066297037526965">
        <ele>4.99</ele>
        <time>2023-06-10T18:34:36.231Z</time>
      </trkpt>
      <trkpt lat="55.181267112493515" lon="12.066401308402419">
        <ele>4.97</ele>
        <time>2023-06-10T18:34:42.217Z</time>
      </trkpt>
      <trkpt lat="55.181069215759635" lon="12.0667131152004">
        <ele>4.85</ele>
        <time>2023-06-10T18:34:48.207Z</time>
      </trkpt>
      <trkpt lat="55.18100299872458" lon="12.066817386075854">
        <ele>4.85</ele>
        <time>2023-06-10T18:34:54.199Z</time>
      </trkpt>
      <trkpt lat="55.1808706484735" lon="12.067025927826762">
        <ele>5.01</ele>
        <time>2023-06-10T18:35:00.194Z</time>
      </trkpt>
      <trkpt lat="55.180738884955645" lon="12.06723346374929">
        <ele>5.26</ele>
        <time>2023-06-10T18:35:06.191Z</time>
      </trkpt>
      <trkpt lat="55.18067275173962" lon="12.067337734624743">
        <ele>5.41</ele>
        <time>2023-06-10T18:35:12.190Z</time>
      </trkpt>
      <trkpt lat="55.18054031766951" lon="12.067546276375651">
        <ele>5.75</ele>
        <time>2023-06-10T18:35:18.192Z</time>
      </trkpt>
      <trkpt lat="55.18047477118671" lon="12.067649457603693">
        <ele>5.9</ele>
        <time>2023-06-10T18:35:24.195Z</time>
      </trkpt>
      <trkpt lat="55.18037519417703" lon="12.067806450650096">
        <ele>6.02</ele>
        <time>2023-06-10T18:35:30.200Z</time>
      </trkpt>
      <trkpt lat="55.18027553334832" lon="12.067963359877467">
        <ele>5.94</ele>
        <time>2023-06-10T18:35:36.207Z</time>
      </trkpt>
      <trkpt lat="55.18010839819908" lon="12.068226719275117">
        <ele>5.76</ele>
        <time>2023-06-10T18:35:42.218Z</time>
      </trkpt>
      <trkpt lat="55.18004151061177" lon="12.068331995978951">
        <ele>5.73</ele>
        <time>2023-06-10T18:35:48.230Z</time>
      </trkpt>
      <trkpt lat="55.179941933602095" lon="12.068488989025354">
        <ele>5.75</ele>
        <time>2023-06-10T18:35:54.245Z</time>
      </trkpt>
      <trkpt lat="55.17980748787522" lon="12.068700715899467">
        <ele>5.84</ele>
        <time>2023-06-10T18:36:00.263Z</time>
      </trkpt>
      <trkpt lat="55.179740684106946" lon="12.068805992603302">
        <ele>5.94</ele>
        <time>2023-06-10T18:36:06.282Z</time>
      </trkpt>
      <trkpt lat="55.17970724031329" lon="12.068858714774251">
        <ele>6.01</ele>
        <time>2023-06-10T18:36:12.302Z</time>
      </trkpt>
      <trkpt lat="55.17964035272598" lon="12.068963991478086">
        <ele>6.21</ele>
        <time>2023-06-10T18:36:18.323Z</time>
      </trkpt>
      <trkpt lat="55.17954002134502" lon="12.069121990352869">
        <ele>6.56</ele>
        <time>2023-06-10T18:36:24.346Z</time>
      </trkpt>
      <trkpt lat="55.17947321757674" lon="12.069227350875735">
        <ele>6.72</ele>
        <time>2023-06-10T18:36:30.371Z</time>
      </trkpt>
      <trkpt lat="55.17943977378309" lon="12.069279989227653">
        <ele>6.75</ele>
        <time>2023-06-10T18:36:36.396Z</time>
      </trkpt>
      <trkpt lat="55.17940632998943" lon="12.06933262757957">
        <ele>6.75</ele>
        <time>2023-06-10T18:36:42.422Z</time>
      </trkpt>
      <trkpt lat="55.17936995252967" lon="12.069389959797263">
        <ele>6.7</ele>
        <time>2023-06-10T18:36:48.449Z</time>
      </trkpt>
      <trkpt lat="55.17932946793735" lon="12.069495236501098">
        <ele>6.65</ele>
        <time>2023-06-10T18:36:54.477Z</time>
      </trkpt>
      <trkpt lat="55.179319996386766" lon="12.069519963115454">
        <ele>6.63</ele>
        <time>2023-06-10T18:37:00.505Z</time>
      </trkpt>
      <trkpt lat="55.17928998917341" lon="12.069659940898418">
        <ele>6.57</ele>
        <time>2023-06-10T18:37:06.535Z</time>
      </trkpt>
      <trkpt lat="55.17928990535438" lon="12.069660192355514">
        <ele>6.57</ele>
        <time>2023-06-10T18:37:12.565Z</time>
      </trkpt>
      <trkpt lat="55.17927372828126" lon="12.069815089926124">
        <ele>6.53</ele>
        <time>2023-06-10T18:37:18.596Z</time>
      </trkpt>
      <trkpt lat="55.179265681654215" lon="12.069892538711429">
        <ele>6.53</ele>
        <time>2023-06-10T18:37:24.628Z</time>
      </trkpt>
      <trkpt lat="55.17924137413502" lon="12.070124968886375">
        <ele>6.61</ele>
        <time>2023-06-10T18:37:30.662Z</time>
      </trkpt>
      <trkpt lat="55.17921715043485" lon="12.07035731524229">
        <ele>6.74</ele>
        <time>2023-06-10T18:37:36.698Z</time>
      </trkpt>
      <trkpt lat="55.179192842915654" lon="12.070589745417237">
        <ele>6.91</ele>
        <time>2023-06-10T18:37:42.736Z</time>
      </trkpt>
      <trkpt lat="55.17917666584253" lon="12.070744642987847">
        <ele>7.08</ele>
        <time>2023-06-10T18:37:48.776Z</time>
      </trkpt>
      <trkpt lat="55.17916853539646" lon="12.070822091773152">
        <ele>7.19</ele>
        <time>2023-06-10T18:37:54.817Z</time>
      </trkpt>
      <trkpt lat="55.179144479334354" lon="12.071052929386497">
        <ele>7.57</ele>
        <time>2023-06-10T18:38:00.860Z</time>
      </trkpt>
      <trkpt lat="55.17912830226123" lon="12.071207826957107">
        <ele>7.77</ele>
        <time>2023-06-10T18:38:06.904Z</time>
      </trkpt>
      <trkpt lat="55.17911212518811" lon="12.071362808346748">
        <ele>7.89</ele>
        <time>2023-06-10T18:38:12.950Z</time>
      </trkpt>
      <trkpt lat="55.179103994742036" lon="12.071440257132053">
        <ele>7.91</ele>
        <time>2023-06-10T18:38:18.996Z</time>
      </trkpt>
      <trkpt lat="55.17909594811499" lon="12.071517705917358">
        <ele>7.9</ele>
        <time>2023-06-10T18:38:25.043Z</time>
      </trkpt>
      <trkpt lat="55.17907977104187" lon="12.071672603487968">
        <ele>7.84</ele>
        <time>2023-06-10T18:38:31.092Z</time>
      </trkpt>
      <trkpt lat="55.17903928644955" lon="12.072059931233525">
        <ele>7.59</ele>
        <time>2023-06-10T18:38:37.144Z</time>
      </trkpt>
      <trkpt lat="55.17899075523019" lon="12.072524707764387">
        <ele>7.32</ele>
        <time>2023-06-10T18:38:43.200Z</time>
      </trkpt>
      <trkpt lat="55.17895027063787" lon="12.072912035509944">
        <ele>7.17</ele>
        <time>2023-06-10T18:38:49.260Z</time>
      </trkpt>
      <trkpt lat="55.17893409356475" lon="12.073066933080554">
        <ele>7.07</ele>
        <time>2023-06-10T18:38:55.322Z</time>
      </trkpt>
      <trkpt lat="55.178926046937704" lon="12.073144381865859">
        <ele>7.0</ele>
        <time>2023-06-10T18:39:01.384Z</time>
      </trkpt>
      <trkpt lat="55.17890986986458" lon="12.0732993632555">
        <ele>6.82</ele>
        <time>2023-06-10T18:39:07.448Z</time>
      </trkpt>
      <trkpt lat="55.178869385272264" lon="12.073686607182026">
        <ele>6.27</ele>
        <time>2023-06-10T18:39:13.515Z</time>
      </trkpt>
      <trkpt lat="55.17883703112602" lon="12.073996486142278">
        <ele>5.88</ele>
        <time>2023-06-10T18:39:19.585Z</time>
      </trkpt>
      <trkpt lat="55.1788208540529" lon="12.074151383712888">
        <ele>5.66</ele>
        <time>2023-06-10T18:39:25.657Z</time>
      </trkpt>
      <trkpt lat="55.178796546533704" lon="12.074383813887835">
        <ele>5.21</ele>
        <time>2023-06-10T18:39:31.731Z</time>
      </trkpt>
      <trkpt lat="55.17875614576042" lon="12.074771141633391">
        <ele>4.34</ele>
        <time>2023-06-10T18:39:37.808Z</time>
      </trkpt>
      <trkpt lat="55.178739884868264" lon="12.074926039204001">
        <ele>4.05</ele>
        <time>2023-06-10T18:39:43.887Z</time>
      </trkpt>
      <trkpt lat="55.17873200587928" lon="12.075001979246736">
        <ele>3.93</ele>
        <time>2023-06-10T18:39:49.967Z</time>
      </trkpt>
      <trkpt lat="55.17871582880616" lon="12.075156876817346">
        <ele>3.73</ele>
        <time>2023-06-10T18:39:56.048Z</time>
      </trkpt>
      <trkpt lat="55.17869965173304" lon="12.075311774387956">
        <ele>3.59</ele>
        <time>2023-06-10T18:40:02.130Z</time>
      </trkpt>
      <trkpt lat="55.17863494344056" lon="12.07593153230846">
        <ele>3.18</ele>
        <time>2023-06-10T18:40:08.218Z</time>
      </trkpt>
      <trkpt lat="55.178618682548404" lon="12.07608642987907">
        <ele>3.11</ele>
        <time>2023-06-10T18:40:14.308Z</time>
      </trkpt>
      <trkpt lat="55.17860250547528" lon="12.07624132744968">
        <ele>3.1</ele>
        <time>2023-06-10T18:40:20.399Z</time>
      </trkpt>
      <trkpt lat="55.17858632840216" lon="12.07639622502029">
        <ele>3.17</ele>
        <time>2023-06-10T18:40:26.492Z</time>
      </trkpt>
      <trkpt lat="55.178545927628875" lon="12.076783552765846">
        <ele>3.42</ele>
        <time>2023-06-10T18:40:32.588Z</time>
      </trkpt>
      <trkpt lat="55.17852162010968" lon="12.077015982940793">
        <ele>3.47</ele>
        <time>2023-06-10T18:40:38.686Z</time>
      </trkpt>
      <trkpt lat="55.17849739640951" lon="12.077248329296708">
        <ele>3.45</ele>
        <time>2023-06-10T18:40:44.787Z</time>
      </trkpt>
      <trkpt lat="55.178416427224874" lon="12.078022984787822">
        <ele>3.29</ele>
        <time>2023-06-10T18:40:50.895Z</time>
      </trkpt>
      <trkpt lat="55.17840025015175" lon="12.078177882358432">
        <ele>3.24</ele>
        <time>2023-06-10T18:40:57.004Z</time>
      </trkpt>
      <trkpt lat="55.17838407307863" lon="12.078332779929042">
        <ele>3.16</ele>
        <time>2023-06-10T18:41:03.115Z</time>
      </trkpt>
      <trkpt lat="55.17836789600551" lon="12.078487761318684">
        <ele>3.03</ele>
        <time>2023-06-10T18:41:09.227Z</time>
      </trkpt>
      <trkpt lat="55.17833554185927" lon="12.078797556459904">
        <ele>2.69</ele>
        <time>2023-06-10T18:41:15.342Z</time>
      </trkpt>
      <trkpt lat="55.17831936478615" lon="12.078952537849545">
        <ele>2.56</ele>
        <time>2023-06-10T18:41:21.458Z</time>
      </trkpt>
      <trkpt lat="55.178311401978135" lon="12.079028394073248">
        <ele>2.53</ele>
        <time>2023-06-10T18:41:27.575Z</time>
      </trkpt>
      <trkpt lat="55.178295224905014" lon="12.07918337546289">
        <ele>2.5</ele>
        <time>2023-06-10T18:41:33.694Z</time>
      </trkpt>
      <trkpt lat="55.17827904783189" lon="12.0793382730335">
        <ele>2.52</ele>
        <time>2023-06-10T18:41:39.814Z</time>
      </trkpt>
      <trkpt lat="55.17826287075877" lon="12.07949317060411">
        <ele>2.59</ele>
        <time>2023-06-10T18:41:45.935Z</time>
      </trkpt>
      <trkpt lat="55.17824669368565" lon="12.079648151993752">
        <ele>2.69</ele>
        <time>2023-06-10T18:41:52.058Z</time>
      </trkpt>
      <trkpt lat="55.17820998094976" lon="12.079999940469861">
        <ele>2.96</ele>
        <time>2023-06-10T18:41:58.184Z</time>
      </trkpt>
      <trkpt lat="55.178211657330394" lon="12.080035898834467">
        <ele>2.99</ele>
        <time>2023-06-10T18:42:04.311Z</time>
      </trkpt>
      <trkpt lat="55.178219955414534" lon="12.08020999096334">
        <ele>2.56</ele>
        <time>2023-06-10T18:42:10.439Z</time>
      </trkpt>
      <trkpt lat="55.17825993709266" lon="12.080259947106242">
        <ele>2.35</ele>
        <time>2023-06-10T18:42:16.568Z</time>
      </trkpt>
      <trkpt lat="55.17828860320151" lon="12.080269502475858">
        <ele>2.23</ele>
        <time>2023-06-10T18:42:22.697Z</time>
      </trkpt>
      <trkpt lat="55.17831995151937" lon="12.080279979854822">
        <ele>2.11</ele>
        <time>2023-06-10T18:42:28.827Z</time>
      </trkpt>
      <trkpt lat="55.17837728373706" lon="12.080264138057828">
        <ele>1.91</ele>
        <time>2023-06-10T18:42:34.958Z</time>
      </trkpt>
      <trkpt lat="55.17846520990133" lon="12.080239914357662">
        <ele>1.67</ele>
        <time>2023-06-10T18:42:41.090Z</time>
      </trkpt>
      <trkpt lat="55.17850963398814" lon="12.080227760598063">
        <ele>1.59</ele>
        <time>2023-06-10T18:42:47.223Z</time>
      </trkpt>
      <trkpt lat="55.17855405807495" lon="12.080215523019433">
        <ele>1.54</ele>
        <time>2023-06-10T18:42:53.357Z</time>
      </trkpt>
      <trkpt lat="55.17864206805825" lon="12.080191299319267">
        <ele>1.48</ele>
        <time>2023-06-10T18:42:59.492Z</time>
      </trkpt>
      <trkpt lat="55.17895211465657" lon="12.08010588772595">
        <ele>1.44</ele>
        <time>2023-06-10T18:43:05.632Z</time>
      </trkpt>
      <trkpt lat="55.17900994978845" lon="12.080089962109923">
        <ele>1.4</ele>
        <time>2023-06-10T18:43:11.773Z</time>
      </trkpt>
      <trkpt lat="55.17904012463987" lon="12.080083005130291">
        <ele>1.38</ele>
        <time>2023-06-10T18:43:17.915Z</time>
      </trkpt>
      <trkpt lat="55.17908471636474" lon="12.080072779208422">
        <ele>1.34</ele>
        <time>2023-06-10T18:43:24.057Z</time>
      </trkpt>
      <trkpt lat="55.17917297780514" lon="12.080052495002747">
        <ele>1.21</ele>
        <time>2023-06-10T18:43:30.201Z</time>
      </trkpt>
      <trkpt lat="55.179394176229835" lon="12.080001616850495">
        <ele>0.84</ele>
        <time>2023-06-10T18:43:36.348Z</time>
      </trkpt>
      <trkpt lat="55.1794841978699" lon="12.079980913549662">
        <ele>0.74</ele>
        <time>2023-06-10T18:43:42.497Z</time>
      </trkpt>
      <trkpt lat="55.179617051035166" lon="12.079950403422117">
        <ele>0.7</ele>
        <time>2023-06-10T18:43:48.648Z</time>
      </trkpt>
      <trkpt lat="55.17983816564083" lon="12.079899525269866">
        <ele>0.73</ele>
        <time>2023-06-10T18:43:54.802Z</time>
      </trkpt>
      <trkpt lat="55.180060202255845" lon="12.079848479479551">
        <ele>0.65</ele>
        <time>2023-06-10T18:44:00.960Z</time>
      </trkpt>
      <trkpt lat="55.18032683059573" lon="12.079787207767367">
        <ele>0.63</ele>
        <time>2023-06-10T18:44:07.122Z</time>
      </trkpt>
      <trkpt lat="55.18094742670655" lon="12.079644547775388">
        <ele>0.67</ele>
        <time>2023-06-10T18:44:13.294Z</time>
      </trkpt>
      <trkpt lat="55.18143433146179" lon="12.079532649368048">
        <ele>0.87</ele>
        <time>2023-06-10T18:44:19.474Z</time>
      </trkpt>
      <trkpt lat="55.18156802281737" lon="12.079501887783408">
        <ele>0.88</ele>
        <time>2023-06-10T18:44:25.656Z</time>
      </trkpt>
      <trkpt lat="55.18161999061704" lon="12.079489985480905">
        <ele>0.87</ele>
        <time>2023-06-10T18:44:31.839Z</time>
      </trkpt>
      <trkpt lat="55.181836411356926" lon="12.07948193885386">
        <ele>0.85</ele>
        <time>2023-06-10T18:44:38.026Z</time>
      </trkpt>
      <trkpt lat="55.18188997171819" lon="12.079479927197099">
        <ele>0.86</ele>
        <time>2023-06-10T18:44:44.214Z</time>
      </trkpt>
      <trkpt lat="55.18188997171819" lon="12.079479927197099">
        <ele>0.86</ele>
        <time>2023-06-10T18:44:50.402Z</time>
      </trkpt>
      <trkpt lat="55.18197010271251" lon="12.079492500051856">
        <ele>0.91</ele>
        <time>2023-06-10T18:44:56.591Z</time>
      </trkpt>
      <trkpt lat="55.182103626430035" lon="12.079513287171721">
        <ele>1.05</ele>
        <time>2023-06-10T18:45:02.782Z</time>
      </trkpt>
      <trkpt lat="55.18237050622702" lon="12.079554945230484">
        <ele>1.37</ele>
        <time>2023-06-10T18:45:08.977Z</time>
      </trkpt>
      <trkpt lat="55.18246010877192" lon="12.079568859189749">
        <ele>1.49</ele>
        <time>2023-06-10T18:45:15.174Z</time>
      </trkpt>
      <trkpt lat="55.182549711316824" lon="12.079582856968045">
        <ele>1.65</ele>
        <time>2023-06-10T18:45:21.372Z</time>
      </trkpt>
      <trkpt lat="55.18263839185238" lon="12.079596687108278">
        <ele>1.86</ele>
        <time>2023-06-10T18:45:27.572Z</time>
      </trkpt>
      <trkpt lat="55.182683151215315" lon="12.07960364408791">
        <ele>2.0</ele>
        <time>2023-06-10T18:45:33.772Z</time>
      </trkpt>
      <trkpt lat="55.18286143429577" lon="12.07963147200644">
        <ele>2.65</ele>
        <time>2023-06-10T18:45:39.975Z</time>
      </trkpt>
      <trkpt lat="55.182950953021646" lon="12.079645469784737">
        <ele>2.92</ele>
        <time>2023-06-10T18:45:46.180Z</time>
      </trkpt>
      <trkpt lat="55.18297995440662" lon="12.07964999601245">
        <ele>2.89</ele>
        <time>2023-06-10T18:45:52.385Z</time>
      </trkpt>
      <trkpt lat="55.183037370443344" lon="12.079633567482233">
        <ele>2.84</ele>
        <time>2023-06-10T18:45:58.591Z</time>
      </trkpt>
      <trkpt lat="55.1830499432981" lon="12.07962996326387">
        <ele>2.82</ele>
        <time>2023-06-10T18:46:04.797Z</time>
      </trkpt>
      <trkpt lat="55.1830377895385" lon="12.079915534704924">
        <ele>2.64</ele>
        <time>2023-06-10T18:46:11.006Z</time>
      </trkpt>
      <trkpt lat="55.183034520596266" lon="12.079992480576038">
        <ele>2.61</ele>
        <time>2023-06-10T18:46:17.216Z</time>
      </trkpt>
      <trkpt lat="55.18302999436855" lon="12.080099936574697">
        <ele>2.59</ele>
        <time>2023-06-10T18:46:23.427Z</time>
      </trkpt>
      <trkpt lat="55.18302312120795" lon="12.08014503121376">
        <ele>2.59</ele>
        <time>2023-06-10T18:46:29.638Z</time>
      </trkpt>
      <trkpt lat="55.18295573070645" lon="12.08059111610055">
        <ele>2.67</ele>
        <time>2023-06-10T18:46:35.853Z</time>
      </trkpt>
      <trkpt lat="55.18286528997123" lon="12.081189583986998">
        <ele>2.68</ele>
        <time>2023-06-10T18:46:42.074Z</time>
      </trkpt>
      <trkpt lat="55.1828427426517" lon="12.081338781863451">
        <ele>2.7</ele>
        <time>2023-06-10T18:46:48.296Z</time>
      </trkpt>
      <trkpt lat="55.18282019533217" lon="12.081487979739904">
        <ele>2.76</ele>
        <time>2023-06-10T18:46:54.520Z</time>
      </trkpt>
      <trkpt lat="55.18279764801264" lon="12.08163726143539">
        <ele>2.88</ele>
        <time>2023-06-10T18:47:00.745Z</time>
      </trkpt>
      <trkpt lat="55.18276336602867" lon="12.081864075735211">
        <ele>2.81</ele>
        <time>2023-06-10T18:47:06.972Z</time>
      </trkpt>
      <trkpt lat="55.18271760083735" lon="12.082167081534863">
        <ele>2.63</ele>
        <time>2023-06-10T18:47:13.202Z</time>
      </trkpt>
      <trkpt lat="55.18269480206072" lon="12.082317871972919">
        <ele>2.57</ele>
        <time>2023-06-10T18:47:19.434Z</time>
      </trkpt>
      <trkpt lat="55.18266052007675" lon="12.082544770091772">
        <ele>2.52</ele>
        <time>2023-06-10T18:47:25.668Z</time>
      </trkpt>
      <trkpt lat="55.182614754885435" lon="12.082847775891423">
        <ele>2.53</ele>
        <time>2023-06-10T18:47:31.905Z</time>
      </trkpt>
      <trkpt lat="55.18259195610881" lon="12.082998482510448">
        <ele>2.55</ele>
        <time>2023-06-10T18:47:38.143Z</time>
      </trkpt>
      <trkpt lat="55.182534623891115" lon="12.083377679809928">
        <ele>2.67</ele>
        <time>2023-06-10T18:47:44.385Z</time>
      </trkpt>
      <trkpt lat="55.18251190893352" lon="12.083528386428952">
        <ele>2.69</ele>
        <time>2023-06-10T18:47:50.628Z</time>
      </trkpt>
      <trkpt lat="55.18245457671583" lon="12.083907499909401">
        <ele>2.68</ele>
        <time>2023-06-10T18:47:56.875Z</time>
      </trkpt>
      <trkpt lat="55.1824317779392" lon="12.084058290347457">
        <ele>2.69</ele>
        <time>2023-06-10T18:48:03.123Z</time>
      </trkpt>
      <trkpt lat="55.18240881152451" lon="12.084210505709052">
        <ele>2.72</ele>
        <time>2023-06-10T18:48:09.373Z</time>
      </trkpt>
      <trkpt lat="55.18237452954054" lon="12.084437403827906">
        <ele>2.81</ele>
        <time>2023-06-10T18:48:15.625Z</time>
      </trkpt>
      <trkpt lat="55.182349970564246" lon="12.084599928930402">
        <ele>2.81</ele>
        <time>2023-06-10T18:48:21.878Z</time>
      </trkpt>
      <trkpt lat="55.18230630084872" lon="12.084881560876966">
        <ele>2.81</ele>
        <time>2023-06-10T18:48:28.134Z</time>
      </trkpt>
      <trkpt lat="55.18227185122669" lon="12.085103429853916">
        <ele>2.83</ele>
        <time>2023-06-10T18:48:34.392Z</time>
      </trkpt>
      <trkpt lat="55.18222591839731" lon="12.085399897769094">
        <ele>2.91</ele>
        <time>2023-06-10T18:48:40.653Z</time>
      </trkpt>
      <trkpt lat="55.1821452844888" lon="12.085919743403792">
        <ele>3.1</ele>
        <time>2023-06-10T18:48:46.919Z</time>
      </trkpt>
      <trkpt lat="55.18212248571217" lon="12.08606718108058">
        <ele>3.09</ele>
        <time>2023-06-10T18:48:53.186Z</time>
      </trkpt>
      <trkpt lat="55.18206372857094" lon="12.086445624008775">
        <ele>3.0</ele>
        <time>2023-06-10T18:48:59.457Z</time>
      </trkpt>
      <trkpt lat="55.18201687373221" lon="12.086748126894236">
        <ele>2.88</ele>
        <time>2023-06-10T18:49:05.731Z</time>
      </trkpt>
      <trkpt lat="55.18196968361735" lon="12.087052138522267">
        <ele>2.79</ele>
        <time>2023-06-10T18:49:12.008Z</time>
      </trkpt>
      <trkpt lat="55.18187563866377" lon="12.087658569216728">
        <ele>2.67</ele>
        <time>2023-06-10T18:49:18.290Z</time>
      </trkpt>
      <trkpt lat="55.18174630589783" lon="12.088493071496487">
        <ele>2.47</ele>
        <time>2023-06-10T18:49:24.580Z</time>
      </trkpt>
      <trkpt lat="55.18171118572354" lon="12.088719550520182">
        <ele>2.44</ele>
        <time>2023-06-10T18:49:30.872Z</time>
      </trkpt>
      <trkpt lat="55.18154639750719" lon="12.089782040566206">
        <ele>2.47</ele>
        <time>2023-06-10T18:49:37.175Z</time>
      </trkpt>
      <trkpt lat="55.18136995844543" lon="12.090919967740774">
        <ele>2.72</ele>
        <time>2023-06-10T18:49:43.488Z</time>
      </trkpt>
      <trkpt lat="55.18134992569685" lon="12.091129934415221">
        <ele>2.76</ele>
        <time>2023-06-10T18:49:49.803Z</time>
      </trkpt>
      <trkpt lat="55.18135202117264" lon="12.091150470077991">
        <ele>2.77</ele>
        <time>2023-06-10T18:49:56.119Z</time>
      </trkpt>
      <trkpt lat="55.181359983980656" lon="12.091229930520058">
        <ele>2.77</ele>
        <time>2023-06-10T18:50:02.435Z</time>
      </trkpt>
      <trkpt lat="55.181394685059786" lon="12.09137317724526">
        <ele>2.78</ele>
        <time>2023-06-10T18:50:08.753Z</time>
      </trkpt>
      <trkpt lat="55.181429805234075" lon="12.091518100351095">
        <ele>2.73</ele>
        <time>2023-06-10T18:50:15.072Z</time>
      </trkpt>
      <trkpt lat="55.18143994733691" lon="12.091559926047921">
        <ele>2.69</ele>
        <time>2023-06-10T18:50:21.392Z</time>
      </trkpt>
      <trkpt lat="55.181474313139915" lon="12.091654473915696">
        <ele>2.62</ele>
        <time>2023-06-10T18:50:27.713Z</time>
      </trkpt>
      <trkpt lat="55.181522173807025" lon="12.091785985976458">
        <ele>2.48</ele>
        <time>2023-06-10T18:50:34.035Z</time>
      </trkpt>
      <trkpt lat="55.18164295703173" lon="12.092118160799146">
        <ele>2.06</ele>
        <time>2023-06-10T18:50:40.361Z</time>
      </trkpt>
      <trkpt lat="55.181690733879805" lon="12.092249672859907">
        <ele>1.92</ele>
        <time>2023-06-10T18:50:46.688Z</time>
      </trkpt>
      <trkpt lat="55.18181151710451" lon="12.092581763863564">
        <ele>1.66</ele>
        <time>2023-06-10T18:50:53.019Z</time>
      </trkpt>
      <trkpt lat="55.18183993175626" lon="12.092659967020154">
        <ele>1.58</ele>
        <time>2023-06-10T18:50:59.351Z</time>
      </trkpt>
      <trkpt lat="55.181989800184965" lon="12.093127006664872">
        <ele>1.12</ele>
        <time>2023-06-10T18:51:05.687Z</time>
      </trkpt>
      <trkpt lat="55.18205593340099" lon="12.093332950025797">
        <ele>0.97</ele>
        <time>2023-06-10T18:51:12.026Z</time>
      </trkpt>
      <trkpt lat="55.18209951929748" lon="12.09346890449524">
        <ele>0.9</ele>
        <time>2023-06-10T18:51:18.366Z</time>
      </trkpt>
      <trkpt lat="55.182165652513504" lon="12.093674847856164">
        <ele>0.84</ele>
        <time>2023-06-10T18:51:24.708Z</time>
      </trkpt>
      <trkpt lat="55.18226992338896" lon="12.093999981880188">
        <ele>0.78</ele>
        <time>2023-06-10T18:51:31.054Z</time>
      </trkpt>
      <trkpt lat="55.18227654509246" lon="12.094015404582024">
        <ele>0.78</ele>
        <time>2023-06-10T18:51:37.400Z</time>
      </trkpt>
      <trkpt lat="55.18238450400531" lon="12.094267280772328">
        <ele>0.7</ele>
        <time>2023-06-10T18:51:43.749Z</time>
      </trkpt>
      <trkpt lat="55.18246497027576" lon="12.09445503540337">
        <ele>0.69</ele>
        <time>2023-06-10T18:51:50.100Z</time>
      </trkpt>
      <trkpt lat="55.18247997388244" lon="12.094489987939596">
        <ele>0.7</ele>
        <time>2023-06-10T18:51:56.451Z</time>
      </trkpt>
      <trkpt lat="55.18255826085806" lon="12.094625104218721">
        <ele>0.75</ele>
        <time>2023-06-10T18:52:02.804Z</time>
      </trkpt>
      <trkpt lat="55.18284601159394" lon="12.095121312886477">
        <ele>1.07</ele>
        <time>2023-06-10T18:52:09.163Z</time>
      </trkpt>
      <trkpt lat="55.1830689702183" lon="12.095505958423018">
        <ele>0.5</ele>
        <time>2023-06-10T18:52:15.527Z</time>
      </trkpt>
      <trkpt lat="55.18313309177756" lon="12.09561643190682">
        <ele>0.35</ele>
        <time>2023-06-10T18:52:21.893Z</time>
      </trkpt>
      <trkpt lat="55.18322856165469" lon="12.09578113630414">
        <ele>0.18</ele>
        <time>2023-06-10T18:52:28.261Z</time>
      </trkpt>
      <trkpt lat="55.183292012661695" lon="12.095890520140529">
        <ele>0.11</ele>
        <time>2023-06-10T18:52:34.631Z</time>
      </trkpt>
      <trkpt lat="55.18351564183831" lon="12.096276255324483">
        <ele>0.0</ele>
        <time>2023-06-10T18:52:41.006Z</time>
      </trkpt>
      <trkpt lat="55.183569956570864" lon="12.09636996500194">
        <ele>-0.02</ele>
        <time>2023-06-10T18:52:47.382Z</time>
      </trkpt>
      <trkpt lat="55.18373994156718" lon="12.096849996596575">
        <ele>-0.12</ele>
        <time>2023-06-10T18:52:53.763Z</time>
      </trkpt>
      <trkpt lat="55.1837753970176" lon="12.097000870853662">
        <ele>-0.15</ele>
        <time>2023-06-10T18:53:00.145Z</time>
      </trkpt>
      <trkpt lat="55.18386055715382" lon="12.097363555803895">
        <ele>-0.16</ele>
        <time>2023-06-10T18:53:06.531Z</time>
      </trkpt>
      <trkpt lat="55.18391193822026" lon="12.097582072019577">
        <ele>-0.1</ele>
        <time>2023-06-10T18:53:12.919Z</time>
      </trkpt>
      <trkpt lat="55.183945801109076" lon="12.09772632457316">
        <ele>-0.04</ele>
        <time>2023-06-10T18:53:19.309Z</time>
      </trkpt>
      <trkpt lat="55.183979999274015" lon="12.09787200205028">
        <ele>0.08</ele>
        <time>2023-06-10T18:53:25.700Z</time>
      </trkpt>
      <trkpt lat="55.1840309612453" lon="12.098089009523392">
        <ele>0.29</ele>
        <time>2023-06-10T18:53:32.093Z</time>
      </trkpt>
      <trkpt lat="55.1840499881655" lon="12.098169978708029">
        <ele>0.38</ele>
        <time>2023-06-10T18:53:38.487Z</time>
      </trkpt>
      <trkpt lat="55.18408929929137" lon="12.098385142162442">
        <ele>0.63</ele>
        <time>2023-06-10T18:53:44.883Z</time>
      </trkpt>
      <trkpt lat="55.184116791933775" lon="12.098535178229213">
        <ele>0.76</ele>
        <time>2023-06-10T18:53:51.281Z</time>
      </trkpt>
      <trkpt lat="55.18414394930005" lon="12.09868362173438">
        <ele>0.83</ele>
        <time>2023-06-10T18:53:57.680Z</time>
      </trkpt>
      <trkpt lat="55.1841982640326" lon="12.09898067638278">
        <ele>0.92</ele>
        <time>2023-06-10T18:54:04.082Z</time>
      </trkpt>
      <trkpt lat="55.1842260081321" lon="12.09913213737309">
        <ele>1.02</ele>
        <time>2023-06-10T18:54:10.485Z</time>
      </trkpt>
      <trkpt lat="55.18423967063427" lon="12.099207155406475">
        <ele>1.09</ele>
        <time>2023-06-10T18:54:16.889Z</time>
      </trkpt>
      <trkpt lat="55.184266828000546" lon="12.099355682730675">
        <ele>1.27</ele>
        <time>2023-06-10T18:54:23.294Z</time>
      </trkpt>
      <trkpt lat="55.18429432064295" lon="12.099505718797445">
        <ele>1.49</ele>
        <time>2023-06-10T18:54:29.701Z</time>
      </trkpt>
      <trkpt lat="55.184321478009224" lon="12.099654162302613">
        <ele>1.75</ele>
        <time>2023-06-10T18:54:36.109Z</time>
      </trkpt>
      <trkpt lat="55.18434997648001" lon="12.099809981882572">
        <ele>2.04</ele>
        <time>2023-06-10T18:54:42.519Z</time>
      </trkpt>
      <trkpt lat="55.1843935623765" lon="12.099940739572048">
        <ele>2.31</ele>
        <time>2023-06-10T18:54:48.930Z</time>
      </trkpt>
      <trkpt lat="55.1844384893775" lon="12.100075436756015">
        <ele>2.54</ele>
        <time>2023-06-10T18:54:55.343Z</time>
      </trkpt>
      <trkpt lat="55.18446112051606" lon="12.100143413990736">
        <ele>2.62</ele>
        <time>2023-06-10T18:55:01.756Z</time>
      </trkpt>
      <trkpt lat="55.18450604751706" lon="12.100278111174703">
        <ele>2.71</ele>
        <time>2023-06-10T18:55:08.171Z</time>
      </trkpt>
      <trkpt lat="55.18455139361322" lon="12.100414149463177">
        <ele>2.72</ele>
        <time>2023-06-10T18:55:14.587Z</time>
      </trkpt>
      <trkpt lat="55.18482204526663" lon="12.101226272061467">
        <ele>2.57</ele>
        <time>2023-06-10T18:55:21.012Z</time>
      </trkpt>
      <trkpt lat="55.184867391362786" lon="12.101362310349941">
        <ele>2.5</ele>
        <time>2023-06-10T18:55:27.438Z</time>
      </trkpt>
      <trkpt lat="55.184957664459944" lon="12.10163296200335">
        <ele>2.32</ele>
        <time>2023-06-10T18:55:33.867Z</time>
      </trkpt>
      <trkpt lat="55.18501994200051" lon="12.101819962263107">
        <ele>2.17</ele>
        <time>2023-06-10T18:55:40.298Z</time>
      </trkpt>
      <trkpt lat="55.18502329476178" lon="12.101837145164609">
        <ele>2.16</ele>
        <time>2023-06-10T18:55:46.729Z</time>
      </trkpt>
      <trkpt lat="55.185081381350756" lon="12.102133696898818">
        <ele>1.92</ele>
        <time>2023-06-10T18:55:53.163Z</time>
      </trkpt>
      <trkpt lat="55.18510996364057" lon="12.102279961109161">
        <ele>1.82</ele>
        <time>2023-06-10T18:55:59.599Z</time>
      </trkpt>
      <trkpt lat="55.18511683680117" lon="12.102360762655735">
        <ele>1.77</ele>
        <time>2023-06-10T18:56:06.035Z</time>
      </trkpt>
      <trkpt lat="55.18512999638915" lon="12.102514989674091">
        <ele>1.64</ele>
        <time>2023-06-10T18:56:12.473Z</time>
      </trkpt>
      <trkpt lat="55.18514323979616" lon="12.10267080925405">
        <ele>1.45</ele>
        <time>2023-06-10T18:56:18.912Z</time>
      </trkpt>
      <trkpt lat="55.1851499453187" lon="12.10274993441999">
        <ele>1.33</ele>
        <time>2023-06-10T18:56:25.352Z</time>
      </trkpt>
      <trkpt lat="55.18513343296945" lon="12.10298152640462">
        <ele>1.0</ele>
        <time>2023-06-10T18:56:31.794Z</time>
      </trkpt>
      <trkpt lat="55.18512228503823" lon="12.103137848898768">
        <ele>0.84</ele>
        <time>2023-06-10T18:56:38.238Z</time>
      </trkpt>
      <trkpt lat="55.185119938105345" lon="12.103169951587915">
        <ele>0.81</ele>
        <time>2023-06-10T18:56:44.682Z</time>
      </trkpt>
      <trkpt lat="55.185098983347416" lon="12.10328796878457">
        <ele>0.74</ele>
        <time>2023-06-10T18:56:51.127Z</time>
      </trkpt>
      <trkpt lat="55.18505916930735" lon="12.103512017056346">
        <ele>0.64</ele>
        <time>2023-06-10T18:56:57.574Z</time>
      </trkpt>
      <trkpt lat="55.18501901999116" lon="12.103737657889724">
        <ele>0.62</ele>
        <time>2023-06-10T18:57:04.023Z</time>
      </trkpt>
      <trkpt lat="55.1849599275738" lon="12.104069916531444">
        <ele>0.66</ele>
        <time>2023-06-10T18:57:10.476Z</time>
      </trkpt>
      <trkpt lat="55.18495322205126" lon="12.104269741103053">
        <ele>0.69</ele>
        <time>2023-06-10T18:57:16.930Z</time>
      </trkpt>
      <trkpt lat="55.18494785763323" lon="12.104426985606551">
        <ele>0.69</ele>
        <time>2023-06-10T18:57:23.386Z</time>
      </trkpt>
      <trkpt lat="55.18493997864425" lon="12.104659918695688">
        <ele>0.64</ele>
        <time>2023-06-10T18:57:29.844Z</time>
      </trkpt>
      <trkpt lat="55.184940146282315" lon="12.104661259800196">
        <ele>0.64</ele>
        <time>2023-06-10T18:57:36.302Z</time>
      </trkpt>
      <trkpt lat="55.18498498946428" lon="12.104964684695005">
        <ele>0.52</ele>
        <time>2023-06-10T18:57:42.763Z</time>
      </trkpt>
      <trkpt lat="55.185007536783814" lon="12.105117151513696">
        <ele>0.49</ele>
        <time>2023-06-10T18:57:49.225Z</time>
      </trkpt>
      <trkpt lat="55.18507475964725" lon="12.105571618303657">
        <ele>0.53</ele>
        <time>2023-06-10T18:57:55.692Z</time>
      </trkpt>
      <trkpt lat="55.18510996364057" lon="12.105809999629855">
        <ele>0.52</ele>
        <time>2023-06-10T18:58:02.161Z</time>
      </trkpt>
      <trkpt lat="55.18512370996177" lon="12.105874372646213">
        <ele>0.52</ele>
        <time>2023-06-10T18:58:08.630Z</time>
      </trkpt>
      <trkpt lat="55.18518657423556" lon="12.10616790689528">
        <ele>0.55</ele>
        <time>2023-06-10T18:58:15.102Z</time>
      </trkpt>
      <trkpt lat="55.18523359671235" lon="12.106387680396438">
        <ele>0.61</ele>
        <time>2023-06-10T18:58:21.576Z</time>
      </trkpt>
      <trkpt lat="55.185265112668276" lon="12.106535201892257">
        <ele>0.7</ele>
        <time>2023-06-10T18:58:28.052Z</time>
      </trkpt>
      <trkpt lat="55.18532797694206" lon="12.106828736141324">
        <ele>0.94</ele>
        <time>2023-06-10T18:58:34.531Z</time>
      </trkpt>
      <trkpt lat="55.18535915762186" lon="12.106974748894572">
        <ele>1.04</ele>
        <time>2023-06-10T18:58:41.011Z</time>
      </trkpt>
      <trkpt lat="55.18539075739682" lon="12.107122270390391">
        <ele>1.1</ele>
        <time>2023-06-10T18:58:47.493Z</time>
      </trkpt>
      <trkpt lat="55.18542202189565" lon="12.10726828314364">
        <ele>1.11</ele>
        <time>2023-06-10T18:58:53.976Z</time>
      </trkpt>
      <trkpt lat="55.18545353785157" lon="12.107415804639459">
        <ele>1.06</ele>
        <time>2023-06-10T18:59:00.461Z</time>
      </trkpt>
      <trkpt lat="55.18556342460215" lon="12.107929112389684">
        <ele>0.78</ele>
        <time>2023-06-10T18:59:06.951Z</time>
      </trkpt>
      <trkpt lat="55.18559996969998" lon="12.10809993557632">
        <ele>0.76</ele>
        <time>2023-06-10T18:59:13.442Z</time>
      </trkpt>
      <trkpt lat="55.185629054903984" lon="12.108543086796999">
        <ele>0.73</ele>
        <time>2023-06-10T18:59:19.937Z</time>
      </trkpt>
      <trkpt lat="55.18563995137811" lon="12.108709970489144">
        <ele>0.64</ele>
        <time>2023-06-10T18:59:26.434Z</time>
      </trkpt>
      <trkpt lat="55.185622684657574" lon="12.109549585729837">
        <ele>0.21</ele>
        <time>2023-06-10T18:59:32.939Z</time>
      </trkpt>
      <trkpt lat="55.18561949953437" lon="12.109703812748194">
        <ele>0.15</ele>
        <time>2023-06-10T18:59:39.445Z</time>
      </trkpt>
      <trkpt lat="55.185611452907324" lon="12.110092649236321">
        <ele>0.06</ele>
        <time>2023-06-10T18:59:45.955Z</time>
      </trkpt>
      <trkpt lat="55.18560508266091" lon="12.110402779653668">
        <ele>0.01</ele>
        <time>2023-06-10T18:59:52.467Z</time>
      </trkpt>
      <trkpt lat="55.185600304976106" lon="12.110634204000235">
        <ele>0.0</ele>
        <time>2023-06-10T18:59:58.982Z</time>
      </trkpt>
      <trkpt lat="55.18559703603387" lon="12.110790023580194">
        <ele>0.03</ele>
        <time>2023-06-10T19:00:05.498Z</time>
      </trkpt>
      <trkpt lat="55.185593850910664" lon="12.110944334417582">
        <ele>0.08</ele>
        <time>2023-06-10T19:00:12.015Z</time>
      </trkpt>
      <trkpt lat="55.18558588810265" lon="12.111333087086678">
        <ele>0.28</ele>
        <time>2023-06-10T19:00:18.536Z</time>
      </trkpt>
      <trkpt lat="55.185582702979445" lon="12.111487397924066">
        <ele>0.38</ele>
        <time>2023-06-10T19:00:25.058Z</time>
      </trkpt>
      <trkpt lat="55.1855799369514" lon="12.11161999963224">
        <ele>0.49</ele>
        <time>2023-06-10T19:00:31.582Z</time>
      </trkpt>
      <trkpt lat="55.18558228388429" lon="12.111642882227898">
        <ele>0.52</ele>
        <time>2023-06-10T19:00:38.106Z</time>
      </trkpt>
      <trkpt lat="55.185597874224186" lon="12.111794846132398">
        <ele>0.73</ele>
        <time>2023-06-10T19:00:44.631Z</time>
      </trkpt>
      <trkpt lat="55.18560575321317" lon="12.111872378736734">
        <ele>0.86</ele>
        <time>2023-06-10T19:00:51.157Z</time>
      </trkpt>
      <trkpt lat="55.185621343553066" lon="12.112024342641234">
        <ele>1.15</ele>
        <time>2023-06-10T19:00:57.684Z</time>
      </trkpt>
      <trkpt lat="55.185652524232864" lon="12.112329779192805">
        <ele>1.8</ele>
        <time>2023-06-10T19:01:04.214Z</time>
      </trkpt>
      <trkpt lat="55.18566995859146" lon="12.112499931827188">
        <ele>2.23</ele>
        <time>2023-06-10T19:01:10.746Z</time>
      </trkpt>
      <trkpt lat="55.18574866466224" lon="12.11247218772769">
        <ele>2.58</ele>
        <time>2023-06-10T19:01:17.279Z</time>
      </trkpt>
      <trkpt lat="55.18583994358778" lon="12.11243991740048">
        <ele>2.99</ele>
        <time>2023-06-10T19:01:23.814Z</time>
      </trkpt>
      <trkpt lat="55.18583994358778" lon="12.11243991740048">
        <ele>2.99</ele>
        <time>2023-06-10T19:01:30.349Z</time>
      </trkpt>
      <trkpt lat="55.18592652864754" lon="12.11243212223053">
        <ele>3.47</ele>
        <time>2023-06-10T19:01:36.885Z</time>
      </trkpt>
      <trkpt lat="55.18594999797642" lon="12.112429942935705">
        <ele>3.61</ele>
        <time>2023-06-10T19:01:43.421Z</time>
      </trkpt>
      <trkpt lat="55.186061058193445" lon="12.112444778904319">
        <ele>4.31</ele>
        <time>2023-06-10T19:01:49.959Z</time>
      </trkpt>
      <trkpt lat="55.18609995022416" lon="12.112449975684285">
        <ele>4.57</ele>
        <time>2023-06-10T19:01:56.498Z</time>
      </trkpt>
      <trkpt lat="55.186193911358714" lon="12.112483754754066">
        <ele>5.23</ele>
        <time>2023-06-10T19:02:03.038Z</time>
      </trkpt>
      <trkpt lat="55.18632609397173" lon="12.112531196326017">
        <ele>6.19</ele>
        <time>2023-06-10T19:02:09.580Z</time>
      </trkpt>
      <trkpt lat="55.18645819276571" lon="12.112578721717">
        <ele>7.18</ele>
        <time>2023-06-10T19:02:16.125Z</time>
      </trkpt>
      <trkpt lat="55.18662557937205" lon="12.11263881996274">
        <ele>7.42</ele>
        <time>2023-06-10T19:02:22.672Z</time>
      </trkpt>
      <trkpt lat="55.18675155937672" lon="12.112684166058898">
        <ele>7.62</ele>
        <time>2023-06-10T19:02:29.221Z</time>
      </trkpt>
      <trkpt lat="55.18687401898205" lon="12.112728171050549">
        <ele>7.99</ele>
        <time>2023-06-10T19:02:35.772Z</time>
      </trkpt>
      <trkpt lat="55.18707753159106" lon="12.112801261246204">
        <ele>8.67</ele>
        <time>2023-06-10T19:02:42.327Z</time>
      </trkpt>
      <trkpt lat="55.18728188239038" lon="12.112874686717987">
        <ele>9.43</ele>
        <time>2023-06-10T19:02:48.885Z</time>
      </trkpt>
      <trkpt lat="55.187319768592715" lon="12.112888349220157">
        <ele>9.72</ele>
        <time>2023-06-10T19:02:55.444Z</time>
      </trkpt>
      <trkpt lat="55.18737995065749" lon="12.11290997453034">
        <ele>9.9</ele>
        <time>2023-06-10T19:03:02.004Z</time>
      </trkpt>
      <trkpt lat="55.18745061010122" lon="12.112931432202458">
        <ele>10.13</ele>
        <time>2023-06-10T19:03:08.565Z</time>
      </trkpt>
      <trkpt lat="55.1875382848084" lon="12.112958170473576">
        <ele>10.37</ele>
        <time>2023-06-10T19:03:15.127Z</time>
      </trkpt>
      <trkpt lat="55.18784397281706" lon="12.11305120959878">
        <ele>11.07</ele>
        <time>2023-06-10T19:03:21.694Z</time>
      </trkpt>
      <trkpt lat="55.18806994892657" lon="12.113119941204786">
        <ele>11.63</ele>
        <time>2023-06-10T19:03:28.265Z</time>
      </trkpt>
      <trkpt lat="55.18810716457665" lon="12.113130921497941">
        <ele>11.73</ele>
        <time>2023-06-10T19:03:34.837Z</time>
      </trkpt>
      <trkpt lat="55.188239347189665" lon="12.11316998116672">
        <ele>12.11</ele>
        <time>2023-06-10T19:03:41.411Z</time>
      </trkpt>
      <trkpt lat="55.18885566852987" lon="12.11335220374167">
        <ele>14.19</ele>
        <time>2023-06-10T19:03:47.995Z</time>
      </trkpt>
      <trkpt lat="55.189163368195295" lon="12.11344314739108">
        <ele>15.28</ele>
        <time>2023-06-10T19:03:54.584Z</time>
      </trkpt>
      <trkpt lat="55.1892511267215" lon="12.113469131290913">
        <ele>15.57</ele>
        <time>2023-06-10T19:04:01.174Z</time>
      </trkpt>
      <trkpt lat="55.18933896906674" lon="12.113495031371713">
        <ele>15.81</ele>
        <time>2023-06-10T19:04:07.766Z</time>
      </trkpt>
      <trkpt lat="55.189426727592945" lon="12.113521015271544">
        <ele>16.02</ele>
        <time>2023-06-10T19:04:14.359Z</time>
      </trkpt>
      <trkpt lat="55.18955882638693" lon="12.113560074940324">
        <ele>16.27</ele>
        <time>2023-06-10T19:04:20.954Z</time>
      </trkpt>
      <trkpt lat="55.189646668732166" lon="12.113586058840156">
        <ele>16.39</ele>
        <time>2023-06-10T19:04:27.551Z</time>
      </trkpt>
      <trkpt lat="55.18965999595821" lon="12.113589998334646">
        <ele>16.41</ele>
        <time>2023-06-10T19:04:34.148Z</time>
      </trkpt>
      <trkpt lat="55.18986686132848" lon="12.113647917285562">
        <ele>16.76</ele>
        <time>2023-06-10T19:04:40.748Z</time>
      </trkpt>
      <trkpt lat="55.189909944310784" lon="12.113659987226129">
        <ele>16.81</ele>
        <time>2023-06-10T19:04:47.349Z</time>
      </trkpt>
      <trkpt lat="55.18991036340594" lon="12.113659903407097">
        <ele>16.81</ele>
        <time>2023-06-10T19:04:53.950Z</time>
      </trkpt>
      <trkpt lat="55.18999963067472" lon="12.113640708848834">
        <ele>16.83</ele>
        <time>2023-06-10T19:05:00.552Z</time>
      </trkpt>
      <trkpt lat="55.19004992209375" lon="12.113629980012774">
        <ele>16.8</ele>
        <time>2023-06-10T19:05:07.155Z</time>
      </trkpt>
      <trkpt lat="55.19004992209375" lon="12.113629980012774">
        <ele>16.8</ele>
        <time>2023-06-10T19:05:13.758Z</time>
      </trkpt>
      <trkpt lat="55.19012812525034" lon="12.113584382459521">
        <ele>16.68</ele>
        <time>2023-06-10T19:05:20.362Z</time>
      </trkpt>
      <trkpt lat="55.190169950947165" lon="12.113559991121292">
        <ele>16.59</ele>
        <time>2023-06-10T19:05:26.967Z</time>
      </trkpt>
      <trkpt lat="55.190208088606596" lon="12.11351539939642">
        <ele>16.5</ele>
        <time>2023-06-10T19:05:33.573Z</time>
      </trkpt>
      <trkpt lat="55.190282268449664" lon="12.113428981974721">
        <ele>16.26</ele>
        <time>2023-06-10T19:05:40.180Z</time>
      </trkpt>
      <trkpt lat="55.19028997980058" lon="12.113419929519296">
        <ele>16.22</ele>
        <time>2023-06-10T19:05:46.787Z</time>
      </trkpt>
      <trkpt lat="55.19041696563363" lon="12.11322521790862">
        <ele>15.65</ele>
        <time>2023-06-10T19:05:53.397Z</time>
      </trkpt>
      <trkpt lat="55.19043993204832" lon="12.113189930096269">
        <ele>15.55</ele>
        <time>2023-06-10T19:06:00.008Z</time>
      </trkpt>
      <trkpt lat="55.19044923596084" lon="12.113170651718974">
        <ele>15.51</ele>
        <time>2023-06-10T19:06:06.619Z</time>
      </trkpt>
      <trkpt lat="55.19073681905866" lon="12.112573273479939">
        <ele>14.49</ele>
        <time>2023-06-10T19:06:13.237Z</time>
      </trkpt>
      <trkpt lat="55.19076514989138" lon="12.11251426488161">
        <ele>14.42</ele>
        <time>2023-06-10T19:06:19.856Z</time>
      </trkpt>
      <trkpt lat="55.19082315266132" lon="12.112393816933036">
        <ele>14.34</ele>
        <time>2023-06-10T19:06:26.476Z</time>
      </trkpt>
      <trkpt lat="55.190851567313075" lon="12.112334808334708">
        <ele>14.32</ele>
        <time>2023-06-10T19:06:33.097Z</time>
      </trkpt>
      <trkpt lat="55.1909089833498" lon="12.112215533852577">
        <ele>14.32</ele>
        <time>2023-06-10T19:06:39.719Z</time>
      </trkpt>
      <trkpt lat="55.190966902300715" lon="12.112095085904002">
        <ele>14.36</ele>
        <time>2023-06-10T19:06:46.343Z</time>
      </trkpt>
      <trkpt lat="55.19099531695247" lon="12.112036077305675">
        <ele>14.4</ele>
        <time>2023-06-10T19:06:52.967Z</time>
      </trkpt>
      <trkpt lat="55.19102431833744" lon="12.111975811421871">
        <ele>14.47</ele>
        <time>2023-06-10T19:06:59.592Z</time>
      </trkpt>
      <trkpt lat="55.19105273298919" lon="12.111916802823544">
        <ele>14.56</ele>
        <time>2023-06-10T19:07:06.218Z</time>
      </trkpt>
      <trkpt lat="55.19122548401356" lon="12.111557889729738">
        <ele>15.33</ele>
        <time>2023-06-10T19:07:12.848Z</time>
      </trkpt>
      <trkpt lat="55.19128290005028" lon="12.111438699066639">
        <ele>15.53</ele>
        <time>2023-06-10T19:07:19.480Z</time>
      </trkpt>
      <trkpt lat="55.19136923365295" lon="12.111259242519736">
        <ele>15.79</ele>
        <time>2023-06-10T19:07:26.114Z</time>
      </trkpt>
      <trkpt lat="55.191570399329066" lon="12.110841237008572">
        <ele>16.3</ele>
        <time>2023-06-10T19:07:32.753Z</time>
      </trkpt>
      <trkpt lat="55.19177156500518" lon="12.110423315316439">
        <ele>16.69</ele>
        <time>2023-06-10T19:07:39.397Z</time>
      </trkpt>
      <trkpt lat="55.19185798242688" lon="12.110243858769536">
        <ele>16.92</ele>
        <time>2023-06-10T19:07:46.043Z</time>
      </trkpt>
      <trkpt lat="55.19197331741452" lon="12.11000413633883">
        <ele>17.27</ele>
        <time>2023-06-10T19:07:52.692Z</time>
      </trkpt>
      <trkpt lat="55.19208806566894" lon="12.1097656711936">
        <ele>17.67</ele>
        <time>2023-06-10T19:07:59.344Z</time>
      </trkpt>
      <trkpt lat="55.19223181530833" lon="12.109467023983598">
        <ele>18.28</ele>
        <time>2023-06-10T19:08:05.999Z</time>
      </trkpt>
      <trkpt lat="55.192375648766756" lon="12.109168292954564">
        <ele>18.83</ele>
        <time>2023-06-10T19:08:12.658Z</time>
      </trkpt>
      <trkpt lat="55.19243298098445" lon="12.109049018472433">
        <ele>19.07</ele>
        <time>2023-06-10T19:08:19.318Z</time>
      </trkpt>
      <trkpt lat="55.19249995239079" lon="12.108909962698817">
        <ele>19.23</ele>
        <time>2023-06-10T19:08:25.980Z</time>
      </trkpt>
      <trkpt lat="55.19255368039012" lon="12.108832094818354">
        <ele>19.34</ele>
        <time>2023-06-10T19:08:32.643Z</time>
      </trkpt>
      <trkpt lat="55.19269994460046" lon="12.108619948849082">
        <ele>19.67</ele>
        <time>2023-06-10T19:08:39.309Z</time>
      </trkpt>
      <trkpt lat="55.19280144944787" lon="12.108525233343244">
        <ele>19.88</ele>
        <time>2023-06-10T19:08:45.977Z</time>
      </trkpt>
      <trkpt lat="55.19284998066723" lon="12.108479971066117">
        <ele>19.95</ele>
        <time>2023-06-10T19:08:52.646Z</time>
      </trkpt>
      <trkpt lat="55.19299993291497" lon="12.108399923890829">
        <ele>20.18</ele>
        <time>2023-06-10T19:08:59.317Z</time>
      </trkpt>
      <trkpt lat="55.19300580024719" lon="12.108400594443083">
        <ele>20.18</ele>
        <time>2023-06-10T19:09:05.988Z</time>
      </trkpt>
      <trkpt lat="55.19318995065987" lon="12.108419956639409">
        <ele>20.48</ele>
        <time>2023-06-10T19:09:12.662Z</time>
      </trkpt>
      <trkpt lat="55.19361600279808" lon="12.108603604137897">
        <ele>21.2</ele>
        <time>2023-06-10T19:09:19.343Z</time>
      </trkpt>
      <trkpt lat="55.1937460899353" lon="12.108659762889147">
        <ele>21.37</ele>
        <time>2023-06-10T19:09:26.027Z</time>
      </trkpt>
      <trkpt lat="55.193961756303906" lon="12.10875271819532">
        <ele>21.57</ele>
        <time>2023-06-10T19:09:32.714Z</time>
      </trkpt>
      <trkpt lat="55.19404825754464" lon="12.108790017664433">
        <ele>21.63</ele>
        <time>2023-06-10T19:09:39.403Z</time>
      </trkpt>
      <trkpt lat="55.194135596975684" lon="12.108827652409673">
        <ele>21.66</ele>
        <time>2023-06-10T19:09:46.093Z</time>
      </trkpt>
      <trkpt lat="55.19430851563811" lon="12.108902167528868">
        <ele>21.7</ele>
        <time>2023-06-10T19:09:52.786Z</time>
      </trkpt>
      <trkpt lat="55.194610599428415" lon="12.109032506123185">
        <ele>21.7</ele>
        <time>2023-06-10T19:09:59.484Z</time>
      </trkpt>
      <trkpt lat="55.19482718780637" lon="12.109125796705484">
        <ele>21.61</ele>
        <time>2023-06-10T19:10:06.185Z</time>
      </trkpt>
      <trkpt lat="55.19485996104777" lon="12.109139962121844">
        <ele>21.6</ele>
        <time>2023-06-10T19:10:12.887Z</time>
      </trkpt>
      <trkpt lat="55.19504721276462" lon="12.10918815806508">
        <ele>21.58</ele>
        <time>2023-06-10T19:10:19.592Z</time>
      </trkpt>
      <trkpt lat="55.19517897628248" lon="12.109222020953894">
        <ele>21.6</ele>
        <time>2023-06-10T19:10:26.299Z</time>
      </trkpt>
      <trkpt lat="55.19526790827513" lon="12.109244903549552">
        <ele>21.64</ele>
        <time>2023-06-10T19:10:33.008Z</time>
      </trkpt>
      <trkpt lat="55.19539958797395" lon="12.109278766438365">
        <ele>21.76</ele>
        <time>2023-06-10T19:10:39.719Z</time>
      </trkpt>
      <trkpt lat="55.195532189682126" lon="12.109312796965241">
        <ele>21.93</ele>
        <time>2023-06-10T19:10:46.432Z</time>
      </trkpt>
      <trkpt lat="55.195559933781624" lon="12.109319921582937">
        <ele>21.97</ele>
        <time>2023-06-10T19:10:53.145Z</time>
      </trkpt>
      <trkpt lat="55.195664037019014" lon="12.109312545508146">
        <ele>22.14</ele>
        <time>2023-06-10T19:10:59.860Z</time>
      </trkpt>
      <trkpt lat="55.19569999538362" lon="12.109309947118163">
        <ele>22.16</ele>
        <time>2023-06-10T19:11:06.576Z</time>
      </trkpt>
      <trkpt lat="55.195819940418005" lon="12.109249932691455">
        <ele>22.24</ele>
        <time>2023-06-10T19:11:13.294Z</time>
      </trkpt>
      <trkpt lat="55.195836536586285" lon="12.109233336523175">
        <ele>22.26</ele>
        <time>2023-06-10T19:11:20.012Z</time>
      </trkpt>
      <trkpt lat="55.19592999480665" lon="12.109139962121844">
        <ele>22.36</ele>
        <time>2023-06-10T19:11:26.732Z</time>
      </trkpt>
      <trkpt lat="55.195970982313156" lon="12.109053377062082">
        <ele>22.42</ele>
        <time>2023-06-10T19:11:33.453Z</time>
      </trkpt>
      <trkpt lat="55.196026135236025" lon="12.108937036246061">
        <ele>22.53</ele>
        <time>2023-06-10T19:11:40.175Z</time>
      </trkpt>
      <trkpt lat="55.19613635726273" lon="12.108704186975956">
        <ele>22.87</ele>
        <time>2023-06-10T19:11:46.900Z</time>
      </trkpt>
      <trkpt lat="55.1961999759078" lon="12.10856999270618">
        <ele>23.1</ele>
        <time>2023-06-10T19:11:53.626Z</time>
      </trkpt>
      <trkpt lat="55.196251356974244" lon="12.108481144532561">
        <ele>23.27</ele>
        <time>2023-06-10T19:12:00.354Z</time>
      </trkpt>
      <trkpt lat="55.19640508107841" lon="12.108215689659119">
        <ele>23.8</ele>
        <time>2023-06-10T19:12:07.085Z</time>
      </trkpt>
      <trkpt lat="55.196529971435666" lon="12.107999939471483">
        <ele>24.16</ele>
        <time>2023-06-10T19:12:13.819Z</time>
      </trkpt>
      <trkpt lat="55.196529971435666" lon="12.107999939471483">
        <ele>24.16</ele>
        <time>2023-06-10T19:12:20.553Z</time>
      </trkpt>
      <trkpt lat="55.196589985862374" lon="12.107849987223744">
        <ele>24.26</ele>
        <time>2023-06-10T19:12:27.289Z</time>
      </trkpt>
      <trkpt lat="55.196744380518794" lon="12.107891729101539">
        <ele>24.42</ele>
        <time>2023-06-10T19:12:34.027Z</time>
      </trkpt>
      <trkpt lat="55.1969185564667" lon="12.107938751578331">
        <ele>24.64</ele>
        <time>2023-06-10T19:12:40.768Z</time>
      </trkpt>
      <trkpt lat="55.19700572825968" lon="12.107962304726243">
        <ele>24.79</ele>
        <time>2023-06-10T19:12:47.510Z</time>
      </trkpt>
      <trkpt lat="55.197224328294396" lon="12.108021397143602">
        <ele>25.23</ele>
        <time>2023-06-10T19:12:54.256Z</time>
      </trkpt>
      <trkpt lat="55.19730789586902" lon="12.108044028282166">
        <ele>25.32</ele>
        <time>2023-06-10T19:13:01.003Z</time>
      </trkpt>
      <trkpt lat="55.19732994027436" lon="12.108049979433417">
        <ele>25.33</ele>
        <time>2023-06-10T19:13:07.751Z</time>
      </trkpt>
      <trkpt lat="55.197428511455655" lon="12.108138659968972">
        <ele>25.42</ele>
        <time>2023-06-10T19:13:14.500Z</time>
      </trkpt>
      <trkpt lat="55.19752993248403" lon="12.10822993889451">
        <ele>25.55</ele>
        <time>2023-06-10T19:13:21.251Z</time>
      </trkpt>
      <trkpt lat="55.197729924693704" lon="12.108349967747927">
        <ele>25.81</ele>
        <time>2023-06-10T19:13:28.006Z</time>
      </trkpt>
      <trkpt lat="55.19775917753577" lon="12.10835943929851">
        <ele>25.85</ele>
        <time>2023-06-10T19:13:34.761Z</time>
      </trkpt>
      <trkpt lat="55.198065200820565" lon="12.108458932489157">
        <ele>26.13</ele>
        <time>2023-06-10T19:13:41.521Z</time>
      </trkpt>
      <trkpt lat="55.19812999293208" lon="12.108479971066117">
        <ele>26.17</ele>
        <time>2023-06-10T19:13:48.282Z</time>
      </trkpt>
      <trkpt lat="55.198192270472646" lon="12.1085240598768">
        <ele>26.23</ele>
        <time>2023-06-10T19:13:55.044Z</time>
      </trkpt>
      <trkpt lat="55.19836996681988" lon="12.108649956062436">
        <ele>26.34</ele>
        <time>2023-06-10T19:14:01.809Z</time>
      </trkpt>
      <trkpt lat="55.19846887327731" lon="12.108764536678791">
        <ele>26.42</ele>
        <time>2023-06-10T19:14:08.576Z</time>
      </trkpt>
      <trkpt lat="55.19855998456478" lon="12.108869981020689">
        <ele>26.41</ele>
        <time>2023-06-10T19:14:15.345Z</time>
      </trkpt>
      <trkpt lat="55.19860239699483" lon="12.108946340158582">
        <ele>26.41</ele>
        <time>2023-06-10T19:14:22.115Z</time>
      </trkpt>
      <trkpt lat="55.19870993681252" lon="12.109139962121844">
        <ele>26.42</ele>
        <time>2023-06-10T19:14:28.887Z</time>
      </trkpt>
      <trkpt lat="55.1987645868212" lon="12.1092873159796">
        <ele>26.44</ele>
        <time>2023-06-10T19:14:35.661Z</time>
      </trkpt>
      <trkpt lat="55.19880993291736" lon="12.109409943223">
        <ele>26.43</ele>
        <time>2023-06-10T19:14:42.436Z</time>
      </trkpt>
      <trkpt lat="55.19890842027962" lon="12.109825015068054">
        <ele>26.4</ele>
        <time>2023-06-10T19:14:49.215Z</time>
      </trkpt>
      <trkpt lat="55.19894999451935" lon="12.109999945387244">
        <ele>26.24</ele>
        <time>2023-06-10T19:14:55.996Z</time>
      </trkpt>
      <trkpt lat="55.19895133562386" lon="12.110043615102768">
        <ele>26.21</ele>
        <time>2023-06-10T19:15:02.777Z</time>
      </trkpt>
      <trkpt lat="55.19895636476576" lon="12.110199350863695">
        <ele>26.03</ele>
        <time>2023-06-10T19:15:09.560Z</time>
      </trkpt>
      <trkpt lat="55.19895996898413" lon="12.11030999198556">
        <ele>25.88</ele>
        <time>2023-06-10T19:15:16.344Z</time>
      </trkpt>
      <trkpt lat="55.19895720295608" lon="12.110354918986559">
        <ele>25.82</ele>
        <time>2023-06-10T19:15:23.128Z</time>
      </trkpt>
      <trkpt lat="55.198943205177784" lon="12.110586846247315">
        <ele>25.43</ele>
        <time>2023-06-10T19:15:29.914Z</time>
      </trkpt>
      <trkpt lat="55.19893993623555" lon="12.110639987513423">
        <ele>25.33</ele>
        <time>2023-06-10T19:15:36.701Z</time>
      </trkpt>
      <trkpt lat="55.19891210831702" lon="12.110893875360489">
        <ele>24.85</ele>
        <time>2023-06-10T19:15:43.490Z</time>
      </trkpt>
      <trkpt lat="55.198895344510674" lon="12.111047096550465">
        <ele>24.54</ele>
        <time>2023-06-10T19:15:50.281Z</time>
      </trkpt>
      <trkpt lat="55.19885997287929" lon="12.111369967460632">
        <ele>23.81</ele>
        <time>2023-06-10T19:15:57.075Z</time>
      </trkpt>
      <trkpt lat="55.198799623176455" lon="12.111725443974137">
        <ele>22.99</ele>
        <time>2023-06-10T19:16:03.872Z</time>
      </trkpt>
      <trkpt lat="55.19877430982888" lon="12.111874977126718">
        <ele>22.67</ele>
        <time>2023-06-10T19:16:10.671Z</time>
      </trkpt>
      <trkpt lat="55.19873633980751" lon="12.112098522484303">
        <ele>22.22</ele>
        <time>2023-06-10T19:16:17.472Z</time>
      </trkpt>
      <trkpt lat="55.1986350864172" lon="12.112695146352053">
        <ele>21.06</ele>
        <time>2023-06-10T19:16:24.278Z</time>
      </trkpt>
      <trkpt lat="55.19859720021486" lon="12.112918691709638">
        <ele>20.67</ele>
        <time>2023-06-10T19:16:31.087Z</time>
      </trkpt>
      <trkpt lat="55.19857180304825" lon="12.113068224862218">
        <ele>20.33</ele>
        <time>2023-06-10T19:16:37.897Z</time>
      </trkpt>
      <trkpt lat="55.19854640588164" lon="12.113217758014798">
        <ele>20.04</ele>
        <time>2023-06-10T19:16:44.708Z</time>
      </trkpt>
      <trkpt lat="55.198521092534065" lon="12.113367207348347">
        <ele>19.79</ele>
        <time>2023-06-10T19:16:51.521Z</time>
      </trkpt>
      <trkpt lat="55.19849544391036" lon="12.113518249243498">
        <ele>19.58</ele>
        <time>2023-06-10T19:16:58.335Z</time>
      </trkpt>
      <trkpt lat="55.19847004674375" lon="12.113667782396078">
        <ele>19.42</ele>
        <time>2023-06-10T19:17:05.151Z</time>
      </trkpt>
      <trkpt lat="55.19843190908432" lon="12.113892836496234">
        <ele>19.27</ele>
        <time>2023-06-10T19:17:11.969Z</time>
      </trkpt>
      <trkpt lat="55.19839368760586" lon="12.11411789059639">
        <ele>19.2</ele>
        <time>2023-06-10T19:17:18.789Z</time>
      </trkpt>
      <trkpt lat="55.19838999956846" lon="12.114139935001731">
        <ele>19.19</ele>
        <time>2023-06-10T19:17:25.609Z</time>
      </trkpt>
      <trkpt lat="55.19837281666696" lon="12.114269519224763">
        <ele>19.19</ele>
        <time>2023-06-10T19:17:32.431Z</time>
      </trkpt>
      <trkpt lat="55.19835270009935" lon="12.114421483129263">
        <ele>19.21</ele>
        <time>2023-06-10T19:17:39.254Z</time>
      </trkpt>
      <trkpt lat="55.19833258353174" lon="12.114573447033763">
        <ele>19.29</ele>
        <time>2023-06-10T19:17:46.078Z</time>
      </trkpt>
      <trkpt lat="55.1983224414289" lon="12.114650225266814">
        <ele>19.36</ele>
        <time>2023-06-10T19:17:52.903Z</time>
      </trkpt>
      <trkpt lat="55.1982999779284" lon="12.114819958806038">
        <ele>19.56</ele>
        <time>2023-06-10T19:17:59.730Z</time>
      </trkpt>
      <trkpt lat="55.19829411059618" lon="12.114879554137588">
        <ele>19.64</ele>
        <time>2023-06-10T19:18:06.557Z</time>
      </trkpt>
      <trkpt lat="55.19823359325528" lon="12.11549294181168">
        <ele>20.49</ele>
        <time>2023-06-10T19:18:13.390Z</time>
      </trkpt>
      <trkpt lat="55.19822998903692" lon="12.115529989823699">
        <ele>20.54</ele>
        <time>2023-06-10T19:18:20.223Z</time>
      </trkpt>
      <trkpt lat="55.19822713918984" lon="12.11564825847745">
        <ele>20.73</ele>
        <time>2023-06-10T19:18:27.057Z</time>
      </trkpt>
      <trkpt lat="55.19822336733341" lon="12.115802569314837">
        <ele>20.99</ele>
        <time>2023-06-10T19:18:33.893Z</time>
      </trkpt>
      <trkpt lat="55.198219595476985" lon="12.115958388894796">
        <ele>21.28</ele>
        <time>2023-06-10T19:18:40.730Z</time>
      </trkpt>
      <trkpt lat="55.19821590743959" lon="12.116114292293787">
        <ele>21.61</ele>
        <time>2023-06-10T19:18:47.569Z</time>
      </trkpt>
      <trkpt lat="55.19821213558316" lon="12.116268519312143">
        <ele>21.98</ele>
        <time>2023-06-10T19:18:54.409Z</time>
      </trkpt>
      <trkpt lat="55.19820995628834" lon="12.116359965875745">
        <ele>22.2</ele>
        <time>2023-06-10T19:19:01.250Z</time>
      </trkpt>
      <trkpt lat="55.19822487607598" lon="12.116733966395259">
        <ele>23.15</ele>
        <time>2023-06-10T19:19:08.094Z</time>
      </trkpt>
      <trkpt lat="55.19823107868433" lon="12.116888025775552">
        <ele>23.51</ele>
        <time>2023-06-10T19:19:14.940Z</time>
      </trkpt>
      <trkpt lat="55.1982341799885" lon="12.116964971646667">
        <ele>23.66</ele>
        <time>2023-06-10T19:19:21.786Z</time>
      </trkpt>
      <trkpt lat="55.19824038259685" lon="12.117120623588562">
        <ele>23.92</ele>
        <time>2023-06-10T19:19:28.634Z</time>
      </trkpt>
      <trkpt lat="55.19824968650937" lon="12.117353221401572">
        <ele>24.22</ele>
        <time>2023-06-10T19:19:35.484Z</time>
      </trkpt>
      <trkpt lat="55.19825588911772" lon="12.117507280781865">
        <ele>24.36</ele>
        <time>2023-06-10T19:19:42.335Z</time>
      </trkpt>
      <trkpt lat="55.19826821051538" lon="12.117816992104053">
        <ele>24.59</ele>
        <time>2023-06-10T19:19:49.189Z</time>
      </trkpt>
      <trkpt lat="55.19829302094877" lon="12.118436247110367">
        <ele>25.1</ele>
        <time>2023-06-10T19:19:56.049Z</time>
      </trkpt>
      <trkpt lat="55.198299223557115" lon="12.118591899052262">
        <ele>25.18</ele>
        <time>2023-06-10T19:20:02.910Z</time>
      </trkpt>
      <trkpt lat="55.198308527469635" lon="12.118824496865273">
        <ele>25.23</ele>
        <time>2023-06-10T19:20:09.774Z</time>
      </trkpt>
      <trkpt lat="55.19831473007798" lon="12.118978556245565">
        <ele>25.23</ele>
        <time>2023-06-10T19:20:16.639Z</time>
      </trkpt>
      <trkpt lat="55.19833333790302" lon="12.119443835690618">
        <ele>25.1</ele>
        <time>2023-06-10T19:20:23.508Z</time>
      </trkpt>
      <trkpt lat="55.19834255799651" lon="12.119674924761057">
        <ele>25.07</ele>
        <time>2023-06-10T19:20:30.379Z</time>
      </trkpt>
      <trkpt lat="55.1983499340713" lon="12.119859997183084">
        <ele>25.12</ele>
        <time>2023-06-10T19:20:37.252Z</time>
      </trkpt>
      <trkpt lat="55.19832981750369" lon="12.120116399601102">
        <ele>25.21</ele>
        <time>2023-06-10T19:20:44.127Z</time>
      </trkpt>
      <trkpt lat="55.198309952393174" lon="12.120369952172041">
        <ele>25.32</ele>
        <time>2023-06-10T19:20:51.005Z</time>
      </trkpt>
      <trkpt lat="55.19828732125461" lon="12.120475564152002">
        <ele>25.38</ele>
        <time>2023-06-10T19:20:57.884Z</time>
      </trkpt>
      <trkpt lat="55.198249937966466" lon="12.120649991557002">
        <ele>25.48</ele>
        <time>2023-06-10T19:21:04.765Z</time>
      </trkpt>
      <trkpt lat="55.19823141396046" lon="12.120712520554662">
        <ele>25.52</ele>
        <time>2023-06-10T19:21:11.646Z</time>
      </trkpt>
      <trkpt lat="55.198152204975486" lon="12.120979567989707">
        <ele>25.63</ele>
        <time>2023-06-10T19:21:18.530Z</time>
      </trkpt>
      <trkpt lat="55.19811239093542" lon="12.121113846078515">
        <ele>25.71</ele>
        <time>2023-06-10T19:21:25.415Z</time>
      </trkpt>
      <trkpt lat="55.198072995990515" lon="12.121246615424752">
        <ele>25.83</ele>
        <time>2023-06-10T19:21:32.302Z</time>
      </trkpt>
      <trkpt lat="55.197973838075995" lon="12.121580801904202">
        <ele>26.25</ele>
        <time>2023-06-10T19:21:39.192Z</time>
      </trkpt>
      <trkpt lat="55.197899993509054" lon="12.121829995885491">
        <ele>26.59</ele>
        <time>2023-06-10T19:21:46.085Z</time>
      </trkpt>
      <trkpt lat="55.197859928011894" lon="12.12199998088181">
        <ele>26.81</ele>
        <time>2023-06-10T19:21:52.979Z</time>
      </trkpt>
      <trkpt lat="55.197859928011894" lon="12.12199998088181">
        <ele>26.81</ele>
        <time>2023-06-10T19:21:59.873Z</time>
      </trkpt>
      <trkpt lat="55.197859928011894" lon="12.122179940342903">
        <ele>26.89</ele>
        <time>2023-06-10T19:22:06.769Z</time>
      </trkpt>
      <trkpt lat="55.197899993509054" lon="12.122379932552576">
        <ele>26.98</ele>
        <time>2023-06-10T19:22:13.667Z</time>
      </trkpt>
      <trkpt lat="55.197899993509054" lon="12.122379932552576">
        <ele>26.98</ele>
        <time>2023-06-10T19:22:20.565Z</time>
      </trkpt>
      <trkpt lat="55.19803997129202" lon="12.122689979150891">
        <ele>27.02</ele>
        <time>2023-06-10T19:22:27.467Z</time>
      </trkpt>
      <trkpt lat="55.1980634406209" lon="12.122736666351557">
        <ele>27.03</ele>
        <time>2023-06-10T19:22:34.369Z</time>
      </trkpt>
      <trkpt lat="55.19830014556646" lon="12.123207058757544">
        <ele>27.17</ele>
        <time>2023-06-10T19:22:41.277Z</time>
      </trkpt>
      <trkpt lat="55.19835907034576" lon="12.123324070125818">
        <ele>27.18</ele>
        <time>2023-06-10T19:22:48.186Z</time>
      </trkpt>
      <trkpt lat="55.19838882610202" lon="12.123383162543178">
        <ele>27.16</ele>
        <time>2023-06-10T19:22:55.096Z</time>
      </trkpt>
      <trkpt lat="55.19844766706228" lon="12.123500173911452">
        <ele>27.08</ele>
        <time>2023-06-10T19:23:02.008Z</time>
      </trkpt>
      <trkpt lat="55.19868437200785" lon="12.123970566317439">
        <ele>26.54</ele>
        <time>2023-06-10T19:23:08.925Z</time>
      </trkpt>
      <trkpt lat="55.198743883520365" lon="12.124088751152158">
        <ele>26.39</ele>
        <time>2023-06-10T19:23:15.844Z</time>
      </trkpt>
      <trkpt lat="55.19880280829966" lon="12.124205762520432">
        <ele>26.19</ele>
        <time>2023-06-10T19:23:22.764Z</time>
      </trkpt>
      <trkpt lat="55.1989509165287" lon="12.124500051140785">
        <ele>25.65</ele>
        <time>2023-06-10T19:23:29.688Z</time>
      </trkpt>
      <trkpt lat="55.19898058846593" lon="12.124559143558145">
        <ele>25.56</ele>
        <time>2023-06-10T19:23:36.612Z</time>
      </trkpt>
      <trkpt lat="55.199039513245225" lon="12.12467615492642">
        <ele>25.42</ele>
        <time>2023-06-10T19:23:43.538Z</time>
      </trkpt>
      <trkpt lat="55.19924704916775" lon="12.12508862838149">
        <ele>25.05</ele>
        <time>2023-06-10T19:23:50.469Z</time>
      </trkpt>
      <trkpt lat="55.199365485459566" lon="12.125323824584484">
        <ele>24.88</ele>
        <time>2023-06-10T19:23:57.403Z</time>
      </trkpt>
      <trkpt lat="55.19948383793235" lon="12.125559020787477">
        <ele>24.75</ele>
        <time>2023-06-10T19:24:04.340Z</time>
      </trkpt>
      <trkpt lat="55.19954267889261" lon="12.125676032155752">
        <ele>24.66</ele>
        <time>2023-06-10T19:24:11.278Z</time>
      </trkpt>
      <trkpt lat="55.19986806437373" lon="12.126322528347373">
        <ele>23.98</ele>
        <time>2023-06-10T19:24:18.224Z</time>
      </trkpt>
      <trkpt lat="55.19992749206722" lon="12.126440713182092">
        <ele>23.81</ele>
        <time>2023-06-10T19:24:25.171Z</time>
      </trkpt>
      <trkpt lat="55.199986416846514" lon="12.126557724550366">
        <ele>23.61</ele>
        <time>2023-06-10T19:24:32.120Z</time>
      </trkpt>
      <trkpt lat="55.20007560029626" lon="12.126735001802444">
        <ele>23.25</ele>
        <time>2023-06-10T19:24:39.071Z</time>
      </trkpt>
      <trkpt lat="55.20022312179208" lon="12.127028116956353">
        <ele>22.61</ele>
        <time>2023-06-10T19:24:46.026Z</time>
      </trkpt>
      <trkpt lat="55.200312389060855" lon="12.127205394208431">
        <ele>22.28</ele>
        <time>2023-06-10T19:24:52.983Z</time>
      </trkpt>
      <trkpt lat="55.20035999827087" lon="12.127299942076206">
        <ele>22.14</ele>
        <time>2023-06-10T19:24:59.941Z</time>
      </trkpt>
      <trkpt lat="55.20036930218339" lon="12.127324920147657">
        <ele>22.11</ele>
        <time>2023-06-10T19:25:06.899Z</time>
      </trkpt>
      <trkpt lat="55.200394028797746" lon="12.127390801906586">
        <ele>22.04</ele>
        <time>2023-06-10T19:25:13.858Z</time>
      </trkpt>
      <trkpt lat="55.200419928878546" lon="12.127459952607751">
        <ele>21.99</ele>
        <time>2023-06-10T19:25:20.818Z</time>
      </trkpt>
      <trkpt lat="55.20042504183948" lon="12.127611748874187">
        <ele>21.91</ele>
        <time>2023-06-10T19:25:27.779Z</time>
      </trkpt>
      <trkpt lat="55.20042998716235" lon="12.12775994092226">
        <ele>21.87</ele>
        <time>2023-06-10T19:25:34.741Z</time>
      </trkpt>
      <trkpt lat="55.200399979949" lon="12.127929925918579">
        <ele>21.82</ele>
        <time>2023-06-10T19:25:41.705Z</time>
      </trkpt>
      <trkpt lat="55.20033476874232" lon="12.128120278939605">
        <ele>21.77</ele>
        <time>2023-06-10T19:25:48.671Z</time>
      </trkpt>
      <trkpt lat="55.200219601392746" lon="12.128456812351942">
        <ele>21.7</ele>
        <time>2023-06-10T19:25:55.641Z</time>
      </trkpt>
      <trkpt lat="55.20012756809592" lon="12.128725703805685">
        <ele>21.73</ele>
        <time>2023-06-10T19:26:02.614Z</time>
      </trkpt>
      <trkpt lat="55.19998926669359" lon="12.129129711538553">
        <ele>21.84</ele>
        <time>2023-06-10T19:26:09.591Z</time>
      </trkpt>
      <trkpt lat="55.19991986453533" lon="12.129332385957241">
        <ele>21.96</ele>
        <time>2023-06-10T19:26:16.570Z</time>
      </trkpt>
      <trkpt lat="55.19985138438642" lon="12.129532378166914">
        <ele>22.14</ele>
        <time>2023-06-10T19:26:23.551Z</time>
      </trkpt>
      <trkpt lat="55.199690368026495" lon="12.130002686753869">
        <ele>22.73</ele>
        <time>2023-06-10T19:26:30.537Z</time>
      </trkpt>
      <trkpt lat="55.19964409992099" lon="12.130137803032994">
        <ele>22.86</ele>
        <time>2023-06-10T19:26:37.525Z</time>
      </trkpt>
      <trkpt lat="55.19959833472967" lon="12.130271578207612">
        <ele>22.94</ele>
        <time>2023-06-10T19:26:44.514Z</time>
      </trkpt>
      <trkpt lat="55.199552066624165" lon="12.130406694486737">
        <ele>22.95</ele>
        <time>2023-06-10T19:26:51.505Z</time>
      </trkpt>
      <trkpt lat="55.19950630143285" lon="12.130540469661355">
        <ele>22.91</ele>
        <time>2023-06-10T19:26:58.497Z</time>
      </trkpt>
      <trkpt lat="55.19946003332734" lon="12.13067558594048">
        <ele>22.79</ele>
        <time>2023-06-10T19:27:05.490Z</time>
      </trkpt>
      <trkpt lat="55.19943689927459" lon="12.130743227899075">
        <ele>22.71</ele>
        <time>2023-06-10T19:27:12.484Z</time>
      </trkpt>
      <trkpt lat="55.199259957298636" lon="12.1312599722296">
        <ele>21.98</ele>
        <time>2023-06-10T19:27:19.484Z</time>
      </trkpt>
      <trkpt lat="55.19925769418478" lon="12.131282603368163">
        <ele>21.96</ele>
        <time>2023-06-10T19:27:26.484Z</time>
      </trkpt>
      <trkpt lat="55.19923992455006" lon="12.131459964439273">
        <ele>21.62</ele>
        <time>2023-06-10T19:27:33.486Z</time>
      </trkpt>
      <trkpt lat="55.19924688152969" lon="12.131508411839604">
        <ele>21.53</ele>
        <time>2023-06-10T19:27:40.488Z</time>
      </trkpt>
      <trkpt lat="55.199259957298636" lon="12.131599942222238">
        <ele>21.32</ele>
        <time>2023-06-10T19:27:47.491Z</time>
      </trkpt>
      <trkpt lat="55.19928694702685" lon="12.131637074053288">
        <ele>21.19</ele>
        <time>2023-06-10T19:27:54.494Z</time>
      </trkpt>
      <trkpt lat="55.19933992065489" lon="12.13170999661088">
        <ele>20.88</ele>
        <time>2023-06-10T19:28:01.498Z</time>
      </trkpt>
      <trkpt lat="55.199357187375426" lon="12.131727179512382">
        <ele>20.8</ele>
        <time>2023-06-10T19:28:08.503Z</time>
      </trkpt>
      <trkpt lat="55.199472019448876" lon="12.131842011585832">
        <ele>20.14</ele>
        <time>2023-06-10T19:28:15.510Z</time>
      </trkpt>
      <trkpt lat="55.19956992007792" lon="12.131939996033907">
        <ele>19.52</ele>
        <time>2023-06-10T19:28:22.519Z</time>
      </trkpt>
      <trkpt lat="55.199627336114645" lon="12.131983749568462">
        <ele>19.18</ele>
        <time>2023-06-10T19:28:29.529Z</time>
      </trkpt>
      <trkpt lat="55.19982850179076" lon="12.132137306034565">
        <ele>17.91</ele>
        <time>2023-06-10T19:28:36.542Z</time>
      </trkpt>
      <trkpt lat="55.19994995556772" lon="12.13222992606461">
        <ele>17.11</ele>
        <time>2023-06-10T19:28:43.557Z</time>
      </trkpt>
      <trkpt lat="55.200073504820466" lon="12.132301675155759">
        <ele>16.34</ele>
        <time>2023-06-10T19:28:50.574Z</time>
      </trkpt>
      <trkpt lat="55.20023996941745" lon="12.132398318499327">
        <ele>15.35</ele>
        <time>2023-06-10T19:28:57.594Z</time>
      </trkpt>
      <trkpt lat="55.200354382395744" lon="12.132464786991477">
        <ele>14.81</ele>
        <time>2023-06-10T19:29:04.616Z</time>
      </trkpt>
      <trkpt lat="55.200468711555004" lon="12.132531171664596">
        <ele>14.31</ele>
        <time>2023-06-10T19:29:11.640Z</time>
      </trkpt>
      <trkpt lat="55.200569964945316" lon="12.132589928805828">
        <ele>13.62</ele>
        <time>2023-06-10T19:29:18.666Z</time>
      </trkpt>
      <trkpt lat="55.20059519447386" lon="12.132608368992805">
        <ele>13.45</ele>
        <time>2023-06-10T19:29:25.692Z</time>
      </trkpt>
      <trkpt lat="55.200718911364675" lon="12.132698642089963">
        <ele>12.65</ele>
        <time>2023-06-10T19:29:32.720Z</time>
      </trkpt>
      <trkpt lat="55.20080113783479" lon="12.132758656516671">
        <ele>12.16</ele>
        <time>2023-06-10T19:29:39.750Z</time>
      </trkpt>
      <trkpt lat="55.2009248547256" lon="12.132848929613829">
        <ele>11.48</ele>
        <time>2023-06-10T19:29:46.782Z</time>
      </trkpt>
      <trkpt lat="55.20093994215131" lon="12.132859993726015">
        <ele>11.4</ele>
        <time>2023-06-10T19:29:53.814Z</time>
      </trkpt>
      <trkpt lat="55.20100272260606" lon="12.132924115285277">
        <ele>11.06</ele>
        <time>2023-06-10T19:30:00.847Z</time>
      </trkpt>
      <trkpt lat="55.20111847668886" lon="12.133042383939028">
        <ele>10.51</ele>
        <time>2023-06-10T19:30:07.883Z</time>
      </trkpt>
      <trkpt lat="55.201233392581344" lon="12.133159898221493">
        <ele>10.01</ele>
        <time>2023-06-10T19:30:14.921Z</time>
      </trkpt>
      <trkpt lat="55.20131033845246" lon="12.13323843665421">
        <ele>9.72</ele>
        <time>2023-06-10T19:30:21.960Z</time>
      </trkpt>
      <trkpt lat="55.20138720050454" lon="12.13331705890596">
        <ele>9.4</ele>
        <time>2023-06-10T19:30:29.001Z</time>
      </trkpt>
      <trkpt lat="55.20150295458734" lon="12.13343532755971">
        <ele>9.01</ele>
        <time>2023-06-10T19:30:36.044Z</time>
      </trkpt>
      <trkpt lat="55.20154109224677" lon="12.133474303409457">
        <ele>8.91</ele>
        <time>2023-06-10T19:30:43.087Z</time>
      </trkpt>
      <trkpt lat="55.20165676251054" lon="12.133592572063208">
        <ele>8.69</ele>
        <time>2023-06-10T19:30:50.133Z</time>
      </trkpt>
      <trkpt lat="55.20177251659334" lon="12.133710840716958">
        <ele>8.52</ele>
        <time>2023-06-10T19:30:57.181Z</time>
      </trkpt>
      <trkpt lat="55.20184996537864" lon="12.133789965882897">
        <ele>8.45</ele>
        <time>2023-06-10T19:31:04.230Z</time>
      </trkpt>
      <trkpt lat="55.20184996537864" lon="12.133789965882897">
        <ele>8.45</ele>
        <time>2023-06-10T19:31:11.279Z</time>
      </trkpt>
      <trkpt lat="55.2019127458334" lon="12.13389909826219">
        <ele>8.41</ele>
        <time>2023-06-10T19:31:18.330Z</time>
      </trkpt>
      <trkpt lat="55.20197602920234" lon="12.134008901193738">
        <ele>8.4</ele>
        <time>2023-06-10T19:31:25.382Z</time>
      </trkpt>
      <trkpt lat="55.20203998312354" lon="12.13411996141076">
        <ele>8.4</ele>
        <time>2023-06-10T19:31:32.435Z</time>
      </trkpt>
      <trkpt lat="55.202119359746575" lon="12.134306961670518">
        <ele>8.42</ele>
        <time>2023-06-10T19:31:39.491Z</time>
      </trkpt>
      <trkpt lat="55.20230568945408" lon="12.134745586663485">
        <ele>8.36</ele>
        <time>2023-06-10T19:31:46.552Z</time>
      </trkpt>
      <trkpt lat="55.20251833833754" lon="12.13524623773992">
        <ele>8.18</ele>
        <time>2023-06-10T19:31:53.618Z</time>
      </trkpt>
      <trkpt lat="55.20257198251784" lon="12.135372636839747">
        <ele>8.1</ele>
        <time>2023-06-10T19:32:00.686Z</time>
      </trkpt>
      <trkpt lat="55.202651442959905" lon="12.135559720918536">
        <ele>7.93</ele>
        <time>2023-06-10T19:32:07.756Z</time>
      </trkpt>
      <trkpt lat="55.20292578265071" lon="12.136205798014998">
        <ele>7.28</ele>
        <time>2023-06-10T19:32:14.833Z</time>
      </trkpt>
      <trkpt lat="55.203074561432004" lon="12.136555910110474">
        <ele>6.88</ele>
        <time>2023-06-10T19:32:21.914Z</time>
      </trkpt>
      <trkpt lat="55.20313994027674" lon="12.136709969490767">
        <ele>6.65</ele>
        <time>2023-06-10T19:32:28.997Z</time>
      </trkpt>
      <trkpt lat="55.203270614147186" lon="12.137053878977895">
        <ele>6.16</ele>
        <time>2023-06-10T19:32:36.084Z</time>
      </trkpt>
      <trkpt lat="55.20332995802164" lon="12.137209950014949">
        <ele>5.8</ele>
        <time>2023-06-10T19:32:43.173Z</time>
      </trkpt>
      <trkpt lat="55.203341441228986" lon="12.137242052704096">
        <ele>5.73</ele>
        <time>2023-06-10T19:32:50.262Z</time>
      </trkpt>
      <trkpt lat="55.20347831770778" lon="12.137625440955162">
        <ele>4.81</ele>
        <time>2023-06-10T19:32:57.355Z</time>
      </trkpt>
      <trkpt lat="55.203529950231314" lon="12.13776994496584">
        <ele>4.5</ele>
        <time>2023-06-10T19:33:04.450Z</time>
      </trkpt>
      <trkpt lat="55.20356012508273" lon="12.13788921944797">
        <ele>4.27</ele>
        <time>2023-06-10T19:33:11.546Z</time>
      </trkpt>
      <trkpt lat="55.20359474234283" lon="12.138026179745793">
        <ele>4.03</ele>
        <time>2023-06-10T19:33:18.643Z</time>
      </trkpt>
      <trkpt lat="55.203629694879055" lon="12.138164481148124">
        <ele>3.82</ele>
        <time>2023-06-10T19:33:25.742Z</time>
      </trkpt>
      <trkpt lat="55.20366422832012" lon="12.138301357626915">
        <ele>3.64</ele>
        <time>2023-06-10T19:33:32.842Z</time>
      </trkpt>
      <trkpt lat="55.20375994965434" lon="12.138679968193173">
        <ele>3.21</ele>
        <time>2023-06-10T19:33:39.946Z</time>
      </trkpt>
      <trkpt lat="55.203805631026626" lon="12.138927821069956">
        <ele>2.95</ele>
        <time>2023-06-10T19:33:47.052Z</time>
      </trkpt>
      <trkpt lat="55.20384485833347" lon="12.139140721410513">
        <ele>2.75</ele>
        <time>2023-06-10T19:33:54.160Z</time>
      </trkpt>
      <trkpt lat="55.203884337097406" lon="12.139355214312673">
        <ele>2.58</ele>
        <time>2023-06-10T19:34:01.270Z</time>
      </trkpt>
      <trkpt lat="55.203936556354165" lon="12.139638690277934">
        <ele>2.41</ele>
        <time>2023-06-10T19:34:08.383Z</time>
      </trkpt>
      <trkpt lat="55.20396991632879" lon="12.139819990843534">
        <ele>2.3</ele>
        <time>2023-06-10T19:34:15.498Z</time>
      </trkpt>
      <trkpt lat="55.203975196927786" lon="12.139853602275252">
        <ele>2.29</ele>
        <time>2023-06-10T19:34:22.613Z</time>
      </trkpt>
      <trkpt lat="55.204008892178535" lon="12.14006943628192">
        <ele>2.2</ele>
        <time>2023-06-10T19:34:29.730Z</time>
      </trkpt>
      <trkpt lat="55.204108553007245" lon="12.140707885846496">
        <ele>2.15</ele>
        <time>2023-06-10T19:34:36.853Z</time>
      </trkpt>
      <trkpt lat="55.20416923798621" lon="12.14109705761075">
        <ele>2.14</ele>
        <time>2023-06-10T19:34:43.980Z</time>
      </trkpt>
      <trkpt lat="55.20423729903996" lon="12.141533335670829">
        <ele>2.01</ele>
        <time>2023-06-10T19:34:51.111Z</time>
      </trkpt>
      <trkpt lat="55.20433930680156" lon="12.142187040299177">
        <ele>1.93</ele>
        <time>2023-06-10T19:34:58.248Z</time>
      </trkpt>
      <trkpt lat="55.20455732010305" lon="12.143584052100778">
        <ele>1.82</ele>
        <time>2023-06-10T19:35:05.398Z</time>
      </trkpt>
      <trkpt lat="55.20461540669203" lon="12.14395646005869">
        <ele>1.81</ele>
        <time>2023-06-10T19:35:12.552Z</time>
      </trkpt>
      <trkpt lat="55.20467994734645" lon="12.144369939342141">
        <ele>1.83</ele>
        <time>2023-06-10T19:35:19.710Z</time>
      </trkpt>
      <trkpt lat="55.20475219935179" lon="12.14472466148436">
        <ele>1.85</ele>
        <time>2023-06-10T19:35:26.871Z</time>
      </trkpt>
      <trkpt lat="55.20478991791606" lon="12.144909985363483">
        <ele>1.88</ele>
        <time>2023-06-10T19:35:34.034Z</time>
      </trkpt>
      <trkpt lat="55.20489930175245" lon="12.145312987267971">
        <ele>1.98</ele>
        <time>2023-06-10T19:35:41.201Z</time>
      </trkpt>
      <trkpt lat="55.204949928447604" lon="12.145499987527728">
        <ele>2.03</ele>
        <time>2023-06-10T19:35:48.370Z</time>
      </trkpt>
      <trkpt lat="55.2050693705678" lon="12.145851608365774">
        <ele>2.15</ele>
        <time>2023-06-10T19:35:55.543Z</time>
      </trkpt>
      <trkpt lat="55.20512997172773" lon="12.146029975265265">
        <ele>2.18</ele>
        <time>2023-06-10T19:36:02.718Z</time>
      </trkpt>
      <trkpt lat="55.205160062760115" lon="12.146105244755745">
        <ele>2.2</ele>
        <time>2023-06-10T19:36:09.894Z</time>
      </trkpt>
      <trkpt lat="55.205233404412866" lon="12.146288473159075">
        <ele>2.29</ele>
        <time>2023-06-10T19:36:17.072Z</time>
      </trkpt>
      <trkpt lat="55.20535569638014" lon="12.146594328805804">
        <ele>2.48</ele>
        <time>2023-06-10T19:36:24.253Z</time>
      </trkpt>
      <trkpt lat="55.20540473051369" lon="12.146716956049204">
        <ele>2.53</ele>
        <time>2023-06-10T19:36:31.436Z</time>
      </trkpt>
      <trkpt lat="55.20550229586661" lon="12.146960869431496">
        <ele>2.58</ele>
        <time>2023-06-10T19:36:38.621Z</time>
      </trkpt>
      <trkpt lat="55.2055699378252" lon="12.147129932418466">
        <ele>2.65</ele>
        <time>2023-06-10T19:36:45.808Z</time>
      </trkpt>
      <trkpt lat="55.205797757953405" lon="12.147653885185719">
        <ele>2.89</ele>
        <time>2023-06-10T19:36:53.001Z</time>
      </trkpt>
      <trkpt lat="55.20586992613971" lon="12.147819930687547">
        <ele>2.93</ele>
        <time>2023-06-10T19:37:00.196Z</time>
      </trkpt>
      <trkpt lat="55.205915523692966" lon="12.147918669506907">
        <ele>2.97</ele>
        <time>2023-06-10T19:37:07.392Z</time>
      </trkpt>
      <trkpt lat="55.20598995499313" lon="12.148079937323928">
        <ele>3.0</ele>
        <time>2023-06-10T19:37:14.590Z</time>
      </trkpt>
      <trkpt lat="55.206219954416156" lon="12.14848998002708">
        <ele>3.1</ele>
        <time>2023-06-10T19:37:21.793Z</time>
      </trkpt>
      <trkpt lat="55.20634626969695" lon="12.148663653060794">
        <ele>3.15</ele>
        <time>2023-06-10T19:37:28.999Z</time>
      </trkpt>
      <trkpt lat="55.206414917483926" lon="12.148758033290505">
        <ele>3.15</ele>
        <time>2023-06-10T19:37:36.206Z</time>
      </trkpt>
      <trkpt lat="55.20645992830396" lon="12.148819975554943">
        <ele>3.14</ele>
        <time>2023-06-10T19:37:43.414Z</time>
      </trkpt>
      <trkpt lat="55.20662580616772" lon="12.14902407489717">
        <ele>3.11</ele>
        <time>2023-06-10T19:37:50.626Z</time>
      </trkpt>
      <trkpt lat="55.20671993494034" lon="12.149139996618032">
        <ele>3.07</ele>
        <time>2023-06-10T19:37:57.839Z</time>
      </trkpt>
      <trkpt lat="55.20683820359409" lon="12.149263545870781">
        <ele>3.04</ele>
        <time>2023-06-10T19:38:05.055Z</time>
      </trkpt>
      <trkpt lat="55.20693995989859" lon="12.14936999604106">
        <ele>2.94</ele>
        <time>2023-06-10T19:38:12.273Z</time>
      </trkpt>
      <trkpt lat="55.20725863985717" lon="12.149631176143885">
        <ele>2.65</ele>
        <time>2023-06-10T19:38:19.496Z</time>
      </trkpt>
      <trkpt lat="55.20741336978972" lon="12.149758078157902">
        <ele>2.55</ele>
        <time>2023-06-10T19:38:26.722Z</time>
      </trkpt>
      <trkpt lat="55.2075681835413" lon="12.149884980171919">
        <ele>2.49</ele>
        <time>2023-06-10T19:38:33.951Z</time>
      </trkpt>
      <trkpt lat="55.207806061953306" lon="12.15008002705872">
        <ele>2.23</ele>
        <time>2023-06-10T19:38:41.184Z</time>
      </trkpt>
      <trkpt lat="55.2080499753356" lon="12.150279935449362">
        <ele>2.0</ele>
        <time>2023-06-10T19:38:48.421Z</time>
      </trkpt>
      <trkpt lat="55.20808241330087" lon="12.150312457233667">
        <ele>1.97</ele>
        <time>2023-06-10T19:38:55.659Z</time>
      </trkpt>
      <trkpt lat="55.208309730514884" lon="12.150539690628648">
        <ele>1.77</ele>
        <time>2023-06-10T19:39:02.901Z</time>
      </trkpt>
      <trkpt lat="55.20833998918533" lon="12.150569949299097">
        <ele>1.74</ele>
        <time>2023-06-10T19:39:10.144Z</time>
      </trkpt>
      <trkpt lat="55.20849178545177" lon="12.150754099711776">
        <ele>1.62</ele>
        <time>2023-06-10T19:39:17.389Z</time>
      </trkpt>
      <trkpt lat="55.20870694890618" lon="12.151015112176538">
        <ele>1.51</ele>
        <time>2023-06-10T19:39:24.639Z</time>
      </trkpt>
      <trkpt lat="55.20872765220702" lon="12.15104017406702">
        <ele>1.49</ele>
        <time>2023-06-10T19:39:31.889Z</time>
      </trkpt>
      <trkpt lat="55.20874693058431" lon="12.151063475757837">
        <ele>1.45</ele>
        <time>2023-06-10T19:39:39.139Z</time>
      </trkpt>
      <trkpt lat="55.20880996249616" lon="12.151139918714762">
        <ele>1.4</ele>
        <time>2023-06-10T19:39:46.391Z</time>
      </trkpt>
      <trkpt lat="55.20896226167679" lon="12.15135826729238">
        <ele>1.29</ele>
        <time>2023-06-10T19:39:53.646Z</time>
      </trkpt>
      <trkpt lat="55.20906460471451" lon="12.151504950597882">
        <ele>1.23</ele>
        <time>2023-06-10T19:40:00.903Z</time>
      </trkpt>
      <trkpt lat="55.20910995081067" lon="12.151569994166493">
        <ele>1.21</ele>
        <time>2023-06-10T19:40:08.161Z</time>
      </trkpt>
      <trkpt lat="55.20938688889146" lon="12.152026556432247">
        <ele>1.1</ele>
        <time>2023-06-10T19:40:15.425Z</time>
      </trkpt>
      <trkpt lat="55.20947992801666" lon="12.152179945260286">
        <ele>1.09</ele>
        <time>2023-06-10T19:40:22.691Z</time>
      </trkpt>
      <trkpt lat="55.209637843072414" lon="12.152473563328385">
        <ele>1.08</ele>
        <time>2023-06-10T19:40:29.961Z</time>
      </trkpt>
      <trkpt lat="55.209764912724495" lon="12.15270976535976">
        <ele>1.09</ele>
        <time>2023-06-10T19:40:37.234Z</time>
      </trkpt>
      <trkpt lat="55.20985686220229" lon="12.152880672365427">
        <ele>1.17</ele>
        <time>2023-06-10T19:40:44.509Z</time>
      </trkpt>
      <trkpt lat="55.21010236814618" lon="12.153337150812149">
        <ele>1.25</ele>
        <time>2023-06-10T19:40:51.790Z</time>
      </trkpt>
      <trkpt lat="55.210189959034324" lon="12.15349992737174">
        <ele>1.28</ele>
        <time>2023-06-10T19:40:59.073Z</time>
      </trkpt>
      <trkpt lat="55.21055758930743" lon="12.154086995869875">
        <ele>1.43</ele>
        <time>2023-06-10T19:41:06.364Z</time>
      </trkpt>
      <trkpt lat="55.21078825928271" lon="12.154455380514264">
        <ele>1.56</ele>
        <time>2023-06-10T19:41:13.660Z</time>
      </trkpt>
      <trkpt lat="55.21080996841192" lon="12.154489997774363">
        <ele>1.56</ele>
        <time>2023-06-10T19:41:20.956Z</time>
      </trkpt>
      <trkpt lat="55.2111011557281" lon="12.154900208115578">
        <ele>1.68</ele>
        <time>2023-06-10T19:41:28.258Z</time>
      </trkpt>
      <trkpt lat="55.2112499345094" lon="12.15510992333293">
        <ele>1.75</ele>
        <time>2023-06-10T19:41:35.563Z</time>
      </trkpt>
      <trkpt lat="55.21141866222024" lon="12.155332127586007">
        <ele>1.83</ele>
        <time>2023-06-10T19:41:42.872Z</time>
      </trkpt>
      <trkpt lat="55.21166894584894" lon="12.155661536380649">
        <ele>1.9</ele>
        <time>2023-06-10T19:41:50.186Z</time>
      </trkpt>
      <trkpt lat="55.2118472289294" lon="12.155896313488483">
        <ele>1.98</ele>
        <time>2023-06-10T19:41:57.503Z</time>
      </trkpt>
      <trkpt lat="55.212039928883314" lon="12.156149949878454">
        <ele>1.99</ele>
        <time>2023-06-10T19:42:04.824Z</time>
      </trkpt>
      <trkpt lat="55.21209885366261" lon="12.15622253715992">
        <ele>2.0</ele>
        <time>2023-06-10T19:42:12.146Z</time>
      </trkpt>
      <trkpt lat="55.21217169240117" lon="12.156312223523855">
        <ele>2.02</ele>
        <time>2023-06-10T19:42:19.470Z</time>
      </trkpt>
      <trkpt lat="55.21224453113973" lon="12.156401993706822">
        <ele>2.06</ele>
        <time>2023-06-10T19:42:26.795Z</time>
      </trkpt>
      <trkpt lat="55.21235408261418" lon="12.156537109985948">
        <ele>2.15</ele>
        <time>2023-06-10T19:42:34.122Z</time>
      </trkpt>
      <trkpt lat="55.212642503902316" lon="12.15689250268042">
        <ele>2.28</ele>
        <time>2023-06-10T19:42:41.455Z</time>
      </trkpt>
      <trkpt lat="55.213029999285936" lon="12.157369935885072">
        <ele>2.37</ele>
        <time>2023-06-10T19:42:48.795Z</time>
      </trkpt>
      <trkpt lat="55.21313971839845" lon="12.157516283914447">
        <ele>2.4</ele>
        <time>2023-06-10T19:42:56.138Z</time>
      </trkpt>
      <trkpt lat="55.21323996596038" lon="12.157649975270033">
        <ele>2.41</ele>
        <time>2023-06-10T19:43:03.483Z</time>
      </trkpt>
      <trkpt lat="55.21329930983484" lon="12.157746367156506">
        <ele>2.42</ele>
        <time>2023-06-10T19:43:10.829Z</time>
      </trkpt>
      <trkpt lat="55.21342847496271" lon="12.157956501469016">
        <ele>2.53</ele>
        <time>2023-06-10T19:43:18.178Z</time>
      </trkpt>
      <trkpt lat="55.213719327002764" lon="12.158429240807891">
        <ele>2.74</ele>
        <time>2023-06-10T19:43:25.533Z</time>
      </trkpt>
      <trkpt lat="55.21394547075033" lon="12.158796871080995">
        <ele>2.95</ele>
        <time>2023-06-10T19:43:32.893Z</time>
      </trkpt>
      <trkpt lat="55.2141716144979" lon="12.15916458517313">
        <ele>3.09</ele>
        <time>2023-06-10T19:43:40.258Z</time>
      </trkpt>
      <trkpt lat="55.214333133772016" lon="12.159427190199494">
        <ele>3.24</ele>
        <time>2023-06-10T19:43:47.627Z</time>
      </trkpt>
      <trkpt lat="55.21446171216667" lon="12.159636234864593">
        <ele>3.33</ele>
        <time>2023-06-10T19:43:54.998Z</time>
      </trkpt>
      <trkpt lat="55.214557349681854" lon="12.159791635349393">
        <ele>3.42</ele>
        <time>2023-06-10T19:44:02.372Z</time>
      </trkpt>
      <trkpt lat="55.21468525752425" lon="12.159999590367079">
        <ele>3.51</ele>
        <time>2023-06-10T19:44:09.748Z</time>
      </trkpt>
      <trkpt lat="55.21493981592357" lon="12.160413404926658">
        <ele>3.6</ele>
        <time>2023-06-10T19:44:17.130Z</time>
      </trkpt>
      <trkpt lat="55.21500309929252" lon="12.160516250878572">
        <ele>3.68</ele>
        <time>2023-06-10T19:44:24.513Z</time>
      </trkpt>
      <trkpt lat="55.215029921382666" lon="12.160559920594096">
        <ele>3.7</ele>
        <time>2023-06-10T19:44:31.897Z</time>
      </trkpt>
      <trkpt lat="55.21506479009986" lon="12.160622114315629">
        <ele>3.73</ele>
        <time>2023-06-10T19:44:39.282Z</time>
      </trkpt>
      <trkpt lat="55.21527601405978" lon="12.160998713225126">
        <ele>3.85</ele>
        <time>2023-06-10T19:44:46.672Z</time>
      </trkpt>
      <trkpt lat="55.21533653140068" lon="12.161106672137976">
        <ele>3.86</ele>
        <time>2023-06-10T19:44:54.063Z</time>
      </trkpt>
      <trkpt lat="55.215456895530224" lon="12.161321332678199">
        <ele>3.85</ele>
        <time>2023-06-10T19:45:01.457Z</time>
      </trkpt>
      <trkpt lat="55.215629981830716" lon="12.161629954352975">
        <ele>3.75</ele>
        <time>2023-06-10T19:45:08.855Z</time>
      </trkpt>
      <trkpt lat="55.21563702262938" lon="12.161645293235779">
        <ele>3.75</ele>
        <time>2023-06-10T19:45:16.253Z</time>
      </trkpt>
      <trkpt lat="55.21576995961368" lon="12.161935390904546">
        <ele>3.76</ele>
        <time>2023-06-10T19:45:23.654Z</time>
      </trkpt>
      <trkpt lat="55.21584992296994" lon="12.162109985947609">
        <ele>3.78</ele>
        <time>2023-06-10T19:45:31.057Z</time>
      </trkpt>
      <trkpt lat="55.215922594070435" lon="12.162307212129235">
        <ele>3.81</ele>
        <time>2023-06-10T19:45:38.462Z</time>
      </trkpt>
      <trkpt lat="55.215989984571934" lon="12.162489937618375">
        <ele>3.87</ele>
        <time>2023-06-10T19:45:45.869Z</time>
      </trkpt>
      <trkpt lat="55.21629231981933" lon="12.1634107735008">
        <ele>4.21</ele>
        <time>2023-06-10T19:45:53.286Z</time>
      </trkpt>
      <trkpt lat="55.216421987861395" lon="12.163805644959211">
        <ele>4.33</ele>
        <time>2023-06-10T19:46:00.707Z</time>
      </trkpt>
      <trkpt lat="55.21652919240296" lon="12.164132203906775">
        <ele>4.47</ele>
        <time>2023-06-10T19:46:08.132Z</time>
      </trkpt>
      <trkpt lat="55.21676246076822" lon="12.164842654019594">
        <ele>4.67</ele>
        <time>2023-06-10T19:46:15.564Z</time>
      </trkpt>
      <trkpt lat="55.216910568997264" lon="12.165293516591191">
        <ele>4.74</ele>
        <time>2023-06-10T19:46:23.001Z</time>
      </trkpt>
      <trkpt lat="55.21702766418457" lon="12.165650082752109">
        <ele>4.76</ele>
        <time>2023-06-10T19:46:30.442Z</time>
      </trkpt>
      <trkpt lat="55.217089941725135" lon="12.165839932858944">
        <ele>4.76</ele>
        <time>2023-06-10T19:46:37.885Z</time>
      </trkpt>
      <trkpt lat="55.2172452583909" lon="12.166211251169443">
        <ele>4.78</ele>
        <time>2023-06-10T19:46:45.332Z</time>
      </trkpt>
      <trkpt lat="55.21731994114816" lon="12.16638995334506">
        <ele>4.75</ele>
        <time>2023-06-10T19:46:52.781Z</time>
      </trkpt>
      <trkpt lat="55.21731994114816" lon="12.16638995334506">
        <ele>4.75</ele>
        <time>2023-06-10T19:47:00.230Z</time>
      </trkpt>
      <trkpt lat="55.217372411862016" lon="12.166501097381115">
        <ele>4.75</ele>
        <time>2023-06-10T19:47:07.680Z</time>
      </trkpt>
      <trkpt lat="55.217452039942145" lon="12.166669992730021">
        <ele>4.78</ele>
        <time>2023-06-10T19:47:15.132Z</time>
      </trkpt>
      <trkpt lat="55.217584390193224" lon="12.166950702667236">
        <ele>4.87</ele>
        <time>2023-06-10T19:47:22.588Z</time>
      </trkpt>
      <trkpt lat="55.21781128831208" lon="12.167431823909283">
        <ele>4.99</ele>
        <time>2023-06-10T19:47:30.049Z</time>
      </trkpt>
      <trkpt lat="55.21795344538987" lon="12.1677331533283">
        <ele>5.11</ele>
        <time>2023-06-10T19:47:37.514Z</time>
      </trkpt>
      <trkpt lat="55.21814991720021" lon="12.16814998537302">
        <ele>5.36</ele>
        <time>2023-06-10T19:47:44.984Z</time>
      </trkpt>
      <trkpt lat="55.218209847807884" lon="12.168311085551977">
        <ele>5.45</ele>
        <time>2023-06-10T19:47:52.456Z</time>
      </trkpt>
      <trkpt lat="55.2182799205184" lon="12.168499929830432">
        <ele>5.64</ele>
        <time>2023-06-10T19:47:59.930Z</time>
      </trkpt>
      <trkpt lat="55.21834261715412" lon="12.168684247881174">
        <ele>5.84</ele>
        <time>2023-06-10T19:48:07.406Z</time>
      </trkpt>
      <trkpt lat="55.218428280204535" lon="12.168936124071479">
        <ele>6.06</ele>
        <time>2023-06-10T19:48:14.884Z</time>
      </trkpt>
      <trkpt lat="55.21844998933375" lon="12.168999994173646">
        <ele>6.13</ele>
        <time>2023-06-10T19:48:22.363Z</time>
      </trkpt>
      <trkpt lat="55.21851997822523" lon="12.169099990278482">
        <ele>6.28</ele>
        <time>2023-06-10T19:48:29.844Z</time>
      </trkpt>
      <trkpt lat="55.21874209865928" lon="12.169328480958939">
        <ele>6.73</ele>
        <time>2023-06-10T19:48:37.329Z</time>
      </trkpt>
      <trkpt lat="55.21875609643757" lon="12.169342814013362">
        <ele>6.81</ele>
        <time>2023-06-10T19:48:44.814Z</time>
      </trkpt>
      <trkpt lat="55.21886992268264" lon="12.1694599930197">
        <ele>7.0</ele>
        <time>2023-06-10T19:48:52.301Z</time>
      </trkpt>
      <trkpt lat="55.219044936820865" lon="12.169668283313513">
        <ele>7.31</ele>
        <time>2023-06-10T19:48:59.791Z</time>
      </trkpt>
      <trkpt lat="55.21907997317612" lon="12.169709941372275">
        <ele>7.36</ele>
        <time>2023-06-10T19:49:07.282Z</time>
      </trkpt>
      <trkpt lat="55.21911274641752" lon="12.16975905932486">
        <ele>7.42</ele>
        <time>2023-06-10T19:49:14.774Z</time>
      </trkpt>
      <trkpt lat="55.219199918210506" lon="12.1698899846524">
        <ele>7.52</ele>
        <time>2023-06-10T19:49:22.268Z</time>
      </trkpt>
      <trkpt lat="55.21929044276476" lon="12.170078493654728">
        <ele>7.65</ele>
        <time>2023-06-10T19:49:29.764Z</time>
      </trkpt>
      <trkpt lat="55.21931994706392" lon="12.170139933004975">
        <ele>7.67</ele>
        <time>2023-06-10T19:49:37.261Z</time>
      </trkpt>
      <trkpt lat="55.21934417076409" lon="12.170197013765574">
        <ele>7.7</ele>
        <time>2023-06-10T19:49:44.758Z</time>
      </trkpt>
      <trkpt lat="55.2194472681731" lon="12.170439837500453">
        <ele>7.73</ele>
        <time>2023-06-10T19:49:52.258Z</time>
      </trkpt>
      <trkpt lat="55.21952454932034" lon="12.17062197625637">
        <ele>7.7</ele>
        <time>2023-06-10T19:49:59.760Z</time>
      </trkpt>
      <trkpt lat="55.219755889847875" lon="12.171167135238647">
        <ele>7.5</ele>
        <time>2023-06-10T19:50:07.268Z</time>
      </trkpt>
      <trkpt lat="55.21980693563819" lon="12.171287331730127">
        <ele>7.43</ele>
        <time>2023-06-10T19:50:14.778Z</time>
      </trkpt>
      <trkpt lat="55.219935178756714" lon="12.171589583158493">
        <ele>7.2</ele>
        <time>2023-06-10T19:50:22.291Z</time>
      </trkpt>
      <trkpt lat="55.22008932195604" lon="12.171952603384852">
        <ele>6.88</ele>
        <time>2023-06-10T19:50:29.808Z</time>
      </trkpt>
      <trkpt lat="55.22026861086488" lon="12.172375051304698">
        <ele>6.63</ele>
        <time>2023-06-10T19:50:37.330Z</time>
      </trkpt>
      <trkpt lat="55.22044572047889" lon="12.17279247008264">
        <ele>6.42</ele>
        <time>2023-06-10T19:50:44.857Z</time>
      </trkpt>
      <trkpt lat="55.22070128470659" lon="12.173394542187452">
        <ele>6.27</ele>
        <time>2023-06-10T19:50:52.391Z</time>
      </trkpt>
      <trkpt lat="55.22077999077737" lon="12.173579949885607">
        <ele>6.28</ele>
        <time>2023-06-10T19:50:59.927Z</time>
      </trkpt>
      <trkpt lat="55.220823073759675" lon="12.173719173297286">
        <ele>6.3</ele>
        <time>2023-06-10T19:51:07.464Z</time>
      </trkpt>
      <trkpt lat="55.22088694386184" lon="12.173925619572401">
        <ele>6.3</ele>
        <time>2023-06-10T19:51:15.004Z</time>
      </trkpt>
      <trkpt lat="55.22095039486885" lon="12.174130724743009">
        <ele>6.27</ele>
        <time>2023-06-10T19:51:22.546Z</time>
      </trkpt>
      <trkpt lat="55.22111987695098" lon="12.17467806302011">
        <ele>6.13</ele>
        <time>2023-06-10T19:51:30.093Z</time>
      </trkpt>
      <trkpt lat="55.22124853916466" lon="12.175093805417418">
        <ele>6.09</ele>
        <time>2023-06-10T19:51:37.645Z</time>
      </trkpt>
      <trkpt lat="55.22137678228319" lon="12.175508122891188">
        <ele>6.02</ele>
        <time>2023-06-10T19:51:45.201Z</time>
      </trkpt>
      <trkpt lat="55.22175597958267" lon="12.176733138039708">
        <ele>5.63</ele>
        <time>2023-06-10T19:51:52.770Z</time>
      </trkpt>
      <trkpt lat="55.221886318176985" lon="12.17715441249311">
        <ele>5.54</ele>
        <time>2023-06-10T19:52:00.343Z</time>
      </trkpt>
      <trkpt lat="55.22194993682206" lon="12.177359936758876">
        <ele>5.43</ele>
        <time>2023-06-10T19:52:07.918Z</time>
      </trkpt>
      <trkpt lat="55.221998719498515" lon="12.17756294645369">
        <ele>5.33</ele>
        <time>2023-06-10T19:52:15.495Z</time>
      </trkpt>
      <trkpt lat="55.22203216329217" lon="12.177702505141497">
        <ele>5.28</ele>
        <time>2023-06-10T19:52:23.074Z</time>
      </trkpt>
      <trkpt lat="55.222065607085824" lon="12.177841980010271">
        <ele>5.27</ele>
        <time>2023-06-10T19:52:30.654Z</time>
      </trkpt>
      <trkpt lat="55.22206996567547" lon="12.177859917283058">
        <ele>5.27</ele>
        <time>2023-06-10T19:52:38.234Z</time>
      </trkpt>
      <trkpt lat="55.22210449911654" lon="12.178058484569192">
        <ele>5.31</ele>
        <time>2023-06-10T19:52:45.816Z</time>
      </trkpt>
      <trkpt lat="55.222129644826055" lon="12.178203240036964">
        <ele>5.37</ele>
        <time>2023-06-10T19:52:53.400Z</time>
      </trkpt>
      <trkpt lat="55.2221548743546" lon="12.178347995504737">
        <ele>5.46</ele>
        <time>2023-06-10T19:53:00.985Z</time>
      </trkpt>
      <trkpt lat="55.22219259291887" lon="12.178565170615911">
        <ele>5.63</ele>
        <time>2023-06-10T19:53:08.572Z</time>
      </trkpt>
      <trkpt lat="55.222240118309855" lon="12.178838169202209">
        <ele>5.8</ele>
        <time>2023-06-10T19:53:16.162Z</time>
      </trkpt>
      <trkpt lat="55.22228730842471" lon="12.179109659045935">
        <ele>6.01</ele>
        <time>2023-06-10T19:53:23.754Z</time>
      </trkpt>
      <trkpt lat="55.222314801067114" lon="12.179267993196845">
        <ele>6.1</ele>
        <time>2023-06-10T19:53:31.348Z</time>
      </trkpt>
      <trkpt lat="55.22235310636461" lon="12.179488185793161">
        <ele>6.3</ele>
        <time>2023-06-10T19:53:38.944Z</time>
      </trkpt>
      <trkpt lat="55.222378838807344" lon="12.179635958746076">
        <ele>6.48</ele>
        <time>2023-06-10T19:53:46.541Z</time>
      </trkpt>
      <trkpt lat="55.22242996841669" lon="12.179929995909333">
        <ele>6.92</ele>
        <time>2023-06-10T19:53:54.141Z</time>
      </trkpt>
      <trkpt lat="55.22242996841669" lon="12.179930079728365">
        <ele>6.92</ele>
        <time>2023-06-10T19:54:01.741Z</time>
      </trkpt>
      <trkpt lat="55.22254999727011" lon="12.180409943684936">
        <ele>7.77</ele>
        <time>2023-06-10T19:54:09.346Z</time>
      </trkpt>
      <trkpt lat="55.22255351766944" lon="12.180422181263566">
        <ele>7.77</ele>
        <time>2023-06-10T19:54:16.951Z</time>
      </trkpt>
      <trkpt lat="55.222612945362926" lon="12.180627370253205">
        <ele>8.06</ele>
        <time>2023-06-10T19:54:24.558Z</time>
      </trkpt>
      <trkpt lat="55.22271227091551" lon="12.180970441550016">
        <ele>8.48</ele>
        <time>2023-06-10T19:54:32.169Z</time>
      </trkpt>
      <trkpt lat="55.22279164753854" lon="12.181244613602757">
        <ele>8.72</ele>
        <time>2023-06-10T19:54:39.783Z</time>
      </trkpt>
      <trkpt lat="55.22287102416158" lon="12.181518785655499">
        <ele>8.86</ele>
        <time>2023-06-10T19:54:47.399Z</time>
      </trkpt>
      <trkpt lat="55.22293045185506" lon="12.181723974645138">
        <ele>8.9</ele>
        <time>2023-06-10T19:54:55.017Z</time>
      </trkpt>
      <trkpt lat="55.2230098284781" lon="12.181998146697879">
        <ele>8.89</ele>
        <time>2023-06-10T19:55:02.638Z</time>
      </trkpt>
      <trkpt lat="55.223076632246375" lon="12.182228732854128">
        <ele>8.82</ele>
        <time>2023-06-10T19:55:10.262Z</time>
      </trkpt>
      <trkpt lat="55.22315391339362" lon="12.182495864108205">
        <ele>8.64</ele>
        <time>2023-06-10T19:55:17.888Z</time>
      </trkpt>
      <trkpt lat="55.22323127835989" lon="12.182762995362282">
        <ele>8.41</ele>
        <time>2023-06-10T19:55:25.517Z</time>
      </trkpt>
      <trkpt lat="55.2233481220901" lon="12.18316650018096">
        <ele>7.98</ele>
        <time>2023-06-10T19:55:33.150Z</time>
      </trkpt>
      <trkpt lat="55.223386846482754" lon="12.183300023898482">
        <ele>7.74</ele>
        <time>2023-06-10T19:55:40.785Z</time>
      </trkpt>
      <trkpt lat="55.22340998053551" lon="12.183379987254739">
        <ele>7.57</ele>
        <time>2023-06-10T19:55:48.420Z</time>
      </trkpt>
      <trkpt lat="55.2234260737896" lon="12.183433044701815">
        <ele>7.46</ele>
        <time>2023-06-10T19:55:56.056Z</time>
      </trkpt>
      <trkpt lat="55.22360603325069" lon="12.18402598053217">
        <ele>6.07</ele>
        <time>2023-06-10T19:56:03.698Z</time>
      </trkpt>
      <trkpt lat="55.223685912787914" lon="12.184289088472724">
        <ele>5.47</ele>
        <time>2023-06-10T19:56:11.343Z</time>
      </trkpt>
      <trkpt lat="55.223749950528145" lon="12.18449997715652">
        <ele>5.22</ele>
        <time>2023-06-10T19:56:18.990Z</time>
      </trkpt>
      <trkpt lat="55.223770905286074" lon="12.18458111397922">
        <ele>5.13</ele>
        <time>2023-06-10T19:56:26.638Z</time>
      </trkpt>
      <trkpt lat="55.22380644455552" lon="12.184718996286392">
        <ele>5.01</ele>
        <time>2023-06-10T19:56:34.287Z</time>
      </trkpt>
      <trkpt lat="55.22382999770343" lon="12.184809939935803">
        <ele>4.82</ele>
        <time>2023-06-10T19:56:41.937Z</time>
      </trkpt>
      <trkpt lat="55.22384994663298" lon="12.184949917718768">
        <ele>4.57</ele>
        <time>2023-06-10T19:56:49.589Z</time>
      </trkpt>
      <trkpt lat="55.22384994663298" lon="12.184949917718768">
        <ele>4.57</ele>
        <time>2023-06-10T19:56:57.241Z</time>
      </trkpt>
      <trkpt lat="55.22385480813682" lon="12.185091823339462">
        <ele>4.31</ele>
        <time>2023-06-10T19:57:04.894Z</time>
      </trkpt>
      <trkpt lat="55.22386008873582" lon="12.185246050357819">
        <ele>4.07</ele>
        <time>2023-06-10T19:57:12.548Z</time>
      </trkpt>
      <trkpt lat="55.22386805154383" lon="12.185477390885353">
        <ele>3.77</ele>
        <time>2023-06-10T19:57:20.204Z</time>
      </trkpt>
      <trkpt lat="55.223894538357854" lon="12.186248609796166">
        <ele>3.02</ele>
        <time>2023-06-10T19:57:27.867Z</time>
      </trkpt>
      <trkpt lat="55.22390250116587" lon="12.186479950323701">
        <ele>2.84</ele>
        <time>2023-06-10T19:57:35.533Z</time>
      </trkpt>
      <trkpt lat="55.22391046397388" lon="12.186711374670267">
        <ele>2.72</ele>
        <time>2023-06-10T19:57:43.201Z</time>
      </trkpt>
      <trkpt lat="55.22391842678189" lon="12.186942715197802">
        <ele>2.66</ele>
        <time>2023-06-10T19:57:50.871Z</time>
      </trkpt>
      <trkpt lat="55.22393158636987" lon="12.18732669018209">
        <ele>2.64</ele>
        <time>2023-06-10T19:57:58.544Z</time>
      </trkpt>
      <trkpt lat="55.223939968273044" lon="12.187569933012128">
        <ele>2.6</ele>
        <time>2023-06-10T19:58:06.220Z</time>
      </trkpt>
      <trkpt lat="55.22394172847271" lon="12.187584517523646">
        <ele>2.6</ele>
        <time>2023-06-10T19:58:13.896Z</time>
      </trkpt>
      <trkpt lat="55.2239699754864" lon="12.187819965183735">
        <ele>2.58</ele>
        <time>2023-06-10T19:58:21.574Z</time>
      </trkpt>
      <trkpt lat="55.2239956241101" lon="12.18795357272029">
        <ele>2.57</ele>
        <time>2023-06-10T19:58:29.253Z</time>
      </trkpt>
      <trkpt lat="55.22403610870242" lon="12.188164293766022">
        <ele>2.59</ele>
        <time>2023-06-10T19:58:36.934Z</time>
      </trkpt>
      <trkpt lat="55.224198549985886" lon="12.18901002779603">
        <ele>2.61</ele>
        <time>2023-06-10T19:58:44.623Z</time>
      </trkpt>
      <trkpt lat="55.22422696463764" lon="12.189157968387008">
        <ele>2.57</ele>
        <time>2023-06-10T19:58:52.314Z</time>
      </trkpt>
      <trkpt lat="55.224255714565516" lon="12.189307417720556">
        <ele>2.57</ele>
        <time>2023-06-10T19:59:00.006Z</time>
      </trkpt>
      <trkpt lat="55.224341209977865" lon="12.189752664417028">
        <ele>2.73</ele>
        <time>2023-06-10T19:59:07.703Z</time>
      </trkpt>
      <trkpt lat="55.2244414575398" lon="12.190274186432362">
        <ele>2.88</ele>
        <time>2023-06-10T19:59:15.405Z</time>
      </trkpt>
      <trkpt lat="55.22446987219155" lon="12.19042212702334">
        <ele>2.9</ele>
        <time>2023-06-10T19:59:23.108Z</time>
      </trkpt>
      <trkpt lat="55.224555702880025" lon="12.190868882462382">
        <ele>2.9</ele>
        <time>2023-06-10T19:59:30.815Z</time>
      </trkpt>
      <trkpt lat="55.22458436898887" lon="12.19101833179593">
        <ele>2.92</ele>
        <time>2023-06-10T19:59:38.524Z</time>
      </trkpt>
      <trkpt lat="55.22461278364062" lon="12.191166272386909">
        <ele>2.98</ele>
        <time>2023-06-10T19:59:46.234Z</time>
      </trkpt>
      <trkpt lat="55.22469995543361" lon="12.191619984805584">
        <ele>3.22</ele>
        <time>2023-06-10T19:59:53.949Z</time>
      </trkpt>
      <trkpt lat="55.224718898534775" lon="12.191764991730452">
        <ele>3.3</ele>
        <time>2023-06-10T20:00:01.665Z</time>
      </trkpt>
      <trkpt lat="55.22472996264696" lon="12.191849984228611">
        <ele>3.35</ele>
        <time>2023-06-10T20:00:09.382Z</time>
      </trkpt>
      <trkpt lat="55.22473465651274" lon="12.19215533696115">
        <ele>3.56</ele>
        <time>2023-06-10T20:00:17.102Z</time>
      </trkpt>
      <trkpt lat="55.2247382607311" lon="12.19239179044962">
        <ele>3.66</ele>
        <time>2023-06-10T20:00:24.824Z</time>
      </trkpt>
      <trkpt lat="55.22473951801658" lon="12.19246898777783">
        <ele>3.66</ele>
        <time>2023-06-10T20:00:32.546Z</time>
      </trkpt>
      <trkpt lat="55.224739937111735" lon="12.192499917000532">
        <ele>3.64</ele>
        <time>2023-06-10T20:00:40.269Z</time>
      </trkpt>
      <trkpt lat="55.224749241024256" lon="12.192625645548105">
        <ele>3.6</ele>
        <time>2023-06-10T20:00:47.993Z</time>
      </trkpt>
      <trkpt lat="55.224759969860315" lon="12.19276998192072">
        <ele>3.48</ele>
        <time>2023-06-10T20:00:55.718Z</time>
      </trkpt>
      <trkpt lat="55.22476156242192" lon="12.192780124023557">
        <ele>3.48</ele>
        <time>2023-06-10T20:01:03.443Z</time>
      </trkpt>
      <trkpt lat="55.22480950690806" lon="12.193082375451922">
        <ele>3.19</ele>
        <time>2023-06-10T20:01:11.171Z</time>
      </trkpt>
      <trkpt lat="55.22485678084195" lon="12.193380184471607">
        <ele>3.02</ele>
        <time>2023-06-10T20:01:18.902Z</time>
      </trkpt>
      <trkpt lat="55.22492769174278" lon="12.193826772272587">
        <ele>2.89</ele>
        <time>2023-06-10T20:01:26.637Z</time>
      </trkpt>
      <trkpt lat="55.224986700341105" lon="12.194198928773403">
        <ele>2.81</ele>
        <time>2023-06-10T20:01:34.376Z</time>
      </trkpt>
      <trkpt lat="55.225021904334426" lon="12.194420713931322">
        <ele>2.66</ele>
        <time>2023-06-10T20:01:42.117Z</time>
      </trkpt>
      <trkpt lat="55.225116116926074" lon="12.195014655590057">
        <ele>2.33</ele>
        <time>2023-06-10T20:01:49.864Z</time>
      </trkpt>
      <trkpt lat="55.225163139402866" lon="12.19531087204814">
        <ele>2.21</ele>
        <time>2023-06-10T20:01:57.613Z</time>
      </trkpt>
      <trkpt lat="55.22519859485328" lon="12.19553416594863">
        <ele>2.18</ele>
        <time>2023-06-10T20:02:05.365Z</time>
      </trkpt>
      <trkpt lat="55.22522198036313" lon="12.195681519806385">
        <ele>2.19</ele>
        <time>2023-06-10T20:02:13.118Z</time>
      </trkpt>
      <trkpt lat="55.22528995759785" lon="12.196109918877482">
        <ele>2.32</ele>
        <time>2023-06-10T20:02:20.875Z</time>
      </trkpt>
      <trkpt lat="55.22529322654009" lon="12.196126263588667">
        <ele>2.33</ele>
        <time>2023-06-10T20:02:28.632Z</time>
      </trkpt>
      <trkpt lat="55.225339997559786" lon="12.19635995104909">
        <ele>2.29</ele>
        <time>2023-06-10T20:02:36.391Z</time>
      </trkpt>
      <trkpt lat="55.225339997559786" lon="12.19635995104909">
        <ele>2.29</ele>
        <time>2023-06-10T20:02:44.150Z</time>
      </trkpt>
      <trkpt lat="55.22536656819284" lon="12.196417534723878">
        <ele>2.29</ele>
        <time>2023-06-10T20:02:51.910Z</time>
      </trkpt>
      <trkpt lat="55.22545994259417" lon="12.19661995768547">
        <ele>2.29</ele>
        <time>2023-06-10T20:02:59.672Z</time>
      </trkpt>
      <trkpt lat="55.225449968129396" lon="12.196609983220696">
        <ele>2.29</ele>
        <time>2023-06-10T20:03:07.435Z</time>
      </trkpt>
      <trkpt lat="55.22545893676579" lon="12.196620544418693">
        <ele>2.29</ele>
        <time>2023-06-10T20:03:15.198Z</time>
      </trkpt>
      <trkpt lat="55.22555993869901" lon="12.196739986538887">
        <ele>2.35</ele>
        <time>2023-06-10T20:03:22.963Z</time>
      </trkpt>
      <trkpt lat="55.22567996755242" lon="12.196839982643723">
        <ele>2.42</ele>
        <time>2023-06-10T20:03:30.730Z</time>
      </trkpt>
      <trkpt lat="55.22573319263756" lon="12.19686814583838">
        <ele>2.46</ele>
        <time>2023-06-10T20:03:38.498Z</time>
      </trkpt>
      <trkpt lat="55.22586059756577" lon="12.19693562015891">
        <ele>2.49</ele>
        <time>2023-06-10T20:03:46.268Z</time>
      </trkpt>
      <trkpt lat="55.22603016346693" lon="12.197025390341878">
        <ele>2.57</ele>
        <time>2023-06-10T20:03:54.041Z</time>
      </trkpt>
      <trkpt lat="55.22624281235039" lon="12.197137959301472">
        <ele>2.62</ele>
        <time>2023-06-10T20:04:01.817Z</time>
      </trkpt>
      <trkpt lat="55.22652997635305" lon="12.197289923205972">
        <ele>2.79</ele>
        <time>2023-06-10T20:04:09.598Z</time>
      </trkpt>
      <trkpt lat="55.226739943027496" lon="12.197439959272742">
        <ele>2.92</ele>
        <time>2023-06-10T20:04:17.383Z</time>
      </trkpt>
      <trkpt lat="55.22698117420077" lon="12.197656631469727">
        <ele>3.08</ele>
        <time>2023-06-10T20:04:25.172Z</time>
      </trkpt>
      <trkpt lat="55.227060383185744" lon="12.197727793827653">
        <ele>3.15</ele>
        <time>2023-06-10T20:04:32.963Z</time>
      </trkpt>
      <trkpt lat="55.22717806510627" lon="12.197833489626646">
        <ele>3.29</ele>
        <time>2023-06-10T20:04:40.756Z</time>
      </trkpt>
      <trkpt lat="55.227257274091244" lon="12.197904651984572">
        <ele>3.52</ele>
        <time>2023-06-10T20:04:48.550Z</time>
      </trkpt>
      <trkpt lat="55.22732994519174" lon="12.197969947010279">
        <ele>3.74</ele>
        <time>2023-06-10T20:04:56.345Z</time>
      </trkpt>
      <trkpt lat="55.2274149376899" lon="12.198049826547503">
        <ele>4.02</ele>
        <time>2023-06-10T20:05:04.142Z</time>
      </trkpt>
      <trkpt lat="55.2275322843343" lon="12.198159964755177">
        <ele>4.34</ele>
        <time>2023-06-10T20:05:11.941Z</time>
      </trkpt>
      <trkpt lat="55.22765038534999" lon="12.198270941153169">
        <ele>4.58</ele>
        <time>2023-06-10T20:05:19.742Z</time>
      </trkpt>
      <trkpt lat="55.227728923782706" lon="12.198344701901078">
        <ele>4.68</ele>
        <time>2023-06-10T20:05:27.545Z</time>
      </trkpt>
      <trkpt lat="55.227768486365676" lon="12.19838191755116">
        <ele>4.71</ele>
        <time>2023-06-10T20:05:35.348Z</time>
      </trkpt>
      <trkpt lat="55.22784702479839" lon="12.198455594480038">
        <ele>4.74</ele>
        <time>2023-06-10T20:05:43.153Z</time>
      </trkpt>
      <trkpt lat="55.22808247245848" lon="12.198676792904735">
        <ele>4.73</ele>
        <time>2023-06-10T20:05:50.962Z</time>
      </trkpt>
      <trkpt lat="55.22827827371657" lon="12.198860691860318">
        <ele>4.75</ele>
        <time>2023-06-10T20:05:58.775Z</time>
      </trkpt>
      <trkpt lat="55.22847482934594" lon="12.199045345187187">
        <ele>4.82</ele>
        <time>2023-06-10T20:06:06.591Z</time>
      </trkpt>
      <trkpt lat="55.228631822392344" lon="12.199192782863975">
        <ele>4.85</ele>
        <time>2023-06-10T20:06:14.410Z</time>
      </trkpt>
      <trkpt lat="55.22906307131052" lon="12.199597796425223">
        <ele>4.97</ele>
        <time>2023-06-10T20:06:22.237Z</time>
      </trkpt>
      <trkpt lat="55.22933816537261" lon="12.199856210500002">
        <ele>4.94</ele>
        <time>2023-06-10T20:06:30.069Z</time>
      </trkpt>
      <trkpt lat="55.22949515841901" lon="12.20000364817679">
        <ele>5.0</ele>
        <time>2023-06-10T20:06:37.904Z</time>
      </trkpt>
      <trkpt lat="55.229729767888784" lon="12.200224008411169">
        <ele>5.22</ele>
        <time>2023-06-10T20:06:45.743Z</time>
      </trkpt>
      <trkpt lat="55.22979992441833" lon="12.200289973989129">
        <ele>5.32</ele>
        <time>2023-06-10T20:06:53.583Z</time>
      </trkpt>
      <trkpt lat="55.22981023415923" lon="12.200297769159079">
        <ele>5.34</ele>
        <time>2023-06-10T20:07:01.424Z</time>
      </trkpt>
      <trkpt lat="55.23004995658994" lon="12.200479991734028">
        <ele>5.81</ele>
        <time>2023-06-10T20:07:09.269Z</time>
      </trkpt>
      <trkpt lat="55.230057165026665" lon="12.200484350323677">
        <ele>5.81</ele>
        <time>2023-06-10T20:07:17.114Z</time>
      </trkpt>
      <trkpt lat="55.23018456995487" lon="12.20056221820414">
        <ele>5.96</ele>
        <time>2023-06-10T20:07:24.961Z</time>
      </trkpt>
      <trkpt lat="55.23022999987006" lon="12.200589962303638">
        <ele>5.98</ele>
        <time>2023-06-10T20:07:32.809Z</time>
      </trkpt>
      <trkpt lat="55.23022999987006" lon="12.200589962303638">
        <ele>5.98</ele>
        <time>2023-06-10T20:07:40.657Z</time>
      </trkpt>
      <trkpt lat="55.23031339980662" lon="12.200631871819496">
        <ele>5.97</ele>
        <time>2023-06-10T20:07:48.506Z</time>
      </trkpt>
      <trkpt lat="55.23053049109876" lon="12.200740836560726">
        <ele>5.88</ele>
        <time>2023-06-10T20:07:56.359Z</time>
      </trkpt>
      <trkpt lat="55.230659237131476" lon="12.200805461034179">
        <ele>5.89</ele>
        <time>2023-06-10T20:08:04.214Z</time>
      </trkpt>
      <trkpt lat="55.23078898899257" lon="12.200870588421822">
        <ele>5.97</ele>
        <time>2023-06-10T20:08:12.071Z</time>
      </trkpt>
      <trkpt lat="55.231005074456334" lon="12.200979050248861">
        <ele>6.17</ele>
        <time>2023-06-10T20:08:19.932Z</time>
      </trkpt>
      <trkpt lat="55.23117799311876" lon="12.201065886765718">
        <ele>6.29</ele>
        <time>2023-06-10T20:08:27.796Z</time>
      </trkpt>
      <trkpt lat="55.23126449435949" lon="12.201109305024147">
        <ele>6.34</ele>
        <time>2023-06-10T20:08:35.661Z</time>
      </trkpt>
      <trkpt lat="55.23139416240156" lon="12.201174348592758">
        <ele>6.37</ele>
        <time>2023-06-10T20:08:43.528Z</time>
      </trkpt>
      <trkpt lat="55.231999419629574" lon="12.201478192582726">
        <ele>6.3</ele>
        <time>2023-06-10T20:08:51.405Z</time>
      </trkpt>
      <trkpt lat="55.23212908767164" lon="12.20154331997037">
        <ele>6.31</ele>
        <time>2023-06-10T20:08:59.284Z</time>
      </trkpt>
      <trkpt lat="55.232302006334066" lon="12.201630072668195">
        <ele>6.35</ele>
        <time>2023-06-10T20:09:07.166Z</time>
      </trkpt>
      <trkpt lat="55.23243167437613" lon="12.201695200055838">
        <ele>6.32</ele>
        <time>2023-06-10T20:09:15.051Z</time>
      </trkpt>
      <trkpt lat="55.23251817561686" lon="12.201738618314266">
        <ele>6.23</ele>
        <time>2023-06-10T20:09:22.937Z</time>
      </trkpt>
      <trkpt lat="55.232647843658924" lon="12.201803745701909">
        <ele>6.01</ele>
        <time>2023-06-10T20:09:30.825Z</time>
      </trkpt>
      <trkpt lat="55.23273996077478" lon="12.201849929988384">
        <ele>5.79</ele>
        <time>2023-06-10T20:09:38.715Z</time>
      </trkpt>
      <trkpt lat="55.23277600295842" lon="12.201876416802406">
        <ele>5.71</ele>
        <time>2023-06-10T20:09:46.605Z</time>
      </trkpt>
      <trkpt lat="55.23288999684155" lon="12.201959984377027">
        <ele>5.39</ele>
        <time>2023-06-10T20:09:54.497Z</time>
      </trkpt>
      <trkpt lat="55.232938108965755" lon="12.202008096501231">
        <ele>5.26</ele>
        <time>2023-06-10T20:10:02.390Z</time>
      </trkpt>
      <trkpt lat="55.232989992946386" lon="12.202059980481863">
        <ele>5.18</ele>
        <time>2023-06-10T20:10:10.284Z</time>
      </trkpt>
      <trkpt lat="55.23307993076742" lon="12.202179925516248">
        <ele>5.04</ele>
        <time>2023-06-10T20:10:18.180Z</time>
      </trkpt>
      <trkpt lat="55.233136005699635" lon="12.202307246625423">
        <ele>4.93</ele>
        <time>2023-06-10T20:10:26.077Z</time>
      </trkpt>
      <trkpt lat="55.23318998515606" lon="12.202429957687855">
        <ele>4.84</ele>
        <time>2023-06-10T20:10:33.976Z</time>
      </trkpt>
      <trkpt lat="55.23318998515606" lon="12.202429957687855">
        <ele>4.84</ele>
        <time>2023-06-10T20:10:41.875Z</time>
      </trkpt>
      <trkpt lat="55.23325653746724" lon="12.202629698440433">
        <ele>4.75</ele>
        <time>2023-06-10T20:10:49.776Z</time>
      </trkpt>
      <trkpt lat="55.23334546945989" lon="12.202896578237414">
        <ele>4.71</ele>
        <time>2023-06-10T20:10:57.680Z</time>
      </trkpt>
      <trkpt lat="55.23342995904386" lon="12.20314996317029">
        <ele>4.61</ele>
        <time>2023-06-10T20:11:05.586Z</time>
      </trkpt>
      <trkpt lat="55.23347966372967" lon="12.203301591798663">
        <ele>4.56</ele>
        <time>2023-06-10T20:11:13.494Z</time>
      </trkpt>
      <trkpt lat="55.233568511903286" lon="12.203572243452072">
        <ele>4.44</ele>
        <time>2023-06-10T20:11:21.405Z</time>
      </trkpt>
      <trkpt lat="55.23365727625787" lon="12.203842978924513">
        <ele>4.35</ele>
        <time>2023-06-10T20:11:29.319Z</time>
      </trkpt>
      <trkpt lat="55.23372366093099" lon="12.204045318067074">
        <ele>4.25</ele>
        <time>2023-06-10T20:11:37.235Z</time>
      </trkpt>
      <trkpt lat="55.23376800119877" lon="12.204180601984262">
        <ele>4.21</ele>
        <time>2023-06-10T20:11:45.152Z</time>
      </trkpt>
      <trkpt lat="55.23381242528558" lon="12.204315969720483">
        <ele>4.21</ele>
        <time>2023-06-10T20:11:53.071Z</time>
      </trkpt>
      <trkpt lat="55.233901189640164" lon="12.204586621373892">
        <ele>4.32</ele>
        <time>2023-06-10T20:12:00.993Z</time>
      </trkpt>
      <trkpt lat="55.23394561372697" lon="12.204721989110112">
        <ele>4.4</ele>
        <time>2023-06-10T20:12:08.916Z</time>
      </trkpt>
      <trkpt lat="55.23403437808156" lon="12.204992724582553">
        <ele>4.6</ele>
        <time>2023-06-10T20:12:16.842Z</time>
      </trkpt>
      <trkpt lat="55.23407880216837" lon="12.205128008499742">
        <ele>4.72</ele>
        <time>2023-06-10T20:12:24.769Z</time>
      </trkpt>
      <trkpt lat="55.23412314243615" lon="12.205263376235962">
        <ele>4.87</ele>
        <time>2023-06-10T20:12:32.698Z</time>
      </trkpt>
      <trkpt lat="55.23423437029123" lon="12.20560242421925">
        <ele>5.35</ele>
        <time>2023-06-10T20:12:40.630Z</time>
      </trkpt>
      <trkpt lat="55.23424996063113" lon="12.205649949610233">
        <ele>5.43</ele>
        <time>2023-06-10T20:12:48.563Z</time>
      </trkpt>
      <trkpt lat="55.234422124922276" lon="12.20613308250904">
        <ele>6.28</ele>
        <time>2023-06-10T20:12:56.501Z</time>
      </trkpt>
      <trkpt lat="55.23449261672795" lon="12.206331063061953">
        <ele>6.59</ele>
        <time>2023-06-10T20:13:04.441Z</time>
      </trkpt>
      <trkpt lat="55.23458699695766" lon="12.206595847383142">
        <ele>6.94</ele>
        <time>2023-06-10T20:13:12.384Z</time>
      </trkpt>
      <trkpt lat="55.23465799167752" lon="12.20679516904056">
        <ele>7.15</ele>
        <time>2023-06-10T20:13:20.329Z</time>
      </trkpt>
      <trkpt lat="55.234728483483195" lon="12.206993149593472">
        <ele>7.29</ele>
        <time>2023-06-10T20:13:28.276Z</time>
      </trkpt>
      <trkpt lat="55.23479956202209" lon="12.20719238743186">
        <ele>7.38</ele>
        <time>2023-06-10T20:13:36.226Z</time>
      </trkpt>
      <trkpt lat="55.23503542877734" lon="12.20785447396338">
        <ele>7.51</ele>
        <time>2023-06-10T20:13:44.183Z</time>
      </trkpt>
      <trkpt lat="55.235082115978" lon="12.207985566928983">
        <ele>7.52</ele>
        <time>2023-06-10T20:13:52.141Z</time>
      </trkpt>
      <trkpt lat="55.23512980900705" lon="12.2081193421036">
        <ele>7.48</ele>
        <time>2023-06-10T20:14:00.101Z</time>
      </trkpt>
      <trkpt lat="55.23520080372691" lon="12.20831866376102">
        <ele>7.46</ele>
        <time>2023-06-10T20:14:08.063Z</time>
      </trkpt>
      <trkpt lat="55.235366597771645" lon="12.208784110844135">
        <ele>7.46</ele>
        <time>2023-06-10T20:14:16.030Z</time>
      </trkpt>
      <trkpt lat="55.235439939424396" lon="12.208989970386028">
        <ele>7.51</ele>
        <time>2023-06-10T20:14:23.999Z</time>
      </trkpt>
      <trkpt lat="55.235439939424396" lon="12.208989970386028">
        <ele>7.51</ele>
        <time>2023-06-10T20:14:31.968Z</time>
      </trkpt>
      <trkpt lat="55.23552317172289" lon="12.209259113296866">
        <ele>7.65</ele>
        <time>2023-06-10T20:14:39.940Z</time>
      </trkpt>
      <trkpt lat="55.235586958006024" lon="12.209465643391013">
        <ele>7.79</ele>
        <time>2023-06-10T20:14:47.914Z</time>
      </trkpt>
      <trkpt lat="55.235609924420714" lon="12.209539990872145">
        <ele>7.84</ele>
        <time>2023-06-10T20:14:55.889Z</time>
      </trkpt>
      <trkpt lat="55.23562643676996" lon="12.20960721373558">
        <ele>7.9</ele>
        <time>2023-06-10T20:15:03.864Z</time>
      </trkpt>
      <trkpt lat="55.23571436293423" lon="12.209966713562608">
        <ele>8.25</ele>
        <time>2023-06-10T20:15:11.843Z</time>
      </trkpt>
      <trkpt lat="55.23574981838465" lon="12.210111636668444">
        <ele>8.34</ele>
        <time>2023-06-10T20:15:19.823Z</time>
      </trkpt>
      <trkpt lat="55.235784938558936" lon="12.21025513485074">
        <ele>8.4</ele>
        <time>2023-06-10T20:15:27.805Z</time>
      </trkpt>
      <trkpt lat="55.235838163644075" lon="12.21047256141901">
        <ele>8.44</ele>
        <time>2023-06-10T20:15:35.789Z</time>
      </trkpt>
      <trkpt lat="55.23596154525876" lon="12.210976900532842">
        <ele>8.45</ele>
        <time>2023-06-10T20:15:43.778Z</time>
      </trkpt>
      <trkpt lat="55.23599666543305" lon="12.211120398715138">
        <ele>8.48</ele>
        <time>2023-06-10T20:15:51.768Z</time>
      </trkpt>
      <trkpt lat="55.23606757633388" lon="12.211410328745842">
        <ele>8.63</ele>
        <time>2023-06-10T20:15:59.761Z</time>
      </trkpt>
      <trkpt lat="55.23615558631718" lon="12.211769744753838">
        <ele>8.89</ele>
        <time>2023-06-10T20:16:07.758Z</time>
      </trkpt>
      <trkpt lat="55.23620839230716" lon="12.211985746398568">
        <ele>8.97</ele>
        <time>2023-06-10T20:16:15.757Z</time>
      </trkpt>
      <trkpt lat="55.23624384775758" lon="12.212130669504404">
        <ele>8.97</ele>
        <time>2023-06-10T20:16:23.757Z</time>
      </trkpt>
      <trkpt lat="55.23627896793187" lon="12.2122741676867">
        <ele>8.94</ele>
        <time>2023-06-10T20:16:31.759Z</time>
      </trkpt>
      <trkpt lat="55.236299922689795" lon="12.212359998375177">
        <ele>8.89</ele>
        <time>2023-06-10T20:16:39.762Z</time>
      </trkpt>
      <trkpt lat="55.236449958756566" lon="12.212909935042262">
        <ele>8.62</ele>
        <time>2023-06-10T20:16:47.770Z</time>
      </trkpt>
      <trkpt lat="55.2364759426564" lon="12.21297673881054">
        <ele>8.59</ele>
        <time>2023-06-10T20:16:55.779Z</time>
      </trkpt>
      <trkpt lat="55.23657677695155" lon="12.213235991075635">
        <ele>8.49</ele>
        <time>2023-06-10T20:17:03.791Z</time>
      </trkpt>
      <trkpt lat="55.23658993653953" lon="12.21326993778348">
        <ele>8.48</ele>
        <time>2023-06-10T20:17:11.803Z</time>
      </trkpt>
      <trkpt lat="55.23677995428443" lon="12.213639998808503">
        <ele>8.39</ele>
        <time>2023-06-10T20:17:19.820Z</time>
      </trkpt>
      <trkpt lat="55.23687860928476" lon="12.213790202513337">
        <ele>8.35</ele>
        <time>2023-06-10T20:17:27.839Z</time>
      </trkpt>
      <trkpt lat="55.23697701282799" lon="12.213940238580108">
        <ele>8.28</ele>
        <time>2023-06-10T20:17:35.860Z</time>
      </trkpt>
      <trkpt lat="55.23698992095888" lon="12.21395993605256">
        <ele>8.26</ele>
        <time>2023-06-10T20:17:43.881Z</time>
      </trkpt>
      <trkpt lat="55.23712587542832" lon="12.214095806702971">
        <ele>8.14</ele>
        <time>2023-06-10T20:17:51.905Z</time>
      </trkpt>
      <trkpt lat="55.23724992759526" lon="12.214219942688942">
        <ele>7.99</ele>
        <time>2023-06-10T20:17:59.931Z</time>
      </trkpt>
      <trkpt lat="55.23763993754983" lon="12.214509956538677">
        <ele>7.54</ele>
        <time>2023-06-10T20:18:07.964Z</time>
      </trkpt>
      <trkpt lat="55.23788586258888" lon="12.214689329266548">
        <ele>7.27</ele>
        <time>2023-06-10T20:18:16.001Z</time>
      </trkpt>
      <trkpt lat="55.23845876567066" lon="12.215107250958681">
        <ele>6.55</ele>
        <time>2023-06-10T20:18:24.048Z</time>
      </trkpt>
      <trkpt lat="55.238489946350455" lon="12.215129965916276">
        <ele>6.51</ele>
        <time>2023-06-10T20:18:32.096Z</time>
      </trkpt>
      <trkpt lat="55.23883167654276" lon="12.215362060815096">
        <ele>6.15</ele>
        <time>2023-06-10T20:18:40.150Z</time>
      </trkpt>
      <trkpt lat="55.23912185803056" lon="12.215559119358659">
        <ele>5.92</ele>
        <time>2023-06-10T20:18:48.209Z</time>
      </trkpt>
      <trkpt lat="55.239246832206845" lon="12.215643944218755">
        <ele>5.71</ele>
        <time>2023-06-10T20:18:56.270Z</time>
      </trkpt>
      <trkpt lat="55.239453949034214" lon="12.215784592553973">
        <ele>5.45</ele>
        <time>2023-06-10T20:19:04.334Z</time>
      </trkpt>
      <trkpt lat="55.23961999453604" lon="12.215897412970662">
        <ele>5.29</ele>
        <time>2023-06-10T20:19:12.401Z</time>
      </trkpt>
      <trkpt lat="55.23974496871233" lon="12.215982237830758">
        <ele>5.21</ele>
        <time>2023-06-10T20:19:20.470Z</time>
      </trkpt>
      <trkpt lat="55.23982996121049" lon="12.21603998914361">
        <ele>5.2</ele>
        <time>2023-06-10T20:19:28.541Z</time>
      </trkpt>
      <trkpt lat="55.239953342825174" lon="12.216117102652788">
        <ele>5.2</ele>
        <time>2023-06-10T20:19:36.614Z</time>
      </trkpt>
      <trkpt lat="55.24053957313299" lon="12.216483475640416">
        <ele>5.27</ele>
        <time>2023-06-10T20:19:44.697Z</time>
      </trkpt>
      <trkpt lat="55.240665804594755" lon="12.21656234934926">
        <ele>5.31</ele>
        <time>2023-06-10T20:19:52.782Z</time>
      </trkpt>
      <trkpt lat="55.2407911978662" lon="12.216640720143914">
        <ele>5.4</ele>
        <time>2023-06-10T20:20:00.869Z</time>
      </trkpt>
      <trkpt lat="55.2408741787076" lon="12.216692604124546">
        <ele>5.31</ele>
        <time>2023-06-10T20:20:08.958Z</time>
      </trkpt>
      <trkpt lat="55.24094995111227" lon="12.216739961877465">
        <ele>5.29</ele>
        <time>2023-06-10T20:20:17.048Z</time>
      </trkpt>
      <trkpt lat="55.24095724336803" lon="12.216744320467114">
        <ele>5.29</ele>
        <time>2023-06-10T20:20:25.138Z</time>
      </trkpt>
      <trkpt lat="55.24108154699206" lon="12.216818751767278">
        <ele>5.36</ele>
        <time>2023-06-10T20:20:33.230Z</time>
      </trkpt>
      <trkpt lat="55.24124834686518" lon="12.216918664053082">
        <ele>5.51</ele>
        <time>2023-06-10T20:20:41.325Z</time>
      </trkpt>
      <trkpt lat="55.241331746801734" lon="12.216968620195985">
        <ele>5.61</ele>
        <time>2023-06-10T20:20:49.421Z</time>
      </trkpt>
      <trkpt lat="55.24141514673829" lon="12.217018576338887">
        <ele>5.74</ele>
        <time>2023-06-10T20:20:57.519Z</time>
      </trkpt>
      <trkpt lat="55.24149854667485" lon="12.21706853248179">
        <ele>5.9</ele>
        <time>2023-06-10T20:21:05.618Z</time>
      </trkpt>
      <trkpt lat="55.2417479082942" lon="12.217217897996306">
        <ele>6.42</ele>
        <time>2023-06-10T20:21:13.721Z</time>
      </trkpt>
      <trkpt lat="55.24199810810387" lon="12.217367766425014">
        <ele>6.81</ele>
        <time>2023-06-10T20:21:21.829Z</time>
      </trkpt>
      <trkpt lat="55.242122411727905" lon="12.217442197725177">
        <ele>6.95</ele>
        <time>2023-06-10T20:21:29.939Z</time>
      </trkpt>
      <trkpt lat="55.24228921160102" lon="12.217542110010982">
        <ele>7.09</ele>
        <time>2023-06-10T20:21:38.052Z</time>
      </trkpt>
      <trkpt lat="55.24241426959634" lon="12.217617044225335">
        <ele>7.16</ele>
        <time>2023-06-10T20:21:46.167Z</time>
      </trkpt>
      <trkpt lat="55.24253857322037" lon="12.217691475525498">
        <ele>7.19</ele>
        <time>2023-06-10T20:21:54.284Z</time>
      </trkpt>
      <trkpt lat="55.24279304780066" lon="12.217843858525157">
        <ele>7.18</ele>
        <time>2023-06-10T20:22:02.405Z</time>
      </trkpt>
      <trkpt lat="55.24304752238095" lon="12.217996325343847">
        <ele>7.24</ele>
        <time>2023-06-10T20:22:10.530Z</time>
      </trkpt>
      <trkpt lat="55.24334365502" lon="12.218173686414957">
        <ele>7.26</ele>
        <time>2023-06-10T20:22:18.660Z</time>
      </trkpt>
      <trkpt lat="55.243555549532175" lon="12.218300672248006">
        <ele>7.35</ele>
        <time>2023-06-10T20:22:26.794Z</time>
      </trkpt>
      <trkpt lat="55.2436407096684" lon="12.218351634219289">
        <ele>7.41</ele>
        <time>2023-06-10T20:22:34.929Z</time>
      </trkpt>
      <trkpt lat="55.24376752786338" lon="12.218427574262023">
        <ele>7.53</ele>
        <time>2023-06-10T20:22:43.067Z</time>
      </trkpt>
      <trkpt lat="55.243852604180574" lon="12.218478536233306">
        <ele>7.57</ele>
        <time>2023-06-10T20:22:51.206Z</time>
      </trkpt>
      <trkpt lat="55.244149658828974" lon="12.218656484037638">
        <ele>7.62</ele>
        <time>2023-06-10T20:22:59.350Z</time>
      </trkpt>
      <trkpt lat="55.24453095160425" lon="12.21888480708003">
        <ele>7.64</ele>
        <time>2023-06-10T20:23:07.501Z</time>
      </trkpt>
      <trkpt lat="55.24486966431141" lon="12.219087732955813">
        <ele>7.63</ele>
        <time>2023-06-10T20:23:15.657Z</time>
      </trkpt>
      <trkpt lat="55.245081558823586" lon="12.21921463496983">
        <ele>7.52</ele>
        <time>2023-06-10T20:23:23.817Z</time>
      </trkpt>
      <trkpt lat="55.24529345333576" lon="12.21934162080288">
        <ele>7.47</ele>
        <time>2023-06-10T20:23:31.980Z</time>
      </trkpt>
      <trkpt lat="55.24554792791605" lon="12.219494003802538">
        <ele>7.34</ele>
        <time>2023-06-10T20:23:40.148Z</time>
      </trkpt>
      <trkpt lat="55.24584498256445" lon="12.21967195160687">
        <ele>7.26</ele>
        <time>2023-06-10T20:23:48.321Z</time>
      </trkpt>
      <trkpt lat="55.246014297008514" lon="12.219773372635245">
        <ele>7.26</ele>
        <time>2023-06-10T20:23:56.497Z</time>
      </trkpt>
      <trkpt lat="55.24622627533972" lon="12.219900274649262">
        <ele>7.23</ele>
        <time>2023-06-10T20:24:04.676Z</time>
      </trkpt>
      <trkpt lat="55.246311351656914" lon="12.219951236620545">
        <ele>7.25</ele>
        <time>2023-06-10T20:24:12.857Z</time>
      </trkpt>
      <trkpt lat="55.24639558978379" lon="12.220001695677638">
        <ele>7.29</ele>
        <time>2023-06-10T20:24:21.039Z</time>
      </trkpt>
      <trkpt lat="55.246759951114655" lon="12.220219960436225">
        <ele>7.53</ele>
        <time>2023-06-10T20:24:29.227Z</time>
      </trkpt>
      <trkpt lat="55.24681921117008" lon="12.220256924629211">
        <ele>7.58</ele>
        <time>2023-06-10T20:24:37.416Z</time>
      </trkpt>
      <trkpt lat="55.24698777124286" lon="12.220362201333046">
        <ele>7.65</ele>
        <time>2023-06-10T20:24:45.608Z</time>
      </trkpt>
      <trkpt lat="55.24707251228392" lon="12.220415091142058">
        <ele>7.72</ele>
        <time>2023-06-10T20:24:53.802Z</time>
      </trkpt>
      <trkpt lat="55.247198743745685" lon="12.22049388103187">
        <ele>7.9</ele>
        <time>2023-06-10T20:25:01.998Z</time>
      </trkpt>
      <trkpt lat="55.247536869719625" lon="12.220704853534698">
        <ele>8.51</ele>
        <time>2023-06-10T20:25:10.199Z</time>
      </trkpt>
      <trkpt lat="55.24762068875134" lon="12.22075724042952">
        <ele>8.6</ele>
        <time>2023-06-10T20:25:18.402Z</time>
      </trkpt>
      <trkpt lat="55.24778933264315" lon="12.220862517133355">
        <ele>8.71</ele>
        <time>2023-06-10T20:25:26.608Z</time>
      </trkpt>
      <trkpt lat="55.247874073684216" lon="12.220915406942368">
        <ele>8.75</ele>
        <time>2023-06-10T20:25:34.815Z</time>
      </trkpt>
      <trkpt lat="55.24816978722811" lon="12.221099976450205">
        <ele>8.78</ele>
        <time>2023-06-10T20:25:43.027Z</time>
      </trkpt>
      <trkpt lat="55.248380759730935" lon="12.22123165614903">
        <ele>8.86</ele>
        <time>2023-06-10T20:25:51.243Z</time>
      </trkpt>
      <trkpt lat="55.2485069911927" lon="12.221310446038842">
        <ele>8.96</ele>
        <time>2023-06-10T20:25:59.461Z</time>
      </trkpt>
      <trkpt lat="55.24876029230654" lon="12.22146861255169">
        <ele>9.22</ele>
        <time>2023-06-10T20:26:07.683Z</time>
      </trkpt>
      <trkpt lat="55.248928936198354" lon="12.221573805436492">
        <ele>9.34</ele>
        <time>2023-06-10T20:26:15.908Z</time>
      </trkpt>
      <trkpt lat="55.24901367723942" lon="12.221626695245504">
        <ele>9.34</ele>
        <time>2023-06-10T20:26:24.135Z</time>
      </trkpt>
      <trkpt lat="55.249097580090165" lon="12.221679082140326">
        <ele>9.3</ele>
        <time>2023-06-10T20:26:32.363Z</time>
      </trkpt>
      <trkpt lat="55.24930855259299" lon="12.221810761839151">
        <ele>9.1</ele>
        <time>2023-06-10T20:26:40.595Z</time>
      </trkpt>
      <trkpt lat="55.24947711266577" lon="12.221916038542986">
        <ele>8.96</ele>
        <time>2023-06-10T20:26:48.830Z</time>
      </trkpt>
      <trkpt lat="55.24956185370684" lon="12.221968928351998">
        <ele>8.91</ele>
        <time>2023-06-10T20:26:57.066Z</time>
      </trkpt>
      <trkpt lat="55.2496465947479" lon="12.22202181816101">
        <ele>8.89</ele>
        <time>2023-06-10T20:27:05.303Z</time>
      </trkpt>
      <trkpt lat="55.24985756725073" lon="12.222153497859836">
        <ele>8.9</ele>
        <time>2023-06-10T20:27:13.544Z</time>
      </trkpt>
      <trkpt lat="55.24989997968078" lon="12.222179984673858">
        <ele>8.89</ele>
        <time>2023-06-10T20:27:21.786Z</time>
      </trkpt>
      <trkpt lat="55.25027632713318" lon="12.22243219614029">
        <ele>8.84</ele>
        <time>2023-06-10T20:27:30.034Z</time>
      </trkpt>
      <trkpt lat="55.25040146894753" lon="12.222516098991036">
        <ele>8.87</ele>
        <time>2023-06-10T20:27:38.284Z</time>
      </trkpt>
      <trkpt lat="55.25065267458558" lon="12.222684407606721">
        <ele>9.0</ele>
        <time>2023-06-10T20:27:46.539Z</time>
      </trkpt>
      <trkpt lat="55.25077781639993" lon="12.222768310457468">
        <ele>9.12</ele>
        <time>2023-06-10T20:27:54.796Z</time>
      </trkpt>
      <trkpt lat="55.250903042033315" lon="12.222852213308215">
        <ele>9.27</ele>
        <time>2023-06-10T20:28:03.055Z</time>
      </trkpt>
      <trkpt lat="55.25118702091277" lon="12.223042482510209">
        <ele>9.36</ele>
        <time>2023-06-10T20:28:11.319Z</time>
      </trkpt>
      <trkpt lat="55.251349126920104" lon="12.223151111975312">
        <ele>9.36</ele>
        <time>2023-06-10T20:28:19.586Z</time>
      </trkpt>
      <trkpt lat="55.251474268734455" lon="12.22323501482606">
        <ele>9.27</ele>
        <time>2023-06-10T20:28:27.855Z</time>
      </trkpt>
      <trkpt lat="55.25176243856549" lon="12.223428133875132">
        <ele>9.16</ele>
        <time>2023-06-10T20:28:36.129Z</time>
      </trkpt>
      <trkpt lat="55.252010291442275" lon="12.223594263195992">
        <ele>9.02</ele>
        <time>2023-06-10T20:28:44.407Z</time>
      </trkpt>
      <trkpt lat="55.25209260173142" lon="12.22364941611886">
        <ele>8.99</ele>
        <time>2023-06-10T20:28:52.686Z</time>
      </trkpt>
      <trkpt lat="55.252588307484984" lon="12.223981590941548">
        <ele>9.1</ele>
        <time>2023-06-10T20:29:00.974Z</time>
      </trkpt>
      <trkpt lat="55.25274999439716" lon="12.224089968949556">
        <ele>8.99</ele>
        <time>2023-06-10T20:29:09.265Z</time>
      </trkpt>
      <trkpt lat="55.2528758905828" lon="12.224152917042375">
        <ele>8.91</ele>
        <time>2023-06-10T20:29:17.558Z</time>
      </trkpt>
      <trkpt lat="55.253042774274945" lon="12.224236400797963">
        <ele>8.84</ele>
        <time>2023-06-10T20:29:25.854Z</time>
      </trkpt>
      <trkpt lat="55.25320999324322" lon="12.224319968372583">
        <ele>8.6</ele>
        <time>2023-06-10T20:29:34.152Z</time>
      </trkpt>
      <trkpt lat="55.253246454522014" lon="12.224334804341197">
        <ele>8.56</ele>
        <time>2023-06-10T20:29:42.451Z</time>
      </trkpt>
      <trkpt lat="55.253411158919334" lon="12.224401943385601">
        <ele>8.4</ele>
        <time>2023-06-10T20:29:50.753Z</time>
      </trkpt>
      <trkpt lat="55.25353470817208" lon="12.22445223480463">
        <ele>8.36</ele>
        <time>2023-06-10T20:29:59.057Z</time>
      </trkpt>
      <trkpt lat="55.253698490560055" lon="12.224519038572907">
        <ele>8.4</ele>
        <time>2023-06-10T20:30:07.363Z</time>
      </trkpt>
      <trkpt lat="55.25374995544553" lon="12.224539993330836">
        <ele>8.32</ele>
        <time>2023-06-10T20:30:15.670Z</time>
      </trkpt>
      <trkpt lat="55.253809969872236" lon="12.22454996779561">
        <ele>8.24</ele>
        <time>2023-06-10T20:30:23.978Z</time>
      </trkpt>
      <trkpt lat="55.253869984298944" lon="12.224519960582256">
        <ele>8.16</ele>
        <time>2023-06-10T20:30:32.287Z</time>
      </trkpt>
      <trkpt lat="55.25390015915036" lon="12.224453492090106">
        <ele>8.1</ele>
        <time>2023-06-10T20:30:40.597Z</time>
      </trkpt>
      <trkpt lat="55.25391994044185" lon="12.224409990012646">
        <ele>8.06</ele>
        <time>2023-06-10T20:30:48.907Z</time>
      </trkpt>
      <trkpt lat="55.253936452791095" lon="12.22431200556457">
        <ele>8.0</ele>
        <time>2023-06-10T20:30:57.218Z</time>
      </trkpt>
      <trkpt lat="55.25394894182682" lon="12.224237825721502">
        <ele>7.98</ele>
        <time>2023-06-10T20:31:05.530Z</time>
      </trkpt>
      <trkpt lat="55.25397442281246" lon="12.224086532369256">
        <ele>7.97</ele>
        <time>2023-06-10T20:31:13.844Z</time>
      </trkpt>
      <trkpt lat="55.25399965234101" lon="12.22393674775958">
        <ele>7.99</ele>
        <time>2023-06-10T20:31:22.159Z</time>
      </trkpt>
      <trkpt lat="55.254050362855196" lon="12.223635585978627">
        <ele>8.1</ele>
        <time>2023-06-10T20:31:30.477Z</time>
      </trkpt>
      <trkpt lat="55.25407995097339" lon="12.223459985107183">
        <ele>8.08</ele>
        <time>2023-06-10T20:31:38.797Z</time>
      </trkpt>
      <trkpt lat="55.254129990935326" lon="12.223369963467121">
        <ele>8.07</ele>
        <time>2023-06-10T20:31:47.118Z</time>
      </trkpt>
      <trkpt lat="55.25417994707823" lon="12.223309949040413">
        <ele>8.07</ele>
        <time>2023-06-10T20:31:55.440Z</time>
      </trkpt>
      <trkpt lat="55.25426611304283" lon="12.223302237689495">
        <ele>8.06</ele>
        <time>2023-06-10T20:32:03.763Z</time>
      </trkpt>
      <trkpt lat="55.25448253378272" lon="12.223282707855105">
        <ele>8.08</ele>
        <time>2023-06-10T20:32:12.089Z</time>
      </trkpt>
      <trkpt lat="55.25478436611593" lon="12.22325555048883">
        <ele>8.22</ele>
        <time>2023-06-10T20:32:20.420Z</time>
      </trkpt>
      <trkpt lat="55.25499986484647" lon="12.223236188292503">
        <ele>8.42</ele>
        <time>2023-06-10T20:32:28.755Z</time>
      </trkpt>
      <trkpt lat="55.255179991945624" lon="12.22321992740035">
        <ele>8.51</ele>
        <time>2023-06-10T20:32:37.093Z</time>
      </trkpt>
      <trkpt lat="55.25548509322107" lon="12.223200229927897">
        <ele>8.68</ele>
        <time>2023-06-10T20:32:45.436Z</time>
      </trkpt>
      <trkpt lat="55.25561895221472" lon="12.22319159656763">
        <ele>8.83</ele>
        <time>2023-06-10T20:32:53.781Z</time>
      </trkpt>
      <trkpt lat="55.25584367103875" lon="12.223177095875144">
        <ele>8.98</ele>
        <time>2023-06-10T20:33:02.129Z</time>
      </trkpt>
      <trkpt lat="55.256112394854426" lon="12.223159745335579">
        <ele>9.24</ele>
        <time>2023-06-10T20:33:10.482Z</time>
      </trkpt>
      <trkpt lat="55.25629126466811" lon="12.223148178309202">
        <ele>9.37</ele>
        <time>2023-06-10T20:33:18.838Z</time>
      </trkpt>
      <trkpt lat="55.256426045671105" lon="12.223139461129904">
        <ele>9.43</ele>
        <time>2023-06-10T20:33:27.196Z</time>
      </trkpt>
      <trkpt lat="55.256694769486785" lon="12.223122110590339">
        <ele>9.45</ele>
        <time>2023-06-10T20:33:35.558Z</time>
      </trkpt>
      <trkpt lat="55.25696433149278" lon="12.223104676231742">
        <ele>9.53</ele>
        <time>2023-06-10T20:33:43.924Z</time>
      </trkpt>
      <trkpt lat="55.25705510750413" lon="12.223098808899522">
        <ele>9.57</ele>
        <time>2023-06-10T20:33:52.292Z</time>
      </trkpt>
      <trkpt lat="55.25732299312949" lon="12.223081542178988">
        <ele>9.73</ele>
        <time>2023-06-10T20:34:00.664Z</time>
      </trkpt>
      <trkpt lat="55.25741284713149" lon="12.223075674846768">
        <ele>9.74</ele>
        <time>2023-06-10T20:34:09.038Z</time>
      </trkpt>
      <trkpt lat="55.25777142494917" lon="12.223052540794015">
        <ele>9.68</ele>
        <time>2023-06-10T20:34:17.417Z</time>
      </trkpt>
      <trkpt lat="55.25804014876485" lon="12.22303519025445">
        <ele>9.74</ele>
        <time>2023-06-10T20:34:25.801Z</time>
      </trkpt>
      <trkpt lat="55.25830887258053" lon="12.223017839714885">
        <ele>9.73</ele>
        <time>2023-06-10T20:34:34.189Z</time>
      </trkpt>
      <trkpt lat="55.258578434586525" lon="12.223000405356288">
        <ele>9.79</ele>
        <time>2023-06-10T20:34:42.581Z</time>
      </trkpt>
      <trkpt lat="55.259026950225234" lon="12.222971487790346">
        <ele>9.74</ele>
        <time>2023-06-10T20:34:50.980Z</time>
      </trkpt>
      <trkpt lat="55.259049916639924" lon="12.222969979047775">
        <ele>9.74</ele>
        <time>2023-06-10T20:34:59.380Z</time>
      </trkpt>
      <trkpt lat="55.259115966036916" lon="12.222971320152283">
        <ele>9.77</ele>
        <time>2023-06-10T20:35:07.781Z</time>
      </trkpt>
      <trkpt lat="55.259205820038915" lon="12.22297316417098">
        <ele>9.84</ele>
        <time>2023-06-10T20:35:16.183Z</time>
      </trkpt>
      <trkpt lat="55.259385695680976" lon="12.222976768389344">
        <ele>10.02</ele>
        <time>2023-06-10T20:35:24.588Z</time>
      </trkpt>
      <trkpt lat="55.25953992269933" lon="12.22297995351255">
        <ele>10.15</ele>
        <time>2023-06-10T20:35:32.996Z</time>
      </trkpt>
      <trkpt lat="55.25965450331569" lon="12.222988000139594">
        <ele>10.25</ele>
        <time>2023-06-10T20:35:41.405Z</time>
      </trkpt>
      <trkpt lat="55.259789284318686" lon="12.222997387871146">
        <ele>10.32</ele>
        <time>2023-06-10T20:35:49.817Z</time>
      </trkpt>
      <trkpt lat="55.259923143312335" lon="12.223006775602698">
        <ele>10.36</ele>
        <time>2023-06-10T20:35:58.231Z</time>
      </trkpt>
      <trkpt lat="55.26032664813101" lon="12.223035106435418">
        <ele>10.42</ele>
        <time>2023-06-10T20:36:06.651Z</time>
      </trkpt>
      <trkpt lat="55.26041650213301" lon="12.223041392862797">
        <ele>10.4</ele>
        <time>2023-06-10T20:36:15.073Z</time>
      </trkpt>
      <trkpt lat="55.26064113713801" lon="12.22305715084076">
        <ele>10.29</ele>
        <time>2023-06-10T20:36:23.498Z</time>
      </trkpt>
      <trkpt lat="55.26073015294969" lon="12.223063353449106">
        <ele>10.28</ele>
        <time>2023-06-10T20:36:31.925Z</time>
      </trkpt>
      <trkpt lat="55.26110993698239" lon="12.22308992408216">
        <ele>10.4</ele>
        <time>2023-06-10T20:36:40.358Z</time>
      </trkpt>
      <trkpt lat="55.26113357394934" lon="12.22309336066246">
        <ele>10.41</ele>
        <time>2023-06-10T20:36:48.791Z</time>
      </trkpt>
      <trkpt lat="55.26122317649424" lon="12.223106101155281">
        <ele>10.41</ele>
        <time>2023-06-10T20:36:57.226Z</time>
      </trkpt>
      <trkpt lat="55.261389976367354" lon="12.22312998957932">
        <ele>10.36</ele>
        <time>2023-06-10T20:37:05.663Z</time>
      </trkpt>
      <trkpt lat="55.26144688948989" lon="12.22314415499568">
        <ele>10.35</ele>
        <time>2023-06-10T20:37:14.101Z</time>
      </trkpt>
      <trkpt lat="55.261579575017095" lon="12.22317734733224">
        <ele>10.35</ele>
        <time>2023-06-10T20:37:22.541Z</time>
      </trkpt>
      <trkpt lat="55.261629950255156" lon="12.223189920186996">
        <ele>10.36</ele>
        <time>2023-06-10T20:37:30.982Z</time>
      </trkpt>
      <trkpt lat="55.26171117089689" lon="12.223227303475142">
        <ele>10.38</ele>
        <time>2023-06-10T20:37:39.425Z</time>
      </trkpt>
      <trkpt lat="55.26188434101641" lon="12.223306931555271">
        <ele>10.46</ele>
        <time>2023-06-10T20:37:47.870Z</time>
      </trkpt>
      <trkpt lat="55.26245414279401" lon="12.223569033667445">
        <ele>10.47</ele>
        <time>2023-06-10T20:37:56.325Z</time>
      </trkpt>
      <trkpt lat="55.26262999512255" lon="12.22364991903305">
        <ele>10.38</ele>
        <time>2023-06-10T20:38:04.783Z</time>
      </trkpt>
      <trkpt lat="55.262668216601014" lon="12.22366651520133">
        <ele>10.37</ele>
        <time>2023-06-10T20:38:13.241Z</time>
      </trkpt>
      <trkpt lat="55.26279746554792" lon="12.223722590133548">
        <ele>10.33</ele>
        <time>2023-06-10T20:38:21.702Z</time>
      </trkpt>
      <trkpt lat="55.26292998343706" lon="12.223779922351241">
        <ele>10.3</ele>
        <time>2023-06-10T20:38:30.165Z</time>
      </trkpt>
      <trkpt lat="55.26296644471586" lon="12.223811522126198">
        <ele>10.3</ele>
        <time>2023-06-10T20:38:38.628Z</time>
      </trkpt>
      <trkpt lat="55.263165682554245" lon="12.223983937874436">
        <ele>10.3</ele>
        <time>2023-06-10T20:38:47.095Z</time>
      </trkpt>
      <trkpt lat="55.263364082202315" lon="12.224155683070421">
        <ele>10.28</ele>
        <time>2023-06-10T20:38:55.566Z</time>
      </trkpt>
      <trkpt lat="55.263449996709824" lon="12.224229946732521">
        <ele>10.18</ele>
        <time>2023-06-10T20:39:04.038Z</time>
      </trkpt>
      <trkpt lat="55.26348679326475" lon="12.224248386919498">
        <ele>10.14</ele>
        <time>2023-06-10T20:39:12.511Z</time>
      </trkpt>
      <trkpt lat="55.26352996006608" lon="12.22426992841065">
        <ele>10.11</ele>
        <time>2023-06-10T20:39:20.984Z</time>
      </trkpt>
      <trkpt lat="55.26357354596257" lon="12.224282417446375">
        <ele>10.09</ele>
        <time>2023-06-10T20:39:29.458Z</time>
      </trkpt>
      <trkpt lat="55.26359994895756" lon="12.22428996115923">
        <ele>10.08</ele>
        <time>2023-06-10T20:39:37.933Z</time>
      </trkpt>
      <trkpt lat="55.26367999613285" lon="12.22426992841065">
        <ele>10.08</ele>
        <time>2023-06-10T20:39:46.409Z</time>
      </trkpt>
      <trkpt lat="55.263705644756556" lon="12.224259367212653">
        <ele>10.08</ele>
        <time>2023-06-10T20:39:54.885Z</time>
      </trkpt>
      <trkpt lat="55.263836150988936" lon="12.224205639213324">
        <ele>10.12</ele>
        <time>2023-06-10T20:40:03.363Z</time>
      </trkpt>
      <trkpt lat="55.26392281986773" lon="12.224169932305813">
        <ele>10.18</ele>
        <time>2023-06-10T20:40:11.843Z</time>
      </trkpt>
      <trkpt lat="55.264009488746524" lon="12.224134309217334">
        <ele>10.28</ele>
        <time>2023-06-10T20:40:20.324Z</time>
      </trkpt>
      <trkpt lat="55.26413991115987" lon="12.224080581218004">
        <ele>10.46</ele>
        <time>2023-06-10T20:40:28.807Z</time>
      </trkpt>
      <trkpt lat="55.26418995112181" lon="12.224059961736202">
        <ele>10.54</ele>
        <time>2023-06-10T20:40:37.291Z</time>
      </trkpt>
      <trkpt lat="55.264316350221634" lon="12.22404420375824">
        <ele>10.74</ele>
        <time>2023-06-10T20:40:45.777Z</time>
      </trkpt>
      <trkpt lat="55.26434996165335" lon="12.224039928987622">
        <ele>10.78</ele>
        <time>2023-06-10T20:40:54.264Z</time>
      </trkpt>
      <trkpt lat="55.26444903574884" lon="12.224054094403982">
        <ele>10.92</ele>
        <time>2023-06-10T20:41:02.752Z</time>
      </trkpt>
      <trkpt lat="55.264673084020615" lon="12.224086113274097">
        <ele>11.16</ele>
        <time>2023-06-10T20:41:11.244Z</time>
      </trkpt>
      <trkpt lat="55.26476277038455" lon="12.22409893758595">
        <ele>11.29</ele>
        <time>2023-06-10T20:41:19.737Z</time>
      </trkpt>
      <trkpt lat="55.26489629410207" lon="12.22411796450615">
        <ele>11.52</ele>
        <time>2023-06-10T20:41:28.233Z</time>
      </trkpt>
      <trkpt lat="55.26498589664698" lon="12.224130788818002">
        <ele>11.64</ele>
        <time>2023-06-10T20:41:36.730Z</time>
      </trkpt>
      <trkpt lat="55.265343552455306" lon="12.224181918427348">
        <ele>12.04</ele>
        <time>2023-06-10T20:41:45.233Z</time>
      </trkpt>
      <trkpt lat="55.26556768454611" lon="12.224213937297463">
        <ele>12.23</ele>
        <time>2023-06-10T20:41:53.739Z</time>
      </trkpt>
      <trkpt lat="55.2656564489007" lon="12.224226593971252">
        <ele>12.28</ele>
        <time>2023-06-10T20:42:02.247Z</time>
      </trkpt>
      <trkpt lat="55.266014942899346" lon="12.22427780739963">
        <ele>12.34</ele>
        <time>2023-06-10T20:42:10.761Z</time>
      </trkpt>
      <trkpt lat="55.26646220125258" lon="12.224341677501798">
        <ele>12.32</ele>
        <time>2023-06-10T20:42:19.282Z</time>
      </trkpt>
      <trkpt lat="55.266550965607166" lon="12.224354417994618">
        <ele>12.27</ele>
        <time>2023-06-10T20:42:27.804Z</time>
      </trkpt>
      <trkpt lat="55.26664056815207" lon="12.22436715848744">
        <ele>12.17</ele>
        <time>2023-06-10T20:42:36.328Z</time>
      </trkpt>
      <trkpt lat="55.266730254516006" lon="12.224379982799292">
        <ele>12.03</ele>
        <time>2023-06-10T20:42:44.853Z</time>
      </trkpt>
      <trkpt lat="55.26681985706091" lon="12.224392807111144">
        <ele>11.86</ele>
        <time>2023-06-10T20:42:53.380Z</time>
      </trkpt>
      <trkpt lat="55.266908621415496" lon="12.224405463784933">
        <ele>11.67</ele>
        <time>2023-06-10T20:43:01.908Z</time>
      </trkpt>
      <trkpt lat="55.26713266968727" lon="12.224437482655048">
        <ele>11.11</ele>
        <time>2023-06-10T20:43:10.440Z</time>
      </trkpt>
      <trkpt lat="55.267149936407804" lon="12.224439997226">
        <ele>11.07</ele>
        <time>2023-06-10T20:43:18.972Z</time>
      </trkpt>
      <trkpt lat="55.26726694777608" lon="12.224418707191944">
        <ele>10.84</ele>
        <time>2023-06-10T20:43:27.506Z</time>
      </trkpt>
      <trkpt lat="55.26748965494335" lon="12.224378222599626">
        <ele>10.47</ele>
        <time>2023-06-10T20:43:36.043Z</time>
      </trkpt>
      <trkpt lat="55.26757908985019" lon="12.224361961707473">
        <ele>10.35</ele>
        <time>2023-06-10T20:43:44.582Z</time>
      </trkpt>
      <trkpt lat="55.26766860857606" lon="12.22434570081532">
        <ele>10.27</ele>
        <time>2023-06-10T20:43:53.122Z</time>
      </trkpt>
      <trkpt lat="55.267712362110615" lon="12.224337654188275">
        <ele>10.25</ele>
        <time>2023-06-10T20:44:01.663Z</time>
      </trkpt>
      <trkpt lat="55.26780188083649" lon="12.224321393296123">
        <ele>10.26</ele>
        <time>2023-06-10T20:44:10.205Z</time>
      </trkpt>
      <trkpt lat="55.26793607510626" lon="12.224297001957893">
        <ele>10.32</ele>
        <time>2023-06-10T20:44:18.749Z</time>
      </trkpt>
      <trkpt lat="55.26807018555701" lon="12.224272610619664">
        <ele>10.41</ele>
        <time>2023-06-10T20:44:27.296Z</time>
      </trkpt>
      <trkpt lat="55.26824821718037" lon="12.224240256473422">
        <ele>10.6</ele>
        <time>2023-06-10T20:44:35.846Z</time>
      </trkpt>
      <trkpt lat="55.268515683710575" lon="12.224191641435027">
        <ele>10.99</ele>
        <time>2023-06-10T20:44:44.400Z</time>
      </trkpt>
      <trkpt lat="55.268642753362656" lon="12.224168507382274">
        <ele>11.02</ele>
        <time>2023-06-10T20:44:52.956Z</time>
      </trkpt>
      <trkpt lat="55.26868994347751" lon="12.224159957841039">
        <ele>11.04</ele>
        <time>2023-06-10T20:45:01.513Z</time>
      </trkpt>
      <trkpt lat="55.26885355822742" lon="12.224114527925849">
        <ele>11.11</ele>
        <time>2023-06-10T20:45:10.072Z</time>
      </trkpt>
      <trkpt lat="55.268869986757636" lon="12.224109917879105">
        <ele>11.13</ele>
        <time>2023-06-10T20:45:18.632Z</time>
      </trkpt>
      <trkpt lat="55.26898113079369" lon="12.224054345861077">
        <ele>11.28</ele>
        <time>2023-06-10T20:45:27.193Z</time>
      </trkpt>
      <trkpt lat="55.26902999728918" lon="12.224029954522848">
        <ele>11.32</ele>
        <time>2023-06-10T20:45:35.755Z</time>
      </trkpt>
      <trkpt lat="55.26905975304544" lon="12.223990308120847">
        <ele>11.36</ele>
        <time>2023-06-10T20:45:44.318Z</time>
      </trkpt>
      <trkpt lat="55.269165029749274" lon="12.223849911242723">
        <ele>11.45</ele>
        <time>2023-06-10T20:45:52.883Z</time>
      </trkpt>
      <trkpt lat="55.26926955208182" lon="12.22371052019298">
        <ele>11.5</ele>
        <time>2023-06-10T20:46:01.450Z</time>
      </trkpt>
      <trkpt lat="55.26937482878566" lon="12.223570123314857">
        <ele>11.51</ele>
        <time>2023-06-10T20:46:10.019Z</time>
      </trkpt>
      <trkpt lat="55.269444985315204" lon="12.223476581275463">
        <ele>11.49</ele>
        <time>2023-06-10T20:46:18.590Z</time>
      </trkpt>
      <trkpt lat="55.26951522566378" lon="12.223382955417037">
        <ele>11.43</ele>
        <time>2023-06-10T20:46:27.162Z</time>
      </trkpt>
      <trkpt lat="55.26956995949149" lon="12.223309949040413">
        <ele>11.36</ele>
        <time>2023-06-10T20:46:35.735Z</time>
      </trkpt>
      <trkpt lat="55.2695866394788" lon="12.223296035081148">
        <ele>11.35</ele>
        <time>2023-06-10T20:46:44.308Z</time>
      </trkpt>
      <trkpt lat="55.269749918952584" lon="12.223159996792674">
        <ele>11.26</ele>
        <time>2023-06-10T20:46:52.884Z</time>
      </trkpt>
      <trkpt lat="55.269870115444064" lon="12.223099898546934">
        <ele>11.21</ele>
        <time>2023-06-10T20:47:01.462Z</time>
      </trkpt>
      <trkpt lat="55.270080333575606" lon="12.222994789481163">
        <ele>11.17</ele>
        <time>2023-06-10T20:47:10.044Z</time>
      </trkpt>
      <trkpt lat="55.27020572684705" lon="12.22293209284544">
        <ele>11.19</ele>
        <time>2023-06-10T20:47:18.628Z</time>
      </trkpt>
      <trkpt lat="55.270457435399294" lon="12.222806196659803">
        <ele>11.35</ele>
        <time>2023-06-10T20:47:27.216Z</time>
      </trkpt>
      <trkpt lat="55.27050998993218" lon="12.222779961302876">
        <ele>11.39</ele>
        <time>2023-06-10T20:47:35.805Z</time>
      </trkpt>
      <trkpt lat="55.27063999325037" lon="12.222779961302876">
        <ele>11.48</ele>
        <time>2023-06-10T20:47:44.396Z</time>
      </trkpt>
      <trkpt lat="55.2706850040704" lon="12.222792115062475">
        <ele>11.52</ele>
        <time>2023-06-10T20:47:52.988Z</time>
      </trkpt>
      <trkpt lat="55.270816599950194" lon="12.222827486693859">
        <ele>11.5</ele>
        <time>2023-06-10T20:48:01.582Z</time>
      </trkpt>
      <trkpt lat="55.270904609933496" lon="12.222851207479835">
        <ele>11.52</ele>
        <time>2023-06-10T20:48:10.177Z</time>
      </trkpt>
      <trkpt lat="55.2709926199168" lon="12.22287492826581">
        <ele>11.57</ele>
        <time>2023-06-10T20:48:18.774Z</time>
      </trkpt>
      <trkpt lat="55.27121214196086" lon="12.22293402068317">
        <ele>11.76</ele>
        <time>2023-06-10T20:48:27.374Z</time>
      </trkpt>
      <trkpt lat="55.27141992934048" lon="12.222989927977324">
        <ele>11.9</ele>
        <time>2023-06-10T20:48:35.978Z</time>
      </trkpt>
      <trkpt lat="55.271432753652334" lon="12.222991604357958">
        <ele>11.91</ele>
        <time>2023-06-10T20:48:44.582Z</time>
      </trkpt>
      <trkpt lat="55.27169820852578" lon="12.223026473075151">
        <ele>12.17</ele>
        <time>2023-06-10T20:48:53.190Z</time>
      </trkpt>
      <trkpt lat="55.27187573723495" lon="12.223049774765968">
        <ele>12.27</ele>
        <time>2023-06-10T20:49:01.801Z</time>
      </trkpt>
      <trkpt lat="55.272009344771504" lon="12.223067292943597">
        <ele>12.31</ele>
        <time>2023-06-10T20:49:10.414Z</time>
      </trkpt>
      <trkpt lat="55.27214211411774" lon="12.223084643483162">
        <ele>12.32</ele>
        <time>2023-06-10T20:49:19.029Z</time>
      </trkpt>
      <trkpt lat="55.27245241217315" lon="12.223125379532576">
        <ele>12.24</ele>
        <time>2023-06-10T20:49:27.649Z</time>
      </trkpt>
      <trkpt lat="55.27263999916613" lon="12.223149938508868">
        <ele>12.21</ele>
        <time>2023-06-10T20:49:36.272Z</time>
      </trkpt>
      <trkpt lat="55.27280998416245" lon="12.22312998957932">
        <ele>12.19</ele>
        <time>2023-06-10T20:49:44.898Z</time>
      </trkpt>
      <trkpt lat="55.27295515872538" lon="12.223089672625065">
        <ele>12.17</ele>
        <time>2023-06-10T20:49:53.526Z</time>
      </trkpt>
      <trkpt lat="55.27298994362354" lon="12.223079949617386">
        <ele>12.17</ele>
        <time>2023-06-10T20:50:02.155Z</time>
      </trkpt>
      <trkpt lat="55.273075019940734" lon="12.223040722310543">
        <ele>12.17</ele>
        <time>2023-06-10T20:50:10.785Z</time>
      </trkpt>
      <trkpt lat="55.273249950259924" lon="12.22295992076397">
        <ele>11.92</ele>
        <time>2023-06-10T20:50:19.418Z</time>
      </trkpt>
      <trkpt lat="55.273270066827536" lon="12.223179526627064">
        <ele>11.75</ele>
        <time>2023-06-10T20:50:28.053Z</time>
      </trkpt>
      <trkpt lat="55.273311557248235" lon="12.223633071407676">
        <ele>11.51</ele>
        <time>2023-06-10T20:50:36.693Z</time>
      </trkpt>
      <trkpt lat="55.27332538738847" lon="12.22378428094089">
        <ele>11.47</ele>
        <time>2023-06-10T20:50:45.334Z</time>
      </trkpt>
      <trkpt lat="55.2733807079494" lon="12.224389035254717">
        <ele>11.37</ele>
        <time>2023-06-10T20:50:53.981Z</time>
      </trkpt>
      <trkpt lat="55.27338992804289" lon="12.224489953368902">
        <ele>11.32</ele>
        <time>2023-06-10T20:51:02.628Z</time>
      </trkpt>
      <trkpt lat="55.27338992804289" lon="12.22469405271113">
        <ele>11.24</ele>
        <time>2023-06-10T20:51:11.277Z</time>
      </trkpt>
      <trkpt lat="55.27338992804289" lon="12.224922962486744">
        <ele>10.97</ele>
        <time>2023-06-10T20:51:19.928Z</time>
      </trkpt>
      <trkpt lat="55.27338992804289" lon="12.225009966641665">
        <ele>10.85</ele>
        <time>2023-06-10T20:51:28.580Z</time>
      </trkpt>
      <trkpt lat="55.27338674291968" lon="12.22507425583899">
        <ele>10.77</ele>
        <time>2023-06-10T20:51:37.233Z</time>
      </trkpt>
      <trkpt lat="55.27336050756276" lon="12.225604243576527">
        <ele>9.97</ele>
        <time>2023-06-10T20:51:45.891Z</time>
      </trkpt>
      <trkpt lat="55.27334550395608" lon="12.225906243547797">
        <ele>9.56</ele>
        <time>2023-06-10T20:51:54.551Z</time>
      </trkpt>
      <trkpt lat="55.27332999743521" lon="12.226219978183508">
        <ele>9.08</ele>
        <time>2023-06-10T20:52:03.214Z</time>
      </trkpt>
      <trkpt lat="55.27330258861184" lon="12.22659825347364">
        <ele>8.5</ele>
        <time>2023-06-10T20:52:11.881Z</time>
      </trkpt>
      <trkpt lat="55.273295883089304" lon="12.22669062204659">
        <ele>8.52</ele>
        <time>2023-06-10T20:52:20.549Z</time>
      </trkpt>
      <trkpt lat="55.27327995747328" lon="12.226909976452589">
        <ele>8.13</ele>
        <time>2023-06-10T20:52:29.219Z</time>
      </trkpt>
      <trkpt lat="55.27327995747328" lon="12.226922465488315">
        <ele>8.13</ele>
        <time>2023-06-10T20:52:37.889Z</time>
      </trkpt>
      <trkpt lat="55.27327995747328" lon="12.227077195420861">
        <ele>7.9</ele>
        <time>2023-06-10T20:52:46.560Z</time>
      </trkpt>
      <trkpt lat="55.27327995747328" lon="12.227289928123355">
        <ele>7.64</ele>
        <time>2023-06-10T20:52:55.233Z</time>
      </trkpt>
      <trkpt lat="55.2732961345464" lon="12.22738397307694">
        <ele>7.53</ele>
        <time>2023-06-10T20:53:03.907Z</time>
      </trkpt>
      <trkpt lat="55.27332999743521" lon="12.22757994197309">
        <ele>7.34</ele>
        <time>2023-06-10T20:53:12.583Z</time>
      </trkpt>
      <trkpt lat="55.273373164236546" lon="12.227745400741696">
        <ele>7.18</ele>
        <time>2023-06-10T20:53:21.261Z</time>
      </trkpt>
      <trkpt lat="55.27348380535841" lon="12.228168686851859">
        <ele>6.88</ele>
        <time>2023-06-10T20:53:29.943Z</time>
      </trkpt>
      <trkpt lat="55.27352546341717" lon="12.228327943012118">
        <ele>6.86</ele>
        <time>2023-06-10T20:53:38.626Z</time>
      </trkpt>
      <trkpt lat="55.27355999685824" lon="12.22845995798707">
        <ele>6.85</ele>
        <time>2023-06-10T20:53:47.311Z</time>
      </trkpt>
      <trkpt lat="55.27358992025256" lon="12.228629942983389">
        <ele>6.85</ele>
        <time>2023-06-10T20:53:55.997Z</time>
      </trkpt>
      <trkpt lat="55.27359997853637" lon="12.22886991687119">
        <ele>6.85</ele>
        <time>2023-06-10T20:54:04.686Z</time>
      </trkpt>
      <trkpt lat="55.27359997853637" lon="12.22886991687119">
        <ele>6.85</ele>
        <time>2023-06-10T20:54:13.375Z</time>
      </trkpt>
      <trkpt lat="55.27358556166291" lon="12.229082901030779">
        <ele>6.87</ele>
        <time>2023-06-10T20:54:22.066Z</time>
      </trkpt>
      <trkpt lat="55.27357022278011" lon="12.22930870950222">
        <ele>6.92</ele>
        <time>2023-06-10T20:54:30.759Z</time>
      </trkpt>
      <trkpt lat="55.273534851148725" lon="12.229832243174314">
        <ele>7.1</ele>
        <time>2023-06-10T20:54:39.457Z</time>
      </trkpt>
      <trkpt lat="55.2735242061317" lon="12.229989068582654">
        <ele>7.05</ele>
        <time>2023-06-10T20:54:48.156Z</time>
      </trkpt>
      <trkpt lat="55.27351372875273" lon="12.23014421761036">
        <ele>7.04</ele>
        <time>2023-06-10T20:54:56.856Z</time>
      </trkpt>
      <trkpt lat="55.27346637099981" lon="12.230843435972929">
        <ele>7.17</ele>
        <time>2023-06-10T20:55:05.563Z</time>
      </trkpt>
      <trkpt lat="55.273440051823854" lon="12.231232188642025">
        <ele>7.21</ele>
        <time>2023-06-10T20:55:14.273Z</time>
      </trkpt>
      <trkpt lat="55.273392694070935" lon="12.231931407004595">
        <ele>7.32</ele>
        <time>2023-06-10T20:55:22.990Z</time>
      </trkpt>
      <trkpt lat="55.273371655493975" lon="12.232241788879037">
        <ele>7.32</ele>
        <time>2023-06-10T20:55:31.710Z</time>
      </trkpt>
      <trkpt lat="55.27334005571902" lon="12.232708912342787">
        <ele>7.29</ele>
        <time>2023-06-10T20:55:40.434Z</time>
      </trkpt>
      <trkpt lat="55.27331901714206" lon="12.23301937803626">
        <ele>7.31</ele>
        <time>2023-06-10T20:55:49.161Z</time>
      </trkpt>
      <trkpt lat="55.273303259164095" lon="12.23325289785862">
        <ele>7.35</ele>
        <time>2023-06-10T20:55:57.890Z</time>
      </trkpt>
      <trkpt lat="55.2732926979661" lon="12.233408130705357">
        <ele>7.4</ele>
        <time>2023-06-10T20:56:06.620Z</time>
      </trkpt>
      <trkpt lat="55.273282220587134" lon="12.233563279733062">
        <ele>7.48</ele>
        <time>2023-06-10T20:56:15.352Z</time>
      </trkpt>
      <trkpt lat="55.27327174320817" lon="12.233718512579799">
        <ele>7.59</ele>
        <time>2023-06-10T20:56:24.085Z</time>
      </trkpt>
      <trkpt lat="55.273249950259924" lon="12.234039958566427">
        <ele>7.61</ele>
        <time>2023-06-10T20:56:32.821Z</time>
      </trkpt>
      <trkpt lat="55.27319563552737" lon="12.234327625483274">
        <ele>7.63</ele>
        <time>2023-06-10T20:56:41.560Z</time>
      </trkpt>
      <trkpt lat="55.27315347455442" lon="12.234550835564733">
        <ele>7.71</ele>
        <time>2023-06-10T20:56:50.301Z</time>
      </trkpt>
      <trkpt lat="55.273125395178795" lon="12.234699195250869">
        <ele>7.81</ele>
        <time>2023-06-10T20:56:59.044Z</time>
      </trkpt>
      <trkpt lat="55.27306932024658" lon="12.234995914623141">
        <ele>8.08</ele>
        <time>2023-06-10T20:57:07.790Z</time>
      </trkpt>
      <trkpt lat="55.27294283732772" lon="12.235665712505579">
        <ele>8.53</ele>
        <time>2023-06-10T20:57:16.542Z</time>
      </trkpt>
      <trkpt lat="55.27287259697914" lon="12.236037282273173">
        <ele>8.87</ele>
        <time>2023-06-10T20:57:25.298Z</time>
      </trkpt>
      <trkpt lat="55.27277436107397" lon="12.236557211726904">
        <ele>9.29</ele>
        <time>2023-06-10T20:57:34.059Z</time>
      </trkpt>
      <trkpt lat="55.272704204544425" lon="12.23692886531353">
        <ele>9.54</ele>
        <time>2023-06-10T20:57:42.823Z</time>
      </trkpt>
      <trkpt lat="55.27266992256045" lon="12.237109998241067">
        <ele>9.62</ele>
        <time>2023-06-10T20:57:51.589Z</time>
      </trkpt>
      <trkpt lat="55.27265994809568" lon="12.237319964915514">
        <ele>9.71</ele>
        <time>2023-06-10T20:58:00.357Z</time>
      </trkpt>
      <trkpt lat="55.27266330085695" lon="12.237387020140886">
        <ele>9.74</ele>
        <time>2023-06-10T20:58:09.125Z</time>
      </trkpt>
      <trkpt lat="55.27266992256045" lon="12.237519957125187">
        <ele>9.81</ele>
        <time>2023-06-10T20:58:17.895Z</time>
      </trkpt>
      <trkpt lat="55.27274996973574" lon="12.23773998208344">
        <ele>9.96</ele>
        <time>2023-06-10T20:58:26.667Z</time>
      </trkpt>
      <trkpt lat="55.27274996973574" lon="12.23773998208344">
        <ele>9.96</ele>
        <time>2023-06-10T20:58:35.439Z</time>
      </trkpt>
      <trkpt lat="55.272856671363115" lon="12.237877445295453">
        <ele>10.14</ele>
        <time>2023-06-10T20:58:44.213Z</time>
      </trkpt>
      <trkpt lat="55.272964630275965" lon="12.2380165848881">
        <ele>10.36</ele>
        <time>2023-06-10T20:58:52.989Z</time>
      </trkpt>
      <trkpt lat="55.273036463186145" lon="12.238109037280083">
        <ele>10.56</ele>
        <time>2023-06-10T20:59:01.767Z</time>
      </trkpt>
      <trkpt lat="55.27317996136844" lon="12.238294025883079">
        <ele>11.02</ele>
        <time>2023-06-10T20:59:10.548Z</time>
      </trkpt>
      <trkpt lat="55.27325179427862" lon="12.23838647827506">
        <ele>11.22</ele>
        <time>2023-06-10T20:59:19.330Z</time>
      </trkpt>
      <trkpt lat="55.273269983008504" lon="12.238409947603941">
        <ele>11.26</ele>
        <time>2023-06-10T20:59:28.112Z</time>
      </trkpt>
      <trkpt lat="55.27329554781318" lon="12.238517571240664">
        <ele>11.39</ele>
        <time>2023-06-10T20:59:36.895Z</time>
      </trkpt>
      <trkpt lat="55.273319939151406" lon="12.23861999809742">
        <ele>11.47</ele>
        <time>2023-06-10T20:59:45.679Z</time>
      </trkpt>
      <trkpt lat="55.27332589030266" lon="12.238743798807263">
        <ele>11.56</ele>
        <time>2023-06-10T20:59:54.465Z</time>
      </trkpt>
      <trkpt lat="55.27332999743521" lon="12.238829964771867">
        <ele>11.6</ele>
        <time>2023-06-10T21:00:03.251Z</time>
      </trkpt>
      <trkpt lat="55.27327995747328" lon="12.239089971408248">
        <ele>11.73</ele>
        <time>2023-06-10T21:00:12.040Z</time>
      </trkpt>
      <trkpt lat="55.27319638989866" lon="12.239311672747135">
        <ele>11.86</ele>
        <time>2023-06-10T21:00:20.831Z</time>
      </trkpt>
      <trkpt lat="55.27280277572572" lon="12.240355554968119">
        <ele>12.33</ele>
        <time>2023-06-10T21:00:29.634Z</time>
      </trkpt>
      <trkpt lat="55.27258090674877" lon="12.240944048389792">
        <ele>12.68</ele>
        <time>2023-06-10T21:00:38.443Z</time>
      </trkpt>
      <trkpt lat="55.27245827950537" lon="12.241269182413816">
        <ele>12.95</ele>
        <time>2023-06-10T21:00:47.256Z</time>
      </trkpt>
      <trkpt lat="55.2724086586386" lon="12.241400862112641">
        <ele>12.93</ele>
        <time>2023-06-10T21:00:56.070Z</time>
      </trkpt>
      <trkpt lat="55.2723843511194" lon="12.24146531894803">
        <ele>12.94</ele>
        <time>2023-06-10T21:01:04.885Z</time>
      </trkpt>
      <trkpt lat="55.27235995978117" lon="12.241529943421483">
        <ele>12.97</ele>
        <time>2023-06-10T21:01:13.701Z</time>
      </trkpt>
      <trkpt lat="55.272260550409555" lon="12.241792967543006">
        <ele>13.11</ele>
        <time>2023-06-10T21:01:22.520Z</time>
      </trkpt>
      <trkpt lat="55.27213674969971" lon="12.242120448499918">
        <ele>13.23</ele>
        <time>2023-06-10T21:01:31.342Z</time>
      </trkpt>
      <trkpt lat="55.272037759423256" lon="12.242382215335965">
        <ele>13.38</ele>
        <time>2023-06-10T21:01:40.167Z</time>
      </trkpt>
      <trkpt lat="55.27191395871341" lon="12.242709780111909">
        <ele>13.48</ele>
        <time>2023-06-10T21:01:48.996Z</time>
      </trkpt>
      <trkpt lat="55.27181505225599" lon="12.242971546947956">
        <ele>13.6</ele>
        <time>2023-06-10T21:01:57.828Z</time>
      </trkpt>
      <trkpt lat="55.27174045331776" lon="12.243168856948614">
        <ele>13.71</ele>
        <time>2023-06-10T21:02:06.662Z</time>
      </trkpt>
      <trkpt lat="55.27161715552211" lon="12.24349508062005">
        <ele>13.96</ele>
        <time>2023-06-10T21:02:15.499Z</time>
      </trkpt>
      <trkpt lat="55.27156996540725" lon="12.243619970977306">
        <ele>14.03</ele>
        <time>2023-06-10T21:02:24.338Z</time>
      </trkpt>
      <trkpt lat="55.2714654430747" lon="12.243884755298495">
        <ele>14.2</ele>
        <time>2023-06-10T21:02:33.180Z</time>
      </trkpt>
      <trkpt lat="55.271337954327464" lon="12.244207877665758">
        <ele>14.42</ele>
        <time>2023-06-10T21:02:42.025Z</time>
      </trkpt>
      <trkpt lat="55.27126159518957" lon="12.244401248171926">
        <ele>14.52</ele>
        <time>2023-06-10T21:02:50.872Z</time>
      </trkpt>
      <trkpt lat="55.27121038176119" lon="12.244531000033021">
        <ele>14.56</ele>
        <time>2023-06-10T21:02:59.721Z</time>
      </trkpt>
      <trkpt lat="55.271032182499766" lon="12.244982533156872">
        <ele>14.52</ele>
        <time>2023-06-10T21:03:08.575Z</time>
      </trkpt>
      <trkpt lat="55.270777121186256" lon="12.245628777891397">
        <ele>14.71</ele>
        <time>2023-06-10T21:03:17.436Z</time>
      </trkpt>
      <trkpt lat="55.27064963243902" lon="12.24595190025866">
        <ele>14.7</ele>
        <time>2023-06-10T21:03:26.301Z</time>
      </trkpt>
      <trkpt lat="55.270573273301125" lon="12.246145270764828">
        <ele>14.64</ele>
        <time>2023-06-10T21:03:35.168Z</time>
      </trkpt>
      <trkpt lat="55.270369006320834" lon="12.246663020923734">
        <ele>14.41</ele>
        <time>2023-06-10T21:03:44.040Z</time>
      </trkpt>
      <trkpt lat="55.27021637186408" lon="12.247049678117037">
        <ele>14.37</ele>
        <time>2023-06-10T21:03:52.917Z</time>
      </trkpt>
      <trkpt lat="55.270139509812" lon="12.24724430590868">
        <ele>14.32</ele>
        <time>2023-06-10T21:04:01.796Z</time>
      </trkpt>
      <trkpt lat="55.270089972764254" lon="12.247369950637221">
        <ele>14.27</ele>
        <time>2023-06-10T21:04:10.676Z</time>
      </trkpt>
      <trkpt lat="55.270069940015674" lon="12.247444465756416">
        <ele>14.25</ele>
        <time>2023-06-10T21:04:19.557Z</time>
      </trkpt>
      <trkpt lat="55.27001998387277" lon="12.247629957273602">
        <ele>14.17</ele>
        <time>2023-06-10T21:04:28.440Z</time>
      </trkpt>
      <trkpt lat="55.26999106630683" lon="12.24789029918611">
        <ele>14.07</ele>
        <time>2023-06-10T21:04:37.325Z</time>
      </trkpt>
      <trkpt lat="55.26996994391084" lon="12.248079981654882">
        <ele>13.91</ele>
        <time>2023-06-10T21:04:46.212Z</time>
      </trkpt>
      <trkpt lat="55.26997991837561" lon="12.248199926689267">
        <ele>13.82</ele>
        <time>2023-06-10T21:04:55.100Z</time>
      </trkpt>
      <trkpt lat="55.26998025365174" lon="12.24820101633668">
        <ele>13.82</ele>
        <time>2023-06-10T21:05:03.988Z</time>
      </trkpt>
      <trkpt lat="55.27003993280232" lon="12.248409977182746">
        <ele>13.7</ele>
        <time>2023-06-10T21:05:12.878Z</time>
      </trkpt>
      <trkpt lat="55.27007404714823" lon="12.248465968295932">
        <ele>13.66</ele>
        <time>2023-06-10T21:05:21.769Z</time>
      </trkpt>
      <trkpt lat="55.270172618329525" lon="12.24862765520811">
        <ele>13.59</ele>
        <time>2023-06-10T21:05:30.662Z</time>
      </trkpt>
      <trkpt lat="55.27036967687309" lon="12.2489511128515">
        <ele>13.55</ele>
        <time>2023-06-10T21:05:39.560Z</time>
      </trkpt>
      <trkpt lat="55.2704674936831" lon="12.249111793935299">
        <ele>13.48</ele>
        <time>2023-06-10T21:05:48.460Z</time>
      </trkpt>
      <trkpt lat="55.270533207803965" lon="12.249219585210085">
        <ele>13.45</ele>
        <time>2023-06-10T21:05:57.361Z</time>
      </trkpt>
      <trkpt lat="55.270569920539856" lon="12.24927993491292">
        <ele>13.46</ele>
        <time>2023-06-10T21:06:06.263Z</time>
      </trkpt>
      <trkpt lat="55.27066991664469" lon="12.249529967084527">
        <ele>13.5</ele>
        <time>2023-06-10T21:06:15.168Z</time>
      </trkpt>
      <trkpt lat="55.270670084282756" lon="12.249530805274844">
        <ele>13.5</ele>
        <time>2023-06-10T21:06:24.073Z</time>
      </trkpt>
      <trkpt lat="55.27071995660663" lon="12.249799948185682">
        <ele>13.48</ele>
        <time>2023-06-10T21:06:32.980Z</time>
      </trkpt>
      <trkpt lat="55.270744264125824" lon="12.249985691159964">
        <ele>13.48</ele>
        <time>2023-06-10T21:06:41.889Z</time>
      </trkpt>
      <trkpt lat="55.27082464657724" lon="12.250601090490818">
        <ele>13.55</ele>
        <time>2023-06-10T21:06:50.804Z</time>
      </trkpt>
      <trkpt lat="55.270874770358205" lon="12.250984227284789">
        <ele>13.55</ele>
        <time>2023-06-10T21:06:59.723Z</time>
      </trkpt>
      <trkpt lat="55.27096529491246" lon="12.251676572486758">
        <ele>13.69</ele>
        <time>2023-06-10T21:07:08.648Z</time>
      </trkpt>
      <trkpt lat="55.27101558633149" lon="12.2520612180233">
        <ele>13.75</ele>
        <time>2023-06-10T21:07:17.577Z</time>
      </trkpt>
      <trkpt lat="55.271065793931484" lon="12.252445947378874">
        <ele>13.74</ele>
        <time>2023-06-10T21:07:26.509Z</time>
      </trkpt>
      <trkpt lat="55.27111608535051" lon="12.252830592915416">
        <ele>13.78</ele>
        <time>2023-06-10T21:07:35.445Z</time>
      </trkpt>
      <trkpt lat="55.27121650055051" lon="12.253598375245929">
        <ele>13.81</ele>
        <time>2023-06-10T21:07:44.388Z</time>
      </trkpt>
      <trkpt lat="55.27130702510476" lon="12.254290720447898">
        <ele>13.8</ele>
        <time>2023-06-10T21:07:53.338Z</time>
      </trkpt>
      <trkpt lat="55.271407356485724" lon="12.255058502778411">
        <ele>13.92</ele>
        <time>2023-06-10T21:08:02.295Z</time>
      </trkpt>
      <trkpt lat="55.271477764472365" lon="12.255597040057182">
        <ele>14.09</ele>
        <time>2023-06-10T21:08:11.257Z</time>
      </trkpt>
      <trkpt lat="55.27162855491042" lon="12.256750976666808">
        <ele>14.63</ele>
        <time>2023-06-10T21:08:20.230Z</time>
      </trkpt>
      <trkpt lat="55.27164867147803" lon="12.256904868409038">
        <ele>14.72</ele>
        <time>2023-06-10T21:08:29.204Z</time>
      </trkpt>
      <trkpt lat="55.27167867869139" lon="12.25713411346078">
        <ele>14.89</ele>
        <time>2023-06-10T21:08:38.180Z</time>
      </trkpt>
      <trkpt lat="55.27171991765499" lon="12.257449943572283">
        <ele>14.97</ele>
        <time>2023-06-10T21:08:47.159Z</time>
      </trkpt>
      <trkpt lat="55.271732322871685" lon="12.257680529728532">
        <ele>15.03</ele>
        <time>2023-06-10T21:08:56.140Z</time>
      </trkpt>
      <trkpt lat="55.27174883522093" lon="12.257988564670086">
        <ele>14.9</ele>
        <time>2023-06-10T21:09:05.124Z</time>
      </trkpt>
      <trkpt lat="55.271749924868345" lon="12.258009938523173">
        <ele>14.89</ele>
        <time>2023-06-10T21:09:14.108Z</time>
      </trkpt>
      <trkpt lat="55.271749924868345" lon="12.2579999640584">
        <ele>14.89</ele>
        <time>2023-06-10T21:09:23.093Z</time>
      </trkpt>
      <trkpt lat="55.2716797683388" lon="12.2579999640584">
        <ele>14.87</ele>
        <time>2023-06-10T21:09:32.079Z</time>
      </trkpt>
      <trkpt lat="55.271619921550155" lon="12.2579999640584">
        <ele>14.89</ele>
        <time>2023-06-10T21:09:41.066Z</time>
      </trkpt>
      <trkpt lat="55.271591590717435" lon="12.258001808077097">
        <ele>14.9</ele>
        <time>2023-06-10T21:09:50.053Z</time>
      </trkpt>
      <trkpt lat="55.271502658724785" lon="12.258007507771254">
        <ele>14.98</ele>
        <time>2023-06-10T21:09:59.042Z</time>
      </trkpt>
      <trkpt lat="55.27130995877087" lon="12.25801999680698">
        <ele>14.9</ele>
        <time>2023-06-10T21:10:08.034Z</time>
      </trkpt>
      <trkpt lat="55.27084090746939" lon="12.258092164993286">
        <ele>14.73</ele>
        <time>2023-06-10T21:10:17.033Z</time>
      </trkpt>
      <trkpt lat="55.270139928907156" lon="12.258199956268072">
        <ele>14.34</ele>
        <time>2023-06-10T21:10:26.043Z</time>
      </trkpt>
      <trkpt lat="55.270084608346224" lon="12.258204985409975">
        <ele>14.32</ele>
        <time>2023-06-10T21:10:35.054Z</time>
      </trkpt>
      <trkpt lat="55.269829547032714" lon="12.25822820328176">
        <ele>14.22</ele>
        <time>2023-06-10T21:10:44.069Z</time>
      </trkpt>
      <trkpt lat="55.26965981349349" lon="12.258243625983596">
        <ele>14.11</ele>
        <time>2023-06-10T21:10:53.087Z</time>
      </trkpt>
      <trkpt lat="55.26948111131787" lon="12.258259886875749">
        <ele>14.06</ele>
        <time>2023-06-10T21:11:02.108Z</time>
      </trkpt>
      <trkpt lat="55.269391257315874" lon="12.258268017321825">
        <ele>14.01</ele>
        <time>2023-06-10T21:11:11.130Z</time>
      </trkpt>
      <trkpt lat="55.26907785795629" lon="12.258296515792608">
        <ele>13.77</ele>
        <time>2023-06-10T21:11:20.157Z</time>
      </trkpt>
      <trkpt lat="55.268809301778674" lon="12.258320907130837">
        <ele>13.63</ele>
        <time>2023-06-10T21:11:29.189Z</time>
      </trkpt>
      <trkpt lat="55.26853982359171" lon="12.258345382288098">
        <ele>13.45</ele>
        <time>2023-06-10T21:11:38.225Z</time>
      </trkpt>
      <trkpt lat="55.26786809787154" lon="12.258406486362219">
        <ele>13.19</ele>
        <time>2023-06-10T21:11:47.272Z</time>
      </trkpt>
      <trkpt lat="55.26768931187689" lon="12.258422747254372">
        <ele>13.1</ele>
        <time>2023-06-10T21:11:56.322Z</time>
      </trkpt>
      <trkpt lat="55.267554614692926" lon="12.258434984833002">
        <ele>12.97</ele>
        <time>2023-06-10T21:12:05.374Z</time>
      </trkpt>
      <trkpt lat="55.267061507329345" lon="12.25847982801497">
        <ele>12.34</ele>
        <time>2023-06-10T21:12:14.434Z</time>
      </trkpt>
      <trkpt lat="55.26694994419813" lon="12.258489970117807">
        <ele>12.22</ele>
        <time>2023-06-10T21:12:23.496Z</time>
      </trkpt>
      <trkpt lat="55.26692773215473" lon="12.258486784994602">
        <ele>12.2</ele>
        <time>2023-06-10T21:12:32.558Z</time>
      </trkpt>
      <trkpt lat="55.266739977523685" lon="12.258459962904453">
        <ele>12.02</ele>
        <time>2023-06-10T21:12:41.623Z</time>
      </trkpt>
      <trkpt lat="55.26666210964322" lon="12.258424255996943">
        <ele>11.95</ele>
        <time>2023-06-10T21:12:50.689Z</time>
      </trkpt>
      <trkpt lat="55.26649991981685" lon="12.258349992334843">
        <ele>11.81</ele>
        <time>2023-06-10T21:12:59.758Z</time>
      </trkpt>
      <trkpt lat="55.266217198222876" lon="12.258064756169915">
        <ele>11.56</ele>
        <time>2023-06-10T21:13:08.832Z</time>
      </trkpt>
      <trkpt lat="55.266022235155106" lon="12.257868200540543">
        <ele>11.44</ele>
        <time>2023-06-10T21:13:17.910Z</time>
      </trkpt>
      <trkpt lat="55.26571109890938" lon="12.2575543820858">
        <ele>11.42</ele>
        <time>2023-06-10T21:13:26.994Z</time>
      </trkpt>
      <trkpt lat="55.2652058377862" lon="12.257044846192002">
        <ele>11.3</ele>
        <time>2023-06-10T21:13:36.087Z</time>
      </trkpt>
      <trkpt lat="55.26505068875849" lon="12.25688835605979">
        <ele>11.3</ele>
        <time>2023-06-10T21:13:45.183Z</time>
      </trkpt>
      <trkpt lat="55.26493292301893" lon="12.256769584491849">
        <ele>11.33</ele>
        <time>2023-06-10T21:13:54.281Z</time>
      </trkpt>
      <trkpt lat="55.26469982229173" lon="12.256534472107887">
        <ele>11.47</ele>
        <time>2023-06-10T21:14:03.383Z</time>
      </trkpt>
      <trkpt lat="55.264583649113774" lon="12.25641729310155">
        <ele>11.56</ele>
        <time>2023-06-10T21:14:12.487Z</time>
      </trkpt>
      <trkpt lat="55.26427167467773" lon="12.256102720275521">
        <ele>11.91</ele>
        <time>2023-06-10T21:14:21.597Z</time>
      </trkpt>
      <trkpt lat="55.264116525650024" lon="12.255946230143309">
        <ele>12.15</ele>
        <time>2023-06-10T21:14:30.710Z</time>
      </trkpt>
      <trkpt lat="55.26403857395053" lon="12.25586760789156">
        <ele>12.32</ele>
        <time>2023-06-10T21:14:39.825Z</time>
      </trkpt>
      <trkpt lat="55.263960622251034" lon="12.25578898563981">
        <ele>12.55</ele>
        <time>2023-06-10T21:14:48.941Z</time>
      </trkpt>
      <trkpt lat="55.263904463499784" lon="12.255732323974371">
        <ele>12.54</ele>
        <time>2023-06-10T21:14:58.058Z</time>
      </trkpt>
      <trkpt lat="55.263750068843365" lon="12.255576672032475">
        <ele>12.85</ele>
        <time>2023-06-10T21:15:07.178Z</time>
      </trkpt>
      <trkpt lat="55.26367211714387" lon="12.255498049780726">
        <ele>12.95</ele>
        <time>2023-06-10T21:15:16.299Z</time>
      </trkpt>
      <trkpt lat="55.26355586014688" lon="12.255380870774388">
        <ele>12.98</ele>
        <time>2023-06-10T21:15:25.422Z</time>
      </trkpt>
      <trkpt lat="55.263477908447385" lon="12.255302164703608">
        <ele>12.96</ele>
        <time>2023-06-10T21:15:34.547Z</time>
      </trkpt>
      <trkpt lat="55.263400711119175" lon="12.255224380642176">
        <ele>12.92</ele>
        <time>2023-06-10T21:15:43.673Z</time>
      </trkpt>
      <trkpt lat="55.26316836476326" lon="12.2549900226295">
        <ele>12.63</ele>
        <time>2023-06-10T21:15:52.804Z</time>
      </trkpt>
      <trkpt lat="55.26285806670785" lon="12.254677042365074">
        <ele>12.13</ele>
        <time>2023-06-10T21:16:01.940Z</time>
      </trkpt>
      <trkpt lat="55.26274180971086" lon="12.254559863358736">
        <ele>12.0</ele>
        <time>2023-06-10T21:16:11.079Z</time>
      </trkpt>
      <trkpt lat="55.26254768483341" lon="12.254364062100649">
        <ele>11.82</ele>
        <time>2023-06-10T21:16:20.221Z</time>
      </trkpt>
      <trkpt lat="55.26243151165545" lon="12.25424688309431">
        <ele>11.67</ele>
        <time>2023-06-10T21:16:29.365Z</time>
      </trkpt>
      <trkpt lat="55.26231533847749" lon="12.254129704087973">
        <ele>11.48</ele>
        <time>2023-06-10T21:16:38.511Z</time>
      </trkpt>
      <trkpt lat="55.261927004903555" lon="12.253738101571798">
        <ele>10.76</ele>
        <time>2023-06-10T21:16:47.665Z</time>
      </trkpt>
      <trkpt lat="55.261849807575345" lon="12.253660233691335">
        <ele>10.65</ele>
        <time>2023-06-10T21:16:56.820Z</time>
      </trkpt>
      <trkpt lat="55.261799935251474" lon="12.253609942272305">
        <ele>10.6</ele>
        <time>2023-06-10T21:17:05.976Z</time>
      </trkpt>
      <trkpt lat="55.26166054420173" lon="12.253453368321061">
        <ele>10.46</ele>
        <time>2023-06-10T21:17:15.135Z</time>
      </trkpt>
      <trkpt lat="55.26143406517804" lon="12.253198977559805">
        <ele>10.29</ele>
        <time>2023-06-10T21:17:24.298Z</time>
      </trkpt>
      <trkpt lat="55.261069955304265" lon="12.252789940685034">
        <ele>9.97</ele>
        <time>2023-06-10T21:17:33.468Z</time>
      </trkpt>
      <trkpt lat="55.26098823174834" lon="12.252675527706742">
        <ele>9.9</ele>
        <time>2023-06-10T21:17:42.640Z</time>
      </trkpt>
      <trkpt lat="55.26091857813299" lon="12.252578046172857">
        <ele>9.88</ele>
        <time>2023-06-10T21:17:51.813Z</time>
      </trkpt>
      <trkpt lat="55.26084833778441" lon="12.252479642629623">
        <ele>9.88</ele>
        <time>2023-06-10T21:18:00.987Z</time>
      </trkpt>
      <trkpt lat="55.260769966989756" lon="12.252369923517108">
        <ele>9.88</ele>
        <time>2023-06-10T21:18:10.163Z</time>
      </trkpt>
      <trkpt lat="55.26014031842351" lon="12.251397790387273">
        <ele>9.94</ele>
        <time>2023-06-10T21:18:19.352Z</time>
      </trkpt>
      <trkpt lat="55.25997217744589" lon="12.25113820284605">
        <ele>9.9</ele>
        <time>2023-06-10T21:18:28.545Z</time>
      </trkpt>
      <trkpt lat="55.25980470702052" lon="12.25087970495224">
        <ele>9.92</ele>
        <time>2023-06-10T21:18:37.742Z</time>
      </trkpt>
      <trkpt lat="55.259637320414186" lon="12.25062120705843">
        <ele>9.91</ele>
        <time>2023-06-10T21:18:46.942Z</time>
      </trkpt>
      <trkpt lat="55.259401621297" lon="12.250257348641753">
        <ele>9.95</ele>
        <time>2023-06-10T21:18:56.147Z</time>
      </trkpt>
      <trkpt lat="55.25913289748132" lon="12.249842444434762">
        <ele>9.88</ele>
        <time>2023-06-10T21:19:05.358Z</time>
      </trkpt>
      <trkpt lat="55.258763590827584" lon="12.249272223562002">
        <ele>9.75</ele>
        <time>2023-06-10T21:19:14.577Z</time>
      </trkpt>
      <trkpt lat="55.258528646081686" lon="12.248909454792738">
        <ele>9.71</ele>
        <time>2023-06-10T21:19:23.801Z</time>
      </trkpt>
      <trkpt lat="55.25837995111942" lon="12.248679958283901">
        <ele>9.71</ele>
        <time>2023-06-10T21:19:33.028Z</time>
      </trkpt>
      <trkpt lat="55.25836075656116" lon="12.248649364337325">
        <ele>9.71</ele>
        <time>2023-06-10T21:19:42.255Z</time>
      </trkpt>
      <trkpt lat="55.25816193781793" lon="12.248331774026155">
        <ele>9.81</ele>
        <time>2023-06-10T21:19:51.487Z</time>
      </trkpt>
      <trkpt lat="55.25806277990341" lon="12.248173523694277">
        <ele>9.83</ele>
        <time>2023-06-10T21:20:00.721Z</time>
      </trkpt>
      <trkpt lat="55.25786387734115" lon="12.247855933383107">
        <ele>9.81</ele>
        <time>2023-06-10T21:20:09.959Z</time>
      </trkpt>
      <trkpt lat="55.25763178244233" lon="12.247485285624862">
        <ele>9.72</ele>
        <time>2023-06-10T21:20:19.202Z</time>
      </trkpt>
      <trkpt lat="55.25749943219125" lon="12.247273894026875">
        <ele>9.72</ele>
        <time>2023-06-10T21:20:28.448Z</time>
      </trkpt>
      <trkpt lat="55.25736641138792" lon="12.247061496600509">
        <ele>9.79</ele>
        <time>2023-06-10T21:20:37.697Z</time>
      </trkpt>
      <trkpt lat="55.25716750882566" lon="12.246743906289339">
        <ele>9.97</ele>
        <time>2023-06-10T21:20:46.950Z</time>
      </trkpt>
      <trkpt lat="55.25706843473017" lon="12.24658565595746">
        <ele>10.0</ele>
        <time>2023-06-10T21:20:56.206Z</time>
      </trkpt>
      <trkpt lat="55.25700188241899" lon="12.246479457244277">
        <ele>9.99</ele>
        <time>2023-06-10T21:21:05.463Z</time>
      </trkpt>
      <trkpt lat="55.2569028083235" lon="12.246321206912398">
        <ele>9.92</ele>
        <time>2023-06-10T21:21:14.722Z</time>
      </trkpt>
      <trkpt lat="55.2566041611135" lon="12.24584436044097">
        <ele>9.56</ele>
        <time>2023-06-10T21:21:23.988Z</time>
      </trkpt>
      <trkpt lat="55.25651992298663" lon="12.24570999853313">
        <ele>9.48</ele>
        <time>2023-06-10T21:21:33.255Z</time>
      </trkpt>
      <trkpt lat="55.25638556107879" lon="12.245449908077717">
        <ele>9.35</ele>
        <time>2023-06-10T21:21:42.526Z</time>
      </trkpt>
      <trkpt lat="55.256265280768275" lon="12.245217394083738">
        <ele>9.2</ele>
        <time>2023-06-10T21:21:51.800Z</time>
      </trkpt>
      <trkpt lat="55.255909971892834" lon="12.24452999420464">
        <ele>8.88</ele>
        <time>2023-06-10T21:22:01.082Z</time>
      </trkpt>
      <trkpt lat="55.25576957501471" lon="12.2442040219903">
        <ele>8.75</ele>
        <time>2023-06-10T21:22:10.368Z</time>
      </trkpt>
      <trkpt lat="55.25562993250787" lon="12.243879977613688">
        <ele>8.69</ele>
        <time>2023-06-10T21:22:19.657Z</time>
      </trkpt>
      <trkpt lat="55.25562993250787" lon="12.243879977613688">
        <ele>8.69</ele>
        <time>2023-06-10T21:22:28.946Z</time>
      </trkpt>
      <trkpt lat="55.25551686063409" lon="12.243380583822727">
        <ele>8.66</ele>
        <time>2023-06-10T21:22:38.240Z</time>
      </trkpt>
      <trkpt lat="55.25550998747349" lon="12.243349989876151">
        <ele>8.65</ele>
        <time>2023-06-10T21:22:47.535Z</time>
      </trkpt>
      <trkpt lat="55.25549188256264" lon="12.243229122832417">
        <ele>8.63</ele>
        <time>2023-06-10T21:22:56.831Z</time>
      </trkpt>
      <trkpt lat="55.25544653646648" lon="12.242925362661481">
        <ele>8.54</ele>
        <time>2023-06-10T21:23:06.130Z</time>
      </trkpt>
      <trkpt lat="55.25538953952491" lon="12.242543818429112">
        <ele>8.35</ele>
        <time>2023-06-10T21:23:15.432Z</time>
      </trkpt>
      <trkpt lat="55.25536724366248" lon="12.2423942014575">
        <ele>8.3</ele>
        <time>2023-06-10T21:23:24.736Z</time>
      </trkpt>
      <trkpt lat="55.255242101848125" lon="12.24155617877841">
        <ele>8.2</ele>
        <time>2023-06-10T21:23:34.048Z</time>
      </trkpt>
      <trkpt lat="55.255179991945624" lon="12.241139933466911">
        <ele>8.09</ele>
        <time>2023-06-10T21:23:43.364Z</time>
      </trkpt>
      <trkpt lat="55.25517052039504" lon="12.24102065898478">
        <ele>8.07</ele>
        <time>2023-06-10T21:23:52.681Z</time>
      </trkpt>
      <trkpt lat="55.25515199638903" lon="12.240786217153072">
        <ele>8.06</ele>
        <time>2023-06-10T21:24:02.000Z</time>
      </trkpt>
      <trkpt lat="55.255119977518916" lon="12.240379946306348">
        <ele>8.08</ele>
        <time>2023-06-10T21:24:11.323Z</time>
      </trkpt>
      <trkpt lat="55.255049988627434" lon="12.239969987422228">
        <ele>8.1</ele>
        <time>2023-06-10T21:24:20.650Z</time>
      </trkpt>
      <trkpt lat="55.25499693118036" lon="12.239810731261969">
        <ele>8.12</ele>
        <time>2023-06-10T21:24:29.978Z</time>
      </trkpt>
      <trkpt lat="55.25495192036033" lon="12.23967595025897">
        <ele>8.14</ele>
        <time>2023-06-10T21:24:39.308Z</time>
      </trkpt>
      <trkpt lat="55.25490992702544" lon="12.239549970254302">
        <ele>8.18</ele>
        <time>2023-06-10T21:24:48.639Z</time>
      </trkpt>
      <trkpt lat="55.25484697893262" lon="12.239421308040619">
        <ele>8.23</ele>
        <time>2023-06-10T21:24:57.972Z</time>
      </trkpt>
      <trkpt lat="55.25475963950157" lon="12.239242941141129">
        <ele>8.24</ele>
        <time>2023-06-10T21:25:07.307Z</time>
      </trkpt>
      <trkpt lat="55.2547010499984" lon="12.239123247563839">
        <ele>8.2</ele>
        <time>2023-06-10T21:25:16.643Z</time>
      </trkpt>
      <trkpt lat="55.254613710567355" lon="12.238944880664349">
        <ele>8.08</ele>
        <time>2023-06-10T21:25:25.981Z</time>
      </trkpt>
      <trkpt lat="55.254555121064186" lon="12.238825187087059">
        <ele>7.97</ele>
        <time>2023-06-10T21:25:35.321Z</time>
      </trkpt>
      <trkpt lat="55.2543212659657" lon="12.238347670063376">
        <ele>7.45</ele>
        <time>2023-06-10T21:25:44.666Z</time>
      </trkpt>
      <trkpt lat="55.25426326319575" lon="12.23822914995253">
        <ele>7.38</ele>
        <time>2023-06-10T21:25:54.013Z</time>
      </trkpt>
      <trkpt lat="55.2539708185941" lon="12.237631939351559">
        <ele>7.21</ele>
        <time>2023-06-10T21:26:03.367Z</time>
      </trkpt>
      <trkpt lat="55.25379555299878" lon="12.237274032086134">
        <ele>7.18</ele>
        <time>2023-06-10T21:26:12.725Z</time>
      </trkpt>
      <trkpt lat="55.253620371222496" lon="12.236916208639741">
        <ele>7.19</ele>
        <time>2023-06-10T21:26:22.088Z</time>
      </trkpt>
      <trkpt lat="55.253481483086944" lon="12.236632481217384">
        <ele>6.99</ele>
        <time>2023-06-10T21:26:31.454Z</time>
      </trkpt>
      <trkpt lat="55.25342641398311" lon="12.236519996076822">
        <ele>6.94</ele>
        <time>2023-06-10T21:26:40.822Z</time>
      </trkpt>
      <trkpt lat="55.253370674327016" lon="12.236406337469816">
        <ele>6.92</ele>
        <time>2023-06-10T21:26:50.191Z</time>
      </trkpt>
      <trkpt lat="55.25328693911433" lon="12.236235179007053">
        <ele>6.95</ele>
        <time>2023-06-10T21:26:59.562Z</time>
      </trkpt>
      <trkpt lat="55.25320370681584" lon="12.236065194010735">
        <ele>7.05</ele>
        <time>2023-06-10T21:27:08.935Z</time>
      </trkpt>
      <trkpt lat="55.25315039791167" lon="12.235956313088536">
        <ele>7.08</ele>
        <time>2023-06-10T21:27:18.309Z</time>
      </trkpt>
      <trkpt lat="55.25301997549832" lon="12.235689936205745">
        <ele>6.74</ele>
        <time>2023-06-10T21:27:27.687Z</time>
      </trkpt>
      <trkpt lat="55.25295996107161" lon="12.235929993912578">
        <ele>6.49</ele>
        <time>2023-06-10T21:27:37.067Z</time>
      </trkpt>
      <trkpt lat="55.252935821190476" lon="12.236184300854802">
        <ele>6.25</ele>
        <time>2023-06-10T21:27:46.449Z</time>
      </trkpt>
      <trkpt lat="55.25290623307228" lon="12.236495520919561">
        <ele>5.98</ele>
        <time>2023-06-10T21:27:55.834Z</time>
      </trkpt>
      <trkpt lat="55.25289139710367" lon="12.236651172861457">
        <ele>5.91</ele>
        <time>2023-06-10T21:28:05.221Z</time>
      </trkpt>
      <trkpt lat="55.252869268879294" lon="12.236884608864784">
        <ele>5.84</ele>
        <time>2023-06-10T21:28:14.610Z</time>
      </trkpt>
      <trkpt lat="55.252854600548744" lon="12.237038752064109">
        <ele>5.82</ele>
        <time>2023-06-10T21:28:24.000Z</time>
      </trkpt>
      <trkpt lat="55.25283976458013" lon="12.237194320186973">
        <ele>5.83</ele>
        <time>2023-06-10T21:28:33.392Z</time>
      </trkpt>
      <trkpt lat="55.252802800387144" lon="12.237583408132195">
        <ele>5.92</ele>
        <time>2023-06-10T21:28:42.787Z</time>
      </trkpt>
      <trkpt lat="55.25277321226895" lon="12.237894712015986">
        <ele>5.95</ele>
        <time>2023-06-10T21:28:52.185Z</time>
      </trkpt>
      <trkpt lat="55.252751084044576" lon="12.238128148019314">
        <ele>6.02</ele>
        <time>2023-06-10T21:29:01.585Z</time>
      </trkpt>
      <trkpt lat="55.25272149592638" lon="12.238439451903105">
        <ele>6.19</ele>
        <time>2023-06-10T21:29:10.988Z</time>
      </trkpt>
      <trkpt lat="55.252691991627216" lon="12.238749163225293">
        <ele>6.41</ele>
        <time>2023-06-10T21:29:20.394Z</time>
      </trkpt>
      <trkpt lat="55.25266986340284" lon="12.23898259922862">
        <ele>6.55</ele>
        <time>2023-06-10T21:29:29.802Z</time>
      </trkpt>
      <trkpt lat="55.25263289920986" lon="12.239371687173843">
        <ele>6.74</ele>
        <time>2023-06-10T21:29:39.214Z</time>
      </trkpt>
      <trkpt lat="55.25258847512305" lon="12.23983864299953">
        <ele>7.02</ele>
        <time>2023-06-10T21:29:48.630Z</time>
      </trkpt>
      <trkpt lat="55.252573722973466" lon="12.239994211122394">
        <ele>7.06</ele>
        <time>2023-06-10T21:29:58.048Z</time>
      </trkpt>
      <trkpt lat="55.25255888700485" lon="12.240149863064289">
        <ele>7.06</ele>
        <time>2023-06-10T21:30:07.467Z</time>
      </trkpt>
      <trkpt lat="55.25255151093006" lon="12.240227730944753">
        <ele>7.04</ele>
        <time>2023-06-10T21:30:16.887Z</time>
      </trkpt>
      <trkpt lat="55.252492502331734" lon="12.2408486623317">
        <ele>6.76</ele>
        <time>2023-06-10T21:30:26.313Z</time>
      </trkpt>
      <trkpt lat="55.25241111405194" lon="12.24170470610261">
        <ele>6.55</ele>
        <time>2023-06-10T21:30:35.747Z</time>
      </trkpt>
      <trkpt lat="55.252374317497015" lon="12.24209220148623">
        <ele>6.52</ele>
        <time>2023-06-10T21:30:45.184Z</time>
      </trkpt>
      <trkpt lat="55.25232997722924" lon="12.242559157311916">
        <ele>6.58</ele>
        <time>2023-06-10T21:30:54.625Z</time>
      </trkpt>
      <trkpt lat="55.25228555314243" lon="12.243026029318571">
        <ele>6.57</ele>
        <time>2023-06-10T21:31:04.071Z</time>
      </trkpt>
      <trkpt lat="55.252263424918056" lon="12.243259465321898">
        <ele>6.59</ele>
        <time>2023-06-10T21:31:13.519Z</time>
      </trkpt>
      <trkpt lat="55.25221179239452" lon="12.243802696466446">
        <ele>6.71</ele>
        <time>2023-06-10T21:31:22.972Z</time>
      </trkpt>
      <trkpt lat="55.25216736830771" lon="12.2442695684731">
        <ele>6.95</ele>
        <time>2023-06-10T21:31:32.429Z</time>
      </trkpt>
      <trkpt lat="55.252137780189514" lon="12.244580872356892">
        <ele>7.04</ele>
        <time>2023-06-10T21:31:41.889Z</time>
      </trkpt>
      <trkpt lat="55.25212302803993" lon="12.244736524298787">
        <ele>7.06</ele>
        <time>2023-06-10T21:31:51.351Z</time>
      </trkpt>
      <trkpt lat="55.25207860395312" lon="12.245203396305442">
        <ele>7.06</ele>
        <time>2023-06-10T21:32:00.817Z</time>
      </trkpt>
      <trkpt lat="55.25202705524862" lon="12.245746543630958">
        <ele>7.15</ele>
        <time>2023-06-10T21:32:10.288Z</time>
      </trkpt>
      <trkpt lat="55.25200484320521" lon="12.245980063453317">
        <ele>7.25</ele>
        <time>2023-06-10T21:32:19.761Z</time>
      </trkpt>
      <trkpt lat="55.25193091481924" lon="12.246758239343762">
        <ele>7.74</ele>
        <time>2023-06-10T21:32:29.241Z</time>
      </trkpt>
      <trkpt lat="55.251886658370495" lon="12.247223602607846">
        <ele>7.98</ele>
        <time>2023-06-10T21:32:38.726Z</time>
      </trkpt>
      <trkpt lat="55.25184969417751" lon="12.24761269055307">
        <ele>8.23</ele>
        <time>2023-06-10T21:32:48.214Z</time>
      </trkpt>
      <trkpt lat="55.25179789401591" lon="12.248157346621156">
        <ele>8.48</ele>
        <time>2023-06-10T21:32:57.707Z</time>
      </trkpt>
      <trkpt lat="55.25175355374813" lon="12.248624302446842">
        <ele>8.76</ele>
        <time>2023-06-10T21:33:07.205Z</time>
      </trkpt>
      <trkpt lat="55.25168591178954" lon="12.249335590749979">
        <ele>9.01</ele>
        <time>2023-06-10T21:33:16.709Z</time>
      </trkpt>
      <trkpt lat="55.251635536551476" lon="12.24986624903977">
        <ele>9.16</ele>
        <time>2023-06-10T21:33:26.218Z</time>
      </trkpt>
      <trkpt lat="55.251606618985534" lon="12.25016975775361">
        <ele>9.21</ele>
        <time>2023-06-10T21:33:35.730Z</time>
      </trkpt>
      <trkpt lat="55.25156328454614" lon="12.250625817105174">
        <ele>9.32</ele>
        <time>2023-06-10T21:33:45.246Z</time>
      </trkpt>
      <trkpt lat="55.25154886767268" lon="12.250778283923864">
        <ele>9.37</ele>
        <time>2023-06-10T21:33:54.764Z</time>
      </trkpt>
      <trkpt lat="55.25151274167001" lon="12.251158067956567">
        <ele>9.54</ele>
        <time>2023-06-10T21:34:04.285Z</time>
      </trkpt>
      <trkpt lat="55.251498240977526" lon="12.251310618594289">
        <ele>9.58</ele>
        <time>2023-06-10T21:34:13.808Z</time>
      </trkpt>
      <trkpt lat="55.2514839079231" lon="12.251461576670408">
        <ele>9.59</ele>
        <time>2023-06-10T21:34:23.332Z</time>
      </trkpt>
      <trkpt lat="55.251462114974856" lon="12.25169031880796">
        <ele>9.57</ele>
        <time>2023-06-10T21:34:32.858Z</time>
      </trkpt>
      <trkpt lat="55.25141182355583" lon="12.252219468355179">
        <ele>9.44</ele>
        <time>2023-06-10T21:34:42.389Z</time>
      </trkpt>
      <trkpt lat="55.25138994678855" lon="12.252449970692396">
        <ele>9.41</ele>
        <time>2023-06-10T21:34:51.922Z</time>
      </trkpt>
      <trkpt lat="55.25138994678855" lon="12.252449970692396">
        <ele>9.41</ele>
        <time>2023-06-10T21:35:01.455Z</time>
      </trkpt>
      <trkpt lat="55.251359939575195" lon="12.252789940685034">
        <ele>9.28</ele>
        <time>2023-06-10T21:35:10.991Z</time>
      </trkpt>
      <trkpt lat="55.25138567201793" lon="12.25314985960722">
        <ele>9.15</ele>
        <time>2023-06-10T21:35:20.531Z</time>
      </trkpt>
      <trkpt lat="55.25138994678855" lon="12.25320995785296">
        <ele>9.13</ele>
        <time>2023-06-10T21:35:30.071Z</time>
      </trkpt>
      <trkpt lat="55.251407381147146" lon="12.253383379429579">
        <ele>9.1</ele>
        <time>2023-06-10T21:35:39.613Z</time>
      </trkpt>
      <trkpt lat="55.25142305530608" lon="12.253538696095347">
        <ele>9.09</ele>
        <time>2023-06-10T21:35:49.156Z</time>
      </trkpt>
      <trkpt lat="55.25145415216684" lon="12.253847904503345">
        <ele>9.14</ele>
        <time>2023-06-10T21:35:58.702Z</time>
      </trkpt>
      <trkpt lat="55.2515478618443" lon="12.254778631031513">
        <ele>9.43</ele>
        <time>2023-06-10T21:36:08.257Z</time>
      </trkpt>
      <trkpt lat="55.25157912634313" lon="12.255089432001114">
        <ele>9.46</ele>
        <time>2023-06-10T21:36:17.815Z</time>
      </trkpt>
      <trkpt lat="55.25161030702293" lon="12.255398640409112">
        <ele>9.44</ele>
        <time>2023-06-10T21:36:27.376Z</time>
      </trkpt>
      <trkpt lat="55.25162589736283" lon="12.25555395707488">
        <ele>9.38</ele>
        <time>2023-06-10T21:36:36.938Z</time>
      </trkpt>
      <trkpt lat="55.25164936669171" lon="12.255787057802081">
        <ele>9.24</ele>
        <time>2023-06-10T21:36:46.502Z</time>
      </trkpt>
      <trkpt lat="55.25171181187034" lon="12.25640706717968">
        <ele>8.74</ele>
        <time>2023-06-10T21:36:56.072Z</time>
      </trkpt>
      <trkpt lat="55.251727318391204" lon="12.256560875102878">
        <ele>8.63</ele>
        <time>2023-06-10T21:37:05.643Z</time>
      </trkpt>
      <trkpt lat="55.251750787720084" lon="12.256793892011046">
        <ele>8.52</ele>
        <time>2023-06-10T21:37:15.217Z</time>
      </trkpt>
      <trkpt lat="55.25176637805998" lon="12.256949292495847">
        <ele>8.5</ele>
        <time>2023-06-10T21:37:24.792Z</time>
      </trkpt>
      <trkpt lat="55.251782052218914" lon="12.257104692980647">
        <ele>8.51</ele>
        <time>2023-06-10T21:37:34.369Z</time>
      </trkpt>
      <trkpt lat="55.25180535390973" lon="12.257336201146245">
        <ele>8.58</ele>
        <time>2023-06-10T21:37:43.948Z</time>
      </trkpt>
      <trkpt lat="55.25186779908836" lon="12.257956126704812">
        <ele>8.93</ele>
        <time>2023-06-10T21:37:53.532Z</time>
      </trkpt>
      <trkpt lat="55.25189118459821" lon="12.258189227432013">
        <ele>9.02</ele>
        <time>2023-06-10T21:38:03.119Z</time>
      </trkpt>
      <trkpt lat="55.25190685875714" lon="12.258344627916813">
        <ele>9.03</ele>
        <time>2023-06-10T21:38:12.707Z</time>
      </trkpt>
      <trkpt lat="55.25199277326465" lon="12.25919765420258">
        <ele>8.98</ele>
        <time>2023-06-10T21:38:22.303Z</time>
      </trkpt>
      <trkpt lat="55.25200819596648" lon="12.259351462125778">
        <ele>9.0</ele>
        <time>2023-06-10T21:38:31.900Z</time>
      </trkpt>
      <trkpt lat="55.25205513462424" lon="12.259817579761147">
        <ele>9.12</ele>
        <time>2023-06-10T21:38:41.502Z</time>
      </trkpt>
      <trkpt lat="55.25208631530404" lon="12.260126788169146">
        <ele>9.15</ele>
        <time>2023-06-10T21:38:51.107Z</time>
      </trkpt>
      <trkpt lat="55.25210978463292" lon="12.260359888896346">
        <ele>9.13</ele>
        <time>2023-06-10T21:39:00.714Z</time>
      </trkpt>
      <trkpt lat="55.25213317014277" lon="12.260592905804515">
        <ele>9.07</ele>
        <time>2023-06-10T21:39:10.323Z</time>
      </trkpt>
      <trkpt lat="55.25213995948434" lon="12.260659961029887">
        <ele>9.01</ele>
        <time>2023-06-10T21:39:19.933Z</time>
      </trkpt>
      <trkpt lat="55.25213995948434" lon="12.260939916595817">
        <ele>8.8</ele>
        <time>2023-06-10T21:39:29.545Z</time>
      </trkpt>
      <trkpt lat="55.252089919522405" lon="12.261059945449233">
        <ele>8.69</ele>
        <time>2023-06-10T21:39:39.159Z</time>
      </trkpt>
      <trkpt lat="55.25202998891473" lon="12.261139992624521">
        <ele>8.59</ele>
        <time>2023-06-10T21:39:48.774Z</time>
      </trkpt>
      <trkpt lat="55.2519881632179" lon="12.261170670390129">
        <ele>8.54</ele>
        <time>2023-06-10T21:39:58.389Z</time>
      </trkpt>
      <trkpt lat="55.25182303972542" lon="12.261291788890958">
        <ele>8.39</ele>
        <time>2023-06-10T21:40:08.007Z</time>
      </trkpt>
      <trkpt lat="55.25169773027301" lon="12.26138373836875">
        <ele>8.32</ele>
        <time>2023-06-10T21:40:17.628Z</time>
      </trkpt>
      <trkpt lat="55.251531852409244" lon="12.261505527421832">
        <ele>8.31</ele>
        <time>2023-06-10T21:40:27.251Z</time>
      </trkpt>
      <trkpt lat="55.251034051179886" lon="12.261870810762048">
        <ele>8.41</ele>
        <time>2023-06-10T21:40:36.883Z</time>
      </trkpt>
      <trkpt lat="55.25074361823499" lon="12.262083878740668">
        <ele>8.56</ele>
        <time>2023-06-10T21:40:46.520Z</time>
      </trkpt>
      <trkpt lat="55.250581009313464" lon="12.262203237041831">
        <ele>8.45</ele>
        <time>2023-06-10T21:40:56.160Z</time>
      </trkpt>
      <trkpt lat="55.2504997048527" lon="12.26226283237338">
        <ele>8.43</ele>
        <time>2023-06-10T21:41:05.801Z</time>
      </trkpt>
      <trkpt lat="55.25025495328009" lon="12.262442456558347">
        <ele>8.54</ele>
        <time>2023-06-10T21:41:15.447Z</time>
      </trkpt>
      <trkpt lat="55.250091506168246" lon="12.262562401592731">
        <ele>8.54</ele>
        <time>2023-06-10T21:41:25.095Z</time>
      </trkpt>
      <trkpt lat="55.25001020170748" lon="12.262622080743313">
        <ele>8.56</ele>
        <time>2023-06-10T21:41:34.745Z</time>
      </trkpt>
      <trkpt lat="55.24935808964074" lon="12.263100603595376">
        <ele>8.85</ele>
        <time>2023-06-10T21:41:44.406Z</time>
      </trkpt>
      <trkpt lat="55.249249963089824" lon="12.26317998021841">
        <ele>8.86</ele>
        <time>2023-06-10T21:41:54.069Z</time>
      </trkpt>
      <trkpt lat="55.24923663586378" lon="12.263192050158978">
        <ele>8.87</ele>
        <time>2023-06-10T21:42:03.732Z</time>
      </trkpt>
      <trkpt lat="55.24913999252021" lon="12.263279976323247">
        <ele>8.87</ele>
        <time>2023-06-10T21:42:13.397Z</time>
      </trkpt>
      <trkpt lat="55.249079978093505" lon="12.263399921357632">
        <ele>8.87</ele>
        <time>2023-06-10T21:42:23.064Z</time>
      </trkpt>
      <trkpt lat="55.24904997088015" lon="12.263509975746274">
        <ele>8.88</ele>
        <time>2023-06-10T21:42:32.732Z</time>
      </trkpt>
      <trkpt lat="55.24904997088015" lon="12.263509975746274">
        <ele>8.88</ele>
        <time>2023-06-10T21:42:42.400Z</time>
      </trkpt>
      <trkpt lat="55.2490749489516" lon="12.263735197484493">
        <ele>8.91</ele>
        <time>2023-06-10T21:42:52.070Z</time>
      </trkpt>
      <trkpt lat="55.24909204803407" lon="12.2638885024935">
        <ele>8.96</ele>
        <time>2023-06-10T21:43:01.741Z</time>
      </trkpt>
      <trkpt lat="55.24915155954659" lon="12.264424357563257">
        <ele>9.18</ele>
        <time>2023-06-10T21:43:11.417Z</time>
      </trkpt>
      <trkpt lat="55.249219704419374" lon="12.265037577599287">
        <ele>9.58</ele>
        <time>2023-06-10T21:43:21.099Z</time>
      </trkpt>
      <trkpt lat="55.24927083402872" lon="12.26549749262631">
        <ele>9.91</ele>
        <time>2023-06-10T21:43:30.785Z</time>
      </trkpt>
      <trkpt lat="55.24933034554124" lon="12.266033347696066">
        <ele>10.32</ele>
        <time>2023-06-10T21:43:40.476Z</time>
      </trkpt>
      <trkpt lat="55.24935582652688" lon="12.266262508928776">
        <ele>10.47</ele>
        <time>2023-06-10T21:43:50.169Z</time>
      </trkpt>
      <trkpt lat="55.24939798749983" lon="12.26664187386632">
        <ele>10.47</ele>
        <time>2023-06-10T21:43:59.866Z</time>
      </trkpt>
      <trkpt lat="55.24942338466644" lon="12.266871118918061">
        <ele>10.5</ele>
        <time>2023-06-10T21:44:09.565Z</time>
      </trkpt>
      <trkpt lat="55.24952497333288" lon="12.267784746363759">
        <ele>10.83</ele>
        <time>2023-06-10T21:44:19.273Z</time>
      </trkpt>
      <trkpt lat="55.24955020286143" lon="12.268012398853898">
        <ele>10.98</ele>
        <time>2023-06-10T21:44:28.983Z</time>
      </trkpt>
      <trkpt lat="55.24958398193121" lon="12.26831590756774">
        <ele>11.27</ele>
        <time>2023-06-10T21:44:38.695Z</time>
      </trkpt>
      <trkpt lat="55.24960099719465" lon="12.268469212576747">
        <ele>11.39</ele>
        <time>2023-06-10T21:44:48.409Z</time>
      </trkpt>
      <trkpt lat="55.249634524807334" lon="12.268771212548018">
        <ele>11.12</ele>
        <time>2023-06-10T21:44:58.126Z</time>
      </trkpt>
      <trkpt lat="55.249639973044395" lon="12.268819995224476">
        <ele>11.07</ele>
        <time>2023-06-10T21:45:07.843Z</time>
      </trkpt>
      <trkpt lat="55.24940511211753" lon="12.268843548372388">
        <ele>10.68</ele>
        <time>2023-06-10T21:45:17.564Z</time>
      </trkpt>
      <trkpt lat="55.24931802414358" lon="12.268852349370718">
        <ele>10.56</ele>
        <time>2023-06-10T21:45:27.286Z</time>
      </trkpt>
      <trkpt lat="55.24918609298766" lon="12.268865592777729">
        <ele>10.44</ele>
        <time>2023-06-10T21:45:37.010Z</time>
      </trkpt>
      <trkpt lat="55.2488799020648" lon="12.2688964381814">
        <ele>10.25</ele>
        <time>2023-06-10T21:45:46.739Z</time>
      </trkpt>
      <trkpt lat="55.24875149130821" lon="12.268909346312284">
        <ele>10.07</ele>
        <time>2023-06-10T21:45:56.470Z</time>
      </trkpt>
      <trkpt lat="55.248407665640116" lon="12.268943879753351">
        <ele>9.55</ele>
        <time>2023-06-10T21:46:06.207Z</time>
      </trkpt>
      <trkpt lat="55.24823977611959" lon="12.268960811197758">
        <ele>9.41</ele>
        <time>2023-06-10T21:46:15.947Z</time>
      </trkpt>
      <trkpt lat="55.24794992990792" lon="12.268989980220795">
        <ele>9.2</ele>
        <time>2023-06-10T21:46:25.691Z</time>
      </trkpt>
      <trkpt lat="55.24786996655166" lon="12.269049994647503">
        <ele>9.14</ele>
        <time>2023-06-10T21:46:35.437Z</time>
      </trkpt>
      <trkpt lat="55.2478370256722" lon="12.269148733466864">
        <ele>9.1</ele>
        <time>2023-06-10T21:46:45.184Z</time>
      </trkpt>
      <trkpt lat="55.24780995212495" lon="12.269229954108596">
        <ele>9.08</ele>
        <time>2023-06-10T21:46:54.932Z</time>
      </trkpt>
      <trkpt lat="55.24780995212495" lon="12.269292064011097">
        <ele>9.08</ele>
        <time>2023-06-10T21:47:04.680Z</time>
      </trkpt>
      <trkpt lat="55.24780995212495" lon="12.269379990175366">
        <ele>9.09</ele>
        <time>2023-06-10T21:47:14.429Z</time>
      </trkpt>
      <trkpt lat="55.247836438938975" lon="12.269597919657826">
        <ele>9.14</ele>
        <time>2023-06-10T21:47:24.180Z</time>
      </trkpt>
      <trkpt lat="55.247854962944984" lon="12.269750721752644">
        <ele>9.22</ele>
        <time>2023-06-10T21:47:33.932Z</time>
      </trkpt>
      <trkpt lat="55.24791967123747" lon="12.270283056423068">
        <ele>9.59</ele>
        <time>2023-06-10T21:47:43.689Z</time>
      </trkpt>
      <trkpt lat="55.247938027605414" lon="12.270434265956283">
        <ele>9.68</ele>
        <time>2023-06-10T21:47:53.448Z</time>
      </trkpt>
      <trkpt lat="55.247939955443144" lon="12.270449940115213">
        <ele>9.68</ele>
        <time>2023-06-10T21:48:03.207Z</time>
      </trkpt>
      <trkpt lat="55.24795697070658" lon="12.270899880677462">
        <ele>9.81</ele>
        <time>2023-06-10T21:48:12.970Z</time>
      </trkpt>
      <trkpt lat="55.247959988191724" lon="12.27097992785275">
        <ele>9.84</ele>
        <time>2023-06-10T21:48:22.734Z</time>
      </trkpt>
      <trkpt lat="55.24794867262244" lon="12.271131975576282">
        <ele>9.9</ele>
        <time>2023-06-10T21:48:32.499Z</time>
      </trkpt>
      <trkpt lat="55.24793735705316" lon="12.271285280585289">
        <ele>10.0</ele>
        <time>2023-06-10T21:48:42.266Z</time>
      </trkpt>
      <trkpt lat="55.247925873845816" lon="12.271440178155899">
        <ele>10.14</ele>
        <time>2023-06-10T21:48:52.034Z</time>
      </trkpt>
      <trkpt lat="55.247899973765016" lon="12.271789954975247">
        <ele>10.25</ele>
        <time>2023-06-10T21:49:01.805Z</time>
      </trkpt>
      <trkpt lat="55.247854040935636" lon="12.272292198613286">
        <ele>10.42</ele>
        <time>2023-06-10T21:49:11.581Z</time>
      </trkpt>
      <trkpt lat="55.247811544686556" lon="12.272756388410926">
        <ele>10.54</ele>
        <time>2023-06-10T21:49:21.361Z</time>
      </trkpt>
      <trkpt lat="55.247797295451164" lon="12.272912207990885">
        <ele>10.54</ele>
        <time>2023-06-10T21:49:31.143Z</time>
      </trkpt>
      <trkpt lat="55.247783213853836" lon="12.27306635119021">
        <ele>10.52</ele>
        <time>2023-06-10T21:49:40.926Z</time>
      </trkpt>
      <trkpt lat="55.24773359298706" lon="12.273608492687345">
        <ele>10.37</ele>
        <time>2023-06-10T21:49:50.714Z</time>
      </trkpt>
      <trkpt lat="55.247683972120285" lon="12.274150550365448">
        <ele>10.16</ele>
        <time>2023-06-10T21:50:00.507Z</time>
      </trkpt>
      <trkpt lat="55.2476554736495" lon="12.274462105706334">
        <ele>10.08</ele>
        <time>2023-06-10T21:50:10.303Z</time>
      </trkpt>
      <trkpt lat="55.24763426743448" lon="12.274694200605154">
        <ele>10.06</ele>
        <time>2023-06-10T21:50:20.101Z</time>
      </trkpt>
      <trkpt lat="55.24759872816503" lon="12.275082115083933">
        <ele>10.08</ele>
        <time>2023-06-10T21:50:29.903Z</time>
      </trkpt>
      <trkpt lat="55.24755614809692" lon="12.275547813624144">
        <ele>9.99</ele>
        <time>2023-06-10T21:50:39.709Z</time>
      </trkpt>
      <trkpt lat="55.24754189886153" lon="12.275703633204103">
        <ele>10.0</ele>
        <time>2023-06-10T21:50:49.517Z</time>
      </trkpt>
      <trkpt lat="55.247485153377056" lon="12.27632355876267">
        <ele>10.11</ele>
        <time>2023-06-10T21:50:59.330Z</time>
      </trkpt>
      <trkpt lat="55.2473430801183" lon="12.277876641601324">
        <ele>10.13</ele>
        <time>2023-06-10T21:51:09.158Z</time>
      </trkpt>
      <trkpt lat="55.24730762466788" lon="12.278264472261071">
        <ele>10.16</ele>
        <time>2023-06-10T21:51:18.989Z</time>
      </trkpt>
      <trkpt lat="55.24727921001613" lon="12.278574518859386">
        <ele>10.11</ele>
        <time>2023-06-10T21:51:28.823Z</time>
      </trkpt>
      <trkpt lat="55.247229505330324" lon="12.279118169099092">
        <ele>9.94</ele>
        <time>2023-06-10T21:51:38.662Z</time>
      </trkpt>
      <trkpt lat="55.24718684144318" lon="12.279583867639303">
        <ele>9.86</ele>
        <time>2023-06-10T21:51:48.506Z</time>
      </trkpt>
      <trkpt lat="55.247165467590094" lon="12.279817555099726">
        <ele>9.84</ele>
        <time>2023-06-10T21:51:58.352Z</time>
      </trkpt>
      <trkpt lat="55.24713001213968" lon="12.280205469578505">
        <ele>9.89</ele>
        <time>2023-06-10T21:52:08.201Z</time>
      </trkpt>
      <trkpt lat="55.24711593054235" lon="12.28035961277783">
        <ele>9.95</ele>
        <time>2023-06-10T21:52:18.052Z</time>
      </trkpt>
      <trkpt lat="55.24710168130696" lon="12.280515432357788">
        <ele>10.05</ele>
        <time>2023-06-10T21:52:27.904Z</time>
      </trkpt>
      <trkpt lat="55.24706656113267" lon="12.28089865297079">
        <ele>9.98</ele>
        <time>2023-06-10T21:52:37.760Z</time>
      </trkpt>
      <trkpt lat="55.24702423252165" lon="12.281361250206828">
        <ele>10.01</ele>
        <time>2023-06-10T21:52:47.620Z</time>
      </trkpt>
      <trkpt lat="55.2469820715487" lon="12.281822338700294">
        <ele>9.99</ele>
        <time>2023-06-10T21:52:57.484Z</time>
      </trkpt>
      <trkpt lat="55.24691166356206" lon="12.282591881230474">
        <ele>10.05</ele>
        <time>2023-06-10T21:53:07.356Z</time>
      </trkpt>
      <trkpt lat="55.24685533717275" lon="12.283207196742296">
        <ele>9.96</ele>
        <time>2023-06-10T21:53:17.233Z</time>
      </trkpt>
      <trkpt lat="55.246813176199794" lon="12.283668285235763">
        <ele>9.86</ele>
        <time>2023-06-10T21:53:27.115Z</time>
      </trkpt>
      <trkpt lat="55.2467920538038" lon="12.28389878757298">
        <ele>9.85</ele>
        <time>2023-06-10T21:53:36.999Z</time>
      </trkpt>
      <trkpt lat="55.246763890609145" lon="12.284207241609693">
        <ele>9.76</ele>
        <time>2023-06-10T21:53:46.886Z</time>
      </trkpt>
      <trkpt lat="55.246759951114655" lon="12.284249989315867">
        <ele>9.75</ele>
        <time>2023-06-10T21:53:56.773Z</time>
      </trkpt>
      <trkpt lat="55.246724747121334" lon="12.284593982622027">
        <ele>9.71</ele>
        <time>2023-06-10T21:54:06.663Z</time>
      </trkpt>
      <trkpt lat="55.246669510379434" lon="12.285132771357894">
        <ele>9.77</ele>
        <time>2023-06-10T21:54:16.558Z</time>
      </trkpt>
      <trkpt lat="55.246629947796464" lon="12.285519428551197">
        <ele>9.74</ele>
        <time>2023-06-10T21:54:26.457Z</time>
      </trkpt>
      <trkpt lat="55.246590469032526" lon="12.285904493182898">
        <ele>9.76</ele>
        <time>2023-06-10T21:54:36.359Z</time>
      </trkpt>
      <trkpt lat="55.24655886925757" lon="12.286213533952832">
        <ele>9.75</ele>
        <time>2023-06-10T21:54:46.264Z</time>
      </trkpt>
      <trkpt lat="55.24651142768562" lon="12.286676215007901">
        <ele>9.76</ele>
        <time>2023-06-10T21:54:56.173Z</time>
      </trkpt>
      <trkpt lat="55.24649550206959" lon="12.28683153167367">
        <ele>9.74</ele>
        <time>2023-06-10T21:55:06.084Z</time>
      </trkpt>
      <trkpt lat="55.2464640699327" lon="12.287138979882002">
        <ele>9.64</ele>
        <time>2023-06-10T21:55:15.998Z</time>
      </trkpt>
      <trkpt lat="55.24644814431667" lon="12.287294212728739">
        <ele>9.62</ele>
        <time>2023-06-10T21:55:25.913Z</time>
      </trkpt>
      <trkpt lat="55.24643238633871" lon="12.287447936832905">
        <ele>9.65</ele>
        <time>2023-06-10T21:55:35.830Z</time>
      </trkpt>
      <trkpt lat="55.24641662836075" lon="12.28760166093707">
        <ele>9.76</ele>
        <time>2023-06-10T21:55:45.748Z</time>
      </trkpt>
      <trkpt lat="55.24637999944389" lon="12.287959987297654">
        <ele>9.76</ele>
        <time>2023-06-10T21:55:55.669Z</time>
      </trkpt>
      <trkpt lat="55.246360804885626" lon="12.288140282034874">
        <ele>9.76</ele>
        <time>2023-06-10T21:56:05.592Z</time>
      </trkpt>
      <trkpt lat="55.24631177075207" lon="12.28860086761415">
        <ele>9.69</ele>
        <time>2023-06-10T21:56:15.519Z</time>
      </trkpt>
      <trkpt lat="55.24627899751067" lon="12.288909489288926">
        <ele>9.68</ele>
        <time>2023-06-10T21:56:25.449Z</time>
      </trkpt>
      <trkpt lat="55.24622996337712" lon="12.289370074868202">
        <ele>9.53</ele>
        <time>2023-06-10T21:56:35.384Z</time>
      </trkpt>
      <trkpt lat="55.246172631159425" lon="12.289909785613418">
        <ele>9.38</ele>
        <time>2023-06-10T21:56:45.324Z</time>
      </trkpt>
      <trkpt lat="55.24613977409899" lon="12.290218407288194">
        <ele>9.32</ele>
        <time>2023-06-10T21:56:55.266Z</time>
      </trkpt>
      <trkpt lat="55.24603307247162" lon="12.291221804916859">
        <ele>9.21</ele>
        <time>2023-06-10T21:57:05.218Z</time>
      </trkpt>
      <trkpt lat="55.246008513495326" lon="12.291452893987298">
        <ele>9.12</ele>
        <time>2023-06-10T21:57:15.172Z</time>
      </trkpt>
      <trkpt lat="55.24595092982054" lon="12.291994113475084">
        <ele>8.87</ele>
        <time>2023-06-10T21:57:25.131Z</time>
      </trkpt>
      <trkpt lat="55.24593458510935" lon="12.292147669941187">
        <ele>8.82</ele>
        <time>2023-06-10T21:57:35.091Z</time>
      </trkpt>
      <trkpt lat="55.245893597602844" lon="12.2925338242203">
        <ele>8.74</ele>
        <time>2023-06-10T21:57:45.055Z</time>
      </trkpt>
      <trkpt lat="55.245844228193164" lon="12.29299751110375">
        <ele>8.55</ele>
        <time>2023-06-10T21:57:55.023Z</time>
      </trkpt>
      <trkpt lat="55.24580315686762" lon="12.293383665382862">
        <ele>8.33</ele>
        <time>2023-06-10T21:58:04.995Z</time>
      </trkpt>
      <trkpt lat="55.245679942891" lon="12.294542212039232">
        <ele>7.41</ele>
        <time>2023-06-10T21:58:14.978Z</time>
      </trkpt>
      <trkpt lat="55.2456471696496" lon="12.294850833714008">
        <ele>7.2</ele>
        <time>2023-06-10T21:58:24.964Z</time>
      </trkpt>
      <trkpt lat="55.24561431258917" lon="12.295159371569753">
        <ele>7.03</ele>
        <time>2023-06-10T21:58:34.953Z</time>
      </trkpt>
      <trkpt lat="55.24558958597481" lon="12.295392053201795">
        <ele>6.92</ele>
        <time>2023-06-10T21:58:44.944Z</time>
      </trkpt>
      <trkpt lat="55.24551574140787" lon="12.296086829155684">
        <ele>6.69</ele>
        <time>2023-06-10T21:58:54.941Z</time>
      </trkpt>
      <trkpt lat="55.24548288434744" lon="12.29639545083046">
        <ele>6.55</ele>
        <time>2023-06-10T21:59:04.941Z</time>
      </trkpt>
      <trkpt lat="55.24542538449168" lon="12.296936670318246">
        <ele>6.2</ele>
        <time>2023-06-10T21:59:14.946Z</time>
      </trkpt>
      <trkpt lat="55.24540074169636" lon="12.297167759388685">
        <ele>6.01</ele>
        <time>2023-06-10T21:59:24.953Z</time>
      </trkpt>
      <trkpt lat="55.24538431316614" lon="12.297322824597359">
        <ele>5.92</ele>
        <time>2023-06-10T21:59:34.962Z</time>
      </trkpt>
      <trkpt lat="55.245376182720065" lon="12.297398848459125">
        <ele>5.9</ele>
        <time>2023-06-10T21:59:44.971Z</time>
      </trkpt>
      <trkpt lat="55.24535967037082" lon="12.297553913667798">
        <ele>5.89</ele>
        <time>2023-06-10T21:59:54.982Z</time>
      </trkpt>
      <trkpt lat="55.2453432418406" lon="12.297708978876472">
        <ele>5.92</ele>
        <time>2023-06-10T22:00:04.994Z</time>
      </trkpt>
      <trkpt lat="55.24532689712942" lon="12.297862535342574">
        <ele>5.99</ele>
        <time>2023-06-10T22:00:15.008Z</time>
      </trkpt>
      <trkpt lat="55.24530217051506" lon="12.298095133155584">
        <ele>6.17</ele>
        <time>2023-06-10T22:00:25.024Z</time>
      </trkpt>
      <trkpt lat="55.24527761153877" lon="12.298326222226024">
        <ele>6.45</ele>
        <time>2023-06-10T22:00:35.042Z</time>
      </trkpt>
      <trkpt lat="55.24525296874344" lon="12.298557311296463">
        <ele>6.47</ele>
        <time>2023-06-10T22:00:45.062Z</time>
      </trkpt>
      <trkpt lat="55.24523997679353" lon="12.298679938539863">
        <ele>6.49</ele>
        <time>2023-06-10T22:00:55.083Z</time>
      </trkpt>
      <trkpt lat="55.24523679167032" lon="12.298710867762566">
        <ele>6.5</ele>
        <time>2023-06-10T22:01:05.105Z</time>
      </trkpt>
      <trkpt lat="55.245173340663314" lon="12.299330458045006">
        <ele>6.75</ele>
        <time>2023-06-10T22:01:15.132Z</time>
      </trkpt>
      <trkpt lat="55.24512581527233" lon="12.299794647842646">
        <ele>6.89</ele>
        <time>2023-06-10T22:01:25.164Z</time>
      </trkpt>
      <trkpt lat="55.24509446695447" lon="12.300100587308407">
        <ele>6.68</ele>
        <time>2023-06-10T22:01:35.199Z</time>
      </trkpt>
      <trkpt lat="55.24507879279554" lon="12.300254311412573">
        <ele>6.6</ele>
        <time>2023-06-10T22:01:45.235Z</time>
      </trkpt>
      <trkpt lat="55.245063034817576" lon="12.300408035516739">
        <ele>6.57</ele>
        <time>2023-06-10T22:01:55.272Z</time>
      </trkpt>
      <trkpt lat="55.24505507200956" lon="12.300485651940107">
        <ele>6.58</ele>
        <time>2023-06-10T22:02:05.310Z</time>
      </trkpt>
      <trkpt lat="55.245047276839614" lon="12.300561759620905">
        <ele>6.61</ele>
        <time>2023-06-10T22:02:15.349Z</time>
      </trkpt>
      <trkpt lat="55.24503151886165" lon="12.300715483725071">
        <ele>6.71</ele>
        <time>2023-06-10T22:02:25.389Z</time>
      </trkpt>
      <trkpt lat="55.24499229155481" lon="12.301098955795169">
        <ele>7.09</ele>
        <time>2023-06-10T22:02:35.433Z</time>
      </trkpt>
      <trkpt lat="55.244976533576846" lon="12.301252679899335">
        <ele>7.22</ele>
        <time>2023-06-10T22:02:45.478Z</time>
      </trkpt>
      <trkpt lat="55.24496270343661" lon="12.30138779617846">
        <ele>7.25</ele>
        <time>2023-06-10T22:02:55.525Z</time>
      </trkpt>
      <trkpt lat="55.24493998847902" lon="12.301609916612506">
        <ele>7.23</ele>
        <time>2023-06-10T22:03:05.574Z</time>
      </trkpt>
      <trkpt lat="55.24473647587001" lon="12.30163648724556">
        <ele>7.22</ele>
        <time>2023-06-10T22:03:15.626Z</time>
      </trkpt>
      <trkpt lat="55.24446205236018" lon="12.301672277972102">
        <ele>7.1</ele>
        <time>2023-06-10T22:03:25.682Z</time>
      </trkpt>
      <trkpt lat="55.24428536184132" lon="12.301695328205824">
        <ele>6.76</ele>
        <time>2023-06-10T22:03:35.741Z</time>
      </trkpt>
      <trkpt lat="55.24424999020994" lon="12.301699938252568">
        <ele>6.67</ele>
        <time>2023-06-10T22:03:45.801Z</time>
      </trkpt>
      <trkpt lat="55.24419793859124" lon="12.301714522764087">
        <ele>6.55</ele>
        <time>2023-06-10T22:03:55.862Z</time>
      </trkpt>
      <trkpt lat="55.24411093443632" lon="12.301738830283284">
        <ele>6.29</ele>
        <time>2023-06-10T22:04:05.924Z</time>
      </trkpt>
      <trkpt lat="55.24384715594351" lon="12.301812674850225">
        <ele>5.43</ele>
        <time>2023-06-10T22:04:15.990Z</time>
      </trkpt>
      <trkpt lat="55.24376015178859" lon="12.301836982369423">
        <ele>5.19</ele>
        <time>2023-06-10T22:04:26.058Z</time>
      </trkpt>
      <trkpt lat="55.24367222562432" lon="12.301861625164747">
        <ele>4.99</ele>
        <time>2023-06-10T22:04:36.127Z</time>
      </trkpt>
      <trkpt lat="55.24358513765037" lon="12.301885932683945">
        <ele>4.83</ele>
        <time>2023-06-10T22:04:46.197Z</time>
      </trkpt>
      <trkpt lat="55.24336578324437" lon="12.30194728821516">
        <ele>4.52</ele>
        <time>2023-06-10T22:04:56.271Z</time>
      </trkpt>
      <trkpt lat="55.24323435500264" lon="12.301984084770083">
        <ele>4.37</ele>
        <time>2023-06-10T22:05:06.347Z</time>
      </trkpt>
      <trkpt lat="55.24314735084772" lon="12.302008392289281">
        <ele>4.31</ele>
        <time>2023-06-10T22:05:16.425Z</time>
      </trkpt>
      <trkpt lat="55.24298306554556" lon="12.302054408937693">
        <ele>4.1</ele>
        <time>2023-06-10T22:05:26.505Z</time>
      </trkpt>
      <trkpt lat="55.2427770383656" lon="12.302112076431513">
        <ele>3.89</ele>
        <time>2023-06-10T22:05:36.589Z</time>
      </trkpt>
      <trkpt lat="55.2425923012197" lon="12.30216370895505">
        <ele>4.08</ele>
        <time>2023-06-10T22:05:46.676Z</time>
      </trkpt>
      <trkpt lat="55.242569921538234" lon="12.302169995382428">
        <ele>4.08</ele>
        <time>2023-06-10T22:05:56.763Z</time>
      </trkpt>
      <trkpt lat="55.242581153288484" lon="12.30228004977107">
        <ele>4.11</ele>
        <time>2023-06-10T22:06:06.851Z</time>
      </trkpt>
      <trkpt lat="55.24260378442705" lon="12.302503678947687">
        <ele>4.21</ele>
        <time>2023-06-10T22:06:16.941Z</time>
      </trkpt>
      <trkpt lat="55.24261895567179" lon="12.302652793005109">
        <ele>4.34</ele>
        <time>2023-06-10T22:06:27.032Z</time>
      </trkpt>
      <trkpt lat="55.242634043097496" lon="12.30280190706253">
        <ele>4.5</ele>
        <time>2023-06-10T22:06:37.125Z</time>
      </trkpt>
      <trkpt lat="55.242664301767945" lon="12.303100051358342">
        <ele>4.93</ele>
        <time>2023-06-10T22:06:47.221Z</time>
      </trkpt>
      <trkpt lat="55.24268693290651" lon="12.303323680534959">
        <ele>5.3</ele>
        <time>2023-06-10T22:06:57.319Z</time>
      </trkpt>
      <trkpt lat="55.242798663675785" lon="12.304424894973636">
        <ele>6.04</ele>
        <time>2023-06-10T22:07:07.427Z</time>
      </trkpt>
      <trkpt lat="55.24283001199365" lon="12.30473393574357">
        <ele>6.12</ele>
        <time>2023-06-10T22:07:17.538Z</time>
      </trkpt>
      <trkpt lat="55.2428772021085" lon="12.305199885740876">
        <ele>6.2</ele>
        <time>2023-06-10T22:07:27.653Z</time>
      </trkpt>
      <trkpt lat="55.242916429415345" lon="12.305586626753211">
        <ele>6.3</ele>
        <time>2023-06-10T22:07:37.772Z</time>
      </trkpt>
      <trkpt lat="55.24293218739331" lon="12.30574194341898">
        <ele>6.36</ele>
        <time>2023-06-10T22:07:47.892Z</time>
      </trkpt>
      <trkpt lat="55.24296370334923" lon="12.306052492931485">
        <ele>6.53</ele>
        <time>2023-06-10T22:07:58.015Z</time>
      </trkpt>
      <trkpt lat="55.242979461327195" lon="12.306207809597254">
        <ele>6.59</ele>
        <time>2023-06-10T22:08:08.139Z</time>
      </trkpt>
      <trkpt lat="55.24305799975991" lon="12.306982884183526">
        <ele>6.72</ele>
        <time>2023-06-10T22:08:18.271Z</time>
      </trkpt>
      <trkpt lat="55.24311315268278" lon="12.3075264506042">
        <ele>6.84</ele>
        <time>2023-06-10T22:08:28.408Z</time>
      </trkpt>
      <trkpt lat="55.24317601695657" lon="12.308146124705672">
        <ele>7.0</ele>
        <time>2023-06-10T22:08:38.551Z</time>
      </trkpt>
      <trkpt lat="55.243238881230354" lon="12.308765798807144">
        <ele>7.21</ele>
        <time>2023-06-10T22:08:48.699Z</time>
      </trkpt>
      <trkpt lat="55.243262434378266" lon="12.308998815715313">
        <ele>7.23</ele>
        <time>2023-06-10T22:08:58.849Z</time>
      </trkpt>
      <trkpt lat="55.24327819235623" lon="12.309154132381082">
        <ele>7.22</ele>
        <time>2023-06-10T22:09:09.001Z</time>
      </trkpt>
      <trkpt lat="55.24334122426808" lon="12.309775315225124">
        <ele>7.1</ele>
        <time>2023-06-10T22:09:19.159Z</time>
      </trkpt>
      <trkpt lat="55.24337257258594" lon="12.31008443981409">
        <ele>6.98</ele>
        <time>2023-06-10T22:09:29.320Z</time>
      </trkpt>
      <trkpt lat="55.243396209552884" lon="12.310317372903228">
        <ele>6.86</ele>
        <time>2023-06-10T22:09:39.483Z</time>
      </trkpt>
      <trkpt lat="55.24341196753085" lon="12.310472689568996">
        <ele>6.76</ele>
        <time>2023-06-10T22:09:49.647Z</time>
      </trkpt>
      <trkpt lat="55.24342772550881" lon="12.310628006234765">
        <ele>6.62</ele>
        <time>2023-06-10T22:09:59.813Z</time>
      </trkpt>
      <trkpt lat="55.24345136247575" lon="12.310860939323902">
        <ele>6.38</ele>
        <time>2023-06-10T22:10:09.981Z</time>
      </trkpt>
      <trkpt lat="55.24346695281565" lon="12.3110147472471">
        <ele>6.25</ele>
        <time>2023-06-10T22:10:20.150Z</time>
      </trkpt>
      <trkpt lat="55.243600476533175" lon="12.312331795692444">
        <ele>5.55</ele>
        <time>2023-06-10T22:10:30.331Z</time>
      </trkpt>
      <trkpt lat="55.24362411350012" lon="12.312564728781581">
        <ele>5.44</ele>
        <time>2023-06-10T22:10:40.515Z</time>
      </trkpt>
      <trkpt lat="55.24365546181798" lon="12.312873769551516">
        <ele>5.33</ele>
        <time>2023-06-10T22:10:50.702Z</time>
      </trkpt>
      <trkpt lat="55.243686977773905" lon="12.313184402883053">
        <ele>5.28</ele>
        <time>2023-06-10T22:11:00.891Z</time>
      </trkpt>
      <trkpt lat="55.24371991865337" lon="12.313509956002235">
        <ele>5.28</ele>
        <time>2023-06-10T22:11:11.083Z</time>
      </trkpt>
      <trkpt lat="55.24372193031013" lon="12.313571982085705">
        <ele>5.28</ele>
        <time>2023-06-10T22:11:21.276Z</time>
      </trkpt>
      <trkpt lat="55.243729976937175" lon="12.313819918781519">
        <ele>5.31</ele>
        <time>2023-06-10T22:11:31.471Z</time>
      </trkpt>
      <trkpt lat="55.243729976937175" lon="12.313819918781519">
        <ele>5.31</ele>
        <time>2023-06-10T22:11:41.666Z</time>
      </trkpt>
      <trkpt lat="55.24371991865337" lon="12.314179921522737">
        <ele>5.41</ele>
        <time>2023-06-10T22:11:51.865Z</time>
      </trkpt>
      <trkpt lat="55.24369636550546" lon="12.314432300627232">
        <ele>5.48</ele>
        <time>2023-06-10T22:12:02.066Z</time>
      </trkpt>
      <trkpt lat="55.243652863428" lon="12.314897747710347">
        <ele>5.63</ele>
        <time>2023-06-10T22:12:12.271Z</time>
      </trkpt>
      <trkpt lat="55.24358999915421" lon="12.315569976344705">
        <ele>5.79</ele>
        <time>2023-06-10T22:12:22.482Z</time>
      </trkpt>
      <trkpt lat="55.243575582280755" lon="12.315748343244195">
        <ele>5.84</ele>
        <time>2023-06-10T22:12:32.695Z</time>
      </trkpt>
      <trkpt lat="55.243544317781925" lon="12.316135670989752">
        <ele>5.9</ele>
        <time>2023-06-10T22:12:42.912Z</time>
      </trkpt>
      <trkpt lat="55.24350693449378" lon="12.316599609330297">
        <ele>6.07</ele>
        <time>2023-06-10T22:12:53.133Z</time>
      </trkpt>
      <trkpt lat="55.24346938356757" lon="12.317065056413412">
        <ele>6.18</ele>
        <time>2023-06-10T22:13:03.358Z</time>
      </trkpt>
      <trkpt lat="55.24343996308744" lon="12.31742992065847">
        <ele>6.2</ele>
        <time>2023-06-10T22:13:13.587Z</time>
      </trkpt>
      <trkpt lat="55.24339637719095" lon="12.317918334156275">
        <ele>6.23</ele>
        <time>2023-06-10T22:13:23.820Z</time>
      </trkpt>
      <trkpt lat="55.24335488677025" lon="12.31838277541101">
        <ele>6.37</ele>
        <time>2023-06-10T22:13:34.058Z</time>
      </trkpt>
      <trkpt lat="55.24333401583135" lon="12.318616546690464">
        <ele>6.42</ele>
        <time>2023-06-10T22:13:44.298Z</time>
      </trkpt>
      <trkpt lat="55.24331331253052" lon="12.318848809227347">
        <ele>6.39</ele>
        <time>2023-06-10T22:13:54.540Z</time>
      </trkpt>
      <trkpt lat="55.24323720484972" lon="12.319701248779893">
        <ele>6.17</ele>
        <time>2023-06-10T22:14:04.790Z</time>
      </trkpt>
      <trkpt lat="55.24313746020198" lon="12.320818724110723">
        <ele>5.62</ele>
        <time>2023-06-10T22:14:15.050Z</time>
      </trkpt>
      <trkpt lat="55.24311759509146" lon="12.321041598916054">
        <ele>5.47</ele>
        <time>2023-06-10T22:14:25.312Z</time>
      </trkpt>
      <trkpt lat="55.24309756234288" lon="12.321266066282988">
        <ele>5.28</ele>
        <time>2023-06-10T22:14:35.576Z</time>
      </trkpt>
      <trkpt lat="55.24307685904205" lon="12.32149824500084">
        <ele>5.04</ele>
        <time>2023-06-10T22:14:45.842Z</time>
      </trkpt>
      <trkpt lat="55.243056155741215" lon="12.321730507537723">
        <ele>4.74</ele>
        <time>2023-06-10T22:14:56.111Z</time>
      </trkpt>
      <trkpt lat="55.24304232560098" lon="12.321884734556079">
        <ele>4.49</ele>
        <time>2023-06-10T22:15:06.381Z</time>
      </trkpt>
      <trkpt lat="55.24299396201968" lon="12.32242712751031">
        <ele>3.56</ele>
        <time>2023-06-10T22:15:16.656Z</time>
      </trkpt>
      <trkpt lat="55.24297325871885" lon="12.32265930622816">
        <ele>3.2</ele>
        <time>2023-06-10T22:15:26.933Z</time>
      </trkpt>
      <trkpt lat="55.24295934475958" lon="12.322815209627151">
        <ele>2.99</ele>
        <time>2023-06-10T22:15:37.212Z</time>
      </trkpt>
      <trkpt lat="55.24295247159898" lon="12.322891568765044">
        <ele>2.91</ele>
        <time>2023-06-10T22:15:47.491Z</time>
      </trkpt>
      <trkpt lat="55.24294995702803" lon="12.322919983416796">
        <ele>2.88</ele>
        <time>2023-06-10T22:15:57.771Z</time>
      </trkpt>
      <trkpt lat="55.24294408969581" lon="12.323361206799746">
        <ele>2.55</ele>
        <time>2023-06-10T22:16:08.055Z</time>
      </trkpt>
      <trkpt lat="55.24294199422002" lon="12.323518870398402">
        <ele>2.49</ele>
        <time>2023-06-10T22:16:18.340Z</time>
      </trkpt>
      <trkpt lat="55.24293998256326" lon="12.323669996112585">
        <ele>2.49</ele>
        <time>2023-06-10T22:16:28.626Z</time>
      </trkpt>
      <trkpt lat="55.24294056929648" lon="12.323674941435456">
        <ele>2.49</ele>
        <time>2023-06-10T22:16:38.912Z</time>
      </trkpt>
      <trkpt lat="55.242967307567596" lon="12.323903599753976">
        <ele>2.41</ele>
        <time>2023-06-10T22:16:49.201Z</time>
      </trkpt>
      <trkpt lat="55.24298516102135" lon="12.324056653305888">
        <ele>2.39</ele>
        <time>2023-06-10T22:16:59.491Z</time>
      </trkpt>
      <trkpt lat="55.24302992038429" lon="12.324439957737923">
        <ele>2.48</ele>
        <time>2023-06-10T22:17:09.785Z</time>
      </trkpt>
      <trkpt lat="55.24302992038429" lon="12.324439957737923">
        <ele>2.48</ele>
        <time>2023-06-10T22:17:20.079Z</time>
      </trkpt>
      <trkpt lat="55.24300997145474" lon="12.324849916622043">
        <ele>2.55</ele>
        <time>2023-06-10T22:17:30.376Z</time>
      </trkpt>
      <trkpt lat="55.24297535419464" lon="12.325054183602333">
        <ele>2.59</ele>
        <time>2023-06-10T22:17:40.675Z</time>
      </trkpt>
      <trkpt lat="55.24294995702803" lon="12.325203884392977">
        <ele>2.61</ele>
        <time>2023-06-10T22:17:50.976Z</time>
      </trkpt>
      <trkpt lat="55.24289916269481" lon="12.325503285974264">
        <ele>2.61</ele>
        <time>2023-06-10T22:18:01.280Z</time>
      </trkpt>
      <trkpt lat="55.24278508499265" lon="12.326176101341844">
        <ele>2.54</ele>
        <time>2023-06-10T22:18:11.590Z</time>
      </trkpt>
      <trkpt lat="55.24270897731185" lon="12.326625203713775">
        <ele>2.42</ele>
        <time>2023-06-10T22:18:21.904Z</time>
      </trkpt>
      <trkpt lat="55.24256925098598" lon="12.327449228614569">
        <ele>2.25</ele>
        <time>2023-06-10T22:18:32.226Z</time>
      </trkpt>
      <trkpt lat="55.24254385381937" lon="12.327598929405212">
        <ele>2.24</ele>
        <time>2023-06-10T22:18:42.550Z</time>
      </trkpt>
      <trkpt lat="55.24251854047179" lon="12.327748630195856">
        <ele>2.26</ele>
        <time>2023-06-10T22:18:52.875Z</time>
      </trkpt>
      <trkpt lat="55.24248031899333" lon="12.327973935753107">
        <ele>2.34</ele>
        <time>2023-06-10T22:19:03.202Z</time>
      </trkpt>
      <trkpt lat="55.24242952466011" lon="12.328273337334394">
        <ele>2.36</ele>
        <time>2023-06-10T22:19:13.532Z</time>
      </trkpt>
      <trkpt lat="55.242419969290495" lon="12.328329998999834">
        <ele>2.37</ele>
        <time>2023-06-10T22:19:23.863Z</time>
      </trkpt>
      <trkpt lat="55.24238560348749" lon="12.328496966511011">
        <ele>2.41</ele>
        <time>2023-06-10T22:19:34.195Z</time>
      </trkpt>
      <trkpt lat="55.24227940477431" lon="12.329013291746378">
        <ele>2.65</ele>
        <time>2023-06-10T22:19:44.532Z</time>
      </trkpt>
      <trkpt lat="55.24217312224209" lon="12.329529700800776">
        <ele>2.74</ele>
        <time>2023-06-10T22:19:54.874Z</time>
      </trkpt>
      <trkpt lat="55.242052003741264" lon="12.330118780955672">
        <ele>2.88</ele>
        <time>2023-06-10T22:20:05.222Z</time>
      </trkpt>
      <trkpt lat="55.24200649000704" lon="12.330339811742306">
        <ele>2.97</ele>
        <time>2023-06-10T22:20:15.572Z</time>
      </trkpt>
      <trkpt lat="55.241960724815726" lon="12.330562435090542">
        <ele>3.09</ele>
        <time>2023-06-10T22:20:25.924Z</time>
      </trkpt>
      <trkpt lat="55.24190029129386" lon="12.330856220796704">
        <ele>3.35</ele>
        <time>2023-06-10T22:20:36.279Z</time>
      </trkpt>
      <trkpt lat="55.24185452610254" lon="12.331078760325909">
        <ele>3.61</ele>
        <time>2023-06-10T22:20:46.636Z</time>
      </trkpt>
      <trkpt lat="55.24180901236832" lon="12.331299874931574">
        <ele>3.93</ele>
        <time>2023-06-10T22:20:56.996Z</time>
      </trkpt>
      <trkpt lat="55.24171806871891" lon="12.331742020323873">
        <ele>4.67</ele>
        <time>2023-06-10T22:21:07.360Z</time>
      </trkpt>
      <trkpt lat="55.24169996380806" lon="12.331829946488142">
        <ele>4.78</ele>
        <time>2023-06-10T22:21:17.725Z</time>
      </trkpt>
      <trkpt lat="55.241693928837776" lon="12.331891721114516">
        <ele>4.86</ele>
        <time>2023-06-10T22:21:28.090Z</time>
      </trkpt>
      <trkpt lat="55.24168638512492" lon="12.331969505175948">
        <ele>4.91</ele>
        <time>2023-06-10T22:21:38.456Z</time>
      </trkpt>
      <trkpt lat="55.241678757593036" lon="12.332047205418348">
        <ele>4.93</ele>
        <time>2023-06-10T22:21:48.823Z</time>
      </trkpt>
      <trkpt lat="55.24167121388018" lon="12.33212498947978">
        <ele>4.91</ele>
        <time>2023-06-10T22:21:59.190Z</time>
      </trkpt>
      <trkpt lat="55.24166375398636" lon="12.33220118097961">
        <ele>4.87</ele>
        <time>2023-06-10T22:22:09.558Z</time>
      </trkpt>
      <trkpt lat="55.24165998212993" lon="12.332239989191294">
        <ele>4.83</ele>
        <time>2023-06-10T22:22:19.927Z</time>
      </trkpt>
      <trkpt lat="55.24167641066015" lon="12.332748770713806">
        <ele>4.39</ele>
        <time>2023-06-10T22:22:30.300Z</time>
      </trkpt>
      <trkpt lat="55.24168143980205" lon="12.3329062666744">
        <ele>4.23</ele>
        <time>2023-06-10T22:22:40.675Z</time>
      </trkpt>
      <trkpt lat="55.241691414266825" lon="12.333214888349175">
        <ele>4.26</ele>
        <time>2023-06-10T22:22:51.052Z</time>
      </trkpt>
      <trkpt lat="55.24170884862542" lon="12.333755102008581">
        <ele>4.38</ele>
        <time>2023-06-10T22:23:01.434Z</time>
      </trkpt>
      <trkpt lat="55.24171790108085" lon="12.33403547666967">
        <ele>4.41</ele>
        <time>2023-06-10T22:23:11.819Z</time>
      </trkpt>
      <trkpt lat="55.241729971021414" lon="12.334409980103374">
        <ele>4.46</ele>
        <time>2023-06-10T22:23:22.207Z</time>
      </trkpt>
      <trkpt lat="55.241743214428425" lon="12.334604524075985">
        <ele>4.5</ele>
        <time>2023-06-10T22:23:32.597Z</time>
      </trkpt>
      <trkpt lat="55.24175369180739" lon="12.334757996723056">
        <ele>4.55</ele>
        <time>2023-06-10T22:23:42.989Z</time>
      </trkpt>
      <trkpt lat="55.24178537540138" lon="12.335223192349076">
        <ele>4.8</ele>
        <time>2023-06-10T22:23:53.385Z</time>
      </trkpt>
      <trkpt lat="55.24178998544812" lon="12.335289996117353">
        <ele>4.83</ele>
        <time>2023-06-10T22:24:03.782Z</time>
      </trkpt>
      <trkpt lat="55.24181228131056" lon="12.335453107953072">
        <ele>4.91</ele>
        <time>2023-06-10T22:24:14.180Z</time>
      </trkpt>
      <trkpt lat="55.241854107007384" lon="12.335758376866579">
        <ele>5.02</ele>
        <time>2023-06-10T22:24:24.581Z</time>
      </trkpt>
      <trkpt lat="55.241885371506214" lon="12.335986867547035">
        <ele>5.07</ele>
        <time>2023-06-10T22:24:34.984Z</time>
      </trkpt>
      <trkpt lat="55.241937674582005" lon="12.336368830874562">
        <ele>5.1</ele>
        <time>2023-06-10T22:24:45.391Z</time>
      </trkpt>
      <trkpt lat="55.24202107451856" lon="12.336977776139975">
        <ele>5.08</ele>
        <time>2023-06-10T22:24:55.803Z</time>
      </trkpt>
      <trkpt lat="55.24207320995629" lon="12.337358146905899">
        <ele>5.15</ele>
        <time>2023-06-10T22:25:06.219Z</time>
      </trkpt>
      <trkpt lat="55.242198603227735" lon="12.338273786008358">
        <ele>5.25</ele>
        <time>2023-06-10T22:25:16.644Z</time>
      </trkpt>
      <trkpt lat="55.2422193903476" lon="12.338425666093826">
        <ele>5.25</ele>
        <time>2023-06-10T22:25:27.070Z</time>
      </trkpt>
      <trkpt lat="55.242271441966295" lon="12.33880603685975">
        <ele>5.21</ele>
        <time>2023-06-10T22:25:37.500Z</time>
      </trkpt>
      <trkpt lat="55.242302706465125" lon="12.339034611359239">
        <ele>5.21</ele>
        <time>2023-06-10T22:25:47.932Z</time>
      </trkpt>
      <trkpt lat="55.24239683523774" lon="12.339721759781241">
        <ele>5.32</ele>
        <time>2023-06-10T22:25:58.370Z</time>
      </trkpt>
      <trkpt lat="55.242469757795334" lon="12.340254010632634">
        <ele>5.34</ele>
        <time>2023-06-10T22:26:08.813Z</time>
      </trkpt>
      <trkpt lat="55.24249071255326" lon="12.340407399460673">
        <ele>5.31</ele>
        <time>2023-06-10T22:26:19.258Z</time>
      </trkpt>
      <trkpt lat="55.242584589868784" lon="12.341093039140105">
        <ele>5.09</ele>
        <time>2023-06-10T22:26:29.709Z</time>
      </trkpt>
      <trkpt lat="55.24265768006444" lon="12.341626798734069">
        <ele>4.97</ele>
        <time>2023-06-10T22:26:40.165Z</time>
      </trkpt>
      <trkpt lat="55.2426993381232" lon="12.341930475085974">
        <ele>4.92</ele>
        <time>2023-06-10T22:26:50.624Z</time>
      </trkpt>
      <trkpt lat="55.24272029288113" lon="12.342083863914013">
        <ele>4.85</ele>
        <time>2023-06-10T22:27:01.085Z</time>
      </trkpt>
      <trkpt lat="55.24273085407913" lon="12.342160558328032">
        <ele>4.78</ele>
        <time>2023-06-10T22:27:11.546Z</time>
      </trkpt>
      <trkpt lat="55.242741080001" lon="12.342235743999481">
        <ele>4.69</ele>
        <time>2023-06-10T22:27:22.008Z</time>
      </trkpt>
      <trkpt lat="55.24275164119899" lon="12.3423124384135">
        <ele>4.57</ele>
        <time>2023-06-10T22:27:32.471Z</time>
      </trkpt>
      <trkpt lat="55.24280369281769" lon="12.342692809179425">
        <ele>3.9</ele>
        <time>2023-06-10T22:27:42.937Z</time>
      </trkpt>
      <trkpt lat="55.24282473139465" lon="12.342846198007464">
        <ele>3.59</ele>
        <time>2023-06-10T22:27:53.405Z</time>
      </trkpt>
      <trkpt lat="55.24288726039231" lon="12.343303263187408">
        <ele>2.51</ele>
        <time>2023-06-10T22:28:03.877Z</time>
      </trkpt>
      <trkpt lat="55.242908047512174" lon="12.343455143272877">
        <ele>2.19</ele>
        <time>2023-06-10T22:28:14.350Z</time>
      </trkpt>
      <trkpt lat="55.242929086089134" lon="12.343608532100916">
        <ele>1.91</ele>
        <time>2023-06-10T22:28:24.825Z</time>
      </trkpt>
      <trkpt lat="55.242979964241385" lon="12.343979934230447">
        <ele>1.3</ele>
        <time>2023-06-10T22:28:35.303Z</time>
      </trkpt>
      <trkpt lat="55.24298021569848" lon="12.343990746885538">
        <ele>1.3</ele>
        <time>2023-06-10T22:28:45.782Z</time>
      </trkpt>
      <trkpt lat="55.24298558011651" lon="12.344225607812405">
        <ele>0.97</ele>
        <time>2023-06-10T22:28:56.263Z</time>
      </trkpt>
      <trkpt lat="55.24299446493387" lon="12.344618048518896">
        <ele>0.55</ele>
        <time>2023-06-10T22:29:06.747Z</time>
      </trkpt>
      <trkpt lat="55.243003349751234" lon="12.34501057304442">
        <ele>0.08</ele>
        <time>2023-06-10T22:29:17.235Z</time>
      </trkpt>
      <trkpt lat="55.2430069539696" lon="12.345168152824044">
        <ele>-0.08</ele>
        <time>2023-06-10T22:29:27.724Z</time>
      </trkpt>
      <trkpt lat="55.24301592260599" lon="12.345560677349567">
        <ele>-0.42</ele>
        <time>2023-06-10T22:29:38.217Z</time>
      </trkpt>
      <trkpt lat="55.24302304722369" lon="12.345874328166246">
        <ele>-0.59</ele>
        <time>2023-06-10T22:29:48.713Z</time>
      </trkpt>
      <trkpt lat="55.243028327822685" lon="12.346109189093113">
        <ele>-0.67</ele>
        <time>2023-06-10T22:29:59.211Z</time>
      </trkpt>
      <trkpt lat="55.243033692240715" lon="12.346345642581582">
        <ele>-0.62</ele>
        <time>2023-06-10T22:30:09.711Z</time>
      </trkpt>
      <trkpt lat="55.24303729645908" lon="12.346501629799604">
        <ele>-0.5</ele>
        <time>2023-06-10T22:30:20.213Z</time>
      </trkpt>
      <trkpt lat="55.24304081685841" lon="12.346659293398261">
        <ele>-0.32</ele>
        <time>2023-06-10T22:30:30.716Z</time>
      </trkpt>
      <trkpt lat="55.24304618127644" lon="12.346894154325128">
        <ele>0.02</ele>
        <time>2023-06-10T22:30:41.221Z</time>
      </trkpt>
      <trkpt lat="55.24305154569447" lon="12.347130607813597">
        <ele>0.41</ele>
        <time>2023-06-10T22:30:51.728Z</time>
      </trkpt>
      <trkpt lat="55.24305992759764" lon="12.347499998286366">
        <ele>1.12</ele>
        <time>2023-06-10T22:31:02.239Z</time>
      </trkpt>
      <trkpt lat="55.243062945082784" lon="12.347522461786866">
        <ele>1.17</ele>
        <time>2023-06-10T22:31:12.750Z</time>
      </trkpt>
      <trkpt lat="55.24312337860465" lon="12.347982125356793">
        <ele>2.03</ele>
        <time>2023-06-10T22:31:23.265Z</time>
      </trkpt>
      <trkpt lat="55.243163611739874" lon="12.348287981003523">
        <ele>2.69</ele>
        <time>2023-06-10T22:31:33.783Z</time>
      </trkpt>
      <trkpt lat="55.24320392869413" lon="12.348593836650252">
        <ele>3.42</ele>
        <time>2023-06-10T22:31:44.304Z</time>
      </trkpt>
      <trkpt lat="55.243213986977935" lon="12.348670698702335">
        <ele>3.59</ele>
        <time>2023-06-10T22:31:54.826Z</time>
      </trkpt>
      <trkpt lat="55.24323418736458" lon="12.348824422806501">
        <ele>3.89</ele>
        <time>2023-06-10T22:32:05.349Z</time>
      </trkpt>
      <trkpt lat="55.24325422011316" lon="12.348976554349065">
        <ele>4.14</ele>
        <time>2023-06-10T22:32:15.874Z</time>
      </trkpt>
      <trkpt lat="55.24327450431883" lon="12.34913027845323">
        <ele>4.31</ele>
        <time>2023-06-10T22:32:26.400Z</time>
      </trkpt>
      <trkpt lat="55.24329453706741" lon="12.349282493814826">
        <ele>4.43</ele>
        <time>2023-06-10T22:32:36.927Z</time>
      </trkpt>
      <trkpt lat="55.24332479573786" lon="12.349512996152043">
        <ele>4.58</ele>
        <time>2023-06-10T22:32:47.457Z</time>
      </trkpt>
      <trkpt lat="55.24335497058928" lon="12.349742073565722">
        <ele>4.79</ele>
        <time>2023-06-10T22:32:57.989Z</time>
      </trkpt>
      <trkpt lat="55.24335999973118" lon="12.349779959768057">
        <ele>4.8</ele>
        <time>2023-06-10T22:33:08.521Z</time>
      </trkpt>
      <trkpt lat="55.24340484291315" lon="12.349959583953023">
        <ele>4.87</ele>
        <time>2023-06-10T22:33:19.055Z</time>
      </trkpt>
      <trkpt lat="55.243409955874085" lon="12.34997995197773">
        <ele>4.87</ele>
        <time>2023-06-10T22:33:29.589Z</time>
      </trkpt>
      <trkpt lat="55.24345999583602" lon="12.350069973617792">
        <ele>4.89</ele>
        <time>2023-06-10T22:33:40.124Z</time>
      </trkpt>
      <trkpt lat="55.24358999915421" lon="12.3501299880445">
        <ele>4.92</ele>
        <time>2023-06-10T22:33:50.661Z</time>
      </trkpt>
      <trkpt lat="55.24364096112549" lon="12.35013384371996">
        <ele>4.94</ele>
        <time>2023-06-10T22:34:01.199Z</time>
      </trkpt>
      <trkpt lat="55.24371991865337" lon="12.350139962509274">
        <ele>4.97</ele>
        <time>2023-06-10T22:34:11.739Z</time>
      </trkpt>
      <trkpt lat="55.24390943348408" lon="12.350118923932314">
        <ele>5.05</ele>
        <time>2023-06-10T22:34:22.282Z</time>
      </trkpt>
      <trkpt lat="55.244267508387566" lon="12.350079109892249">
        <ele>5.34</ele>
        <time>2023-06-10T22:34:32.830Z</time>
      </trkpt>
      <trkpt lat="55.2444470487535" lon="12.3500591609627">
        <ele>5.42</ele>
        <time>2023-06-10T22:34:43.381Z</time>
      </trkpt>
      <trkpt lat="55.24452994577587" lon="12.350049940869212">
        <ele>5.42</ele>
        <time>2023-06-10T22:34:53.934Z</time>
      </trkpt>
      <trkpt lat="55.2447166107595" lon="12.350056897848845">
        <ele>5.44</ele>
        <time>2023-06-10T22:35:04.490Z</time>
      </trkpt>
      <trkpt lat="55.24479992687702" lon="12.350059999153018">
        <ele>5.42</ele>
        <time>2023-06-10T22:35:15.047Z</time>
      </trkpt>
      <trkpt lat="55.2449391502887" lon="12.35009478405118">
        <ele>5.4</ele>
        <time>2023-06-10T22:35:25.606Z</time>
      </trkpt>
      <trkpt lat="55.24495993740857" lon="12.350099980831146">
        <ele>5.39</ele>
        <time>2023-06-10T22:35:36.165Z</time>
      </trkpt>
      <trkpt lat="55.24515883997083" lon="12.350177597254515">
        <ele>5.31</ele>
        <time>2023-06-10T22:35:46.728Z</time>
      </trkpt>
      <trkpt lat="55.24528356269002" lon="12.35022621229291">
        <ele>5.34</ele>
        <time>2023-06-10T22:35:57.293Z</time>
      </trkpt>
      <trkpt lat="55.24536998011172" lon="12.350259991362691">
        <ele>5.31</ele>
        <time>2023-06-10T22:36:07.859Z</time>
      </trkpt>
      <trkpt lat="55.24549998342991" lon="12.350269965827465">
        <ele>5.28</ele>
        <time>2023-06-10T22:36:18.427Z</time>
      </trkpt>
      <trkpt lat="55.2455869037658" lon="12.350260242819786">
        <ele>5.27</ele>
        <time>2023-06-10T22:36:28.997Z</time>
      </trkpt>
      <trkpt lat="55.24567482993007" lon="12.350250435993075">
        <ele>5.28</ele>
        <time>2023-06-10T22:36:39.568Z</time>
      </trkpt>
      <trkpt lat="55.24576191790402" lon="12.350240712985396">
        <ele>5.32</ele>
        <time>2023-06-10T22:36:50.140Z</time>
      </trkpt>
      <trkpt lat="55.24589292705059" lon="12.350226044654846">
        <ele>5.43</ele>
        <time>2023-06-10T22:37:00.715Z</time>
      </trkpt>
      <trkpt lat="55.246286960318685" lon="12.350182039663196">
        <ele>5.87</ele>
        <time>2023-06-10T22:37:11.296Z</time>
      </trkpt>
      <trkpt lat="55.246793143451214" lon="12.350125461816788">
        <ele>6.2</ele>
        <time>2023-06-10T22:37:21.885Z</time>
      </trkpt>
      <trkpt lat="55.24688199162483" lon="12.350115487352014">
        <ele>6.28</ele>
        <time>2023-06-10T22:37:32.475Z</time>
      </trkpt>
      <trkpt lat="55.24714853614569" lon="12.350085731595755">
        <ele>6.58</ele>
        <time>2023-06-10T22:37:43.070Z</time>
      </trkpt>
      <trkpt lat="55.24728222750127" lon="12.35007081180811">
        <ele>6.69</ele>
        <time>2023-06-10T22:37:53.667Z</time>
      </trkpt>
      <trkpt lat="55.24795630015433" lon="12.349995458498597">
        <ele>7.22</ele>
        <time>2023-06-10T22:38:04.275Z</time>
      </trkpt>
      <trkpt lat="55.24822108447552" lon="12.349965870380402">
        <ele>7.38</ele>
        <time>2023-06-10T22:38:14.887Z</time>
      </trkpt>
      <trkpt lat="55.24866356514394" lon="12.34991641715169">
        <ele>7.75</ele>
        <time>2023-06-10T22:38:25.506Z</time>
      </trkpt>
      <trkpt lat="55.24883044883609" lon="12.349897725507617">
        <ele>7.86</ele>
        <time>2023-06-10T22:38:36.128Z</time>
      </trkpt>
      <trkpt lat="55.24916522204876" lon="12.349860342219472">
        <ele>8.18</ele>
        <time>2023-06-10T22:38:46.755Z</time>
      </trkpt>
      <trkpt lat="55.24951164610684" lon="12.34982161782682">
        <ele>8.32</ele>
        <time>2023-06-10T22:38:57.388Z</time>
      </trkpt>
      <trkpt lat="55.249728821218014" lon="12.349797394126654">
        <ele>8.45</ele>
        <time>2023-06-10T22:39:08.024Z</time>
      </trkpt>
      <trkpt lat="55.24998916313052" lon="12.349768308922648">
        <ele>8.68</ele>
        <time>2023-06-10T22:39:18.664Z</time>
      </trkpt>
      <trkpt lat="55.25029342621565" lon="12.349734278395772">
        <ele>9.01</ele>
        <time>2023-06-10T22:39:29.309Z</time>
      </trkpt>
      <trkpt lat="55.25046659633517" lon="12.349714916199446">
        <ele>9.13</ele>
        <time>2023-06-10T22:39:39.957Z</time>
      </trkpt>
      <trkpt lat="55.250542871654034" lon="12.34970636665821">
        <ele>9.2</ele>
        <time>2023-06-10T22:39:50.606Z</time>
      </trkpt>
      <trkpt lat="55.250689974054694" lon="12.349689938127995">
        <ele>8.95</ele>
        <time>2023-06-10T22:40:01.258Z</time>
      </trkpt>
      <trkpt lat="55.25080958381295" lon="12.349662948399782">
        <ele>8.75</ele>
        <time>2023-06-10T22:40:11.912Z</time>
      </trkpt>
      <trkpt lat="55.2508987672627" lon="12.34964283183217">
        <ele>8.63</ele>
        <time>2023-06-10T22:40:22.567Z</time>
      </trkpt>
      <trkpt lat="55.25099993683398" lon="12.349619949236512">
        <ele>8.55</ele>
        <time>2023-06-10T22:40:33.224Z</time>
      </trkpt>
      <trkpt lat="55.2510314527899" lon="12.34961005859077">
        <ele>8.53</ele>
        <time>2023-06-10T22:40:43.881Z</time>
      </trkpt>
      <trkpt lat="55.251119965687394" lon="12.34958223067224">
        <ele>8.52</ele>
        <time>2023-06-10T22:40:54.540Z</time>
      </trkpt>
      <trkpt lat="55.251251896843314" lon="12.349540740251541">
        <ele>8.6</ele>
        <time>2023-06-10T22:41:05.201Z</time>
      </trkpt>
      <trkpt lat="55.25134996511042" lon="12.349509978666902">
        <ele>8.69</ele>
        <time>2023-06-10T22:41:15.863Z</time>
      </trkpt>
      <trkpt lat="55.25138324126601" lon="12.34949472360313">
        <ele>8.73</ele>
        <time>2023-06-10T22:41:26.526Z</time>
      </trkpt>
      <trkpt lat="55.25147024542093" lon="12.349454993382096">
        <ele>8.84</ele>
        <time>2023-06-10T22:41:37.190Z</time>
      </trkpt>
      <trkpt lat="55.25168691761792" lon="12.34935600310564">
        <ele>9.15</ele>
        <time>2023-06-10T22:41:47.858Z</time>
      </trkpt>
      <trkpt lat="55.25194717571139" lon="12.349237147718668">
        <ele>9.45</ele>
        <time>2023-06-10T22:41:58.530Z</time>
      </trkpt>
      <trkpt lat="55.252114310860634" lon="12.349160788580775">
        <ele>9.41</ele>
        <time>2023-06-10T22:42:09.205Z</time>
      </trkpt>
      <trkpt lat="55.25215999223292" lon="12.349139917641878">
        <ele>9.41</ele>
        <time>2023-06-10T22:42:19.881Z</time>
      </trkpt>
      <trkpt lat="55.25228261947632" lon="12.349086860194802">
        <ele>9.43</ele>
        <time>2023-06-10T22:42:30.559Z</time>
      </trkpt>
      <trkpt lat="55.25240927003324" lon="12.34903204254806">
        <ele>9.49</ele>
        <time>2023-06-10T22:42:41.239Z</time>
      </trkpt>
      <trkpt lat="55.252619655802846" lon="12.348941015079618">
        <ele>9.64</ele>
        <time>2023-06-10T22:42:51.922Z</time>
      </trkpt>
      <trkpt lat="55.252747144550085" lon="12.348885778337717">
        <ele>9.53</ele>
        <time>2023-06-10T22:43:02.607Z</time>
      </trkpt>
      <trkpt lat="55.25282995775342" lon="12.348849987611175">
        <ele>9.41</ele>
        <time>2023-06-10T22:43:13.294Z</time>
      </trkpt>
      <trkpt lat="55.25286524556577" lon="12.349078729748726">
        <ele>9.22</ele>
        <time>2023-06-10T22:43:23.983Z</time>
      </trkpt>
      <trkpt lat="55.25289977900684" lon="12.349302610382438">
        <ele>9.1</ele>
        <time>2023-06-10T22:43:34.674Z</time>
      </trkpt>
      <trkpt lat="55.252922577783465" lon="12.34945029951632">
        <ele>9.06</ele>
        <time>2023-06-10T22:43:45.367Z</time>
      </trkpt>
      <trkpt lat="55.25302634574473" lon="12.350123533979058">
        <ele>8.99</ele>
        <time>2023-06-10T22:43:56.066Z</time>
      </trkpt>
      <trkpt lat="55.253118462860584" lon="12.350720660760999">
        <ele>8.84</ele>
        <time>2023-06-10T22:44:06.771Z</time>
      </trkpt>
      <trkpt lat="55.253141513094306" lon="12.350869858637452">
        <ele>8.79</ele>
        <time>2023-06-10T22:44:17.477Z</time>
      </trkpt>
      <trkpt lat="55.25318752974272" lon="12.351168422028422">
        <ele>8.61</ele>
        <time>2023-06-10T22:44:28.186Z</time>
      </trkpt>
      <trkpt lat="55.25326766073704" lon="12.351687848567963">
        <ele>8.4</ele>
        <time>2023-06-10T22:44:38.900Z</time>
      </trkpt>
      <trkpt lat="55.25329087860882" lon="12.351838555186987">
        <ele>8.36</ele>
        <time>2023-06-10T22:44:49.615Z</time>
      </trkpt>
      <trkpt lat="55.25333764962852" lon="12.352141728624701">
        <ele>8.24</ele>
        <time>2023-06-10T22:45:00.333Z</time>
      </trkpt>
      <trkpt lat="55.2533611189574" lon="12.352294027805328">
        <ele>8.2</ele>
        <time>2023-06-10T22:45:11.052Z</time>
      </trkpt>
      <trkpt lat="55.25344284251332" lon="12.352824099361897">
        <ele>8.17</ele>
        <time>2023-06-10T22:45:21.777Z</time>
      </trkpt>
      <trkpt lat="55.25348961353302" lon="12.35312718898058">
        <ele>8.19</ele>
        <time>2023-06-10T22:45:32.504Z</time>
      </trkpt>
      <trkpt lat="55.25354342535138" lon="12.353475959971547">
        <ele>8.19</ele>
        <time>2023-06-10T22:45:43.235Z</time>
      </trkpt>
      <trkpt lat="55.25371584109962" lon="12.354593938216567">
        <ele>8.44</ele>
        <time>2023-06-10T22:45:53.976Z</time>
      </trkpt>
      <trkpt lat="55.25379806756973" lon="12.355127027258277">
        <ele>8.63</ele>
        <time>2023-06-10T22:46:04.722Z</time>
      </trkpt>
      <trkpt lat="55.253887586295605" lon="12.355707306414843">
        <ele>8.91</ele>
        <time>2023-06-10T22:46:15.474Z</time>
      </trkpt>
      <trkpt lat="55.25395472534001" lon="12.356142913922668">
        <ele>9.09</ele>
        <time>2023-06-10T22:46:26.230Z</time>
      </trkpt>
      <trkpt lat="55.25399940088391" lon="12.35643234103918">
        <ele>9.17</ele>
        <time>2023-06-10T22:46:36.989Z</time>
      </trkpt>
      <trkpt lat="55.25403301231563" lon="12.356650186702609">
        <ele>9.19</ele>
        <time>2023-06-10T22:46:47.750Z</time>
      </trkpt>
      <trkpt lat="55.254089841619134" lon="12.357018738985062">
        <ele>9.28</ele>
        <time>2023-06-10T22:46:58.514Z</time>
      </trkpt>
      <trkpt lat="55.25418070144951" lon="12.357608238235116">
        <ele>9.52</ele>
        <time>2023-06-10T22:47:09.284Z</time>
      </trkpt>
      <trkpt lat="55.2542488463223" lon="12.358049880713224">
        <ele>9.61</ele>
        <time>2023-06-10T22:47:20.058Z</time>
      </trkpt>
      <trkpt lat="55.25429444387555" lon="12.358345426619053">
        <ele>9.7</ele>
        <time>2023-06-10T22:47:30.835Z</time>
      </trkpt>
      <trkpt lat="55.25432118214667" lon="12.358519015833735">
        <ele>9.73</ele>
        <time>2023-06-10T22:47:41.614Z</time>
      </trkpt>
      <trkpt lat="55.2543799392879" lon="12.358899973332882">
        <ele>9.72</ele>
        <time>2023-06-10T22:47:52.396Z</time>
      </trkpt>
      <trkpt lat="55.2543799392879" lon="12.358899973332882">
        <ele>9.72</ele>
        <time>2023-06-10T22:48:03.178Z</time>
      </trkpt>
      <trkpt lat="55.25449317879975" lon="12.359647052362561">
        <ele>9.76</ele>
        <time>2023-06-10T22:48:13.967Z</time>
      </trkpt>
      <trkpt lat="55.25457289069891" lon="12.360173184424639">
        <ele>9.86</ele>
        <time>2023-06-10T22:48:24.761Z</time>
      </trkpt>
      <trkpt lat="55.25462997145951" lon="12.3605499509722">
        <ele>9.84</ele>
        <time>2023-06-10T22:48:35.559Z</time>
      </trkpt>
      <trkpt lat="55.25465997867286" lon="12.360799983143806">
        <ele>9.83</ele>
        <time>2023-06-10T22:48:46.359Z</time>
      </trkpt>
      <trkpt lat="55.25466618128121" lon="12.360837869346142">
        <ele>9.83</ele>
        <time>2023-06-10T22:48:57.159Z</time>
      </trkpt>
      <trkpt lat="55.254738349467516" lon="12.361275991424918">
        <ele>9.77</ele>
        <time>2023-06-10T22:49:07.964Z</time>
      </trkpt>
      <trkpt lat="55.25477506220341" lon="12.361498782411218">
        <ele>9.82</ele>
        <time>2023-06-10T22:49:18.771Z</time>
      </trkpt>
      <trkpt lat="55.25479995645583" lon="12.361649991944432">
        <ele>9.82</ele>
        <time>2023-06-10T22:49:29.579Z</time>
      </trkpt>
      <trkpt lat="55.254878494888544" lon="12.36200999468565">
        <ele>9.83</ele>
        <time>2023-06-10T22:49:40.391Z</time>
      </trkpt>
      <trkpt lat="55.25491998530924" lon="12.362199928611517">
        <ele>9.81</ele>
        <time>2023-06-10T22:49:51.205Z</time>
      </trkpt>
      <trkpt lat="55.25492702610791" lon="12.362225661054254">
        <ele>9.81</ele>
        <time>2023-06-10T22:50:02.019Z</time>
      </trkpt>
      <trkpt lat="55.255049988627434" lon="12.362669985741377">
        <ele>9.7</ele>
        <time>2023-06-10T22:50:12.837Z</time>
      </trkpt>
      <trkpt lat="55.25523656979203" lon="12.363253450021148">
        <ele>9.56</ele>
        <time>2023-06-10T22:50:23.662Z</time>
      </trkpt>
      <trkpt lat="55.25564753450453" lon="12.364538814872503">
        <ele>9.11</ele>
        <time>2023-06-10T22:50:34.500Z</time>
      </trkpt>
      <trkpt lat="55.2557769510895" lon="12.364943409338593">
        <ele>9.09</ele>
        <time>2023-06-10T22:50:45.342Z</time>
      </trkpt>
      <trkpt lat="55.255863619968295" lon="12.365214563906193">
        <ele>9.13</ele>
        <time>2023-06-10T22:50:56.187Z</time>
      </trkpt>
      <trkpt lat="55.25601499713957" lon="12.365687973797321">
        <ele>9.17</ele>
        <time>2023-06-10T22:51:07.037Z</time>
      </trkpt>
      <trkpt lat="55.25612329132855" lon="12.36602651886642">
        <ele>9.31</ele>
        <time>2023-06-10T22:51:17.891Z</time>
      </trkpt>
      <trkpt lat="55.256231501698494" lon="12.366365063935518">
        <ele>9.39</ele>
        <time>2023-06-10T22:51:28.748Z</time>
      </trkpt>
      <trkpt lat="55.25631775148213" lon="12.366634793579578">
        <ele>9.52</ele>
        <time>2023-06-10T22:51:39.608Z</time>
      </trkpt>
      <trkpt lat="55.25636133737862" lon="12.366770999506116">
        <ele>9.52</ele>
        <time>2023-06-10T22:51:50.469Z</time>
      </trkpt>
      <trkpt lat="55.25640492327511" lon="12.366907289251685">
        <ele>9.57</ele>
        <time>2023-06-10T22:52:01.332Z</time>
      </trkpt>
      <trkpt lat="55.25655755773187" lon="12.367384806275368">
        <ele>9.83</ele>
        <time>2023-06-10T22:52:12.200Z</time>
      </trkpt>
      <trkpt lat="55.256666271016" lon="12.367724776268005">
        <ele>10.04</ele>
        <time>2023-06-10T22:52:23.071Z</time>
      </trkpt>
      <trkpt lat="55.256796944886446" lon="12.36813347786665">
        <ele>10.38</ele>
        <time>2023-06-10T22:52:33.947Z</time>
      </trkpt>
      <trkpt lat="55.25686207227409" lon="12.368337158113718">
        <ele>10.53</ele>
        <time>2023-06-10T22:52:44.825Z</time>
      </trkpt>
      <trkpt lat="55.25690565817058" lon="12.368473364040256">
        <ele>10.6</ele>
        <time>2023-06-10T22:52:55.704Z</time>
      </trkpt>
      <trkpt lat="55.25710196234286" lon="12.369087170809507">
        <ele>10.84</ele>
        <time>2023-06-10T22:53:06.590Z</time>
      </trkpt>
      <trkpt lat="55.25725417770445" lon="12.369563346728683">
        <ele>10.86</ele>
        <time>2023-06-10T22:53:17.481Z</time>
      </trkpt>
      <trkpt lat="55.25736289098859" lon="12.369903232902288">
        <ele>10.82</ele>
        <time>2023-06-10T22:53:28.375Z</time>
      </trkpt>
      <trkpt lat="55.25744997896254" lon="12.370175728574395">
        <ele>10.81</ele>
        <time>2023-06-10T22:53:39.272Z</time>
      </trkpt>
      <trkpt lat="55.257719960063696" lon="12.371019953861833">
        <ele>10.65</ele>
        <time>2023-06-10T22:53:50.178Z</time>
      </trkpt>
      <trkpt lat="55.25772951543331" lon="12.371063455939293">
        <ele>10.65</ele>
        <time>2023-06-10T22:54:01.084Z</time>
      </trkpt>
      <trkpt lat="55.25777720846236" lon="12.371279876679182">
        <ele>10.6</ele>
        <time>2023-06-10T22:54:11.993Z</time>
      </trkpt>
      <trkpt lat="55.25788768194616" lon="12.371781868860126">
        <ele>10.41</ele>
        <time>2023-06-10T22:54:22.906Z</time>
      </trkpt>
      <trkpt lat="55.2579599339515" lon="12.37210993655026">
        <ele>10.25</ele>
        <time>2023-06-10T22:54:33.823Z</time>
      </trkpt>
      <trkpt lat="55.25804995559156" lon="12.37266993150115">
        <ele>10.01</ele>
        <time>2023-06-10T22:54:44.745Z</time>
      </trkpt>
      <trkpt lat="55.258065797388554" lon="12.372809909284115">
        <ele>9.95</ele>
        <time>2023-06-10T22:54:55.668Z</time>
      </trkpt>
      <trkpt lat="55.25809999555349" lon="12.37311165779829">
        <ele>9.78</ele>
        <time>2023-06-10T22:55:06.594Z</time>
      </trkpt>
      <trkpt lat="55.25810997001827" lon="12.373199919238687">
        <ele>9.73</ele>
        <time>2023-06-10T22:55:17.521Z</time>
      </trkpt>
      <trkpt lat="55.258147437125444" lon="12.37379914149642">
        <ele>9.47</ele>
        <time>2023-06-10T22:55:28.454Z</time>
      </trkpt>
      <trkpt lat="55.258149951696396" lon="12.373839961364865">
        <ele>9.44</ele>
        <time>2023-06-10T22:55:39.387Z</time>
      </trkpt>
      <trkpt lat="55.25815942324698" lon="12.374106086790562">
        <ele>9.3</ele>
        <time>2023-06-10T22:55:50.322Z</time>
      </trkpt>
      <trkpt lat="55.25816772133112" lon="12.374337678775191">
        <ele>9.11</ele>
        <time>2023-06-10T22:56:01.259Z</time>
      </trkpt>
      <trkpt lat="55.258169984444976" lon="12.374399956315756">
        <ele>9.04</ele>
        <time>2023-06-10T22:56:12.197Z</time>
      </trkpt>
      <trkpt lat="55.258163614198565" lon="12.374722408130765">
        <ele>8.68</ele>
        <time>2023-06-10T22:56:23.138Z</time>
      </trkpt>
      <trkpt lat="55.25815992616117" lon="12.374909995123744">
        <ele>8.5</ele>
        <time>2023-06-10T22:56:34.081Z</time>
      </trkpt>
      <trkpt lat="55.25815665721893" lon="12.374952239915729">
        <ele>8.46</ele>
        <time>2023-06-10T22:56:45.024Z</time>
      </trkpt>
      <trkpt lat="55.258138719946146" lon="12.37518047913909">
        <ele>8.29</ele>
        <time>2023-06-10T22:56:55.969Z</time>
      </trkpt>
      <trkpt lat="55.25812069885433" lon="12.37540871836245">
        <ele>8.19</ele>
        <time>2023-06-10T22:57:06.916Z</time>
      </trkpt>
      <trkpt lat="55.258103515952826" lon="12.37562756985426">
        <ele>8.12</ele>
        <time>2023-06-10T22:57:17.865Z</time>
      </trkpt>
      <trkpt lat="55.25808993726969" lon="12.375799985602498">
        <ele>8.03</ele>
        <time>2023-06-10T22:57:28.816Z</time>
      </trkpt>
      <trkpt lat="55.25805942714214" lon="12.376100979745388">
        <ele>7.89</ele>
        <time>2023-06-10T22:57:39.770Z</time>
      </trkpt>
      <trkpt lat="55.258043836802244" lon="12.376254787668586">
        <ele>7.85</ele>
        <time>2023-06-10T22:57:50.725Z</time>
      </trkpt>
      <trkpt lat="55.25802807882428" lon="12.376410188153386">
        <ele>7.86</ele>
        <time>2023-06-10T22:58:01.682Z</time>
      </trkpt>
      <trkpt lat="55.258019948378205" lon="12.37648998387158">
        <ele>7.88</ele>
        <time>2023-06-10T22:58:12.639Z</time>
      </trkpt>
      <trkpt lat="55.25801097974181" lon="12.376565085723996">
        <ele>7.91</ele>
        <time>2023-06-10T22:58:23.597Z</time>
      </trkpt>
      <trkpt lat="55.25795607827604" lon="12.377025336027145">
        <ele>8.11</ele>
        <time>2023-06-10T22:58:34.559Z</time>
      </trkpt>
      <trkpt lat="55.25792992673814" lon="12.377244690433145">
        <ele>8.23</ele>
        <time>2023-06-10T22:58:45.523Z</time>
      </trkpt>
      <trkpt lat="55.25785029865801" lon="12.37791197374463">
        <ele>8.77</ele>
        <time>2023-06-10T22:58:56.494Z</time>
      </trkpt>
      <trkpt lat="55.25774074718356" lon="12.378829456865788">
        <ele>9.68</ele>
        <time>2023-06-10T22:59:07.473Z</time>
      </trkpt>
      <trkpt lat="55.25768936611712" lon="12.379260370507836">
        <ele>10.19</ele>
        <time>2023-06-10T22:59:18.456Z</time>
      </trkpt>
      <trkpt lat="55.257679810747504" lon="12.37934066914022">
        <ele>10.3</ele>
        <time>2023-06-10T22:59:29.440Z</time>
      </trkpt>
      <trkpt lat="55.257640331983566" lon="12.379671251401305">
        <ele>10.62</ele>
        <time>2023-06-10T22:59:40.427Z</time>
      </trkpt>
      <trkpt lat="55.25760881602764" lon="12.37993536517024">
        <ele>10.91</ele>
        <time>2023-06-10T22:59:51.417Z</time>
      </trkpt>
      <trkpt lat="55.2576023619622" lon="12.379989428445697">
        <ele>11.03</ele>
        <time>2023-06-10T23:00:02.407Z</time>
      </trkpt>
      <trkpt lat="55.257578222081065" lon="12.380191767588258">
        <ele>11.26</ele>
        <time>2023-06-10T23:00:13.399Z</time>
      </trkpt>
      <trkpt lat="55.257567912340164" lon="12.380278268828988">
        <ele>11.32</ele>
        <time>2023-06-10T23:00:24.392Z</time>
      </trkpt>
      <trkpt lat="55.25756196118891" lon="12.380327638238668">
        <ele>11.45</ele>
        <time>2023-06-10T23:00:35.385Z</time>
      </trkpt>
      <trkpt lat="55.25752700865269" lon="12.380621172487736">
        <ele>11.82</ele>
        <time>2023-06-10T23:00:46.381Z</time>
      </trkpt>
      <trkpt lat="55.25751996785402" lon="12.380679929628968">
        <ele>11.87</ele>
        <time>2023-06-10T23:00:57.378Z</time>
      </trkpt>
      <trkpt lat="55.257652066648006" lon="12.380734495818615">
        <ele>12.09</ele>
        <time>2023-06-10T23:01:08.377Z</time>
      </trkpt>
      <trkpt lat="55.257782489061356" lon="12.380788391456008">
        <ele>12.42</ele>
        <time>2023-06-10T23:01:19.378Z</time>
      </trkpt>
      <trkpt lat="55.257912911474705" lon="12.380842287093401">
        <ele>12.8</ele>
        <time>2023-06-10T23:01:30.381Z</time>
      </trkpt>
      <trkpt lat="55.258214911445975" lon="12.380967009812593">
        <ele>13.84</ele>
        <time>2023-06-10T23:01:41.389Z</time>
      </trkpt>
      <trkpt lat="55.25833401829004" lon="12.38101621158421">
        <ele>13.78</ele>
        <time>2023-06-10T23:01:52.399Z</time>
      </trkpt>
      <trkpt lat="55.25843996554613" lon="12.381059965118766">
        <ele>13.66</ele>
        <time>2023-06-10T23:02:03.411Z</time>
      </trkpt>
      <trkpt lat="55.258385902270675" lon="12.381273368373513">
        <ele>13.53</ele>
        <time>2023-06-10T23:02:14.425Z</time>
      </trkpt>
      <trkpt lat="55.25826604105532" lon="12.381746275350451">
        <ele>13.25</ele>
        <time>2023-06-10T23:02:25.444Z</time>
      </trkpt>
      <trkpt lat="55.25819739326835" lon="12.38201742991805">
        <ele>13.17</ele>
        <time>2023-06-10T23:02:36.465Z</time>
      </trkpt>
      <trkpt lat="55.25814592838287" lon="12.382220774888992">
        <ele>13.05</ele>
        <time>2023-06-10T23:02:47.488Z</time>
      </trkpt>
      <trkpt lat="55.25805934332311" lon="12.382562505081296">
        <ele>12.9</ele>
        <time>2023-06-10T23:02:58.515Z</time>
      </trkpt>
      <trkpt lat="55.25795557536185" lon="12.382972044870257">
        <ele>12.77</ele>
        <time>2023-06-10T23:03:09.546Z</time>
      </trkpt>
      <trkpt lat="55.257903691381216" lon="12.383176814764738">
        <ele>12.74</ele>
        <time>2023-06-10T23:03:20.579Z</time>
      </trkpt>
      <trkpt lat="55.25777989067137" lon="12.383665647357702">
        <ele>12.74</ele>
        <time>2023-06-10T23:03:31.617Z</time>
      </trkpt>
      <trkpt lat="55.25772649794817" lon="12.383876200765371">
        <ele>12.77</ele>
        <time>2023-06-10T23:03:42.657Z</time>
      </trkpt>
      <trkpt lat="55.25765567086637" lon="12.384155904874206">
        <ele>12.88</ele>
        <time>2023-06-10T23:03:53.700Z</time>
      </trkpt>
      <trkpt lat="55.257550394162536" lon="12.384571228176355">
        <ele>13.12</ele>
        <time>2023-06-10T23:04:04.747Z</time>
      </trkpt>
      <trkpt lat="55.257515693083405" lon="12.384708188474178">
        <ele>13.23</ele>
        <time>2023-06-10T23:04:15.795Z</time>
      </trkpt>
      <trkpt lat="55.25748996064067" lon="12.38480994477868">
        <ele>13.33</ele>
        <time>2023-06-10T23:04:26.844Z</time>
      </trkpt>
      <trkpt lat="55.25743053294718" lon="12.385209174826741">
        <ele>13.72</ele>
        <time>2023-06-10T23:04:37.897Z</time>
      </trkpt>
      <trkpt lat="55.25741997174919" lon="12.385279918089509">
        <ele>13.77</ele>
        <time>2023-06-10T23:04:48.951Z</time>
      </trkpt>
      <trkpt lat="55.25740563869476" lon="12.385652493685484">
        <ele>14.08</ele>
        <time>2023-06-10T23:05:00.008Z</time>
      </trkpt>
      <trkpt lat="55.25738996453583" lon="12.386059937998652">
        <ele>14.44</ele>
        <time>2023-06-10T23:05:11.069Z</time>
      </trkpt>
      <trkpt lat="55.25740069337189" lon="12.386193126440048">
        <ele>14.57</ele>
        <time>2023-06-10T23:05:22.131Z</time>
      </trkpt>
      <trkpt lat="55.25743153877556" lon="12.386575927957892">
        <ele>14.96</ele>
        <time>2023-06-10T23:05:33.197Z</time>
      </trkpt>
      <trkpt lat="55.257439920678735" lon="12.386679947376251">
        <ele>15.08</ele>
        <time>2023-06-10T23:05:44.264Z</time>
      </trkpt>
      <trkpt lat="55.25748996064067" lon="12.386969961225986">
        <ele>15.43</ele>
        <time>2023-06-10T23:05:55.333Z</time>
      </trkpt>
      <trkpt lat="55.25752038694918" lon="12.387086804956198">
        <ele>15.59</ele>
        <time>2023-06-10T23:06:06.404Z</time>
      </trkpt>
      <trkpt lat="55.2576110791415" lon="12.387435743585229">
        <ele>15.99</ele>
        <time>2023-06-10T23:06:17.478Z</time>
      </trkpt>
      <trkpt lat="55.25761996395886" lon="12.387469941750169">
        <ele>16.02</ele>
        <time>2023-06-10T23:06:28.552Z</time>
      </trkpt>
      <trkpt lat="55.257847616449" lon="12.388080144301057">
        <ele>16.74</ele>
        <time>2023-06-10T23:06:39.633Z</time>
      </trkpt>
      <trkpt lat="55.25799094699323" lon="12.388464286923409">
        <ele>17.13</ele>
        <time>2023-06-10T23:06:50.718Z</time>
      </trkpt>
      <trkpt lat="55.25811994448304" lon="12.388809956610203">
        <ele>17.4</ele>
        <time>2023-06-10T23:07:01.807Z</time>
      </trkpt>
      <trkpt lat="55.25813712738454" lon="12.388854715973139">
        <ele>17.44</ele>
        <time>2023-06-10T23:07:12.897Z</time>
      </trkpt>
      <trkpt lat="55.258260844275355" lon="12.389176581054926">
        <ele>17.65</ele>
        <time>2023-06-10T23:07:23.990Z</time>
      </trkpt>
      <trkpt lat="55.25833527557552" lon="12.389370203018188">
        <ele>17.75</ele>
        <time>2023-06-10T23:07:35.085Z</time>
      </trkpt>
      <trkpt lat="55.258725956082344" lon="12.390386927872896">
        <ele>17.98</ele>
        <time>2023-06-10T23:07:46.191Z</time>
      </trkpt>
      <trkpt lat="55.258798375725746" lon="12.39057526923716">
        <ele>17.98</ele>
        <time>2023-06-10T23:07:57.300Z</time>
      </trkpt>
      <trkpt lat="55.25887121446431" lon="12.390765035524964">
        <ele>17.95</ele>
        <time>2023-06-10T23:08:08.411Z</time>
      </trkpt>
      <trkpt lat="55.258970288559794" lon="12.39102277904749">
        <ele>17.83</ele>
        <time>2023-06-10T23:08:19.524Z</time>
      </trkpt>
      <trkpt lat="55.25911965407431" lon="12.391411364078522">
        <ele>17.68</ele>
        <time>2023-06-10T23:08:30.642Z</time>
      </trkpt>
      <trkpt lat="55.259318724274635" lon="12.391929533332586">
        <ele>17.59</ele>
        <time>2023-06-10T23:08:41.765Z</time>
      </trkpt>
      <trkpt lat="55.25946808978915" lon="12.392318118363619">
        <ele>17.49</ele>
        <time>2023-06-10T23:08:52.893Z</time>
      </trkpt>
      <trkpt lat="55.25974209420383" lon="12.393031250685453">
        <ele>17.23</ele>
        <time>2023-06-10T23:09:04.029Z</time>
      </trkpt>
      <trkpt lat="55.25989145971835" lon="12.393419835716486">
        <ele>16.97</ele>
        <time>2023-06-10T23:09:15.169Z</time>
      </trkpt>
      <trkpt lat="55.259991036728024" lon="12.393678920343518">
        <ele>16.77</ele>
        <time>2023-06-10T23:09:26.312Z</time>
      </trkpt>
      <trkpt lat="55.26023989543319" lon="12.394326590001583">
        <ele>16.07</ele>
        <time>2023-06-10T23:09:37.462Z</time>
      </trkpt>
      <trkpt lat="55.260363612324" lon="12.39464845508337">
        <ele>15.76</ele>
        <time>2023-06-10T23:09:48.615Z</time>
      </trkpt>
      <trkpt lat="55.26043846271932" lon="12.39484341815114">
        <ele>15.64</ele>
        <time>2023-06-10T23:09:59.771Z</time>
      </trkpt>
      <trkpt lat="55.26058782823384" lon="12.395232087001204">
        <ele>15.53</ele>
        <time>2023-06-10T23:10:10.931Z</time>
      </trkpt>
      <trkpt lat="55.260702492669225" lon="12.39553039893508">
        <ele>15.54</ele>
        <time>2023-06-10T23:10:22.094Z</time>
      </trkpt>
      <trkpt lat="55.26075999252498" lon="12.39567993208766">
        <ele>15.58</ele>
        <time>2023-06-10T23:10:33.259Z</time>
      </trkpt>
      <trkpt lat="55.260776253417134" lon="12.395722847431898">
        <ele>15.6</ele>
        <time>2023-06-10T23:10:44.424Z</time>
      </trkpt>
      <trkpt lat="55.26084951125085" lon="12.39591596648097">
        <ele>15.7</ele>
        <time>2023-06-10T23:10:55.591Z</time>
      </trkpt>
      <trkpt lat="55.260996110737324" lon="12.396302204579115">
        <ele>15.99</ele>
        <time>2023-06-10T23:11:06.763Z</time>
      </trkpt>
      <trkpt lat="55.26111823506653" lon="12.39662398584187">
        <ele>16.16</ele>
        <time>2023-06-10T23:11:17.938Z</time>
      </trkpt>
      <trkpt lat="55.26133800856769" lon="12.397203342989087">
        <ele>16.43</ele>
        <time>2023-06-10T23:11:29.120Z</time>
      </trkpt>
      <trkpt lat="55.26150899939239" lon="12.397653870284557">
        <ele>16.55</ele>
        <time>2023-06-10T23:11:40.307Z</time>
      </trkpt>
      <trkpt lat="55.26158234104514" lon="12.39784698933363">
        <ele>16.65</ele>
        <time>2023-06-10T23:11:51.496Z</time>
      </trkpt>
      <trkpt lat="55.2616311237216" lon="12.397975735366344">
        <ele>16.74</ele>
        <time>2023-06-10T23:12:02.686Z</time>
      </trkpt>
      <trkpt lat="55.26192524470389" lon="12.398750726133585">
        <ele>17.1</ele>
        <time>2023-06-10T23:12:13.885Z</time>
      </trkpt>
      <trkpt lat="55.26204787194729" lon="12.39907393231988">
        <ele>17.29</ele>
        <time>2023-06-10T23:12:25.087Z</time>
      </trkpt>
      <trkpt lat="55.2622926235199" lon="12.39971891976893">
        <ele>17.81</ele>
        <time>2023-06-10T23:12:36.296Z</time>
      </trkpt>
      <trkpt lat="55.2624636143446" lon="12.4001694470644">
        <ele>18.12</ele>
        <time>2023-06-10T23:12:47.510Z</time>
      </trkpt>
      <trkpt lat="55.26253695599735" lon="12.400362566113472">
        <ele>18.23</ele>
        <time>2023-06-10T23:12:58.726Z</time>
      </trkpt>
      <trkpt lat="55.262683471664786" lon="12.400748720392585">
        <ele>18.39</ele>
        <time>2023-06-10T23:13:09.947Z</time>
      </trkpt>
      <trkpt lat="55.262756729498506" lon="12.400941839441657">
        <ele>18.4</ele>
        <time>2023-06-10T23:13:21.170Z</time>
      </trkpt>
      <trkpt lat="55.262830490246415" lon="12.401136299595237">
        <ele>18.48</ele>
        <time>2023-06-10T23:13:32.395Z</time>
      </trkpt>
      <trkpt lat="55.262928726151586" lon="12.401395048946142">
        <ele>18.64</ele>
        <time>2023-06-10T23:13:43.623Z</time>
      </trkpt>
      <trkpt lat="55.263026459142566" lon="12.401652541011572">
        <ele>18.85</ele>
        <time>2023-06-10T23:13:54.853Z</time>
      </trkpt>
      <trkpt lat="55.263100219890475" lon="12.40184691734612">
        <ele>18.98</ele>
        <time>2023-06-10T23:14:06.086Z</time>
      </trkpt>
      <trkpt lat="55.263198371976614" lon="12.402105750516057">
        <ele>19.11</ele>
        <time>2023-06-10T23:14:17.321Z</time>
      </trkpt>
      <trkpt lat="55.26343767531216" lon="12.40273623727262">
        <ele>19.32</ele>
        <time>2023-06-10T23:14:28.563Z</time>
      </trkpt>
      <trkpt lat="55.26360221207142" lon="12.403169749304652">
        <ele>19.38</ele>
        <time>2023-06-10T23:14:39.810Z</time>
      </trkpt>
      <trkpt lat="55.26382994838059" lon="12.403769977390766">
        <ele>19.38</ele>
        <time>2023-06-10T23:14:51.064Z</time>
      </trkpt>
      <trkpt lat="55.2639124263078" lon="12.403977010399103">
        <ele>19.38</ele>
        <time>2023-06-10T23:15:02.320Z</time>
      </trkpt>
      <trkpt lat="55.26408408768475" lon="12.404407756403089">
        <ele>19.3</ele>
        <time>2023-06-10T23:15:13.581Z</time>
      </trkpt>
      <trkpt lat="55.264182491227984" lon="12.404654854908586">
        <ele>19.29</ele>
        <time>2023-06-10T23:15:24.845Z</time>
      </trkpt>
      <trkpt lat="55.26431995444" lon="12.404999937862158">
        <ele>19.05</ele>
        <time>2023-06-10T23:15:36.112Z</time>
      </trkpt>
      <trkpt lat="55.264335880056024" lon="12.405042350292206">
        <ele>19.03</ele>
        <time>2023-06-10T23:15:47.380Z</time>
      </trkpt>
      <trkpt lat="55.26441014371812" lon="12.405240079388022">
        <ele>18.92</ele>
        <time>2023-06-10T23:15:58.650Z</time>
      </trkpt>
      <trkpt lat="55.26450863108039" lon="12.405502265319228">
        <ele>18.83</ele>
        <time>2023-06-10T23:16:09.923Z</time>
      </trkpt>
      <trkpt lat="55.26458339765668" lon="12.40570125170052">
        <ele>18.81</ele>
        <time>2023-06-10T23:16:21.198Z</time>
      </trkpt>
      <trkpt lat="55.26465766131878" lon="12.405898980796337">
        <ele>18.85</ele>
        <time>2023-06-10T23:16:32.475Z</time>
      </trkpt>
      <trkpt lat="55.26485564187169" lon="12.406426034867764">
        <ele>19.03</ele>
        <time>2023-06-10T23:16:43.758Z</time>
      </trkpt>
      <trkpt lat="55.265176836401224" lon="12.407281324267387">
        <ele>19.03</ele>
        <time>2023-06-10T23:16:55.050Z</time>
      </trkpt>
      <trkpt lat="55.26537490077317" lon="12.407808378338814">
        <ele>19.11</ele>
        <time>2023-06-10T23:17:06.348Z</time>
      </trkpt>
      <trkpt lat="55.26547389104962" lon="12.408071989193559">
        <ele>19.21</ele>
        <time>2023-06-10T23:17:17.649Z</time>
      </trkpt>
      <trkpt lat="55.26562233455479" lon="12.408467279747128">
        <ele>19.4</ele>
        <time>2023-06-10T23:17:28.954Z</time>
      </trkpt>
      <trkpt lat="55.26569659821689" lon="12.408664925023913">
        <ele>19.52</ele>
        <time>2023-06-10T23:17:40.262Z</time>
      </trkpt>
      <trkpt lat="55.26582995429635" lon="12.40901998244226">
        <ele>19.59</ele>
        <time>2023-06-10T23:17:51.574Z</time>
      </trkpt>
      <trkpt lat="55.26584101840854" lon="12.409047977998853">
        <ele>19.6</ele>
        <time>2023-06-10T23:18:02.886Z</time>
      </trkpt>
      <trkpt lat="55.265965489670634" lon="12.409363221377134">
        <ele>19.71</ele>
        <time>2023-06-10T23:18:14.201Z</time>
      </trkpt>
      <trkpt lat="55.26616430841386" lon="12.409866554662585">
        <ele>19.81</ele>
        <time>2023-06-10T23:18:25.522Z</time>
      </trkpt>
      <trkpt lat="55.26629992760718" lon="12.410209961235523">
        <ele>19.85</ele>
        <time>2023-06-10T23:18:36.847Z</time>
      </trkpt>
      <trkpt lat="55.266469744965434" lon="12.4104995559901">
        <ele>19.89</ele>
        <time>2023-06-10T23:18:48.176Z</time>
      </trkpt>
      <trkpt lat="55.26663998141885" lon="12.410789988934994">
        <ele>19.87</ele>
        <time>2023-06-10T23:18:59.508Z</time>
      </trkpt>
      <trkpt lat="55.26685279794037" lon="12.411113362759352">
        <ele>19.86</ele>
        <time>2023-06-10T23:19:10.845Z</time>
      </trkpt>
      <trkpt lat="55.26708128862083" lon="12.411460457369685">
        <ele>19.89</ele>
        <time>2023-06-10T23:19:22.187Z</time>
      </trkpt>
      <trkpt lat="55.26727708987892" lon="12.411758014932275">
        <ele>19.88</ele>
        <time>2023-06-10T23:19:33.533Z</time>
      </trkpt>
      <trkpt lat="55.26740835048258" lon="12.411957336589694">
        <ele>19.91</ele>
        <time>2023-06-10T23:19:44.882Z</time>
      </trkpt>
      <trkpt lat="55.26757087558508" lon="12.412204267457128">
        <ele>20.0</ele>
        <time>2023-06-10T23:19:56.234Z</time>
      </trkpt>
      <trkpt lat="55.267768017947674" lon="12.412503836676478">
        <ele>20.08</ele>
        <time>2023-06-10T23:20:07.590Z</time>
      </trkpt>
      <trkpt lat="55.26783331297338" lon="12.41260307841003">
        <ele>20.14</ele>
        <time>2023-06-10T23:20:18.948Z</time>
      </trkpt>
      <trkpt lat="55.267931213602424" lon="12.412751773372293">
        <ele>20.27</ele>
        <time>2023-06-10T23:20:30.308Z</time>
      </trkpt>
      <trkpt lat="55.268065156415105" lon="12.412955285981297">
        <ele>20.52</ele>
        <time>2023-06-10T23:20:41.671Z</time>
      </trkpt>
      <trkpt lat="55.268132546916604" lon="12.413057629019022">
        <ele>20.69</ele>
        <time>2023-06-10T23:20:53.035Z</time>
      </trkpt>
      <trkpt lat="55.26823312975466" lon="12.41321051493287">
        <ele>20.97</ele>
        <time>2023-06-10T23:21:04.401Z</time>
      </trkpt>
      <trkpt lat="55.268299765884876" lon="12.413311768323183">
        <ele>21.13</ele>
        <time>2023-06-10T23:21:15.769Z</time>
      </trkpt>
      <trkpt lat="55.268400432541966" lon="12.413464654237032">
        <ele>21.31</ele>
        <time>2023-06-10T23:21:27.139Z</time>
      </trkpt>
      <trkpt lat="55.2685350459069" lon="12.413669172674417">
        <ele>21.47</ele>
        <time>2023-06-10T23:21:38.512Z</time>
      </trkpt>
      <trkpt lat="55.26863571256399" lon="12.413822058588266">
        <ele>21.63</ele>
        <time>2023-06-10T23:21:49.887Z</time>
      </trkpt>
      <trkpt lat="55.26917215436697" lon="12.414637198671699">
        <ele>22.72</ele>
        <time>2023-06-10T23:22:01.273Z</time>
      </trkpt>
      <trkpt lat="55.26930685155094" lon="12.414841717109084">
        <ele>23.02</ele>
        <time>2023-06-10T23:22:12.662Z</time>
      </trkpt>
      <trkpt lat="55.26943936944008" lon="12.415043134242296">
        <ele>23.27</ele>
        <time>2023-06-10T23:22:24.054Z</time>
      </trkpt>
      <trkpt lat="55.269489996135235" lon="12.41511999629438">
        <ele>23.38</ele>
        <time>2023-06-10T23:22:35.447Z</time>
      </trkpt>
      <trkpt lat="55.269575491547585" lon="12.415237175300717">
        <ele>23.57</ele>
        <time>2023-06-10T23:22:46.842Z</time>
      </trkpt>
      <trkpt lat="55.26971370913088" lon="12.415426606312394">
        <ele>23.84</ele>
        <time>2023-06-10T23:22:58.239Z</time>
      </trkpt>
      <trkpt lat="55.26985192671418" lon="12.415616037324071">
        <ele>24.15</ele>
        <time>2023-06-10T23:23:09.639Z</time>
      </trkpt>
      <trkpt lat="55.269921412691474" lon="12.4157112557441">
        <ele>24.28</ele>
        <time>2023-06-10T23:23:21.041Z</time>
      </trkpt>
      <trkpt lat="55.269990898668766" lon="12.415806390345097">
        <ele>24.39</ele>
        <time>2023-06-10T23:23:32.444Z</time>
      </trkpt>
      <trkpt lat="55.270029958337545" lon="12.415859950706363">
        <ele>24.44</ele>
        <time>2023-06-10T23:23:43.848Z</time>
      </trkpt>
      <trkpt lat="55.27014009654522" lon="12.415966736152768">
        <ele>24.57</ele>
        <time>2023-06-10T23:23:55.254Z</time>
      </trkpt>
      <trkpt lat="55.27033212594688" lon="12.41615298204124">
        <ele>24.84</ele>
        <time>2023-06-10T23:24:06.663Z</time>
      </trkpt>
      <trkpt lat="55.27035995386541" lon="12.416179971769452">
        <ele>24.86</ele>
        <time>2023-06-10T23:24:18.073Z</time>
      </trkpt>
      <trkpt lat="55.27049347758293" lon="12.41627267561853">
        <ele>25.0</ele>
        <time>2023-06-10T23:24:29.485Z</time>
      </trkpt>
      <trkpt lat="55.27071995660663" lon="12.416429920122027">
        <ele>25.32</ele>
        <time>2023-06-10T23:24:40.901Z</time>
      </trkpt>
      <trkpt lat="55.2707833237946" lon="12.416454814374447">
        <ele>25.41</ele>
        <time>2023-06-10T23:24:52.318Z</time>
      </trkpt>
      <trkpt lat="55.27099999599159" lon="12.41653997451067">
        <ele>25.74</ele>
        <time>2023-06-10T23:25:03.739Z</time>
      </trkpt>
      <trkpt lat="55.27099999599159" lon="12.41653997451067">
        <ele>25.74</ele>
        <time>2023-06-10T23:25:15.160Z</time>
      </trkpt>
      <trkpt lat="55.27126997709274" lon="12.416589930653572">
        <ele>26.16</ele>
        <time>2023-06-10T23:25:26.585Z</time>
      </trkpt>
      <trkpt lat="55.27126997709274" lon="12.416589930653572">
        <ele>26.16</ele>
        <time>2023-06-10T23:25:38.010Z</time>
      </trkpt>
      <trkpt lat="55.27151992544532" lon="12.416609963402152">
        <ele>26.59</ele>
        <time>2023-06-10T23:25:49.439Z</time>
      </trkpt>
      <trkpt lat="55.27161589823663" lon="12.416597725823522">
        <ele>26.76</ele>
        <time>2023-06-10T23:26:00.870Z</time>
      </trkpt>
      <trkpt lat="55.27196844108403" lon="12.41655271500349">
        <ele>27.33</ele>
        <time>2023-06-10T23:26:12.306Z</time>
      </trkpt>
      <trkpt lat="55.27227605693042" lon="12.416513403877616">
        <ele>27.92</ele>
        <time>2023-06-10T23:26:23.747Z</time>
      </trkpt>
      <trkpt lat="55.27262859977782" lon="12.416468393057585">
        <ele>28.56</ele>
        <time>2023-06-10T23:26:35.194Z</time>
      </trkpt>
      <trkpt lat="55.272805290296674" lon="12.416445845738053">
        <ele>28.92</ele>
        <time>2023-06-10T23:26:46.644Z</time>
      </trkpt>
      <trkpt lat="55.27290754951537" lon="12.416432853788137">
        <ele>28.94</ele>
        <time>2023-06-10T23:26:58.095Z</time>
      </trkpt>
      <trkpt lat="55.272929929196835" lon="12.416429920122027">
        <ele>28.95</ele>
        <time>2023-06-10T23:27:09.547Z</time>
      </trkpt>
      <trkpt lat="55.2730199508369" lon="12.416449952870607">
        <ele>29.03</ele>
        <time>2023-06-10T23:27:21.000Z</time>
      </trkpt>
      <trkpt lat="55.27308993972838" lon="12.416509967297316">
        <ele>29.09</ele>
        <time>2023-06-10T23:27:32.454Z</time>
      </trkpt>
      <trkpt lat="55.27315255254507" lon="12.41669344715774">
        <ele>29.2</ele>
        <time>2023-06-10T23:27:43.910Z</time>
      </trkpt>
      <trkpt lat="55.27335916645825" lon="12.41729878820479">
        <ele>29.65</ele>
        <time>2023-06-10T23:27:55.373Z</time>
      </trkpt>
      <trkpt lat="55.27349738404155" lon="12.417703717947006">
        <ele>30.03</ele>
        <time>2023-06-10T23:28:06.840Z</time>
      </trkpt>
      <trkpt lat="55.27358933351934" lon="12.417973196133971">
        <ele>30.34</ele>
        <time>2023-06-10T23:28:18.310Z</time>
      </trkpt>
      <trkpt lat="55.27372704818845" lon="12.41837678477168">
        <ele>30.86</ele>
        <time>2023-06-10T23:28:29.784Z</time>
      </trkpt>
      <trkpt lat="55.27379645034671" lon="12.418579962104559">
        <ele>31.15</ele>
        <time>2023-06-10T23:28:41.261Z</time>
      </trkpt>
      <trkpt lat="55.27391103096306" lon="12.41891574114561">
        <ele>31.69</ele>
        <time>2023-06-10T23:28:52.741Z</time>
      </trkpt>
      <trkpt lat="55.274002980440855" lon="12.419185303151608">
        <ele>32.05</ele>
        <time>2023-06-10T23:29:04.224Z</time>
      </trkpt>
      <trkpt lat="55.27418696321547" lon="12.419724259525537">
        <ele>32.69</ele>
        <time>2023-06-10T23:29:15.713Z</time>
      </trkpt>
      <trkpt lat="55.27427891269326" lon="12.419993737712502">
        <ele>32.98</ele>
        <time>2023-06-10T23:29:27.205Z</time>
      </trkpt>
      <trkpt lat="55.27434831485152" lon="12.42019691504538">
        <ele>33.15</ele>
        <time>2023-06-10T23:29:38.699Z</time>
      </trkpt>
      <trkpt lat="55.27446247637272" lon="12.420531436800957">
        <ele>33.32</ele>
        <time>2023-06-10T23:29:50.196Z</time>
      </trkpt>
      <trkpt lat="55.274519976228476" lon="12.420699996873736">
        <ele>33.43</ele>
        <time>2023-06-10T23:30:01.695Z</time>
      </trkpt>
      <trkpt lat="55.27457596734166" lon="12.420866545289755">
        <ele>33.54</ele>
        <time>2023-06-10T23:30:13.196Z</time>
      </trkpt>
      <trkpt lat="55.274688955396414" lon="12.421202324330807">
        <ele>33.85</ele>
        <time>2023-06-10T23:30:24.700Z</time>
      </trkpt>
      <trkpt lat="55.27471175417304" lon="12.421270301565528">
        <ele>33.9</ele>
        <time>2023-06-10T23:30:36.205Z</time>
      </trkpt>
      <trkpt lat="55.274779479950666" lon="12.421471551060677">
        <ele>33.99</ele>
        <time>2023-06-10T23:30:47.712Z</time>
      </trkpt>
      <trkpt lat="55.27489238418639" lon="12.421807330101728">
        <ele>34.06</ele>
        <time>2023-06-10T23:30:59.223Z</time>
      </trkpt>
      <trkpt lat="55.27493764646351" lon="12.421941943466663">
        <ele>34.05</ele>
        <time>2023-06-10T23:31:10.735Z</time>
      </trkpt>
      <trkpt lat="55.27507343329489" lon="12.422345699742436">
        <ele>33.88</ele>
        <time>2023-06-10T23:31:22.252Z</time>
      </trkpt>
      <trkpt lat="55.27514115907252" lon="12.422546949237585">
        <ele>33.75</ele>
        <time>2023-06-10T23:31:33.771Z</time>
      </trkpt>
      <trkpt lat="55.275186421349645" lon="12.42268156260252">
        <ele>33.63</ele>
        <time>2023-06-10T23:31:45.291Z</time>
      </trkpt>
      <trkpt lat="55.275322208181024" lon="12.423085318878293">
        <ele>33.13</ele>
        <time>2023-06-10T23:31:56.815Z</time>
      </trkpt>
      <trkpt lat="55.27538985013962" lon="12.42328648455441">
        <ele>32.91</ele>
        <time>2023-06-10T23:32:08.342Z</time>
      </trkpt>
      <trkpt lat="55.275435112416744" lon="12.423421097919345">
        <ele>32.82</ele>
        <time>2023-06-10T23:32:19.870Z</time>
      </trkpt>
      <trkpt lat="55.27548037469387" lon="12.42355571128428">
        <ele>32.77</ele>
        <time>2023-06-10T23:32:31.399Z</time>
      </trkpt>
      <trkpt lat="55.27561616152525" lon="12.423959467560053">
        <ele>32.74</ele>
        <time>2023-06-10T23:32:42.933Z</time>
      </trkpt>
      <trkpt lat="55.275661423802376" lon="12.424094080924988">
        <ele>32.77</ele>
        <time>2023-06-10T23:32:54.468Z</time>
      </trkpt>
      <trkpt lat="55.27570626698434" lon="12.424227353185415">
        <ele>32.82</ele>
        <time>2023-06-10T23:33:06.005Z</time>
      </trkpt>
      <trkpt lat="55.27575152926147" lon="12.424361882731318">
        <ele>32.9</ele>
        <time>2023-06-10T23:33:17.543Z</time>
      </trkpt>
      <trkpt lat="55.275819674134254" lon="12.424564473330975">
        <ele>33.11</ele>
        <time>2023-06-10T23:33:29.083Z</time>
      </trkpt>
      <trkpt lat="55.27586493641138" lon="12.42469908669591">
        <ele>33.33</ele>
        <time>2023-06-10T23:33:40.625Z</time>
      </trkpt>
      <trkpt lat="55.275954036042094" lon="12.424964206293225">
        <ele>33.5</ele>
        <time>2023-06-10T23:33:52.169Z</time>
      </trkpt>
      <trkpt lat="55.27606559917331" lon="12.425295878201723">
        <ele>33.8</ele>
        <time>2023-06-10T23:34:03.717Z</time>
      </trkpt>
      <trkpt lat="55.27620004490018" lon="12.425695611163974">
        <ele>34.13</ele>
        <time>2023-06-10T23:34:15.269Z</time>
      </trkpt>
      <trkpt lat="55.27633398771286" lon="12.426093919202685">
        <ele>34.49</ele>
        <time>2023-06-10T23:34:26.825Z</time>
      </trkpt>
      <trkpt lat="55.276401210576296" lon="12.426293827593327">
        <ele>34.65</ele>
        <time>2023-06-10T23:34:38.384Z</time>
      </trkpt>
      <trkpt lat="55.27646801434457" lon="12.426492311060429">
        <ele>34.74</ele>
        <time>2023-06-10T23:34:49.945Z</time>
      </trkpt>
      <trkpt lat="55.27655761688948" lon="12.426758771762252">
        <ele>34.81</ele>
        <time>2023-06-10T23:35:01.509Z</time>
      </trkpt>
      <trkpt lat="55.27678024023771" lon="12.427420858293772">
        <ele>35.04</ele>
        <time>2023-06-10T23:35:13.080Z</time>
      </trkpt>
      <trkpt lat="55.276914685964584" lon="12.42782050743699">
        <ele>35.2</ele>
        <time>2023-06-10T23:35:24.655Z</time>
      </trkpt>
      <trkpt lat="55.27700386941433" lon="12.428085627034307">
        <ele>35.26</ele>
        <time>2023-06-10T23:35:36.233Z</time>
      </trkpt>
      <trkpt lat="55.277093052864075" lon="12.428350746631622">
        <ele>35.25</ele>
        <time>2023-06-10T23:35:47.813Z</time>
      </trkpt>
      <trkpt lat="55.277293715626" lon="12.428947621956468">
        <ele>35.08</ele>
        <time>2023-06-10T23:35:59.400Z</time>
      </trkpt>
      <trkpt lat="55.277405278757215" lon="12.429279293864965">
        <ele>35.05</ele>
        <time>2023-06-10T23:36:10.990Z</time>
      </trkpt>
      <trkpt lat="55.277529917657375" lon="12.429649941623211">
        <ele>34.79</ele>
        <time>2023-06-10T23:36:22.584Z</time>
      </trkpt>
      <trkpt lat="55.277564618736506" lon="12.429750356823206">
        <ele>34.72</ele>
        <time>2023-06-10T23:36:34.179Z</time>
      </trkpt>
      <trkpt lat="55.27761080302298" lon="12.429884048178792">
        <ele>34.64</ele>
        <time>2023-06-10T23:36:45.776Z</time>
      </trkpt>
      <trkpt lat="55.27767978608608" lon="12.430083872750401">
        <ele>34.55</ele>
        <time>2023-06-10T23:36:57.375Z</time>
      </trkpt>
      <trkpt lat="55.2779343444854" lon="12.430820977315307">
        <ele>34.26</ele>
        <time>2023-06-10T23:37:08.982Z</time>
      </trkpt>
      <trkpt lat="55.278096199035645" lon="12.431289441883564">
        <ele>34.16</ele>
        <time>2023-06-10T23:37:20.594Z</time>
      </trkpt>
      <trkpt lat="55.27816568501294" lon="12.431490607559681">
        <ele>34.14</ele>
        <time>2023-06-10T23:37:32.208Z</time>
      </trkpt>
      <trkpt lat="55.27819996699691" lon="12.431589933112264">
        <ele>34.14</ele>
        <time>2023-06-10T23:37:43.823Z</time>
      </trkpt>
      <trkpt lat="55.27824154123664" lon="12.431682050228119">
        <ele>34.15</ele>
        <time>2023-06-10T23:37:55.439Z</time>
      </trkpt>
      <trkpt lat="55.27832477353513" lon="12.431866368278861">
        <ele>34.2</ele>
        <time>2023-06-10T23:38:07.057Z</time>
      </trkpt>
      <trkpt lat="55.27833994477987" lon="12.431899979710579">
        <ele>34.21</ele>
        <time>2023-06-10T23:38:18.676Z</time>
      </trkpt>
      <trkpt lat="55.278599951416254" lon="12.432309938594699">
        <ele>34.46</ele>
        <time>2023-06-10T23:38:30.300Z</time>
      </trkpt>
      <trkpt lat="55.2787599619478" lon="12.432489981874824">
        <ele>34.6</ele>
        <time>2023-06-10T23:38:41.927Z</time>
      </trkpt>
      <trkpt lat="55.27885434217751" lon="12.432571453973651">
        <ele>34.68</ele>
        <time>2023-06-10T23:38:53.556Z</time>
      </trkpt>
      <trkpt lat="55.27897998690605" lon="12.432679999619722">
        <ele>34.76</ele>
        <time>2023-06-10T23:39:05.187Z</time>
      </trkpt>
      <trkpt lat="55.27914376929402" lon="12.432772535830736">
        <ele>34.87</ele>
        <time>2023-06-10T23:39:16.821Z</time>
      </trkpt>
      <trkpt lat="55.27920998632908" lon="12.432809919118881">
        <ele>34.9</ele>
        <time>2023-06-10T23:39:28.456Z</time>
      </trkpt>
      <trkpt lat="55.27931660413742" lon="12.43284503929317">
        <ele>34.96</ele>
        <time>2023-06-10T23:39:40.093Z</time>
      </trkpt>
      <trkpt lat="55.279360776767135" lon="12.432859539985657">
        <ele>35.0</ele>
        <time>2023-06-10T23:39:51.731Z</time>
      </trkpt>
      <trkpt lat="55.279448283836246" lon="12.432888289913535">
        <ele>35.11</ele>
        <time>2023-06-10T23:40:03.370Z</time>
      </trkpt>
      <trkpt lat="55.27961449697614" lon="12.432942939922214">
        <ele>35.09</ele>
        <time>2023-06-10T23:40:15.012Z</time>
      </trkpt>
      <trkpt lat="55.27969756163657" lon="12.432970264926553">
        <ele>35.06</ele>
        <time>2023-06-10T23:40:26.655Z</time>
      </trkpt>
      <trkpt lat="55.279781548306346" lon="12.432997925207019">
        <ele>35.0</ele>
        <time>2023-06-10T23:40:38.299Z</time>
      </trkpt>
      <trkpt lat="55.27993996627629" lon="12.433049976825714">
        <ele>34.83</ele>
        <time>2023-06-10T23:40:49.946Z</time>
      </trkpt>
      <trkpt lat="55.28006703592837" lon="12.433106889948249">
        <ele>34.7</ele>
        <time>2023-06-10T23:41:01.595Z</time>
      </trkpt>
      <trkpt lat="55.28022998012602" lon="12.433179980143905">
        <ele>34.43</ele>
        <time>2023-06-10T23:41:13.247Z</time>
      </trkpt>
      <trkpt lat="55.280299969017506" lon="12.433249969035387">
        <ele>34.31</ele>
        <time>2023-06-10T23:41:24.900Z</time>
      </trkpt>
      <trkpt lat="55.280450005084276" lon="12.433475023135543">
        <ele>34.01</ele>
        <time>2023-06-10T23:41:36.556Z</time>
      </trkpt>
      <trkpt lat="55.28055184520781" lon="12.43362782523036">
        <ele>33.82</ele>
        <time>2023-06-10T23:41:48.214Z</time>
      </trkpt>
      <trkpt lat="55.28073993511498" lon="12.433909960091114">
        <ele>33.34</ele>
        <time>2023-06-10T23:41:59.876Z</time>
      </trkpt>
      <trkpt lat="55.2807405218482" lon="12.433911049738526">
        <ele>33.34</ele>
        <time>2023-06-10T23:42:11.538Z</time>
      </trkpt>
      <trkpt lat="55.28079818934202" lon="12.434013057500124">
        <ele>33.22</ele>
        <time>2023-06-10T23:42:23.202Z</time>
      </trkpt>
      <trkpt lat="55.281066577881575" lon="12.434488562867045">
        <ele>32.76</ele>
        <time>2023-06-10T23:42:34.872Z</time>
      </trkpt>
      <trkpt lat="55.28108996339142" lon="12.434529969468713">
        <ele>32.73</ele>
        <time>2023-06-10T23:42:46.542Z</time>
      </trkpt>
      <trkpt lat="55.28097999282181" lon="12.434689980000257">
        <ele>32.64</ele>
        <time>2023-06-10T23:42:58.215Z</time>
      </trkpt>
      <trkpt lat="55.28095342218876" lon="12.434737756848335">
        <ele>32.62</ele>
        <time>2023-06-10T23:43:09.888Z</time>
      </trkpt>
      <trkpt lat="55.28077991679311" lon="12.435049982741475">
        <ele>32.38</ele>
        <time>2023-06-10T23:43:21.565Z</time>
      </trkpt>
      <trkpt lat="55.280779330059886" lon="12.435052497312427">
        <ele>32.38</ele>
        <time>2023-06-10T23:43:33.242Z</time>
      </trkpt>
      <trkpt lat="55.280729960650206" lon="12.435239916667342">
        <ele>32.24</ele>
        <time>2023-06-10T23:43:44.921Z</time>
      </trkpt>
      <trkpt lat="55.280727948993444" lon="12.435254082083702">
        <ele>32.24</ele>
        <time>2023-06-10T23:43:56.600Z</time>
      </trkpt>
      <trkpt lat="55.28069995343685" lon="12.435449967160821">
        <ele>32.13</ele>
        <time>2023-06-10T23:44:08.281Z</time>
      </trkpt>
      <trkpt lat="55.28067405335605" lon="12.435847017914057">
        <ele>31.93</ele>
        <time>2023-06-10T23:44:19.966Z</time>
      </trkpt>
      <trkpt lat="55.28066424652934" lon="12.435997556895018">
        <ele>31.83</ele>
        <time>2023-06-10T23:44:31.652Z</time>
      </trkpt>
      <trkpt lat="55.28065452352166" lon="12.436146587133408">
        <ele>31.71</ele>
        <time>2023-06-10T23:44:43.340Z</time>
      </trkpt>
      <trkpt lat="55.28063993901014" lon="12.43636996485293">
        <ele>31.49</ele>
        <time>2023-06-10T23:44:55.030Z</time>
      </trkpt>
      <trkpt lat="55.28062870725989" lon="12.436444144695997">
        <ele>31.42</ele>
        <time>2023-06-10T23:45:06.720Z</time>
      </trkpt>
      <trkpt lat="55.28058394789696" lon="12.436738600954413">
        <ele>31.1</ele>
        <time>2023-06-10T23:45:18.413Z</time>
      </trkpt>
      <trkpt lat="55.28053851798177" lon="12.437037667259574">
        <ele>30.81</ele>
        <time>2023-06-10T23:45:30.109Z</time>
      </trkpt>
      <trkpt lat="55.28051999397576" lon="12.437159959226847">
        <ele>30.71</ele>
        <time>2023-06-10T23:45:41.806Z</time>
      </trkpt>
      <trkpt lat="55.28051680885255" lon="12.437189128249884">
        <ele>30.69</ele>
        <time>2023-06-10T23:45:53.503Z</time>
      </trkpt>
      <trkpt lat="55.28049174696207" lon="12.437418708577752">
        <ele>30.55</ele>
        <time>2023-06-10T23:46:05.202Z</time>
      </trkpt>
      <trkpt lat="55.28045997954905" lon="12.437709979712963">
        <ele>30.41</ele>
        <time>2023-06-10T23:46:16.904Z</time>
      </trkpt>
      <trkpt lat="55.28047037310898" lon="12.437800001353025">
        <ele>30.37</ele>
        <time>2023-06-10T23:46:28.607Z</time>
      </trkpt>
      <trkpt lat="55.280505158007145" lon="12.4381017498672">
        <ele>30.4</ele>
        <time>2023-06-10T23:46:40.313Z</time>
      </trkpt>
      <trkpt lat="55.28051999397576" lon="12.438229992985725">
        <ele>30.45</ele>
        <time>2023-06-10T23:46:52.020Z</time>
      </trkpt>
      <trkpt lat="55.28053265064955" lon="12.438231585547328">
        <ele>30.46</ele>
        <time>2023-06-10T23:47:03.727Z</time>
      </trkpt>
      <trkpt lat="55.280576571822166" lon="12.43823703378439">
        <ele>30.51</ele>
        <time>2023-06-10T23:47:15.435Z</time>
      </trkpt>
      <trkpt lat="55.280599957332015" lon="12.4382399674505">
        <ele>30.54</ele>
        <time>2023-06-10T23:47:27.143Z</time>
      </trkpt>
      <trkpt lat="55.2806699462235" lon="12.438289923593402">
        <ele>30.65</ele>
        <time>2023-06-10T23:47:38.853Z</time>
      </trkpt>
      <trkpt lat="55.28069701977074" lon="12.438320936635137">
        <ele>30.7</ele>
        <time>2023-06-10T23:47:50.563Z</time>
      </trkpt>
      <trkpt lat="55.28073993511498" lon="12.43836997076869">
        <ele>30.78</ele>
        <time>2023-06-10T23:48:02.274Z</time>
      </trkpt>
      <trkpt lat="55.280961049720645" lon="12.438724860548973">
        <ele>31.26</ele>
        <time>2023-06-10T23:48:13.990Z</time>
      </trkpt>
      <trkpt lat="55.28105794452131" lon="12.438880344852805">
        <ele>31.43</ele>
        <time>2023-06-10T23:48:25.708Z</time>
      </trkpt>
      <trkpt lat="55.28111997060478" lon="12.438979921862483">
        <ele>31.51</ele>
        <time>2023-06-10T23:48:37.427Z</time>
      </trkpt>
      <trkpt lat="55.28112340718508" lon="12.438983861356974">
        <ele>31.51</ele>
        <time>2023-06-10T23:48:49.146Z</time>
      </trkpt>
      <trkpt lat="55.28123312629759" lon="12.439110511913896">
        <ele>31.55</ele>
        <time>2023-06-10T23:49:00.867Z</time>
      </trkpt>
      <trkpt lat="55.28124997392297" lon="12.439129957929254">
        <ele>31.54</ele>
        <time>2023-06-10T23:49:12.589Z</time>
      </trkpt>
      <trkpt lat="55.28154317289591" lon="12.439394406974316">
        <ele>31.51</ele>
        <time>2023-06-10T23:49:24.316Z</time>
      </trkpt>
      <trkpt lat="55.281604025512934" lon="12.43944930844009">
        <ele>31.53</ele>
        <time>2023-06-10T23:49:36.044Z</time>
      </trkpt>
      <trkpt lat="55.281680803745985" lon="12.439518542960286">
        <ele>31.53</ele>
        <time>2023-06-10T23:49:47.773Z</time>
      </trkpt>
      <trkpt lat="55.281759928911924" lon="12.439589956775308">
        <ele>31.5</ele>
        <time>2023-06-10T23:49:59.504Z</time>
      </trkpt>
      <trkpt lat="55.281889932230115" lon="12.439729934558272">
        <ele>31.45</ele>
        <time>2023-06-10T23:50:11.237Z</time>
      </trkpt>
      <trkpt lat="55.28194625861943" lon="12.439837390556931">
        <ele>31.43</ele>
        <time>2023-06-10T23:50:22.972Z</time>
      </trkpt>
      <trkpt lat="55.28210995718837" lon="12.440149951726198">
        <ele>31.33</ele>
        <time>2023-06-10T23:50:34.710Z</time>
      </trkpt>
      <trkpt lat="55.28224230743945" lon="12.440427141264081">
        <ele>31.26</ele>
        <time>2023-06-10T23:50:46.452Z</time>
      </trkpt>
      <trkpt lat="55.28238563798368" lon="12.44072712957859">
        <ele>31.11</ele>
        <time>2023-06-10T23:50:58.197Z</time>
      </trkpt>
      <trkpt lat="55.28242997825146" lon="12.4408199172467">
        <ele>31.04</ele>
        <time>2023-06-10T23:51:09.943Z</time>
      </trkpt>
      <trkpt lat="55.282589988783" lon="12.441029967740178">
        <ele>30.86</ele>
        <time>2023-06-10T23:51:21.693Z</time>
      </trkpt>
      <trkpt lat="55.28272996656597" lon="12.441139938309789">
        <ele>30.72</ele>
        <time>2023-06-10T23:51:33.445Z</time>
      </trkpt>
      <trkpt lat="55.28278335928917" lon="12.441171621903777">
        <ele>30.67</ele>
        <time>2023-06-10T23:51:45.198Z</time>
      </trkpt>
      <trkpt lat="55.28314797207713" lon="12.44138821028173">
        <ele>30.37</ele>
        <time>2023-06-10T23:51:56.957Z</time>
      </trkpt>
      <trkpt lat="55.28358324430883" lon="12.441646791994572">
        <ele>29.87</ele>
        <time>2023-06-10T23:52:08.724Z</time>
      </trkpt>
      <trkpt lat="55.283823469653726" lon="12.441789451986551">
        <ele>29.57</ele>
        <time>2023-06-10T23:52:20.495Z</time>
      </trkpt>
      <trkpt lat="55.284142987802625" lon="12.441979218274355">
        <ele>29.3</ele>
        <time>2023-06-10T23:52:32.271Z</time>
      </trkpt>
      <trkpt lat="55.28422730974853" lon="12.442029258236289">
        <ele>29.21</ele>
        <time>2023-06-10T23:52:44.048Z</time>
      </trkpt>
      <trkpt lat="55.28431246988475" lon="12.442079884931445">
        <ele>29.15</ele>
        <time>2023-06-10T23:52:55.827Z</time>
      </trkpt>
      <trkpt lat="55.284379944205284" lon="12.442119950428605">
        <ele>29.13</ele>
        <time>2023-06-10T23:53:07.607Z</time>
      </trkpt>
      <trkpt lat="55.284483041614294" lon="12.442180132493377">
        <ele>29.1</ele>
        <time>2023-06-10T23:53:19.389Z</time>
      </trkpt>
      <trkpt lat="55.284610195085406" lon="12.442254312336445">
        <ele>29.1</ele>
        <time>2023-06-10T23:53:31.173Z</time>
      </trkpt>
      <trkpt lat="55.28486542403698" lon="12.442403174936771">
        <ele>29.19</ele>
        <time>2023-06-10T23:53:42.961Z</time>
      </trkpt>
      <trkpt lat="55.284950751811266" lon="12.44245296344161">
        <ele>29.2</ele>
        <time>2023-06-10T23:53:54.751Z</time>
      </trkpt>
      <trkpt lat="55.28503607958555" lon="12.442502668127418">
        <ele>29.17</ele>
        <time>2023-06-10T23:54:06.542Z</time>
      </trkpt>
      <trkpt lat="55.28512140735984" lon="12.442552456632257">
        <ele>29.1</ele>
        <time>2023-06-10T23:54:18.335Z</time>
      </trkpt>
      <trkpt lat="55.28520598076284" lon="12.442601742222905">
        <ele>28.99</ele>
        <time>2023-06-10T23:54:30.129Z</time>
      </trkpt>
      <trkpt lat="55.28558911755681" lon="12.44282528758049">
        <ele>28.37</ele>
        <time>2023-06-10T23:54:41.929Z</time>
      </trkpt>
      <trkpt lat="55.28571719303727" lon="12.442899970337749">
        <ele>28.28</ele>
        <time>2023-06-10T23:54:53.732Z</time>
      </trkpt>
      <trkpt lat="55.285844346508384" lon="12.442974150180817">
        <ele>28.28</ele>
        <time>2023-06-10T23:55:05.537Z</time>
      </trkpt>
      <trkpt lat="55.28592967428267" lon="12.443023938685656">
        <ele>28.31</ele>
        <time>2023-06-10T23:55:17.343Z</time>
      </trkpt>
      <trkpt lat="55.286015002056956" lon="12.443073727190495">
        <ele>28.38</ele>
        <time>2023-06-10T23:55:29.151Z</time>
      </trkpt>
      <trkpt lat="55.28614215552807" lon="12.443147907033563">
        <ele>28.52</ele>
        <time>2023-06-10T23:55:40.961Z</time>
      </trkpt>
      <trkpt lat="55.28622756712139" lon="12.443197695538402">
        <ele>28.65</ele>
        <time>2023-06-10T23:55:52.772Z</time>
      </trkpt>
      <trkpt lat="55.28631289489567" lon="12.44324748404324">
        <ele>28.81</ele>
        <time>2023-06-10T23:56:04.585Z</time>
      </trkpt>
      <trkpt lat="55.2865672018379" lon="12.443395843729377">
        <ele>29.41</ele>
        <time>2023-06-10T23:56:16.402Z</time>
      </trkpt>
      <trkpt lat="55.286652529612184" lon="12.443445632234216">
        <ele>29.58</ele>
        <time>2023-06-10T23:56:28.220Z</time>
      </trkpt>
      <trkpt lat="55.28677976690233" lon="12.443519812077284">
        <ele>29.76</ele>
        <time>2023-06-10T23:56:40.041Z</time>
      </trkpt>
      <trkpt lat="55.28690692037344" lon="12.443593991920352">
        <ele>29.87</ele>
        <time>2023-06-10T23:56:51.864Z</time>
      </trkpt>
      <trkpt lat="55.287076737731695" lon="12.44369306601584">
        <ele>29.93</ele>
        <time>2023-06-10T23:57:03.690Z</time>
      </trkpt>
      <trkpt lat="55.28720389120281" lon="12.443767245858908">
        <ele>29.91</ele>
        <time>2023-06-10T23:57:15.518Z</time>
      </trkpt>
      <trkpt lat="55.287259966135025" lon="12.443799935281277">
        <ele>29.88</ele>
        <time>2023-06-10T23:57:27.347Z</time>
      </trkpt>
      <trkpt lat="55.287289721891284" lon="12.443814435973763">
        <ele>29.87</ele>
        <time>2023-06-10T23:57:39.176Z</time>
      </trkpt>
      <trkpt lat="55.28741444461048" lon="12.443875204771757">
        <ele>29.75</ele>
        <time>2023-06-10T23:57:51.007Z</time>
      </trkpt>
      <trkpt lat="55.287591302767396" lon="12.44396137073636">
        <ele>29.56</ele>
        <time>2023-06-10T23:58:02.841Z</time>
      </trkpt>
      <trkpt lat="55.2876499760896" lon="12.443989953026175">
        <ele>29.5</ele>
        <time>2023-06-10T23:58:14.676Z</time>
      </trkpt>
      <trkpt lat="55.28772189281881" lon="12.444020379334688">
        <ele>29.44</ele>
        <time>2023-06-10T23:58:26.512Z</time>
      </trkpt>
      <trkpt lat="55.28780847787857" lon="12.444056924432516">
        <ele>29.41</ele>
        <time>2023-06-10T23:58:38.350Z</time>
      </trkpt>
      <trkpt lat="55.287938732653856" lon="12.444111993536353">
        <ele>29.46</ele>
        <time>2023-06-10T23:58:50.190Z</time>
      </trkpt>
      <trkpt lat="55.288026155903935" lon="12.44414895772934">
        <ele>29.55</ele>
        <time>2023-06-10T23:59:02.031Z</time>
      </trkpt>
      <trkpt lat="55.2881127409637" lon="12.4441855866462">
        <ele>29.7</ele>
        <time>2023-06-10T23:59:13.874Z</time>
      </trkpt>
      <trkpt lat="55.28820016421378" lon="12.444222550839186">
        <ele>29.9</ele>
        <time>2023-06-10T23:59:25.718Z</time>
      </trkpt>
      <trkpt lat="55.28841784223914" lon="12.44431458413601">
        <ele>30.45</ele>
        <time>2023-06-10T23:59:37.566Z</time>
      </trkpt>
      <trkpt lat="55.2885044272989" lon="12.444351129233837">
        <ele>30.63</ele>
        <time>2023-06-10T23:59:49.415Z</time>
      </trkpt>
      <trkpt lat="55.28863468207419" lon="12.444406198337674">
        <ele>30.85</ele>
        <time>2023-06-11T00:00:01.266Z</time>
      </trkpt>
      <trkpt lat="55.288765858858824" lon="12.444461602717638">
        <ele>31.01</ele>
        <time>2023-06-11T00:00:13.120Z</time>
      </trkpt>
      <trkpt lat="55.28915670700371" lon="12.444626810029149">
        <ele>31.29</ele>
        <time>2023-06-11T00:00:24.980Z</time>
      </trkpt>
      <trkpt lat="55.28950120322406" lon="12.444772403687239">
        <ele>31.61</ele>
        <time>2023-06-11T00:00:36.846Z</time>
      </trkpt>
      <trkpt lat="55.289758276194334" lon="12.444881116971374">
        <ele>31.81</ele>
        <time>2023-06-11T00:00:48.716Z</time>
      </trkpt>
      <trkpt lat="55.289886770769954" lon="12.444935431703925">
        <ele>31.94</ele>
        <time>2023-06-11T00:01:00.588Z</time>
      </trkpt>
      <trkpt lat="55.29001618735492" lon="12.444990081712604">
        <ele>32.11</ele>
        <time>2023-06-11T00:01:12.462Z</time>
      </trkpt>
      <trkpt lat="55.29027409851551" lon="12.445099130272865">
        <ele>32.5</ele>
        <time>2023-06-11T00:01:24.340Z</time>
      </trkpt>
      <trkpt lat="55.29066058807075" lon="12.445262493565679">
        <ele>33.12</ele>
        <time>2023-06-11T00:01:36.225Z</time>
      </trkpt>
      <trkpt lat="55.2908687107265" lon="12.445350419729948">
        <ele>33.36</ele>
        <time>2023-06-11T00:01:48.113Z</time>
      </trkpt>
      <trkpt lat="55.29128403402865" lon="12.445526020601392">
        <ele>33.93</ele>
        <time>2023-06-11T00:02:00.008Z</time>
      </trkpt>
      <trkpt lat="55.29137053526938" lon="12.44556256569922">
        <ele>33.93</ele>
        <time>2023-06-11T00:02:11.905Z</time>
      </trkpt>
      <trkpt lat="55.291501712054014" lon="12.445618053898215">
        <ele>33.99</ele>
        <time>2023-06-11T00:02:23.804Z</time>
      </trkpt>
      <trkpt lat="55.2915299590677" lon="12.445629956200719">
        <ele>34.0</ele>
        <time>2023-06-11T00:02:35.703Z</time>
      </trkpt>
      <trkpt lat="55.29185039922595" lon="12.445760294795036">
        <ele>34.23</ele>
        <time>2023-06-11T00:02:47.607Z</time>
      </trkpt>
      <trkpt lat="55.29206765815616" lon="12.445848640054464">
        <ele>34.32</ele>
        <time>2023-06-11T00:02:59.515Z</time>
      </trkpt>
      <trkpt lat="55.29211996123195" lon="12.44586993008852">
        <ele>34.32</ele>
        <time>2023-06-11T00:03:11.424Z</time>
      </trkpt>
      <trkpt lat="55.29253997839987" lon="12.44590999558568">
        <ele>34.37</ele>
        <time>2023-06-11T00:03:23.340Z</time>
      </trkpt>
      <trkpt lat="55.29255841858685" lon="12.445908403024077">
        <ele>34.38</ele>
        <time>2023-06-11T00:03:35.256Z</time>
      </trkpt>
      <trkpt lat="55.292779952287674" lon="12.4458899628371">
        <ele>34.44</ele>
        <time>2023-06-11T00:03:47.176Z</time>
      </trkpt>
      <trkpt lat="55.29295823536813" lon="12.445843443274498">
        <ele>34.5</ele>
        <time>2023-06-11T00:03:59.098Z</time>
      </trkpt>
      <trkpt lat="55.2930099517107" lon="12.445829948410392">
        <ele>34.5</ele>
        <time>2023-06-11T00:04:11.021Z</time>
      </trkpt>
      <trkpt lat="55.293189994990826" lon="12.44575995951891">
        <ele>34.54</ele>
        <time>2023-06-11T00:04:22.947Z</time>
      </trkpt>
      <trkpt lat="55.293717719614506" lon="12.4453857075423">
        <ele>34.64</ele>
        <time>2023-06-11T00:04:34.882Z</time>
      </trkpt>
      <trkpt lat="55.29373993165791" lon="12.445369949564338">
        <ele>34.63</ele>
        <time>2023-06-11T00:04:46.818Z</time>
      </trkpt>
      <trkpt lat="55.29411183670163" lon="12.445016065612435">
        <ele>34.62</ele>
        <time>2023-06-11T00:04:58.760Z</time>
      </trkpt>
      <trkpt lat="55.29435994103551" lon="12.444779947400093">
        <ele>34.64</ele>
        <time>2023-06-11T00:05:10.707Z</time>
      </trkpt>
      <trkpt lat="55.29446781612933" lon="12.444684645161033">
        <ele>34.66</ele>
        <time>2023-06-11T00:05:22.656Z</time>
      </trkpt>
      <trkpt lat="55.294667808339" lon="12.444507787004113">
        <ele>34.72</ele>
        <time>2023-06-11T00:05:34.609Z</time>
      </trkpt>
      <trkpt lat="55.294826896861196" lon="12.444367222487926">
        <ele>34.84</ele>
        <time>2023-06-11T00:05:46.564Z</time>
      </trkpt>
      <trkpt lat="55.29494734480977" lon="12.444260688498616">
        <ele>34.77</ele>
        <time>2023-06-11T00:05:58.522Z</time>
      </trkpt>
      <trkpt lat="55.29504993930459" lon="12.4441699963063">
        <ele>34.75</ele>
        <time>2023-06-11T00:06:10.481Z</time>
      </trkpt>
      <trkpt lat="55.295344814658165" lon="12.443898171186447">
        <ele>34.71</ele>
        <time>2023-06-11T00:06:22.446Z</time>
      </trkpt>
      <trkpt lat="55.29546425677836" lon="12.443788116797805">
        <ele>34.74</ele>
        <time>2023-06-11T00:06:34.413Z</time>
      </trkpt>
      <trkpt lat="55.29562275856733" lon="12.443642020225525">
        <ele>34.82</ele>
        <time>2023-06-11T00:06:46.383Z</time>
      </trkpt>
      <trkpt lat="55.29570238664746" lon="12.443568678572774">
        <ele>34.84</ele>
        <time>2023-06-11T00:06:58.354Z</time>
      </trkpt>
      <trkpt lat="55.2959007024765" lon="12.443385953083634">
        <ele>34.85</ele>
        <time>2023-06-11T00:07:10.329Z</time>
      </trkpt>
      <trkpt lat="55.296059204265475" lon="12.443239856511354">
        <ele>34.89</ele>
        <time>2023-06-11T00:07:22.307Z</time>
      </trkpt>
      <trkpt lat="55.2962582744658" lon="12.44305637665093">
        <ele>34.9</ele>
        <time>2023-06-11T00:07:34.288Z</time>
      </trkpt>
      <trkpt lat="55.29637687839568" lon="12.44294699281454">
        <ele>34.95</ele>
        <time>2023-06-11T00:07:46.271Z</time>
      </trkpt>
      <trkpt lat="55.29653621837497" lon="12.442800225690007">
        <ele>35.06</ele>
        <time>2023-06-11T00:07:58.257Z</time>
      </trkpt>
      <trkpt lat="55.29669463634491" lon="12.442654212936759">
        <ele>35.22</ele>
        <time>2023-06-11T00:08:10.246Z</time>
      </trkpt>
      <trkpt lat="55.296814078465104" lon="12.442544074729085">
        <ele>35.37</ele>
        <time>2023-06-11T00:08:22.237Z</time>
      </trkpt>
      <trkpt lat="55.29705220833421" lon="12.442324636504054">
        <ele>35.81</ele>
        <time>2023-06-11T00:08:34.233Z</time>
      </trkpt>
      <trkpt lat="55.29713183641434" lon="12.442251211032271">
        <ele>35.93</ele>
        <time>2023-06-11T00:08:46.230Z</time>
      </trkpt>
      <trkpt lat="55.29736996628344" lon="12.44203177280724">
        <ele>36.16</ele>
        <time>2023-06-11T00:08:58.231Z</time>
      </trkpt>
      <trkpt lat="55.29756828211248" lon="12.441849047318101">
        <ele>36.4</ele>
        <time>2023-06-11T00:09:10.236Z</time>
      </trkpt>
      <trkpt lat="55.29768688604236" lon="12.441739663481712">
        <ele>36.49</ele>
        <time>2023-06-11T00:09:22.243Z</time>
      </trkpt>
      <trkpt lat="55.29776659794152" lon="12.441666321828961">
        <ele>36.5</ele>
        <time>2023-06-11T00:09:34.252Z</time>
      </trkpt>
      <trkpt lat="55.29844184406102" lon="12.441043881699443">
        <ele>36.2</ele>
        <time>2023-06-11T00:09:46.273Z</time>
      </trkpt>
      <trkpt lat="55.29860034584999" lon="12.440897868946195">
        <ele>36.16</ele>
        <time>2023-06-11T00:09:58.297Z</time>
      </trkpt>
      <trkpt lat="55.298918103799224" lon="12.440605005249381">
        <ele>35.98</ele>
        <time>2023-06-11T00:10:10.326Z</time>
      </trkpt>
      <trkpt lat="55.2990367077291" lon="12.440495705232024">
        <ele>35.94</ele>
        <time>2023-06-11T00:10:22.358Z</time>
      </trkpt>
      <trkpt lat="55.29914424754679" lon="12.440396631136537">
        <ele>35.98</ele>
        <time>2023-06-11T00:10:34.392Z</time>
      </trkpt>
      <trkpt lat="55.29918406158686" lon="12.440359918400645">
        <ele>35.97</ele>
        <time>2023-06-11T00:10:46.426Z</time>
      </trkpt>
      <trkpt lat="55.29925991781056" lon="12.440289929509163">
        <ele>35.91</ele>
        <time>2023-06-11T00:10:58.462Z</time>
      </trkpt>
      <trkpt lat="55.299425879493356" lon="12.440153555944562">
        <ele>35.81</ele>
        <time>2023-06-11T00:11:10.501Z</time>
      </trkpt>
      <trkpt lat="55.29966945759952" lon="12.439953312277794">
        <ele>35.71</ele>
        <time>2023-06-11T00:11:22.544Z</time>
      </trkpt>
      <trkpt lat="55.29970994219184" lon="12.439919952303171">
        <ele>35.68</ele>
        <time>2023-06-11T00:11:34.588Z</time>
      </trkpt>
      <trkpt lat="55.29991680756211" lon="12.439768239855766">
        <ele>35.55</ele>
        <time>2023-06-11T00:11:46.635Z</time>
      </trkpt>
      <trkpt lat="55.29999978840351" lon="12.439707387238741">
        <ele>35.52</ele>
        <time>2023-06-11T00:11:58.684Z</time>
      </trkpt>
      <trkpt lat="55.30000993050635" lon="12.439699927344918">
        <ele>35.51</ele>
        <time>2023-06-11T00:12:10.733Z</time>
      </trkpt>
      <trkpt lat="55.30033992603421" lon="12.439499935135245">
        <ele>35.45</ele>
        <time>2023-06-11T00:12:22.787Z</time>
      </trkpt>
      <trkpt lat="55.30038200318813" lon="12.439479399472475">
        <ele>35.45</ele>
        <time>2023-06-11T00:12:34.842Z</time>
      </trkpt>
      <trkpt lat="55.30046783387661" lon="12.439437489956617">
        <ele>35.46</ele>
        <time>2023-06-11T00:12:46.899Z</time>
      </trkpt>
      <trkpt lat="55.30077016912401" lon="12.439289633184671">
        <ele>35.63</ele>
        <time>2023-06-11T00:12:58.961Z</time>
      </trkpt>
      <trkpt lat="55.30078995041549" lon="12.439279993996024">
        <ele>35.64</ele>
        <time>2023-06-11T00:13:11.023Z</time>
      </trkpt>
      <trkpt lat="55.30085817910731" lon="12.439257195219398">
        <ele>35.71</ele>
        <time>2023-06-11T00:13:23.086Z</time>
      </trkpt>
      <trkpt lat="55.3012107219547" lon="12.439139680936933">
        <ele>36.16</ele>
        <time>2023-06-11T00:13:35.155Z</time>
      </trkpt>
      <trkpt lat="55.30123997479677" lon="12.439129957929254">
        <ele>36.2</ele>
        <time>2023-06-11T00:13:47.224Z</time>
      </trkpt>
      <trkpt lat="55.301656387746334" lon="12.439036248251796">
        <ele>36.91</ele>
        <time>2023-06-11T00:13:59.300Z</time>
      </trkpt>
      <trkpt lat="55.30183391645551" lon="12.4389963503927">
        <ele>37.24</ele>
        <time>2023-06-11T00:14:11.379Z</time>
      </trkpt>
      <trkpt lat="55.30214614234865" lon="12.43892602622509">
        <ele>37.9</ele>
        <time>2023-06-11T00:14:23.463Z</time>
      </trkpt>
      <trkpt lat="55.302413776516914" lon="12.438865844160318">
        <ele>38.38</ele>
        <time>2023-06-11T00:14:35.551Z</time>
      </trkpt>
      <trkpt lat="55.30243992805481" lon="12.438859976828098">
        <ele>38.42</ele>
        <time>2023-06-11T00:14:47.640Z</time>
      </trkpt>
      <trkpt lat="55.30254696495831" lon="12.438828209415078">
        <ele>38.6</ele>
        <time>2023-06-11T00:14:59.730Z</time>
      </trkpt>
      <trkpt lat="55.30267998576164" lon="12.43878873065114">
        <ele>38.76</ele>
        <time>2023-06-11T00:15:11.823Z</time>
      </trkpt>
      <trkpt lat="55.302768582478166" lon="12.438762411475182">
        <ele>38.84</ele>
        <time>2023-06-11T00:15:23.917Z</time>
      </trkpt>
      <trkpt lat="55.30307812616229" lon="12.438670545816422">
        <ele>38.98</ele>
        <time>2023-06-11T00:15:36.016Z</time>
      </trkpt>
      <trkpt lat="55.30347182415426" lon="12.438553618267179">
        <ele>39.08</ele>
        <time>2023-06-11T00:15:48.121Z</time>
      </trkpt>
      <trkpt lat="55.303603084757924" lon="12.43851464241743">
        <ele>38.95</ele>
        <time>2023-06-11T00:16:00.229Z</time>
      </trkpt>
      <trkpt lat="55.303719928488135" lon="12.4384799413383">
        <ele>38.88</ele>
        <time>2023-06-11T00:16:12.338Z</time>
      </trkpt>
      <trkpt lat="55.303866444155574" lon="12.438447419553995">
        <ele>38.81</ele>
        <time>2023-06-11T00:16:24.450Z</time>
      </trkpt>
      <trkpt lat="55.30435091815889" lon="12.43833971209824">
        <ele>38.76</ele>
        <time>2023-06-11T00:16:36.570Z</time>
      </trkpt>
      <trkpt lat="55.30448201112449" lon="12.438310626894236">
        <ele>38.8</ele>
        <time>2023-06-11T00:16:48.692Z</time>
      </trkpt>
      <trkpt lat="55.3047024551779" lon="12.438261592760682">
        <ele>38.94</ele>
        <time>2023-06-11T00:17:00.817Z</time>
      </trkpt>
      <trkpt lat="55.30479993671179" lon="12.4382399674505">
        <ele>38.98</ele>
        <time>2023-06-11T00:17:12.944Z</time>
      </trkpt>
      <trkpt lat="55.304965898394585" lon="12.438194788992405">
        <ele>39.07</ele>
        <time>2023-06-11T00:17:25.074Z</time>
      </trkpt>
      <trkpt lat="55.30527158640325" lon="12.438111640512943">
        <ele>39.16</ele>
        <time>2023-06-11T00:17:37.209Z</time>
      </trkpt>
      <trkpt lat="55.305579118430614" lon="12.438027989119291">
        <ele>39.3</ele>
        <time>2023-06-11T00:17:49.349Z</time>
      </trkpt>
      <trkpt lat="55.30601724050939" lon="12.43790871463716">
        <ele>39.45</ele>
        <time>2023-06-11T00:18:01.496Z</time>
      </trkpt>
      <trkpt lat="55.30614875257015" lon="12.437872923910618">
        <ele>39.45</ele>
        <time>2023-06-11T00:18:13.645Z</time>
      </trkpt>
      <trkpt lat="55.30623676255345" lon="12.437849035486579">
        <ele>39.42</ele>
        <time>2023-06-11T00:18:25.795Z</time>
      </trkpt>
      <trkpt lat="55.30626995489001" lon="12.437839983031154">
        <ele>39.39</ele>
        <time>2023-06-11T00:18:37.946Z</time>
      </trkpt>
      <trkpt lat="55.30663138255477" lon="12.437741998583078">
        <ele>39.17</ele>
        <time>2023-06-11T00:18:50.103Z</time>
      </trkpt>
      <trkpt lat="55.30680648051202" lon="12.437694557011127">
        <ele>39.08</ele>
        <time>2023-06-11T00:19:02.262Z</time>
      </trkpt>
      <trkpt lat="55.306850066408515" lon="12.437682738527656">
        <ele>39.04</ele>
        <time>2023-06-11T00:19:14.422Z</time>
      </trkpt>
      <trkpt lat="55.30693715438247" lon="12.437659185379744">
        <ele>38.92</ele>
        <time>2023-06-11T00:19:26.584Z</time>
      </trkpt>
      <trkpt lat="55.30719934031367" lon="12.437588106840849">
        <ele>38.46</ele>
        <time>2023-06-11T00:19:38.750Z</time>
      </trkpt>
      <trkpt lat="55.30763662420213" lon="12.437469670549035">
        <ele>37.63</ele>
        <time>2023-06-11T00:19:50.923Z</time>
      </trkpt>
      <trkpt lat="55.30789881013334" lon="12.43739859201014">
        <ele>37.02</ele>
        <time>2023-06-11T00:20:03.100Z</time>
      </trkpt>
      <trkpt lat="55.30811749398708" lon="12.437339331954718">
        <ele>36.48</ele>
        <time>2023-06-11T00:20:15.281Z</time>
      </trkpt>
      <trkpt lat="55.30837967991829" lon="12.437268253415823">
        <ele>35.88</ele>
        <time>2023-06-11T00:20:27.466Z</time>
      </trkpt>
      <trkpt lat="55.30881696380675" lon="12.43714981712401">
        <ele>34.7</ele>
        <time>2023-06-11T00:20:39.658Z</time>
      </trkpt>
      <trkpt lat="55.30890497379005" lon="12.43712592869997">
        <ele>34.48</ele>
        <time>2023-06-11T00:20:51.852Z</time>
      </trkpt>
      <trkpt lat="55.308992061764" lon="12.437102375552058">
        <ele>34.29</ele>
        <time>2023-06-11T00:21:04.047Z</time>
      </trkpt>
      <trkpt lat="55.309122735634446" lon="12.437066920101643">
        <ele>34.11</ele>
        <time>2023-06-11T00:21:16.244Z</time>
      </trkpt>
      <trkpt lat="55.309369917958975" lon="12.436999948695302">
        <ele>33.56</ele>
        <time>2023-06-11T00:21:28.445Z</time>
      </trkpt>
      <trkpt lat="55.30943269841373" lon="12.436980670318007">
        <ele>33.42</ele>
        <time>2023-06-11T00:21:40.647Z</time>
      </trkpt>
      <trkpt lat="55.30952129513025" lon="12.4369534291327">
        <ele>33.24</ele>
        <time>2023-06-11T00:21:52.851Z</time>
      </trkpt>
      <trkpt lat="55.309609891846776" lon="12.43692610412836">
        <ele>33.09</ele>
        <time>2023-06-11T00:22:05.056Z</time>
      </trkpt>
      <trkpt lat="55.30969756655395" lon="12.436899114400148">
        <ele>32.97</ele>
        <time>2023-06-11T00:22:17.262Z</time>
      </trkpt>
      <trkpt lat="55.309874759987" lon="12.436844632029533">
        <ele>32.81</ele>
        <time>2023-06-11T00:22:29.471Z</time>
      </trkpt>
      <trkpt lat="55.31000677496195" lon="12.436804063618183">
        <ele>32.76</ele>
        <time>2023-06-11T00:22:41.682Z</time>
      </trkpt>
      <trkpt lat="55.31009528785944" lon="12.436776738613844">
        <ele>32.8</ele>
        <time>2023-06-11T00:22:53.895Z</time>
      </trkpt>
      <trkpt lat="55.31014993786812" lon="12.4367599748075">
        <ele>32.84</ele>
        <time>2023-06-11T00:23:06.109Z</time>
      </trkpt>
      <trkpt lat="55.310226967558265" lon="12.436725609004498">
        <ele>32.92</ele>
        <time>2023-06-11T00:23:18.324Z</time>
      </trkpt>
      <trkpt lat="55.31035680323839" lon="12.436667690053582">
        <ele>33.11</ele>
        <time>2023-06-11T00:23:30.541Z</time>
      </trkpt>
      <trkpt lat="55.31061748042703" lon="12.436551349237561">
        <ele>33.54</ele>
        <time>2023-06-11T00:23:42.762Z</time>
      </trkpt>
      <trkpt lat="55.31070465222001" lon="12.436512457206845">
        <ele>33.64</ele>
        <time>2023-06-11T00:23:54.985Z</time>
      </trkpt>
      <trkpt lat="55.31087807379663" lon="12.436435092240572">
        <ele>33.78</ele>
        <time>2023-06-11T00:24:07.211Z</time>
      </trkpt>
      <trkpt lat="55.311178816482425" lon="12.436300897970796">
        <ele>33.98</ele>
        <time>2023-06-11T00:24:19.442Z</time>
      </trkpt>
      <trkpt lat="55.31156497076154" lon="12.43612864986062">
        <ele>34.03</ele>
        <time>2023-06-11T00:24:31.679Z</time>
      </trkpt>
      <trkpt lat="55.31195112504065" lon="12.435956401750445">
        <ele>33.94</ele>
        <time>2023-06-11T00:24:43.923Z</time>
      </trkpt>
      <trkpt lat="55.312037374824286" lon="12.435917844995856">
        <ele>33.89</ele>
        <time>2023-06-11T00:24:56.168Z</time>
      </trkpt>
      <trkpt lat="55.31220912002027" lon="12.435841234400868">
        <ele>33.75</ele>
        <time>2023-06-11T00:25:08.416Z</time>
      </trkpt>
      <trkpt lat="55.31229453161359" lon="12.43580318056047">
        <ele>33.72</ele>
        <time>2023-06-11T00:25:20.665Z</time>
      </trkpt>
      <trkpt lat="55.312508940696716" lon="12.43570745922625">
        <ele>33.71</ele>
        <time>2023-06-11T00:25:32.918Z</time>
      </trkpt>
      <trkpt lat="55.312637938186526" lon="12.435649959370494">
        <ele>33.6</ele>
        <time>2023-06-11T00:25:45.173Z</time>
      </trkpt>
      <trkpt lat="55.3127499204129" lon="12.43559991940856">
        <ele>33.53</ele>
        <time>2023-06-11T00:25:57.430Z</time>
      </trkpt>
      <trkpt lat="55.312766935676336" lon="12.435592208057642">
        <ele>33.53</ele>
        <time>2023-06-11T00:26:09.687Z</time>
      </trkpt>
      <trkpt lat="55.312938429415226" lon="12.435514004901052">
        <ele>33.51</ele>
        <time>2023-06-11T00:26:21.947Z</time>
      </trkpt>
      <trkpt lat="55.313324918970466" lon="12.435337733477354">
        <ele>33.39</ele>
        <time>2023-06-11T00:26:34.213Z</time>
      </trkpt>
      <trkpt lat="55.3136252425611" lon="12.435200773179531">
        <ele>33.38</ele>
        <time>2023-06-11T00:26:46.484Z</time>
      </trkpt>
      <trkpt lat="55.31392556615174" lon="12.435063812881708">
        <ele>33.33</ele>
        <time>2023-06-11T00:26:58.760Z</time>
      </trkpt>
      <trkpt lat="55.31401173211634" lon="12.435024501755834">
        <ele>33.33</ele>
        <time>2023-06-11T00:27:11.038Z</time>
      </trkpt>
      <trkpt lat="55.314269391819835" lon="12.434906987473369">
        <ele>33.41</ele>
        <time>2023-06-11T00:27:23.320Z</time>
      </trkpt>
      <trkpt lat="55.314569966867566" lon="12.434769943356514">
        <ele>33.47</ele>
        <time>2023-06-11T00:27:35.607Z</time>
      </trkpt>
      <trkpt lat="55.31461271457374" lon="12.434753179550171">
        <ele>33.48</ele>
        <time>2023-06-11T00:27:47.895Z</time>
      </trkpt>
      <trkpt lat="55.31482863239944" lon="12.434668522328138">
        <ele>33.59</ele>
        <time>2023-06-11T00:28:00.186Z</time>
      </trkpt>
      <trkpt lat="55.31500071287155" lon="12.434601048007607">
        <ele>33.53</ele>
        <time>2023-06-11T00:28:12.480Z</time>
      </trkpt>
      <trkpt lat="55.31507992185652" lon="12.434569951146841">
        <ele>33.52</ele>
        <time>2023-06-11T00:28:24.775Z</time>
      </trkpt>
      <trkpt lat="55.31521805562079" lon="12.434579841792583">
        <ele>33.52</ele>
        <time>2023-06-11T00:28:37.073Z</time>
      </trkpt>
      <trkpt lat="55.31549993902445" lon="12.434599958360195">
        <ele>33.57</ele>
        <time>2023-06-11T00:28:49.375Z</time>
      </trkpt>
      <trkpt lat="55.31583270058036" lon="12.43466466665268">
        <ele>33.64</ele>
        <time>2023-06-11T00:29:01.682Z</time>
      </trkpt>
      <trkpt lat="55.31596320681274" lon="12.43469006381929">
        <ele>33.7</ele>
        <time>2023-06-11T00:29:13.992Z</time>
      </trkpt>
      <trkpt lat="55.31605264171958" lon="12.434707414358854">
        <ele>33.67</ele>
        <time>2023-06-11T00:29:26.303Z</time>
      </trkpt>
      <trkpt lat="55.31614107079804" lon="12.434724597260356">
        <ele>33.68</ele>
        <time>2023-06-11T00:29:38.615Z</time>
      </trkpt>
      <trkpt lat="55.316219944506884" lon="12.43473993614316">
        <ele>33.71</ele>
        <time>2023-06-11T00:29:50.929Z</time>
      </trkpt>
      <trkpt lat="55.31636344268918" lon="12.434771284461021">
        <ele>33.79</ele>
        <time>2023-06-11T00:30:03.245Z</time>
      </trkpt>
      <trkpt lat="55.31658564694226" lon="12.434819815680385">
        <ele>33.96</ele>
        <time>2023-06-11T00:30:15.565Z</time>
      </trkpt>
      <trkpt lat="55.31671958975494" lon="12.434849068522453">
        <ele>34.0</ele>
        <time>2023-06-11T00:30:27.887Z</time>
      </trkpt>
      <trkpt lat="55.31694179400802" lon="12.434897599741817">
        <ele>33.99</ele>
        <time>2023-06-11T00:30:40.212Z</time>
      </trkpt>
      <trkpt lat="55.317163076251745" lon="12.434945963323116">
        <ele>33.91</ele>
        <time>2023-06-11T00:30:52.541Z</time>
      </trkpt>
      <trkpt lat="55.31725234352052" lon="12.434965409338474">
        <ele>33.86</ele>
        <time>2023-06-11T00:31:04.871Z</time>
      </trkpt>
      <trkpt lat="55.31742995604873" lon="12.435004217550159">
        <ele>33.68</ele>
        <time>2023-06-11T00:31:17.204Z</time>
      </trkpt>
      <trkpt lat="55.317652160301805" lon="12.435052748769522">
        <ele>33.49</ele>
        <time>2023-06-11T00:31:29.541Z</time>
      </trkpt>
      <trkpt lat="55.31778518110514" lon="12.435081750154495">
        <ele>33.35</ele>
        <time>2023-06-11T00:31:41.880Z</time>
      </trkpt>
      <trkpt lat="55.31809665262699" lon="12.435149811208248">
        <ele>32.89</ele>
        <time>2023-06-11T00:31:54.224Z</time>
      </trkpt>
      <trkpt lat="55.31831885688007" lon="12.435198342427611">
        <ele>32.6</ele>
        <time>2023-06-11T00:32:06.572Z</time>
      </trkpt>
      <trkpt lat="55.318629406392574" lon="12.435266152024269">
        <ele>32.23</ele>
        <time>2023-06-11T00:32:18.925Z</time>
      </trkpt>
      <trkpt lat="55.319163082167506" lon="12.435382744297385">
        <ele>31.44</ele>
        <time>2023-06-11T00:32:31.286Z</time>
      </trkpt>
      <trkpt lat="55.31929610297084" lon="12.435411745682359">
        <ele>31.27</ele>
        <time>2023-06-11T00:32:43.649Z</time>
      </trkpt>
      <trkpt lat="55.319385286420584" lon="12.435431275516748">
        <ele>31.18</ele>
        <time>2023-06-11T00:32:56.014Z</time>
      </trkpt>
      <trkpt lat="55.31947371549904" lon="12.435450553894043">
        <ele>31.12</ele>
        <time>2023-06-11T00:33:08.380Z</time>
      </trkpt>
      <trkpt lat="55.31965124420822" lon="12.435489362105727">
        <ele>31.05</ele>
        <time>2023-06-11T00:33:20.749Z</time>
      </trkpt>
      <trkpt lat="55.319785103201866" lon="12.435518531128764">
        <ele>31.03</ele>
        <time>2023-06-11T00:33:33.120Z</time>
      </trkpt>
      <trkpt lat="55.3200510609895" lon="12.435576617717743">
        <ele>31.06</ele>
        <time>2023-06-11T00:33:45.496Z</time>
      </trkpt>
      <trkpt lat="55.32018500380218" lon="12.435605870559812">
        <ele>31.05</ele>
        <time>2023-06-11T00:33:57.874Z</time>
      </trkpt>
      <trkpt lat="55.320274187251925" lon="12.435625400394201">
        <ele>31.08</ele>
        <time>2023-06-11T00:34:10.253Z</time>
      </trkpt>
      <trkpt lat="55.32045179978013" lon="12.435664124786854">
        <ele>31.18</ele>
        <time>2023-06-11T00:34:22.635Z</time>
      </trkpt>
      <trkpt lat="55.32067492604256" lon="12.435712907463312">
        <ele>31.36</ele>
        <time>2023-06-11T00:34:35.021Z</time>
      </trkpt>
      <trkpt lat="55.320808785036206" lon="12.435742076486349">
        <ele>31.45</ele>
        <time>2023-06-11T00:34:47.409Z</time>
      </trkpt>
      <trkpt lat="55.32103191129863" lon="12.435790859162807">
        <ele>31.54</ele>
        <time>2023-06-11T00:34:59.800Z</time>
      </trkpt>
      <trkpt lat="55.321210362017155" lon="12.435829835012555">
        <ele>31.65</ele>
        <time>2023-06-11T00:35:12.194Z</time>
      </trkpt>
      <trkpt lat="55.321344304829836" lon="12.435859087854624">
        <ele>31.65</ele>
        <time>2023-06-11T00:35:24.590Z</time>
      </trkpt>
      <trkpt lat="55.32170129008591" lon="12.435937039554119">
        <ele>31.53</ele>
        <time>2023-06-11T00:35:36.992Z</time>
      </trkpt>
      <trkpt lat="55.32183514907956" lon="12.435966292396188">
        <ele>31.44</ele>
        <time>2023-06-11T00:35:49.396Z</time>
      </trkpt>
      <trkpt lat="55.32219121232629" lon="12.436043992638588">
        <ele>31.07</ele>
        <time>2023-06-11T00:36:01.806Z</time>
      </trkpt>
      <trkpt lat="55.32245893031359" lon="12.436102498322725">
        <ele>30.85</ele>
        <time>2023-06-11T00:36:14.220Z</time>
      </trkpt>
      <trkpt lat="55.322548197582364" lon="12.436122028157115">
        <ele>30.76</ele>
        <time>2023-06-11T00:36:26.636Z</time>
      </trkpt>
      <trkpt lat="55.32299445010722" lon="12.436219425871968">
        <ele>30.19</ele>
        <time>2023-06-11T00:36:39.059Z</time>
      </trkpt>
      <trkpt lat="55.32317290082574" lon="12.436258401721716">
        <ele>30.03</ele>
        <time>2023-06-11T00:36:51.485Z</time>
      </trkpt>
      <trkpt lat="55.32330675981939" lon="12.436287654563785">
        <ele>29.97</ele>
        <time>2023-06-11T00:37:03.913Z</time>
      </trkpt>
      <trkpt lat="55.32348529435694" lon="12.436326630413532">
        <ele>29.95</ele>
        <time>2023-06-11T00:37:16.344Z</time>
      </trkpt>
      <trkpt lat="55.323663745075464" lon="12.43636560626328">
        <ele>29.99</ele>
        <time>2023-06-11T00:37:28.778Z</time>
      </trkpt>
      <trkpt lat="55.3237967658788" lon="12.436394691467285">
        <ele>30.06</ele>
        <time>2023-06-11T00:37:41.214Z</time>
      </trkpt>
      <trkpt lat="55.32392794266343" lon="12.4364232737571">
        <ele>29.98</ele>
        <time>2023-06-11T00:37:53.652Z</time>
      </trkpt>
      <trkpt lat="55.32401536591351" lon="12.436442384496331">
        <ele>30.0</ele>
        <time>2023-06-11T00:38:06.092Z</time>
      </trkpt>
      <trkpt lat="55.32404998317361" lon="12.436449928209186">
        <ele>30.01</ele>
        <time>2023-06-11T00:38:18.532Z</time>
      </trkpt>
      <trkpt lat="55.324235055595636" lon="12.436488317325711">
        <ele>30.12</ele>
        <time>2023-06-11T00:38:30.975Z</time>
      </trkpt>
      <trkpt lat="55.324672758579254" lon="12.436578841879964">
        <ele>30.16</ele>
        <time>2023-06-11T00:38:43.425Z</time>
      </trkpt>
      <trkpt lat="55.32502370886505" lon="12.436651512980461">
        <ele>30.11</ele>
        <time>2023-06-11T00:38:55.881Z</time>
      </trkpt>
      <trkpt lat="55.32528631389141" lon="12.436705911532044">
        <ele>30.15</ele>
        <time>2023-06-11T00:39:08.341Z</time>
      </trkpt>
      <trkpt lat="55.325461411848664" lon="12.436742121353745">
        <ele>30.14</ele>
        <time>2023-06-11T00:39:20.804Z</time>
      </trkpt>
      <trkpt lat="55.3256391081959" lon="12.436778917908669">
        <ele>29.98</ele>
        <time>2023-06-11T00:39:33.270Z</time>
      </trkpt>
      <trkpt lat="55.32572845928371" lon="12.436797441914678">
        <ele>29.94</ele>
        <time>2023-06-11T00:39:45.737Z</time>
      </trkpt>
      <trkpt lat="55.326217878609896" lon="12.43689869530499">
        <ele>29.99</ele>
        <time>2023-06-11T00:39:58.212Z</time>
      </trkpt>
      <trkpt lat="55.32639557495713" lon="12.436935491859913">
        <ele>29.95</ele>
        <time>2023-06-11T00:40:10.690Z</time>
      </trkpt>
      <trkpt lat="55.32657427713275" lon="12.436972539871931">
        <ele>29.84</ele>
        <time>2023-06-11T00:40:23.171Z</time>
      </trkpt>
      <trkpt lat="55.326929753646255" lon="12.437046049162745">
        <ele>29.55</ele>
        <time>2023-06-11T00:40:35.658Z</time>
      </trkpt>
      <trkpt lat="55.32701902091503" lon="12.437064573168755">
        <ele>29.49</ele>
        <time>2023-06-11T00:40:48.146Z</time>
      </trkpt>
      <trkpt lat="55.32710837200284" lon="12.437083097174764">
        <ele>29.39</ele>
        <time>2023-06-11T00:41:00.636Z</time>
      </trkpt>
      <trkpt lat="55.3271899279207" lon="12.437099944800138">
        <ele>29.25</ele>
        <time>2023-06-11T00:41:13.127Z</time>
      </trkpt>
      <trkpt lat="55.32746409997344" lon="12.437164820730686">
        <ele>28.81</ele>
        <time>2023-06-11T00:41:25.622Z</time>
      </trkpt>
      <trkpt lat="55.32764154486358" lon="12.437206814065576">
        <ele>28.55</ele>
        <time>2023-06-11T00:41:38.120Z</time>
      </trkpt>
      <trkpt lat="55.32781974412501" lon="12.43724905885756">
        <ele>28.31</ele>
        <time>2023-06-11T00:41:50.621Z</time>
      </trkpt>
      <trkpt lat="55.32817446626723" lon="12.437332961708307">
        <ele>27.87</ele>
        <time>2023-06-11T00:42:03.128Z</time>
      </trkpt>
      <trkpt lat="55.328308157622814" lon="12.437364645302296">
        <ele>27.77</ele>
        <time>2023-06-11T00:42:15.637Z</time>
      </trkpt>
      <trkpt lat="55.3284418489784" lon="12.437396245077252">
        <ele>27.71</ele>
        <time>2023-06-11T00:42:28.148Z</time>
      </trkpt>
      <trkpt lat="55.32875206321478" lon="12.437469670549035">
        <ele>27.73</ele>
        <time>2023-06-11T00:42:40.664Z</time>
      </trkpt>
      <trkpt lat="55.32887997105718" lon="12.437499929219484">
        <ele>27.49</ele>
        <time>2023-06-11T00:42:53.182Z</time>
      </trkpt>
      <trkpt lat="55.32894995994866" lon="12.437549969181418">
        <ele>27.34</ele>
        <time>2023-06-11T00:43:05.701Z</time>
      </trkpt>
      <trkpt lat="55.32898994162679" lon="12.43759992532432">
        <ele>27.25</ele>
        <time>2023-06-11T00:43:18.221Z</time>
      </trkpt>
      <trkpt lat="55.329021122306585" lon="12.437513256445527">
        <ele>27.15</ele>
        <time>2023-06-11T00:43:30.742Z</time>
      </trkpt>
      <trkpt lat="55.32906864769757" lon="12.437380906194448">
        <ele>27.01</ele>
        <time>2023-06-11T00:43:43.265Z</time>
      </trkpt>
      <trkpt lat="55.32911625690758" lon="12.437248639762402">
        <ele>26.9</ele>
        <time>2023-06-11T00:43:55.789Z</time>
      </trkpt>
      <trkpt lat="55.329187754541636" lon="12.437049485743046">
        <ele>26.78</ele>
        <time>2023-06-11T00:44:08.315Z</time>
      </trkpt>
      <trkpt lat="55.329219941049814" lon="12.436959967017174">
        <ele>26.74</ele>
        <time>2023-06-11T00:44:20.842Z</time>
      </trkpt>
      <trkpt lat="55.329255228862166" lon="12.436846056953073">
        <ele>26.7</ele>
        <time>2023-06-11T00:44:33.370Z</time>
      </trkpt>
      <trkpt lat="55.32931943424046" lon="12.43663927540183">
        <ele>26.64</ele>
        <time>2023-06-11T00:44:45.900Z</time>
      </trkpt>
      <trkpt lat="55.32936201430857" lon="12.436501812189817">
        <ele>26.63</ele>
        <time>2023-06-11T00:44:58.432Z</time>
      </trkpt>
      <trkpt lat="55.329447258263826" lon="12.436226969584823">
        <ele>26.63</ele>
        <time>2023-06-11T00:45:10.967Z</time>
      </trkpt>
      <trkpt lat="55.32951137982309" lon="12.43602018803358">
        <ele>26.65</ele>
        <time>2023-06-11T00:45:23.504Z</time>
      </trkpt>
      <trkpt lat="55.32961992546916" lon="12.435669992119074">
        <ele>26.75</ele>
        <time>2023-06-11T00:45:36.045Z</time>
      </trkpt>
      <trkpt lat="55.3296575602144" lon="12.435535630211234">
        <ele>26.8</ele>
        <time>2023-06-11T00:45:48.587Z</time>
      </trkpt>
      <trkpt lat="55.32975998707116" lon="12.43516992777586">
        <ele>26.88</ele>
        <time>2023-06-11T00:46:01.133Z</time>
      </trkpt>
      <trkpt lat="55.32975998707116" lon="12.43516992777586">
        <ele>26.88</ele>
        <time>2023-06-11T00:46:13.679Z</time>
      </trkpt>
      <trkpt lat="55.329799968749285" lon="12.43488997220993">
        <ele>26.99</ele>
        <time>2023-06-11T00:46:26.227Z</time>
      </trkpt>
      <trkpt lat="55.32980692572892" lon="12.434802884235978">
        <ele>27.03</ele>
        <time>2023-06-11T00:46:38.776Z</time>
      </trkpt>
      <trkpt lat="55.32982553355396" lon="12.434569615870714">
        <ele>27.07</ele>
        <time>2023-06-11T00:46:51.327Z</time>
      </trkpt>
      <trkpt lat="55.32987515442073" lon="12.433948097750545">
        <ele>27.09</ele>
        <time>2023-06-11T00:47:03.884Z</time>
      </trkpt>
      <trkpt lat="55.329949501901865" lon="12.43301653303206">
        <ele>27.02</ele>
        <time>2023-06-11T00:47:16.450Z</time>
      </trkpt>
      <trkpt lat="55.32998998649418" lon="12.432509930804372">
        <ele>27.06</ele>
        <time>2023-06-11T00:47:29.020Z</time>
      </trkpt>
      <trkpt lat="55.32998998649418" lon="12.432129979133606">
        <ele>27.08</ele>
        <time>2023-06-11T00:47:41.594Z</time>
      </trkpt>
      <trkpt lat="55.3299805149436" lon="12.432002909481525">
        <ele>27.1</ele>
        <time>2023-06-11T00:47:54.169Z</time>
      </trkpt>
      <trkpt lat="55.329963080585" lon="12.431769305840135">
        <ele>27.09</ele>
        <time>2023-06-11T00:48:06.746Z</time>
      </trkpt>
      <trkpt lat="55.32993994653225" lon="12.431459929794073">
        <ele>27.05</ele>
        <time>2023-06-11T00:48:19.326Z</time>
      </trkpt>
      <trkpt lat="55.32994003035128" lon="12.431459007784724">
        <ele>27.05</ele>
        <time>2023-06-11T00:48:31.906Z</time>
      </trkpt>
      <trkpt lat="55.329970037564635" lon="12.430990794673562">
        <ele>27.09</ele>
        <time>2023-06-11T00:48:44.490Z</time>
      </trkpt>
      <trkpt lat="55.32998487353325" lon="12.430758280679584">
        <ele>27.13</ele>
        <time>2023-06-11T00:48:57.076Z</time>
      </trkpt>
      <trkpt lat="55.33002988435328" lon="12.430056044831872">
        <ele>27.33</ele>
        <time>2023-06-11T00:49:09.669Z</time>
      </trkpt>
      <trkpt lat="55.330039858818054" lon="12.42990056052804">
        <ele>27.41</ele>
        <time>2023-06-11T00:49:22.263Z</time>
      </trkpt>
      <trkpt lat="55.33005486242473" lon="12.429666453972459">
        <ele>27.59</ele>
        <time>2023-06-11T00:49:34.859Z</time>
      </trkpt>
      <trkpt lat="55.33009350299835" lon="12.429063208401203">
        <ele>27.64</ele>
        <time>2023-06-11T00:49:47.461Z</time>
      </trkpt>
      <trkpt lat="55.330103142187" lon="12.428912334144115">
        <ele>27.67</ele>
        <time>2023-06-11T00:50:00.064Z</time>
      </trkpt>
      <trkpt lat="55.33011286519468" lon="12.42876154370606">
        <ele>27.73</ele>
        <time>2023-06-11T00:50:12.669Z</time>
      </trkpt>
      <trkpt lat="55.33014186657965" lon="12.42830908857286">
        <ele>28.06</ele>
        <time>2023-06-11T00:50:25.278Z</time>
      </trkpt>
      <trkpt lat="55.3301567863673" lon="12.428074982017279">
        <ele>28.34</ele>
        <time>2023-06-11T00:50:37.889Z</time>
      </trkpt>
      <trkpt lat="55.33016994595528" lon="12.427869960665703">
        <ele>28.55</ele>
        <time>2023-06-11T00:50:50.502Z</time>
      </trkpt>
      <trkpt lat="55.330152763053775" lon="12.427603751420975">
        <ele>28.83</ele>
        <time>2023-06-11T00:51:03.117Z</time>
      </trkpt>
      <trkpt lat="55.33014999702573" lon="12.42755999788642">
        <ele>28.88</ele>
        <time>2023-06-11T00:51:15.733Z</time>
      </trkpt>
      <trkpt lat="55.329926535487175" lon="12.426745193079114">
        <ele>30.08</ele>
        <time>2023-06-11T00:51:28.357Z</time>
      </trkpt>
      <trkpt lat="55.32988781109452" lon="12.426604209467769">
        <ele>30.27</ele>
        <time>2023-06-11T00:51:40.982Z</time>
      </trkpt>
      <trkpt lat="55.32983005978167" lon="12.426393404603004">
        <ele>30.51</ele>
        <time>2023-06-11T00:51:53.610Z</time>
      </trkpt>
      <trkpt lat="55.329770715907216" lon="12.426176983863115">
        <ele>30.71</ele>
        <time>2023-06-11T00:52:06.240Z</time>
      </trkpt>
      <trkpt lat="55.32971212640405" lon="12.425963412970304">
        <ele>30.86</ele>
        <time>2023-06-11T00:52:18.872Z</time>
      </trkpt>
      <trkpt lat="55.32967306673527" lon="12.42582100443542">
        <ele>30.98</ele>
        <time>2023-06-11T00:52:31.505Z</time>
      </trkpt>
      <trkpt lat="55.32955588772893" lon="12.425393778830767">
        <ele>31.43</ele>
        <time>2023-06-11T00:52:44.143Z</time>
      </trkpt>
      <trkpt lat="55.32951682806015" lon="12.425251370295882">
        <ele>31.56</ele>
        <time>2023-06-11T00:52:56.782Z</time>
      </trkpt>
      <trkpt lat="55.32924382947385" lon="12.42425593547523">
        <ele>32.33</ele>
        <time>2023-06-11T00:53:09.431Z</time>
      </trkpt>
      <trkpt lat="55.329185239970684" lon="12.424042280763388">
        <ele>32.55</ele>
        <time>2023-06-11T00:53:22.082Z</time>
      </trkpt>
      <trkpt lat="55.328970830887556" lon="12.423260500654578">
        <ele>33.43</ele>
        <time>2023-06-11T00:53:34.741Z</time>
      </trkpt>
      <trkpt lat="55.32879506237805" lon="12.422619620338082">
        <ele>34.05</ele>
        <time>2023-06-11T00:53:47.407Z</time>
      </trkpt>
      <trkpt lat="55.32875600270927" lon="12.422477211803198">
        <ele>34.15</ele>
        <time>2023-06-11T00:54:00.074Z</time>
      </trkpt>
      <trkpt lat="55.3286197129637" lon="12.421980248764157">
        <ele>34.43</ele>
        <time>2023-06-11T00:54:12.746Z</time>
      </trkpt>
      <trkpt lat="55.328509993851185" lon="12.421579929068685">
        <ele>34.8</ele>
        <time>2023-06-11T00:54:25.422Z</time>
      </trkpt>
      <trkpt lat="55.32849029637873" lon="12.421476664021611">
        <ele>34.9</ele>
        <time>2023-06-11T00:54:38.099Z</time>
      </trkpt>
      <trkpt lat="55.32843321561813" lon="12.421176843345165">
        <ele>35.1</ele>
        <time>2023-06-11T00:54:50.779Z</time>
      </trkpt>
      <trkpt lat="55.32838996499777" lon="12.420949945226312">
        <ele>35.27</ele>
        <time>2023-06-11T00:55:03.461Z</time>
      </trkpt>
      <trkpt lat="55.32838996499777" lon="12.420949945226312">
        <ele>35.27</ele>
        <time>2023-06-11T00:55:16.143Z</time>
      </trkpt>
      <trkpt lat="55.328388875350356" lon="12.420794041827321">
        <ele>35.35</ele>
        <time>2023-06-11T00:55:28.827Z</time>
      </trkpt>
      <trkpt lat="55.32838728278875" lon="12.4205585103482">
        <ele>35.41</ele>
        <time>2023-06-11T00:55:41.513Z</time>
      </trkpt>
      <trkpt lat="55.32838510349393" lon="12.42024234496057">
        <ele>35.43</ele>
        <time>2023-06-11T00:55:54.202Z</time>
      </trkpt>
      <trkpt lat="55.32837873324752" lon="12.419293848797679">
        <ele>35.25</ele>
        <time>2023-06-11T00:56:06.900Z</time>
      </trkpt>
      <trkpt lat="55.328377056866884" lon="12.419056724756956">
        <ele>35.25</ele>
        <time>2023-06-11T00:56:19.600Z</time>
      </trkpt>
      <trkpt lat="55.328376051038504" lon="12.418901827186346">
        <ele>35.28</ele>
        <time>2023-06-11T00:56:32.301Z</time>
      </trkpt>
      <trkpt lat="55.32837437465787" lon="12.418664703145623">
        <ele>35.37</ele>
        <time>2023-06-11T00:56:45.004Z</time>
      </trkpt>
      <trkpt lat="55.328371692448854" lon="12.418269496411085">
        <ele>35.61</ele>
        <time>2023-06-11T00:56:57.711Z</time>
      </trkpt>
      <trkpt lat="55.32837060280144" lon="12.418109904974699">
        <ele>35.65</ele>
        <time>2023-06-11T00:57:10.419Z</time>
      </trkpt>
      <trkpt lat="55.32836959697306" lon="12.417951822280884">
        <ele>35.66</ele>
        <time>2023-06-11T00:57:23.129Z</time>
      </trkpt>
      <trkpt lat="55.32836649566889" lon="12.417502887547016">
        <ele>35.45</ele>
        <time>2023-06-11T00:57:35.843Z</time>
      </trkpt>
      <trkpt lat="55.328362975269556" lon="12.416978012770414">
        <ele>35.3</ele>
        <time>2023-06-11T00:57:48.562Z</time>
      </trkpt>
      <trkpt lat="55.32836079597473" lon="12.416666625067592">
        <ele>35.35</ele>
        <time>2023-06-11T00:58:01.284Z</time>
      </trkpt>
      <trkpt lat="55.328359957784414" lon="12.41653997451067">
        <ele>35.35</ele>
        <time>2023-06-11T00:58:14.007Z</time>
      </trkpt>
      <trkpt lat="55.328465066850185" lon="12.41653997451067">
        <ele>35.35</ele>
        <time>2023-06-11T00:58:26.731Z</time>
      </trkpt>
      <trkpt lat="55.32851996831596" lon="12.41653997451067">
        <ele>35.33</ele>
        <time>2023-06-11T00:58:39.456Z</time>
      </trkpt>
      <trkpt lat="55.328749967738986" lon="12.416489934548736">
        <ele>35.25</ele>
        <time>2023-06-11T00:58:52.185Z</time>
      </trkpt>
      <trkpt lat="55.32877109013498" lon="12.416480211541057">
        <ele>35.25</ele>
        <time>2023-06-11T00:59:04.914Z</time>
      </trkpt>
      <trkpt lat="55.32900997437537" lon="12.416369989514351">
        <ele>35.21</ele>
        <time>2023-06-11T00:59:17.647Z</time>
      </trkpt>
      <trkpt lat="55.32922999933362" lon="12.416259935125709">
        <ele>35.19</ele>
        <time>2023-06-11T00:59:30.384Z</time>
      </trkpt>
      <trkpt lat="55.3293174225837" lon="12.41622288711369">
        <ele>35.18</ele>
        <time>2023-06-11T00:59:43.122Z</time>
      </trkpt>
      <trkpt lat="55.3295246232301" lon="12.416134960949421">
        <ele>35.19</ele>
        <time>2023-06-11T00:59:55.864Z</time>
      </trkpt>
      <trkpt lat="55.329559994861484" lon="12.416119957342744">
        <ele>35.19</ele>
        <time>2023-06-11T01:00:08.606Z</time>
      </trkpt>
      <trkpt lat="55.329848332330585" lon="12.415986433625221">
        <ele>35.27</ele>
        <time>2023-06-11T01:00:21.353Z</time>
      </trkpt>
      <trkpt lat="55.329982191324234" lon="12.415924407541752">
        <ele>35.33</ele>
        <time>2023-06-11T01:00:34.102Z</time>
      </trkpt>
      <trkpt lat="55.33042919822037" lon="12.415717374533415">
        <ele>35.58</ele>
        <time>2023-06-11T01:00:46.859Z</time>
      </trkpt>
      <trkpt lat="55.33080227673054" lon="12.41554462350905">
        <ele>35.88</ele>
        <time>2023-06-11T01:00:59.622Z</time>
      </trkpt>
      <trkpt lat="55.33097536303103" lon="12.41546449251473">
        <ele>35.94</ele>
        <time>2023-06-11T01:01:12.388Z</time>
      </trkpt>
      <trkpt lat="55.331049961969256" lon="12.415429959073663">
        <ele>35.99</ele>
        <time>2023-06-11T01:01:25.155Z</time>
      </trkpt>
      <trkpt lat="55.33119128085673" lon="12.415366508066654">
        <ele>36.09</ele>
        <time>2023-06-11T01:01:37.924Z</time>
      </trkpt>
      <trkpt lat="55.3313656244427" lon="12.415288304910064">
        <ele>36.18</ele>
        <time>2023-06-11T01:01:50.696Z</time>
      </trkpt>
      <trkpt lat="55.33158170990646" lon="12.415191326290369">
        <ele>36.26</ele>
        <time>2023-06-11T01:02:03.472Z</time>
      </trkpt>
      <trkpt lat="55.331711545586586" lon="12.415133072063327">
        <ele>36.26</ele>
        <time>2023-06-11T01:02:16.250Z</time>
      </trkpt>
      <trkpt lat="55.3318299818784" lon="12.41507993079722">
        <ele>36.28</ele>
        <time>2023-06-11T01:02:29.030Z</time>
      </trkpt>
      <trkpt lat="55.33201530575752" lon="12.414994183927774">
        <ele>36.32</ele>
        <time>2023-06-11T01:02:41.813Z</time>
      </trkpt>
      <trkpt lat="55.33214572817087" lon="12.41493383422494">
        <ele>36.37</ele>
        <time>2023-06-11T01:02:54.598Z</time>
      </trkpt>
      <trkpt lat="55.332362316548824" lon="12.414833586663008">
        <ele>36.49</ele>
        <time>2023-06-11T01:03:07.387Z</time>
      </trkpt>
      <trkpt lat="55.33275190740824" lon="12.414653208106756">
        <ele>36.74</ele>
        <time>2023-06-11T01:03:20.182Z</time>
      </trkpt>
      <trkpt lat="55.33301191404462" lon="12.414532843977213">
        <ele>36.89</ele>
        <time>2023-06-11T01:03:32.982Z</time>
      </trkpt>
      <trkpt lat="55.33309891819954" lon="12.41449261084199">
        <ele>36.97</ele>
        <time>2023-06-11T01:03:45.783Z</time>
      </trkpt>
      <trkpt lat="55.33331458456814" lon="12.414392782375216">
        <ele>37.23</ele>
        <time>2023-06-11T01:03:58.588Z</time>
      </trkpt>
      <trkpt lat="55.333445090800524" lon="12.414332432672381">
        <ele>37.36</ele>
        <time>2023-06-11T01:04:11.395Z</time>
      </trkpt>
      <trkpt lat="55.333579955622554" lon="12.414269987493753">
        <ele>37.46</ele>
        <time>2023-06-11T01:04:24.204Z</time>
      </trkpt>
      <trkpt lat="55.333579955622554" lon="12.414269987493753">
        <ele>37.46</ele>
        <time>2023-06-11T01:04:37.013Z</time>
      </trkpt>
      <trkpt lat="55.33369998447597" lon="12.414209973067045">
        <ele>37.52</ele>
        <time>2023-06-11T01:04:49.824Z</time>
      </trkpt>
      <trkpt lat="55.33382537774742" lon="12.414102433249354">
        <ele>37.6</ele>
        <time>2023-06-11T01:05:02.637Z</time>
      </trkpt>
      <trkpt lat="55.333839962258935" lon="12.414089944213629">
        <ele>37.61</ele>
        <time>2023-06-11T01:05:15.451Z</time>
      </trkpt>
      <trkpt lat="55.33401363529265" lon="12.413889616727829">
        <ele>37.77</ele>
        <time>2023-06-11T01:05:28.268Z</time>
      </trkpt>
      <trkpt lat="55.3340888209641" lon="12.413802864030004">
        <ele>37.82</ele>
        <time>2023-06-11T01:05:41.086Z</time>
      </trkpt>
      <trkpt lat="55.33427523449063" lon="12.41358770057559">
        <ele>37.89</ele>
        <time>2023-06-11T01:05:53.908Z</time>
      </trkpt>
      <trkpt lat="55.3343599755317" lon="12.41348996758461">
        <ele>37.88</ele>
        <time>2023-06-11T01:06:06.732Z</time>
      </trkpt>
      <trkpt lat="55.33445687033236" lon="12.413355270400643">
        <ele>37.88</ele>
        <time>2023-06-11T01:06:19.558Z</time>
      </trkpt>
      <trkpt lat="55.33452736213803" lon="12.413257202133536">
        <ele>37.85</ele>
        <time>2023-06-11T01:06:32.385Z</time>
      </trkpt>
      <trkpt lat="55.33459793776274" lon="12.41315913386643">
        <ele>37.76</ele>
        <time>2023-06-11T01:06:45.213Z</time>
      </trkpt>
      <trkpt lat="55.33470304682851" lon="12.413012953475118">
        <ele>37.56</ele>
        <time>2023-06-11T01:06:58.044Z</time>
      </trkpt>
      <trkpt lat="55.33476993441582" lon="12.412919998168945">
        <ele>37.39</ele>
        <time>2023-06-11T01:07:10.876Z</time>
      </trkpt>
      <trkpt lat="55.334911085665226" lon="12.41271355189383">
        <ele>37.03</ele>
        <time>2023-06-11T01:07:23.711Z</time>
      </trkpt>
      <trkpt lat="55.335152400657535" lon="12.412360673770308">
        <ele>36.48</ele>
        <time>2023-06-11T01:07:36.551Z</time>
      </trkpt>
      <trkpt lat="55.335290702059865" lon="12.412158502265811">
        <ele>36.13</ele>
        <time>2023-06-11T01:07:49.394Z</time>
      </trkpt>
      <trkpt lat="55.335462195798755" lon="12.411907715722919">
        <ele>35.65</ele>
        <time>2023-06-11T01:08:02.240Z</time>
      </trkpt>
      <trkpt lat="55.33573804423213" lon="12.411504294723272">
        <ele>34.83</ele>
        <time>2023-06-11T01:08:15.092Z</time>
      </trkpt>
      <trkpt lat="55.33594482578337" lon="12.411201959475875">
        <ele>34.28</ele>
        <time>2023-06-11T01:08:27.948Z</time>
      </trkpt>
      <trkpt lat="55.33618614077568" lon="12.410849081352353">
        <ele>33.56</ele>
        <time>2023-06-11T01:08:40.809Z</time>
      </trkpt>
      <trkpt lat="55.33642737194896" lon="12.410496287047863">
        <ele>32.95</ele>
        <time>2023-06-11T01:08:53.676Z</time>
      </trkpt>
      <trkpt lat="55.33656433224678" lon="12.410296043381095">
        <ele>32.57</ele>
        <time>2023-06-11T01:09:06.545Z</time>
      </trkpt>
      <trkpt lat="55.336633482947946" lon="12.410194957628846">
        <ele>32.41</ele>
        <time>2023-06-11T01:09:19.416Z</time>
      </trkpt>
      <trkpt lat="55.336759965866804" lon="12.41000996902585">
        <ele>32.15</ele>
        <time>2023-06-11T01:09:32.289Z</time>
      </trkpt>
      <trkpt lat="55.336771700531244" lon="12.409992702305317">
        <ele>32.13</ele>
        <time>2023-06-11T01:09:45.163Z</time>
      </trkpt>
      <trkpt lat="55.33697831444442" lon="12.409690031781793">
        <ele>31.63</ele>
        <time>2023-06-11T01:09:58.041Z</time>
      </trkpt>
      <trkpt lat="55.33711653202772" lon="12.4094876088202">
        <ele>31.33</ele>
        <time>2023-06-11T01:10:10.922Z</time>
      </trkpt>
      <trkpt lat="55.337185598909855" lon="12.40938643924892">
        <ele>31.2</ele>
        <time>2023-06-11T01:10:23.804Z</time>
      </trkpt>
      <trkpt lat="55.33746127970517" lon="12.408982515335083">
        <ele>30.75</ele>
        <time>2023-06-11T01:10:36.692Z</time>
      </trkpt>
      <trkpt lat="55.337908286601305" lon="12.40832763724029">
        <ele>30.19</ele>
        <time>2023-06-11T01:10:49.589Z</time>
      </trkpt>
      <trkpt lat="55.33811557106674" lon="12.408023960888386">
        <ele>30.06</ele>
        <time>2023-06-11T01:11:02.491Z</time>
      </trkpt>
      <trkpt lat="55.33835671842098" lon="12.407670747488737">
        <ele>29.83</ele>
        <time>2023-06-11T01:11:15.398Z</time>
      </trkpt>
      <trkpt lat="55.338562577962875" lon="12.407369082793593">
        <ele>29.7</ele>
        <time>2023-06-11T01:11:28.309Z</time>
      </trkpt>
      <trkpt lat="55.33869660459459" lon="12.407172694802284">
        <ele>29.54</ele>
        <time>2023-06-11T01:11:41.223Z</time>
      </trkpt>
      <trkpt lat="55.338759971782565" lon="12.407079990953207">
        <ele>29.45</ele>
        <time>2023-06-11T01:11:54.138Z</time>
      </trkpt>
      <trkpt lat="55.33892534673214" lon="12.406825516372919">
        <ele>29.22</ele>
        <time>2023-06-11T01:12:07.057Z</time>
      </trkpt>
      <trkpt lat="55.33908845856786" lon="12.406574562191963">
        <ele>29.01</ele>
        <time>2023-06-11T01:12:19.979Z</time>
      </trkpt>
      <trkpt lat="55.33918862231076" lon="12.406420418992639">
        <ele>28.83</ele>
        <time>2023-06-11T01:12:32.903Z</time>
      </trkpt>
      <trkpt lat="55.33927998505533" lon="12.406279938295484">
        <ele>28.68</ele>
        <time>2023-06-11T01:12:45.829Z</time>
      </trkpt>
      <trkpt lat="55.33944963477552" lon="12.40613023750484">
        <ele>28.47</ele>
        <time>2023-06-11T01:12:58.758Z</time>
      </trkpt>
      <trkpt lat="55.339619955047965" lon="12.405979949980974">
        <ele>28.27</ele>
        <time>2023-06-11T01:13:11.690Z</time>
      </trkpt>
      <trkpt lat="55.33969304524362" lon="12.405945835635066">
        <ele>28.2</ele>
        <time>2023-06-11T01:13:24.624Z</time>
      </trkpt>
      <trkpt lat="55.339769991114736" lon="12.405909961089492">
        <ele>28.13</ele>
        <time>2023-06-11T01:13:37.559Z</time>
      </trkpt>
      <trkpt lat="55.33986931666732" lon="12.405904261395335">
        <ele>28.05</ele>
        <time>2023-06-11T01:13:50.496Z</time>
      </trkpt>
      <trkpt lat="55.34011993557215" lon="12.405889928340912">
        <ele>27.94</ele>
        <time>2023-06-11T01:14:03.437Z</time>
      </trkpt>
      <trkpt lat="55.34012454561889" lon="12.405890179798007">
        <ele>27.94</ele>
        <time>2023-06-11T01:14:16.378Z</time>
      </trkpt>
      <trkpt lat="55.3404382802546" lon="12.40590644069016">
        <ele>27.65</ele>
        <time>2023-06-11T01:14:29.324Z</time>
      </trkpt>
      <trkpt lat="55.34061354584992" lon="12.405915493145585">
        <ele>27.55</ele>
        <time>2023-06-11T01:14:42.272Z</time>
      </trkpt>
      <trkpt lat="55.34069996327162" lon="12.405919935554266">
        <ele>27.51</ele>
        <time>2023-06-11T01:14:55.222Z</time>
      </trkpt>
      <trkpt lat="55.34078998491168" lon="12.40594994276762">
        <ele>27.48</ele>
        <time>2023-06-11T01:15:08.173Z</time>
      </trkpt>
      <trkpt lat="55.34078998491168" lon="12.40594994276762">
        <ele>27.48</ele>
        <time>2023-06-11T01:15:21.124Z</time>
      </trkpt>
      <trkpt lat="55.34092225134373" lon="12.40594994276762">
        <ele>27.39</ele>
        <time>2023-06-11T01:15:34.077Z</time>
      </trkpt>
      <trkpt lat="55.340949995443225" lon="12.40594994276762">
        <ele>27.38</ele>
        <time>2023-06-11T01:15:47.031Z</time>
      </trkpt>
      <trkpt lat="55.341039933264256" lon="12.405929993838072">
        <ele>27.35</ele>
        <time>2023-06-11T01:15:59.986Z</time>
      </trkpt>
      <trkpt lat="55.341079998761415" lon="12.405879953876138">
        <ele>27.33</ele>
        <time>2023-06-11T01:16:12.942Z</time>
      </trkpt>
      <trkpt lat="55.34113992936909" lon="12.405759925022721">
        <ele>27.3</ele>
        <time>2023-06-11T01:16:25.900Z</time>
      </trkpt>
      <trkpt lat="55.341152250766754" lon="12.405725559219718">
        <ele>27.3</ele>
        <time>2023-06-11T01:16:38.858Z</time>
      </trkpt>
      <trkpt lat="55.34127705730498" lon="12.405376033857465">
        <ele>27.29</ele>
        <time>2023-06-11T01:16:51.820Z</time>
      </trkpt>
      <trkpt lat="55.34128996543586" lon="12.405339991673827">
        <ele>27.29</ele>
        <time>2023-06-11T01:17:04.782Z</time>
      </trkpt>
      <trkpt lat="55.34140890464187" lon="12.404987784102559">
        <ele>27.29</ele>
        <time>2023-06-11T01:17:17.748Z</time>
      </trkpt>
      <trkpt lat="55.34153253771365" lon="12.404621997848153">
        <ele>27.32</ele>
        <time>2023-06-11T01:17:30.718Z</time>
      </trkpt>
      <trkpt lat="55.34153999760747" lon="12.404599953442812">
        <ele>27.32</ele>
        <time>2023-06-11T01:17:43.688Z</time>
      </trkpt>
      <trkpt lat="55.34163295291364" lon="12.404403313994408">
        <ele>27.35</ele>
        <time>2023-06-11T01:17:56.660Z</time>
      </trkpt>
      <trkpt lat="55.3417525626719" lon="12.40415034815669">
        <ele>27.42</ele>
        <time>2023-06-11T01:18:09.635Z</time>
      </trkpt>
      <trkpt lat="55.34180721268058" lon="12.404034845530987">
        <ele>27.4</ele>
        <time>2023-06-11T01:18:22.612Z</time>
      </trkpt>
      <trkpt lat="55.34186362288892" lon="12.40391573868692">
        <ele>27.4</ele>
        <time>2023-06-11T01:18:35.590Z</time>
      </trkpt>
      <trkpt lat="55.34188994206488" lon="12.403859999030828">
        <ele>27.41</ele>
        <time>2023-06-11T01:18:48.569Z</time>
      </trkpt>
      <trkpt lat="55.34196998924017" lon="12.403769977390766">
        <ele>27.45</ele>
        <time>2023-06-11T01:19:01.549Z</time>
      </trkpt>
      <trkpt lat="55.34196998924017" lon="12.403769977390766">
        <ele>27.45</ele>
        <time>2023-06-11T01:19:14.529Z</time>
      </trkpt>
      <trkpt lat="55.342049952596426" lon="12.403739970177412">
        <ele>27.51</ele>
        <time>2023-06-11T01:19:27.511Z</time>
      </trkpt>
      <trkpt lat="55.342049952596426" lon="12.403739970177412">
        <ele>27.51</ele>
        <time>2023-06-11T01:19:40.493Z</time>
      </trkpt>
      <trkpt lat="55.34213997423649" lon="12.403769977390766">
        <ele>27.6</ele>
        <time>2023-06-11T01:19:53.476Z</time>
      </trkpt>
      <trkpt lat="55.342342145740986" lon="12.403887156397104">
        <ele>27.83</ele>
        <time>2023-06-11T01:20:06.462Z</time>
      </trkpt>
      <trkpt lat="55.34250701777637" lon="12.40398271009326">
        <ele>28.08</ele>
        <time>2023-06-11T01:20:19.451Z</time>
      </trkpt>
      <trkpt lat="55.34267012961209" lon="12.404077257961035">
        <ele>28.24</ele>
        <time>2023-06-11T01:20:32.443Z</time>
      </trkpt>
      <trkpt lat="55.34295544959605" lon="12.404242549091578">
        <ele>28.71</ele>
        <time>2023-06-11T01:20:45.440Z</time>
      </trkpt>
      <trkpt lat="55.34301999025047" lon="12.404279932379723">
        <ele>28.78</ele>
        <time>2023-06-11T01:20:58.438Z</time>
      </trkpt>
      <trkpt lat="55.34303700551391" lon="12.404286805540323">
        <ele>28.8</ele>
        <time>2023-06-11T01:21:11.436Z</time>
      </trkpt>
      <trkpt lat="55.34316323697567" lon="12.404337264597416">
        <ele>28.89</ele>
        <time>2023-06-11T01:21:24.436Z</time>
      </trkpt>
      <trkpt lat="55.343419974669814" lon="12.404439942911267">
        <ele>29.4</ele>
        <time>2023-06-11T01:21:37.440Z</time>
      </trkpt>
      <trkpt lat="55.343419974669814" lon="12.404439942911267">
        <ele>29.4</ele>
        <time>2023-06-11T01:21:50.444Z</time>
      </trkpt>
      <trkpt lat="55.343589624390006" lon="12.40449040196836">
        <ele>29.78</ele>
        <time>2023-06-11T01:22:03.451Z</time>
      </trkpt>
      <trkpt lat="55.34371820278466" lon="12.404528623446822">
        <ele>30.09</ele>
        <time>2023-06-11T01:22:16.460Z</time>
      </trkpt>
      <trkpt lat="55.343789951875806" lon="12.40454999729991">
        <ele>30.27</ele>
        <time>2023-06-11T01:22:29.470Z</time>
      </trkpt>
      <trkpt lat="55.34389120526612" lon="12.404533736407757">
        <ele>30.54</ele>
        <time>2023-06-11T01:22:42.482Z</time>
      </trkpt>
      <trkpt lat="55.34419479779899" lon="12.404485205188394">
        <ele>31.41</ele>
        <time>2023-06-11T01:22:55.499Z</time>
      </trkpt>
      <trkpt lat="55.34445455297828" lon="12.404443630948663">
        <ele>32.06</ele>
        <time>2023-06-11T01:23:08.520Z</time>
      </trkpt>
      <trkpt lat="55.34454231150448" lon="12.404429549351335">
        <ele>32.12</ele>
        <time>2023-06-11T01:23:21.543Z</time>
      </trkpt>
      <trkpt lat="55.34463007003069" lon="12.404415551573038">
        <ele>32.21</ele>
        <time>2023-06-11T01:23:34.567Z</time>
      </trkpt>
      <trkpt lat="55.344718750566244" lon="12.404401386156678">
        <ele>32.34</ele>
        <time>2023-06-11T01:23:47.592Z</time>
      </trkpt>
      <trkpt lat="55.344852190464735" lon="12.40438001230359">
        <ele>32.57</ele>
        <time>2023-06-11T01:24:00.620Z</time>
      </trkpt>
      <trkpt lat="55.34494087100029" lon="12.40436584688723">
        <ele>32.69</ele>
        <time>2023-06-11T01:24:13.649Z</time>
      </trkpt>
      <trkpt lat="55.34503994509578" lon="12.404349921271205">
        <ele>32.51</ele>
        <time>2023-06-11T01:24:26.680Z</time>
      </trkpt>
      <trkpt lat="55.34507246688008" lon="12.404370289295912">
        <ele>32.46</ele>
        <time>2023-06-11T01:24:39.711Z</time>
      </trkpt>
      <trkpt lat="55.345119992271066" lon="12.404399961233139">
        <ele>32.36</ele>
        <time>2023-06-11T01:24:52.743Z</time>
      </trkpt>
      <trkpt lat="55.34517992287874" lon="12.404479924589396">
        <ele>32.22</ele>
        <time>2023-06-11T01:25:05.776Z</time>
      </trkpt>
      <trkpt lat="55.345295844599605" lon="12.40421924740076">
        <ele>31.87</ele>
        <time>2023-06-11T01:25:18.812Z</time>
      </trkpt>
      <trkpt lat="55.34533993341029" lon="12.404119921848178">
        <ele>31.76</ele>
        <time>2023-06-11T01:25:31.849Z</time>
      </trkpt>
      <trkpt lat="55.345350075513124" lon="12.404093267396092">
        <ele>31.74</ele>
        <time>2023-06-11T01:25:44.887Z</time>
      </trkpt>
      <trkpt lat="55.34544906578958" lon="12.403832841664553">
        <ele>31.52</ele>
        <time>2023-06-11T01:25:57.928Z</time>
      </trkpt>
      <trkpt lat="55.34549902193248" lon="12.403701329603791">
        <ele>31.36</ele>
        <time>2023-06-11T01:26:10.970Z</time>
      </trkpt>
      <trkpt lat="55.345548978075385" lon="12.40356981754303">
        <ele>31.16</ele>
        <time>2023-06-11T01:26:24.013Z</time>
      </trkpt>
      <trkpt lat="55.34567336551845" lon="12.40324242040515">
        <ele>30.59</ele>
        <time>2023-06-11T01:26:37.060Z</time>
      </trkpt>
      <trkpt lat="55.34599715843797" lon="12.402390232309699">
        <ele>29.32</ele>
        <time>2023-06-11T01:26:50.116Z</time>
      </trkpt>
      <trkpt lat="55.34612154588103" lon="12.402062751352787">
        <ele>28.92</ele>
        <time>2023-06-11T01:27:03.176Z</time>
      </trkpt>
      <trkpt lat="55.34624652005732" lon="12.4017340131104">
        <ele>28.6</ele>
        <time>2023-06-11T01:27:16.240Z</time>
      </trkpt>
      <trkpt lat="55.34629547037184" lon="12.401605183258653">
        <ele>28.51</ele>
        <time>2023-06-11T01:27:29.305Z</time>
      </trkpt>
      <trkpt lat="55.346569726243615" lon="12.400883166119456">
        <ele>28.14</ele>
        <time>2023-06-11T01:27:42.378Z</time>
      </trkpt>
      <trkpt lat="55.3466947004199" lon="12.400554427877069">
        <ele>28.01</ele>
        <time>2023-06-11T01:27:55.455Z</time>
      </trkpt>
      <trkpt lat="55.34686854109168" lon="12.400096775963902">
        <ele>27.88</ele>
        <time>2023-06-11T01:28:08.537Z</time>
      </trkpt>
      <trkpt lat="55.34709292463958" lon="12.3995063547045">
        <ele>27.62</ele>
        <time>2023-06-11T01:28:21.625Z</time>
      </trkpt>
      <trkpt lat="55.3472422901541" lon="12.399113159626722">
        <ele>27.51</ele>
        <time>2023-06-11T01:28:34.717Z</time>
      </trkpt>
      <trkpt lat="55.34744161181152" lon="12.398588452488184">
        <ele>27.41</ele>
        <time>2023-06-11T01:28:47.815Z</time>
      </trkpt>
      <trkpt lat="55.347541105002165" lon="12.398326769471169">
        <ele>27.41</ele>
        <time>2023-06-11T01:29:00.916Z</time>
      </trkpt>
      <trkpt lat="55.34768996760249" lon="12.397934831678867">
        <ele>27.28</ele>
        <time>2023-06-11T01:29:14.021Z</time>
      </trkpt>
      <trkpt lat="55.347739923745394" lon="12.397803319618106">
        <ele>27.21</ele>
        <time>2023-06-11T01:29:27.128Z</time>
      </trkpt>
      <trkpt lat="55.3478638920933" lon="12.397477179765701">
        <ele>26.99</ele>
        <time>2023-06-11T01:29:40.238Z</time>
      </trkpt>
      <trkpt lat="55.3479138482362" lon="12.39734566770494">
        <ele>26.92</ele>
        <time>2023-06-11T01:29:53.350Z</time>
      </trkpt>
      <trkpt lat="55.34808768890798" lon="12.396888099610806">
        <ele>26.72</ele>
        <time>2023-06-11T01:30:06.467Z</time>
      </trkpt>
      <trkpt lat="55.348211573436856" lon="12.396561959758401">
        <ele>26.63</ele>
        <time>2023-06-11T01:30:19.587Z</time>
      </trkpt>
      <trkpt lat="55.34821995534003" lon="12.396539999172091">
        <ele>26.61</ele>
        <time>2023-06-11T01:30:32.708Z</time>
      </trkpt>
      <trkpt lat="55.34843998029828" lon="12.396029960364103">
        <ele>26.33</ele>
        <time>2023-06-11T01:30:45.834Z</time>
      </trkpt>
      <trkpt lat="55.34851759672165" lon="12.395881433039904">
        <ele>26.25</ele>
        <time>2023-06-11T01:30:58.962Z</time>
      </trkpt>
      <trkpt lat="55.34882001578808" lon="12.395302578806877">
        <ele>25.96</ele>
        <time>2023-06-11T01:31:12.097Z</time>
      </trkpt>
      <trkpt lat="55.34901992417872" lon="12.394919944927096">
        <ele>25.67</ele>
        <time>2023-06-11T01:31:25.237Z</time>
      </trkpt>
      <trkpt lat="55.34912687726319" lon="12.394728921353817">
        <ele>25.53</ele>
        <time>2023-06-11T01:31:38.380Z</time>
      </trkpt>
      <trkpt lat="55.34931547008455" lon="12.39439188502729">
        <ele>25.24</ele>
        <time>2023-06-11T01:31:51.527Z</time>
      </trkpt>
      <trkpt lat="55.34948998130858" lon="12.394079994410276">
        <ele>25.03</ele>
        <time>2023-06-11T01:32:04.678Z</time>
      </trkpt>
      <trkpt lat="55.349651919677854" lon="12.3937610629946">
        <ele>24.84</ele>
        <time>2023-06-11T01:32:17.833Z</time>
      </trkpt>
      <trkpt lat="55.34983104094863" lon="12.393408352509141">
        <ele>24.71</ele>
        <time>2023-06-11T01:32:30.992Z</time>
      </trkpt>
      <trkpt lat="55.35000957548618" lon="12.393056731671095">
        <ele>24.54</ele>
        <time>2023-06-11T01:32:44.155Z</time>
      </trkpt>
      <trkpt lat="55.35006950609386" lon="12.392938798293471">
        <ele>24.45</ele>
        <time>2023-06-11T01:32:57.320Z</time>
      </trkpt>
      <trkpt lat="55.350277964025736" lon="12.39252825267613">
        <ele>24.04</ele>
        <time>2023-06-11T01:33:10.490Z</time>
      </trkpt>
      <trkpt lat="55.35042716190219" lon="12.392234550788999">
        <ele>23.81</ele>
        <time>2023-06-11T01:33:23.664Z</time>
      </trkpt>
      <trkpt lat="55.35045993514359" lon="12.392169926315546">
        <ele>23.77</ele>
        <time>2023-06-11T01:33:36.838Z</time>
      </trkpt>
      <trkpt lat="55.35052187740803" lon="12.392068170011044">
        <ele>23.71</ele>
        <time>2023-06-11T01:33:50.014Z</time>
      </trkpt>
      <trkpt lat="55.35075129009783" lon="12.391691403463483">
        <ele>23.6</ele>
        <time>2023-06-11T01:34:03.195Z</time>
      </trkpt>
      <trkpt lat="55.350879952311516" lon="12.391479928046465">
        <ele>23.51</ele>
        <time>2023-06-11T01:34:16.379Z</time>
      </trkpt>
      <trkpt lat="55.35116225481033" lon="12.391084721311927">
        <ele>23.35</ele>
        <time>2023-06-11T01:34:29.568Z</time>
      </trkpt>
      <trkpt lat="55.35126711241901" lon="12.390937954187393">
        <ele>23.32</ele>
        <time>2023-06-11T01:34:42.759Z</time>
      </trkpt>
      <trkpt lat="55.35157992504537" lon="12.39049999974668">
        <ele>23.32</ele>
        <time>2023-06-11T01:34:55.957Z</time>
      </trkpt>
      <trkpt lat="55.351582020521164" lon="12.39049606025219">
        <ele>23.32</ele>
        <time>2023-06-11T01:35:09.155Z</time>
      </trkpt>
      <trkpt lat="55.35170355811715" lon="12.390265055000782">
        <ele>23.36</ele>
        <time>2023-06-11T01:35:22.356Z</time>
      </trkpt>
      <trkpt lat="55.351779917255044" lon="12.390119964256883">
        <ele>23.4</ele>
        <time>2023-06-11T01:35:35.559Z</time>
      </trkpt>
      <trkpt lat="55.35181017592549" lon="12.390015693381429">
        <ele>23.43</ele>
        <time>2023-06-11T01:35:48.763Z</time>
      </trkpt>
      <trkpt lat="55.35187144763768" lon="12.389804301783442">
        <ele>23.45</ele>
        <time>2023-06-11T01:36:01.969Z</time>
      </trkpt>
      <trkpt lat="55.35197999328375" lon="12.389429965987802">
        <ele>23.36</ele>
        <time>2023-06-11T01:36:15.179Z</time>
      </trkpt>
      <trkpt lat="55.351990051567554" lon="12.389381937682629">
        <ele>23.36</ele>
        <time>2023-06-11T01:36:28.389Z</time>
      </trkpt>
      <trkpt lat="55.35210999660194" lon="12.388809956610203">
        <ele>23.3</ele>
        <time>2023-06-11T01:36:41.605Z</time>
      </trkpt>
      <trkpt lat="55.35215014591813" lon="12.388646425679326">
        <ele>23.29</ele>
        <time>2023-06-11T01:36:54.822Z</time>
      </trkpt>
      <trkpt lat="55.35225994884968" lon="12.388199921697378">
        <ele>23.17</ele>
        <time>2023-06-11T01:37:08.044Z</time>
      </trkpt>
      <trkpt lat="55.35225994884968" lon="12.388199921697378">
        <ele>23.17</ele>
        <time>2023-06-11T01:37:21.266Z</time>
      </trkpt>
      <trkpt lat="55.35234661772847" lon="12.38794008269906">
        <ele>23.13</ele>
        <time>2023-06-11T01:37:34.491Z</time>
      </trkpt>
      <trkpt lat="55.3524143435061" lon="12.387736737728119">
        <ele>23.12</ele>
        <time>2023-06-11T01:37:47.718Z</time>
      </trkpt>
      <trkpt lat="55.35254987888038" lon="12.387330047786236">
        <ele>23.16</ele>
        <time>2023-06-11T01:38:00.949Z</time>
      </trkpt>
      <trkpt lat="55.352769987657666" lon="12.386669972911477">
        <ele>23.16</ele>
        <time>2023-06-11T01:38:14.187Z</time>
      </trkpt>
      <trkpt lat="55.35277443006635" lon="12.386648850515485">
        <ele>23.16</ele>
        <time>2023-06-11T01:38:27.425Z</time>
      </trkpt>
      <trkpt lat="55.35288289189339" lon="12.38614090718329">
        <ele>23.18</ele>
        <time>2023-06-11T01:38:40.668Z</time>
      </trkpt>
      <trkpt lat="55.35302236676216" lon="12.385487873107195">
        <ele>23.31</ele>
        <time>2023-06-11T01:38:53.918Z</time>
      </trkpt>
      <trkpt lat="55.353115322068334" lon="12.385052433237433">
        <ele>23.43</ele>
        <time>2023-06-11T01:39:07.172Z</time>
      </trkpt>
      <trkpt lat="55.35314633511007" lon="12.384907342493534">
        <ele>23.43</ele>
        <time>2023-06-11T01:39:20.427Z</time>
      </trkpt>
      <trkpt lat="55.35319277085364" lon="12.38468966446817">
        <ele>23.35</ele>
        <time>2023-06-11T01:39:33.684Z</time>
      </trkpt>
      <trkpt lat="55.353270219638944" lon="12.384326811879873">
        <ele>23.11</ele>
        <time>2023-06-11T01:39:46.945Z</time>
      </trkpt>
      <trkpt lat="55.353316739201546" lon="12.384109133854508">
        <ele>22.99</ele>
        <time>2023-06-11T01:40:00.208Z</time>
      </trkpt>
      <trkpt lat="55.35340969450772" lon="12.383673777803779">
        <ele>22.87</ele>
        <time>2023-06-11T01:40:13.475Z</time>
      </trkpt>
      <trkpt lat="55.35347197204828" lon="12.383382003754377">
        <ele>22.77</ele>
        <time>2023-06-11T01:40:26.745Z</time>
      </trkpt>
      <trkpt lat="55.353565849363804" lon="12.382942205294967">
        <ele>22.48</ele>
        <time>2023-06-11T01:40:40.019Z</time>
      </trkpt>
      <trkpt lat="55.35365981049836" lon="12.382502323016524">
        <ele>22.3</ele>
        <time>2023-06-11T01:40:53.298Z</time>
      </trkpt>
      <trkpt lat="55.353706581518054" lon="12.38228322006762">
        <ele>22.28</ele>
        <time>2023-06-11T01:41:06.579Z</time>
      </trkpt>
      <trkpt lat="55.35374999977648" lon="12.38207995891571">
        <ele>22.29</ele>
        <time>2023-06-11T01:41:19.862Z</time>
      </trkpt>
      <trkpt lat="55.35381428897381" lon="12.38168659619987">
        <ele>22.31</ele>
        <time>2023-06-11T01:41:33.148Z</time>
      </trkpt>
      <trkpt lat="55.35383993759751" lon="12.381529938429594">
        <ele>22.29</ele>
        <time>2023-06-11T01:41:46.436Z</time>
      </trkpt>
      <trkpt lat="55.35383993759751" lon="12.3814588598907">
        <ele>22.29</ele>
        <time>2023-06-11T01:41:59.725Z</time>
      </trkpt>
      <trkpt lat="55.35383993759751" lon="12.381239924579859">
        <ele>22.29</ele>
        <time>2023-06-11T01:42:13.016Z</time>
      </trkpt>
      <trkpt lat="55.35381873138249" lon="12.381155015900731">
        <ele>22.29</ele>
        <time>2023-06-11T01:42:26.307Z</time>
      </trkpt>
      <trkpt lat="55.35380993038416" lon="12.381119979545474">
        <ele>22.29</ele>
        <time>2023-06-11T01:42:39.599Z</time>
      </trkpt>
      <trkpt lat="55.35375997424126" lon="12.381019983440638">
        <ele>22.31</ele>
        <time>2023-06-11T01:42:52.892Z</time>
      </trkpt>
      <trkpt lat="55.353689985349774" lon="12.380969943478703">
        <ele>22.34</ele>
        <time>2023-06-11T01:43:06.186Z</time>
      </trkpt>
      <trkpt lat="55.35368587821722" lon="12.380969105288386">
        <ele>22.34</ele>
        <time>2023-06-11T01:43:19.480Z</time>
      </trkpt>
      <trkpt lat="55.35355377942324" lon="12.380940774455667">
        <ele>22.43</ele>
        <time>2023-06-11T01:43:32.776Z</time>
      </trkpt>
      <trkpt lat="55.35346535034478" lon="12.380921831354499">
        <ele>22.53</ele>
        <time>2023-06-11T01:43:46.074Z</time>
      </trkpt>
      <trkpt lat="55.35340994596481" lon="12.380909929051995">
        <ele>22.61</ele>
        <time>2023-06-11T01:43:59.373Z</time>
      </trkpt>
      <trkpt lat="55.353332832455635" lon="12.380902050063014">
        <ele>22.73</ele>
        <time>2023-06-11T01:44:12.673Z</time>
      </trkpt>
      <trkpt lat="55.353287905454636" lon="12.38089744001627">
        <ele>22.77</ele>
        <time>2023-06-11T01:44:25.974Z</time>
      </trkpt>
      <trkpt lat="55.353243900462985" lon="12.380892913788557">
        <ele>22.78</ele>
        <time>2023-06-11T01:44:39.275Z</time>
      </trkpt>
      <trkpt lat="55.35315505228937" lon="12.3808837775141">
        <ele>22.68</ele>
        <time>2023-06-11T01:44:52.578Z</time>
      </trkpt>
      <trkpt lat="55.353111047297716" lon="12.38087933510542">
        <ele>22.58</ele>
        <time>2023-06-11T01:45:05.882Z</time>
      </trkpt>
      <trkpt lat="55.35301993601024" lon="12.380869947373867">
        <ele>22.34</ele>
        <time>2023-06-11T01:45:19.187Z</time>
      </trkpt>
      <trkpt lat="55.35295992158353" lon="12.380819991230965">
        <ele>22.17</ele>
        <time>2023-06-11T01:45:32.493Z</time>
      </trkpt>
      <trkpt lat="55.35292999818921" lon="12.380719995126128">
        <ele>22.01</ele>
        <time>2023-06-11T01:45:45.800Z</time>
      </trkpt>
      <trkpt lat="55.35292991437018" lon="12.38071957603097">
        <ele>22.01</ele>
        <time>2023-06-11T01:45:59.107Z</time>
      </trkpt>
      <trkpt lat="55.35292421467602" lon="12.380564929917455">
        <ele>21.83</ele>
        <time>2023-06-11T01:46:12.416Z</time>
      </trkpt>
      <trkpt lat="55.352919939905405" lon="12.380449930205941">
        <ele>21.72</ele>
        <time>2023-06-11T01:46:25.726Z</time>
      </trkpt>
      <trkpt lat="55.35292002372444" lon="12.380408523604274">
        <ele>21.69</ele>
        <time>2023-06-11T01:46:39.036Z</time>
      </trkpt>
      <trkpt lat="55.352920442819595" lon="12.380253542214632">
        <ele>21.58</ele>
        <time>2023-06-11T01:46:52.347Z</time>
      </trkpt>
      <trkpt lat="55.352921448647976" lon="12.379861185327172">
        <ele>21.37</ele>
        <time>2023-06-11T01:47:05.662Z</time>
      </trkpt>
      <trkpt lat="55.35292228683829" lon="12.379549629986286">
        <ele>21.17</ele>
        <time>2023-06-11T01:47:18.980Z</time>
      </trkpt>
      <trkpt lat="55.352922873571515" lon="12.379315523430705">
        <ele>21.05</ele>
        <time>2023-06-11T01:47:32.300Z</time>
      </trkpt>
      <trkpt lat="55.35292413085699" lon="12.378844125196338">
        <ele>20.88</ele>
        <time>2023-06-11T01:47:45.624Z</time>
      </trkpt>
      <trkpt lat="55.35292471759021" lon="12.378605240955949">
        <ele>20.81</ele>
        <time>2023-06-11T01:47:58.950Z</time>
      </trkpt>
      <trkpt lat="55.35292513668537" lon="12.378447074443102">
        <ele>20.81</ele>
        <time>2023-06-11T01:48:12.278Z</time>
      </trkpt>
      <trkpt lat="55.35292656160891" lon="12.377894958481193">
        <ele>20.88</ele>
        <time>2023-06-11T01:48:25.611Z</time>
      </trkpt>
      <trkpt lat="55.35292698070407" lon="12.377736791968346">
        <ele>20.86</ele>
        <time>2023-06-11T01:48:38.945Z</time>
      </trkpt>
      <trkpt lat="55.352927818894386" lon="12.377420458942652">
        <ele>20.76</ele>
        <time>2023-06-11T01:48:52.282Z</time>
      </trkpt>
      <trkpt lat="55.35292882472277" lon="12.377025000751019">
        <ele>20.56</ele>
        <time>2023-06-11T01:49:05.623Z</time>
      </trkpt>
      <trkpt lat="55.35292941145599" lon="12.376790894195437">
        <ele>20.5</ele>
        <time>2023-06-11T01:49:18.966Z</time>
      </trkpt>
      <trkpt lat="55.35292999818921" lon="12.37657992169261">
        <ele>20.41</ele>
        <time>2023-06-11T01:49:32.311Z</time>
      </trkpt>
      <trkpt lat="55.35294843837619" lon="12.376005593687296">
        <ele>20.17</ele>
        <time>2023-06-11T01:49:45.661Z</time>
      </trkpt>
      <trkpt lat="55.3529635258019" lon="12.375534949824214">
        <ele>20.03</ele>
        <time>2023-06-11T01:49:59.016Z</time>
      </trkpt>
      <trkpt lat="55.352976098656654" lon="12.375143263489008">
        <ele>19.86</ele>
        <time>2023-06-11T01:50:12.374Z</time>
      </trkpt>
      <trkpt lat="55.35298858769238" lon="12.374753169715405">
        <ele>19.68</ele>
        <time>2023-06-11T01:50:25.736Z</time>
      </trkpt>
      <trkpt lat="55.35299998708069" lon="12.374399956315756">
        <ele>19.45</ele>
        <time>2023-06-11T01:50:39.101Z</time>
      </trkpt>
      <trkpt lat="55.35303242504597" lon="12.374211698770523">
        <ele>19.33</ele>
        <time>2023-06-11T01:50:52.468Z</time>
      </trkpt>
      <trkpt lat="55.353049943223596" lon="12.37410994246602">
        <ele>19.27</ele>
        <time>2023-06-11T01:51:05.836Z</time>
      </trkpt>
      <trkpt lat="55.353102749213576" lon="12.37392327748239">
        <ele>19.17</ele>
        <time>2023-06-11T01:51:19.206Z</time>
      </trkpt>
      <trkpt lat="55.35326183773577" lon="12.373361019417644">
        <ele>19.02</ele>
        <time>2023-06-11T01:51:32.581Z</time>
      </trkpt>
      <trkpt lat="55.353400809690356" lon="12.372869588434696">
        <ele>18.83</ele>
        <time>2023-06-11T01:51:45.961Z</time>
      </trkpt>
      <trkpt lat="55.35361957736313" lon="12.372096357867122">
        <ele>18.66</ele>
        <time>2023-06-11T01:51:59.349Z</time>
      </trkpt>
      <trkpt lat="55.3537785820663" lon="12.371534099802375">
        <ele>18.46</ele>
        <time>2023-06-11T01:52:12.743Z</time>
      </trkpt>
      <trkpt lat="55.35387757234275" lon="12.371184239163995">
        <ele>18.39</ele>
        <time>2023-06-11T01:52:26.141Z</time>
      </trkpt>
      <trkpt lat="55.35397656261921" lon="12.370834462344646">
        <ele>18.28</ele>
        <time>2023-06-11T01:52:39.542Z</time>
      </trkpt>
      <trkpt lat="55.35409550182521" lon="12.370413774624467">
        <ele>18.25</ele>
        <time>2023-06-11T01:52:52.947Z</time>
      </trkpt>
      <trkpt lat="55.35415442660451" lon="12.370205568149686">
        <ele>18.27</ele>
        <time>2023-06-11T01:53:06.354Z</time>
      </trkpt>
      <trkpt lat="55.35439280793071" lon="12.369362935423851">
        <ele>18.51</ele>
        <time>2023-06-11T01:53:19.770Z</time>
      </trkpt>
      <trkpt lat="55.35449129529297" lon="12.36901449970901">
        <ele>18.67</ele>
        <time>2023-06-11T01:53:33.190Z</time>
      </trkpt>
      <trkpt lat="55.35459070466459" lon="12.368663297966123">
        <ele>18.87</ele>
        <time>2023-06-11T01:53:46.613Z</time>
      </trkpt>
      <trkpt lat="55.35480863414705" lon="12.367892833426595">
        <ele>19.43</ele>
        <time>2023-06-11T01:54:00.044Z</time>
      </trkpt>
      <trkpt lat="55.354867558926344" lon="12.367684626951814">
        <ele>19.56</ele>
        <time>2023-06-11T01:54:13.477Z</time>
      </trkpt>
      <trkpt lat="55.35489999689162" lon="12.367569962516427">
        <ele>19.59</ele>
        <time>2023-06-11T01:54:26.911Z</time>
      </trkpt>
      <trkpt lat="55.354930087924004" lon="12.367474492639303">
        <ele>19.62</ele>
        <time>2023-06-11T01:54:40.346Z</time>
      </trkpt>
      <trkpt lat="55.354994628578424" lon="12.367269722744823">
        <ele>19.64</ele>
        <time>2023-06-11T01:54:53.783Z</time>
      </trkpt>
      <trkpt lat="55.35512421280146" lon="12.366858841851354">
        <ele>19.59</ele>
        <time>2023-06-11T01:55:07.225Z</time>
      </trkpt>
      <trkpt lat="55.35521054640412" lon="12.366584921255708">
        <ele>19.52</ele>
        <time>2023-06-11T01:55:20.670Z</time>
      </trkpt>
      <trkpt lat="55.35524994134903" lon="12.36645994707942">
        <ele>19.47</ele>
        <time>2023-06-11T01:55:34.116Z</time>
      </trkpt>
      <trkpt lat="55.35531020723283" lon="12.366324663162231">
        <ele>19.42</ele>
        <time>2023-06-11T01:55:47.564Z</time>
      </trkpt>
      <trkpt lat="55.35542001016438" lon="12.366078067570925">
        <ele>19.28</ele>
        <time>2023-06-11T01:56:01.014Z</time>
      </trkpt>
      <trkpt lat="55.35558530129492" lon="12.36570700071752">
        <ele>19.02</ele>
        <time>2023-06-11T01:56:14.469Z</time>
      </trkpt>
      <trkpt lat="55.355860479176044" lon="12.365089254453778">
        <ele>18.77</ele>
        <time>2023-06-11T01:56:27.931Z</time>
      </trkpt>
      <trkpt lat="55.356025686487556" lon="12.364718187600374">
        <ele>18.51</ele>
        <time>2023-06-11T01:56:41.397Z</time>
      </trkpt>
      <trkpt lat="55.356136076152325" lon="12.364470334723592">
        <ele>18.39</ele>
        <time>2023-06-11T01:56:54.866Z</time>
      </trkpt>
      <trkpt lat="55.356218721717596" lon="12.364284843206406">
        <ele>18.35</ele>
        <time>2023-06-11T01:57:08.337Z</time>
      </trkpt>
      <trkpt lat="55.35630136728287" lon="12.364099267870188">
        <ele>18.36</ele>
        <time>2023-06-11T01:57:21.810Z</time>
      </trkpt>
      <trkpt lat="55.35638401284814" lon="12.36391369253397">
        <ele>18.41</ele>
        <time>2023-06-11T01:57:35.285Z</time>
      </trkpt>
      <trkpt lat="55.356521559879184" lon="12.36360490322113">
        <ele>18.54</ele>
        <time>2023-06-11T01:57:48.764Z</time>
      </trkpt>
      <trkpt lat="55.356604205444455" lon="12.363419327884912">
        <ele>18.57</ele>
        <time>2023-06-11T01:58:02.245Z</time>
      </trkpt>
      <trkpt lat="55.356714008376" lon="12.363172732293606">
        <ele>18.53</ele>
        <time>2023-06-11T01:58:15.729Z</time>
      </trkpt>
      <trkpt lat="55.356879299506545" lon="12.362801665440202">
        <ele>18.42</ele>
        <time>2023-06-11T01:58:29.217Z</time>
      </trkpt>
      <trkpt lat="55.35693420097232" lon="12.362678367644548">
        <ele>18.37</ele>
        <time>2023-06-11T01:58:42.707Z</time>
      </trkpt>
      <trkpt lat="55.357072334736586" lon="12.362368237227201">
        <ele>18.21</ele>
        <time>2023-06-11T01:58:56.200Z</time>
      </trkpt>
      <trkpt lat="55.35715498030186" lon="12.362182745710015">
        <ele>18.08</ele>
        <time>2023-06-11T01:59:09.696Z</time>
      </trkpt>
      <trkpt lat="55.35720988176763" lon="12.362059447914362">
        <ele>17.94</ele>
        <time>2023-06-11T01:59:23.193Z</time>
      </trkpt>
      <trkpt lat="55.35737517289817" lon="12.361688297241926">
        <ele>17.46</ele>
        <time>2023-06-11T01:59:36.694Z</time>
      </trkpt>
      <trkpt lat="55.35743007436395" lon="12.361564999446273">
        <ele>17.32</ele>
        <time>2023-06-11T01:59:50.197Z</time>
      </trkpt>
      <trkpt lat="55.35748497582972" lon="12.361441785469651">
        <ele>17.21</ele>
        <time>2023-06-11T02:00:03.701Z</time>
      </trkpt>
      <trkpt lat="55.35814614035189" lon="12.359957350417972">
        <ele>16.49</ele>
        <time>2023-06-11T02:00:17.222Z</time>
      </trkpt>
      <trkpt lat="55.35822878591716" lon="12.359771775081754">
        <ele>16.44</ele>
        <time>2023-06-11T02:00:30.745Z</time>
      </trkpt>
      <trkpt lat="55.35836633294821" lon="12.359462901949883">
        <ele>16.39</ele>
        <time>2023-06-11T02:00:44.272Z</time>
      </trkpt>
      <trkpt lat="55.35850387997925" lon="12.359154112637043">
        <ele>16.26</ele>
        <time>2023-06-11T02:00:57.803Z</time>
      </trkpt>
      <trkpt lat="55.358586525544524" lon="12.358968537300825">
        <ele>16.21</ele>
        <time>2023-06-11T02:01:11.336Z</time>
      </trkpt>
      <trkpt lat="55.3586414270103" lon="12.358845239505172">
        <ele>16.21</ele>
        <time>2023-06-11T02:01:24.870Z</time>
      </trkpt>
      <trkpt lat="55.35872407257557" lon="12.358659747987986">
        <ele>16.25</ele>
        <time>2023-06-11T02:01:38.406Z</time>
      </trkpt>
      <trkpt lat="55.35883446224034" lon="12.358411895111203">
        <ele>16.26</ele>
        <time>2023-06-11T02:01:51.945Z</time>
      </trkpt>
      <trkpt lat="55.35888936370611" lon="12.35828859731555">
        <ele>16.3</ele>
        <time>2023-06-11T02:02:05.486Z</time>
      </trkpt>
      <trkpt lat="55.35891995765269" lon="12.358219949528575">
        <ele>16.26</ele>
        <time>2023-06-11T02:02:19.027Z</time>
      </trkpt>
      <trkpt lat="55.35900997929275" lon="12.358069997280836">
        <ele>16.18</ele>
        <time>2023-06-11T02:02:32.570Z</time>
      </trkpt>
      <trkpt lat="55.35908994264901" lon="12.358009982854128">
        <ele>16.13</ele>
        <time>2023-06-11T02:02:46.115Z</time>
      </trkpt>
      <trkpt lat="55.35913998261094" lon="12.358029931783676">
        <ele>16.1</ele>
        <time>2023-06-11T02:02:59.661Z</time>
      </trkpt>
      <trkpt lat="55.35918088629842" lon="12.358070835471153">
        <ele>16.07</ele>
        <time>2023-06-11T02:03:13.207Z</time>
      </trkpt>
      <trkpt lat="55.35922992043197" lon="12.358119953423738">
        <ele>16.05</ele>
        <time>2023-06-11T02:03:26.754Z</time>
      </trkpt>
      <trkpt lat="55.3592559043318" lon="12.358157085254788">
        <ele>16.05</ele>
        <time>2023-06-11T02:03:40.302Z</time>
      </trkpt>
      <trkpt lat="55.35932564176619" lon="12.358256997540593">
        <ele>16.06</ele>
        <time>2023-06-11T02:03:53.851Z</time>
      </trkpt>
      <trkpt lat="55.35943024791777" lon="12.3584068659693">
        <ele>16.15</ele>
        <time>2023-06-11T02:04:07.402Z</time>
      </trkpt>
      <trkpt lat="55.35967365838587" lon="12.358755469322205">
        <ele>16.51</ele>
        <time>2023-06-11T02:04:20.959Z</time>
      </trkpt>
      <trkpt lat="55.35981313325465" lon="12.358955293893814">
        <ele>16.74</ele>
        <time>2023-06-11T02:04:34.518Z</time>
      </trkpt>
      <trkpt lat="55.359882870689034" lon="12.359055206179619">
        <ele>16.83</ele>
        <time>2023-06-11T02:04:48.079Z</time>
      </trkpt>
      <trkpt lat="55.35995260812342" lon="12.359155034646392">
        <ele>16.88</ele>
        <time>2023-06-11T02:05:01.641Z</time>
      </trkpt>
      <trkpt lat="55.35996995866299" lon="12.359179928898811">
        <ele>16.88</ele>
        <time>2023-06-11T02:05:15.204Z</time>
      </trkpt>
      <trkpt lat="55.360029973089695" lon="12.359209936112165">
        <ele>16.89</ele>
        <time>2023-06-11T02:05:28.768Z</time>
      </trkpt>
      <trkpt lat="55.3600899875164" lon="12.359189987182617">
        <ele>16.9</ele>
        <time>2023-06-11T02:05:42.333Z</time>
      </trkpt>
      <trkpt lat="55.36014991812408" lon="12.359139947220683">
        <ele>16.91</ele>
        <time>2023-06-11T02:05:55.899Z</time>
      </trkpt>
      <trkpt lat="55.36018998362124" lon="12.359079932793975">
        <ele>16.92</ele>
        <time>2023-06-11T02:06:09.466Z</time>
      </trkpt>
      <trkpt lat="55.360212782397866" lon="12.359003573656082">
        <ele>16.93</ele>
        <time>2023-06-11T02:06:23.033Z</time>
      </trkpt>
      <trkpt lat="55.36037966609001" lon="12.358444668352604">
        <ele>17.09</ele>
        <time>2023-06-11T02:06:36.606Z</time>
      </trkpt>
      <trkpt lat="55.360503466799855" lon="12.35803009942174">
        <ele>17.45</ele>
        <time>2023-06-11T02:06:50.183Z</time>
      </trkpt>
      <trkpt lat="55.36060715094209" lon="12.357682753354311">
        <ele>17.65</ele>
        <time>2023-06-11T02:07:03.764Z</time>
      </trkpt>
      <trkpt lat="55.360648138448596" lon="12.357545457780361">
        <ele>17.7</ele>
        <time>2023-06-11T02:07:17.346Z</time>
      </trkpt>
      <trkpt lat="55.36068954505026" lon="12.357406821101904">
        <ele>17.72</ele>
        <time>2023-06-11T02:07:30.930Z</time>
      </trkpt>
      <trkpt lat="55.36073103547096" lon="12.357268100604415">
        <ele>17.71</ele>
        <time>2023-06-11T02:07:44.515Z</time>
      </trkpt>
      <trkpt lat="55.36079289391637" lon="12.357060816138983">
        <ele>17.67</ele>
        <time>2023-06-11T02:07:58.102Z</time>
      </trkpt>
      <trkpt lat="55.360979894176126" lon="12.356434687972069">
        <ele>17.59</ele>
        <time>2023-06-11T02:08:11.696Z</time>
      </trkpt>
      <trkpt lat="55.36102130077779" lon="12.356296051293612">
        <ele>17.55</ele>
        <time>2023-06-11T02:08:25.291Z</time>
      </trkpt>
      <trkpt lat="55.36112540401518" lon="12.355947280302644">
        <ele>17.39</ele>
        <time>2023-06-11T02:08:38.890Z</time>
      </trkpt>
      <trkpt lat="55.36118776537478" lon="12.355738570913672">
        <ele>17.33</ele>
        <time>2023-06-11T02:08:52.491Z</time>
      </trkpt>
      <trkpt lat="55.361457914114" lon="12.354833744466305">
        <ele>17.29</ele>
        <time>2023-06-11T02:09:06.101Z</time>
      </trkpt>
      <trkpt lat="55.36158255301416" lon="12.354416325688362">
        <ele>17.37</ele>
        <time>2023-06-11T02:09:19.716Z</time>
      </trkpt>
      <trkpt lat="55.36185278557241" lon="12.353511499240994">
        <ele>17.79</ele>
        <time>2023-06-11T02:09:33.340Z</time>
      </trkpt>
      <trkpt lat="55.361915063112974" lon="12.353302789852023">
        <ele>17.82</ele>
        <time>2023-06-11T02:09:46.966Z</time>
      </trkpt>
      <trkpt lat="55.36197742447257" lon="12.353094080463052">
        <ele>17.79</ele>
        <time>2023-06-11T02:10:00.594Z</time>
      </trkpt>
      <trkpt lat="55.36201841197908" lon="12.352956868708134">
        <ele>17.83</ele>
        <time>2023-06-11T02:10:14.224Z</time>
      </trkpt>
      <trkpt lat="55.36205898039043" lon="12.352820998057723">
        <ele>17.84</ele>
        <time>2023-06-11T02:10:27.855Z</time>
      </trkpt>
      <trkpt lat="55.36209954880178" lon="12.352685127407312">
        <ele>17.8</ele>
        <time>2023-06-11T02:10:41.487Z</time>
      </trkpt>
      <trkpt lat="55.36216056905687" lon="12.352480608969927">
        <ele>17.7</ele>
        <time>2023-06-11T02:10:55.122Z</time>
      </trkpt>
      <trkpt lat="55.36222167313099" lon="12.352276090532541">
        <ele>17.55</ele>
        <time>2023-06-11T02:11:08.759Z</time>
      </trkpt>
      <trkpt lat="55.36230322904885" lon="12.352003008127213">
        <ele>17.3</ele>
        <time>2023-06-11T02:11:22.399Z</time>
      </trkpt>
      <trkpt lat="55.36238436587155" lon="12.351731266826391">
        <ele>17.08</ele>
        <time>2023-06-11T02:11:36.041Z</time>
      </trkpt>
      <trkpt lat="55.36250649020076" lon="12.35132222995162">
        <ele>16.7</ele>
        <time>2023-06-11T02:11:49.688Z</time>
      </trkpt>
      <trkpt lat="55.36254705861211" lon="12.35118635930121">
        <ele>16.62</ele>
        <time>2023-06-11T02:12:03.336Z</time>
      </trkpt>
      <trkpt lat="55.36264873109758" lon="12.350846054032445">
        <ele>16.46</ele>
        <time>2023-06-11T02:12:16.987Z</time>
      </trkpt>
      <trkpt lat="55.362690556794405" lon="12.350705908611417">
        <ele>16.31</ele>
        <time>2023-06-11T02:12:30.640Z</time>
      </trkpt>
      <trkpt lat="55.36273196339607" lon="12.35056727193296">
        <ele>16.19</ele>
        <time>2023-06-11T02:12:44.294Z</time>
      </trkpt>
      <trkpt lat="55.36276993341744" lon="12.350439950823784">
        <ele>16.1</ele>
        <time>2023-06-11T02:12:57.950Z</time>
      </trkpt>
      <trkpt lat="55.362835647538304" lon="12.350218081846833">
        <ele>15.97</ele>
        <time>2023-06-11T02:13:11.608Z</time>
      </trkpt>
      <trkpt lat="55.3628980088979" lon="12.350007612258196">
        <ele>15.87</ele>
        <time>2023-06-11T02:13:25.268Z</time>
      </trkpt>
      <trkpt lat="55.362980738282204" lon="12.349728411063552">
        <ele>15.79</ele>
        <time>2023-06-11T02:13:38.931Z</time>
      </trkpt>
      <trkpt lat="55.363022312521935" lon="12.34958809800446">
        <ele>15.78</ele>
        <time>2023-06-11T02:13:52.595Z</time>
      </trkpt>
      <trkpt lat="55.363104958087206" lon="12.349308812990785">
        <ele>15.82</ele>
        <time>2023-06-11T02:14:06.262Z</time>
      </trkpt>
      <trkpt lat="55.363291539251804" lon="12.34867874532938">
        <ele>15.97</ele>
        <time>2023-06-11T02:14:19.936Z</time>
      </trkpt>
      <trkpt lat="55.3633539006114" lon="12.348468275740743">
        <ele>15.96</ele>
        <time>2023-06-11T02:14:33.612Z</time>
      </trkpt>
      <trkpt lat="55.36345741711557" lon="12.348118918016553">
        <ele>15.87</ele>
        <time>2023-06-11T02:14:47.292Z</time>
      </trkpt>
      <trkpt lat="55.36351935938001" lon="12.347909789532423">
        <ele>15.84</ele>
        <time>2023-06-11T02:15:00.974Z</time>
      </trkpt>
      <trkpt lat="55.363560849800706" lon="12.347769476473331">
        <ele>15.84</ele>
        <time>2023-06-11T02:15:14.657Z</time>
      </trkpt>
      <trkpt lat="55.36364357918501" lon="12.347490275278687">
        <ele>15.9</ele>
        <time>2023-06-11T02:15:28.343Z</time>
      </trkpt>
      <trkpt lat="55.36385555751622" lon="12.346774628385901">
        <ele>15.98</ele>
        <time>2023-06-11T02:15:42.036Z</time>
      </trkpt>
      <trkpt lat="55.36389713175595" lon="12.34663431532681">
        <ele>15.97</ele>
        <time>2023-06-11T02:15:55.731Z</time>
      </trkpt>
      <trkpt lat="55.36391791887581" lon="12.346564158797264">
        <ele>15.99</ele>
        <time>2023-06-11T02:16:09.427Z</time>
      </trkpt>
      <trkpt lat="55.36402177065611" lon="12.346213292330503">
        <ele>16.18</ele>
        <time>2023-06-11T02:16:23.126Z</time>
      </trkpt>
      <trkpt lat="55.364084132015705" lon="12.346002822741866">
        <ele>16.23</ele>
        <time>2023-06-11T02:16:36.827Z</time>
      </trkpt>
      <trkpt lat="55.36414691247046" lon="12.34579092822969">
        <ele>16.21</ele>
        <time>2023-06-11T02:16:50.530Z</time>
      </trkpt>
      <trkpt lat="55.364395435899496" lon="12.344951815903187">
        <ele>16.04</ele>
        <time>2023-06-11T02:17:04.242Z</time>
      </trkpt>
      <trkpt lat="55.36454086191952" lon="12.344460720196366">
        <ele>16.03</ele>
        <time>2023-06-11T02:17:17.959Z</time>
      </trkpt>
      <trkpt lat="55.36468595266342" lon="12.343970965594053">
        <ele>16.0</ele>
        <time>2023-06-11T02:17:31.681Z</time>
      </trkpt>
      <trkpt lat="55.364807322621346" lon="12.343561258167028">
        <ele>15.82</ele>
        <time>2023-06-11T02:17:45.407Z</time>
      </trkpt>
      <trkpt lat="55.364929446950555" lon="12.343148700892925">
        <ele>15.56</ele>
        <time>2023-06-11T02:17:59.138Z</time>
      </trkpt>
      <trkpt lat="55.36503002978861" lon="12.342809149995446">
        <ele>15.39</ele>
        <time>2023-06-11T02:18:12.872Z</time>
      </trkpt>
      <trkpt lat="55.36509155295789" lon="12.342601446434855">
        <ele>15.24</ele>
        <time>2023-06-11T02:18:26.608Z</time>
      </trkpt>
      <trkpt lat="55.36517260596156" lon="12.342327861115336">
        <ele>15.01</ele>
        <time>2023-06-11T02:18:40.347Z</time>
      </trkpt>
      <trkpt lat="55.36535591818392" lon="12.341709025204182">
        <ele>14.44</ele>
        <time>2023-06-11T02:18:54.092Z</time>
      </trkpt>
      <trkpt lat="55.36539698950946" lon="12.341570053249598">
        <ele>14.35</ele>
        <time>2023-06-11T02:19:07.839Z</time>
      </trkpt>
      <trkpt lat="55.36547804251313" lon="12.341296467930079">
        <ele>14.21</ele>
        <time>2023-06-11T02:19:21.589Z</time>
      </trkpt>
      <trkpt lat="55.36555993370712" lon="12.34101994894445">
        <ele>13.96</ele>
        <time>2023-06-11T02:19:35.342Z</time>
      </trkpt>
      <trkpt lat="55.365619948133826" lon="12.340909978374839">
        <ele>13.84</ele>
        <time>2023-06-11T02:19:49.096Z</time>
      </trkpt>
      <trkpt lat="55.365830920636654" lon="12.340903440490365">
        <ele>13.56</ele>
        <time>2023-06-11T02:20:02.853Z</time>
      </trkpt>
      <trkpt lat="55.366218416020274" lon="12.340891538187861">
        <ele>13.18</ele>
        <time>2023-06-11T02:20:16.617Z</time>
      </trkpt>
      <trkpt lat="55.36626996472478" lon="12.340889945626259">
        <ele>13.14</ele>
        <time>2023-06-11T02:20:30.381Z</time>
      </trkpt>
      <trkpt lat="55.36634774878621" lon="12.340879552066326">
        <ele>13.09</ele>
        <time>2023-06-11T02:20:44.147Z</time>
      </trkpt>
      <trkpt lat="55.36641991697252" lon="12.34086999669671">
        <ele>13.06</ele>
        <time>2023-06-11T02:20:57.914Z</time>
      </trkpt>
      <trkpt lat="55.36648353561759" lon="12.340823980048299">
        <ele>13.04</ele>
        <time>2023-06-11T02:21:11.682Z</time>
      </trkpt>
      <trkpt lat="55.36659996025264" lon="12.34073999337852">
        <ele>13.02</ele>
        <time>2023-06-11T02:21:25.452Z</time>
      </trkpt>
      <trkpt lat="55.3666693624109" lon="12.340566404163837">
        <ele>13.01</ele>
        <time>2023-06-11T02:21:39.224Z</time>
      </trkpt>
      <trkpt lat="55.3666799236089" lon="12.340539917349815">
        <ele>13.01</ele>
        <time>2023-06-11T02:21:52.996Z</time>
      </trkpt>
      <trkpt lat="55.36669283173978" lon="12.34049909748137">
        <ele>13.02</ele>
        <time>2023-06-11T02:22:06.769Z</time>
      </trkpt>
      <trkpt lat="55.36682350561023" lon="12.340085534378886">
        <ele>12.98</ele>
        <time>2023-06-11T02:22:20.546Z</time>
      </trkpt>
      <trkpt lat="55.36695367656648" lon="12.33967331238091">
        <ele>12.99</ele>
        <time>2023-06-11T02:22:34.327Z</time>
      </trkpt>
      <trkpt lat="55.36708074621856" lon="12.339270813390613">
        <ele>13.05</ele>
        <time>2023-06-11T02:22:48.112Z</time>
      </trkpt>
      <trkpt lat="55.367099940776825" lon="12.339209960773587">
        <ele>13.05</ele>
        <time>2023-06-11T02:23:01.898Z</time>
      </trkpt>
      <trkpt lat="55.367189375683665" lon="12.338931681588292">
        <ele>13.05</ele>
        <time>2023-06-11T02:23:15.687Z</time>
      </trkpt>
      <trkpt lat="55.36727998405695" lon="12.338649965822697">
        <ele>13.08</ele>
        <time>2023-06-11T02:23:29.479Z</time>
      </trkpt>
      <trkpt lat="55.367292976006866" lon="12.338580060750246">
        <ele>13.09</ele>
        <time>2023-06-11T02:23:43.272Z</time>
      </trkpt>
      <trkpt lat="55.367359947413206" lon="12.338219974189997">
        <ele>13.16</ele>
        <time>2023-06-11T02:23:57.068Z</time>
      </trkpt>
      <trkpt lat="55.3673654794693" lon="12.338067507371306">
        <ele>13.2</ele>
        <time>2023-06-11T02:24:10.865Z</time>
      </trkpt>
      <trkpt lat="55.36737377755344" lon="12.337840106338263">
        <ele>13.22</ele>
        <time>2023-06-11T02:24:24.665Z</time>
      </trkpt>
      <trkpt lat="55.367379980161786" lon="12.33766995370388">
        <ele>13.21</ele>
        <time>2023-06-11T02:24:38.466Z</time>
      </trkpt>
      <trkpt lat="55.36738660186529" lon="12.337613794952631">
        <ele>13.21</ele>
        <time>2023-06-11T02:24:52.268Z</time>
      </trkpt>
      <trkpt lat="55.36742063239217" lon="12.33732403255999">
        <ele>13.24</ele>
        <time>2023-06-11T02:25:06.072Z</time>
      </trkpt>
      <trkpt lat="55.367439994588494" lon="12.337159998714924">
        <ele>13.27</ele>
        <time>2023-06-11T02:25:19.878Z</time>
      </trkpt>
      <trkpt lat="55.36747310310602" lon="12.336967382580042">
        <ele>13.31</ele>
        <time>2023-06-11T02:25:33.686Z</time>
      </trkpt>
      <trkpt lat="55.367521634325385" lon="12.336685750633478">
        <ele>13.46</ele>
        <time>2023-06-11T02:25:47.496Z</time>
      </trkpt>
      <trkpt lat="55.367594473063946" lon="12.3362632188946">
        <ele>13.61</ele>
        <time>2023-06-11T02:26:01.310Z</time>
      </trkpt>
      <trkpt lat="55.36771181970835" lon="12.335581770166755">
        <ele>13.91</ele>
        <time>2023-06-11T02:26:15.131Z</time>
      </trkpt>
      <trkpt lat="55.367849953472614" lon="12.334779957309365">
        <ele>14.37</ele>
        <time>2023-06-11T02:26:28.960Z</time>
      </trkpt>
      <trkpt lat="55.367855820804834" lon="12.334718182682991">
        <ele>14.41</ele>
        <time>2023-06-11T02:26:42.789Z</time>
      </trkpt>
      <trkpt lat="55.367869986221194" lon="12.334569990634918">
        <ele>14.47</ele>
        <time>2023-06-11T02:26:56.619Z</time>
      </trkpt>
      <trkpt lat="55.367869986221194" lon="12.334422804415226">
        <ele>14.53</ele>
        <time>2023-06-11T02:27:10.451Z</time>
      </trkpt>
      <trkpt lat="55.367869986221194" lon="12.334188530221581">
        <ele>14.67</ele>
        <time>2023-06-11T02:27:24.285Z</time>
      </trkpt>
      <trkpt lat="55.367869986221194" lon="12.333959955722094">
        <ele>14.77</ele>
        <time>2023-06-11T02:27:38.121Z</time>
      </trkpt>
      <trkpt lat="55.367870992049575" lon="12.333952998742461">
        <ele>14.77</ele>
        <time>2023-06-11T02:27:51.957Z</time>
      </trkpt>
      <trkpt lat="55.36790577694774" lon="12.333723669871688">
        <ele>14.81</ele>
        <time>2023-06-11T02:28:05.795Z</time>
      </trkpt>
      <trkpt lat="55.36799278110266" lon="12.333150347694755">
        <ele>14.82</ele>
        <time>2023-06-11T02:28:19.639Z</time>
      </trkpt>
      <trkpt lat="55.36810182966292" lon="12.332431767135859">
        <ele>14.74</ele>
        <time>2023-06-11T02:28:33.489Z</time>
      </trkpt>
      <trkpt lat="55.36812479607761" lon="12.33228038996458">
        <ele>14.57</ele>
        <time>2023-06-11T02:28:47.341Z</time>
      </trkpt>
      <trkpt lat="55.3681477624923" lon="12.332129012793303">
        <ele>14.45</ele>
        <time>2023-06-11T02:29:01.194Z</time>
      </trkpt>
      <trkpt lat="55.3681821282953" lon="12.331902785226703">
        <ele>14.32</ele>
        <time>2023-06-11T02:29:15.049Z</time>
      </trkpt>
      <trkpt lat="55.3682048432529" lon="12.331752916797996">
        <ele>14.26</ele>
        <time>2023-06-11T02:29:28.906Z</time>
      </trkpt>
      <trkpt lat="55.36827374249697" lon="12.331298869103193">
        <ele>14.12</ele>
        <time>2023-06-11T02:29:42.767Z</time>
      </trkpt>
      <trkpt lat="55.368330823257565" lon="12.330922689288855">
        <ele>14.03</ele>
        <time>2023-06-11T02:29:56.632Z</time>
      </trkpt>
      <trkpt lat="55.36838815547526" lon="12.330545084550977">
        <ele>13.98</ele>
        <time>2023-06-11T02:30:10.500Z</time>
      </trkpt>
      <trkpt lat="55.36844540387392" lon="12.330167395994067">
        <ele>13.89</ele>
        <time>2023-06-11T02:30:24.372Z</time>
      </trkpt>
      <trkpt lat="55.36847993731499" lon="12.329939994961023">
        <ele>13.87</ele>
        <time>2023-06-11T02:30:38.246Z</time>
      </trkpt>
      <trkpt lat="55.368518494069576" lon="12.32980010099709">
        <ele>13.86</ele>
        <time>2023-06-11T02:30:52.121Z</time>
      </trkpt>
      <trkpt lat="55.368559984490275" lon="12.329649981111288">
        <ele>13.82</ele>
        <time>2023-06-11T02:31:05.998Z</time>
      </trkpt>
      <trkpt lat="55.36860994063318" lon="12.329539926722646">
        <ele>13.78</ele>
        <time>2023-06-11T02:31:19.876Z</time>
      </trkpt>
      <trkpt lat="55.36871722899377" lon="12.329394752159715">
        <ele>13.73</ele>
        <time>2023-06-11T02:31:33.756Z</time>
      </trkpt>
      <trkpt lat="55.3687799256295" lon="12.329309927299619">
        <ele>13.73</ele>
        <time>2023-06-11T02:31:47.638Z</time>
      </trkpt>
      <trkpt lat="55.368867767974734" lon="12.329229628667235">
        <ele>13.74</ele>
        <time>2023-06-11T02:32:01.521Z</time>
      </trkpt>
      <trkpt lat="55.36898586899042" lon="12.329121669754386">
        <ele>13.79</ele>
        <time>2023-06-11T02:32:15.406Z</time>
      </trkpt>
      <trkpt lat="55.36906407214701" lon="12.329050172120333">
        <ele>13.86</ele>
        <time>2023-06-11T02:32:29.293Z</time>
      </trkpt>
      <trkpt lat="55.36912995390594" lon="12.328989990055561">
        <ele>13.93</ele>
        <time>2023-06-11T02:32:43.181Z</time>
      </trkpt>
      <trkpt lat="55.36927797831595" lon="12.328772312030196">
        <ele>14.12</ele>
        <time>2023-06-11T02:32:57.072Z</time>
      </trkpt>
      <trkpt lat="55.36929993890226" lon="12.328739957883954">
        <ele>14.13</ele>
        <time>2023-06-11T02:33:10.964Z</time>
      </trkpt>
      <trkpt lat="55.36937344819307" lon="12.328609367832541">
        <ele>14.21</ele>
        <time>2023-06-11T02:33:24.857Z</time>
      </trkpt>
      <trkpt lat="55.36938996054232" lon="12.32857994735241">
        <ele>14.21</ele>
        <time>2023-06-11T02:33:38.751Z</time>
      </trkpt>
      <trkpt lat="55.36942315287888" lon="12.328482381999493">
        <ele>14.23</ele>
        <time>2023-06-11T02:33:52.646Z</time>
      </trkpt>
      <trkpt lat="55.36955994553864" lon="12.328079966828227">
        <ele>14.23</ele>
        <time>2023-06-11T02:34:06.545Z</time>
      </trkpt>
      <trkpt lat="55.36960043013096" lon="12.327857343479991">
        <ele>14.23</ele>
        <time>2023-06-11T02:34:20.446Z</time>
      </trkpt>
      <trkpt lat="55.369627587497234" lon="12.327708145603538">
        <ele>14.16</ele>
        <time>2023-06-11T02:34:34.349Z</time>
      </trkpt>
      <trkpt lat="55.36966840736568" lon="12.327483594417572">
        <ele>14.12</ele>
        <time>2023-06-11T02:34:48.254Z</time>
      </trkpt>
      <trkpt lat="55.36967997439206" lon="12.3274199757725">
        <ele>14.13</ele>
        <time>2023-06-11T02:35:02.159Z</time>
      </trkpt>
      <trkpt lat="55.36977921612561" lon="12.326725032180548">
        <ele>14.26</ele>
        <time>2023-06-11T02:35:16.071Z</time>
      </trkpt>
      <trkpt lat="55.36984434351325" lon="12.326269140467048">
        <ele>14.37</ele>
        <time>2023-06-11T02:35:29.987Z</time>
      </trkpt>
      <trkpt lat="55.369974598288536" lon="12.325357524678111">
        <ele>14.76</ele>
        <time>2023-06-11T02:35:43.912Z</time>
      </trkpt>
      <trkpt lat="55.370016507804394" lon="12.32506432570517">
        <ele>14.82</ele>
        <time>2023-06-11T02:35:57.839Z</time>
      </trkpt>
      <trkpt lat="55.370049364864826" lon="12.32483415864408">
        <ele>14.81</ele>
        <time>2023-06-11T02:36:11.769Z</time>
      </trkpt>
      <trkpt lat="55.370082054287195" lon="12.324605416506529">
        <ele>14.84</ele>
        <time>2023-06-11T02:36:25.701Z</time>
      </trkpt>
      <trkpt lat="55.370169477537274" lon="12.323993034660816">
        <ele>15.06</ele>
        <time>2023-06-11T02:36:39.639Z</time>
      </trkpt>
      <trkpt lat="55.370246255770326" lon="12.323455838486552">
        <ele>15.13</ele>
        <time>2023-06-11T02:36:53.582Z</time>
      </trkpt>
      <trkpt lat="55.370278945192695" lon="12.323227180168033">
        <ele>15.14</ele>
        <time>2023-06-11T02:37:07.527Z</time>
      </trkpt>
      <trkpt lat="55.37036661989987" lon="12.322613289579749">
        <ele>15.06</ele>
        <time>2023-06-11T02:37:21.478Z</time>
      </trkpt>
      <trkpt lat="55.37041028961539" lon="12.322307853028178">
        <ele>15.05</ele>
        <time>2023-06-11T02:37:35.431Z</time>
      </trkpt>
      <trkpt lat="55.370443146675825" lon="12.322077602148056">
        <ele>15.06</ele>
        <time>2023-06-11T02:37:49.387Z</time>
      </trkpt>
      <trkpt lat="55.370475836098194" lon="12.321848943829536">
        <ele>15.11</ele>
        <time>2023-06-11T02:38:03.345Z</time>
      </trkpt>
      <trkpt lat="55.370539957657456" lon="12.321399925276637">
        <ele>15.13</ele>
        <time>2023-06-11T02:38:17.307Z</time>
      </trkpt>
      <trkpt lat="55.370622938498855" lon="12.320868177339435">
        <ele>15.16</ele>
        <time>2023-06-11T02:38:31.274Z</time>
      </trkpt>
      <trkpt lat="55.37067046388984" lon="12.320562908425927">
        <ele>15.09</ele>
        <time>2023-06-11T02:38:45.244Z</time>
      </trkpt>
      <trkpt lat="55.3707536123693" lon="12.320030322298408">
        <ele>15.03</ele>
        <time>2023-06-11T02:38:59.219Z</time>
      </trkpt>
      <trkpt lat="55.370813040062785" lon="12.319648778066039">
        <ele>14.94</ele>
        <time>2023-06-11T02:39:13.198Z</time>
      </trkpt>
      <trkpt lat="55.37084857933223" lon="12.319421377032995">
        <ele>14.87</ele>
        <time>2023-06-11T02:39:27.179Z</time>
      </trkpt>
      <trkpt lat="55.370879927650094" lon="12.319219959899783">
        <ele>14.76</ele>
        <time>2023-06-11T02:39:41.162Z</time>
      </trkpt>
      <trkpt lat="55.370982522144914" lon="12.318836068734527">
        <ele>14.55</ele>
        <time>2023-06-11T02:39:55.148Z</time>
      </trkpt>
      <trkpt lat="55.371097354218364" lon="12.318406412377954">
        <ele>14.38</ele>
        <time>2023-06-11T02:40:09.139Z</time>
      </trkpt>
      <trkpt lat="55.37130740471184" lon="12.317620189860463">
        <ele>13.89</ele>
        <time>2023-06-11T02:40:23.138Z</time>
      </trkpt>
      <trkpt lat="55.37151753902435" lon="12.316833883523941">
        <ele>13.5</ele>
        <time>2023-06-11T02:40:37.145Z</time>
      </trkpt>
      <trkpt lat="55.37157495506108" lon="12.316619055345654">
        <ele>13.42</ele>
        <time>2023-06-11T02:40:51.154Z</time>
      </trkpt>
      <trkpt lat="55.3717084787786" lon="12.316119242459536">
        <ele>13.38</ele>
        <time>2023-06-11T02:41:05.168Z</time>
      </trkpt>
      <trkpt lat="55.37191861309111" lon="12.315333019942045">
        <ele>13.39</ele>
        <time>2023-06-11T02:41:19.190Z</time>
      </trkpt>
      <trkpt lat="55.37195683456957" lon="12.315189773216844">
        <ele>13.43</ele>
        <time>2023-06-11T02:41:33.213Z</time>
      </trkpt>
      <trkpt lat="55.37199513986707" lon="12.315046526491642">
        <ele>13.51</ele>
        <time>2023-06-11T02:41:47.238Z</time>
      </trkpt>
      <trkpt lat="55.37203336134553" lon="12.314903363585472">
        <ele>13.63</ele>
        <time>2023-06-11T02:42:01.264Z</time>
      </trkpt>
      <trkpt lat="55.37208775989711" lon="12.31470001861453">
        <ele>13.83</ele>
        <time>2023-06-11T02:42:15.292Z</time>
      </trkpt>
      <trkpt lat="55.37209044210613" lon="12.314689960330725">
        <ele>13.85</ele>
        <time>2023-06-11T02:42:29.320Z</time>
      </trkpt>
      <trkpt lat="55.37212832830846" lon="12.314548138529062">
        <ele>13.69</ele>
        <time>2023-06-11T02:42:43.350Z</time>
      </trkpt>
      <trkpt lat="55.37219999358058" lon="12.314279917627573">
        <ele>13.32</ele>
        <time>2023-06-11T02:42:57.382Z</time>
      </trkpt>
      <trkpt lat="55.37219999358058" lon="12.314269943162799">
        <ele>13.3</ele>
        <time>2023-06-11T02:43:11.414Z</time>
      </trkpt>
      <trkpt lat="55.37220351397991" lon="12.314273044466972">
        <ele>13.3</ele>
        <time>2023-06-11T02:43:25.447Z</time>
      </trkpt>
      <trkpt lat="55.37224383093417" lon="12.31430808082223">
        <ele>13.23</ele>
        <time>2023-06-11T02:43:39.480Z</time>
      </trkpt>
      <trkpt lat="55.372283309698105" lon="12.314342530444264">
        <ele>13.18</ele>
        <time>2023-06-11T02:43:53.514Z</time>
      </trkpt>
      <trkpt lat="55.37232362665236" lon="12.314377566799521">
        <ele>13.15</ele>
        <time>2023-06-11T02:44:07.549Z</time>
      </trkpt>
      <trkpt lat="55.37240342237055" lon="12.314447052776814">
        <ele>13.15</ele>
        <time>2023-06-11T02:44:21.585Z</time>
      </trkpt>
      <trkpt lat="55.372483218088746" lon="12.314516454935074">
        <ele>13.21</ele>
        <time>2023-06-11T02:44:35.623Z</time>
      </trkpt>
      <trkpt lat="55.372603330761194" lon="12.314620977267623">
        <ele>13.33</ele>
        <time>2023-06-11T02:44:49.663Z</time>
      </trkpt>
      <trkpt lat="55.372842801734805" lon="12.314829351380467">
        <ele>13.51</ele>
        <time>2023-06-11T02:45:03.707Z</time>
      </trkpt>
      <trkpt lat="55.372922597453" lon="12.314898753538728">
        <ele>13.62</ele>
        <time>2023-06-11T02:45:17.752Z</time>
      </trkpt>
      <trkpt lat="55.37312250584364" lon="12.315072761848569">
        <ele>13.95</ele>
        <time>2023-06-11T02:45:31.801Z</time>
      </trkpt>
      <trkpt lat="55.37324261851609" lon="12.315177200362086">
        <ele>14.12</ele>
        <time>2023-06-11T02:45:45.852Z</time>
      </trkpt>
      <trkpt lat="55.37332249805331" lon="12.315246686339378">
        <ele>14.2</ele>
        <time>2023-06-11T02:45:59.905Z</time>
      </trkpt>
      <trkpt lat="55.3734820894897" lon="12.31538557447493">
        <ele>14.29</ele>
        <time>2023-06-11T02:46:13.960Z</time>
      </trkpt>
      <trkpt lat="55.37356188520789" lon="12.315455060452223">
        <ele>14.37</ele>
        <time>2023-06-11T02:46:28.017Z</time>
      </trkpt>
      <trkpt lat="55.373739916831255" lon="12.315609958022833">
        <ele>14.59</ele>
        <time>2023-06-11T02:46:42.077Z</time>
      </trkpt>
      <trkpt lat="55.37381996400654" lon="12.315699979662895">
        <ele>14.7</ele>
        <time>2023-06-11T02:46:56.139Z</time>
      </trkpt>
      <trkpt lat="55.373858185485005" lon="12.315789079293609">
        <ele>14.78</ele>
        <time>2023-06-11T02:47:10.202Z</time>
      </trkpt>
      <trkpt lat="55.37387997843325" lon="12.31583995744586">
        <ele>14.83</ele>
        <time>2023-06-11T02:47:24.265Z</time>
      </trkpt>
      <trkpt lat="55.37387997843325" lon="12.31598999351263">
        <ele>14.95</ele>
        <time>2023-06-11T02:47:38.330Z</time>
      </trkpt>
      <trkpt lat="55.37386246025562" lon="12.3160847928375">
        <ele>15.03</ele>
        <time>2023-06-11T02:47:52.395Z</time>
      </trkpt>
      <trkpt lat="55.37383505143225" lon="12.31623382307589">
        <ele>15.11</ele>
        <time>2023-06-11T02:48:06.462Z</time>
      </trkpt>
      <trkpt lat="55.373807307332754" lon="12.316384362056851">
        <ele>15.12</ele>
        <time>2023-06-11T02:48:20.530Z</time>
      </trkpt>
      <trkpt lat="55.373766236007214" lon="12.316607236862183">
        <ele>15.08</ele>
        <time>2023-06-11T02:48:34.600Z</time>
      </trkpt>
      <trkpt lat="55.373739916831255" lon="12.316749980673194">
        <ele>15.07</ele>
        <time>2023-06-11T02:48:48.672Z</time>
      </trkpt>
      <trkpt lat="55.37371904589236" lon="12.316910661756992">
        <ele>15.07</ele>
        <time>2023-06-11T02:49:02.745Z</time>
      </trkpt>
      <trkpt lat="55.373669508844614" lon="12.317291786894202">
        <ele>14.98</ele>
        <time>2023-06-11T02:49:16.822Z</time>
      </trkpt>
      <trkpt lat="55.37363958545029" lon="12.317521618679166">
        <ele>14.97</ele>
        <time>2023-06-11T02:49:30.901Z</time>
      </trkpt>
      <trkpt lat="55.37357001565397" lon="12.318056970834732">
        <ele>15.02</ele>
        <time>2023-06-11T02:49:44.985Z</time>
      </trkpt>
      <trkpt lat="55.37349030375481" lon="12.318669520318508">
        <ele>15.22</ele>
        <time>2023-06-11T02:49:59.075Z</time>
      </trkpt>
      <trkpt lat="55.37347027100623" lon="12.318823747336864">
        <ele>15.25</ele>
        <time>2023-06-11T02:50:13.166Z</time>
      </trkpt>
      <trkpt lat="55.37346021272242" lon="12.318900944665074">
        <ele>15.24</ele>
        <time>2023-06-11T02:50:27.258Z</time>
      </trkpt>
      <trkpt lat="55.37344998680055" lon="12.318979986011982">
        <ele>15.2</ele>
        <time>2023-06-11T02:50:41.351Z</time>
      </trkpt>
      <trkpt lat="55.37344998680055" lon="12.318979986011982">
        <ele>15.2</ele>
        <time>2023-06-11T02:50:55.444Z</time>
      </trkpt>
      <trkpt lat="55.37344998680055" lon="12.31912993825972">
        <ele>15.07</ele>
        <time>2023-06-11T02:51:09.538Z</time>
      </trkpt>
      <trkpt lat="55.37345132790506" lon="12.31913580559194">
        <ele>15.07</ele>
        <time>2023-06-11T02:51:23.632Z</time>
      </trkpt>
      <trkpt lat="55.373499942943454" lon="12.3193399887532">
        <ele>14.83</ele>
        <time>2023-06-11T02:51:37.728Z</time>
      </trkpt>
      <trkpt lat="55.3735079895705" lon="12.319347532466054">
        <ele>14.82</ele>
        <time>2023-06-11T02:51:51.824Z</time>
      </trkpt>
      <trkpt lat="55.37358719855547" lon="12.319422382861376">
        <ele>14.68</ele>
        <time>2023-06-11T02:52:05.922Z</time>
      </trkpt>
      <trkpt lat="55.37370605394244" lon="12.319534616544843">
        <ele>14.51</ele>
        <time>2023-06-11T02:52:20.022Z</time>
      </trkpt>
      <trkpt lat="55.37418155930936" lon="12.319983635097742">
        <ele>14.02</ele>
        <time>2023-06-11T02:52:34.131Z</time>
      </trkpt>
      <trkpt lat="55.374260768294334" lon="12.320058485493064">
        <ele>13.96</ele>
        <time>2023-06-11T02:52:48.241Z</time>
      </trkpt>
      <trkpt lat="55.37473543547094" lon="12.32050683349371">
        <ele>13.7</ele>
        <time>2023-06-11T02:53:02.360Z</time>
      </trkpt>
      <trkpt lat="55.37489393725991" lon="12.320656450465322">
        <ele>13.58</ele>
        <time>2023-06-11T02:53:16.482Z</time>
      </trkpt>
      <trkpt lat="55.375052439048886" lon="12.320806151255965">
        <ele>13.39</ele>
        <time>2023-06-11T02:53:30.606Z</time>
      </trkpt>
      <trkpt lat="55.37529995664954" lon="12.32103992253542">
        <ele>13.01</ele>
        <time>2023-06-11T02:53:44.735Z</time>
      </trkpt>
      <trkpt lat="55.37540548481047" lon="12.321153748780489">
        <ele>12.85</ele>
        <time>2023-06-11T02:53:58.866Z</time>
      </trkpt>
      <trkpt lat="55.375597262755036" lon="12.321360362693667">
        <ele>12.63</ele>
        <time>2023-06-11T02:54:13.001Z</time>
      </trkpt>
      <trkpt lat="55.375750651583076" lon="12.321525737643242">
        <ele>12.57</ele>
        <time>2023-06-11T02:54:27.138Z</time>
      </trkpt>
      <trkpt lat="55.37605734542012" lon="12.321856403723359">
        <ele>12.57</ele>
        <time>2023-06-11T02:54:41.281Z</time>
      </trkpt>
      <trkpt lat="55.37606991827488" lon="12.321869982406497">
        <ele>12.56</ele>
        <time>2023-06-11T02:54:55.424Z</time>
      </trkpt>
      <trkpt lat="55.376334032043815" lon="12.322120601311326">
        <ele>12.41</ele>
        <time>2023-06-11T02:55:09.572Z</time>
      </trkpt>
      <trkpt lat="55.376571491360664" lon="12.32234607450664">
        <ele>12.38</ele>
        <time>2023-06-11T02:55:23.725Z</time>
      </trkpt>
      <trkpt lat="55.376650616526604" lon="12.322421176359057">
        <ele>12.35</ele>
        <time>2023-06-11T02:55:37.879Z</time>
      </trkpt>
      <trkpt lat="55.376848513260484" lon="12.322609098628163">
        <ele>12.12</ele>
        <time>2023-06-11T02:55:52.037Z</time>
      </trkpt>
      <trkpt lat="55.37685999646783" lon="12.322619995102286">
        <ele>12.1</ele>
        <time>2023-06-11T02:56:06.195Z</time>
      </trkpt>
      <trkpt lat="55.37693032063544" lon="12.322674645110965">
        <ele>12.05</ele>
        <time>2023-06-11T02:56:20.354Z</time>
      </trkpt>
      <trkpt lat="55.37703995592892" lon="12.322759972885251">
        <ele>11.98</ele>
        <time>2023-06-11T02:56:34.515Z</time>
      </trkpt>
      <trkpt lat="55.37761403247714" lon="12.323058871552348">
        <ele>11.67</ele>
        <time>2023-06-11T02:56:48.686Z</time>
      </trkpt>
      <trkpt lat="55.37817453034222" lon="12.323350729420781">
        <ele>11.16</ele>
        <time>2023-06-11T02:57:02.866Z</time>
      </trkpt>
      <trkpt lat="55.37847728468478" lon="12.323508393019438">
        <ele>10.93</ele>
        <time>2023-06-11T02:57:17.051Z</time>
      </trkpt>
      <trkpt lat="55.3787299990654" lon="12.323639988899231">
        <ele>10.78</ele>
        <time>2023-06-11T02:57:31.240Z</time>
      </trkpt>
      <trkpt lat="55.37881356664002" lon="12.32372053898871">
        <ele>10.73</ele>
        <time>2023-06-11T02:57:45.431Z</time>
      </trkpt>
      <trkpt lat="55.37900995463133" lon="12.323909970000386">
        <ele>10.56</ele>
        <time>2023-06-11T02:57:59.625Z</time>
      </trkpt>
      <trkpt lat="55.379239954054356" lon="12.324179951101542">
        <ele>10.36</ele>
        <time>2023-06-11T02:58:13.824Z</time>
      </trkpt>
      <trkpt lat="55.379239954054356" lon="12.324179951101542">
        <ele>10.36</ele>
        <time>2023-06-11T02:58:28.023Z</time>
      </trkpt>
      <trkpt lat="55.37935495376587" lon="12.324283216148615">
        <ele>10.23</ele>
        <time>2023-06-11T02:58:42.224Z</time>
      </trkpt>
      <trkpt lat="55.37971545942128" lon="12.3246069252491">
        <ele>9.62</ele>
        <time>2023-06-11T02:58:56.431Z</time>
      </trkpt>
      <trkpt lat="55.379915703088045" lon="12.324786800891161">
        <ele>9.18</ele>
        <time>2023-06-11T02:59:10.642Z</time>
      </trkpt>
      <trkpt lat="55.379995834082365" lon="12.324858717620373">
        <ele>9.03</ele>
        <time>2023-06-11T02:59:24.854Z</time>
      </trkpt>
      <trkpt lat="55.380075965076685" lon="12.324930634349585">
        <ele>8.91</ele>
        <time>2023-06-11T02:59:39.068Z</time>
      </trkpt>
      <trkpt lat="55.38015601225197" lon="12.325002551078796">
        <ele>8.82</ele>
        <time>2023-06-11T02:59:53.283Z</time>
      </trkpt>
      <trkpt lat="55.38021996617317" lon="12.325059967115521">
        <ele>8.78</ele>
        <time>2023-06-11T03:00:07.499Z</time>
      </trkpt>
      <trkpt lat="55.38023647852242" lon="12.325073378160596">
        <ele>8.78</ele>
        <time>2023-06-11T03:00:21.716Z</time>
      </trkpt>
      <trkpt lat="55.38035902194679" lon="12.32517278753221">
        <ele>8.79</ele>
        <time>2023-06-11T03:00:35.935Z</time>
      </trkpt>
      <trkpt lat="55.380563121289015" lon="12.325338497757912">
        <ele>8.91</ele>
        <time>2023-06-11T03:00:50.157Z</time>
      </trkpt>
      <trkpt lat="55.38072564639151" lon="12.325470428913832">
        <ele>9.05</ele>
        <time>2023-06-11T03:01:04.382Z</time>
      </trkpt>
      <trkpt lat="55.38088817149401" lon="12.32560227625072">
        <ele>8.64</ele>
        <time>2023-06-11T03:01:18.610Z</time>
      </trkpt>
      <trkpt lat="55.38090996444225" lon="12.325619962066412">
        <ele>8.59</ele>
        <time>2023-06-11T03:01:32.839Z</time>
      </trkpt>
      <trkpt lat="55.38096997886896" lon="12.325609987601638">
        <ele>8.49</ele>
        <time>2023-06-11T03:01:47.069Z</time>
      </trkpt>
      <trkpt lat="55.38100526668131" lon="12.325548212975264">
        <ele>8.41</ele>
        <time>2023-06-11T03:02:01.299Z</time>
      </trkpt>
      <trkpt lat="55.38104994222522" lon="12.325469925999641">
        <ele>8.33</ele>
        <time>2023-06-11T03:02:15.530Z</time>
      </trkpt>
      <trkpt lat="55.38106025196612" lon="12.325426256284118">
        <ele>8.31</ele>
        <time>2023-06-11T03:02:29.762Z</time>
      </trkpt>
      <trkpt lat="55.38109453395009" lon="12.325281584635377">
        <ele>8.27</ele>
        <time>2023-06-11T03:02:43.995Z</time>
      </trkpt>
      <trkpt lat="55.38112906739116" lon="12.325135404244065">
        <ele>8.29</ele>
        <time>2023-06-11T03:02:58.230Z</time>
      </trkpt>
      <trkpt lat="55.381197798997164" lon="12.324844552204013">
        <ele>8.44</ele>
        <time>2023-06-11T03:03:12.468Z</time>
      </trkpt>
      <trkpt lat="55.38124926388264" lon="12.324626790359616">
        <ele>8.58</ele>
        <time>2023-06-11T03:03:26.708Z</time>
      </trkpt>
      <trkpt lat="55.38133501075208" lon="12.324264356866479">
        <ele>8.91</ele>
        <time>2023-06-11T03:03:40.951Z</time>
      </trkpt>
      <trkpt lat="55.38142100907862" lon="12.32390041463077">
        <ele>9.17</ele>
        <time>2023-06-11T03:03:55.198Z</time>
      </trkpt>
      <trkpt lat="55.38157548755407" lon="12.323247129097581">
        <ele>9.76</ele>
        <time>2023-06-11T03:04:09.451Z</time>
      </trkpt>
      <trkpt lat="55.38162728771567" lon="12.323027942329645">
        <ele>9.88</ele>
        <time>2023-06-11T03:04:23.707Z</time>
      </trkpt>
      <trkpt lat="55.38167883642018" lon="12.322810180485249">
        <ele>9.89</ele>
        <time>2023-06-11T03:04:37.965Z</time>
      </trkpt>
      <trkpt lat="55.38173030130565" lon="12.322592418640852">
        <ele>9.85</ele>
        <time>2023-06-11T03:04:52.225Z</time>
      </trkpt>
      <trkpt lat="55.38176449947059" lon="12.322447746992111">
        <ele>9.79</ele>
        <time>2023-06-11T03:05:06.486Z</time>
      </trkpt>
      <trkpt lat="55.3818332310766" lon="12.322156894952059">
        <ele>9.62</ele>
        <time>2023-06-11T03:05:20.750Z</time>
      </trkpt>
      <trkpt lat="55.38190204650164" lon="12.321866042912006">
        <ele>9.54</ele>
        <time>2023-06-11T03:05:35.017Z</time>
      </trkpt>
      <trkpt lat="55.38203950971365" lon="12.321284338831902">
        <ele>9.5</ele>
        <time>2023-06-11T03:05:49.290Z</time>
      </trkpt>
      <trkpt lat="55.382091058418155" lon="12.321066576987505">
        <ele>9.54</ele>
        <time>2023-06-11T03:06:03.565Z</time>
      </trkpt>
      <trkpt lat="55.382125256583095" lon="12.320921905338764">
        <ele>9.63</ele>
        <time>2023-06-11T03:06:17.841Z</time>
      </trkpt>
      <trkpt lat="55.38217672146857" lon="12.320704143494368">
        <ele>9.86</ele>
        <time>2023-06-11T03:06:32.119Z</time>
      </trkpt>
      <trkpt lat="55.38222852163017" lon="12.3204848729074">
        <ele>10.18</ele>
        <time>2023-06-11T03:06:46.400Z</time>
      </trkpt>
      <trkpt lat="55.38229700177908" lon="12.320195529609919">
        <ele>10.7</ele>
        <time>2023-06-11T03:07:00.684Z</time>
      </trkpt>
      <trkpt lat="55.38238300010562" lon="12.31983158737421">
        <ele>9.62</ele>
        <time>2023-06-11T03:07:14.971Z</time>
      </trkpt>
      <trkpt lat="55.382399931550026" lon="12.319759922102094">
        <ele>9.42</ele>
        <time>2023-06-11T03:07:29.259Z</time>
      </trkpt>
      <trkpt lat="55.38244301453233" lon="12.31978758238256">
        <ele>9.22</ele>
        <time>2023-06-11T03:07:43.548Z</time>
      </trkpt>
      <trkpt lat="55.3825275041163" lon="12.319841729477048">
        <ele>8.87</ele>
        <time>2023-06-11T03:07:57.838Z</time>
      </trkpt>
      <trkpt lat="55.38256974890828" lon="12.319868803024292">
        <ele>8.72</ele>
        <time>2023-06-11T03:08:12.129Z</time>
      </trkpt>
      <trkpt lat="55.38265432231128" lon="12.31992295011878">
        <ele>8.48</ele>
        <time>2023-06-11T03:08:26.421Z</time>
      </trkpt>
      <trkpt lat="55.3828224632889" lon="12.320030741393566">
        <ele>8.13</ele>
        <time>2023-06-11T03:08:40.716Z</time>
      </trkpt>
      <trkpt lat="55.38290695287287" lon="12.320084888488054">
        <ele>7.99</ele>
        <time>2023-06-11T03:08:55.012Z</time>
      </trkpt>
      <trkpt lat="55.38320191204548" lon="12.32027381658554">
        <ele>7.61</ele>
        <time>2023-06-11T03:09:09.314Z</time>
      </trkpt>
      <trkpt lat="55.383371729403734" lon="12.320382697507739">
        <ele>7.36</ele>
        <time>2023-06-11T03:09:23.618Z</time>
      </trkpt>
      <trkpt lat="55.3834977094084" lon="12.320463415235281">
        <ele>7.24</ele>
        <time>2023-06-11T03:09:37.925Z</time>
      </trkpt>
      <trkpt lat="55.38366585038602" lon="12.320571122691035">
        <ele>7.18</ele>
        <time>2023-06-11T03:09:52.234Z</time>
      </trkpt>
      <trkpt lat="55.38375033996999" lon="12.320625353604555">
        <ele>7.2</ele>
        <time>2023-06-11T03:10:06.545Z</time>
      </trkpt>
      <trkpt lat="55.38396164774895" lon="12.320760721340775">
        <ele>7.3</ele>
        <time>2023-06-11T03:10:20.859Z</time>
      </trkpt>
      <trkpt lat="55.384087543934584" lon="12.320841355249286">
        <ele>7.33</ele>
        <time>2023-06-11T03:10:35.176Z</time>
      </trkpt>
      <trkpt lat="55.38417203351855" lon="12.320895502343774">
        <ele>7.34</ele>
        <time>2023-06-11T03:10:49.494Z</time>
      </trkpt>
      <trkpt lat="55.38438334129751" lon="12.321030953899026">
        <ele>7.31</ele>
        <time>2023-06-11T03:11:03.816Z</time>
      </trkpt>
      <trkpt lat="55.38455148227513" lon="12.32113866135478">
        <ele>7.35</ele>
        <time>2023-06-11T03:11:18.141Z</time>
      </trkpt>
      <trkpt lat="55.38476270623505" lon="12.321274029091">
        <ele>7.52</ele>
        <time>2023-06-11T03:11:32.469Z</time>
      </trkpt>
      <trkpt lat="55.38484996184707" lon="12.321329936385155">
        <ele>7.63</ele>
        <time>2023-06-11T03:11:46.799Z</time>
      </trkpt>
      <trkpt lat="55.385195882990956" lon="12.32147729024291">
        <ele>8.08</ele>
        <time>2023-06-11T03:12:01.134Z</time>
      </trkpt>
      <trkpt lat="55.385370729491115" lon="12.321551805362105">
        <ele>8.24</ele>
        <time>2023-06-11T03:12:15.472Z</time>
      </trkpt>
      <trkpt lat="55.38538992404938" lon="12.321559935808182">
        <ele>8.25</ele>
        <time>2023-06-11T03:12:29.811Z</time>
      </trkpt>
      <trkpt lat="55.38549771532416" lon="12.321626739576459">
        <ele>8.31</ele>
        <time>2023-06-11T03:12:44.151Z</time>
      </trkpt>
      <trkpt lat="55.38562495261431" lon="12.321705613285303">
        <ele>8.32</ele>
        <time>2023-06-11T03:12:58.494Z</time>
      </trkpt>
      <trkpt lat="55.3857097774744" lon="12.32175825163722">
        <ele>8.3</ele>
        <time>2023-06-11T03:13:12.838Z</time>
      </trkpt>
      <trkpt lat="55.38587858900428" lon="12.321862857788801">
        <ele>8.21</ele>
        <time>2023-06-11T03:13:27.185Z</time>
      </trkpt>
      <trkpt lat="55.38588998839259" lon="12.321869982406497">
        <ele>8.19</ele>
        <time>2023-06-11T03:13:41.532Z</time>
      </trkpt>
      <trkpt lat="55.38603440858424" lon="12.322010714560747">
        <ele>8.0</ele>
        <time>2023-06-11T03:13:55.882Z</time>
      </trkpt>
      <trkpt lat="55.38615242578089" lon="12.32212571427226">
        <ele>7.82</ele>
        <time>2023-06-11T03:14:10.234Z</time>
      </trkpt>
      <trkpt lat="55.38627999834716" lon="12.322249934077263">
        <ele>7.59</ele>
        <time>2023-06-11T03:14:24.588Z</time>
      </trkpt>
      <trkpt lat="55.3863921482116" lon="12.322322772815824">
        <ele>7.41</ele>
        <time>2023-06-11T03:14:38.944Z</time>
      </trkpt>
      <trkpt lat="55.38647563196719" lon="12.322377003729343">
        <ele>7.25</ele>
        <time>2023-06-11T03:14:53.302Z</time>
      </trkpt>
      <trkpt lat="55.38655919954181" lon="12.322431234642863">
        <ele>7.06</ele>
        <time>2023-06-11T03:15:07.661Z</time>
      </trkpt>
      <trkpt lat="55.386766735464334" lon="12.32256593182683">
        <ele>6.54</ele>
        <time>2023-06-11T03:15:22.024Z</time>
      </trkpt>
      <trkpt lat="55.38701819255948" lon="12.322729211300611">
        <ele>6.02</ele>
        <time>2023-06-11T03:15:36.391Z</time>
      </trkpt>
      <trkpt lat="55.387100921943784" lon="12.32278285548091">
        <ele>5.79</ele>
        <time>2023-06-11T03:15:50.759Z</time>
      </trkpt>
      <trkpt lat="55.38722665049136" lon="12.3228644952178">
        <ele>5.41</ele>
        <time>2023-06-11T03:16:05.129Z</time>
      </trkpt>
      <trkpt lat="55.38730929605663" lon="12.322918139398098">
        <ele>5.19</ele>
        <time>2023-06-11T03:16:19.501Z</time>
      </trkpt>
      <trkpt lat="55.38751859217882" lon="12.323054010048509">
        <ele>4.74</ele>
        <time>2023-06-11T03:16:33.876Z</time>
      </trkpt>
      <trkpt lat="55.38764348253608" lon="12.323135063052177">
        <ele>4.52</ele>
        <time>2023-06-11T03:16:48.253Z</time>
      </trkpt>
      <trkpt lat="55.38776837289333" lon="12.323216116055846">
        <ele>4.36</ele>
        <time>2023-06-11T03:17:02.633Z</time>
      </trkpt>
      <trkpt lat="55.38789317943156" lon="12.323297169059515">
        <ele>4.3</ele>
        <time>2023-06-11T03:17:17.015Z</time>
      </trkpt>
      <trkpt lat="55.3880603145808" lon="12.323405630886555">
        <ele>4.31</ele>
        <time>2023-06-11T03:17:31.400Z</time>
      </trkpt>
      <trkpt lat="55.38831001147628" lon="12.323567736893892">
        <ele>4.4</ele>
        <time>2023-06-11T03:17:45.789Z</time>
      </trkpt>
      <trkpt lat="55.38851763121784" lon="12.32370251789689">
        <ele>3.89</ele>
        <time>2023-06-11T03:18:00.181Z</time>
      </trkpt>
      <trkpt lat="55.388559959828854" lon="12.323729926720262">
        <ele>3.79</ele>
        <time>2023-06-11T03:18:14.574Z</time>
      </trkpt>
      <trkpt lat="55.388575717806816" lon="12.323657758533955">
        <ele>3.7</ele>
        <time>2023-06-11T03:18:28.968Z</time>
      </trkpt>
      <trkpt lat="55.38860731758177" lon="12.32351291924715">
        <ele>3.56</ele>
        <time>2023-06-11T03:18:43.363Z</time>
      </trkpt>
      <trkpt lat="55.388639252632856" lon="12.323366655036807">
        <ele>3.48</ele>
        <time>2023-06-11T03:18:57.760Z</time>
      </trkpt>
      <trkpt lat="55.38867118768394" lon="12.323220307007432">
        <ele>3.46</ele>
        <time>2023-06-11T03:19:12.158Z</time>
      </trkpt>
      <trkpt lat="55.38871896453202" lon="12.323001539334655">
        <ele>3.46</ele>
        <time>2023-06-11T03:19:26.558Z</time>
      </trkpt>
      <trkpt lat="55.388830276206136" lon="12.32249166816473">
        <ele>3.51</ele>
        <time>2023-06-11T03:19:40.963Z</time>
      </trkpt>
      <trkpt lat="55.38886187598109" lon="12.322346828877926">
        <ele>3.57</ele>
        <time>2023-06-11T03:19:55.370Z</time>
      </trkpt>
      <trkpt lat="55.38887805305421" lon="12.322272984310985">
        <ele>3.63</ele>
        <time>2023-06-11T03:20:09.777Z</time>
      </trkpt>
      <trkpt lat="55.38890965282917" lon="12.32212814502418">
        <ele>3.79</ele>
        <time>2023-06-11T03:20:24.186Z</time>
      </trkpt>
      <trkpt lat="55.38903512991965" lon="12.321553230285645">
        <ele>3.64</ele>
        <time>2023-06-11T03:20:38.600Z</time>
      </trkpt>
      <trkpt lat="55.389098078012466" lon="12.321264976635575">
        <ele>3.67</ele>
        <time>2023-06-11T03:20:53.017Z</time>
      </trkpt>
      <trkpt lat="55.389129342511296" lon="12.321121646091342">
        <ele>3.7</ele>
        <time>2023-06-11T03:21:07.436Z</time>
      </trkpt>
      <trkpt lat="55.38916094228625" lon="12.320976806804538">
        <ele>3.76</ele>
        <time>2023-06-11T03:21:21.856Z</time>
      </trkpt>
      <trkpt lat="55.389223555102944" lon="12.32069006189704">
        <ele>3.91</ele>
        <time>2023-06-11T03:21:36.279Z</time>
      </trkpt>
      <trkpt lat="55.38928650319576" lon="12.320401892066002">
        <ele>4.12</ele>
        <time>2023-06-11T03:21:50.705Z</time>
      </trkpt>
      <trkpt lat="55.38941231556237" lon="12.319825468584895">
        <ele>4.68</ele>
        <time>2023-06-11T03:22:05.136Z</time>
      </trkpt>
      <trkpt lat="55.38947492837906" lon="12.319538723677397">
        <ele>5.01</ele>
        <time>2023-06-11T03:22:19.570Z</time>
      </trkpt>
      <trkpt lat="55.389538798481226" lon="12.319246111437678">
        <ele>5.3</ele>
        <time>2023-06-11T03:22:34.007Z</time>
      </trkpt>
      <trkpt lat="55.38965103216469" lon="12.318731797859073">
        <ele>5.69</ele>
        <time>2023-06-11T03:22:48.449Z</time>
      </trkpt>
      <trkpt lat="55.389682967215776" lon="12.318585449829698">
        <ele>5.85</ele>
        <time>2023-06-11T03:23:02.892Z</time>
      </trkpt>
      <trkpt lat="55.38974717259407" lon="12.318291328847408">
        <ele>6.22</ele>
        <time>2023-06-11T03:23:17.338Z</time>
      </trkpt>
      <trkpt lat="55.389779107645154" lon="12.318145064637065">
        <ele>6.37</ele>
        <time>2023-06-11T03:23:31.786Z</time>
      </trkpt>
      <trkpt lat="55.38982721976936" lon="12.317924788221717">
        <ele>6.56</ele>
        <time>2023-06-11T03:23:46.236Z</time>
      </trkpt>
      <trkpt lat="55.38987533189356" lon="12.3177045956254">
        <ele>6.67</ele>
        <time>2023-06-11T03:24:00.688Z</time>
      </trkpt>
      <trkpt lat="55.38989142514765" lon="12.31763075105846">
        <ele>6.68</ele>
        <time>2023-06-11T03:24:15.141Z</time>
      </trkpt>
      <trkpt lat="55.38992369547486" lon="12.317482894286513">
        <ele>6.64</ele>
        <time>2023-06-11T03:24:29.595Z</time>
      </trkpt>
      <trkpt lat="55.390035677701235" lon="12.316970089450479">
        <ele>6.38</ele>
        <time>2023-06-11T03:24:44.054Z</time>
      </trkpt>
      <trkpt lat="55.39006786420941" lon="12.316822232678533">
        <ele>6.33</ele>
        <time>2023-06-11T03:24:58.515Z</time>
      </trkpt>
      <trkpt lat="55.39009988307953" lon="12.31667596846819">
        <ele>6.31</ele>
        <time>2023-06-11T03:25:12.977Z</time>
      </trkpt>
      <trkpt lat="55.39022795855999" lon="12.316089235246181">
        <ele>6.37</ele>
        <time>2023-06-11T03:25:27.445Z</time>
      </trkpt>
      <trkpt lat="55.390292163938284" lon="12.315795114263892">
        <ele>6.33</ele>
        <time>2023-06-11T03:25:41.916Z</time>
      </trkpt>
      <trkpt lat="55.390324434265494" lon="12.315647341310978">
        <ele>6.24</ele>
        <time>2023-06-11T03:25:56.388Z</time>
      </trkpt>
      <trkpt lat="55.39038830436766" lon="12.315354645252228">
        <ele>5.98</ele>
        <time>2023-06-11T03:26:10.863Z</time>
      </trkpt>
      <trkpt lat="55.39042057469487" lon="12.315206872299314">
        <ele>5.87</ele>
        <time>2023-06-11T03:26:25.339Z</time>
      </trkpt>
      <trkpt lat="55.390436332672834" lon="12.315134452655911">
        <ele>5.84</ele>
        <time>2023-06-11T03:26:39.816Z</time>
      </trkpt>
      <trkpt lat="55.390468603000045" lon="12.314986679702997">
        <ele>5.83</ele>
        <time>2023-06-11T03:26:54.295Z</time>
      </trkpt>
      <trkpt lat="55.39050053805113" lon="12.314840331673622">
        <ele>5.86</ele>
        <time>2023-06-11T03:27:08.775Z</time>
      </trkpt>
      <trkpt lat="55.39053247310221" lon="12.314693983644247">
        <ele>5.95</ele>
        <time>2023-06-11T03:27:23.256Z</time>
      </trkpt>
      <trkpt lat="55.39058058522642" lon="12.31447379104793">
        <ele>6.13</ele>
        <time>2023-06-11T03:27:37.740Z</time>
      </trkpt>
      <trkpt lat="55.3906608838588" lon="12.3141058254987">
        <ele>6.48</ele>
        <time>2023-06-11T03:27:52.227Z</time>
      </trkpt>
      <trkpt lat="55.39069281890988" lon="12.313959477469325">
        <ele>6.59</ele>
        <time>2023-06-11T03:28:06.716Z</time>
      </trkpt>
      <trkpt lat="55.39074093103409" lon="12.313739284873009">
        <ele>6.71</ele>
        <time>2023-06-11T03:28:21.207Z</time>
      </trkpt>
      <trkpt lat="55.390837071463466" lon="12.313298815861344">
        <ele>6.88</ele>
        <time>2023-06-11T03:28:35.702Z</time>
      </trkpt>
      <trkpt lat="55.39093321189284" lon="12.312858430668712">
        <ele>6.98</ele>
        <time>2023-06-11T03:28:50.201Z</time>
      </trkpt>
      <trkpt lat="55.39106162264943" lon="12.312270188704133">
        <ele>7.09</ele>
        <time>2023-06-11T03:29:04.706Z</time>
      </trkpt>
      <trkpt lat="55.391253903508186" lon="12.311389334499836">
        <ele>7.15</ele>
        <time>2023-06-11T03:29:19.220Z</time>
      </trkpt>
      <trkpt lat="55.391333950683475" lon="12.311022793874145">
        <ele>7.22</ele>
        <time>2023-06-11T03:29:33.737Z</time>
      </trkpt>
      <trkpt lat="55.39138197898865" lon="12.310802601277828">
        <ele>7.22</ele>
        <time>2023-06-11T03:29:48.256Z</time>
      </trkpt>
      <trkpt lat="55.39144618436694" lon="12.310508480295539">
        <ele>7.15</ele>
        <time>2023-06-11T03:30:02.778Z</time>
      </trkpt>
      <trkpt lat="55.391494296491146" lon="12.310288287699223">
        <ele>7.16</ele>
        <time>2023-06-11T03:30:17.303Z</time>
      </trkpt>
      <trkpt lat="55.39154198952019" lon="12.310069520026445">
        <ele>7.0</ele>
        <time>2023-06-11T03:30:31.830Z</time>
      </trkpt>
      <trkpt lat="55.39158993400633" lon="12.309849997982383">
        <ele>6.88</ele>
        <time>2023-06-11T03:30:46.359Z</time>
      </trkpt>
      <trkpt lat="55.39162069559097" lon="12.309702057391405">
        <ele>6.8</ele>
        <time>2023-06-11T03:31:00.889Z</time>
      </trkpt>
      <trkpt lat="55.39166637696326" lon="12.30948194861412">
        <ele>6.71</ele>
        <time>2023-06-11T03:31:15.421Z</time>
      </trkpt>
      <trkpt lat="55.39169722236693" lon="12.309333253651857">
        <ele>6.69</ele>
        <time>2023-06-11T03:31:29.955Z</time>
      </trkpt>
      <trkpt lat="55.391742903739214" lon="12.309113144874573">
        <ele>6.74</ele>
        <time>2023-06-11T03:31:44.491Z</time>
      </trkpt>
      <trkpt lat="55.39183468557894" lon="12.308671502396464">
        <ele>7.0</ele>
        <time>2023-06-11T03:31:59.031Z</time>
      </trkpt>
      <trkpt lat="55.39188061840832" lon="12.308449884876609">
        <ele>7.08</ele>
        <time>2023-06-11T03:32:13.573Z</time>
      </trkpt>
      <trkpt lat="55.391941806301475" lon="12.308155428618193">
        <ele>7.11</ele>
        <time>2023-06-11T03:32:28.118Z</time>
      </trkpt>
      <trkpt lat="55.391987822949886" lon="12.307933811098337">
        <ele>7.07</ele>
        <time>2023-06-11T03:32:42.665Z</time>
      </trkpt>
      <trkpt lat="55.3920338395983" lon="12.307712277397513">
        <ele>6.62</ele>
        <time>2023-06-11T03:32:57.215Z</time>
      </trkpt>
      <trkpt lat="55.39207994006574" lon="12.307489989325404">
        <ele>6.12</ele>
        <time>2023-06-11T03:33:11.767Z</time>
      </trkpt>
      <trkpt lat="55.39207994006574" lon="12.307489989325404">
        <ele>6.12</ele>
        <time>2023-06-11T03:33:26.319Z</time>
      </trkpt>
      <trkpt lat="55.39216300472617" lon="12.30753961019218">
        <ele>5.81</ele>
        <time>2023-06-11T03:33:40.872Z</time>
      </trkpt>
      <trkpt lat="55.39233164861798" lon="12.307640444487333">
        <ele>5.31</ele>
        <time>2023-06-11T03:33:55.428Z</time>
      </trkpt>
      <trkpt lat="55.39245762862265" lon="12.307715797796845">
        <ele>4.97</ele>
        <time>2023-06-11T03:34:09.986Z</time>
      </trkpt>
      <trkpt lat="55.39258453063667" lon="12.307791570201516">
        <ele>4.71</ele>
        <time>2023-06-11T03:34:24.546Z</time>
      </trkpt>
      <trkpt lat="55.392794916406274" lon="12.307917382568121">
        <ele>4.34</ele>
        <time>2023-06-11T03:34:39.110Z</time>
      </trkpt>
      <trkpt lat="55.39296347647905" lon="12.308018133044243">
        <ele>4.1</ele>
        <time>2023-06-11T03:34:53.677Z</time>
      </trkpt>
      <trkpt lat="55.39299993775785" lon="12.308039925992489">
        <ele>4.05</ele>
        <time>2023-06-11T03:35:08.244Z</time>
      </trkpt>
      <trkpt lat="55.39326195605099" lon="12.308172946795821">
        <ele>3.74</ele>
        <time>2023-06-11T03:35:22.816Z</time>
      </trkpt>
      <trkpt lat="55.39334753528237" lon="12.308216281235218">
        <ele>3.68</ele>
        <time>2023-06-11T03:35:37.389Z</time>
      </trkpt>
      <trkpt lat="55.39356177672744" lon="12.308325078338385">
        <ele>3.57</ele>
        <time>2023-06-11T03:35:51.966Z</time>
      </trkpt>
      <trkpt lat="55.39364735595882" lon="12.308368496596813">
        <ele>3.56</ele>
        <time>2023-06-11T03:36:06.544Z</time>
      </trkpt>
      <trkpt lat="55.39366998709738" lon="12.308379979804158">
        <ele>3.56</ele>
        <time>2023-06-11T03:36:21.122Z</time>
      </trkpt>
      <trkpt lat="55.39377735927701" lon="12.308418368920684">
        <ele>3.59</ele>
        <time>2023-06-11T03:36:35.702Z</time>
      </trkpt>
      <trkpt lat="55.39421355351806" lon="12.308574607595801">
        <ele>3.82</ele>
        <time>2023-06-11T03:36:50.289Z</time>
      </trkpt>
      <trkpt lat="55.39451848715544" lon="12.308683739975095">
        <ele>4.05</ele>
        <time>2023-06-11T03:37:04.881Z</time>
      </trkpt>
      <trkpt lat="55.3947361651808" lon="12.30876169167459">
        <ele>4.31</ele>
        <time>2023-06-11T03:37:19.477Z</time>
      </trkpt>
      <trkpt lat="55.3951230738312" lon="12.308900244534016">
        <ele>4.13</ele>
        <time>2023-06-11T03:37:34.079Z</time>
      </trkpt>
      <trkpt lat="55.395289957523346" lon="12.308959923684597">
        <ele>4.12</ele>
        <time>2023-06-11T03:37:48.684Z</time>
      </trkpt>
      <trkpt lat="55.39546446874738" lon="12.309046844020486">
        <ele>4.12</ele>
        <time>2023-06-11T03:38:03.292Z</time>
      </trkpt>
      <trkpt lat="55.39567560888827" lon="12.309151953086257">
        <ele>4.06</ele>
        <time>2023-06-11T03:38:17.903Z</time>
      </trkpt>
      <trkpt lat="55.39588591083884" lon="12.309256559237838">
        <ele>4.09</ele>
        <time>2023-06-11T03:38:32.518Z</time>
      </trkpt>
      <trkpt lat="55.39613259024918" lon="12.3093793541193">
        <ele>4.02</ele>
        <time>2023-06-11T03:38:47.137Z</time>
      </trkpt>
      <trkpt lat="55.39621473290026" lon="12.309420257806778">
        <ele>3.97</ele>
        <time>2023-06-11T03:39:01.757Z</time>
      </trkpt>
      <trkpt lat="55.39641983807087" lon="12.309522349387407">
        <ele>3.8</ele>
        <time>2023-06-11T03:39:16.381Z</time>
      </trkpt>
      <trkpt lat="55.39697891101241" lon="12.309800628572702">
        <ele>3.54</ele>
        <time>2023-06-11T03:39:31.014Z</time>
      </trkpt>
      <trkpt lat="55.39742114022374" lon="12.310020737349987">
        <ele>3.36</ele>
        <time>2023-06-11T03:39:45.655Z</time>
      </trkpt>
      <trkpt lat="55.397519962862134" lon="12.310069939121604">
        <ele>3.33</ele>
        <time>2023-06-11T03:40:00.297Z</time>
      </trkpt>
      <trkpt lat="55.39770394563675" lon="12.310150489211082">
        <ele>3.3</ele>
        <time>2023-06-11T03:40:14.942Z</time>
      </trkpt>
      <trkpt lat="55.39805397391319" lon="12.310303542762995">
        <ele>3.2</ele>
        <time>2023-06-11T03:40:29.593Z</time>
      </trkpt>
      <trkpt lat="55.39822152815759" lon="12.310376884415746">
        <ele>2.83</ele>
        <time>2023-06-11T03:40:44.247Z</time>
      </trkpt>
      <trkpt lat="55.39830534718931" lon="12.310413513332605">
        <ele>2.67</ele>
        <time>2023-06-11T03:40:58.902Z</time>
      </trkpt>
      <trkpt lat="55.398319931700826" lon="12.310419967398047">
        <ele>2.65</ele>
        <time>2023-06-11T03:41:13.557Z</time>
      </trkpt>
      <trkpt lat="55.39838941767812" lon="12.310454249382019">
        <ele>2.56</ele>
        <time>2023-06-11T03:41:28.214Z</time>
      </trkpt>
      <trkpt lat="55.39847256615758" lon="12.31049532070756">
        <ele>2.5</ele>
        <time>2023-06-11T03:41:42.872Z</time>
      </trkpt>
      <trkpt lat="55.39855571463704" lon="12.3105363920331">
        <ele>2.49</ele>
        <time>2023-06-11T03:41:57.531Z</time>
      </trkpt>
      <trkpt lat="55.39863970130682" lon="12.3105778824538">
        <ele>2.53</ele>
        <time>2023-06-11T03:42:12.192Z</time>
      </trkpt>
      <trkpt lat="55.39872276596725" lon="12.31061895377934">
        <ele>2.61</ele>
        <time>2023-06-11T03:42:26.854Z</time>
      </trkpt>
      <trkpt lat="55.39888906292617" lon="12.31070109643042">
        <ele>2.86</ele>
        <time>2023-06-11T03:42:41.519Z</time>
      </trkpt>
      <trkpt lat="55.39905359968543" lon="12.310782317072153">
        <ele>2.75</ele>
        <time>2023-06-11T03:42:56.187Z</time>
      </trkpt>
      <trkpt lat="55.3991499915719" lon="12.310829926282167">
        <ele>2.7</ele>
        <time>2023-06-11T03:43:10.856Z</time>
      </trkpt>
      <trkpt lat="55.39915611036122" lon="12.310782568529248">
        <ele>2.69</ele>
        <time>2023-06-11T03:43:25.526Z</time>
      </trkpt>
      <trkpt lat="55.39917522110045" lon="12.310635969042778">
        <ele>2.68</ele>
        <time>2023-06-11T03:43:40.197Z</time>
      </trkpt>
      <trkpt lat="55.39920371957123" lon="12.31041669845581">
        <ele>2.71</ele>
        <time>2023-06-11T03:43:54.870Z</time>
      </trkpt>
      <trkpt lat="55.39928167127073" lon="12.309817811474204">
        <ele>2.65</ele>
        <time>2023-06-11T03:44:09.549Z</time>
      </trkpt>
      <trkpt lat="55.39934973232448" lon="12.309294445440173">
        <ele>2.52</ele>
        <time>2023-06-11T03:44:24.233Z</time>
      </trkpt>
      <trkpt lat="55.39937890134752" lon="12.309070648625493">
        <ele>2.51</ele>
        <time>2023-06-11T03:44:38.919Z</time>
      </trkpt>
      <trkpt lat="55.399427684023976" lon="12.308695474639535">
        <ele>2.54</ele>
        <time>2023-06-11T03:44:53.608Z</time>
      </trkpt>
      <trkpt lat="55.399438915774226" lon="12.308609057217836">
        <ele>2.51</ele>
        <time>2023-06-11T03:45:08.298Z</time>
      </trkpt>
      <trkpt lat="55.399467665702105" lon="12.308388277888298">
        <ele>2.48</ele>
        <time>2023-06-11T03:45:22.990Z</time>
      </trkpt>
      <trkpt lat="55.399499936029315" lon="12.308139922097325">
        <ele>2.42</ele>
        <time>2023-06-11T03:45:37.684Z</time>
      </trkpt>
      <trkpt lat="55.39953061379492" lon="12.30794764123857">
        <ele>2.38</ele>
        <time>2023-06-11T03:45:52.380Z</time>
      </trkpt>
      <trkpt lat="55.39957688190043" lon="12.307657962664962">
        <ele>2.35</ele>
        <time>2023-06-11T03:46:07.079Z</time>
      </trkpt>
      <trkpt lat="55.39961267262697" lon="12.307433830574155">
        <ele>2.27</ele>
        <time>2023-06-11T03:46:21.780Z</time>
      </trkpt>
      <trkpt lat="55.399649972096086" lon="12.307199975475669">
        <ele>2.25</ele>
        <time>2023-06-11T03:46:36.483Z</time>
      </trkpt>
      <trkpt lat="55.39968836121261" lon="12.306992774829268">
        <ele>2.25</ele>
        <time>2023-06-11T03:46:51.188Z</time>
      </trkpt>
      <trkpt lat="55.39978357963264" lon="12.306479383260012">
        <ele>2.11</ele>
        <time>2023-06-11T03:47:05.898Z</time>
      </trkpt>
      <trkpt lat="55.39981090463698" lon="12.306331861764193">
        <ele>2.1</ele>
        <time>2023-06-11T03:47:20.610Z</time>
      </trkpt>
      <trkpt lat="55.39994685910642" lon="12.305598696693778">
        <ele>2.21</ele>
        <time>2023-06-11T03:47:35.329Z</time>
      </trkpt>
      <trkpt lat="55.400125812739134" lon="12.304633688181639">
        <ele>2.09</ele>
        <time>2023-06-11T03:47:50.057Z</time>
      </trkpt>
      <trkpt lat="55.400206530466676" lon="12.304198583588004">
        <ele>2.0</ele>
        <time>2023-06-11T03:48:04.789Z</time>
      </trkpt>
      <trkpt lat="55.400209967046976" lon="12.304179975762963">
        <ele>1.99</ele>
        <time>2023-06-11T03:48:19.521Z</time>
      </trkpt>
      <trkpt lat="55.40032161399722" lon="12.303625177592039">
        <ele>1.94</ele>
        <time>2023-06-11T03:48:34.259Z</time>
      </trkpt>
      <trkpt lat="55.40044172666967" lon="12.303028050810099">
        <ele>1.91</ele>
        <time>2023-06-11T03:48:49.002Z</time>
      </trkpt>
      <trkpt lat="55.40050174109638" lon="12.302729487419128">
        <ele>1.86</ele>
        <time>2023-06-11T03:49:03.748Z</time>
      </trkpt>
      <trkpt lat="55.400549937039614" lon="12.302489932626486">
        <ele>1.79</ele>
        <time>2023-06-11T03:49:18.497Z</time>
      </trkpt>
      <trkpt lat="55.400582710281014" lon="12.30236210860312">
        <ele>1.76</ele>
        <time>2023-06-11T03:49:33.247Z</time>
      </trkpt>
      <trkpt lat="55.40061975829303" lon="12.302217772230506">
        <ele>1.75</ele>
        <time>2023-06-11T03:49:47.998Z</time>
      </trkpt>
      <trkpt lat="55.40067524649203" lon="12.302001183852553">
        <ele>1.78</ele>
        <time>2023-06-11T03:50:02.751Z</time>
      </trkpt>
      <trkpt lat="55.40078622289002" lon="12.301568174734712">
        <ele>1.92</ele>
        <time>2023-06-11T03:50:17.509Z</time>
      </trkpt>
      <trkpt lat="55.400823187083006" lon="12.301423754543066">
        <ele>1.94</ele>
        <time>2023-06-11T03:50:32.268Z</time>
      </trkpt>
      <trkpt lat="55.40091530419886" lon="12.30106433853507">
        <ele>1.95</ele>
        <time>2023-06-11T03:50:47.031Z</time>
      </trkpt>
      <trkpt lat="55.40102628059685" lon="12.300631245598197">
        <ele>1.92</ele>
        <time>2023-06-11T03:51:01.798Z</time>
      </trkpt>
      <trkpt lat="55.4010599758476" lon="12.30049998499453">
        <ele>1.92</ele>
        <time>2023-06-11T03:51:16.567Z</time>
      </trkpt>
      <trkpt lat="55.40132995694876" lon="12.299569929018617">
        <ele>1.94</ele>
        <time>2023-06-11T03:51:31.345Z</time>
      </trkpt>
      <trkpt lat="55.40158702991903" lon="12.298934748396277">
        <ele>1.96</ele>
        <time>2023-06-11T03:51:46.130Z</time>
      </trkpt>
      <trkpt lat="55.401669926941395" lon="12.298729978501797">
        <ele>1.99</ele>
        <time>2023-06-11T03:52:00.917Z</time>
      </trkpt>
      <trkpt lat="55.40172885172069" lon="12.298540798947215">
        <ele>2.02</ele>
        <time>2023-06-11T03:52:15.706Z</time>
      </trkpt>
      <trkpt lat="55.401859944686294" lon="12.298119943588972">
        <ele>2.05</ele>
        <time>2023-06-11T03:52:30.500Z</time>
      </trkpt>
      <trkpt lat="55.40189833380282" lon="12.297998238354921">
        <ele>2.07</ele>
        <time>2023-06-11T03:52:45.295Z</time>
      </trkpt>
      <trkpt lat="55.402099667117" lon="12.297359956428409">
        <ele>2.09</ele>
        <time>2023-06-11T03:53:00.097Z</time>
      </trkpt>
      <trkpt lat="55.402248529717326" lon="12.296887803822756">
        <ele>2.08</ele>
        <time>2023-06-11T03:53:14.904Z</time>
      </trkpt>
      <trkpt lat="55.40244030766189" lon="12.296279948204756">
        <ele>2.15</ele>
        <time>2023-06-11T03:53:29.717Z</time>
      </trkpt>
      <trkpt lat="55.4025468416512" lon="12.295942073687911">
        <ele>2.14</ele>
        <time>2023-06-11T03:53:44.534Z</time>
      </trkpt>
      <trkpt lat="55.402679946273565" lon="12.295519961044192">
        <ele>2.16</ele>
        <time>2023-06-11T03:53:59.355Z</time>
      </trkpt>
      <trkpt lat="55.40280533954501" lon="12.295099021866918">
        <ele>2.18</ele>
        <time>2023-06-11T03:54:14.180Z</time>
      </trkpt>
      <trkpt lat="55.402945736423135" lon="12.294627791270614">
        <ele>2.15</ele>
        <time>2023-06-11T03:54:29.010Z</time>
      </trkpt>
      <trkpt lat="55.40315134450793" lon="12.293937793001533">
        <ele>2.17</ele>
        <time>2023-06-11T03:54:43.847Z</time>
      </trkpt>
      <trkpt lat="55.403384109959006" lon="12.293156599625945">
        <ele>2.23</ele>
        <time>2023-06-11T03:54:58.692Z</time>
      </trkpt>
      <trkpt lat="55.403422163799405" lon="12.293028943240643">
        <ele>2.27</ele>
        <time>2023-06-11T03:55:13.539Z</time>
      </trkpt>
      <trkpt lat="55.40346600115299" lon="12.292881673201919">
        <ele>2.18</ele>
        <time>2023-06-11T03:55:28.387Z</time>
      </trkpt>
      <trkpt lat="55.40354998782277" lon="12.292599957436323">
        <ele>2.06</ele>
        <time>2023-06-11T03:55:43.238Z</time>
      </trkpt>
      <trkpt lat="55.40374436415732" lon="12.292106682434678">
        <ele>1.85</ele>
        <time>2023-06-11T03:55:58.094Z</time>
      </trkpt>
      <trkpt lat="55.40384695865214" lon="12.291846424341202">
        <ele>1.78</ele>
        <time>2023-06-11T03:56:12.953Z</time>
      </trkpt>
      <trkpt lat="55.40408995002508" lon="12.291229935362935">
        <ele>1.72</ele>
        <time>2023-06-11T03:56:27.819Z</time>
      </trkpt>
      <trkpt lat="55.40425398387015" lon="12.29072148911655">
        <ele>1.69</ele>
        <time>2023-06-11T03:56:42.691Z</time>
      </trkpt>
      <trkpt lat="55.40438993833959" lon="12.290299963206053">
        <ele>1.67</ele>
        <time>2023-06-11T03:56:57.567Z</time>
      </trkpt>
      <trkpt lat="55.404446516186" lon="12.290149591863155">
        <ele>1.67</ele>
        <time>2023-06-11T03:57:12.445Z</time>
      </trkpt>
      <trkpt lat="55.40467492304742" lon="12.289542071521282">
        <ele>1.73</ele>
        <time>2023-06-11T03:57:27.329Z</time>
      </trkpt>
      <trkpt lat="55.4048299882561" lon="12.289129933342338">
        <ele>1.79</ele>
        <time>2023-06-11T03:57:42.218Z</time>
      </trkpt>
      <trkpt lat="55.404844069853425" lon="12.28909539990127">
        <ele>1.8</ele>
        <time>2023-06-11T03:57:57.107Z</time>
      </trkpt>
      <trkpt lat="55.40503341704607" lon="12.288632886484265">
        <ele>1.9</ele>
        <time>2023-06-11T03:58:12.001Z</time>
      </trkpt>
      <trkpt lat="55.405284874141216" lon="12.288018660619855">
        <ele>2.0</ele>
        <time>2023-06-11T03:58:26.902Z</time>
      </trkpt>
      <trkpt lat="55.405408423393965" lon="12.287716744467616">
        <ele>2.09</ele>
        <time>2023-06-11T03:58:41.807Z</time>
      </trkpt>
      <trkpt lat="55.40558201260865" lon="12.2872927878052">
        <ele>2.15</ele>
        <time>2023-06-11T03:58:56.716Z</time>
      </trkpt>
      <trkpt lat="55.40577605366707" lon="12.286818623542786">
        <ele>2.17</ele>
        <time>2023-06-11T03:59:11.631Z</time>
      </trkpt>
      <trkpt lat="55.4059281013906" lon="12.286447305232286">
        <ele>2.22</ele>
        <time>2023-06-11T03:59:26.550Z</time>
      </trkpt>
      <trkpt lat="55.40628676302731" lon="12.285571061074734">
        <ele>2.14</ele>
        <time>2023-06-11T03:59:41.479Z</time>
      </trkpt>
      <trkpt lat="55.40631995536387" lon="12.285489924252033">
        <ele>2.11</ele>
        <time>2023-06-11T03:59:56.409Z</time>
      </trkpt>
      <trkpt lat="55.40649153292179" lon="12.284962283447385">
        <ele>1.97</ele>
        <time>2023-06-11T04:00:11.344Z</time>
      </trkpt>
      <trkpt lat="55.4066913574934" lon="12.284347889944911">
        <ele>1.93</ele>
        <time>2023-06-11T04:00:26.286Z</time>
      </trkpt>
      <trkpt lat="55.406757490709424" lon="12.284144461154938">
        <ele>1.88</ele>
        <time>2023-06-11T04:00:41.230Z</time>
      </trkpt>
      <trkpt lat="55.40689118206501" lon="12.283733496442437">
        <ele>1.74</ele>
        <time>2023-06-11T04:00:56.178Z</time>
      </trkpt>
      <trkpt lat="55.40695731528103" lon="12.283530067652464">
        <ele>1.7</ele>
        <time>2023-06-11T04:01:11.128Z</time>
      </trkpt>
      <trkpt lat="55.40717951953411" lon="12.282846942543983">
        <ele>1.72</ele>
        <time>2023-06-11T04:01:26.085Z</time>
      </trkpt>
      <trkpt lat="55.40731270797551" lon="12.28243731893599">
        <ele>1.68</ele>
        <time>2023-06-11T04:01:41.047Z</time>
      </trkpt>
      <trkpt lat="55.407445477321744" lon="12.282029120251536">
        <ele>1.73</ele>
        <time>2023-06-11T04:01:56.013Z</time>
      </trkpt>
      <trkpt lat="55.40777798742056" lon="12.281006444245577">
        <ele>1.75</ele>
        <time>2023-06-11T04:02:10.990Z</time>
      </trkpt>
      <trkpt lat="55.40788711979985" lon="12.280671084299684">
        <ele>1.81</ele>
        <time>2023-06-11T04:02:25.970Z</time>
      </trkpt>
      <trkpt lat="55.407919976860285" lon="12.280569998547435">
        <ele>1.8</ele>
        <time>2023-06-11T04:02:40.951Z</time>
      </trkpt>
      <trkpt lat="55.40802072733641" lon="12.280183592811227">
        <ele>1.77</ele>
        <time>2023-06-11T04:02:55.936Z</time>
      </trkpt>
      <trkpt lat="55.40809993632138" lon="12.279879916459322">
        <ele>1.79</ele>
        <time>2023-06-11T04:03:10.924Z</time>
      </trkpt>
      <trkpt lat="55.40811175480485" lon="12.279751589521766">
        <ele>1.8</ele>
        <time>2023-06-11T04:03:25.913Z</time>
      </trkpt>
      <trkpt lat="55.40815374813974" lon="12.27929343469441">
        <ele>1.78</ele>
        <time>2023-06-11T04:03:40.907Z</time>
      </trkpt>
      <trkpt lat="55.40818157605827" lon="12.2789900097996">
        <ele>1.82</ele>
        <time>2023-06-11T04:03:55.903Z</time>
      </trkpt>
      <trkpt lat="55.40821669623256" lon="12.278606873005629">
        <ele>1.93</ele>
        <time>2023-06-11T04:04:10.903Z</time>
      </trkpt>
      <trkpt lat="55.40825198404491" lon="12.278222227469087">
        <ele>1.65</ele>
        <time>2023-06-11T04:04:25.907Z</time>
      </trkpt>
      <trkpt lat="55.40828039869666" lon="12.27791259996593">
        <ele>1.49</ele>
        <time>2023-06-11T04:04:40.913Z</time>
      </trkpt>
      <trkpt lat="55.40830185636878" lon="12.277677990496159">
        <ele>1.48</ele>
        <time>2023-06-11T04:04:55.922Z</time>
      </trkpt>
      <trkpt lat="55.40830998681486" lon="12.277589980512857">
        <ele>1.5</ele>
        <time>2023-06-11T04:05:10.931Z</time>
      </trkpt>
      <trkpt lat="55.40830386802554" lon="12.27721044793725">
        <ele>1.59</ele>
        <time>2023-06-11T04:05:25.944Z</time>
      </trkpt>
      <trkpt lat="55.40829992853105" lon="12.276969971135259">
        <ele>1.56</ele>
        <time>2023-06-11T04:05:40.959Z</time>
      </trkpt>
      <trkpt lat="55.40830763988197" lon="12.27673888206482">
        <ele>1.55</ele>
        <time>2023-06-11T04:05:55.976Z</time>
      </trkpt>
      <trkpt lat="55.40830998681486" lon="12.27666998282075">
        <ele>1.55</ele>
        <time>2023-06-11T04:06:10.994Z</time>
      </trkpt>
      <trkpt lat="55.40835994295776" lon="12.276359936222434">
        <ele>1.55</ele>
        <time>2023-06-11T04:06:26.015Z</time>
      </trkpt>
      <trkpt lat="55.40839028544724" lon="12.276210822165012">
        <ele>1.56</ele>
        <time>2023-06-11T04:06:41.037Z</time>
      </trkpt>
      <trkpt lat="55.4085252340883" lon="12.275547226890922">
        <ele>1.51</ele>
        <time>2023-06-11T04:06:56.066Z</time>
      </trkpt>
      <trkpt lat="55.40855532512069" lon="12.27539962157607">
        <ele>1.53</ele>
        <time>2023-06-11T04:07:11.096Z</time>
      </trkpt>
      <trkpt lat="55.40859991684556" lon="12.275179931893945">
        <ele>1.58</ele>
        <time>2023-06-11T04:07:26.128Z</time>
      </trkpt>
      <trkpt lat="55.40861802175641" lon="12.27510784752667">
        <ele>1.61</ele>
        <time>2023-06-11T04:07:41.161Z</time>
      </trkpt>
      <trkpt lat="55.408779960125685" lon="12.274459842592478">
        <ele>1.71</ele>
        <time>2023-06-11T04:07:56.200Z</time>
      </trkpt>
      <trkpt lat="55.408851793035865" lon="12.274172762408853">
        <ele>1.79</ele>
        <time>2023-06-11T04:08:11.242Z</time>
      </trkpt>
      <trkpt lat="55.40886998176575" lon="12.274099923670292">
        <ele>1.8</ele>
        <time>2023-06-11T04:08:26.285Z</time>
      </trkpt>
      <trkpt lat="55.4089742526412" lon="12.273754924535751">
        <ele>1.87</ele>
        <time>2023-06-11T04:08:41.331Z</time>
      </trkpt>
      <trkpt lat="55.40899998508394" lon="12.273669932037592">
        <ele>1.87</ele>
        <time>2023-06-11T04:08:56.378Z</time>
      </trkpt>
      <trkpt lat="55.409065783023834" lon="12.273487960919738">
        <ele>1.89</ele>
        <time>2023-06-11T04:09:11.427Z</time>
      </trkpt>
      <trkpt lat="55.40916997008026" lon="12.273199958726764">
        <ele>1.87</ele>
        <time>2023-06-11T04:09:26.479Z</time>
      </trkpt>
      <trkpt lat="55.40921523235738" lon="12.273096609860659">
        <ele>1.87</ele>
        <time>2023-06-11T04:09:41.533Z</time>
      </trkpt>
      <trkpt lat="55.409296033903956" lon="12.272912291809916">
        <ele>1.9</ele>
        <time>2023-06-11T04:09:56.589Z</time>
      </trkpt>
      <trkpt lat="55.409405417740345" lon="12.2726627625525">
        <ele>1.98</ele>
        <time>2023-06-11T04:10:11.648Z</time>
      </trkpt>
      <trkpt lat="55.40951421484351" lon="12.272414406761527">
        <ele>2.13</ele>
        <time>2023-06-11T04:10:26.709Z</time>
      </trkpt>
      <trkpt lat="55.40970708243549" lon="12.27197427302599">
        <ele>2.13</ele>
        <time>2023-06-11T04:10:41.776Z</time>
      </trkpt>
      <trkpt lat="55.40978679433465" lon="12.271792469546199">
        <ele>2.2</ele>
        <time>2023-06-11T04:10:56.845Z</time>
      </trkpt>
      <trkpt lat="55.409867009148" lon="12.271609408780932">
        <ele>2.22</ele>
        <time>2023-06-11T04:11:11.916Z</time>
      </trkpt>
      <trkpt lat="55.409879917278886" lon="12.2715799883008">
        <ele>2.21</ele>
        <time>2023-06-11T04:11:26.987Z</time>
      </trkpt>
      <trkpt lat="55.410074880346656" lon="12.2710239328444">
        <ele>2.19</ele>
        <time>2023-06-11T04:11:42.064Z</time>
      </trkpt>
      <trkpt lat="55.41016657836735" lon="12.27076250128448">
        <ele>2.13</ele>
        <time>2023-06-11T04:11:57.144Z</time>
      </trkpt>
      <trkpt lat="55.41041845455766" lon="12.270044088363647">
        <ele>2.05</ele>
        <time>2023-06-11T04:12:12.232Z</time>
      </trkpt>
      <trkpt lat="55.41055650450289" lon="12.269650558009744">
        <ele>2.05</ele>
        <time>2023-06-11T04:12:27.324Z</time>
      </trkpt>
      <trkpt lat="55.410785246640444" lon="12.268998194485903">
        <ele>1.95</ele>
        <time>2023-06-11T04:12:42.423Z</time>
      </trkpt>
      <trkpt lat="55.410854648798704" lon="12.268800046294928">
        <ele>1.97</ele>
        <time>2023-06-11T04:12:57.524Z</time>
      </trkpt>
      <trkpt lat="55.41110895574093" lon="12.268074927851558">
        <ele>2.24</ele>
        <time>2023-06-11T04:13:12.633Z</time>
      </trkpt>
      <trkpt lat="55.411155223846436" lon="12.267942829057574">
        <ele>2.26</ele>
        <time>2023-06-11T04:13:27.743Z</time>
      </trkpt>
      <trkpt lat="55.41120249778032" lon="12.267808048054576">
        <ele>2.26</ele>
        <time>2023-06-11T04:13:42.855Z</time>
      </trkpt>
      <trkpt lat="55.41136653162539" lon="12.267340337857604">
        <ele>2.15</ele>
        <time>2023-06-11T04:13:57.972Z</time>
      </trkpt>
      <trkpt lat="55.41148320771754" lon="12.26700740866363">
        <ele>2.15</ele>
        <time>2023-06-11T04:14:13.092Z</time>
      </trkpt>
      <trkpt lat="55.411646235734224" lon="12.266542464494705">
        <ele>2.21</ele>
        <time>2023-06-11T04:14:28.217Z</time>
      </trkpt>
      <trkpt lat="55.41173843666911" lon="12.266279608011246">
        <ele>2.21</ele>
        <time>2023-06-11T04:14:43.345Z</time>
      </trkpt>
      <trkpt lat="55.411785710603" lon="12.266144827008247">
        <ele>2.2</ele>
        <time>2023-06-11T04:14:58.474Z</time>
      </trkpt>
      <trkpt lat="55.41204043664038" lon="12.26541836746037">
        <ele>2.07</ele>
        <time>2023-06-11T04:15:13.611Z</time>
      </trkpt>
      <trkpt lat="55.41222995147109" lon="12.26487790234387">
        <ele>2.02</ele>
        <time>2023-06-11T04:15:28.754Z</time>
      </trkpt>
      <trkpt lat="55.412322571501136" lon="12.264613704755902">
        <ele>1.92</ele>
        <time>2023-06-11T04:15:43.900Z</time>
      </trkpt>
      <trkpt lat="55.41237998753786" lon="12.26444992236793">
        <ele>1.83</ele>
        <time>2023-06-11T04:15:59.047Z</time>
      </trkpt>
      <trkpt lat="55.41246632114053" lon="12.264221012592316">
        <ele>1.71</ele>
        <time>2023-06-11T04:16:14.197Z</time>
      </trkpt>
      <trkpt lat="55.41276102885604" lon="12.26343990303576">
        <ele>1.49</ele>
        <time>2023-06-11T04:16:29.356Z</time>
      </trkpt>
      <trkpt lat="55.412932271137834" lon="12.262986022979021">
        <ele>1.26</ele>
        <time>2023-06-11T04:16:44.520Z</time>
      </trkpt>
      <trkpt lat="55.41298155672848" lon="12.262855432927608">
        <ele>1.22</ele>
        <time>2023-06-11T04:16:59.685Z</time>
      </trkpt>
      <trkpt lat="55.41305523365736" lon="12.262660134583712">
        <ele>1.2</ele>
        <time>2023-06-11T04:17:14.852Z</time>
      </trkpt>
      <trkpt lat="55.41315279901028" lon="12.26240155287087">
        <ele>1.24</ele>
        <time>2023-06-11T04:17:30.022Z</time>
      </trkpt>
      <trkpt lat="55.41325036436319" lon="12.262142971158028">
        <ele>1.21</ele>
        <time>2023-06-11T04:17:45.195Z</time>
      </trkpt>
      <trkpt lat="55.41329914703965" lon="12.26201363839209">
        <ele>1.12</ele>
        <time>2023-06-11T04:18:00.369Z</time>
      </trkpt>
      <trkpt lat="55.41334792971611" lon="12.261884305626154">
        <ele>1.06</ele>
        <time>2023-06-11T04:18:15.545Z</time>
      </trkpt>
      <trkpt lat="55.41340995579958" lon="12.26171993650496">
        <ele>1.0</ele>
        <time>2023-06-11T04:18:30.722Z</time>
      </trkpt>
      <trkpt lat="55.41344432160258" lon="12.261622454971075">
        <ele>0.97</ele>
        <time>2023-06-11T04:18:45.900Z</time>
      </trkpt>
      <trkpt lat="55.41351456195116" lon="12.26142330095172">
        <ele>0.96</ele>
        <time>2023-06-11T04:19:01.081Z</time>
      </trkpt>
      <trkpt lat="55.413700975477695" lon="12.260894319042563">
        <ele>1.01</ele>
        <time>2023-06-11T04:19:16.267Z</time>
      </trkpt>
      <trkpt lat="55.41383994743228" lon="12.260499950498343">
        <ele>0.95</ele>
        <time>2023-06-11T04:19:31.457Z</time>
      </trkpt>
      <trkpt lat="55.413858806714416" lon="12.260426273569465">
        <ele>0.95</ele>
        <time>2023-06-11T04:19:46.648Z</time>
      </trkpt>
      <trkpt lat="55.41391312144697" lon="12.26021395996213">
        <ele>1.0</ele>
        <time>2023-06-11T04:20:01.841Z</time>
      </trkpt>
      <trkpt lat="55.41394991800189" lon="12.260069958865643">
        <ele>1.08</ele>
        <time>2023-06-11T04:20:17.036Z</time>
      </trkpt>
      <trkpt lat="55.414025438949466" lon="12.259706435725093">
        <ele>1.28</ele>
        <time>2023-06-11T04:20:32.234Z</time>
      </trkpt>
      <trkpt lat="55.41405997239053" lon="12.259539971128106">
        <ele>1.26</ele>
        <time>2023-06-11T04:20:47.434Z</time>
      </trkpt>
      <trkpt lat="55.41417798958719" lon="12.259137136861682">
        <ele>1.24</ele>
        <time>2023-06-11T04:21:02.638Z</time>
      </trkpt>
      <trkpt lat="55.41432190686464" lon="12.258645789697766">
        <ele>1.29</ele>
        <time>2023-06-11T04:21:17.847Z</time>
      </trkpt>
      <trkpt lat="55.41434998624027" lon="12.258549984544516">
        <ele>1.29</ele>
        <time>2023-06-11T04:21:33.057Z</time>
      </trkpt>
      <trkpt lat="55.41439994238317" lon="12.258229963481426">
        <ele>1.29</ele>
        <time>2023-06-11T04:21:48.270Z</time>
      </trkpt>
      <trkpt lat="55.4144172091037" lon="12.258041622117162">
        <ele>1.3</ele>
        <time>2023-06-11T04:22:03.485Z</time>
      </trkpt>
      <trkpt lat="55.41446012444794" lon="12.25757391192019">
        <ele>1.23</ele>
        <time>2023-06-11T04:22:18.704Z</time>
      </trkpt>
      <trkpt lat="55.41448870673776" lon="12.25726269185543">
        <ele>1.21</ele>
        <time>2023-06-11T04:22:33.926Z</time>
      </trkpt>
      <trkpt lat="55.41449993848801" lon="12.257139980793">
        <ele>1.18</ele>
        <time>2023-06-11T04:22:49.149Z</time>
      </trkpt>
      <trkpt lat="55.414523743093014" lon="12.256953651085496">
        <ele>1.15</ele>
        <time>2023-06-11T04:23:04.374Z</time>
      </trkpt>
      <trkpt lat="55.41454344056547" lon="12.256799088791013">
        <ele>1.14</ele>
        <time>2023-06-11T04:23:19.600Z</time>
      </trkpt>
      <trkpt lat="55.414559952914715" lon="12.25666992366314">
        <ele>1.16</ele>
        <time>2023-06-11T04:23:34.828Z</time>
      </trkpt>
      <trkpt lat="55.41463254019618" lon="12.256270945072174">
        <ele>1.26</ele>
        <time>2023-06-11T04:23:50.059Z</time>
      </trkpt>
      <trkpt lat="55.41465994901955" lon="12.256119986996055">
        <ele>1.26</ele>
        <time>2023-06-11T04:24:05.292Z</time>
      </trkpt>
      <trkpt lat="55.41487251408398" lon="12.25545085966587">
        <ele>1.3</ele>
        <time>2023-06-11T04:24:20.532Z</time>
      </trkpt>
      <trkpt lat="55.41492993012071" lon="12.255269978195429">
        <ele>1.3</ele>
        <time>2023-06-11T04:24:35.774Z</time>
      </trkpt>
      <trkpt lat="55.41501794010401" lon="12.254882901906967">
        <ele>1.3</ele>
        <time>2023-06-11T04:24:51.019Z</time>
      </trkpt>
      <trkpt lat="55.41507996618748" lon="12.254609987139702">
        <ele>1.35</ele>
        <time>2023-06-11T04:25:06.267Z</time>
      </trkpt>
      <trkpt lat="55.41514995507896" lon="12.254189969971776">
        <ele>1.43</ele>
        <time>2023-06-11T04:25:21.519Z</time>
      </trkpt>
      <trkpt lat="55.415165880694985" lon="12.254067761823535">
        <ele>1.46</ele>
        <time>2023-06-11T04:25:36.772Z</time>
      </trkpt>
      <trkpt lat="55.41520561091602" lon="12.25376358255744">
        <ele>1.47</ele>
        <time>2023-06-11T04:25:52.028Z</time>
      </trkpt>
      <trkpt lat="55.415274845436215" lon="12.25323242135346">
        <ele>1.55</ele>
        <time>2023-06-11T04:26:07.289Z</time>
      </trkpt>
      <trkpt lat="55.41534433141351" lon="12.252699667587876">
        <ele>1.56</ele>
        <time>2023-06-11T04:26:22.555Z</time>
      </trkpt>
      <trkpt lat="55.41535992175341" lon="12.252579974010587">
        <ele>1.58</ele>
        <time>2023-06-11T04:26:37.822Z</time>
      </trkpt>
      <trkpt lat="55.41542798280716" lon="12.252175128087401">
        <ele>1.65</ele>
        <time>2023-06-11T04:26:53.093Z</time>
      </trkpt>
      <trkpt lat="55.41550333611667" lon="12.251727031543851">
        <ele>1.67</ele>
        <time>2023-06-11T04:27:08.368Z</time>
      </trkpt>
      <trkpt lat="55.41554088704288" lon="12.25150365382433">
        <ele>1.66</ele>
        <time>2023-06-11T04:27:23.645Z</time>
      </trkpt>
      <trkpt lat="55.41559067554772" lon="12.251207437366247">
        <ele>1.68</ele>
        <time>2023-06-11T04:27:38.925Z</time>
      </trkpt>
      <trkpt lat="55.41564071550965" lon="12.250909712165594">
        <ele>1.72</ele>
        <time>2023-06-11T04:27:54.208Z</time>
      </trkpt>
      <trkpt lat="55.415677931159735" lon="12.250687843188643">
        <ele>1.78</ele>
        <time>2023-06-11T04:28:09.493Z</time>
      </trkpt>
      <trkpt lat="55.41574691422284" lon="12.25027771666646">
        <ele>1.69</ele>
        <time>2023-06-11T04:28:24.782Z</time>
      </trkpt>
      <trkpt lat="55.415759989991784" lon="12.250199932605028">
        <ele>1.68</ele>
        <time>2023-06-11T04:28:40.072Z</time>
      </trkpt>
      <trkpt lat="55.41577599942684" lon="12.25013304501772">
        <ele>1.68</ele>
        <time>2023-06-11T04:28:55.363Z</time>
      </trkpt>
      <trkpt lat="55.41589577682316" lon="12.249633986502886">
        <ele>1.74</ele>
        <time>2023-06-11T04:29:10.658Z</time>
      </trkpt>
      <trkpt lat="55.415930142626166" lon="12.24949099123478">
        <ele>1.74</ele>
        <time>2023-06-11T04:29:25.955Z</time>
      </trkpt>
      <trkpt lat="55.41596442461014" lon="12.249347995966673">
        <ele>1.7</ele>
        <time>2023-06-11T04:29:41.253Z</time>
      </trkpt>
      <trkpt lat="55.41604992002249" lon="12.248991932719946">
        <ele>1.51</ele>
        <time>2023-06-11T04:29:56.555Z</time>
      </trkpt>
      <trkpt lat="55.416118148714304" lon="12.248707367107272">
        <ele>1.41</ele>
        <time>2023-06-11T04:30:11.860Z</time>
      </trkpt>
      <trkpt lat="55.41627581231296" lon="12.248050644993782">
        <ele>1.13</ele>
        <time>2023-06-11T04:30:27.171Z</time>
      </trkpt>
      <trkpt lat="55.41636616922915" lon="12.247674129903316">
        <ele>1.02</ele>
        <time>2023-06-11T04:30:42.486Z</time>
      </trkpt>
      <trkpt lat="55.41644814424217" lon="12.247332651168108">
        <ele>0.88</ele>
        <time>2023-06-11T04:30:57.804Z</time>
      </trkpt>
      <trkpt lat="55.41647999547422" lon="12.247199965640903">
        <ele>0.84</ele>
        <time>2023-06-11T04:31:13.124Z</time>
      </trkpt>
      <trkpt lat="55.41648058220744" lon="12.247196864336729">
        <ele>0.84</ele>
        <time>2023-06-11T04:31:28.444Z</time>
      </trkpt>
      <trkpt lat="55.41650933213532" lon="12.247055126354098">
        <ele>0.82</ele>
        <time>2023-06-11T04:31:43.765Z</time>
      </trkpt>
      <trkpt lat="55.41658351197839" lon="12.246689591556787">
        <ele>0.83</ele>
        <time>2023-06-11T04:31:59.089Z</time>
      </trkpt>
      <trkpt lat="55.41662743315101" lon="12.24647325463593">
        <ele>0.78</ele>
        <time>2023-06-11T04:32:14.416Z</time>
      </trkpt>
      <trkpt lat="55.41665643453598" lon="12.24633009172976">
        <ele>0.77</ele>
        <time>2023-06-11T04:32:29.744Z</time>
      </trkpt>
      <trkpt lat="55.41668585501611" lon="12.246185336261988">
        <ele>0.79</ele>
        <time>2023-06-11T04:32:45.073Z</time>
      </trkpt>
      <trkpt lat="55.41671552695334" lon="12.246039155870676">
        <ele>0.85</ele>
        <time>2023-06-11T04:33:00.404Z</time>
      </trkpt>
      <trkpt lat="55.41674486361444" lon="12.245894400402904">
        <ele>0.97</ele>
        <time>2023-06-11T04:33:15.736Z</time>
      </trkpt>
      <trkpt lat="55.41675995104015" lon="12.24581996910274">
        <ele>1.05</ele>
        <time>2023-06-11T04:33:31.069Z</time>
      </trkpt>
      <trkpt lat="55.416780821979046" lon="12.24567387253046">
        <ele>1.22</ele>
        <time>2023-06-11T04:33:46.403Z</time>
      </trkpt>
      <trkpt lat="55.4167899582535" lon="12.245609918609262">
        <ele>1.26</ele>
        <time>2023-06-11T04:34:01.738Z</time>
      </trkpt>
      <trkpt lat="55.41678283363581" lon="12.24524823948741">
        <ele>1.49</ele>
        <time>2023-06-11T04:34:17.076Z</time>
      </trkpt>
      <trkpt lat="55.41677998378873" lon="12.245099963620305">
        <ele>1.61</ele>
        <time>2023-06-11T04:34:32.416Z</time>
      </trkpt>
      <trkpt lat="55.41673799045384" lon="12.244890248402953">
        <ele>1.79</ele>
        <time>2023-06-11T04:34:47.758Z</time>
      </trkpt>
      <trkpt lat="55.41669993661344" lon="12.24469997920096">
        <ele>1.98</ele>
        <time>2023-06-11T04:35:03.101Z</time>
      </trkpt>
      <trkpt lat="55.41669306345284" lon="12.24468195810914">
        <ele>2.01</ele>
        <time>2023-06-11T04:35:18.445Z</time>
      </trkpt>
      <trkpt lat="55.416597593575716" lon="12.244432345032692">
        <ele>2.35</ele>
        <time>2023-06-11T04:35:33.791Z</time>
      </trkpt>
      <trkpt lat="55.41656993329525" lon="12.24435992538929">
        <ele>2.43</ele>
        <time>2023-06-11T04:35:49.138Z</time>
      </trkpt>
      <trkpt lat="55.41653581894934" lon="12.244306113570929">
        <ele>2.51</ele>
        <time>2023-06-11T04:36:04.486Z</time>
      </trkpt>
      <trkpt lat="55.416471445932984" lon="12.244204776361585">
        <ele>2.62</ele>
        <time>2023-06-11T04:36:19.835Z</time>
      </trkpt>
      <trkpt lat="55.41640640236437" lon="12.244102265685797">
        <ele>2.7</ele>
        <time>2023-06-11T04:36:35.186Z</time>
      </trkpt>
      <trkpt lat="55.416239937767386" lon="12.24383999593556">
        <ele>2.79</ele>
        <time>2023-06-11T04:36:50.540Z</time>
      </trkpt>
      <trkpt lat="55.416239937767386" lon="12.24383999593556">
        <ele>2.79</ele>
        <time>2023-06-11T04:37:05.894Z</time>
      </trkpt>
      <trkpt lat="55.41617992334068" lon="12.243599938228726">
        <ele>2.57</ele>
        <time>2023-06-11T04:37:21.251Z</time>
      </trkpt>
      <trkpt lat="55.41615997441113" lon="12.2433699388057">
        <ele>2.39</ele>
        <time>2023-06-11T04:37:36.610Z</time>
      </trkpt>
      <trkpt lat="55.41633448563516" lon="12.243335824459791">
        <ele>2.15</ele>
        <time>2023-06-11T04:37:51.972Z</time>
      </trkpt>
      <trkpt lat="55.416619973257184" lon="12.243279917165637">
        <ele>1.89</ele>
        <time>2023-06-11T04:38:07.338Z</time>
      </trkpt>
      <trkpt lat="55.416754838079214" lon="12.243244796991348">
        <ele>1.77</ele>
        <time>2023-06-11T04:38:22.706Z</time>
      </trkpt>
      <trkpt lat="55.41684997268021" lon="12.24321998655796">
        <ele>1.76</ele>
        <time>2023-06-11T04:38:38.076Z</time>
      </trkpt>
      <trkpt lat="55.416971845552325" lon="12.243152260780334">
        <ele>1.75</ele>
        <time>2023-06-11T04:38:53.448Z</time>
      </trkpt>
      <trkpt lat="55.417029932141304" lon="12.243119990453124">
        <ele>1.72</ele>
        <time>2023-06-11T04:39:08.821Z</time>
      </trkpt>
      <trkpt lat="55.41714015416801" lon="12.243041284382343">
        <ele>1.69</ele>
        <time>2023-06-11T04:39:24.196Z</time>
      </trkpt>
      <trkpt lat="55.41723998263478" lon="12.242969954386353">
        <ele>1.67</ele>
        <time>2023-06-11T04:39:39.573Z</time>
      </trkpt>
      <trkpt lat="55.41726236231625" lon="12.242945563048124">
        <ele>1.67</ele>
        <time>2023-06-11T04:39:54.950Z</time>
      </trkpt>
      <trkpt lat="55.417459923774004" lon="12.242729980498552">
        <ele>1.69</ele>
        <time>2023-06-11T04:40:10.331Z</time>
      </trkpt>
      <trkpt lat="55.41763996705413" lon="12.242459999397397">
        <ele>1.71</ele>
        <time>2023-06-11T04:40:25.716Z</time>
      </trkpt>
      <trkpt lat="55.41776670143008" lon="12.242174679413438">
        <ele>1.73</ele>
        <time>2023-06-11T04:40:41.104Z</time>
      </trkpt>
      <trkpt lat="55.41779997758567" lon="12.24209999665618">
        <ele>1.72</ele>
        <time>2023-06-11T04:40:56.493Z</time>
      </trkpt>
      <trkpt lat="55.418033665046096" lon="12.241452829912305">
        <ele>1.72</ele>
        <time>2023-06-11T04:41:11.889Z</time>
      </trkpt>
      <trkpt lat="55.418189987540245" lon="12.241019988432527">
        <ele>1.67</ele>
        <time>2023-06-11T04:41:27.289Z</time>
      </trkpt>
      <trkpt lat="55.418591145426035" lon="12.239845348522067">
        <ele>1.54</ele>
        <time>2023-06-11T04:41:42.702Z</time>
      </trkpt>
      <trkpt lat="55.418879985809326" lon="12.238999949768186">
        <ele>1.54</ele>
        <time>2023-06-11T04:41:58.124Z</time>
      </trkpt>
      <trkpt lat="55.41895600967109" lon="12.23876760341227">
        <ele>1.55</ele>
        <time>2023-06-11T04:42:13.548Z</time>
      </trkpt>
      <trkpt lat="55.419066147878766" lon="12.238431321457028">
        <ele>1.53</ele>
        <time>2023-06-11T04:42:28.976Z</time>
      </trkpt>
      <trkpt lat="55.41942992247641" lon="12.237319964915514">
        <ele>1.52</ele>
        <time>2023-06-11T04:42:44.416Z</time>
      </trkpt>
      <trkpt lat="55.419487338513136" lon="12.237120224162936">
        <ele>1.52</ele>
        <time>2023-06-11T04:42:59.858Z</time>
      </trkpt>
      <trkpt lat="55.419547436758876" lon="12.236910928040743">
        <ele>1.55</ele>
        <time>2023-06-11T04:43:15.302Z</time>
      </trkpt>
      <trkpt lat="55.419928980991244" lon="12.235581893473864">
        <ele>1.5</ele>
        <time>2023-06-11T04:43:30.759Z</time>
      </trkpt>
      <trkpt lat="55.42016853578389" lon="12.2347476426512">
        <ele>1.59</ele>
        <time>2023-06-11T04:43:46.225Z</time>
      </trkpt>
      <trkpt lat="55.42022821493447" lon="12.234539855271578">
        <ele>1.59</ele>
        <time>2023-06-11T04:44:01.693Z</time>
      </trkpt>
      <trkpt lat="55.42029996402562" lon="12.234289990738034">
        <ele>1.61</ele>
        <time>2023-06-11T04:44:17.163Z</time>
      </trkpt>
      <trkpt lat="55.42034665122628" lon="12.234123358502984">
        <ele>1.63</ele>
        <time>2023-06-11T04:44:32.635Z</time>
      </trkpt>
      <trkpt lat="55.42048327624798" lon="12.23363603465259">
        <ele>1.57</ele>
        <time>2023-06-11T04:44:48.112Z</time>
      </trkpt>
      <trkpt lat="55.420658960938454" lon="12.23300957120955">
        <ele>1.55</ele>
        <time>2023-06-11T04:45:03.595Z</time>
      </trkpt>
      <trkpt lat="55.42079558596015" lon="12.232522247359157">
        <ele>1.5</ele>
        <time>2023-06-11T04:45:19.083Z</time>
      </trkpt>
      <trkpt lat="55.42091234587133" lon="12.232106002047658">
        <ele>1.5</ele>
        <time>2023-06-11T04:45:34.576Z</time>
      </trkpt>
      <trkpt lat="55.421021059155464" lon="12.23171817138791">
        <ele>1.52</ele>
        <time>2023-06-11T04:45:50.073Z</time>
      </trkpt>
      <trkpt lat="55.42112994007766" lon="12.231329921633005">
        <ele>1.49</ele>
        <time>2023-06-11T04:46:05.574Z</time>
      </trkpt>
      <trkpt lat="55.42116782628" lon="12.231160858646035">
        <ele>1.49</ele>
        <time>2023-06-11T04:46:21.076Z</time>
      </trkpt>
      <trkpt lat="55.421199509873986" lon="12.2310193721205">
        <ele>1.46</ele>
        <time>2023-06-11T04:46:36.580Z</time>
      </trkpt>
      <trkpt lat="55.4212661460042" lon="12.230721563100815">
        <ele>1.43</ele>
        <time>2023-06-11T04:46:52.087Z</time>
      </trkpt>
      <trkpt lat="55.42127997614443" lon="12.230659956112504">
        <ele>1.43</ele>
        <time>2023-06-11T04:47:07.594Z</time>
      </trkpt>
      <trkpt lat="55.421318616718054" lon="12.230463568121195">
        <ele>1.43</ele>
        <time>2023-06-11T04:47:23.103Z</time>
      </trkpt>
      <trkpt lat="55.421418361365795" lon="12.229955960065126">
        <ele>1.37</ele>
        <time>2023-06-11T04:47:38.617Z</time>
      </trkpt>
      <trkpt lat="55.42150318622589" lon="12.22952471114695">
        <ele>1.38</ele>
        <time>2023-06-11T04:47:54.135Z</time>
      </trkpt>
      <trkpt lat="55.421570325270295" lon="12.229183316230774">
        <ele>1.33</ele>
        <time>2023-06-11T04:48:09.656Z</time>
      </trkpt>
      <trkpt lat="55.42168339714408" lon="12.228608401492238">
        <ele>1.32</ele>
        <time>2023-06-11T04:48:25.183Z</time>
      </trkpt>
      <trkpt lat="55.42181055061519" lon="12.22796157002449">
        <ele>1.23</ele>
        <time>2023-06-11T04:48:40.716Z</time>
      </trkpt>
      <trkpt lat="55.42190534994006" lon="12.227479442954063">
        <ele>1.25</ele>
        <time>2023-06-11T04:48:56.254Z</time>
      </trkpt>
      <trkpt lat="55.42193393222988" lon="12.2273341845721">
        <ele>1.27</ele>
        <time>2023-06-11T04:49:11.793Z</time>
      </trkpt>
      <trkpt lat="55.42198874987662" lon="12.227055737748742">
        <ele>1.25</ele>
        <time>2023-06-11T04:49:27.335Z</time>
      </trkpt>
      <trkpt lat="55.42201607488096" lon="12.226916430518031">
        <ele>1.27</ele>
        <time>2023-06-11T04:49:42.878Z</time>
      </trkpt>
      <trkpt lat="55.422099977731705" lon="12.226489959284663">
        <ele>1.39</ele>
        <time>2023-06-11T04:49:58.425Z</time>
      </trkpt>
      <trkpt lat="55.42211380787194" lon="12.226344365626574">
        <ele>1.44</ele>
        <time>2023-06-11T04:50:13.974Z</time>
      </trkpt>
      <trkpt lat="55.42211992666125" lon="12.226279992610216">
        <ele>1.44</ele>
        <time>2023-06-11T04:50:29.523Z</time>
      </trkpt>
      <trkpt lat="55.42211296968162" lon="12.226112773641944">
        <ele>1.47</ele>
        <time>2023-06-11T04:50:45.074Z</time>
      </trkpt>
      <trkpt lat="55.42210995219648" lon="12.226039934903383">
        <ele>1.47</ele>
        <time>2023-06-11T04:51:00.625Z</time>
      </trkpt>
      <trkpt lat="55.42208329774439" lon="12.225888725370169">
        <ele>1.47</ele>
        <time>2023-06-11T04:51:16.178Z</time>
      </trkpt>
      <trkpt lat="55.422079944983125" lon="12.225869949907064">
        <ele>1.46</ele>
        <time>2023-06-11T04:51:31.731Z</time>
      </trkpt>
      <trkpt lat="55.42200995609164" lon="12.225669957697392">
        <ele>1.44</ele>
        <time>2023-06-11T04:51:47.286Z</time>
      </trkpt>
      <trkpt lat="55.421952959150076" lon="12.22558437846601">
        <ele>1.43</ele>
        <time>2023-06-11T04:52:02.842Z</time>
      </trkpt>
      <trkpt lat="55.421889927238226" lon="12.225489998236299">
        <ele>1.45</ele>
        <time>2023-06-11T04:52:18.400Z</time>
      </trkpt>
      <trkpt lat="55.42177140712738" lon="12.225366784259677">
        <ele>1.49</ele>
        <time>2023-06-11T04:52:33.960Z</time>
      </trkpt>
      <trkpt lat="55.421629920601845" lon="12.225219933316112">
        <ele>1.5</ele>
        <time>2023-06-11T04:52:49.523Z</time>
      </trkpt>
      <trkpt lat="55.42154719121754" lon="12.22516905516386">
        <ele>1.52</ele>
        <time>2023-06-11T04:53:05.087Z</time>
      </trkpt>
      <trkpt lat="55.421499917283654" lon="12.225139969959855">
        <ele>1.53</ele>
        <time>2023-06-11T04:53:20.652Z</time>
      </trkpt>
      <trkpt lat="55.4212798923254" lon="12.22491986118257">
        <ele>1.59</ele>
        <time>2023-06-11T04:53:36.221Z</time>
      </trkpt>
      <trkpt lat="55.42108593508601" lon="12.224725903943181">
        <ele>1.62</ele>
        <time>2023-06-11T04:53:51.793Z</time>
      </trkpt>
      <trkpt lat="55.42100999504328" lon="12.224649963900447">
        <ele>1.67</ele>
        <time>2023-06-11T04:54:07.367Z</time>
      </trkpt>
      <trkpt lat="55.42085995897651" lon="12.224499927833676">
        <ele>1.78</ele>
        <time>2023-06-11T04:54:22.944Z</time>
      </trkpt>
      <trkpt lat="55.42085409164429" lon="12.224492467939854">
        <ele>1.78</ele>
        <time>2023-06-11T04:54:38.521Z</time>
      </trkpt>
      <trkpt lat="55.4207481443882" lon="12.224358357489109">
        <ele>1.82</ele>
        <time>2023-06-11T04:54:54.100Z</time>
      </trkpt>
      <trkpt lat="55.42070992290974" lon="12.22430999390781">
        <ele>1.85</ele>
        <time>2023-06-11T04:55:09.680Z</time>
      </trkpt>
      <trkpt lat="55.42068435810506" lon="12.224255511537194">
        <ele>1.88</ele>
        <time>2023-06-11T04:55:25.260Z</time>
      </trkpt>
      <trkpt lat="55.42062995955348" lon="12.224139925092459">
        <ele>1.96</ele>
        <time>2023-06-11T04:55:40.842Z</time>
      </trkpt>
      <trkpt lat="55.42060749605298" lon="12.224069014191628">
        <ele>2.01</ele>
        <time>2023-06-11T04:55:56.424Z</time>
      </trkpt>
      <trkpt lat="55.42052233591676" lon="12.223800625652075">
        <ele>2.23</ele>
        <time>2023-06-11T04:56:12.009Z</time>
      </trkpt>
      <trkpt lat="55.42047891765833" lon="12.223663665354252">
        <ele>2.18</ele>
        <time>2023-06-11T04:56:27.596Z</time>
      </trkpt>
      <trkpt lat="55.4203699529171" lon="12.223319923505187">
        <ele>1.94</ele>
        <time>2023-06-11T04:56:43.186Z</time>
      </trkpt>
      <trkpt lat="55.4203699529171" lon="12.223319923505187">
        <ele>1.94</ele>
        <time>2023-06-11T04:56:58.776Z</time>
      </trkpt>
      <trkpt lat="55.42048352770507" lon="12.223196038976312">
        <ele>1.85</ele>
        <time>2023-06-11T04:57:14.368Z</time>
      </trkpt>
      <trkpt lat="55.420862725004554" lon="12.222782140597701">
        <ele>1.74</ele>
        <time>2023-06-11T04:57:29.967Z</time>
      </trkpt>
      <trkpt lat="55.42112876661122" lon="12.222491707652807">
        <ele>1.61</ele>
        <time>2023-06-11T04:57:45.571Z</time>
      </trkpt>
      <trkpt lat="55.42143227532506" lon="12.222160371020436">
        <ele>1.57</ele>
        <time>2023-06-11T04:58:01.181Z</time>
      </trkpt>
      <trkpt lat="55.42166009545326" lon="12.221911763772368">
        <ele>1.45</ele>
        <time>2023-06-11T04:58:16.796Z</time>
      </trkpt>
      <trkpt lat="55.42177400551736" lon="12.221787376329303">
        <ele>1.41</ele>
        <time>2023-06-11T04:58:32.413Z</time>
      </trkpt>
      <trkpt lat="55.42178993113339" lon="12.221769941970706">
        <ele>1.4</ele>
        <time>2023-06-11T04:58:48.030Z</time>
      </trkpt>
      <trkpt lat="55.421883054077625" lon="12.221650248393416">
        <ele>1.4</ele>
        <time>2023-06-11T04:59:03.649Z</time>
      </trkpt>
      <trkpt lat="55.42195497080684" lon="12.221557796001434">
        <ele>1.43</ele>
        <time>2023-06-11T04:59:19.269Z</time>
      </trkpt>
      <trkpt lat="55.42209880426526" lon="12.22137289121747">
        <ele>1.42</ele>
        <time>2023-06-11T04:59:34.892Z</time>
      </trkpt>
      <trkpt lat="55.422209948301315" lon="12.221229979768395">
        <ele>1.38</ele>
        <time>2023-06-11T04:59:50.517Z</time>
      </trkpt>
      <trkpt lat="55.42236006818712" lon="12.22107332199812">
        <ele>1.34</ele>
        <time>2023-06-11T05:00:06.145Z</time>
      </trkpt>
      <trkpt lat="55.42339456267655" lon="12.21999348141253">
        <ele>1.14</ele>
        <time>2023-06-11T05:00:21.792Z</time>
      </trkpt>
      <trkpt lat="55.4235799703747" lon="12.219799943268299">
        <ele>1.08</ele>
        <time>2023-06-11T05:00:37.443Z</time>
      </trkpt>
      <trkpt lat="55.42402882128954" lon="12.219265345484018">
        <ele>0.95</ele>
        <time>2023-06-11T05:00:53.103Z</time>
      </trkpt>
      <trkpt lat="55.424177097156644" lon="12.219088738784194">
        <ele>0.92</ele>
        <time>2023-06-11T05:01:08.765Z</time>
      </trkpt>
      <trkpt lat="55.4246196616441" lon="12.218561600893736">
        <ele>0.92</ele>
        <time>2023-06-11T05:01:24.436Z</time>
      </trkpt>
      <trkpt lat="55.424804482609034" lon="12.218341492116451">
        <ele>0.97</ele>
        <time>2023-06-11T05:01:40.111Z</time>
      </trkpt>
      <trkpt lat="55.42509952560067" lon="12.2179901227355">
        <ele>0.99</ele>
        <time>2023-06-11T05:01:55.791Z</time>
      </trkpt>
      <trkpt lat="55.42543178424239" lon="12.217594245448709">
        <ele>1.12</ele>
        <time>2023-06-11T05:02:11.478Z</time>
      </trkpt>
      <trkpt lat="55.42561585083604" lon="12.217375058680773">
        <ele>1.22</ele>
        <time>2023-06-11T05:02:27.168Z</time>
      </trkpt>
      <trkpt lat="55.42576043866575" lon="12.21720289438963">
        <ele>1.26</ele>
        <time>2023-06-11T05:02:42.861Z</time>
      </trkpt>
      <trkpt lat="55.425977194681764" lon="12.216944647952914">
        <ele>1.26</ele>
        <time>2023-06-11T05:02:58.558Z</time>
      </trkpt>
      <trkpt lat="55.42644809000194" lon="12.216383814811707">
        <ele>1.3</ele>
        <time>2023-06-11T05:03:14.264Z</time>
      </trkpt>
      <trkpt lat="55.42655613273382" lon="12.216255152598023">
        <ele>1.29</ele>
        <time>2023-06-11T05:03:29.972Z</time>
      </trkpt>
      <trkpt lat="55.42677297256887" lon="12.215996906161308">
        <ele>1.22</ele>
        <time>2023-06-11T05:03:45.685Z</time>
      </trkpt>
      <trkpt lat="55.426845978945494" lon="12.215909902006388">
        <ele>1.14</ele>
        <time>2023-06-11T05:04:01.399Z</time>
      </trkpt>
      <trkpt lat="55.42695628479123" lon="12.21577855758369">
        <ele>1.1</ele>
        <time>2023-06-11T05:04:17.115Z</time>
      </trkpt>
      <trkpt lat="55.42728560976684" lon="12.215386284515262">
        <ele>1.08</ele>
        <time>2023-06-11T05:04:32.838Z</time>
      </trkpt>
      <trkpt lat="55.427505383268" lon="12.215124517679214">
        <ele>1.11</ele>
        <time>2023-06-11T05:04:48.565Z</time>
      </trkpt>
      <trkpt lat="55.427907798439264" lon="12.214645324274898">
        <ele>1.12</ele>
        <time>2023-06-11T05:05:04.300Z</time>
      </trkpt>
      <trkpt lat="55.4280545655638" lon="12.21447047777474">
        <ele>1.17</ele>
        <time>2023-06-11T05:05:20.037Z</time>
      </trkpt>
      <trkpt lat="55.428237123414874" lon="12.21425305120647">
        <ele>1.33</ele>
        <time>2023-06-11T05:05:35.778Z</time>
      </trkpt>
      <trkpt lat="55.4283965472132" lon="12.214063117280602">
        <ele>1.38</ele>
        <time>2023-06-11T05:05:51.522Z</time>
      </trkpt>
      <trkpt lat="55.42849997989833" lon="12.213939987123013">
        <ele>1.36</ele>
        <time>2023-06-11T05:06:07.268Z</time>
      </trkpt>
      <trkpt lat="55.42868597432971" lon="12.213711077347398">
        <ele>1.33</ele>
        <time>2023-06-11T05:06:23.018Z</time>
      </trkpt>
      <trkpt lat="55.42886660434306" lon="12.213488789275289">
        <ele>1.4</ele>
        <time>2023-06-11T05:06:38.771Z</time>
      </trkpt>
      <trkpt lat="55.429479321464896" lon="12.212734753265977">
        <ele>1.46</ele>
        <time>2023-06-11T05:06:54.536Z</time>
      </trkpt>
      <trkpt lat="55.42965995147824" lon="12.212512465193868">
        <ele>1.45</ele>
        <time>2023-06-11T05:07:10.305Z</time>
      </trkpt>
      <trkpt lat="55.42980378493667" lon="12.212335523217916">
        <ele>1.41</ele>
        <time>2023-06-11T05:07:26.077Z</time>
      </trkpt>
      <trkpt lat="55.43009798973799" lon="12.211973425000906">
        <ele>1.46</ele>
        <time>2023-06-11T05:07:41.854Z</time>
      </trkpt>
      <trkpt lat="55.43035606853664" lon="12.211655834689736">
        <ele>1.34</ele>
        <time>2023-06-11T05:07:57.636Z</time>
      </trkpt>
      <trkpt lat="55.43042982928455" lon="12.21156514249742">
        <ele>1.33</ele>
        <time>2023-06-11T05:08:13.420Z</time>
      </trkpt>
      <trkpt lat="55.43095705099404" lon="12.210916383191943">
        <ele>1.35</ele>
        <time>2023-06-11T05:08:29.214Z</time>
      </trkpt>
      <trkpt lat="55.43106760829687" lon="12.210780261084437">
        <ele>1.31</ele>
        <time>2023-06-11T05:08:45.010Z</time>
      </trkpt>
      <trkpt lat="55.43147320859134" lon="12.210281202569604">
        <ele>1.32</ele>
        <time>2023-06-11T05:09:00.814Z</time>
      </trkpt>
      <trkpt lat="55.43162064626813" lon="12.21009973436594">
        <ele>1.38</ele>
        <time>2023-06-11T05:09:16.621Z</time>
      </trkpt>
      <trkpt lat="55.43176808394492" lon="12.209918266162276">
        <ele>1.47</ele>
        <time>2023-06-11T05:09:32.431Z</time>
      </trkpt>
      <trkpt lat="55.43202616274357" lon="12.209600675851107">
        <ele>1.48</ele>
        <time>2023-06-11T05:09:48.246Z</time>
      </trkpt>
      <trkpt lat="55.432357247918844" lon="12.209193231537938">
        <ele>1.61</ele>
        <time>2023-06-11T05:10:04.068Z</time>
      </trkpt>
      <trkpt lat="55.43246788904071" lon="12.209057109430432">
        <ele>1.49</ele>
        <time>2023-06-11T05:10:19.892Z</time>
      </trkpt>
      <trkpt lat="55.43257844634354" lon="12.208920987322927">
        <ele>1.49</ele>
        <time>2023-06-11T05:10:35.718Z</time>
      </trkpt>
      <trkpt lat="55.43261993676424" lon="12.208869941532612">
        <ele>1.5</ele>
        <time>2023-06-11T05:10:51.545Z</time>
      </trkpt>
      <trkpt lat="55.432689003646374" lon="12.208784613758326">
        <ele>1.52</ele>
        <time>2023-06-11T05:11:07.373Z</time>
      </trkpt>
      <trkpt lat="55.432836189866066" lon="12.20860255882144">
        <ele>1.62</ele>
        <time>2023-06-11T05:11:23.204Z</time>
      </trkpt>
      <trkpt lat="55.43290911242366" lon="12.208512453362346">
        <ele>1.65</ele>
        <time>2023-06-11T05:11:39.036Z</time>
      </trkpt>
      <trkpt lat="55.433093179017305" lon="12.208284800872207">
        <ele>1.65</ele>
        <time>2023-06-11T05:11:54.872Z</time>
      </trkpt>
      <trkpt lat="55.4333508387208" lon="12.207966204732656">
        <ele>1.72</ele>
        <time>2023-06-11T05:12:10.713Z</time>
      </trkpt>
      <trkpt lat="55.433681420981884" lon="12.207557503134012">
        <ele>1.76</ele>
        <time>2023-06-11T05:12:26.561Z</time>
      </trkpt>
      <trkpt lat="55.43401200324297" lon="12.207148717716336">
        <ele>1.87</ele>
        <time>2023-06-11T05:12:42.415Z</time>
      </trkpt>
      <trkpt lat="55.434123147279024" lon="12.207011254504323">
        <ele>1.89</ele>
        <time>2023-06-11T05:12:58.271Z</time>
      </trkpt>
      <trkpt lat="55.43434333987534" lon="12.206739094108343">
        <ele>1.85</ele>
        <time>2023-06-11T05:13:14.132Z</time>
      </trkpt>
      <trkpt lat="55.434527322649956" lon="12.206511441618204">
        <ele>1.89</ele>
        <time>2023-06-11T05:13:29.996Z</time>
      </trkpt>
      <trkpt lat="55.4347113892436" lon="12.206283872947097">
        <ele>1.89</ele>
        <time>2023-06-11T05:13:45.864Z</time>
      </trkpt>
      <trkpt lat="55.43493158183992" lon="12.206011712551117">
        <ele>1.97</ele>
        <time>2023-06-11T05:14:01.736Z</time>
      </trkpt>
      <trkpt lat="55.43526283465326" lon="12.205602005124092">
        <ele>1.99</ele>
        <time>2023-06-11T05:14:17.615Z</time>
      </trkpt>
      <trkpt lat="55.435336511582136" lon="12.20551097765565">
        <ele>2.01</ele>
        <time>2023-06-11T05:14:33.495Z</time>
      </trkpt>
      <trkpt lat="55.43541010469198" lon="12.205419950187206">
        <ele>2.06</ele>
        <time>2023-06-11T05:14:49.376Z</time>
      </trkpt>
      <trkpt lat="55.43563021346927" lon="12.205147789791226">
        <ele>2.26</ele>
        <time>2023-06-11T05:15:05.262Z</time>
      </trkpt>
      <trkpt lat="55.435703890398145" lon="12.205056762322783">
        <ele>2.31</ele>
        <time>2023-06-11T05:15:21.149Z</time>
      </trkpt>
      <trkpt lat="55.43596155010164" lon="12.204738082364202">
        <ele>2.38</ele>
        <time>2023-06-11T05:15:37.041Z</time>
      </trkpt>
      <trkpt lat="55.43607126921415" lon="12.204602463170886">
        <ele>2.37</ele>
        <time>2023-06-11T05:15:52.935Z</time>
      </trkpt>
      <trkpt lat="55.43614343740046" lon="12.20451327972114">
        <ele>2.33</ele>
        <time>2023-06-11T05:16:08.831Z</time>
      </trkpt>
      <trkpt lat="55.436251647770405" lon="12.204379420727491">
        <ele>2.31</ele>
        <time>2023-06-11T05:16:24.729Z</time>
      </trkpt>
      <trkpt lat="55.436577033251524" lon="12.203977089375257">
        <ele>2.39</ele>
        <time>2023-06-11T05:16:40.633Z</time>
      </trkpt>
      <trkpt lat="55.43683033436537" lon="12.203663941472769">
        <ele>2.51</ele>
        <time>2023-06-11T05:16:56.542Z</time>
      </trkpt>
      <trkpt lat="55.4373000562191" lon="12.203083075582981">
        <ele>2.51</ele>
        <time>2023-06-11T05:17:12.460Z</time>
      </trkpt>
      <trkpt lat="55.43737364932895" lon="12.202992048114538">
        <ele>2.41</ele>
        <time>2023-06-11T05:17:28.380Z</time>
      </trkpt>
      <trkpt lat="55.43748412281275" lon="12.202855506911874">
        <ele>2.33</ele>
        <time>2023-06-11T05:17:44.302Z</time>
      </trkpt>
      <trkpt lat="55.43763063848019" lon="12.202674373984337">
        <ele>2.26</ele>
        <time>2023-06-11T05:18:00.227Z</time>
      </trkpt>
      <trkpt lat="55.43781470507383" lon="12.20244680531323">
        <ele>2.23</ele>
        <time>2023-06-11T05:18:16.156Z</time>
      </trkpt>
      <trkpt lat="55.43792434036732" lon="12.202311102300882">
        <ele>2.25</ele>
        <time>2023-06-11T05:18:32.087Z</time>
      </trkpt>
      <trkpt lat="55.43818132951856" lon="12.201993428170681">
        <ele>2.4</ele>
        <time>2023-06-11T05:18:48.023Z</time>
      </trkpt>
      <trkpt lat="55.43847578577697" lon="12.201629234477878">
        <ele>2.42</ele>
        <time>2023-06-11T05:19:03.964Z</time>
      </trkpt>
      <trkpt lat="55.43869597837329" lon="12.201357074081898">
        <ele>2.51</ele>
        <time>2023-06-11T05:19:19.910Z</time>
      </trkpt>
      <trkpt lat="55.43884249404073" lon="12.20117594115436">
        <ele>2.55</ele>
        <time>2023-06-11T05:19:35.859Z</time>
      </trkpt>
      <trkpt lat="55.4389528837055" lon="12.201039399951696">
        <ele>2.54</ele>
        <time>2023-06-11T05:19:51.810Z</time>
      </trkpt>
      <trkpt lat="55.439209872856736" lon="12.200721642002463">
        <ele>2.47</ele>
        <time>2023-06-11T05:20:07.766Z</time>
      </trkpt>
      <trkpt lat="55.43939393945038" lon="12.200494073331356">
        <ele>2.5</ele>
        <time>2023-06-11T05:20:23.725Z</time>
      </trkpt>
      <trkpt lat="55.439687641337514" lon="12.200130801647902">
        <ele>2.61</ele>
        <time>2023-06-11T05:20:39.690Z</time>
      </trkpt>
      <trkpt lat="55.439870953559875" lon="12.199904154986143">
        <ele>2.65</ele>
        <time>2023-06-11T05:20:55.659Z</time>
      </trkpt>
      <trkpt lat="55.440019983798265" lon="12.199719920754433">
        <ele>2.63</ele>
        <time>2023-06-11T05:21:11.631Z</time>
      </trkpt>
      <trkpt lat="55.4404257517308" lon="12.199230752885342">
        <ele>2.59</ele>
        <time>2023-06-11T05:21:27.611Z</time>
      </trkpt>
      <trkpt lat="55.440536392852664" lon="12.199097480624914">
        <ele>2.63</ele>
        <time>2023-06-11T05:21:43.593Z</time>
      </trkpt>
      <trkpt lat="55.44072196818888" lon="12.198873767629266">
        <ele>2.76</ele>
        <time>2023-06-11T05:21:59.578Z</time>
      </trkpt>
      <trkpt lat="55.44083336368203" lon="12.198739489540458">
        <ele>2.78</ele>
        <time>2023-06-11T05:22:15.566Z</time>
      </trkpt>
      <trkpt lat="55.440981136634946" lon="12.198561457917094">
        <ele>2.73</ele>
        <time>2023-06-11T05:22:31.556Z</time>
      </trkpt>
      <trkpt lat="55.441129580140114" lon="12.198382504284382">
        <ele>2.61</ele>
        <time>2023-06-11T05:22:47.549Z</time>
      </trkpt>
      <trkpt lat="55.44120308943093" lon="12.198293907567859">
        <ele>2.57</ele>
        <time>2023-06-11T05:23:03.544Z</time>
      </trkpt>
      <trkpt lat="55.441462928429246" lon="12.197980675846338">
        <ele>2.48</ele>
        <time>2023-06-11T05:23:19.544Z</time>
      </trkpt>
      <trkpt lat="55.44161061756313" lon="12.197802644222975">
        <ele>2.41</ele>
        <time>2023-06-11T05:23:35.547Z</time>
      </trkpt>
      <trkpt lat="55.44172201305628" lon="12.197668366134167">
        <ele>2.33</ele>
        <time>2023-06-11T05:23:51.552Z</time>
      </trkpt>
      <trkpt lat="55.44186978600919" lon="12.197490334510803">
        <ele>2.17</ele>
        <time>2023-06-11T05:24:07.560Z</time>
      </trkpt>
      <trkpt lat="55.44198109768331" lon="12.197356140241027">
        <ele>2.1</ele>
        <time>2023-06-11T05:24:23.570Z</time>
      </trkpt>
      <trkpt lat="55.44238870963454" lon="12.196864876896143">
        <ele>1.99</ele>
        <time>2023-06-11T05:24:39.588Z</time>
      </trkpt>
      <trkpt lat="55.442610662430525" lon="12.196597242727876">
        <ele>1.86</ele>
        <time>2023-06-11T05:24:55.610Z</time>
      </trkpt>
      <trkpt lat="55.44290687888861" lon="12.1962402574718">
        <ele>1.75</ele>
        <time>2023-06-11T05:25:11.638Z</time>
      </trkpt>
      <trkpt lat="55.443055322393775" lon="12.196061303839087">
        <ele>1.73</ele>
        <time>2023-06-11T05:25:27.669Z</time>
      </trkpt>
      <trkpt lat="55.44324022717774" lon="12.195838429033756">
        <ele>1.75</ele>
        <time>2023-06-11T05:25:43.703Z</time>
      </trkpt>
      <trkpt lat="55.44342580251396" lon="12.195614716038108">
        <ele>1.7</ele>
        <time>2023-06-11T05:25:59.741Z</time>
      </trkpt>
      <trkpt lat="55.44361062347889" lon="12.195391925051808">
        <ele>1.69</ele>
        <time>2023-06-11T05:26:15.783Z</time>
      </trkpt>
      <trkpt lat="55.44368488714099" lon="12.195302490144968">
        <ele>1.7</ele>
        <time>2023-06-11T05:26:31.826Z</time>
      </trkpt>
      <trkpt lat="55.44383341446519" lon="12.195123452693224">
        <ele>1.78</ele>
        <time>2023-06-11T05:26:47.872Z</time>
      </trkpt>
      <trkpt lat="55.44394397176802" lon="12.194990180432796">
        <ele>1.79</ele>
        <time>2023-06-11T05:27:03.920Z</time>
      </trkpt>
      <trkpt lat="55.444314451888204" lon="12.194543592631817">
        <ele>1.66</ele>
        <time>2023-06-11T05:27:19.975Z</time>
      </trkpt>
      <trkpt lat="55.4449796397239" lon="12.19374186359346">
        <ele>1.59</ele>
        <time>2023-06-11T05:27:36.043Z</time>
      </trkpt>
      <trkpt lat="55.4454146604985" lon="12.193217491731048">
        <ele>1.63</ele>
        <time>2023-06-11T05:27:52.120Z</time>
      </trkpt>
      <trkpt lat="55.44600994326174" lon="12.192499917000532">
        <ele>1.83</ele>
        <time>2023-06-11T05:28:08.208Z</time>
      </trkpt>
      <trkpt lat="55.44609057717025" lon="12.192401262000203">
        <ele>1.86</ele>
        <time>2023-06-11T05:28:24.298Z</time>
      </trkpt>
      <trkpt lat="55.44622879475355" lon="12.192232199013233">
        <ele>1.88</ele>
        <time>2023-06-11T05:28:40.390Z</time>
      </trkpt>
      <trkpt lat="55.44642015360296" lon="12.191998092457652">
        <ele>1.94</ele>
        <time>2023-06-11T05:28:56.486Z</time>
      </trkpt>
      <trkpt lat="55.446769930422306" lon="12.19156994484365">
        <ele>2.07</ele>
        <time>2023-06-11T05:29:12.589Z</time>
      </trkpt>
      <trkpt lat="55.446820138022304" lon="12.191504314541817">
        <ele>2.09</ele>
        <time>2023-06-11T05:29:28.693Z</time>
      </trkpt>
      <trkpt lat="55.44692340306938" lon="12.19136911444366">
        <ele>2.09</ele>
        <time>2023-06-11T05:29:44.799Z</time>
      </trkpt>
      <trkpt lat="55.44706128537655" lon="12.191188568249345">
        <ele>2.06</ele>
        <time>2023-06-11T05:30:00.908Z</time>
      </trkpt>
      <trkpt lat="55.44714359566569" lon="12.191080776974559">
        <ele>2.02</ele>
        <time>2023-06-11T05:30:17.018Z</time>
      </trkpt>
      <trkpt lat="55.44731995090842" lon="12.190849939361215">
        <ele>2.08</ele>
        <time>2023-06-11T05:30:33.132Z</time>
      </trkpt>
      <trkpt lat="55.44748792424798" lon="12.190788080915809">
        <ele>2.13</ele>
        <time>2023-06-11T05:30:49.249Z</time>
      </trkpt>
      <trkpt lat="55.44750996865332" lon="12.190779950469732">
        <ele>2.12</ele>
        <time>2023-06-11T05:31:05.366Z</time>
      </trkpt>
      <trkpt lat="55.447597643360496" lon="12.190669141709805">
        <ele>2.09</ele>
        <time>2023-06-11T05:31:21.485Z</time>
      </trkpt>
      <trkpt lat="55.4477752558887" lon="12.190444590523839">
        <ele>1.96</ele>
        <time>2023-06-11T05:31:37.607Z</time>
      </trkpt>
      <trkpt lat="55.447879023849964" lon="12.190313413739204">
        <ele>1.95</ele>
        <time>2023-06-11T05:31:53.731Z</time>
      </trkpt>
      <trkpt lat="55.44803995639086" lon="12.190109984949231">
        <ele>1.82</ele>
        <time>2023-06-11T05:32:09.859Z</time>
      </trkpt>
      <trkpt lat="55.448119919747114" lon="12.189929941669106">
        <ele>1.74</ele>
        <time>2023-06-11T05:32:25.989Z</time>
      </trkpt>
      <trkpt lat="55.44812402687967" lon="12.189924912527204">
        <ele>1.74</ele>
        <time>2023-06-11T05:32:42.119Z</time>
      </trkpt>
      <trkpt lat="55.448259226977825" lon="12.189759286120534">
        <ele>1.66</ele>
        <time>2023-06-11T05:32:58.251Z</time>
      </trkpt>
      <trkpt lat="55.44842753559351" lon="12.189552839845419">
        <ele>1.59</ele>
        <time>2023-06-11T05:33:14.387Z</time>
      </trkpt>
      <trkpt lat="55.448700031265616" lon="12.189218821004033">
        <ele>1.45</ele>
        <time>2023-06-11T05:33:30.528Z</time>
      </trkpt>
      <trkpt lat="55.44899088330567" lon="12.188862171024084">
        <ele>1.25</ele>
        <time>2023-06-11T05:33:46.675Z</time>
      </trkpt>
      <trkpt lat="55.44931727461517" lon="12.188462018966675">
        <ele>1.14</ele>
        <time>2023-06-11T05:34:02.828Z</time>
      </trkpt>
      <trkpt lat="55.449579963460565" lon="12.188139986246824">
        <ele>0.98</ele>
        <time>2023-06-11T05:34:18.986Z</time>
      </trkpt>
      <trkpt lat="55.44960645027459" lon="12.188106626272202">
        <ele>0.97</ele>
        <time>2023-06-11T05:34:35.145Z</time>
      </trkpt>
      <trkpt lat="55.44993074610829" lon="12.18769851140678">
        <ele>0.83</ele>
        <time>2023-06-11T05:34:51.310Z</time>
      </trkpt>
      <trkpt lat="55.450219167396426" lon="12.187335574999452">
        <ele>0.78</ele>
        <time>2023-06-11T05:35:07.481Z</time>
      </trkpt>
      <trkpt lat="55.45043516904116" lon="12.187063917517662">
        <ele>0.66</ele>
        <time>2023-06-11T05:35:23.656Z</time>
      </trkpt>
      <trkpt lat="55.45064236968756" lon="12.186803240329027">
        <ele>0.63</ele>
        <time>2023-06-11T05:35:39.835Z</time>
      </trkpt>
      <trkpt lat="55.45082677155733" lon="12.186571061611176">
        <ele>0.66</ele>
        <time>2023-06-11T05:35:56.018Z</time>
      </trkpt>
      <trkpt lat="55.4510288592428" lon="12.186316838487983">
        <ele>0.59</ele>
        <time>2023-06-11T05:36:12.205Z</time>
      </trkpt>
      <trkpt lat="55.45107940211892" lon="12.186253303661942">
        <ele>0.54</ele>
        <time>2023-06-11T05:36:28.393Z</time>
      </trkpt>
      <trkpt lat="55.45108996331692" lon="12.1862399764359">
        <ele>0.53</ele>
        <time>2023-06-11T05:36:44.581Z</time>
      </trkpt>
      <trkpt lat="55.45130412094295" lon="12.186032943427563">
        <ele>0.46</ele>
        <time>2023-06-11T05:37:00.773Z</time>
      </trkpt>
      <trkpt lat="55.451689939945936" lon="12.18565994873643">
        <ele>0.46</ele>
        <time>2023-06-11T05:37:16.972Z</time>
      </trkpt>
      <trkpt lat="55.451691364869475" lon="12.185659194365144">
        <ele>0.46</ele>
        <time>2023-06-11T05:37:33.171Z</time>
      </trkpt>
      <trkpt lat="55.45199998654425" lon="12.18548996374011">
        <ele>0.49</ele>
        <time>2023-06-11T05:37:49.375Z</time>
      </trkpt>
      <trkpt lat="55.452179946005344" lon="12.185439923778176">
        <ele>0.51</ele>
        <time>2023-06-11T05:38:05.582Z</time>
      </trkpt>
      <trkpt lat="55.452207773923874" lon="12.185435565188527">
        <ele>0.52</ele>
        <time>2023-06-11T05:38:21.789Z</time>
      </trkpt>
      <trkpt lat="55.45236996375024" lon="12.185409916564822">
        <ele>0.56</ele>
        <time>2023-06-11T05:38:37.999Z</time>
      </trkpt>
      <trkpt lat="55.45236996375024" lon="12.185409916564822">
        <ele>0.56</ele>
        <time>2023-06-11T05:38:54.209Z</time>
      </trkpt>
      <trkpt lat="55.45268998481333" lon="12.185449982061982">
        <ele>0.56</ele>
        <time>2023-06-11T05:39:10.424Z</time>
      </trkpt>
    </trkseg>
  </trk>
</gpx>
